<?xml version='1.0' encoding='UTF-8'?><gpx version="1.1" creator="JPX - https://github.com/jenetics/jpx" xmlns="http://www.topografix.com/GPX/1/1"><trk><trkseg><trkpt lat="42.420607361398986" lon="12.065936560017096"><ele>284.0</ele><time>2026-04-12T07:56:19Z</time></trkpt><trkpt lat="42.42053113041831" lon="12.06594999820194"><ele>284.0</ele><time>2026-04-12T07:56:22Z</time></trkpt><trkpt lat="42.4204652400839" lon="12.065983925074498"><ele>284.0</ele><time>2026-04-12T07:56:24.999Z</time></trkpt><trkpt lat="42.42041381584813" lon="12.066054415843478"><ele>284.0</ele><time>2026-04-12T07:56:27.999Z</time></trkpt><trkpt lat="42.42043560221896" lon="12.06616718149608"><ele>284.0</ele><time>2026-04-12T07:56:47Z</time></trkpt><trkpt lat="42.420534802478386" lon="12.066186195384946"><ele>284.0</ele><time>2026-04-12T07:56:49Z</time></trkpt><trkpt lat="42.420610195554886" lon="12.066158320285062"><ele>284.0</ele><time>2026-04-12T07:56:50Z</time></trkpt><trkpt lat="42.42067383696026" lon="12.066137107572782"><ele>284.0</ele><time>2026-04-12T07:56:51Z</time></trkpt><trkpt lat="42.42080351150338" lon="12.066088476819884"><ele>284.0</ele><time>2026-04-12T07:56:53Z</time></trkpt><trkpt lat="42.420883137425015" lon="12.06605033536321"><ele>284.0</ele><time>2026-04-12T07:56:54Z</time></trkpt><trkpt lat="42.42098249464173" lon="12.066013827370504"><ele>284.0</ele><time>2026-04-12T07:56:55Z</time></trkpt><trkpt lat="42.421097945919186" lon="12.065971051882983"><ele>284.0</ele><time>2026-04-12T07:56:56Z</time></trkpt><trkpt lat="42.42120359429245" lon="12.065930720980306"><ele>284.0</ele><time>2026-04-12T07:56:57Z</time></trkpt><trkpt lat="42.42132347389243" lon="12.065892600818232"><ele>284.0</ele><time>2026-04-12T07:56:58Z</time></trkpt><trkpt lat="42.42144487559149" lon="12.065862760958458"><ele>284.0</ele><time>2026-04-12T07:56:59Z</time></trkpt><trkpt lat="42.42156084431728" lon="12.065842294257044"><ele>284.25</ele><time>2026-04-12T07:57:00Z</time></trkpt><trkpt lat="42.42168066844256" lon="12.065826291501622"><ele>284.5</ele><time>2026-04-12T07:57:01Z</time></trkpt><trkpt lat="42.42180652995762" lon="12.065815027609597"><ele>284.75</ele><time>2026-04-12T07:57:02Z</time></trkpt><trkpt lat="42.42193386739374" lon="12.065809961628304"><ele>285.0</ele><time>2026-04-12T07:57:03Z</time></trkpt><trkpt lat="42.42205408744759" lon="12.065802775128542"><ele>285.25</ele><time>2026-04-12T07:57:04Z</time></trkpt><trkpt lat="42.42217007308356" lon="12.065791590712259"><ele>285.5</ele><time>2026-04-12T07:57:05Z</time></trkpt><trkpt lat="42.422289935195245" lon="12.06576804776019"><ele>285.75</ele><time>2026-04-12T07:57:06Z</time></trkpt><trkpt lat="42.42242132099112" lon="12.065754250137124"><ele>286.0</ele><time>2026-04-12T07:57:07Z</time></trkpt><trkpt lat="42.42254692173028" lon="12.065736400851913"><ele>286.0</ele><time>2026-04-12T07:57:08Z</time></trkpt><trkpt lat="42.42267736179849" lon="12.065712267493964"><ele>286.0</ele><time>2026-04-12T07:57:09Z</time></trkpt><trkpt lat="42.4228202262308" lon="12.06569105146392"><ele>286.0</ele><time>2026-04-12T07:57:10Z</time></trkpt><trkpt lat="42.42295224822793" lon="12.065676801675128"><ele>286.0</ele><time>2026-04-12T07:57:11Z</time></trkpt><trkpt lat="42.42307807273143" lon="12.065661878185727"><ele>286.0</ele><time>2026-04-12T07:57:12Z</time></trkpt><trkpt lat="42.42318934574214" lon="12.065649625984301"><ele>286.0</ele><time>2026-04-12T07:57:13Z</time></trkpt><trkpt lat="42.42329014492103" lon="12.065638239445729"><ele>286.0</ele><time>2026-04-12T07:57:14Z</time></trkpt><trkpt lat="42.42339106715847" lon="12.065625432330355"><ele>286.0</ele><time>2026-04-12T07:57:15Z</time></trkpt><trkpt lat="42.42349443730283" lon="12.065614774871353"><ele>286.0</ele><time>2026-04-12T07:57:16Z</time></trkpt><trkpt lat="42.423586616167135" lon="12.065607092684859"><ele>286.0</ele><time>2026-04-12T07:57:17Z</time></trkpt><trkpt lat="42.42365899878857" lon="12.065594553762054"><ele>286.0</ele><time>2026-04-12T07:57:18Z</time></trkpt><trkpt lat="42.42372846803737" lon="12.065585371843335"><ele>286.0</ele><time>2026-04-12T07:57:19Z</time></trkpt><trkpt lat="42.42379579027374" lon="12.065574189890722"><ele>286.0</ele><time>2026-04-12T07:57:20Z</time></trkpt><trkpt lat="42.423858821562405" lon="12.06556190771928"><ele>286.0</ele><time>2026-04-12T07:57:21Z</time></trkpt><trkpt lat="42.42394807128376" lon="12.06555038954998"><ele>286.0</ele><time>2026-04-12T07:57:23Z</time></trkpt><trkpt lat="42.42403108046569" lon="12.06551436472162"><ele>286.5</ele><time>2026-04-12T07:57:28Z</time></trkpt><trkpt lat="42.42408634232651" lon="12.065425661774693"><ele>287.0</ele><time>2026-04-12T07:57:31Z</time></trkpt><trkpt lat="42.42404314799471" lon="12.065297805531257"><ele>287.5</ele><time>2026-04-12T07:57:33Z</time></trkpt><trkpt lat="42.42399845039419" lon="12.065221484092262"><ele>288.0</ele><time>2026-04-12T07:57:34Z</time></trkpt><trkpt lat="42.42395241408536" lon="12.065133535939003"><ele>288.5</ele><time>2026-04-12T07:57:35Z</time></trkpt><trkpt lat="42.42390833147362" lon="12.065030434209802"><ele>289.0</ele><time>2026-04-12T07:57:36Z</time></trkpt><trkpt lat="42.42386004243035" lon="12.064912270846511"><ele>288.59999999999997</ele><time>2026-04-12T07:57:37Z</time></trkpt><trkpt lat="42.42380894337993" lon="12.064802743547373"><ele>288.2</ele><time>2026-04-12T07:57:38Z</time></trkpt><trkpt lat="42.42376149829107" lon="12.064696370525812"><ele>287.79999999999995</ele><time>2026-04-12T07:57:39Z</time></trkpt><trkpt lat="42.423713453407196" lon="12.064585333182068"><ele>287.4</ele><time>2026-04-12T07:57:40Z</time></trkpt><trkpt lat="42.423654571658105" lon="12.064459317297253"><ele>287.0</ele><time>2026-04-12T07:57:41Z</time></trkpt><trkpt lat="42.42358521286197" lon="12.064323919265307"><ele>287.0</ele><time>2026-04-12T07:57:42Z</time></trkpt><trkpt lat="42.42351000492309" lon="12.064176046149926"><ele>287.0</ele><time>2026-04-12T07:57:43Z</time></trkpt><trkpt lat="42.42342537771556" lon="12.06401083640115"><ele>287.0</ele><time>2026-04-12T07:57:44Z</time></trkpt><trkpt lat="42.423341118639584" lon="12.063837211863078"><ele>287.0</ele><time>2026-04-12T07:57:45Z</time></trkpt><trkpt lat="42.42326374922905" lon="12.063659757255627"><ele>287.33333333333337</ele><time>2026-04-12T07:57:46Z</time></trkpt><trkpt lat="42.42318283262192" lon="12.063480609188693"><ele>287.6666666666667</ele><time>2026-04-12T07:57:47Z</time></trkpt><trkpt lat="42.42309603393856" lon="12.063286770437664"><ele>288.0</ele><time>2026-04-12T07:57:48Z</time></trkpt><trkpt lat="42.42300620140979" lon="12.063077948469683"><ele>286.6666666666667</ele><time>2026-04-12T07:57:49Z</time></trkpt><trkpt lat="42.422919538125235" lon="12.062871611237888"><ele>285.33333333333337</ele><time>2026-04-12T07:57:50Z</time></trkpt><trkpt lat="42.422830332847134" lon="12.062669068129228"><ele>284.0</ele><time>2026-04-12T07:57:51Z</time></trkpt><trkpt lat="42.422738695432464" lon="12.062464775342189"><ele>284.33333333333337</ele><time>2026-04-12T07:57:52Z</time></trkpt><trkpt lat="42.4226451182705" lon="12.062257866069615"><ele>284.6666666666667</ele><time>2026-04-12T07:57:53Z</time></trkpt><trkpt lat="42.42254995334726" lon="12.062048494821717"><ele>285.0</ele><time>2026-04-12T07:57:54Z</time></trkpt><trkpt lat="42.42245287040675" lon="12.061835605817981"><ele>285.0</ele><time>2026-04-12T07:57:55Z</time></trkpt><trkpt lat="42.422351150170336" lon="12.061616941959155"><ele>285.0</ele><time>2026-04-12T07:57:56Z</time></trkpt><trkpt lat="42.422249148971645" lon="12.06139233170701"><ele>285.0</ele><time>2026-04-12T07:57:57Z</time></trkpt><trkpt lat="42.4221447891629" lon="12.061165070086076"><ele>284.6666666666667</ele><time>2026-04-12T07:57:58Z</time></trkpt><trkpt lat="42.422050412354785" lon="12.060955540977595"><ele>284.33333333333337</ele><time>2026-04-12T07:57:59Z</time></trkpt><trkpt lat="42.42196105580572" lon="12.060758672354659"><ele>284.0</ele><time>2026-04-12T07:58:00Z</time></trkpt><trkpt lat="42.421877165449665" lon="12.060571667292933"><ele>284.0</ele><time>2026-04-12T07:58:01Z</time></trkpt><trkpt lat="42.421792688701075" lon="12.060391886753758"><ele>284.0</ele><time>2026-04-12T07:58:02Z</time></trkpt><trkpt lat="42.42171734430441" lon="12.060234581739195"><ele>284.0</ele><time>2026-04-12T07:58:03Z</time></trkpt><trkpt lat="42.42164871675744" lon="12.0600861553406"><ele>284.0</ele><time>2026-04-12T07:58:04Z</time></trkpt><trkpt lat="42.42158275155875" lon="12.059938291965763"><ele>284.0</ele><time>2026-04-12T07:58:05Z</time></trkpt><trkpt lat="42.421513985605294" lon="12.059782167894014"><ele>284.0</ele><time>2026-04-12T07:58:06Z</time></trkpt><trkpt lat="42.42144399728434" lon="12.059619634334194"><ele>284.0</ele><time>2026-04-12T07:58:07Z</time></trkpt><trkpt lat="42.42136604847675" lon="12.059445674883017"><ele>284.0</ele><time>2026-04-12T07:58:08Z</time></trkpt><trkpt lat="42.42128329149931" lon="12.05926337265434"><ele>283.6666666666667</ele><time>2026-04-12T07:58:09Z</time></trkpt><trkpt lat="42.42119784607284" lon="12.059078257793123"><ele>283.3333333333333</ele><time>2026-04-12T07:58:10Z</time></trkpt><trkpt lat="42.421112558764364" lon="12.058891315363029"><ele>283.0</ele><time>2026-04-12T07:58:11Z</time></trkpt><trkpt lat="42.42101925278071" lon="12.058699595713602"><ele>283.0</ele><time>2026-04-12T07:58:12Z</time></trkpt><trkpt lat="42.42093573646376" lon="12.058510176417256"><ele>283.0</ele><time>2026-04-12T07:58:13Z</time></trkpt><trkpt lat="42.42084771469883" lon="12.05832114856462"><ele>283.0</ele><time>2026-04-12T07:58:14Z</time></trkpt><trkpt lat="42.420754448708145" lon="12.058136596398807"><ele>282.66666666666663</ele><time>2026-04-12T07:58:15Z</time></trkpt><trkpt lat="42.42066450952059" lon="12.057947928385042"><ele>282.3333333333333</ele><time>2026-04-12T07:58:16Z</time></trkpt><trkpt lat="42.42057051312369" lon="12.057741576877179"><ele>282.0</ele><time>2026-04-12T07:58:17Z</time></trkpt><trkpt lat="42.42047168605569" lon="12.05753253587785"><ele>280.6666666666667</ele><time>2026-04-12T07:58:18Z</time></trkpt><trkpt lat="42.420367216025824" lon="12.057308970099825"><ele>279.33333333333337</ele><time>2026-04-12T07:58:19Z</time></trkpt><trkpt lat="42.420261728059295" lon="12.057081895595667"><ele>278.0</ele><time>2026-04-12T07:58:20Z</time></trkpt><trkpt lat="42.42015501280029" lon="12.05685235253751"><ele>278.0</ele><time>2026-04-12T07:58:21Z</time></trkpt><trkpt lat="42.420039435139365" lon="12.056612395812467"><ele>278.0</ele><time>2026-04-12T07:58:22Z</time></trkpt><trkpt lat="42.419931438132274" lon="12.056380734187679"><ele>278.0</ele><time>2026-04-12T07:58:23Z</time></trkpt><trkpt lat="42.41982905082092" lon="12.056157700959282"><ele>278.0</ele><time>2026-04-12T07:58:24Z</time></trkpt><trkpt lat="42.41971879296046" lon="12.05592627988855"><ele>278.0</ele><time>2026-04-12T07:58:25Z</time></trkpt><trkpt lat="42.41961924649023" lon="12.055705474541519"><ele>278.0</ele><time>2026-04-12T07:58:26Z</time></trkpt><trkpt lat="42.419511933447964" lon="12.055487507825584"><ele>276.33333333333337</ele><time>2026-04-12T07:58:27Z</time></trkpt><trkpt lat="42.41941108483063" lon="12.055267489636623"><ele>274.6666666666667</ele><time>2026-04-12T07:58:28Z</time></trkpt><trkpt lat="42.41930895706787" lon="12.055040969818547"><ele>273.0</ele><time>2026-04-12T07:58:29Z</time></trkpt><trkpt lat="42.419213557126376" lon="12.054800815678849"><ele>272.0</ele><time>2026-04-12T07:58:30Z</time></trkpt><trkpt lat="42.41913051270371" lon="12.054547305388008"><ele>271.0</ele><time>2026-04-12T07:58:30.997Z</time></trkpt><trkpt lat="42.41906553176944" lon="12.05426404433534"><ele>270.0</ele><time>2026-04-12T07:58:31.997Z</time></trkpt><trkpt lat="42.4190180066318" lon="12.05399023709594"><ele>269.6666666666667</ele><time>2026-04-12T07:58:32.997Z</time></trkpt><trkpt lat="42.41898980905602" lon="12.053716149432327"><ele>269.33333333333337</ele><time>2026-04-12T07:58:33.997Z</time></trkpt><trkpt lat="42.418980081630245" lon="12.053442001143297"><ele>269.0</ele><time>2026-04-12T07:58:34.998Z</time></trkpt><trkpt lat="42.41900435684867" lon="12.053146325882024"><ele>268.0</ele><time>2026-04-12T07:58:35.998Z</time></trkpt><trkpt lat="42.419022841821196" lon="12.05285255667616"><ele>267.0</ele><time>2026-04-12T07:58:36.998Z</time></trkpt><trkpt lat="42.41906413548325" lon="12.05256642267543"><ele>266.0</ele><time>2026-04-12T07:58:37.998Z</time></trkpt><trkpt lat="42.419093817388614" lon="12.052287331107376"><ele>265.33333333333337</ele><time>2026-04-12T07:58:38.998Z</time></trkpt><trkpt lat="42.41912094256904" lon="12.052017892564038"><ele>264.6666666666667</ele><time>2026-04-12T07:58:39.998Z</time></trkpt><trkpt lat="42.41914932518136" lon="12.051761378409719"><ele>264.0</ele><time>2026-04-12T07:58:40.998Z</time></trkpt><trkpt lat="42.4191732677823" lon="12.051517696914853"><ele>263.6666666666667</ele><time>2026-04-12T07:58:41.998Z</time></trkpt><trkpt lat="42.419198062940396" lon="12.051253800474274"><ele>263.33333333333337</ele><time>2026-04-12T07:58:42.998Z</time></trkpt><trkpt lat="42.419223716950434" lon="12.051005963161444"><ele>263.0</ele><time>2026-04-12T07:58:43.998Z</time></trkpt><trkpt lat="42.419246392534184" lon="12.050753959987915"><ele>262.0</ele><time>2026-04-12T07:58:44.998Z</time></trkpt><trkpt lat="42.41927267505722" lon="12.05050950457584"><ele>261.0</ele><time>2026-04-12T07:58:45.998Z</time></trkpt><trkpt lat="42.41929945220054" lon="12.050254928225854"><ele>260.0</ele><time>2026-04-12T07:58:46.998Z</time></trkpt><trkpt lat="42.41932647437588" lon="12.050002380260297"><ele>259.33333333333337</ele><time>2026-04-12T07:58:47.998Z</time></trkpt><trkpt lat="42.41935457805398" lon="12.049751112040322"><ele>258.6666666666667</ele><time>2026-04-12T07:58:48.998Z</time></trkpt><trkpt lat="42.419383311092616" lon="12.049496432731186"><ele>258.0</ele><time>2026-04-12T07:58:49.998Z</time></trkpt><trkpt lat="42.41941019698313" lon="12.049240072180778"><ele>258.0</ele><time>2026-04-12T07:58:50.998Z</time></trkpt><trkpt lat="42.41942980502135" lon="12.048980474706802"><ele>258.0</ele><time>2026-04-12T07:58:51.998Z</time></trkpt><trkpt lat="42.4194576850541" lon="12.048701237440437"><ele>258.0</ele><time>2026-04-12T07:58:52.998Z</time></trkpt><trkpt lat="42.41947297296022" lon="12.048436476843316"><ele>258.3333333333333</ele><time>2026-04-12T07:58:53.999Z</time></trkpt><trkpt lat="42.41947669713579" lon="12.048160627739637"><ele>258.66666666666663</ele><time>2026-04-12T07:58:54.999Z</time></trkpt><trkpt lat="42.419463720297706" lon="12.04788113130129"><ele>259.0</ele><time>2026-04-12T07:58:55.999Z</time></trkpt><trkpt lat="42.41943939722417" lon="12.04759958717754"><ele>258.66666666666663</ele><time>2026-04-12T07:58:56.999Z</time></trkpt><trkpt lat="42.41944293539307" lon="12.047326487677356"><ele>258.3333333333333</ele><time>2026-04-12T07:58:57.999Z</time></trkpt><trkpt lat="42.419438116436424" lon="12.047073804655389"><ele>258.0</ele><time>2026-04-12T07:58:58.999Z</time></trkpt><trkpt lat="42.41942414319846" lon="12.046825665410074"><ele>257.6666666666667</ele><time>2026-04-12T07:58:59.999Z</time></trkpt><trkpt lat="42.4194153906319" lon="12.04658714840655"><ele>257.33333333333337</ele><time>2026-04-12T07:59:00.999Z</time></trkpt><trkpt lat="42.419408605005025" lon="12.046355715800663"><ele>257.0</ele><time>2026-04-12T07:59:01.999Z</time></trkpt><trkpt lat="42.4194017794325" lon="12.046139027407152"><ele>257.0</ele><time>2026-04-12T07:59:02.999Z</time></trkpt><trkpt lat="42.419390905364956" lon="12.045921776919773"><ele>257.0</ele><time>2026-04-12T07:59:03.999Z</time></trkpt><trkpt lat="42.419381251374325" lon="12.045718435589345"><ele>257.0</ele><time>2026-04-12T07:59:04.999Z</time></trkpt><trkpt lat="42.41937510014961" lon="12.045525029990467"><ele>257.0</ele><time>2026-04-12T07:59:05.999Z</time></trkpt><trkpt lat="42.41936946535531" lon="12.04533937905386"><ele>257.0</ele><time>2026-04-12T07:59:06.999Z</time></trkpt><trkpt lat="42.419356788227375" lon="12.045151004037576"><ele>257.0</ele><time>2026-04-12T07:59:07.999Z</time></trkpt><trkpt lat="42.41933347245533" lon="12.044955761730208"><ele>257.0</ele><time>2026-04-12T07:59:08.999Z</time></trkpt><trkpt lat="42.41930527304642" lon="12.044742361995072"><ele>256.6666666666667</ele><time>2026-04-12T07:59:09.999Z</time></trkpt><trkpt lat="42.41926877655086" lon="12.044532339409967"><ele>256.3333333333333</ele><time>2026-04-12T07:59:10.999Z</time></trkpt><trkpt lat="42.419235092310274" lon="12.044334930974083"><ele>256.0</ele><time>2026-04-12T07:59:11.999Z</time></trkpt><trkpt lat="42.41916520398443" lon="12.044101013627783"><ele>255.33333333333331</ele><time>2026-04-12T07:59:12.999Z</time></trkpt><trkpt lat="42.419100150799125" lon="12.043868912630256"><ele>254.66666666666669</ele><time>2026-04-12T07:59:13.999Z</time></trkpt><trkpt lat="42.41904393439085" lon="12.043638790624364"><ele>254.0</ele><time>2026-04-12T07:59:14.999Z</time></trkpt><trkpt lat="42.41899086840811" lon="12.043397482412097"><ele>253.0</ele><time>2026-04-12T07:59:15.999Z</time></trkpt><trkpt lat="42.4189418526052" lon="12.043152769837345"><ele>252.0</ele><time>2026-04-12T07:59:16.999Z</time></trkpt><trkpt lat="42.41889531615544" lon="12.042894936118131"><ele>251.0</ele><time>2026-04-12T07:59:17.999Z</time></trkpt><trkpt lat="42.41886214777248" lon="12.042643956610675"><ele>248.66666666666669</ele><time>2026-04-12T07:59:18.999Z</time></trkpt><trkpt lat="42.41883798620772" lon="12.042385261025759"><ele>246.33333333333331</ele><time>2026-04-12T07:59:19.999Z</time></trkpt><trkpt lat="42.41881300599828" lon="12.042117369444263"><ele>244.0</ele><time>2026-04-12T07:59:20.999Z</time></trkpt><trkpt lat="42.41879706889169" lon="12.041819242500637"><ele>242.66666666666666</ele><time>2026-04-12T07:59:21.999Z</time></trkpt><trkpt lat="42.41878682339818" lon="12.041526991159875"><ele>241.33333333333331</ele><time>2026-04-12T07:59:22.999Z</time></trkpt><trkpt lat="42.41877298900456" lon="12.041226953931224"><ele>240.0</ele><time>2026-04-12T07:59:23.999Z</time></trkpt><trkpt lat="42.41875648405016" lon="12.040934822018507"><ele>239.66666666666669</ele><time>2026-04-12T07:59:24.999Z</time></trkpt><trkpt lat="42.41874199592494" lon="12.040641793170238"><ele>239.33333333333334</ele><time>2026-04-12T07:59:25.999Z</time></trkpt><trkpt lat="42.41872120333347" lon="12.040355243784541"><ele>239.0</ele><time>2026-04-12T07:59:26.999Z</time></trkpt><trkpt lat="42.418702738036295" lon="12.040071623655832"><ele>238.66666666666669</ele><time>2026-04-12T07:59:27.999Z</time></trkpt><trkpt lat="42.418688110426906" lon="12.039792037947088"><ele>238.33333333333331</ele><time>2026-04-12T07:59:28.999Z</time></trkpt><trkpt lat="42.41867660726514" lon="12.039509772421798"><ele>238.0</ele><time>2026-04-12T07:59:29.999Z</time></trkpt><trkpt lat="42.41866164162872" lon="12.039237689857794"><ele>238.0</ele><time>2026-04-12T07:59:30.999Z</time></trkpt><trkpt lat="42.41864699230309" lon="12.038963590127445"><ele>238.0</ele><time>2026-04-12T07:59:31.999Z</time></trkpt><trkpt lat="42.41863532550003" lon="12.038694474730196"><ele>238.0</ele><time>2026-04-12T07:59:32.999Z</time></trkpt><trkpt lat="42.41862118235749" lon="12.03841650826536"><ele>237.33333333333331</ele><time>2026-04-12T07:59:33.999Z</time></trkpt><trkpt lat="42.4185999033361" lon="12.038125219146433"><ele>236.66666666666669</ele><time>2026-04-12T07:59:34.999Z</time></trkpt><trkpt lat="42.418581500540185" lon="12.037836370038828"><ele>236.0</ele><time>2026-04-12T07:59:35.999Z</time></trkpt><trkpt lat="42.41856219097739" lon="12.037536327410775"><ele>235.66666666666669</ele><time>2026-04-12T07:59:36.999Z</time></trkpt><trkpt lat="42.418534860010425" lon="12.037246129067828"><ele>235.33333333333331</ele><time>2026-04-12T07:59:38Z</time></trkpt><trkpt lat="42.41852333749593" lon="12.036951424098907"><ele>235.0</ele><time>2026-04-12T07:59:39Z</time></trkpt><trkpt lat="42.41851318313234" lon="12.036666817573245"><ele>235.0</ele><time>2026-04-12T07:59:40Z</time></trkpt><trkpt lat="42.41849752608828" lon="12.036392766312199"><ele>235.0</ele><time>2026-04-12T07:59:41Z</time></trkpt><trkpt lat="42.41848332018789" lon="12.036117629235175"><ele>235.0</ele><time>2026-04-12T07:59:42Z</time></trkpt><trkpt lat="42.41846979838192" lon="12.035835178672802"><ele>234.66666666666666</ele><time>2026-04-12T07:59:43Z</time></trkpt><trkpt lat="42.418454855399446" lon="12.035553774137773"><ele>234.33333333333331</ele><time>2026-04-12T07:59:44Z</time></trkpt><trkpt lat="42.41844210005923" lon="12.035284901298521"><ele>234.0</ele><time>2026-04-12T07:59:45Z</time></trkpt><trkpt lat="42.41842262260503" lon="12.034990983054637"><ele>234.33333333333331</ele><time>2026-04-12T07:59:46Z</time></trkpt><trkpt lat="42.418406169443394" lon="12.03469752893869"><ele>234.66666666666666</ele><time>2026-04-12T07:59:47Z</time></trkpt><trkpt lat="42.41839193517964" lon="12.034408461912081"><ele>235.0</ele><time>2026-04-12T07:59:48Z</time></trkpt><trkpt lat="42.41837657521016" lon="12.034138562707744"><ele>234.33333333333331</ele><time>2026-04-12T07:59:49Z</time></trkpt><trkpt lat="42.418362432877245" lon="12.033876670678026"><ele>233.66666666666669</ele><time>2026-04-12T07:59:50Z</time></trkpt><trkpt lat="42.41834557299702" lon="12.033607833494907"><ele>233.0</ele><time>2026-04-12T07:59:51Z</time></trkpt><trkpt lat="42.41833171369767" lon="12.033323439894277"><ele>232.33333333333334</ele><time>2026-04-12T07:59:52Z</time></trkpt><trkpt lat="42.418314296055364" lon="12.033035726501092"><ele>231.66666666666669</ele><time>2026-04-12T07:59:53Z</time></trkpt><trkpt lat="42.41828958577967" lon="12.032749494254137"><ele>231.0</ele><time>2026-04-12T07:59:54Z</time></trkpt><trkpt lat="42.41827432321876" lon="12.032465410213947"><ele>231.0</ele><time>2026-04-12T07:59:55Z</time></trkpt><trkpt lat="42.41825966201125" lon="12.03218218009545"><ele>231.0</ele><time>2026-04-12T07:59:56Z</time></trkpt><trkpt lat="42.41824398066304" lon="12.0319138034362"><ele>231.0</ele><time>2026-04-12T07:59:57Z</time></trkpt><trkpt lat="42.41823909795351" lon="12.031644430368937"><ele>230.0</ele><time>2026-04-12T07:59:58Z</time></trkpt><trkpt lat="42.41823576662048" lon="12.031366106190749"><ele>229.0</ele><time>2026-04-12T07:59:59Z</time></trkpt><trkpt lat="42.418235146660464" lon="12.031073393436905"><ele>228.0</ele><time>2026-04-12T08:00:00Z</time></trkpt><trkpt lat="42.41823858222618" lon="12.030777546863645"><ele>225.66666666666669</ele><time>2026-04-12T08:00:01Z</time></trkpt><trkpt lat="42.418246701783865" lon="12.030477640376631"><ele>223.33333333333334</ele><time>2026-04-12T08:00:02Z</time></trkpt><trkpt lat="42.418248070169284" lon="12.03018099587647"><ele>221.0</ele><time>2026-04-12T08:00:03Z</time></trkpt><trkpt lat="42.418259586712885" lon="12.029881845615801"><ele>219.33333333333334</ele><time>2026-04-12T08:00:04Z</time></trkpt><trkpt lat="42.41827102239798" lon="12.02960199372951"><ele>217.66666666666669</ele><time>2026-04-12T08:00:05Z</time></trkpt><trkpt lat="42.41827990319597" lon="12.029328652383448"><ele>216.0</ele><time>2026-04-12T08:00:06Z</time></trkpt><trkpt lat="42.41828606703356" lon="12.029059967603379"><ele>214.33333333333331</ele><time>2026-04-12T08:00:07Z</time></trkpt><trkpt lat="42.418289230997466" lon="12.02880604249423"><ele>212.66666666666666</ele><time>2026-04-12T08:00:08Z</time></trkpt><trkpt lat="42.41829264432137" lon="12.02855400372605"><ele>211.0</ele><time>2026-04-12T08:00:09Z</time></trkpt><trkpt lat="42.41830348971567" lon="12.028284872894787"><ele>210.33333333333331</ele><time>2026-04-12T08:00:10Z</time></trkpt><trkpt lat="42.41831340141753" lon="12.028010687319215"><ele>209.66666666666669</ele><time>2026-04-12T08:00:11Z</time></trkpt><trkpt lat="42.418322569357755" lon="12.027721968300412"><ele>209.0</ele><time>2026-04-12T08:00:12Z</time></trkpt><trkpt lat="42.41833399393993" lon="12.027430204041814"><ele>208.5</ele><time>2026-04-12T08:00:13Z</time></trkpt><trkpt lat="42.41834229173572" lon="12.027136798858018"><ele>208.0</ele><time>2026-04-12T08:00:14Z</time></trkpt><trkpt lat="42.41835326921594" lon="12.026806159856392"><ele>207.5</ele><time>2026-04-12T08:00:15Z</time></trkpt><trkpt lat="42.41835769911408" lon="12.026474797230707"><ele>207.0</ele><time>2026-04-12T08:00:16Z</time></trkpt><trkpt lat="42.418361523497204" lon="12.026136844577817"><ele>207.0</ele><time>2026-04-12T08:00:17Z</time></trkpt><trkpt lat="42.41837103253002" lon="12.025813928510113"><ele>207.0</ele><time>2026-04-12T08:00:18Z</time></trkpt><trkpt lat="42.41838113536161" lon="12.025512774327964"><ele>206.66666666666669</ele><time>2026-04-12T08:00:19Z</time></trkpt><trkpt lat="42.418390363976314" lon="12.025223309410835"><ele>206.33333333333334</ele><time>2026-04-12T08:00:20Z</time></trkpt><trkpt lat="42.41839961448612" lon="12.024943154082239"><ele>206.0</ele><time>2026-04-12T08:00:21Z</time></trkpt><trkpt lat="42.418405232917365" lon="12.024669795614912"><ele>206.0</ele><time>2026-04-12T08:00:22Z</time></trkpt><trkpt lat="42.41841068989785" lon="12.024413838515962"><ele>206.0</ele><time>2026-04-12T08:00:23Z</time></trkpt><trkpt lat="42.41842213758814" lon="12.024150377790779"><ele>206.0</ele><time>2026-04-12T08:00:24Z</time></trkpt><trkpt lat="42.41842846811056" lon="12.023904029491677"><ele>206.0</ele><time>2026-04-12T08:00:25Z</time></trkpt><trkpt lat="42.41844134942744" lon="12.023650947897261"><ele>206.0</ele><time>2026-04-12T08:00:26Z</time></trkpt><trkpt lat="42.418460565180524" lon="12.02340037415024"><ele>206.0</ele><time>2026-04-12T08:00:27Z</time></trkpt><trkpt lat="42.418484480786084" lon="12.023144262528362"><ele>206.0</ele><time>2026-04-12T08:00:28Z</time></trkpt><trkpt lat="42.41851428062623" lon="12.022874940324762"><ele>206.0</ele><time>2026-04-12T08:00:29Z</time></trkpt><trkpt lat="42.418549179763254" lon="12.02261796858423"><ele>206.0</ele><time>2026-04-12T08:00:30Z</time></trkpt><trkpt lat="42.41859315004757" lon="12.022373651321358"><ele>205.33333333333334</ele><time>2026-04-12T08:00:31Z</time></trkpt><trkpt lat="42.41863581174886" lon="12.022136431478208"><ele>204.66666666666669</ele><time>2026-04-12T08:00:32Z</time></trkpt><trkpt lat="42.418683069274415" lon="12.021883467451111"><ele>204.0</ele><time>2026-04-12T08:00:33Z</time></trkpt><trkpt lat="42.418736674611786" lon="12.021637451987269"><ele>203.33333333333331</ele><time>2026-04-12T08:00:34Z</time></trkpt><trkpt lat="42.41879037707043" lon="12.021402692924287"><ele>202.66666666666666</ele><time>2026-04-12T08:00:35Z</time></trkpt><trkpt lat="42.41884316228689" lon="12.021182246729527"><ele>202.0</ele><time>2026-04-12T08:00:36Z</time></trkpt><trkpt lat="42.41889352676609" lon="12.020964881347986"><ele>201.66666666666666</ele><time>2026-04-12T08:00:36.998Z</time></trkpt><trkpt lat="42.418940146101654" lon="12.02074498483422"><ele>201.33333333333331</ele><time>2026-04-12T08:00:37.998Z</time></trkpt><trkpt lat="42.418983997826" lon="12.020543100808004"><ele>201.0</ele><time>2026-04-12T08:00:38.998Z</time></trkpt><trkpt lat="42.419032016304044" lon="12.020322041234925"><ele>201.0</ele><time>2026-04-12T08:00:39.998Z</time></trkpt><trkpt lat="42.41908335689876" lon="12.020102241619357"><ele>201.0</ele><time>2026-04-12T08:00:40.998Z</time></trkpt><trkpt lat="42.41913580357042" lon="12.019870549701336"><ele>201.0</ele><time>2026-04-12T08:00:41.998Z</time></trkpt><trkpt lat="42.41918973486993" lon="12.019626973535816"><ele>201.0</ele><time>2026-04-12T08:00:42.998Z</time></trkpt><trkpt lat="42.41924918565872" lon="12.019375142679646"><ele>201.0</ele><time>2026-04-12T08:00:43.998Z</time></trkpt><trkpt lat="42.41930311431798" lon="12.019123082417012"><ele>201.0</ele><time>2026-04-12T08:00:44.998Z</time></trkpt><trkpt lat="42.419359369294504" lon="12.018866411195901"><ele>201.0</ele><time>2026-04-12T08:00:45.998Z</time></trkpt><trkpt lat="42.419418154500804" lon="12.018602299253129"><ele>201.0</ele><time>2026-04-12T08:00:46.998Z</time></trkpt><trkpt lat="42.419472921776055" lon="12.018340275635643"><ele>201.0</ele><time>2026-04-12T08:00:47.999Z</time></trkpt><trkpt lat="42.41952354296806" lon="12.018088609579666"><ele>201.0</ele><time>2026-04-12T08:00:48.999Z</time></trkpt><trkpt lat="42.41957117339153" lon="12.017842794989253"><ele>201.0</ele><time>2026-04-12T08:00:49.999Z</time></trkpt><trkpt lat="42.419620175824825" lon="12.017578125879641"><ele>201.0</ele><time>2026-04-12T08:00:50.999Z</time></trkpt><trkpt lat="42.41966525651666" lon="12.017312320112959"><ele>200.33333333333331</ele><time>2026-04-12T08:00:51.999Z</time></trkpt><trkpt lat="42.419712598765535" lon="12.017052705897262"><ele>199.66666666666666</ele><time>2026-04-12T08:00:52.999Z</time></trkpt><trkpt lat="42.419757013726645" lon="12.016798773452606"><ele>199.0</ele><time>2026-04-12T08:00:53.999Z</time></trkpt><trkpt lat="42.41979805369799" lon="12.01656238885939"><ele>198.66666666666666</ele><time>2026-04-12T08:00:54.999Z</time></trkpt><trkpt lat="42.41983973105573" lon="12.016346577138163"><ele>198.33333333333331</ele><time>2026-04-12T08:00:55.999Z</time></trkpt><trkpt lat="42.41986913031406" lon="12.01612364149281"><ele>198.0</ele><time>2026-04-12T08:00:56.999Z</time></trkpt><trkpt lat="42.419906947984416" lon="12.015909917785603"><ele>197.66666666666669</ele><time>2026-04-12T08:00:57.999Z</time></trkpt><trkpt lat="42.41994498957476" lon="12.015696858611102"><ele>197.33333333333334</ele><time>2026-04-12T08:00:58.999Z</time></trkpt><trkpt lat="42.41998091132055" lon="12.015497357101632"><ele>197.0</ele><time>2026-04-12T08:00:59.999Z</time></trkpt><trkpt lat="42.42001617474175" lon="12.015286643196225"><ele>197.0</ele><time>2026-04-12T08:01:00.999Z</time></trkpt><trkpt lat="42.420052703010455" lon="12.015066119679792"><ele>197.0</ele><time>2026-04-12T08:01:01.999Z</time></trkpt><trkpt lat="42.42009225944248" lon="12.014832220722838"><ele>197.0</ele><time>2026-04-12T08:01:02.999Z</time></trkpt><trkpt lat="42.42013523521205" lon="12.014605793662362"><ele>197.0</ele><time>2026-04-12T08:01:03.999Z</time></trkpt><trkpt lat="42.42016999300613" lon="12.014359278000395"><ele>197.0</ele><time>2026-04-12T08:01:04.999Z</time></trkpt><trkpt lat="42.420207383586934" lon="12.01413855500601"><ele>197.0</ele><time>2026-04-12T08:01:05.999Z</time></trkpt><trkpt lat="42.42025451037049" lon="12.01389989325705"><ele>196.66666666666669</ele><time>2026-04-12T08:01:06.999Z</time></trkpt><trkpt lat="42.4203022747944" lon="12.013667799988504"><ele>196.33333333333331</ele><time>2026-04-12T08:01:07.999Z</time></trkpt><trkpt lat="42.42035652724618" lon="12.013447117392069"><ele>196.0</ele><time>2026-04-12T08:01:08.999Z</time></trkpt><trkpt lat="42.42042758045293" lon="12.013234576894588"><ele>195.66666666666666</ele><time>2026-04-12T08:01:09.999Z</time></trkpt><trkpt lat="42.42051778303769" lon="12.013031716095586"><ele>195.33333333333331</ele><time>2026-04-12T08:01:10.999Z</time></trkpt><trkpt lat="42.42061282334872" lon="12.012827027694955"><ele>195.0</ele><time>2026-04-12T08:01:11.999Z</time></trkpt><trkpt lat="42.42070949887571" lon="12.012621240480664"><ele>195.33333333333331</ele><time>2026-04-12T08:01:13Z</time></trkpt><trkpt lat="42.42080526353633" lon="12.012415304056717"><ele>195.66666666666666</ele><time>2026-04-12T08:01:14Z</time></trkpt><trkpt lat="42.42090188375292" lon="12.01220775959907"><ele>196.0</ele><time>2026-04-12T08:01:15Z</time></trkpt><trkpt lat="42.42099969639005" lon="12.011996709595344"><ele>196.0</ele><time>2026-04-12T08:01:16Z</time></trkpt><trkpt lat="42.42108358073663" lon="12.011788936284134"><ele>196.0</ele><time>2026-04-12T08:01:17Z</time></trkpt><trkpt lat="42.421174889915434" lon="12.011592363588754"><ele>196.0</ele><time>2026-04-12T08:01:18Z</time></trkpt><trkpt lat="42.42126431822269" lon="12.01140119558333"><ele>194.66666666666666</ele><time>2026-04-12T08:01:19Z</time></trkpt><trkpt lat="42.42135241049959" lon="12.011216968290523"><ele>193.33333333333331</ele><time>2026-04-12T08:01:20Z</time></trkpt><trkpt lat="42.42142851667138" lon="12.01104040572609"><ele>192.0</ele><time>2026-04-12T08:01:21Z</time></trkpt><trkpt lat="42.42150114287928" lon="12.010876891920153"><ele>192.0</ele><time>2026-04-12T08:01:22Z</time></trkpt><trkpt lat="42.421573342199395" lon="12.010717436043645"><ele>192.0</ele><time>2026-04-12T08:01:23Z</time></trkpt><trkpt lat="42.42165902989043" lon="12.010550167412479"><ele>192.0</ele><time>2026-04-12T08:01:24Z</time></trkpt><trkpt lat="42.421732496448314" lon="12.010394178513565"><ele>192.0</ele><time>2026-04-12T08:01:25Z</time></trkpt><trkpt lat="42.42181799215929" lon="12.01022360886438"><ele>192.0</ele><time>2026-04-12T08:01:26Z</time></trkpt><trkpt lat="42.421916535999245" lon="12.010047315554079"><ele>192.0</ele><time>2026-04-12T08:01:27Z</time></trkpt><trkpt lat="42.42201792887525" lon="12.00987558572859"><ele>192.0</ele><time>2026-04-12T08:01:28Z</time></trkpt><trkpt lat="42.42213460050188" lon="12.009719199332832"><ele>191.66666666666666</ele><time>2026-04-12T08:01:29Z</time></trkpt><trkpt lat="42.42226391861705" lon="12.009571435170642"><ele>191.33333333333331</ele><time>2026-04-12T08:01:30Z</time></trkpt><trkpt lat="42.42240292051291" lon="12.009424986405856"><ele>191.0</ele><time>2026-04-12T08:01:31Z</time></trkpt><trkpt lat="42.42254813343859" lon="12.009297899550873"><ele>191.0</ele><time>2026-04-12T08:01:32Z</time></trkpt><trkpt lat="42.42268705310571" lon="12.009166585129638"><ele>191.0</ele><time>2026-04-12T08:01:33Z</time></trkpt><trkpt lat="42.42282502087205" lon="12.009025952049086"><ele>191.0</ele><time>2026-04-12T08:01:34Z</time></trkpt><trkpt lat="42.422955256582505" lon="12.00889480492036"><ele>191.33333333333331</ele><time>2026-04-12T08:01:35Z</time></trkpt><trkpt lat="42.42307327730443" lon="12.008777603034652"><ele>191.66666666666666</ele><time>2026-04-12T08:01:36Z</time></trkpt><trkpt lat="42.42320119078072" lon="12.008655400509683"><ele>192.0</ele><time>2026-04-12T08:01:37Z</time></trkpt><trkpt lat="42.423329856688646" lon="12.008528450338174"><ele>192.0</ele><time>2026-04-12T08:01:38Z</time></trkpt><trkpt lat="42.42345914380581" lon="12.008399148211943"><ele>192.0</ele><time>2026-04-12T08:01:39Z</time></trkpt><trkpt lat="42.4235839359845" lon="12.008278729348282"><ele>192.0</ele><time>2026-04-12T08:01:40Z</time></trkpt><trkpt lat="42.423701964596205" lon="12.008159594421953"><ele>192.0</ele><time>2026-04-12T08:01:41Z</time></trkpt><trkpt lat="42.42381115512724" lon="12.008045382659326"><ele>192.0</ele><time>2026-04-12T08:01:42Z</time></trkpt><trkpt lat="42.42392209892325" lon="12.007935045496476"><ele>192.0</ele><time>2026-04-12T08:01:43Z</time></trkpt><trkpt lat="42.424030674652215" lon="12.00782914960226"><ele>192.0</ele><time>2026-04-12T08:01:44Z</time></trkpt><trkpt lat="42.42414613940266" lon="12.007713168853313"><ele>191.33333333333334</ele><time>2026-04-12T08:01:45Z</time></trkpt><trkpt lat="42.424270339431175" lon="12.007585756853617"><ele>190.66666666666669</ele><time>2026-04-12T08:01:46Z</time></trkpt><trkpt lat="42.4243959670167" lon="12.007455802576716"><ele>190.0</ele><time>2026-04-12T08:01:47Z</time></trkpt><trkpt lat="42.42452860284755" lon="12.00732615381384"><ele>188.0</ele><time>2026-04-12T08:01:48Z</time></trkpt><trkpt lat="42.42465894588023" lon="12.007198515485639"><ele>186.0</ele><time>2026-04-12T08:01:49Z</time></trkpt><trkpt lat="42.42479122881138" lon="12.007060348583934"><ele>184.0</ele><time>2026-04-12T08:01:50Z</time></trkpt><trkpt lat="42.42492411742695" lon="12.006922044269505"><ele>184.0</ele><time>2026-04-12T08:01:51Z</time></trkpt><trkpt lat="42.425060848510476" lon="12.00678743842291"><ele>184.0</ele><time>2026-04-12T08:01:52Z</time></trkpt><trkpt lat="42.42520281018151" lon="12.006648517908657"><ele>184.0</ele><time>2026-04-12T08:01:53Z</time></trkpt><trkpt lat="42.42534249515677" lon="12.006508687827095"><ele>183.33333333333334</ele><time>2026-04-12T08:01:54Z</time></trkpt><trkpt lat="42.42548054126194" lon="12.006364529723557"><ele>182.66666666666666</ele><time>2026-04-12T08:01:55Z</time></trkpt><trkpt lat="42.42562106321364" lon="12.006220963109055"><ele>182.0</ele><time>2026-04-12T08:01:56Z</time></trkpt><trkpt lat="42.42576301965549" lon="12.006085227625485"><ele>182.0</ele><time>2026-04-12T08:01:57Z</time></trkpt><trkpt lat="42.425905684988074" lon="12.005934684782938"><ele>182.0</ele><time>2026-04-12T08:01:58Z</time></trkpt><trkpt lat="42.426054905329735" lon="12.00579401592186"><ele>182.0</ele><time>2026-04-12T08:01:59Z</time></trkpt><trkpt lat="42.426200386131995" lon="12.005651309405415"><ele>183.0</ele><time>2026-04-12T08:02:00Z</time></trkpt><trkpt lat="42.42633979084012" lon="12.005507384882586"><ele>184.0</ele><time>2026-04-12T08:02:01Z</time></trkpt><trkpt lat="42.426474270143515" lon="12.005352378126473"><ele>185.0</ele><time>2026-04-12T08:02:02Z</time></trkpt><trkpt lat="42.42659029733703" lon="12.005192438975843"><ele>185.0</ele><time>2026-04-12T08:02:03Z</time></trkpt><trkpt lat="42.42668020829415" lon="12.005021976542498"><ele>185.0</ele><time>2026-04-12T08:02:04Z</time></trkpt><trkpt lat="42.42676976008817" lon="12.004851463778857"><ele>185.0</ele><time>2026-04-12T08:02:05Z</time></trkpt><trkpt lat="42.42684997929412" lon="12.004668364569852"><ele>185.0</ele><time>2026-04-12T08:02:06Z</time></trkpt><trkpt lat="42.42691767690342" lon="12.004477616721996"><ele>185.0</ele><time>2026-04-12T08:02:07Z</time></trkpt><trkpt lat="42.42696933850902" lon="12.004281499649599"><ele>185.0</ele><time>2026-04-12T08:02:08Z</time></trkpt><trkpt lat="42.427002536859895" lon="12.004099688050145"><ele>185.0</ele><time>2026-04-12T08:02:09Z</time></trkpt><trkpt lat="42.42701941168668" lon="12.003924849425287"><ele>185.0</ele><time>2026-04-12T08:02:10.001Z</time></trkpt><trkpt lat="42.42703335000351" lon="12.003765454489907"><ele>185.0</ele><time>2026-04-12T08:02:11.001Z</time></trkpt><trkpt lat="42.42704093517467" lon="12.003610293348833"><ele>185.0</ele><time>2026-04-12T08:02:12.001Z</time></trkpt><trkpt lat="42.42704593966351" lon="12.003449730653857"><ele>185.0</ele><time>2026-04-12T08:02:13.001Z</time></trkpt><trkpt lat="42.427051719155095" lon="12.00329226572215"><ele>185.75</ele><time>2026-04-12T08:02:14.001Z</time></trkpt><trkpt lat="42.427059048693465" lon="12.003143007203926"><ele>186.5</ele><time>2026-04-12T08:02:15.001Z</time></trkpt><trkpt lat="42.42706349608913" lon="12.002983472961734"><ele>187.25</ele><time>2026-04-12T08:02:16.001Z</time></trkpt><trkpt lat="42.427067968545245" lon="12.002811395716076"><ele>188.0</ele><time>2026-04-12T08:02:17.001Z</time></trkpt><trkpt lat="42.42707171120967" lon="12.002642396418937"><ele>187.75</ele><time>2026-04-12T08:02:18.001Z</time></trkpt><trkpt lat="42.42707451731584" lon="12.002476505158553"><ele>187.5</ele><time>2026-04-12T08:02:19.001Z</time></trkpt><trkpt lat="42.42707732896624" lon="12.00230478185031"><ele>187.25</ele><time>2026-04-12T08:02:20.001Z</time></trkpt><trkpt lat="42.42708250308441" lon="12.002133254941048"><ele>187.0</ele><time>2026-04-12T08:02:21.001Z</time></trkpt><trkpt lat="42.427089473804315" lon="12.001962117990624"><ele>187.0</ele><time>2026-04-12T08:02:22.001Z</time></trkpt><trkpt lat="42.42709553495232" lon="12.001785980694171"><ele>187.0</ele><time>2026-04-12T08:02:23.001Z</time></trkpt><trkpt lat="42.42709829471466" lon="12.001610490292093"><ele>187.0</ele><time>2026-04-12T08:02:24.001Z</time></trkpt><trkpt lat="42.427103258890014" lon="12.001423189427403"><ele>187.0</ele><time>2026-04-12T08:02:25.001Z</time></trkpt><trkpt lat="42.42711078968574" lon="12.001206207995855"><ele>187.0</ele><time>2026-04-12T08:02:26.001Z</time></trkpt><trkpt lat="42.427119041711784" lon="12.000994847114589"><ele>187.0</ele><time>2026-04-12T08:02:27.001Z</time></trkpt><trkpt lat="42.42712343054419" lon="12.000807591402884"><ele>187.0</ele><time>2026-04-12T08:02:28.001Z</time></trkpt><trkpt lat="42.427125541523495" lon="12.000626335621323"><ele>187.0</ele><time>2026-04-12T08:02:29.001Z</time></trkpt><trkpt lat="42.42713034701092" lon="12.000437801158968"><ele>186.75</ele><time>2026-04-12T08:02:30.001Z</time></trkpt><trkpt lat="42.427137030126836" lon="12.000253428866875"><ele>186.5</ele><time>2026-04-12T08:02:31.001Z</time></trkpt><trkpt lat="42.42714361108516" lon="12.000088290209163"><ele>186.25</ele><time>2026-04-12T08:02:32.001Z</time></trkpt><trkpt lat="42.4271731580983" lon="11.99993809551106"><ele>186.0</ele><time>2026-04-12T08:02:33.001Z</time></trkpt><trkpt lat="42.427255608863504" lon="11.99982841025465"><ele>186.0</ele><time>2026-04-12T08:02:34.001Z</time></trkpt><trkpt lat="42.427347189590684" lon="11.999705225055582"><ele>186.0</ele><time>2026-04-12T08:02:35.001Z</time></trkpt><trkpt lat="42.427433759406306" lon="11.999579773981381"><ele>186.0</ele><time>2026-04-12T08:02:36.001Z</time></trkpt><trkpt lat="42.42751629750318" lon="11.99943102052939"><ele>186.0</ele><time>2026-04-12T08:02:37.001Z</time></trkpt><trkpt lat="42.42760019542031" lon="11.99927214350209"><ele>185.25</ele><time>2026-04-12T08:02:38.001Z</time></trkpt><trkpt lat="42.42765773882588" lon="11.999123455563902"><ele>184.5</ele><time>2026-04-12T08:02:39.001Z</time></trkpt><trkpt lat="42.42769099955586" lon="11.998965655838049"><ele>183.75</ele><time>2026-04-12T08:02:40.001Z</time></trkpt><trkpt lat="42.42769181209835" lon="11.998802333454012"><ele>183.0</ele><time>2026-04-12T08:02:41.001Z</time></trkpt><trkpt lat="42.4276649084342" lon="11.998640106030678"><ele>183.0</ele><time>2026-04-12T08:02:42.001Z</time></trkpt><trkpt lat="42.427637390923444" lon="11.998488969319496"><ele>183.0</ele><time>2026-04-12T08:02:43Z</time></trkpt><trkpt lat="42.42762343203122" lon="11.998359140221151"><ele>183.0</ele><time>2026-04-12T08:02:44Z</time></trkpt><trkpt lat="42.427623977182556" lon="11.998259167562006"><ele>183.0</ele><time>2026-04-12T08:02:45Z</time></trkpt><trkpt lat="42.4277197069632" lon="11.998139881972698"><ele>183.0</ele><time>2026-04-12T08:02:47Z</time></trkpt><trkpt lat="42.42789844404626" lon="11.99824590430316"><ele>182.5</ele><time>2026-04-12T08:02:49Z</time></trkpt><trkpt lat="42.428004963158045" lon="11.998356922525074"><ele>182.0</ele><time>2026-04-12T08:02:50Z</time></trkpt><trkpt lat="42.42811141175737" lon="11.99844652336184"><ele>181.5</ele><time>2026-04-12T08:02:51Z</time></trkpt><trkpt lat="42.42822442463548" lon="11.998526297117364"><ele>181.0</ele><time>2026-04-12T08:02:52Z</time></trkpt><trkpt lat="42.42835067176782" lon="11.998615722591646"><ele>181.0</ele><time>2026-04-12T08:02:53Z</time></trkpt><trkpt lat="42.42847918120775" lon="11.998716188890842"><ele>181.0</ele><time>2026-04-12T08:02:54Z</time></trkpt><trkpt lat="42.428595250618685" lon="11.998807859471565"><ele>181.0</ele><time>2026-04-12T08:02:55Z</time></trkpt><trkpt lat="42.42872497850942" lon="11.99890243765098"><ele>181.0</ele><time>2026-04-12T08:02:56Z</time></trkpt><trkpt lat="42.428853634297894" lon="11.999004181911065"><ele>181.25</ele><time>2026-04-12T08:02:57Z</time></trkpt><trkpt lat="42.42898486157281" lon="11.999109045276633"><ele>181.5</ele><time>2026-04-12T08:02:58Z</time></trkpt><trkpt lat="42.429116411910115" lon="11.999209506314006"><ele>181.75</ele><time>2026-04-12T08:02:59Z</time></trkpt><trkpt lat="42.42923423685136" lon="11.999298047430226"><ele>182.0</ele><time>2026-04-12T08:03:00Z</time></trkpt><trkpt lat="42.42935744657228" lon="11.99939606024753"><ele>182.0</ele><time>2026-04-12T08:03:01Z</time></trkpt><trkpt lat="42.42948781254075" lon="11.999497758162056"><ele>182.0</ele><time>2026-04-12T08:03:02Z</time></trkpt><trkpt lat="42.42961562119733" lon="11.9995975566117"><ele>182.0</ele><time>2026-04-12T08:03:03Z</time></trkpt><trkpt lat="42.42973580313237" lon="11.999691724533163"><ele>182.0</ele><time>2026-04-12T08:03:04Z</time></trkpt><trkpt lat="42.4298460211417" lon="11.999776979298641"><ele>183.0</ele><time>2026-04-12T08:03:05Z</time></trkpt><trkpt lat="42.42995938284395" lon="11.999865414600734"><ele>184.0</ele><time>2026-04-12T08:03:06Z</time></trkpt><trkpt lat="42.43007217888593" lon="11.999952741431814"><ele>185.0</ele><time>2026-04-12T08:03:07Z</time></trkpt><trkpt lat="42.43019539089627" lon="12.000045732428392"><ele>186.0</ele><time>2026-04-12T08:03:08Z</time></trkpt><trkpt lat="42.43031766667473" lon="12.000134925838616"><ele>186.0</ele><time>2026-04-12T08:03:09Z</time></trkpt><trkpt lat="42.430438887042854" lon="12.00022755190659"><ele>186.0</ele><time>2026-04-12T08:03:10Z</time></trkpt><trkpt lat="42.43055809421837" lon="12.000322241605394"><ele>186.0</ele><time>2026-04-12T08:03:11Z</time></trkpt><trkpt lat="42.43067924043251" lon="12.000420119056908"><ele>186.0</ele><time>2026-04-12T08:03:12Z</time></trkpt><trkpt lat="42.43079924783274" lon="12.000514475811128"><ele>186.25</ele><time>2026-04-12T08:03:13Z</time></trkpt><trkpt lat="42.43091693099034" lon="12.000606370057193"><ele>186.5</ele><time>2026-04-12T08:03:14Z</time></trkpt><trkpt lat="42.431040532943825" lon="12.000704107574258"><ele>186.75</ele><time>2026-04-12T08:03:15Z</time></trkpt><trkpt lat="42.43117613361455" lon="12.000808550085873"><ele>187.0</ele><time>2026-04-12T08:03:16Z</time></trkpt><trkpt lat="42.431315539579245" lon="12.000920746545786"><ele>187.0</ele><time>2026-04-12T08:03:17Z</time></trkpt><trkpt lat="42.43145244248608" lon="12.001031443803818"><ele>187.0</ele><time>2026-04-12T08:03:18Z</time></trkpt><trkpt lat="42.43158525996208" lon="12.001136632834061"><ele>187.0</ele><time>2026-04-12T08:03:19Z</time></trkpt><trkpt lat="42.431709299269755" lon="12.001233529059407"><ele>187.0</ele><time>2026-04-12T08:03:20Z</time></trkpt><trkpt lat="42.43184059265244" lon="12.00133326020094"><ele>187.0</ele><time>2026-04-12T08:03:21Z</time></trkpt><trkpt lat="42.431977359960165" lon="12.00143545845816"><ele>187.0</ele><time>2026-04-12T08:03:22Z</time></trkpt><trkpt lat="42.43212297407891" lon="12.00152209670434"><ele>186.66666666666669</ele><time>2026-04-12T08:03:23Z</time></trkpt><trkpt lat="42.43227440599158" lon="12.00159282999774"><ele>186.33333333333334</ele><time>2026-04-12T08:03:24Z</time></trkpt><trkpt lat="42.4324311972202" lon="12.001646072595504"><ele>186.0</ele><time>2026-04-12T08:03:25Z</time></trkpt><trkpt lat="42.432576179059744" lon="12.001688299602476"><ele>186.0</ele><time>2026-04-12T08:03:26Z</time></trkpt><trkpt lat="42.432717542454476" lon="12.001736705350714"><ele>186.0</ele><time>2026-04-12T08:03:27Z</time></trkpt><trkpt lat="42.43286814572761" lon="12.001790572064897"><ele>186.0</ele><time>2026-04-12T08:03:28Z</time></trkpt><trkpt lat="42.433016367425466" lon="12.001841294339446"><ele>186.66666666666666</ele><time>2026-04-12T08:03:29Z</time></trkpt><trkpt lat="42.43317129519214" lon="12.001896781188034"><ele>187.33333333333331</ele><time>2026-04-12T08:03:30Z</time></trkpt><trkpt lat="42.43332370698722" lon="12.001949078236517"><ele>188.0</ele><time>2026-04-12T08:03:31Z</time></trkpt><trkpt lat="42.4334808086143" lon="12.00200324072403"><ele>188.0</ele><time>2026-04-12T08:03:32Z</time></trkpt><trkpt lat="42.43363219089981" lon="12.002061262941272"><ele>188.0</ele><time>2026-04-12T08:03:33Z</time></trkpt><trkpt lat="42.43377307645597" lon="12.002120619993836"><ele>188.0</ele><time>2026-04-12T08:03:34Z</time></trkpt><trkpt lat="42.43391149043382" lon="12.002174768843012"><ele>188.0</ele><time>2026-04-12T08:03:35Z</time></trkpt><trkpt lat="42.43405496842116" lon="12.002221547229405"><ele>188.5</ele><time>2026-04-12T08:03:36Z</time></trkpt><trkpt lat="42.43420216483908" lon="12.002253389377984"><ele>189.0</ele><time>2026-04-12T08:03:37.001Z</time></trkpt><trkpt lat="42.43434628080689" lon="12.002255540984816"><ele>189.5</ele><time>2026-04-12T08:03:38.001Z</time></trkpt><trkpt lat="42.43449117423934" lon="12.002233545052782"><ele>190.0</ele><time>2026-04-12T08:03:39.001Z</time></trkpt><trkpt lat="42.434645903472656" lon="12.00220379271465"><ele>190.0</ele><time>2026-04-12T08:03:40.001Z</time></trkpt><trkpt lat="42.43481514479262" lon="12.002174687434172"><ele>190.0</ele><time>2026-04-12T08:03:41.001Z</time></trkpt><trkpt lat="42.43498346200762" lon="12.002148952884983"><ele>190.0</ele><time>2026-04-12T08:03:42.001Z</time></trkpt><trkpt lat="42.43513807278667" lon="12.002121634135396"><ele>190.0</ele><time>2026-04-12T08:03:43.001Z</time></trkpt><trkpt lat="42.435281480857746" lon="12.002094995679387"><ele>190.0</ele><time>2026-04-12T08:03:44.001Z</time></trkpt><trkpt lat="42.43541894451856" lon="12.002120516364817"><ele>190.0</ele><time>2026-04-12T08:03:45.001Z</time></trkpt><trkpt lat="42.435556202536056" lon="12.00218397399245"><ele>190.0</ele><time>2026-04-12T08:03:46.001Z</time></trkpt><trkpt lat="42.43569118227391" lon="12.002283151057606"><ele>190.0</ele><time>2026-04-12T08:03:47.001Z</time></trkpt><trkpt lat="42.435842725586326" lon="12.002377182890918"><ele>190.0</ele><time>2026-04-12T08:03:48.001Z</time></trkpt><trkpt lat="42.43599356588518" lon="12.002503517266234"><ele>190.0</ele><time>2026-04-12T08:03:49.001Z</time></trkpt><trkpt lat="42.43615161753736" lon="12.002620807710919"><ele>190.66666666666669</ele><time>2026-04-12T08:03:50.001Z</time></trkpt><trkpt lat="42.436303730744335" lon="12.002728991895294"><ele>191.33333333333334</ele><time>2026-04-12T08:03:51.001Z</time></trkpt><trkpt lat="42.436448922132385" lon="12.002835238662358"><ele>192.0</ele><time>2026-04-12T08:03:52.001Z</time></trkpt><trkpt lat="42.436582717623075" lon="12.002932179193268"><ele>192.0</ele><time>2026-04-12T08:03:53.001Z</time></trkpt><trkpt lat="42.43672115182458" lon="12.003028796095968"><ele>192.0</ele><time>2026-04-12T08:03:54.001Z</time></trkpt><trkpt lat="42.436857630736554" lon="12.00313195103817"><ele>192.0</ele><time>2026-04-12T08:03:55.001Z</time></trkpt><trkpt lat="42.4369944522702" lon="12.003243267556764"><ele>192.33333333333331</ele><time>2026-04-12T08:03:56.001Z</time></trkpt><trkpt lat="42.43714517378312" lon="12.003355135521334"><ele>192.66666666666666</ele><time>2026-04-12T08:03:57.001Z</time></trkpt><trkpt lat="42.437289500686624" lon="12.003461093690039"><ele>193.0</ele><time>2026-04-12T08:03:58.001Z</time></trkpt><trkpt lat="42.43742860077744" lon="12.003561628217627"><ele>193.0</ele><time>2026-04-12T08:03:59.001Z</time></trkpt><trkpt lat="42.43755740934053" lon="12.003659210210142"><ele>193.0</ele><time>2026-04-12T08:04:00.001Z</time></trkpt><trkpt lat="42.43768997713095" lon="12.003757997454466"><ele>193.0</ele><time>2026-04-12T08:04:01.001Z</time></trkpt><trkpt lat="42.43781666683213" lon="12.003850012888211"><ele>193.0</ele><time>2026-04-12T08:04:02.001Z</time></trkpt><trkpt lat="42.437929293666436" lon="12.003936613888143"><ele>192.75</ele><time>2026-04-12T08:04:03.001Z</time></trkpt><trkpt lat="42.43805219101203" lon="12.004028974868469"><ele>192.5</ele><time>2026-04-12T08:04:04.001Z</time></trkpt><trkpt lat="42.4381767572047" lon="12.00412161701291"><ele>192.25</ele><time>2026-04-12T08:04:05.001Z</time></trkpt><trkpt lat="42.438296275259994" lon="12.004212430360406"><ele>192.0</ele><time>2026-04-12T08:04:06.001Z</time></trkpt><trkpt lat="42.43840692273059" lon="12.004278457311107"><ele>192.0</ele><time>2026-04-12T08:04:07.001Z</time></trkpt><trkpt lat="42.4385351904298" lon="12.00422191659867"><ele>192.0</ele><time>2026-04-12T08:04:08.001Z</time></trkpt><trkpt lat="42.4386322660378" lon="12.004139809423917"><ele>192.0</ele><time>2026-04-12T08:04:09.001Z</time></trkpt><trkpt lat="42.43873179904081" lon="12.00402093771203"><ele>192.0</ele><time>2026-04-12T08:04:10.001Z</time></trkpt><trkpt lat="42.43883154749229" lon="12.00385952609552"><ele>192.33333333333331</ele><time>2026-04-12T08:04:11.001Z</time></trkpt><trkpt lat="42.438932781232126" lon="12.003681873619321"><ele>192.66666666666666</ele><time>2026-04-12T08:04:12.001Z</time></trkpt><trkpt lat="42.43904312796704" lon="12.0035176031693"><ele>193.0</ele><time>2026-04-12T08:04:13.001Z</time></trkpt><trkpt lat="42.4391597879036" lon="12.003347760252106"><ele>192.66666666666666</ele><time>2026-04-12T08:04:14.001Z</time></trkpt><trkpt lat="42.439284757587686" lon="12.003169303216279"><ele>192.33333333333331</ele><time>2026-04-12T08:04:15.001Z</time></trkpt><trkpt lat="42.43940846585168" lon="12.002996708130304"><ele>192.0</ele><time>2026-04-12T08:04:16.001Z</time></trkpt><trkpt lat="42.43952884056454" lon="12.002831140695209"><ele>192.33333333333331</ele><time>2026-04-12T08:04:17.001Z</time></trkpt><trkpt lat="42.43964587366864" lon="12.002673996750302"><ele>192.66666666666666</ele><time>2026-04-12T08:04:18.001Z</time></trkpt><trkpt lat="42.43976589114648" lon="12.002519441686985"><ele>193.0</ele><time>2026-04-12T08:04:19.001Z</time></trkpt><trkpt lat="42.43987679346553" lon="12.002380186913287"><ele>193.33333333333331</ele><time>2026-04-12T08:04:20.001Z</time></trkpt><trkpt lat="42.44000668873281" lon="12.002281281175867"><ele>193.66666666666669</ele><time>2026-04-12T08:04:21.001Z</time></trkpt><trkpt lat="42.4401704354307" lon="12.002259143051583"><ele>194.0</ele><time>2026-04-12T08:04:22.001Z</time></trkpt><trkpt lat="42.44034609443216" lon="12.002232953228281"><ele>194.66666666666669</ele><time>2026-04-12T08:04:23.001Z</time></trkpt><trkpt lat="42.44053535470115" lon="12.002230373275454"><ele>195.33333333333331</ele><time>2026-04-12T08:04:24.001Z</time></trkpt><trkpt lat="42.44072052634559" lon="12.002210037875924"><ele>196.0</ele><time>2026-04-12T08:04:25.001Z</time></trkpt><trkpt lat="42.44089920064228" lon="12.002167038235955"><ele>196.0</ele><time>2026-04-12T08:04:26.001Z</time></trkpt><trkpt lat="42.441077054747666" lon="12.002085718768251"><ele>196.0</ele><time>2026-04-12T08:04:27.001Z</time></trkpt><trkpt lat="42.441242466845694" lon="12.001965558339212"><ele>196.0</ele><time>2026-04-12T08:04:28.001Z</time></trkpt><trkpt lat="42.44140746187606" lon="12.00183297099397"><ele>196.66666666666666</ele><time>2026-04-12T08:04:29.001Z</time></trkpt><trkpt lat="42.44157106288503" lon="12.001702270161902"><ele>197.33333333333331</ele><time>2026-04-12T08:04:30.001Z</time></trkpt><trkpt lat="42.44173737150804" lon="12.001580688977537"><ele>198.0</ele><time>2026-04-12T08:04:31.001Z</time></trkpt><trkpt lat="42.44191524410696" lon="12.00146353409372"><ele>198.33333333333331</ele><time>2026-04-12T08:04:32.001Z</time></trkpt><trkpt lat="42.442073324827454" lon="12.001360963174127"><ele>198.66666666666666</ele><time>2026-04-12T08:04:33.001Z</time></trkpt><trkpt lat="42.44223187922947" lon="12.001252875132167"><ele>199.0</ele><time>2026-04-12T08:04:34.001Z</time></trkpt><trkpt lat="42.442382537603365" lon="12.0011376416947"><ele>200.0</ele><time>2026-04-12T08:04:35.001Z</time></trkpt><trkpt lat="42.44254576356209" lon="12.001026359109456"><ele>201.0</ele><time>2026-04-12T08:04:36.001Z</time></trkpt><trkpt lat="42.44270922193678" lon="12.000912437209099"><ele>202.0</ele><time>2026-04-12T08:04:37.001Z</time></trkpt><trkpt lat="42.44284712030519" lon="12.000810466042314"><ele>203.0</ele><time>2026-04-12T08:04:38.001Z</time></trkpt><trkpt lat="42.443000039038346" lon="12.00072542253657"><ele>204.0</ele><time>2026-04-12T08:04:39.001Z</time></trkpt><trkpt lat="42.44317451124625" lon="12.000677224314225"><ele>205.0</ele><time>2026-04-12T08:04:40.002Z</time></trkpt><trkpt lat="42.44336358330862" lon="12.000644579038129"><ele>205.0</ele><time>2026-04-12T08:04:41.002Z</time></trkpt><trkpt lat="42.44355484819191" lon="12.000608926730663"><ele>205.0</ele><time>2026-04-12T08:04:42.002Z</time></trkpt><trkpt lat="42.443746042500734" lon="12.00056929866133"><ele>205.0</ele><time>2026-04-12T08:04:43.002Z</time></trkpt><trkpt lat="42.44393861374546" lon="12.000530765090517"><ele>205.33333333333331</ele><time>2026-04-12T08:04:44.002Z</time></trkpt><trkpt lat="42.44412825886071" lon="12.00049146103668"><ele>205.66666666666669</ele><time>2026-04-12T08:04:45.002Z</time></trkpt><trkpt lat="42.44431408809039" lon="12.000464393521144"><ele>206.0</ele><time>2026-04-12T08:04:46.002Z</time></trkpt><trkpt lat="42.44449467605697" lon="12.00046149202074"><ele>207.33333333333334</ele><time>2026-04-12T08:04:47.002Z</time></trkpt><trkpt lat="42.444669806603294" lon="12.000515321019332"><ele>208.66666666666669</ele><time>2026-04-12T08:04:48.002Z</time></trkpt><trkpt lat="42.44485432888884" lon="12.000603276136202"><ele>210.0</ele><time>2026-04-12T08:04:49Z</time></trkpt><trkpt lat="42.44504290523776" lon="12.00068757737106"><ele>210.0</ele><time>2026-04-12T08:04:50Z</time></trkpt><trkpt lat="42.44523176966549" lon="12.000765033130353"><ele>210.0</ele><time>2026-04-12T08:04:51Z</time></trkpt><trkpt lat="42.445415284263994" lon="12.000837815911375"><ele>210.0</ele><time>2026-04-12T08:04:52Z</time></trkpt><trkpt lat="42.445593042365" lon="12.000908348994455"><ele>210.0</ele><time>2026-04-12T08:04:53Z</time></trkpt><trkpt lat="42.44576957608342" lon="12.000971163304921"><ele>210.0</ele><time>2026-04-12T08:04:54Z</time></trkpt><trkpt lat="42.44593724198038" lon="12.00103748440041"><ele>210.0</ele><time>2026-04-12T08:04:55Z</time></trkpt><trkpt lat="42.446095283491694" lon="12.001103966691193"><ele>210.0</ele><time>2026-04-12T08:04:56Z</time></trkpt><trkpt lat="42.44624315605698" lon="12.001187118922223"><ele>210.0</ele><time>2026-04-12T08:04:57Z</time></trkpt><trkpt lat="42.446376789704026" lon="12.001322510921417"><ele>210.0</ele><time>2026-04-12T08:04:58Z</time></trkpt><trkpt lat="42.44653285422754" lon="12.001450400011837"><ele>210.0</ele><time>2026-04-12T08:04:59Z</time></trkpt><trkpt lat="42.44668757650211" lon="12.001591885914786"><ele>210.0</ele><time>2026-04-12T08:05:00Z</time></trkpt><trkpt lat="42.44684793461325" lon="12.001723465414404"><ele>210.0</ele><time>2026-04-12T08:05:01Z</time></trkpt><trkpt lat="42.44700857950008" lon="12.001861393114348"><ele>211.33333333333331</ele><time>2026-04-12T08:05:02Z</time></trkpt><trkpt lat="42.44716935163973" lon="12.002004156148928"><ele>212.66666666666666</ele><time>2026-04-12T08:05:03Z</time></trkpt><trkpt lat="42.44733416402726" lon="12.002153475387605"><ele>214.0</ele><time>2026-04-12T08:05:04Z</time></trkpt><trkpt lat="42.447501470400056" lon="12.002297856541738"><ele>214.0</ele><time>2026-04-12T08:05:05Z</time></trkpt><trkpt lat="42.447654891609105" lon="12.002433318915367"><ele>214.0</ele><time>2026-04-12T08:05:06Z</time></trkpt><trkpt lat="42.4477990498016" lon="12.002553840520422"><ele>214.0</ele><time>2026-04-12T08:05:07Z</time></trkpt><trkpt lat="42.447939120567156" lon="12.002646190016835"><ele>214.66666666666666</ele><time>2026-04-12T08:05:08Z</time></trkpt><trkpt lat="42.448083297052975" lon="12.002708944130681"><ele>215.33333333333331</ele><time>2026-04-12T08:05:09Z</time></trkpt><trkpt lat="42.4482410063008" lon="12.002738339949186"><ele>216.0</ele><time>2026-04-12T08:05:10Z</time></trkpt><trkpt lat="42.44840645411032" lon="12.002760961121135"><ele>216.0</ele><time>2026-04-12T08:05:11Z</time></trkpt><trkpt lat="42.448582636139434" lon="12.002787071889376"><ele>216.0</ele><time>2026-04-12T08:05:12Z</time></trkpt><trkpt lat="42.44875898539224" lon="12.002790517122374"><ele>216.0</ele><time>2026-04-12T08:05:13Z</time></trkpt><trkpt lat="42.44893276258068" lon="12.002746475029745"><ele>216.33333333333331</ele><time>2026-04-12T08:05:14Z</time></trkpt><trkpt lat="42.44911480740758" lon="12.00268433042977"><ele>216.66666666666666</ele><time>2026-04-12T08:05:15Z</time></trkpt><trkpt lat="42.44929564159985" lon="12.0026798414778"><ele>217.0</ele><time>2026-04-12T08:05:16Z</time></trkpt><trkpt lat="42.44946849231074" lon="12.00267155340502"><ele>216.0</ele><time>2026-04-12T08:05:17Z</time></trkpt><trkpt lat="42.44962604765162" lon="12.00266504859535"><ele>215.0</ele><time>2026-04-12T08:05:18Z</time></trkpt><trkpt lat="42.4497883854175" lon="12.0026475600867"><ele>214.0</ele><time>2026-04-12T08:05:19Z</time></trkpt><trkpt lat="42.44994362028502" lon="12.002659586615714"><ele>214.0</ele><time>2026-04-12T08:05:20Z</time></trkpt><trkpt lat="42.45009562524544" lon="12.00267967070771"><ele>214.0</ele><time>2026-04-12T08:05:21.001Z</time></trkpt><trkpt lat="42.45025121114399" lon="12.002723258042248"><ele>214.0</ele><time>2026-04-12T08:05:22.001Z</time></trkpt><trkpt lat="42.450410418962704" lon="12.002792439444299"><ele>215.0</ele><time>2026-04-12T08:05:23.001Z</time></trkpt><trkpt lat="42.450576840430145" lon="12.002877731498472"><ele>216.0</ele><time>2026-04-12T08:05:24.001Z</time></trkpt><trkpt lat="42.45071969256595" lon="12.0029964119448"><ele>217.0</ele><time>2026-04-12T08:05:25.001Z</time></trkpt><trkpt lat="42.45085868474988" lon="12.003089542580607"><ele>217.0</ele><time>2026-04-12T08:05:26.001Z</time></trkpt><trkpt lat="42.45101235615288" lon="12.003168486436701"><ele>217.0</ele><time>2026-04-12T08:05:27.001Z</time></trkpt><trkpt lat="42.45114924469307" lon="12.003227424451092"><ele>217.0</ele><time>2026-04-12T08:05:28.001Z</time></trkpt><trkpt lat="42.45127969946793" lon="12.003290564478439"><ele>217.0</ele><time>2026-04-12T08:05:29.001Z</time></trkpt><trkpt lat="42.45140442304216" lon="12.003351045465868"><ele>217.0</ele><time>2026-04-12T08:05:30.001Z</time></trkpt><trkpt lat="42.451515726466226" lon="12.003399541870179"><ele>217.0</ele><time>2026-04-12T08:05:31.001Z</time></trkpt><trkpt lat="42.45161242611265" lon="12.003443827087631"><ele>217.0</ele><time>2026-04-12T08:05:32.001Z</time></trkpt><trkpt lat="42.45170087821906" lon="12.00349060931966"><ele>217.0</ele><time>2026-04-12T08:05:33.001Z</time></trkpt><trkpt lat="42.451780995148006" lon="12.003509990533976"><ele>217.0</ele><time>2026-04-12T08:05:34.001Z</time></trkpt><trkpt lat="42.45184765524878" lon="12.00350994799708"><ele>217.0</ele><time>2026-04-12T08:05:35.001Z</time></trkpt><trkpt lat="42.45194816082916" lon="12.003446722448997"><ele>217.0</ele><time>2026-04-12T08:05:37.001Z</time></trkpt><trkpt lat="42.45202218404141" lon="12.003385031630827"><ele>217.0</ele><time>2026-04-12T08:05:39.001Z</time></trkpt><trkpt lat="42.451980498125" lon="12.00324799164829"><ele>217.0</ele><time>2026-04-12T08:05:40.001Z</time></trkpt><trkpt lat="42.45195578979845" lon="12.003150091347045"><ele>217.0</ele><time>2026-04-12T08:05:41.001Z</time></trkpt><trkpt lat="42.45194189963015" lon="12.003055323831811"><ele>217.99999999999997</ele><time>2026-04-12T08:05:42.001Z</time></trkpt><trkpt lat="42.4519333885289" lon="12.002948572957822"><ele>219.0</ele><time>2026-04-12T08:05:43.001Z</time></trkpt><trkpt lat="42.45192848130014" lon="12.0028386594291"><ele>220.0</ele><time>2026-04-12T08:05:44.001Z</time></trkpt><trkpt lat="42.45191350647404" lon="12.002729333092274"><ele>221.0</ele><time>2026-04-12T08:05:45.001Z</time></trkpt><trkpt lat="42.45189946003805" lon="12.00259887186242"><ele>221.99999999999997</ele><time>2026-04-12T08:05:46.001Z</time></trkpt><trkpt lat="42.45188913313567" lon="12.00247338664542"><ele>223.0</ele><time>2026-04-12T08:05:47.001Z</time></trkpt><trkpt lat="42.45187367750861" lon="12.002321671945422"><ele>223.2</ele><time>2026-04-12T08:05:48.001Z</time></trkpt><trkpt lat="42.45185745517291" lon="12.00217118494626"><ele>223.4</ele><time>2026-04-12T08:05:49.001Z</time></trkpt><trkpt lat="42.45183453545778" lon="12.002015241497608"><ele>223.59999999999997</ele><time>2026-04-12T08:05:50.001Z</time></trkpt><trkpt lat="42.45182940082566" lon="12.001864280881756"><ele>223.79999999999998</ele><time>2026-04-12T08:05:51.001Z</time></trkpt><trkpt lat="42.451804094235335" lon="12.001754605732758"><ele>224.0</ele><time>2026-04-12T08:05:52.001Z</time></trkpt><trkpt lat="42.451799445105785" lon="12.001662172181886"><ele>223.16666666666669</ele><time>2026-04-12T08:05:53.001Z</time></trkpt><trkpt lat="42.45179043367002" lon="12.001565398503379"><ele>222.33333333333334</ele><time>2026-04-12T08:05:54.001Z</time></trkpt><trkpt lat="42.45178337545918" lon="12.001474133709074"><ele>221.5</ele><time>2026-04-12T08:05:55.001Z</time></trkpt><trkpt lat="42.451769366713194" lon="12.001385921519809"><ele>220.66666666666669</ele><time>2026-04-12T08:05:56.001Z</time></trkpt><trkpt lat="42.45175551698808" lon="12.001293313103027"><ele>219.83333333333334</ele><time>2026-04-12T08:05:57.001Z</time></trkpt><trkpt lat="42.45175988958305" lon="12.001121694560103"><ele>219.0</ele><time>2026-04-12T08:05:59.001Z</time></trkpt><trkpt lat="42.45178503181222" lon="12.001033369580945"><ele>219.0</ele><time>2026-04-12T08:06:00.001Z</time></trkpt><trkpt lat="42.45185113448544" lon="12.000974565099037"><ele>218.99999999999997</ele><time>2026-04-12T08:06:01.001Z</time></trkpt><trkpt lat="42.451898617512455" lon="12.000870527012827"><ele>218.99999999999997</ele><time>2026-04-12T08:06:02.001Z</time></trkpt><trkpt lat="42.45196103950569" lon="12.000778849882597"><ele>219.0</ele><time>2026-04-12T08:06:03.001Z</time></trkpt><trkpt lat="42.452030343310796" lon="12.000680341964891"><ele>219.0</ele><time>2026-04-12T08:06:04.001Z</time></trkpt><trkpt lat="42.45209472231823" lon="12.000584238513675"><ele>218.75</ele><time>2026-04-12T08:06:05.001Z</time></trkpt><trkpt lat="42.452160042684525" lon="12.00047818786122"><ele>218.5</ele><time>2026-04-12T08:06:06.001Z</time></trkpt><trkpt lat="42.45225212778605" lon="12.00037317650808"><ele>218.25</ele><time>2026-04-12T08:06:07.001Z</time></trkpt><trkpt lat="42.452323000177316" lon="12.000231042829009"><ele>218.0</ele><time>2026-04-12T08:06:08.001Z</time></trkpt><trkpt lat="42.45240456351229" lon="12.000093320360287"><ele>218.0</ele><time>2026-04-12T08:06:09.001Z</time></trkpt><trkpt lat="42.452479069109366" lon="11.999949994079977"><ele>218.0</ele><time>2026-04-12T08:06:10.001Z</time></trkpt><trkpt lat="42.452539864451275" lon="11.99981027992672"><ele>218.0</ele><time>2026-04-12T08:06:11.001Z</time></trkpt><trkpt lat="42.45260654377206" lon="11.999676296866424"><ele>218.0</ele><time>2026-04-12T08:06:12.001Z</time></trkpt><trkpt lat="42.45267069021119" lon="11.999538664855558"><ele>218.0</ele><time>2026-04-12T08:06:13.001Z</time></trkpt><trkpt lat="42.45272057858619" lon="11.99940197979475"><ele>218.0</ele><time>2026-04-12T08:06:14.001Z</time></trkpt><trkpt lat="42.452763970970324" lon="11.999294293702711"><ele>218.0</ele><time>2026-04-12T08:06:15.001Z</time></trkpt><trkpt lat="42.45278962648438" lon="11.999169466757722"><ele>218.0</ele><time>2026-04-12T08:06:16.001Z</time></trkpt><trkpt lat="42.45279922126028" lon="11.999030401631142"><ele>218.0</ele><time>2026-04-12T08:06:17.001Z</time></trkpt><trkpt lat="42.452818696816905" lon="11.998894156211403"><ele>217.60000000000002</ele><time>2026-04-12T08:06:18.001Z</time></trkpt><trkpt lat="42.45282957204215" lon="11.99876638341213"><ele>217.20000000000002</ele><time>2026-04-12T08:06:19.001Z</time></trkpt><trkpt lat="42.45286733018135" lon="11.998662703077125"><ele>216.8</ele><time>2026-04-12T08:06:20.001Z</time></trkpt><trkpt lat="42.452901132847316" lon="11.998540547898845"><ele>216.4</ele><time>2026-04-12T08:06:21.001Z</time></trkpt><trkpt lat="42.452931125308034" lon="11.998417336904042"><ele>216.0</ele><time>2026-04-12T08:06:22.001Z</time></trkpt><trkpt lat="42.45298260466779" lon="11.998298088101407"><ele>216.0</ele><time>2026-04-12T08:06:23.001Z</time></trkpt><trkpt lat="42.453018451255076" lon="11.998204333961082"><ele>216.00000000000003</ele><time>2026-04-12T08:06:24.001Z</time></trkpt><trkpt lat="42.45306222015585" lon="11.998079799428812"><ele>216.00000000000003</ele><time>2026-04-12T08:06:25.001Z</time></trkpt><trkpt lat="42.45310600851312" lon="11.997931160410193"><ele>216.0</ele><time>2026-04-12T08:06:26.001Z</time></trkpt><trkpt lat="42.45315227378916" lon="11.997792921483013"><ele>216.0</ele><time>2026-04-12T08:06:27.001Z</time></trkpt><trkpt lat="42.45320086120657" lon="11.997648259841181"><ele>216.0</ele><time>2026-04-12T08:06:28.001Z</time></trkpt><trkpt lat="42.453259568255525" lon="11.997505657238392"><ele>216.00000000000003</ele><time>2026-04-12T08:06:29.001Z</time></trkpt><trkpt lat="42.45332277595173" lon="11.99737576441525"><ele>216.00000000000003</ele><time>2026-04-12T08:06:30.001Z</time></trkpt><trkpt lat="42.45338631989514" lon="11.99726876742404"><ele>216.0</ele><time>2026-04-12T08:06:31.002Z</time></trkpt><trkpt lat="42.45345223080487" lon="11.997154564839237"><ele>216.0</ele><time>2026-04-12T08:06:32.002Z</time></trkpt><trkpt lat="42.45351816538926" lon="11.997020920921763"><ele>216.60000000000002</ele><time>2026-04-12T08:06:33.002Z</time></trkpt><trkpt lat="42.45359847057462" lon="11.996902854000723"><ele>217.20000000000002</ele><time>2026-04-12T08:06:34.002Z</time></trkpt><trkpt lat="42.45366435726793" lon="11.99679458553588"><ele>217.79999999999998</ele><time>2026-04-12T08:06:35.002Z</time></trkpt><trkpt lat="42.45372188783622" lon="11.99667104446726"><ele>218.39999999999998</ele><time>2026-04-12T08:06:36.002Z</time></trkpt><trkpt lat="42.45379859746874" lon="11.996581207891065"><ele>219.0</ele><time>2026-04-12T08:06:37.002Z</time></trkpt><trkpt lat="42.45384319853717" lon="11.996478927580482"><ele>219.2</ele><time>2026-04-12T08:06:38.002Z</time></trkpt><trkpt lat="42.453900215842296" lon="11.996394359405254"><ele>219.39999999999998</ele><time>2026-04-12T08:06:39.002Z</time></trkpt><trkpt lat="42.453969825785286" lon="11.996304761037786"><ele>219.6</ele><time>2026-04-12T08:06:40.002Z</time></trkpt><trkpt lat="42.4540283182001" lon="11.996198474853397"><ele>219.8</ele><time>2026-04-12T08:06:41.002Z</time></trkpt><trkpt lat="42.45409131539077" lon="11.996110700094551"><ele>220.0</ele><time>2026-04-12T08:06:42.002Z</time></trkpt><trkpt lat="42.45415421151728" lon="11.996009825722695"><ele>220.0</ele><time>2026-04-12T08:06:43.002Z</time></trkpt><trkpt lat="42.45422204387619" lon="11.995913716624562"><ele>220.0</ele><time>2026-04-12T08:06:44.002Z</time></trkpt><trkpt lat="42.454294194868766" lon="11.995820950825864"><ele>220.0</ele><time>2026-04-12T08:06:45.002Z</time></trkpt><trkpt lat="42.45437383565389" lon="11.99572046192684"><ele>220.0</ele><time>2026-04-12T08:06:46.002Z</time></trkpt><trkpt lat="42.454454426049764" lon="11.995608014927534"><ele>220.0</ele><time>2026-04-12T08:06:47.002Z</time></trkpt><trkpt lat="42.45453527975154" lon="11.995489579557564"><ele>219.5</ele><time>2026-04-12T08:06:48.002Z</time></trkpt><trkpt lat="42.454606259484585" lon="11.995346865095245"><ele>219.0</ele><time>2026-04-12T08:06:49.002Z</time></trkpt><trkpt lat="42.454680642325656" lon="11.99521125895409"><ele>218.5</ele><time>2026-04-12T08:06:50.002Z</time></trkpt><trkpt lat="42.45476267398104" lon="11.995084732109417"><ele>218.0</ele><time>2026-04-12T08:06:51.002Z</time></trkpt><trkpt lat="42.454834351904076" lon="11.994964176098433"><ele>219.25</ele><time>2026-04-12T08:06:52.002Z</time></trkpt><trkpt lat="42.45491984197072" lon="11.994883768993276"><ele>220.5</ele><time>2026-04-12T08:06:53.002Z</time></trkpt><trkpt lat="42.45501513583968" lon="11.994790473535085"><ele>221.75</ele><time>2026-04-12T08:06:54.002Z</time></trkpt><trkpt lat="42.455102910909446" lon="11.994679162679464"><ele>223.0</ele><time>2026-04-12T08:06:55.001Z</time></trkpt><trkpt lat="42.455204409369955" lon="11.99459419059066"><ele>223.0</ele><time>2026-04-12T08:06:56.001Z</time></trkpt><trkpt lat="42.4552961865192" lon="11.994490573740698"><ele>223.0</ele><time>2026-04-12T08:06:57.001Z</time></trkpt><trkpt lat="42.45538815062689" lon="11.994393002742697"><ele>223.0</ele><time>2026-04-12T08:06:58.001Z</time></trkpt><trkpt lat="42.45547857206011" lon="11.994302105275528"><ele>223.0</ele><time>2026-04-12T08:06:59.001Z</time></trkpt><trkpt lat="42.455558939706485" lon="11.994212048285782"><ele>223.8</ele><time>2026-04-12T08:07:00.001Z</time></trkpt><trkpt lat="42.45564986877107" lon="11.994120950654684"><ele>224.60000000000002</ele><time>2026-04-12T08:07:01.001Z</time></trkpt><trkpt lat="42.45574499628774" lon="11.994030337335902"><ele>225.39999999999998</ele><time>2026-04-12T08:07:02.001Z</time></trkpt><trkpt lat="42.45582571811008" lon="11.993950855139085"><ele>226.2</ele><time>2026-04-12T08:07:03.001Z</time></trkpt><trkpt lat="42.45590626734871" lon="11.993882638082347"><ele>227.0</ele><time>2026-04-12T08:07:04.001Z</time></trkpt><trkpt lat="42.455985978025716" lon="11.993813149848933"><ele>227.0</ele><time>2026-04-12T08:07:05.001Z</time></trkpt><trkpt lat="42.45605231972237" lon="11.993726279002827"><ele>227.0</ele><time>2026-04-12T08:07:06.001Z</time></trkpt><trkpt lat="42.456105876140256" lon="11.993621194399129"><ele>227.0</ele><time>2026-04-12T08:07:07.001Z</time></trkpt><trkpt lat="42.45615611576956" lon="11.993499342351603"><ele>227.0</ele><time>2026-04-12T08:07:08.001Z</time></trkpt><trkpt lat="42.45622648503946" lon="11.993404717621754"><ele>227.0</ele><time>2026-04-12T08:07:09.001Z</time></trkpt><trkpt lat="42.45626309301724" lon="11.993262714960856"><ele>227.0</ele><time>2026-04-12T08:07:10.001Z</time></trkpt><trkpt lat="42.45632423623491" lon="11.993113263588755"><ele>227.0</ele><time>2026-04-12T08:07:11.001Z</time></trkpt><trkpt lat="42.45638896023873" lon="11.992959830269426"><ele>227.0</ele><time>2026-04-12T08:07:12.001Z</time></trkpt><trkpt lat="42.45645971964789" lon="11.992804944067737"><ele>227.0</ele><time>2026-04-12T08:07:13.001Z</time></trkpt><trkpt lat="42.45651419416102" lon="11.992652819536763"><ele>227.0</ele><time>2026-04-12T08:07:14.001Z</time></trkpt><trkpt lat="42.456573161248144" lon="11.992485963375671"><ele>227.0</ele><time>2026-04-12T08:07:15.001Z</time></trkpt><trkpt lat="42.456615844148295" lon="11.99231233401996"><ele>227.0</ele><time>2026-04-12T08:07:16.001Z</time></trkpt><trkpt lat="42.45664513812812" lon="11.992169049383678"><ele>227.0</ele><time>2026-04-12T08:07:17.001Z</time></trkpt><trkpt lat="42.45668119890117" lon="11.992034152372952"><ele>227.0</ele><time>2026-04-12T08:07:18.001Z</time></trkpt><trkpt lat="42.45671894459822" lon="11.991927563947579"><ele>227.0</ele><time>2026-04-12T08:07:19.001Z</time></trkpt><trkpt lat="42.45675424016771" lon="11.99182873585672"><ele>227.0</ele><time>2026-04-12T08:07:20.001Z</time></trkpt><trkpt lat="42.45680671681818" lon="11.991703761576256"><ele>227.0</ele><time>2026-04-12T08:07:21.001Z</time></trkpt><trkpt lat="42.456869036803205" lon="11.991585844458875"><ele>227.0</ele><time>2026-04-12T08:07:22.001Z</time></trkpt><trkpt lat="42.45691621872578" lon="11.991475084772807"><ele>226.2</ele><time>2026-04-12T08:07:23.001Z</time></trkpt><trkpt lat="42.45695872508236" lon="11.991352213519853"><ele>225.39999999999998</ele><time>2026-04-12T08:07:24.001Z</time></trkpt><trkpt lat="42.456986979226706" lon="11.991221254274585"><ele>224.60000000000002</ele><time>2026-04-12T08:07:25.001Z</time></trkpt><trkpt lat="42.45702556301125" lon="11.991083594626804"><ele>223.8</ele><time>2026-04-12T08:07:26.001Z</time></trkpt><trkpt lat="42.457055944802484" lon="11.990953173990762"><ele>223.0</ele><time>2026-04-12T08:07:27.001Z</time></trkpt><trkpt lat="42.45708411784409" lon="11.990850245291707"><ele>222.60000000000002</ele><time>2026-04-12T08:07:28.001Z</time></trkpt><trkpt lat="42.45711834285038" lon="11.990758626092322"><ele>222.20000000000002</ele><time>2026-04-12T08:07:29.001Z</time></trkpt><trkpt lat="42.4571555104816" lon="11.990606971445562"><ele>221.8</ele><time>2026-04-12T08:07:31.001Z</time></trkpt><trkpt lat="42.45713332270757" lon="11.99048251134985"><ele>221.4</ele><time>2026-04-12T08:07:33.001Z</time></trkpt><trkpt lat="42.45712018098975" lon="11.990380909828641"><ele>221.0</ele><time>2026-04-12T08:07:35.001Z</time></trkpt><trkpt lat="42.457065812852726" lon="11.990251483166439"><ele>220.20000000000002</ele><time>2026-04-12T08:07:38.001Z</time></trkpt><trkpt lat="42.45700481521331" lon="11.990164459503234"><ele>219.40000000000003</ele><time>2026-04-12T08:07:40.001Z</time></trkpt><trkpt lat="42.45693499266979" lon="11.990037629565334"><ele>218.6</ele><time>2026-04-12T08:07:42.001Z</time></trkpt><trkpt lat="42.456880985597046" lon="11.989927575766776"><ele>217.8</ele><time>2026-04-12T08:07:44.001Z</time></trkpt><trkpt lat="42.45683066536931" lon="11.989814117299684"><ele>217.0</ele><time>2026-04-12T08:07:46.001Z</time></trkpt><trkpt lat="42.456774217818555" lon="11.989701812210027"><ele>217.0</ele><time>2026-04-12T08:07:48.001Z</time></trkpt><trkpt lat="42.45670231859753" lon="11.989541902729217"><ele>217.0</ele><time>2026-04-12T08:07:50.001Z</time></trkpt><trkpt lat="42.45665015504988" lon="11.989448885166757"><ele>217.0</ele><time>2026-04-12T08:07:51.001Z</time></trkpt><trkpt lat="42.456594303036645" lon="11.989365729460086"><ele>217.0</ele><time>2026-04-12T08:07:52.001Z</time></trkpt><trkpt lat="42.456538087835334" lon="11.989279578933587"><ele>217.0</ele><time>2026-04-12T08:07:53.001Z</time></trkpt><trkpt lat="42.45644717180222" lon="11.989138302449422"><ele>217.39999999999998</ele><time>2026-04-12T08:07:55.001Z</time></trkpt><trkpt lat="42.456397160590086" lon="11.98903346211449"><ele>217.79999999999998</ele><time>2026-04-12T08:07:56.001Z</time></trkpt><trkpt lat="42.45635317066246" lon="11.988957922008337"><ele>218.2</ele><time>2026-04-12T08:07:57.001Z</time></trkpt><trkpt lat="42.45628408041823" lon="11.988848542451834"><ele>218.6</ele><time>2026-04-12T08:07:59.001Z</time></trkpt><trkpt lat="42.45619747324647" lon="11.988739701501121"><ele>219.0</ele><time>2026-04-12T08:08:01.001Z</time></trkpt><trkpt lat="42.45614990643122" lon="11.98867007296976"><ele>219.0</ele><time>2026-04-12T08:08:02.001Z</time></trkpt><trkpt lat="42.45610815516911" lon="11.988598562149887"><ele>219.0</ele><time>2026-04-12T08:08:03.001Z</time></trkpt><trkpt lat="42.45605902638335" lon="11.988530048639717"><ele>219.0</ele><time>2026-04-12T08:08:04.001Z</time></trkpt><trkpt lat="42.456003168082894" lon="11.988480362267035"><ele>219.0</ele><time>2026-04-12T08:08:05.001Z</time></trkpt><trkpt lat="42.4559630903178" lon="11.988381970027913"><ele>219.0</ele><time>2026-04-12T08:08:06.001Z</time></trkpt><trkpt lat="42.455915540132374" lon="11.988296527305684"><ele>219.0</ele><time>2026-04-12T08:08:07.001Z</time></trkpt><trkpt lat="42.455864873685705" lon="11.988215348183472"><ele>219.0</ele><time>2026-04-12T08:08:08.001Z</time></trkpt><trkpt lat="42.45580212872616" lon="11.98812569681545"><ele>220.2</ele><time>2026-04-12T08:08:09.001Z</time></trkpt><trkpt lat="42.45574780072083" lon="11.988043783441709"><ele>221.39999999999998</ele><time>2026-04-12T08:08:10.001Z</time></trkpt><trkpt lat="42.4556947883263" lon="11.987942317510033"><ele>222.6</ele><time>2026-04-12T08:08:11.001Z</time></trkpt><trkpt lat="42.455632898892496" lon="11.987826327315936"><ele>223.8</ele><time>2026-04-12T08:08:13.001Z</time></trkpt><trkpt lat="42.455589248595516" lon="11.987707045762969"><ele>225.0</ele><time>2026-04-12T08:08:15.001Z</time></trkpt><trkpt lat="42.45557124866446" lon="11.98757058038787"><ele>225.5</ele><time>2026-04-12T08:08:17.001Z</time></trkpt><trkpt lat="42.45556965427413" lon="11.987476388785224"><ele>226.0</ele><time>2026-04-12T08:08:18.001Z</time></trkpt><trkpt lat="42.45556521800806" lon="11.987372024446643"><ele>226.5</ele><time>2026-04-12T08:08:19.001Z</time></trkpt><trkpt lat="42.45556086817535" lon="11.987259132687678"><ele>227.0</ele><time>2026-04-12T08:08:20.001Z</time></trkpt><trkpt lat="42.4555571190898" lon="11.987127317181018"><ele>227.5</ele><time>2026-04-12T08:08:21.001Z</time></trkpt><trkpt lat="42.45555521627917" lon="11.98699228980807"><ele>228.0</ele><time>2026-04-12T08:08:22.001Z</time></trkpt><trkpt lat="42.455555047289785" lon="11.986857242851158"><ele>228.0</ele><time>2026-04-12T08:08:23.001Z</time></trkpt><trkpt lat="42.455552654977424" lon="11.986717614642302"><ele>228.0</ele><time>2026-04-12T08:08:24.001Z</time></trkpt><trkpt lat="42.45555586017038" lon="11.98659837616329"><ele>228.0</ele><time>2026-04-12T08:08:25.001Z</time></trkpt><trkpt lat="42.45555618983857" lon="11.986480377080603"><ele>228.0</ele><time>2026-04-12T08:08:26.001Z</time></trkpt><trkpt lat="42.45555547064003" lon="11.986369372088834"><ele>228.0</ele><time>2026-04-12T08:08:27.001Z</time></trkpt><trkpt lat="42.455556914034354" lon="11.986277458743658"><ele>228.0</ele><time>2026-04-12T08:08:28.001Z</time></trkpt><trkpt lat="42.45556885362084" lon="11.986152495970632"><ele>228.0</ele><time>2026-04-12T08:08:30.001Z</time></trkpt><trkpt lat="42.45557804307737" lon="11.986062101080895"><ele>227.99999999999997</ele><time>2026-04-12T08:08:41.002Z</time></trkpt><trkpt lat="42.45560332311083" lon="11.985980447322197"><ele>228.0</ele><time>2026-04-12T08:10:39.001Z</time></trkpt><trkpt lat="42.45559693705588" lon="11.985874339512648"><ele>228.0</ele><time>2026-04-12T08:10:43.001Z</time></trkpt><trkpt lat="42.455621407638695" lon="11.9857936290338"><ele>227.99999999999997</ele><time>2026-04-12T08:10:44.001Z</time></trkpt><trkpt lat="42.45563792026125" lon="11.98569830045122"><ele>228.0</ele><time>2026-04-12T08:10:45.001Z</time></trkpt><trkpt lat="42.45565449992217" lon="11.985603894701418"><ele>228.0</ele><time>2026-04-12T08:10:46.001Z</time></trkpt><trkpt lat="42.455673738860135" lon="11.985494346881666"><ele>228.0</ele><time>2026-04-12T08:10:47.001Z</time></trkpt><trkpt lat="42.45569307580282" lon="11.985384240929571"><ele>228.0</ele><time>2026-04-12T08:10:48.001Z</time></trkpt><trkpt lat="42.455710338317864" lon="11.985285946975162"><ele>228.0</ele><time>2026-04-12T08:10:49.001Z</time></trkpt><trkpt lat="42.45572992426703" lon="11.985174423184501"><ele>228.0</ele><time>2026-04-12T08:10:50.001Z</time></trkpt><trkpt lat="42.45574743877247" lon="11.985074694378463"><ele>228.0</ele><time>2026-04-12T08:10:51.001Z</time></trkpt><trkpt lat="42.45576661354861" lon="11.984965511900311"><ele>228.0</ele><time>2026-04-12T08:10:52.001Z</time></trkpt><trkpt lat="42.45578820870472" lon="11.984833488988302"><ele>227.33333333333334</ele><time>2026-04-12T08:10:53.001Z</time></trkpt><trkpt lat="42.455806027791084" lon="11.98472046330317"><ele>226.66666666666669</ele><time>2026-04-12T08:10:54.001Z</time></trkpt><trkpt lat="42.45582352434616" lon="11.984609483350685"><ele>226.0</ele><time>2026-04-12T08:10:55.001Z</time></trkpt><trkpt lat="42.45584215310533" lon="11.984511242346017"><ele>225.33333333333334</ele><time>2026-04-12T08:10:56.001Z</time></trkpt><trkpt lat="42.45587468983756" lon="11.9844341959067"><ele>224.66666666666669</ele><time>2026-04-12T08:10:57.001Z</time></trkpt><trkpt lat="42.45591816349444" lon="11.98434151661372"><ele>224.0</ele><time>2026-04-12T08:10:58.001Z</time></trkpt><trkpt lat="42.455956407924944" lon="11.984250887574007"><ele>223.0</ele><time>2026-04-12T08:10:59.001Z</time></trkpt><trkpt lat="42.455948028037405" lon="11.984152975570193"><ele>221.99999999999997</ele><time>2026-04-12T08:11:00.001Z</time></trkpt><trkpt lat="42.45599605750115" lon="11.983971335046133"><ele>220.99999999999997</ele><time>2026-04-12T08:11:02.002Z</time></trkpt><trkpt lat="42.45599388080303" lon="11.983862248078562"><ele>220.0</ele><time>2026-04-12T08:11:03.002Z</time></trkpt><trkpt lat="42.45601462021023" lon="11.983771651617507"><ele>219.0</ele><time>2026-04-12T08:11:04.002Z</time></trkpt><trkpt lat="42.45607269021662" lon="11.983682805329554"><ele>219.0</ele><time>2026-04-12T08:11:05.002Z</time></trkpt><trkpt lat="42.45612143698852" lon="11.983566552085335"><ele>218.99999999999997</ele><time>2026-04-12T08:11:06.002Z</time></trkpt><trkpt lat="42.4561722044109" lon="11.983447096178075"><ele>218.99999999999997</ele><time>2026-04-12T08:11:07.001Z</time></trkpt><trkpt lat="42.45622468797814" lon="11.983332485869331"><ele>219.0</ele><time>2026-04-12T08:11:08.001Z</time></trkpt><trkpt lat="42.456257918448124" lon="11.983223054191836"><ele>219.0</ele><time>2026-04-12T08:11:09.001Z</time></trkpt><trkpt lat="42.45631297241709" lon="11.983110590768726"><ele>218.66666666666666</ele><time>2026-04-12T08:11:11.001Z</time></trkpt><trkpt lat="42.45635415758526" lon="11.98304322501718"><ele>218.33333333333331</ele><time>2026-04-12T08:11:13.001Z</time></trkpt><trkpt lat="42.45643732925047" lon="11.98291574849645"><ele>218.0</ele><time>2026-04-12T08:11:15.001Z</time></trkpt><trkpt lat="42.45649109688783" lon="11.982844233589589"><ele>217.66666666666666</ele><time>2026-04-12T08:11:16.001Z</time></trkpt><trkpt lat="42.456510230837104" lon="11.982737307334595"><ele>217.33333333333331</ele><time>2026-04-12T08:11:17.001Z</time></trkpt><trkpt lat="42.45652029505206" lon="11.982623688213208"><ele>217.0</ele><time>2026-04-12T08:11:18.001Z</time></trkpt><trkpt lat="42.456566746789164" lon="11.982513937127484"><ele>216.99999999999997</ele><time>2026-04-12T08:11:20.001Z</time></trkpt><trkpt lat="42.45662292480731" lon="11.982396339776903"><ele>217.0</ele><time>2026-04-12T08:12:47.001Z</time></trkpt><trkpt lat="42.45664616336326" lon="11.982315789759966"><ele>217.0</ele><time>2026-04-12T08:12:48.001Z</time></trkpt><trkpt lat="42.45668858690199" lon="11.982249102850176"><ele>217.0</ele><time>2026-04-12T08:12:49.001Z</time></trkpt><trkpt lat="42.45676973441444" lon="11.982126839826476"><ele>216.99999999999997</ele><time>2026-04-12T08:12:51.001Z</time></trkpt><trkpt lat="42.45681154228657" lon="11.98202830823992"><ele>217.0</ele><time>2026-04-12T08:12:52.001Z</time></trkpt><trkpt lat="42.456862563328805" lon="11.98194007975185"><ele>216.99999999999997</ele><time>2026-04-12T08:12:53.001Z</time></trkpt><trkpt lat="42.45690206843268" lon="11.981845301667374"><ele>217.0</ele><time>2026-04-12T08:12:54.001Z</time></trkpt><trkpt lat="42.45694243059573" lon="11.981741357509875"><ele>217.0</ele><time>2026-04-12T08:12:55.001Z</time></trkpt><trkpt lat="42.45698997808484" lon="11.981635195532933"><ele>217.0</ele><time>2026-04-12T08:12:56.001Z</time></trkpt><trkpt lat="42.45703059567281" lon="11.981558541898979"><ele>216.99999999999997</ele><time>2026-04-12T08:12:57.001Z</time></trkpt><trkpt lat="42.45708333749476" lon="11.981474573074118"><ele>217.0</ele><time>2026-04-12T08:12:58.001Z</time></trkpt><trkpt lat="42.4571808132602" lon="11.981370381166293"><ele>218.16666666666666</ele><time>2026-04-12T08:13:00.001Z</time></trkpt><trkpt lat="42.457229408933465" lon="11.981313121318937"><ele>219.33333333333331</ele><time>2026-04-12T08:13:01.001Z</time></trkpt><trkpt lat="42.457279439509186" lon="11.981255868446498"><ele>220.5</ele><time>2026-04-12T08:13:02.001Z</time></trkpt><trkpt lat="42.45737149208064" lon="11.981174515990608"><ele>221.66666666666669</ele><time>2026-04-12T08:13:04.001Z</time></trkpt><trkpt lat="42.45742625454102" lon="11.981125105357568"><ele>222.83333333333334</ele><time>2026-04-12T08:13:05.001Z</time></trkpt><trkpt lat="42.45748420905486" lon="11.981049882070113"><ele>224.0</ele><time>2026-04-12T08:13:06.001Z</time></trkpt><trkpt lat="42.45754995473525" lon="11.980970844473248"><ele>224.0</ele><time>2026-04-12T08:13:07.001Z</time></trkpt><trkpt lat="42.45761540045406" lon="11.980879678922207"><ele>223.99999999999997</ele><time>2026-04-12T08:13:08.001Z</time></trkpt><trkpt lat="42.457682851134386" lon="11.980783960935895"><ele>223.99999999999997</ele><time>2026-04-12T08:13:09.001Z</time></trkpt><trkpt lat="42.457741780564966" lon="11.980691688498196"><ele>224.0</ele><time>2026-04-12T08:13:10.001Z</time></trkpt><trkpt lat="42.457794622396094" lon="11.980606057821847"><ele>224.0</ele><time>2026-04-12T08:13:11.001Z</time></trkpt><trkpt lat="42.45785414581301" lon="11.980517568226082"><ele>224.00000000000003</ele><time>2026-04-12T08:13:12.001Z</time></trkpt><trkpt lat="42.45791247834573" lon="11.98042597461792"><ele>224.0</ele><time>2026-04-12T08:13:13Z</time></trkpt><trkpt lat="42.45796368677898" lon="11.980335267669545"><ele>224.0</ele><time>2026-04-12T08:13:14Z</time></trkpt><trkpt lat="42.458007479375986" lon="11.980241764609632"><ele>224.0</ele><time>2026-04-12T08:13:15Z</time></trkpt><trkpt lat="42.45805863104526" lon="11.980159189720883"><ele>224.00000000000003</ele><time>2026-04-12T08:13:16Z</time></trkpt><trkpt lat="42.45810653770798" lon="11.98004950708618"><ele>224.0</ele><time>2026-04-12T08:13:17Z</time></trkpt><trkpt lat="42.45814559233743" lon="11.979965240806674"><ele>223.83333333333334</ele><time>2026-04-12T08:13:18Z</time></trkpt><trkpt lat="42.45818192845077" lon="11.979890370533019"><ele>223.66666666666669</ele><time>2026-04-12T08:13:19Z</time></trkpt><trkpt lat="42.458221014210565" lon="11.979810435243953"><ele>223.5</ele><time>2026-04-12T08:13:20Z</time></trkpt><trkpt lat="42.45826857824457" lon="11.979712518503124"><ele>223.33333333333331</ele><time>2026-04-12T08:13:21Z</time></trkpt><trkpt lat="42.458314838584116" lon="11.979612850527735"><ele>223.16666666666666</ele><time>2026-04-12T08:13:22Z</time></trkpt><trkpt lat="42.45836090550181" lon="11.979514084247505"><ele>223.0</ele><time>2026-04-12T08:13:23Z</time></trkpt><trkpt lat="42.45840281626598" lon="11.979425063985838"><ele>222.99999999999997</ele><time>2026-04-12T08:13:24Z</time></trkpt><trkpt lat="42.45844619064974" lon="11.979340099384366"><ele>223.0</ele><time>2026-04-12T08:13:25Z</time></trkpt><trkpt lat="42.458476962036535" lon="11.979243733396828"><ele>223.0</ele><time>2026-04-12T08:13:26Z</time></trkpt><trkpt lat="42.45852906736396" lon="11.979174460986002"><ele>223.0</ele><time>2026-04-12T08:13:27Z</time></trkpt><trkpt lat="42.4585721325114" lon="11.979088495183456"><ele>222.99999999999997</ele><time>2026-04-12T08:13:28Z</time></trkpt><trkpt lat="42.45861684818704" lon="11.978993528463615"><ele>223.0</ele><time>2026-04-12T08:13:29Z</time></trkpt><trkpt lat="42.45866985266363" lon="11.978890431436836"><ele>222.8</ele><time>2026-04-12T08:13:30Z</time></trkpt><trkpt lat="42.45872577610592" lon="11.978778259216261"><ele>222.60000000000002</ele><time>2026-04-12T08:13:31Z</time></trkpt><trkpt lat="42.45877468258998" lon="11.97869470832126"><ele>222.39999999999998</ele><time>2026-04-12T08:13:32Z</time></trkpt><trkpt lat="42.45882986330508" lon="11.97859433364"><ele>222.2</ele><time>2026-04-12T08:13:33Z</time></trkpt><trkpt lat="42.45889371116622" lon="11.978490907880591"><ele>222.0</ele><time>2026-04-12T08:13:34Z</time></trkpt><trkpt lat="42.45896084687612" lon="11.978375039830942"><ele>222.33333333333334</ele><time>2026-04-12T08:13:35Z</time></trkpt><trkpt lat="42.45901816686681" lon="11.97828089553315"><ele>222.66666666666669</ele><time>2026-04-12T08:13:36Z</time></trkpt><trkpt lat="42.459058079403164" lon="11.978200883754786"><ele>223.0</ele><time>2026-04-12T08:13:37Z</time></trkpt><trkpt lat="42.45909459410779" lon="11.978113183305185"><ele>223.33333333333334</ele><time>2026-04-12T08:13:38Z</time></trkpt><trkpt lat="42.459125360599316" lon="11.978018634358232"><ele>223.66666666666669</ele><time>2026-04-12T08:13:39Z</time></trkpt><trkpt lat="42.45915298023195" lon="11.977920403172643"><ele>224.0</ele><time>2026-04-12T08:13:40Z</time></trkpt><trkpt lat="42.45918297622228" lon="11.977827957685598"><ele>224.00000000000003</ele><time>2026-04-12T08:13:41Z</time></trkpt><trkpt lat="42.45922251522467" lon="11.97774490862602"><ele>224.0</ele><time>2026-04-12T08:13:42Z</time></trkpt><trkpt lat="42.45927309247668" lon="11.97768639476237"><ele>224.0</ele><time>2026-04-12T08:13:43Z</time></trkpt><trkpt lat="42.45933169927441" lon="11.977629093212792"><ele>224.0</ele><time>2026-04-12T08:13:44Z</time></trkpt><trkpt lat="42.45940232156086" lon="11.977553254501231"><ele>224.00000000000003</ele><time>2026-04-12T08:13:45Z</time></trkpt><trkpt lat="42.45948705318888" lon="11.97747271300903"><ele>224.0</ele><time>2026-04-12T08:13:46Z</time></trkpt><trkpt lat="42.459572661585746" lon="11.977393999673632"><ele>223.66666666666669</ele><time>2026-04-12T08:13:47Z</time></trkpt><trkpt lat="42.45964082332359" lon="11.977318708774744"><ele>223.33333333333334</ele><time>2026-04-12T08:13:48Z</time></trkpt><trkpt lat="42.4596908713465" lon="11.977250718929799"><ele>223.0</ele><time>2026-04-12T08:13:49Z</time></trkpt><trkpt lat="42.45973277433387" lon="11.97718082317402"><ele>222.66666666666669</ele><time>2026-04-12T08:13:50Z</time></trkpt><trkpt lat="42.459760272299285" lon="11.977035754527217"><ele>222.33333333333334</ele><time>2026-04-12T08:13:52Z</time></trkpt><trkpt lat="42.45973804587752" lon="11.976900453500148"><ele>222.0</ele><time>2026-04-12T08:13:54Z</time></trkpt><trkpt lat="42.45972407431444" lon="11.976758756286003"><ele>222.0</ele><time>2026-04-12T08:13:56Z</time></trkpt><trkpt lat="42.45980573686912" lon="11.976648142250184"><ele>222.0</ele><time>2026-04-12T08:13:58Z</time></trkpt><trkpt lat="42.459829885259396" lon="11.976552191708167"><ele>222.0</ele><time>2026-04-12T08:13:59Z</time></trkpt><trkpt lat="42.459887179100534" lon="11.976474243404216"><ele>222.0</ele><time>2026-04-12T08:14:00Z</time></trkpt><trkpt lat="42.45995421397051" lon="11.976397491128894"><ele>222.0</ele><time>2026-04-12T08:14:01Z</time></trkpt><trkpt lat="42.460027748160776" lon="11.976309038403695"><ele>222.0</ele><time>2026-04-12T08:14:02Z</time></trkpt><trkpt lat="42.46012244277283" lon="11.976216917141153"><ele>222.0</ele><time>2026-04-12T08:14:03Z</time></trkpt><trkpt lat="42.46019842457973" lon="11.976144173427244"><ele>222.0</ele><time>2026-04-12T08:14:04.001Z</time></trkpt><trkpt lat="42.46027831049097" lon="11.976066568918581"><ele>222.0</ele><time>2026-04-12T08:14:05.001Z</time></trkpt><trkpt lat="42.460363741741745" lon="11.975984563071119"><ele>222.0</ele><time>2026-04-12T08:14:06.001Z</time></trkpt><trkpt lat="42.46045505266326" lon="11.975889730349113"><ele>223.2</ele><time>2026-04-12T08:14:07.001Z</time></trkpt><trkpt lat="42.460544471516" lon="11.975800684756617"><ele>224.39999999999998</ele><time>2026-04-12T08:14:08.001Z</time></trkpt><trkpt lat="42.46062737195324" lon="11.975717023732717"><ele>225.60000000000002</ele><time>2026-04-12T08:14:09.001Z</time></trkpt><trkpt lat="42.46071247961924" lon="11.975637532055375"><ele>226.8</ele><time>2026-04-12T08:14:10.001Z</time></trkpt><trkpt lat="42.460789799295675" lon="11.975542772314801"><ele>228.0</ele><time>2026-04-12T08:14:11.001Z</time></trkpt><trkpt lat="42.46086547108669" lon="11.975439879906922"><ele>228.0</ele><time>2026-04-12T08:14:12.001Z</time></trkpt><trkpt lat="42.4609213286359" lon="11.975344376615642"><ele>228.0</ele><time>2026-04-12T08:14:13.001Z</time></trkpt><trkpt lat="42.46097236263418" lon="11.975253490964649"><ele>228.0</ele><time>2026-04-12T08:14:14.001Z</time></trkpt><trkpt lat="42.461012214136595" lon="11.975179386072067"><ele>228.0</ele><time>2026-04-12T08:14:15.001Z</time></trkpt><trkpt lat="42.461103081282594" lon="11.975034385142708"><ele>228.0</ele><time>2026-04-12T08:14:17.001Z</time></trkpt><trkpt lat="42.46115486640583" lon="11.974963920307603"><ele>228.16666666666666</ele><time>2026-04-12T08:14:18.001Z</time></trkpt><trkpt lat="42.461217916774444" lon="11.974917730190443"><ele>228.33333333333331</ele><time>2026-04-12T08:14:19.001Z</time></trkpt><trkpt lat="42.461294154711986" lon="11.974891762230026"><ele>228.5</ele><time>2026-04-12T08:14:20.001Z</time></trkpt><trkpt lat="42.461384678533406" lon="11.974888765558969"><ele>228.66666666666666</ele><time>2026-04-12T08:14:21.001Z</time></trkpt><trkpt lat="42.461476168302966" lon="11.974905358617667"><ele>228.83333333333331</ele><time>2026-04-12T08:14:22.001Z</time></trkpt><trkpt lat="42.461545306637156" lon="11.97492245317619"><ele>229.0</ele><time>2026-04-12T08:14:23.001Z</time></trkpt><trkpt lat="42.46161670689263" lon="11.974922491965936"><ele>229.39999999999998</ele><time>2026-04-12T08:14:24.001Z</time></trkpt><trkpt lat="42.46172174368793" lon="11.974930331331544"><ele>229.79999999999998</ele><time>2026-04-12T08:14:25.001Z</time></trkpt><trkpt lat="42.4618354104838" lon="11.974943901180225"><ele>230.20000000000002</ele><time>2026-04-12T08:14:26.001Z</time></trkpt><trkpt lat="42.4619309012606" lon="11.97493825355816"><ele>230.60000000000002</ele><time>2026-04-12T08:14:27.001Z</time></trkpt><trkpt lat="42.46202197549106" lon="11.974933283796464"><ele>231.0</ele><time>2026-04-12T08:14:28.001Z</time></trkpt><trkpt lat="42.46212777632835" lon="11.97492975473814"><ele>231.75</ele><time>2026-04-12T08:14:29.001Z</time></trkpt><trkpt lat="42.46224145979123" lon="11.974918305717454"><ele>232.5</ele><time>2026-04-12T08:14:30.001Z</time></trkpt><trkpt lat="42.462359139131905" lon="11.974906560855164"><ele>233.25</ele><time>2026-04-12T08:14:31.001Z</time></trkpt><trkpt lat="42.46247306683311" lon="11.974939552630339"><ele>234.0</ele><time>2026-04-12T08:14:32.001Z</time></trkpt><trkpt lat="42.46259190352173" lon="11.974934935364999"><ele>234.0</ele><time>2026-04-12T08:14:33.001Z</time></trkpt><trkpt lat="42.46272590931966" lon="11.97496281831314"><ele>234.0</ele><time>2026-04-12T08:14:34.001Z</time></trkpt><trkpt lat="42.462848918773936" lon="11.974990331381981"><ele>234.0</ele><time>2026-04-12T08:14:35.001Z</time></trkpt><trkpt lat="42.462951482631944" lon="11.975012110312068"><ele>234.0</ele><time>2026-04-12T08:14:36.001Z</time></trkpt><trkpt lat="42.46303717149142" lon="11.975028271177072"><ele>234.39999999999998</ele><time>2026-04-12T08:14:37.001Z</time></trkpt><trkpt lat="42.4631282182597" lon="11.975044945480414"><ele>234.79999999999998</ele><time>2026-04-12T08:14:38.001Z</time></trkpt><trkpt lat="42.46322592229536" lon="11.975060507237105"><ele>235.20000000000002</ele><time>2026-04-12T08:14:39.001Z</time></trkpt><trkpt lat="42.4633232768545" lon="11.975070801258676"><ele>235.60000000000002</ele><time>2026-04-12T08:14:40.001Z</time></trkpt><trkpt lat="42.46342030448583" lon="11.975085156863646"><ele>236.0</ele><time>2026-04-12T08:14:41.001Z</time></trkpt><trkpt lat="42.46353494291512" lon="11.975092971763589"><ele>236.0</ele><time>2026-04-12T08:14:42.001Z</time></trkpt><trkpt lat="42.46363691655638" lon="11.975099908229863"><ele>236.00000000000003</ele><time>2026-04-12T08:14:43.001Z</time></trkpt><trkpt lat="42.46374799310619" lon="11.975115788665413"><ele>236.00000000000003</ele><time>2026-04-12T08:14:44.001Z</time></trkpt><trkpt lat="42.46384887164805" lon="11.97511536302107"><ele>236.0</ele><time>2026-04-12T08:14:45.001Z</time></trkpt><trkpt lat="42.463942720941034" lon="11.9751209616418"><ele>236.0</ele><time>2026-04-12T08:14:46.001Z</time></trkpt><trkpt lat="42.46404627481423" lon="11.975127270295792"><ele>236.75</ele><time>2026-04-12T08:14:47.001Z</time></trkpt><trkpt lat="42.46414937563729" lon="11.97512934507224"><ele>237.5</ele><time>2026-04-12T08:14:48.001Z</time></trkpt><trkpt lat="42.46426150975291" lon="11.975118776253263"><ele>238.25</ele><time>2026-04-12T08:14:49.001Z</time></trkpt><trkpt lat="42.464379900646406" lon="11.975125658686228"><ele>239.0</ele><time>2026-04-12T08:14:50.001Z</time></trkpt><trkpt lat="42.46449942388897" lon="11.975111165959646"><ele>239.25</ele><time>2026-04-12T08:14:51.001Z</time></trkpt><trkpt lat="42.46461608940746" lon="11.97509556702175"><ele>239.5</ele><time>2026-04-12T08:14:52.001Z</time></trkpt><trkpt lat="42.46473019444414" lon="11.97505781362565"><ele>239.75</ele><time>2026-04-12T08:14:53.001Z</time></trkpt><trkpt lat="42.46485693145041" lon="11.975065686067023"><ele>240.0</ele><time>2026-04-12T08:14:54.001Z</time></trkpt><trkpt lat="42.46498026523749" lon="11.975051912684352"><ele>240.0</ele><time>2026-04-12T08:14:55.001Z</time></trkpt><trkpt lat="42.465099480106254" lon="11.975042426775573"><ele>240.0</ele><time>2026-04-12T08:14:56.001Z</time></trkpt><trkpt lat="42.4652233868511" lon="11.975014925068793"><ele>240.0</ele><time>2026-04-12T08:14:57.001Z</time></trkpt><trkpt lat="42.46535377345442" lon="11.975032132992602"><ele>240.0</ele><time>2026-04-12T08:14:58.001Z</time></trkpt><trkpt lat="42.46547638535191" lon="11.975015748693004"><ele>241.25</ele><time>2026-04-12T08:14:59.001Z</time></trkpt><trkpt lat="42.465600780916276" lon="11.975026157681684"><ele>242.5</ele><time>2026-04-12T08:15:00.001Z</time></trkpt><trkpt lat="42.4657201400307" lon="11.975038328754174"><ele>243.75</ele><time>2026-04-12T08:15:01.001Z</time></trkpt><trkpt lat="42.46583188613783" lon="11.975074270926703"><ele>245.0</ele><time>2026-04-12T08:15:02.001Z</time></trkpt><trkpt lat="42.46595218621199" lon="11.975076758459764"><ele>245.0</ele><time>2026-04-12T08:15:03.001Z</time></trkpt><trkpt lat="42.46607030776823" lon="11.9751041097337"><ele>245.0</ele><time>2026-04-12T08:15:04.001Z</time></trkpt><trkpt lat="42.46619534183587" lon="11.975139122328219"><ele>245.0</ele><time>2026-04-12T08:15:05.001Z</time></trkpt><trkpt lat="42.466313649161215" lon="11.97517989880204"><ele>245.0</ele><time>2026-04-12T08:15:06.001Z</time></trkpt><trkpt lat="42.466417509219596" lon="11.975215850713896"><ele>246.4</ele><time>2026-04-12T08:15:07.001Z</time></trkpt><trkpt lat="42.46652432473964" lon="11.97525770705737"><ele>247.8</ele><time>2026-04-12T08:15:08.001Z</time></trkpt><trkpt lat="42.466615261827144" lon="11.975304931627447"><ele>249.2</ele><time>2026-04-12T08:15:09.001Z</time></trkpt><trkpt lat="42.46671639678135" lon="11.975351429677886"><ele>250.6</ele><time>2026-04-12T08:15:10.001Z</time></trkpt><trkpt lat="42.466832329426325" lon="11.975403647790749"><ele>252.0</ele><time>2026-04-12T08:15:11.001Z</time></trkpt><trkpt lat="42.46695156279231" lon="11.975467692349199"><ele>252.0</ele><time>2026-04-12T08:15:12.001Z</time></trkpt><trkpt lat="42.46705078888281" lon="11.975553610210508"><ele>252.0</ele><time>2026-04-12T08:15:13.001Z</time></trkpt><trkpt lat="42.467167641764966" lon="11.975613297215062"><ele>252.0</ele><time>2026-04-12T08:15:14.001Z</time></trkpt><trkpt lat="42.4672812552353" lon="11.975697104783091"><ele>252.0</ele><time>2026-04-12T08:15:15.001Z</time></trkpt><trkpt lat="42.467392243892675" lon="11.97578299093781"><ele>252.39999999999998</ele><time>2026-04-12T08:15:16.001Z</time></trkpt><trkpt lat="42.467480268540406" lon="11.975860055637089"><ele>252.79999999999998</ele><time>2026-04-12T08:15:17.001Z</time></trkpt><trkpt lat="42.467555775887284" lon="11.975934302023603"><ele>253.2</ele><time>2026-04-12T08:15:18.001Z</time></trkpt><trkpt lat="42.46762708430948" lon="11.976003000597787"><ele>253.6</ele><time>2026-04-12T08:15:19Z</time></trkpt><trkpt lat="42.46770881957824" lon="11.976087505541981"><ele>254.0</ele><time>2026-04-12T08:15:20Z</time></trkpt><trkpt lat="42.46778595535969" lon="11.976180367358477"><ele>254.0</ele><time>2026-04-12T08:15:21Z</time></trkpt><trkpt lat="42.46786334485179" lon="11.976283224206304"><ele>253.99999999999997</ele><time>2026-04-12T08:15:22Z</time></trkpt><trkpt lat="42.46791359624434" lon="11.976389664669044"><ele>253.99999999999997</ele><time>2026-04-12T08:15:23Z</time></trkpt><trkpt lat="42.46799221290113" lon="11.976480457490256"><ele>254.0</ele><time>2026-04-12T08:15:24Z</time></trkpt><trkpt lat="42.468062508361115" lon="11.976591668449874"><ele>254.0</ele><time>2026-04-12T08:15:25Z</time></trkpt><trkpt lat="42.46813509704546" lon="11.976709376049358"><ele>256.25</ele><time>2026-04-12T08:15:26Z</time></trkpt><trkpt lat="42.4682082837579" lon="11.976843527210482"><ele>258.5</ele><time>2026-04-12T08:15:27Z</time></trkpt><trkpt lat="42.468281564693136" lon="11.97698048055195"><ele>260.75</ele><time>2026-04-12T08:15:28Z</time></trkpt><trkpt lat="42.46834337959741" lon="11.977102417998339"><ele>263.0</ele><time>2026-04-12T08:15:29Z</time></trkpt><trkpt lat="42.46839441779591" lon="11.977234878437777"><ele>263.0</ele><time>2026-04-12T08:15:30Z</time></trkpt><trkpt lat="42.468449527590586" lon="11.977378841804748"><ele>263.0</ele><time>2026-04-12T08:15:31Z</time></trkpt><trkpt lat="42.468492944501676" lon="11.977516989138572"><ele>263.0</ele><time>2026-04-12T08:15:32Z</time></trkpt><trkpt lat="42.46854587607028" lon="11.977633639776904"><ele>263.0</ele><time>2026-04-12T08:15:33Z</time></trkpt><trkpt lat="42.46859100853285" lon="11.97775400885387"><ele>263.0</ele><time>2026-04-12T08:15:34Z</time></trkpt><trkpt lat="42.46863804083622" lon="11.97788003246715"><ele>263.5</ele><time>2026-04-12T08:15:35Z</time></trkpt><trkpt lat="42.46869165736689" lon="11.978026161930948"><ele>264.0</ele><time>2026-04-12T08:15:36Z</time></trkpt><trkpt lat="42.468747780124225" lon="11.978197660851016"><ele>264.5</ele><time>2026-04-12T08:15:37Z</time></trkpt><trkpt lat="42.46880995337658" lon="11.978370216653973"><ele>265.0</ele><time>2026-04-12T08:15:38Z</time></trkpt><trkpt lat="42.468857293371265" lon="11.978533653046219"><ele>267.0</ele><time>2026-04-12T08:15:39Z</time></trkpt><trkpt lat="42.46891056373676" lon="11.978693066739845"><ele>269.0</ele><time>2026-04-12T08:15:40Z</time></trkpt><trkpt lat="42.46895889356416" lon="11.978829577801609"><ele>271.0</ele><time>2026-04-12T08:15:41Z</time></trkpt><trkpt lat="42.4690058085611" lon="11.978951295181226"><ele>273.0</ele><time>2026-04-12T08:15:42Z</time></trkpt><trkpt lat="42.46905616794343" lon="11.97909256737129"><ele>272.6</ele><time>2026-04-12T08:15:43Z</time></trkpt><trkpt lat="42.46910424471674" lon="11.979225782857933"><ele>272.20000000000005</ele><time>2026-04-12T08:15:44Z</time></trkpt><trkpt lat="42.46915840491261" lon="11.979358809842683"><ele>271.8</ele><time>2026-04-12T08:15:45Z</time></trkpt><trkpt lat="42.46920848200123" lon="11.979490954733798"><ele>271.40000000000003</ele><time>2026-04-12T08:15:46Z</time></trkpt><trkpt lat="42.469252902784255" lon="11.9795914535921"><ele>271.0</ele><time>2026-04-12T08:15:47Z</time></trkpt><trkpt lat="42.469304759480515" lon="11.97966294231393"><ele>271.0</ele><time>2026-04-12T08:15:48Z</time></trkpt><trkpt lat="42.46938449398979" lon="11.979723852911366"><ele>271.0</ele><time>2026-04-12T08:15:49Z</time></trkpt><trkpt lat="42.46946403386667" lon="11.979747124964565"><ele>271.0</ele><time>2026-04-12T08:15:50Z</time></trkpt><trkpt lat="42.46957182822919" lon="11.979783618628685"><ele>271.0</ele><time>2026-04-12T08:15:51Z</time></trkpt><trkpt lat="42.46967803595678" lon="11.979819304769661"><ele>271.0</ele><time>2026-04-12T08:15:52Z</time></trkpt><trkpt lat="42.46978261132983" lon="11.979852616390339"><ele>272.2</ele><time>2026-04-12T08:15:53Z</time></trkpt><trkpt lat="42.469896224593185" lon="11.979876798296289"><ele>273.40000000000003</ele><time>2026-04-12T08:15:54Z</time></trkpt><trkpt lat="42.47000902441664" lon="11.97990384254567"><ele>274.6</ele><time>2026-04-12T08:15:55Z</time></trkpt><trkpt lat="42.470115701548266" lon="11.979923355312124"><ele>275.8</ele><time>2026-04-12T08:15:56Z</time></trkpt><trkpt lat="42.47022217951005" lon="11.97993154427475"><ele>277.0</ele><time>2026-04-12T08:15:57Z</time></trkpt><trkpt lat="42.47032878171144" lon="11.979950659422562"><ele>277.0</ele><time>2026-04-12T08:15:58Z</time></trkpt><trkpt lat="42.47043104214713" lon="11.97997560278058"><ele>277.0</ele><time>2026-04-12T08:15:59Z</time></trkpt><trkpt lat="42.470534604170915" lon="11.980001768235587"><ele>277.0</ele><time>2026-04-12T08:16:00Z</time></trkpt><trkpt lat="42.4706340330227" lon="11.980023352794207"><ele>277.0</ele><time>2026-04-12T08:16:01Z</time></trkpt><trkpt lat="42.47073355368978" lon="11.980049147447446"><ele>277.0</ele><time>2026-04-12T08:16:02Z</time></trkpt><trkpt lat="42.47083218713328" lon="11.980085456061946"><ele>276.75</ele><time>2026-04-12T08:16:03Z</time></trkpt><trkpt lat="42.470932575760536" lon="11.980133110953336"><ele>276.5</ele><time>2026-04-12T08:16:04Z</time></trkpt><trkpt lat="42.471029687955074" lon="11.980184110273967"><ele>276.25</ele><time>2026-04-12T08:16:05Z</time></trkpt><trkpt lat="42.47114045251183" lon="11.980241211035572"><ele>276.0</ele><time>2026-04-12T08:16:06Z</time></trkpt><trkpt lat="42.471254508234374" lon="11.980298752799646"><ele>277.0</ele><time>2026-04-12T08:16:07Z</time></trkpt><trkpt lat="42.471370445130354" lon="11.980355036233071"><ele>278.0</ele><time>2026-04-12T08:16:08Z</time></trkpt><trkpt lat="42.47148558206913" lon="11.980410355383702"><ele>279.0</ele><time>2026-04-12T08:16:09Z</time></trkpt><trkpt lat="42.47160718701863" lon="11.980461373113132"><ele>280.0</ele><time>2026-04-12T08:16:10Z</time></trkpt><trkpt lat="42.47173741393008" lon="11.980501924657318"><ele>280.0</ele><time>2026-04-12T08:16:11Z</time></trkpt><trkpt lat="42.47186920879245" lon="11.980547880119436"><ele>280.0</ele><time>2026-04-12T08:16:12Z</time></trkpt><trkpt lat="42.471990170184604" lon="11.98060419568404"><ele>280.0</ele><time>2026-04-12T08:16:13Z</time></trkpt><trkpt lat="42.472104473970354" lon="11.980656690590141"><ele>280.0</ele><time>2026-04-12T08:16:14Z</time></trkpt><trkpt lat="42.472208611053816" lon="11.980721732033189"><ele>279.5</ele><time>2026-04-12T08:16:15Z</time></trkpt><trkpt lat="42.47231429239963" lon="11.980802870873681"><ele>279.0</ele><time>2026-04-12T08:16:16Z</time></trkpt><trkpt lat="42.472425300736546" lon="11.980885448490307"><ele>278.5</ele><time>2026-04-12T08:16:17Z</time></trkpt><trkpt lat="42.47254715351444" lon="11.98095349323936"><ele>278.0</ele><time>2026-04-12T08:16:18Z</time></trkpt><trkpt lat="42.47267997358926" lon="11.981009773651344"><ele>278.0</ele><time>2026-04-12T08:16:19Z</time></trkpt><trkpt lat="42.47279611052987" lon="11.981036038791377"><ele>278.0</ele><time>2026-04-12T08:16:20Z</time></trkpt><trkpt lat="42.472899760049316" lon="11.981048958260706"><ele>278.0</ele><time>2026-04-12T08:16:21Z</time></trkpt><trkpt lat="42.47298833752954" lon="11.981106739078193"><ele>278.0</ele><time>2026-04-12T08:16:22Z</time></trkpt><trkpt lat="42.473092960850515" lon="11.98114212524259"><ele>278.0</ele><time>2026-04-12T08:16:23Z</time></trkpt><trkpt lat="42.473194697351566" lon="11.981231720563125"><ele>279.0</ele><time>2026-04-12T08:16:24Z</time></trkpt><trkpt lat="42.47331259599548" lon="11.981310888366785"><ele>280.0</ele><time>2026-04-12T08:16:25Z</time></trkpt><trkpt lat="42.47343492689635" lon="11.981367829228"><ele>281.0</ele><time>2026-04-12T08:16:26Z</time></trkpt><trkpt lat="42.47354163510657" lon="11.981441514467507"><ele>282.0</ele><time>2026-04-12T08:16:27Z</time></trkpt><trkpt lat="42.4736333910093" lon="11.98154469574881"><ele>282.0</ele><time>2026-04-12T08:16:28Z</time></trkpt><trkpt lat="42.47372584994407" lon="11.981663218202428"><ele>282.0</ele><time>2026-04-12T08:16:29Z</time></trkpt><trkpt lat="42.473812090434706" lon="11.981784379324234"><ele>282.0</ele><time>2026-04-12T08:16:30Z</time></trkpt><trkpt lat="42.473891886451035" lon="11.981900870399446"><ele>282.0</ele><time>2026-04-12T08:16:31Z</time></trkpt><trkpt lat="42.4740057816156" lon="11.982013685766196"><ele>282.0</ele><time>2026-04-12T08:16:32Z</time></trkpt><trkpt lat="42.47412772647836" lon="11.98211293254471"><ele>282.0</ele><time>2026-04-12T08:16:33Z</time></trkpt><trkpt lat="42.47425434721662" lon="11.982202787870097"><ele>282.0</ele><time>2026-04-12T08:16:34Z</time></trkpt><trkpt lat="42.47437920769081" lon="11.982301175417954"><ele>282.0</ele><time>2026-04-12T08:16:35Z</time></trkpt><trkpt lat="42.474490514671075" lon="11.982397878262999"><ele>282.5</ele><time>2026-04-12T08:16:36Z</time></trkpt><trkpt lat="42.47460682673107" lon="11.982500189431533"><ele>283.0</ele><time>2026-04-12T08:16:37Z</time></trkpt><trkpt lat="42.474731378212574" lon="11.982603626234027"><ele>283.5</ele><time>2026-04-12T08:16:38.001Z</time></trkpt><trkpt lat="42.474860439255124" lon="11.982711291125703"><ele>284.0</ele><time>2026-04-12T08:16:39.001Z</time></trkpt><trkpt lat="42.47498938242067" lon="11.982816754786782"><ele>284.0</ele><time>2026-04-12T08:16:40.001Z</time></trkpt><trkpt lat="42.47511972277518" lon="11.98292110823725"><ele>284.0</ele><time>2026-04-12T08:16:41.001Z</time></trkpt><trkpt lat="42.47523953751637" lon="11.983019339680974"><ele>284.0</ele><time>2026-04-12T08:16:42.001Z</time></trkpt><trkpt lat="42.47535882167687" lon="11.983109704645303"><ele>284.0</ele><time>2026-04-12T08:16:43.001Z</time></trkpt><trkpt lat="42.475473782272125" lon="11.983191151861194"><ele>284.25</ele><time>2026-04-12T08:16:44.001Z</time></trkpt><trkpt lat="42.475594770564925" lon="11.983286078351902"><ele>284.5</ele><time>2026-04-12T08:16:45.001Z</time></trkpt><trkpt lat="42.475719729614056" lon="11.983383877634306"><ele>284.75</ele><time>2026-04-12T08:16:46.001Z</time></trkpt><trkpt lat="42.47585614702638" lon="11.983489351666682"><ele>285.0</ele><time>2026-04-12T08:16:47.001Z</time></trkpt><trkpt lat="42.475980238437074" lon="11.983584295585803"><ele>285.0</ele><time>2026-04-12T08:16:48.001Z</time></trkpt><trkpt lat="42.47612556517495" lon="11.983703231257246"><ele>285.0</ele><time>2026-04-12T08:16:49.001Z</time></trkpt><trkpt lat="42.47625915758917" lon="11.983815581734842"><ele>285.0</ele><time>2026-04-12T08:16:50.001Z</time></trkpt><trkpt lat="42.47639100203411" lon="11.983925776525384"><ele>286.0</ele><time>2026-04-12T08:16:51.001Z</time></trkpt><trkpt lat="42.47652352444348" lon="11.984035819684577"><ele>287.0</ele><time>2026-04-12T08:16:52.001Z</time></trkpt><trkpt lat="42.476657883168144" lon="11.9841444070235"><ele>288.0</ele><time>2026-04-12T08:16:53.001Z</time></trkpt><trkpt lat="42.47680011263075" lon="11.984254997304216"><ele>289.0</ele><time>2026-04-12T08:16:54.001Z</time></trkpt><trkpt lat="42.47694838022378" lon="11.984372938698643"><ele>290.0</ele><time>2026-04-12T08:16:55.001Z</time></trkpt><trkpt lat="42.47709879389934" lon="11.984493055690596"><ele>291.0</ele><time>2026-04-12T08:16:56.001Z</time></trkpt><trkpt lat="42.47720768910681" lon="11.984607828058216"><ele>291.25</ele><time>2026-04-12T08:16:57.001Z</time></trkpt><trkpt lat="42.47731192816094" lon="11.984694267694877"><ele>291.5</ele><time>2026-04-12T08:16:58.001Z</time></trkpt><trkpt lat="42.477418825946025" lon="11.984782912032262"><ele>291.75</ele><time>2026-04-12T08:16:59.001Z</time></trkpt><trkpt lat="42.47752198691441" lon="11.984864773955879"><ele>292.0</ele><time>2026-04-12T08:17:00.001Z</time></trkpt><trkpt lat="42.477616816898504" lon="11.98491836283118"><ele>292.0</ele><time>2026-04-12T08:17:01.001Z</time></trkpt><trkpt lat="42.47771398773877" lon="11.984973882650195"><ele>292.0</ele><time>2026-04-12T08:17:02.001Z</time></trkpt><trkpt lat="42.477831279774655" lon="11.985014808773261"><ele>292.0</ele><time>2026-04-12T08:17:03.001Z</time></trkpt><trkpt lat="42.4779729401035" lon="11.985056146602014"><ele>292.0</ele><time>2026-04-12T08:17:04.001Z</time></trkpt><trkpt lat="42.47812521787831" lon="11.985105403932524"><ele>290.66666666666663</ele><time>2026-04-12T08:17:05.001Z</time></trkpt><trkpt lat="42.47828125602605" lon="11.985187507713842"><ele>289.3333333333333</ele><time>2026-04-12T08:17:06.001Z</time></trkpt><trkpt lat="42.478444818428" lon="11.985228210478963"><ele>288.0</ele><time>2026-04-12T08:17:07.001Z</time></trkpt><trkpt lat="42.47859089603453" lon="11.985292573583262"><ele>288.0</ele><time>2026-04-12T08:17:08.001Z</time></trkpt><trkpt lat="42.478747044598364" lon="11.985349609567463"><ele>288.0</ele><time>2026-04-12T08:17:09.001Z</time></trkpt><trkpt lat="42.47889684037128" lon="11.98540656303848"><ele>288.0</ele><time>2026-04-12T08:17:10.001Z</time></trkpt><trkpt lat="42.47904669305749" lon="11.985459231125242"><ele>289.0</ele><time>2026-04-12T08:17:11.001Z</time></trkpt><trkpt lat="42.47917784508894" lon="11.985506779344327"><ele>290.0</ele><time>2026-04-12T08:17:12.001Z</time></trkpt><trkpt lat="42.47931610329026" lon="11.985562315288586"><ele>291.0</ele><time>2026-04-12T08:17:13.001Z</time></trkpt><trkpt lat="42.479469068203" lon="11.985614169612084"><ele>292.0</ele><time>2026-04-12T08:17:14.001Z</time></trkpt><trkpt lat="42.47963561662128" lon="11.98567633121067"><ele>293.3333333333333</ele><time>2026-04-12T08:17:15.001Z</time></trkpt><trkpt lat="42.4797885178924" lon="11.985733172929637"><ele>294.6666666666667</ele><time>2026-04-12T08:17:16.001Z</time></trkpt><trkpt lat="42.47993989248878" lon="11.985791712288231"><ele>296.0</ele><time>2026-04-12T08:17:17.001Z</time></trkpt><trkpt lat="42.48008918149162" lon="11.985841998512779"><ele>296.0</ele><time>2026-04-12T08:17:18.001Z</time></trkpt><trkpt lat="42.48024943548001" lon="11.985898408990577"><ele>296.0</ele><time>2026-04-12T08:17:19.001Z</time></trkpt><trkpt lat="42.48041450875553" lon="11.985958178727675"><ele>296.0</ele><time>2026-04-12T08:17:20.001Z</time></trkpt><trkpt lat="42.480563086323045" lon="11.986013892234032"><ele>296.0</ele><time>2026-04-12T08:17:21.001Z</time></trkpt><trkpt lat="42.48069136705268" lon="11.986064439541916"><ele>296.0</ele><time>2026-04-12T08:17:22.001Z</time></trkpt><trkpt lat="42.48081199536244" lon="11.986113194201211"><ele>296.0</ele><time>2026-04-12T08:17:23.001Z</time></trkpt><trkpt lat="42.480949606234624" lon="11.986162240376952"><ele>296.0</ele><time>2026-04-12T08:17:24.001Z</time></trkpt><trkpt lat="42.481092267726694" lon="11.98621552210244"><ele>296.0</ele><time>2026-04-12T08:17:25Z</time></trkpt><trkpt lat="42.48123250646532" lon="11.986270322855017"><ele>296.0</ele><time>2026-04-12T08:17:26Z</time></trkpt><trkpt lat="42.48137255837813" lon="11.986318619045075"><ele>296.0</ele><time>2026-04-12T08:17:27Z</time></trkpt><trkpt lat="42.48151667826571" lon="11.986373614047281"><ele>296.0</ele><time>2026-04-12T08:17:28Z</time></trkpt><trkpt lat="42.48166940851644" lon="11.98643529864923"><ele>296.33333333333337</ele><time>2026-04-12T08:17:29Z</time></trkpt><trkpt lat="42.48182143897248" lon="11.986490951312659"><ele>296.6666666666667</ele><time>2026-04-12T08:17:30Z</time></trkpt><trkpt lat="42.48198118887996" lon="11.986546745312795"><ele>297.0</ele><time>2026-04-12T08:17:31Z</time></trkpt><trkpt lat="42.482127159613235" lon="11.986604724139038"><ele>297.0</ele><time>2026-04-12T08:17:32Z</time></trkpt><trkpt lat="42.482253877014415" lon="11.98665187140866"><ele>297.0</ele><time>2026-04-12T08:17:33Z</time></trkpt><trkpt lat="42.48236524557069" lon="11.986691306940463"><ele>297.0</ele><time>2026-04-12T08:17:34Z</time></trkpt><trkpt lat="42.48247900909135" lon="11.986728212222742"><ele>297.0</ele><time>2026-04-12T08:17:35Z</time></trkpt><trkpt lat="42.48259686347983" lon="11.986769884649185"><ele>297.0</ele><time>2026-04-12T08:17:36Z</time></trkpt><trkpt lat="42.48271483807753" lon="11.98680949481631"><ele>297.0</ele><time>2026-04-12T08:17:37Z</time></trkpt><trkpt lat="42.48283719531573" lon="11.986854629742364"><ele>297.0</ele><time>2026-04-12T08:17:38Z</time></trkpt><trkpt lat="42.48296854163479" lon="11.986905213116392"><ele>297.0</ele><time>2026-04-12T08:17:39Z</time></trkpt><trkpt lat="42.48309889251695" lon="11.986959158204488"><ele>298.0</ele><time>2026-04-12T08:17:40Z</time></trkpt><trkpt lat="42.483234115068434" lon="11.987009414895086"><ele>299.0</ele><time>2026-04-12T08:17:41Z</time></trkpt><trkpt lat="42.48337075107166" lon="11.987063671405275"><ele>300.0</ele><time>2026-04-12T08:17:42Z</time></trkpt><trkpt lat="42.48349551325077" lon="11.987111452687202"><ele>301.0</ele><time>2026-04-12T08:17:43Z</time></trkpt><trkpt lat="42.4836283312842" lon="11.987157384172042"><ele>301.0</ele><time>2026-04-12T08:17:44Z</time></trkpt><trkpt lat="42.483756257514955" lon="11.987199439501865"><ele>301.0</ele><time>2026-04-12T08:17:45Z</time></trkpt><trkpt lat="42.483862412640676" lon="11.987263190747353"><ele>301.0</ele><time>2026-04-12T08:17:46Z</time></trkpt><trkpt lat="42.48395669446007" lon="11.987316608525802"><ele>301.0</ele><time>2026-04-12T08:17:47Z</time></trkpt><trkpt lat="42.48405364878243" lon="11.987353476147273"><ele>302.0</ele><time>2026-04-12T08:17:48Z</time></trkpt><trkpt lat="42.48414705326652" lon="11.987466791711283"><ele>303.0</ele><time>2026-04-12T08:17:49Z</time></trkpt><trkpt lat="42.484269105812906" lon="11.987566674962306"><ele>304.0</ele><time>2026-04-12T08:17:50Z</time></trkpt><trkpt lat="42.48438010826783" lon="11.987679088855227"><ele>305.0</ele><time>2026-04-12T08:17:51Z</time></trkpt><trkpt lat="42.48449607076488" lon="11.987790064816917"><ele>305.6666666666667</ele><time>2026-04-12T08:17:52Z</time></trkpt><trkpt lat="42.48461734064314" lon="11.987892174833028"><ele>306.3333333333333</ele><time>2026-04-12T08:17:53Z</time></trkpt><trkpt lat="42.48474735286807" lon="11.98799930104443"><ele>307.0</ele><time>2026-04-12T08:17:54Z</time></trkpt><trkpt lat="42.484881099796404" lon="11.98810880043409"><ele>307.0</ele><time>2026-04-12T08:17:55Z</time></trkpt><trkpt lat="42.48501098544885" lon="11.988213045021228"><ele>307.0</ele><time>2026-04-12T08:17:56Z</time></trkpt><trkpt lat="42.485137374398576" lon="11.988309683100514"><ele>307.0</ele><time>2026-04-12T08:17:57Z</time></trkpt><trkpt lat="42.4852758026248" lon="11.988417394465039"><ele>306.3333333333333</ele><time>2026-04-12T08:17:58Z</time></trkpt><trkpt lat="42.48542539651641" lon="11.988524050561015"><ele>305.6666666666667</ele><time>2026-04-12T08:17:59Z</time></trkpt><trkpt lat="42.485564495948516" lon="11.988626597137673"><ele>305.0</ele><time>2026-04-12T08:18:00Z</time></trkpt><trkpt lat="42.48568869303401" lon="11.988719140920884"><ele>306.0</ele><time>2026-04-12T08:18:01Z</time></trkpt><trkpt lat="42.48580602512149" lon="11.988808971938134"><ele>307.0</ele><time>2026-04-12T08:18:02Z</time></trkpt><trkpt lat="42.48592976922279" lon="11.988904667294848"><ele>308.0</ele><time>2026-04-12T08:18:03Z</time></trkpt><trkpt lat="42.48604167503732" lon="11.988992968043107"><ele>309.0</ele><time>2026-04-12T08:18:04Z</time></trkpt><trkpt lat="42.48616277096073" lon="11.989087831510773"><ele>310.0</ele><time>2026-04-12T08:18:05Z</time></trkpt><trkpt lat="42.48628160524087" lon="11.989182973805958"><ele>311.0</ele><time>2026-04-12T08:18:06Z</time></trkpt><trkpt lat="42.48640051287081" lon="11.989278293913987"><ele>312.0</ele><time>2026-04-12T08:18:07Z</time></trkpt><trkpt lat="42.48652141916116" lon="11.989374602096655"><ele>313.0</ele><time>2026-04-12T08:18:08Z</time></trkpt><trkpt lat="42.48665274334232" lon="11.989476282651975"><ele>313.0</ele><time>2026-04-12T08:18:09Z</time></trkpt><trkpt lat="42.486769803002794" lon="11.98959049673263"><ele>313.0</ele><time>2026-04-12T08:18:10Z</time></trkpt><trkpt lat="42.48687884535527" lon="11.989659921036452"><ele>313.0</ele><time>2026-04-12T08:18:11Z</time></trkpt><trkpt lat="42.48699384473821" lon="11.989754435533163"><ele>313.0</ele><time>2026-04-12T08:18:12Z</time></trkpt><trkpt lat="42.48710557044016" lon="11.989864667678344"><ele>313.66666666666663</ele><time>2026-04-12T08:18:13Z</time></trkpt><trkpt lat="42.4872397511176" lon="11.989967957207755"><ele>314.3333333333333</ele><time>2026-04-12T08:18:14Z</time></trkpt><trkpt lat="42.48739149653217" lon="11.99006072206652"><ele>315.0</ele><time>2026-04-12T08:18:15Z</time></trkpt><trkpt lat="42.48751369202579" lon="11.990159890115793"><ele>315.0</ele><time>2026-04-12T08:18:16Z</time></trkpt><trkpt lat="42.48761618069172" lon="11.990245897463893"><ele>315.0</ele><time>2026-04-12T08:18:17Z</time></trkpt><trkpt lat="42.4877179766522" lon="11.990317374923116"><ele>315.0</ele><time>2026-04-12T08:18:18Z</time></trkpt><trkpt lat="42.48782487631412" lon="11.990373027309852"><ele>315.0</ele><time>2026-04-12T08:18:19Z</time></trkpt><trkpt lat="42.48795163276396" lon="11.990408314292475"><ele>315.25</ele><time>2026-04-12T08:18:20Z</time></trkpt><trkpt lat="42.48808558974256" lon="11.990422862995837"><ele>315.5</ele><time>2026-04-12T08:18:21Z</time></trkpt><trkpt lat="42.48821960439398" lon="11.990419506270335"><ele>315.75</ele><time>2026-04-12T08:18:22Z</time></trkpt><trkpt lat="42.48836552819546" lon="11.99040894559462"><ele>316.0</ele><time>2026-04-12T08:18:23Z</time></trkpt><trkpt lat="42.48850742924099" lon="11.990376635162933"><ele>316.0</ele><time>2026-04-12T08:18:24Z</time></trkpt><trkpt lat="42.48863030363106" lon="11.990348168686713"><ele>316.0</ele><time>2026-04-12T08:18:25Z</time></trkpt><trkpt lat="42.48874441055877" lon="11.99032562299891"><ele>316.0</ele><time>2026-04-12T08:18:26Z</time></trkpt><trkpt lat="42.4888575446315" lon="11.990307192620115"><ele>316.0</ele><time>2026-04-12T08:18:27Z</time></trkpt><trkpt lat="42.48897173016169" lon="11.990285719495558"><ele>315.5</ele><time>2026-04-12T08:18:28Z</time></trkpt><trkpt lat="42.48907848441898" lon="11.990283786273286"><ele>315.0</ele><time>2026-04-12T08:18:29Z</time></trkpt><trkpt lat="42.489193963138604" lon="11.990267197005618"><ele>314.5</ele><time>2026-04-12T08:18:30Z</time></trkpt><trkpt lat="42.48932327476637" lon="11.990250379820894"><ele>314.0</ele><time>2026-04-12T08:18:31Z</time></trkpt><trkpt lat="42.489461278800114" lon="11.990219573700275"><ele>315.25</ele><time>2026-04-12T08:18:32Z</time></trkpt><trkpt lat="42.48959860128539" lon="11.990229749936622"><ele>316.5</ele><time>2026-04-12T08:18:33Z</time></trkpt><trkpt lat="42.489725931090966" lon="11.990288236115385"><ele>317.75</ele><time>2026-04-12T08:18:34Z</time></trkpt><trkpt lat="42.48986204364702" lon="11.990352779862283"><ele>319.0</ele><time>2026-04-12T08:18:35Z</time></trkpt><trkpt lat="42.48999930945515" lon="11.990434844726721"><ele>319.0</ele><time>2026-04-12T08:18:36Z</time></trkpt><trkpt lat="42.49013114369494" lon="11.990526740273232"><ele>319.0</ele><time>2026-04-12T08:18:37Z</time></trkpt><trkpt lat="42.49027955518745" lon="11.990613550860918"><ele>319.0</ele><time>2026-04-12T08:18:38Z</time></trkpt><trkpt lat="42.4904171489462" lon="11.99073445525553"><ele>320.25</ele><time>2026-04-12T08:18:39Z</time></trkpt><trkpt lat="42.49056120656888" lon="11.990851313067058"><ele>321.5</ele><time>2026-04-12T08:18:40Z</time></trkpt><trkpt lat="42.49069088133996" lon="11.990950965807718"><ele>322.75</ele><time>2026-04-12T08:18:41Z</time></trkpt><trkpt lat="42.49080036649296" lon="11.99104880393938"><ele>324.0</ele><time>2026-04-12T08:18:42Z</time></trkpt><trkpt lat="42.49091542740756" lon="11.991142087134746"><ele>324.0</ele><time>2026-04-12T08:18:43Z</time></trkpt><trkpt lat="42.49103269885129" lon="11.99123128535253"><ele>324.0</ele><time>2026-04-12T08:18:44Z</time></trkpt><trkpt lat="42.491146606957415" lon="11.99132176345775"><ele>324.0</ele><time>2026-04-12T08:18:45Z</time></trkpt><trkpt lat="42.491269710547485" lon="11.991395408684854"><ele>324.0</ele><time>2026-04-12T08:18:46Z</time></trkpt><trkpt lat="42.491408970274044" lon="11.991459835281221"><ele>325.0</ele><time>2026-04-12T08:18:47.001Z</time></trkpt><trkpt lat="42.49155739032771" lon="11.991501730733104"><ele>326.0</ele><time>2026-04-12T08:18:48.001Z</time></trkpt><trkpt lat="42.49170858672258" lon="11.991540772902269"><ele>327.0</ele><time>2026-04-12T08:18:49.001Z</time></trkpt><trkpt lat="42.491849283637315" lon="11.991561289201687"><ele>328.0</ele><time>2026-04-12T08:18:50.001Z</time></trkpt><trkpt lat="42.49198652658347" lon="11.991588614528867"><ele>329.5</ele><time>2026-04-12T08:18:51.001Z</time></trkpt><trkpt lat="42.492126312006455" lon="11.991584012338919"><ele>331.0</ele><time>2026-04-12T08:18:52.001Z</time></trkpt><trkpt lat="42.492267488922856" lon="11.99156933863473"><ele>332.5</ele><time>2026-04-12T08:18:53.001Z</time></trkpt><trkpt lat="42.49241596647187" lon="11.991536211655252"><ele>334.0</ele><time>2026-04-12T08:18:54.001Z</time></trkpt><trkpt lat="42.49257747487312" lon="11.991474618473415"><ele>334.0</ele><time>2026-04-12T08:18:55.001Z</time></trkpt><trkpt lat="42.492733473055715" lon="11.991415101257411"><ele>334.0</ele><time>2026-04-12T08:18:56.001Z</time></trkpt><trkpt lat="42.4928665518608" lon="11.991356162003612"><ele>334.0</ele><time>2026-04-12T08:18:57.001Z</time></trkpt><trkpt lat="42.49297498856303" lon="11.991306817993525"><ele>334.0</ele><time>2026-04-12T08:18:58.001Z</time></trkpt><trkpt lat="42.49308126570017" lon="11.99129254444108"><ele>335.0</ele><time>2026-04-12T08:18:59.001Z</time></trkpt><trkpt lat="42.493184761008216" lon="11.991284671883616"><ele>336.0</ele><time>2026-04-12T08:19:00.001Z</time></trkpt><trkpt lat="42.49328821298716" lon="11.991304189131583"><ele>337.0</ele><time>2026-04-12T08:19:01.001Z</time></trkpt><trkpt lat="42.4933983497324" lon="11.991351885833073"><ele>338.0</ele><time>2026-04-12T08:19:02.001Z</time></trkpt><trkpt lat="42.49352947033819" lon="11.991421688916045"><ele>338.0</ele><time>2026-04-12T08:19:03.001Z</time></trkpt><trkpt lat="42.49368365683876" lon="11.99148930558618"><ele>338.0</ele><time>2026-04-12T08:19:04.001Z</time></trkpt><trkpt lat="42.493816303657205" lon="11.991540879564388"><ele>338.0</ele><time>2026-04-12T08:19:05.001Z</time></trkpt><trkpt lat="42.49393162828846" lon="11.99158512568963"><ele>338.0</ele><time>2026-04-12T08:19:06.001Z</time></trkpt><trkpt lat="42.494048152283824" lon="11.99163282080968"><ele>339.5</ele><time>2026-04-12T08:19:07.001Z</time></trkpt><trkpt lat="42.49416748895987" lon="11.99168708111806"><ele>341.0</ele><time>2026-04-12T08:19:08.001Z</time></trkpt><trkpt lat="42.49429289707261" lon="11.991754279206235"><ele>342.5</ele><time>2026-04-12T08:19:09.001Z</time></trkpt><trkpt lat="42.49442947620603" lon="11.991811377213406"><ele>344.0</ele><time>2026-04-12T08:19:10.001Z</time></trkpt><trkpt lat="42.49457598930207" lon="11.991876190850752"><ele>344.6666666666667</ele><time>2026-04-12T08:19:11.001Z</time></trkpt><trkpt lat="42.49472646625066" lon="11.991942683436218"><ele>345.3333333333333</ele><time>2026-04-12T08:19:12.001Z</time></trkpt><trkpt lat="42.49487019665375" lon="11.992016590913929"><ele>346.0</ele><time>2026-04-12T08:19:13.001Z</time></trkpt><trkpt lat="42.49501597865733" lon="11.992073353956753"><ele>346.0</ele><time>2026-04-12T08:19:14.001Z</time></trkpt><trkpt lat="42.49516075865264" lon="11.992137522850454"><ele>346.0</ele><time>2026-04-12T08:19:15.001Z</time></trkpt><trkpt lat="42.49530941398308" lon="11.99220207151959"><ele>346.0</ele><time>2026-04-12T08:19:16.001Z</time></trkpt><trkpt lat="42.49545944113593" lon="11.992267205219736"><ele>346.66666666666663</ele><time>2026-04-12T08:19:17.001Z</time></trkpt><trkpt lat="42.495616718799255" lon="11.992335628585677"><ele>347.3333333333333</ele><time>2026-04-12T08:19:18.001Z</time></trkpt><trkpt lat="42.49577689186187" lon="11.992404748756835"><ele>348.0</ele><time>2026-04-12T08:19:19.001Z</time></trkpt><trkpt lat="42.49592240927103" lon="11.992468076772548"><ele>348.6666666666667</ele><time>2026-04-12T08:19:20.001Z</time></trkpt><trkpt lat="42.49605501567075" lon="11.992550504031815"><ele>349.33333333333337</ele><time>2026-04-12T08:19:21.001Z</time></trkpt><trkpt lat="42.49620441159375" lon="11.992617218650297"><ele>350.0</ele><time>2026-04-12T08:19:22.001Z</time></trkpt><trkpt lat="42.4963641254273" lon="11.992666102374487"><ele>350.6666666666667</ele><time>2026-04-12T08:19:23.001Z</time></trkpt><trkpt lat="42.49652853286222" lon="11.992740178300698"><ele>351.3333333333333</ele><time>2026-04-12T08:19:24.001Z</time></trkpt><trkpt lat="42.496692723620676" lon="11.992812445018972"><ele>352.0</ele><time>2026-04-12T08:19:25.001Z</time></trkpt><trkpt lat="42.49685322990013" lon="11.99287970867435"><ele>352.0</ele><time>2026-04-12T08:19:26.001Z</time></trkpt><trkpt lat="42.49701375368853" lon="11.992969257400903"><ele>352.0</ele><time>2026-04-12T08:19:27.001Z</time></trkpt><trkpt lat="42.49717528763554" lon="11.993039051423754"><ele>352.0</ele><time>2026-04-12T08:19:28.001Z</time></trkpt><trkpt lat="42.497339739466454" lon="11.993107771425814"><ele>353.0</ele><time>2026-04-12T08:19:29.001Z</time></trkpt><trkpt lat="42.497504022151375" lon="11.99315182038128"><ele>354.0</ele><time>2026-04-12T08:19:30.001Z</time></trkpt><trkpt lat="42.49765901563422" lon="11.993233871404598"><ele>355.0</ele><time>2026-04-12T08:19:31Z</time></trkpt><trkpt lat="42.497805467875885" lon="11.99325670629792"><ele>356.0</ele><time>2026-04-12T08:19:32Z</time></trkpt><trkpt lat="42.497960670780635" lon="11.993300882501234"><ele>357.0</ele><time>2026-04-12T08:19:33Z</time></trkpt><trkpt lat="42.49812248122933" lon="11.993336020679731"><ele>358.0</ele><time>2026-04-12T08:19:34Z</time></trkpt><trkpt lat="42.498297928690555" lon="11.993369881116951"><ele>358.0</ele><time>2026-04-12T08:19:35Z</time></trkpt><trkpt lat="42.49846626920543" lon="11.993392940721881"><ele>358.0</ele><time>2026-04-12T08:19:36Z</time></trkpt><trkpt lat="42.49862537443778" lon="11.993411141888455"><ele>358.0</ele><time>2026-04-12T08:19:37Z</time></trkpt><trkpt lat="42.498775810788764" lon="11.993428404829832"><ele>358.66666666666663</ele><time>2026-04-12T08:19:38Z</time></trkpt><trkpt lat="42.498928001007975" lon="11.99343746269214"><ele>359.3333333333333</ele><time>2026-04-12T08:19:39Z</time></trkpt><trkpt lat="42.49908770159682" lon="11.993445641978191"><ele>360.0</ele><time>2026-04-12T08:19:40Z</time></trkpt><trkpt lat="42.499247677644426" lon="11.993438735667826"><ele>360.0</ele><time>2026-04-12T08:19:41Z</time></trkpt><trkpt lat="42.49940011354075" lon="11.993413654674548"><ele>360.0</ele><time>2026-04-12T08:19:42Z</time></trkpt><trkpt lat="42.499553094122426" lon="11.993383257226354"><ele>360.0</ele><time>2026-04-12T08:19:43Z</time></trkpt><trkpt lat="42.49971725425078" lon="11.993384656852426"><ele>360.75</ele><time>2026-04-12T08:19:44Z</time></trkpt><trkpt lat="42.49987830786896" lon="11.993374404671554"><ele>361.5</ele><time>2026-04-12T08:19:45Z</time></trkpt><trkpt lat="42.50002270547443" lon="11.993369612593664"><ele>362.25</ele><time>2026-04-12T08:19:46Z</time></trkpt><trkpt lat="42.50016204896265" lon="11.993375467333708"><ele>363.0</ele><time>2026-04-12T08:19:47Z</time></trkpt><trkpt lat="42.500317756523714" lon="11.993394380803675"><ele>364.0</ele><time>2026-04-12T08:19:48Z</time></trkpt><trkpt lat="42.500473675776036" lon="11.993416797199272"><ele>365.0</ele><time>2026-04-12T08:19:49Z</time></trkpt><trkpt lat="42.50063605071251" lon="11.99344014174159"><ele>366.0</ele><time>2026-04-12T08:19:50Z</time></trkpt><trkpt lat="42.500786846650755" lon="11.993463925668793"><ele>366.0</ele><time>2026-04-12T08:19:51Z</time></trkpt><trkpt lat="42.500930423281446" lon="11.993491019701166"><ele>366.0</ele><time>2026-04-12T08:19:52Z</time></trkpt><trkpt lat="42.50107229318477" lon="11.993526463139592"><ele>366.0</ele><time>2026-04-12T08:19:53Z</time></trkpt><trkpt lat="42.50122694606619" lon="11.993555420610925"><ele>366.0</ele><time>2026-04-12T08:19:54Z</time></trkpt><trkpt lat="42.501389442067534" lon="11.993596538645262"><ele>366.6666666666667</ele><time>2026-04-12T08:19:55Z</time></trkpt><trkpt lat="42.50154847458904" lon="11.99365046940506"><ele>367.33333333333337</ele><time>2026-04-12T08:19:56Z</time></trkpt><trkpt lat="42.501714872224525" lon="11.993702330191368"><ele>368.0</ele><time>2026-04-12T08:19:57Z</time></trkpt><trkpt lat="42.50186346900004" lon="11.993745583373887"><ele>368.0</ele><time>2026-04-12T08:19:58Z</time></trkpt><trkpt lat="42.502008627454536" lon="11.993796654543948"><ele>368.0</ele><time>2026-04-12T08:19:59Z</time></trkpt><trkpt lat="42.502149079625276" lon="11.993829063597968"><ele>368.0</ele><time>2026-04-12T08:20:00Z</time></trkpt><trkpt lat="42.50228805996984" lon="11.993857081084304"><ele>368.0</ele><time>2026-04-12T08:20:01Z</time></trkpt><trkpt lat="42.50243652613746" lon="11.993884436988935"><ele>369.33333333333337</ele><time>2026-04-12T08:20:02Z</time></trkpt><trkpt lat="42.50259163310819" lon="11.993905288900288"><ele>370.6666666666667</ele><time>2026-04-12T08:20:03Z</time></trkpt><trkpt lat="42.502755165012296" lon="11.993916089373188"><ele>372.0</ele><time>2026-04-12T08:20:04Z</time></trkpt><trkpt lat="42.50290851019879" lon="11.993926479080598"><ele>373.25</ele><time>2026-04-12T08:20:05Z</time></trkpt><trkpt lat="42.50304804525996" lon="11.993976124291748"><ele>374.5</ele><time>2026-04-12T08:20:06Z</time></trkpt><trkpt lat="42.50317513783342" lon="11.994014134028085"><ele>375.75</ele><time>2026-04-12T08:20:07Z</time></trkpt><trkpt lat="42.50330396704624" lon="11.994056327266916"><ele>377.0</ele><time>2026-04-12T08:20:08Z</time></trkpt><trkpt lat="42.503447911752914" lon="11.994084289602219"><ele>377.0</ele><time>2026-04-12T08:20:09Z</time></trkpt><trkpt lat="42.50359862739568" lon="11.99413461406302"><ele>377.0</ele><time>2026-04-12T08:20:10Z</time></trkpt><trkpt lat="42.503756956801496" lon="11.994179893807273"><ele>377.0</ele><time>2026-04-12T08:20:11Z</time></trkpt><trkpt lat="42.503907391476154" lon="11.99424105394493"><ele>377.25</ele><time>2026-04-12T08:20:12Z</time></trkpt><trkpt lat="42.50404276328467" lon="11.994272471694005"><ele>377.5</ele><time>2026-04-12T08:20:13Z</time></trkpt><trkpt lat="42.50418007890692" lon="11.994303338028267"><ele>377.75</ele><time>2026-04-12T08:20:14Z</time></trkpt><trkpt lat="42.50433283251367" lon="11.99433767463716"><ele>378.0</ele><time>2026-04-12T08:20:15Z</time></trkpt><trkpt lat="42.50449644331958" lon="11.994364042121115"><ele>378.75</ele><time>2026-04-12T08:20:16Z</time></trkpt><trkpt lat="42.50464550695519" lon="11.994440269170488"><ele>379.5</ele><time>2026-04-12T08:20:17Z</time></trkpt><trkpt lat="42.50478220628645" lon="11.994499466062187"><ele>380.25</ele><time>2026-04-12T08:20:18Z</time></trkpt><trkpt lat="42.50491896409208" lon="11.994561590435142"><ele>381.0</ele><time>2026-04-12T08:20:19Z</time></trkpt><trkpt lat="42.505066581980934" lon="11.994626743739238"><ele>381.0</ele><time>2026-04-12T08:20:20Z</time></trkpt><trkpt lat="42.505211356736744" lon="11.994665202070331"><ele>381.0</ele><time>2026-04-12T08:20:21Z</time></trkpt><trkpt lat="42.505344174021275" lon="11.99471449835138"><ele>381.0</ele><time>2026-04-12T08:20:22Z</time></trkpt><trkpt lat="42.50547898623158" lon="11.994763006548311"><ele>381.0</ele><time>2026-04-12T08:20:23Z</time></trkpt><trkpt lat="42.5056210707589" lon="11.994815346831937"><ele>382.0</ele><time>2026-04-12T08:20:24Z</time></trkpt><trkpt lat="42.50577002909914" lon="11.994864219764294"><ele>383.0</ele><time>2026-04-12T08:20:25Z</time></trkpt><trkpt lat="42.505917608488474" lon="11.994904382626501"><ele>384.0</ele><time>2026-04-12T08:20:26Z</time></trkpt><trkpt lat="42.50606556891769" lon="11.994935947772227"><ele>384.0</ele><time>2026-04-12T08:20:27Z</time></trkpt><trkpt lat="42.50619791921052" lon="11.994961777503773"><ele>384.0</ele><time>2026-04-12T08:20:28Z</time></trkpt><trkpt lat="42.50632841391626" lon="11.995004112463445"><ele>384.0</ele><time>2026-04-12T08:20:29Z</time></trkpt><trkpt lat="42.50647208339441" lon="11.995021612992552"><ele>384.0</ele><time>2026-04-12T08:20:30Z</time></trkpt><trkpt lat="42.50662131622446" lon="11.99501832953153"><ele>383.75</ele><time>2026-04-12T08:20:31Z</time></trkpt><trkpt lat="42.506768194249844" lon="11.995036095846"><ele>383.5</ele><time>2026-04-12T08:20:32Z</time></trkpt><trkpt lat="42.50691248972309" lon="11.995055274119263"><ele>383.25</ele><time>2026-04-12T08:20:33Z</time></trkpt><trkpt lat="42.50705896438919" lon="11.995097620642293"><ele>383.0</ele><time>2026-04-12T08:20:34Z</time></trkpt><trkpt lat="42.507208745462385" lon="11.995125059370856"><ele>384.5</ele><time>2026-04-12T08:20:35Z</time></trkpt><trkpt lat="42.507352917057105" lon="11.995139510659687"><ele>386.0</ele><time>2026-04-12T08:20:36.001Z</time></trkpt><trkpt lat="42.507490082698865" lon="11.995129778284518"><ele>387.5</ele><time>2026-04-12T08:20:37.001Z</time></trkpt><trkpt lat="42.5076240736266" lon="11.995166273717661"><ele>389.0</ele><time>2026-04-12T08:20:38.001Z</time></trkpt><trkpt lat="42.50776320034257" lon="11.995182831867414"><ele>389.0</ele><time>2026-04-12T08:20:39.001Z</time></trkpt><trkpt lat="42.50790815361829" lon="11.995178960880272"><ele>389.0</ele><time>2026-04-12T08:20:40.001Z</time></trkpt><trkpt lat="42.50804850679069" lon="11.995198680390748"><ele>389.0</ele><time>2026-04-12T08:20:41.001Z</time></trkpt><trkpt lat="42.50818747518729" lon="11.995215121814148"><ele>389.0</ele><time>2026-04-12T08:20:42.001Z</time></trkpt><trkpt lat="42.508315135697416" lon="11.99522889219765"><ele>390.25</ele><time>2026-04-12T08:20:43.001Z</time></trkpt><trkpt lat="42.508444211116604" lon="11.995247278605593"><ele>391.5</ele><time>2026-04-12T08:20:44.001Z</time></trkpt><trkpt lat="42.508583569409396" lon="11.995263748620983"><ele>392.75</ele><time>2026-04-12T08:20:45.001Z</time></trkpt><trkpt lat="42.50872654047624" lon="11.995266857980603"><ele>394.0</ele><time>2026-04-12T08:20:46.001Z</time></trkpt><trkpt lat="42.50885978956225" lon="11.995281437865783"><ele>394.79999999999995</ele><time>2026-04-12T08:20:47.001Z</time></trkpt><trkpt lat="42.50896746509779" lon="11.995308098666559"><ele>395.59999999999997</ele><time>2026-04-12T08:20:48.001Z</time></trkpt><trkpt lat="42.50905545687599" lon="11.995375899838615"><ele>396.4</ele><time>2026-04-12T08:20:49.001Z</time></trkpt><trkpt lat="42.509147292547965" lon="11.995406053417097"><ele>397.2</ele><time>2026-04-12T08:20:50.001Z</time></trkpt><trkpt lat="42.509228187459236" lon="11.995461937636414"><ele>398.0</ele><time>2026-04-12T08:20:51.001Z</time></trkpt><trkpt lat="42.509299101938765" lon="11.995505642474361"><ele>397.99999999999994</ele><time>2026-04-12T08:20:52.001Z</time></trkpt><trkpt lat="42.50936252976864" lon="11.995537385082683"><ele>398.0</ele><time>2026-04-12T08:20:53.001Z</time></trkpt><trkpt lat="42.509424607405066" lon="11.995566304135517"><ele>398.0</ele><time>2026-04-12T08:20:54.001Z</time></trkpt><trkpt lat="42.509561701545685" lon="11.99558829945212"><ele>398.0</ele><time>2026-04-12T08:20:56.001Z</time></trkpt><trkpt lat="42.50963701381607" lon="11.995593380061976"><ele>397.99999999999994</ele><time>2026-04-12T08:20:57.001Z</time></trkpt><trkpt lat="42.50972220423219" lon="11.995588784554737"><ele>398.0</ele><time>2026-04-12T08:20:58.001Z</time></trkpt><trkpt lat="42.50981705995104" lon="11.99560971224913"><ele>399.0</ele><time>2026-04-12T08:20:59.001Z</time></trkpt><trkpt lat="42.50992887361312" lon="11.995589786740828"><ele>400.0</ele><time>2026-04-12T08:21:00.001Z</time></trkpt><trkpt lat="42.510046144859146" lon="11.995600760924933"><ele>401.0</ele><time>2026-04-12T08:21:01.001Z</time></trkpt><trkpt lat="42.51017069626657" lon="11.995613326075418"><ele>402.0</ele><time>2026-04-12T08:21:02.001Z</time></trkpt><trkpt lat="42.51030083056154" lon="11.99564539267749"><ele>403.25</ele><time>2026-04-12T08:21:03.001Z</time></trkpt><trkpt lat="42.5104266085336" lon="11.995708284193185"><ele>404.5</ele><time>2026-04-12T08:21:04.001Z</time></trkpt><trkpt lat="42.51054378614948" lon="11.99578455560497"><ele>405.75</ele><time>2026-04-12T08:21:05.001Z</time></trkpt><trkpt lat="42.51065939959202" lon="11.995867327305545"><ele>407.0</ele><time>2026-04-12T08:21:06.001Z</time></trkpt><trkpt lat="42.5107614789395" lon="11.995939051695757"><ele>407.0</ele><time>2026-04-12T08:21:07.001Z</time></trkpt><trkpt lat="42.51085997405987" lon="11.996003373252346"><ele>407.0</ele><time>2026-04-12T08:21:08.001Z</time></trkpt><trkpt lat="42.510953306431524" lon="11.996063226463361"><ele>407.0</ele><time>2026-04-12T08:21:09.001Z</time></trkpt><trkpt lat="42.51104334874144" lon="11.996120599234967"><ele>407.0</ele><time>2026-04-12T08:21:10.001Z</time></trkpt><trkpt lat="42.51111282971608" lon="11.99616732930218"><ele>407.0</ele><time>2026-04-12T08:21:11.001Z</time></trkpt><trkpt lat="42.51117510526843" lon="11.996210808178258"><ele>408.3333333333333</ele><time>2026-04-12T08:21:12.001Z</time></trkpt><trkpt lat="42.51127846205658" lon="11.996282573053795"><ele>409.66666666666663</ele><time>2026-04-12T08:21:14.001Z</time></trkpt><trkpt lat="42.51135446681153" lon="11.996331174112425"><ele>411.0</ele><time>2026-04-12T08:21:16.001Z</time></trkpt><trkpt lat="42.511420476351425" lon="11.996373487813003"><ele>412.33333333333337</ele><time>2026-04-12T08:21:19.001Z</time></trkpt><trkpt lat="42.511484976329164" lon="11.996430958484856"><ele>413.6666666666667</ele><time>2026-04-12T08:21:51Z</time></trkpt><trkpt lat="42.51154823152723" lon="11.996475496922228"><ele>415.0</ele><time>2026-04-12T08:21:56Z</time></trkpt><trkpt lat="42.51160390962182" lon="11.996532152882985"><ele>415.0</ele><time>2026-04-12T08:22:06Z</time></trkpt><trkpt lat="42.51171567566458" lon="11.996303742681"><ele>415.0</ele><time>2026-04-12T08:22:08Z</time></trkpt><trkpt lat="42.51182123091306" lon="11.995997345086183"><ele>415.0</ele><time>2026-04-12T08:22:10Z</time></trkpt><trkpt lat="42.51189927197143" lon="11.995838811991977"><ele>415.0</ele><time>2026-04-12T08:22:11Z</time></trkpt><trkpt lat="42.51198618829749" lon="11.995626846055883"><ele>415.0</ele><time>2026-04-12T08:22:12Z</time></trkpt><trkpt lat="42.5120694437345" lon="11.995405393679"><ele>415.6666666666667</ele><time>2026-04-12T08:22:13Z</time></trkpt><trkpt lat="42.51216286005374" lon="11.995169699815916"><ele>416.33333333333337</ele><time>2026-04-12T08:22:14Z</time></trkpt><trkpt lat="42.51226257114634" lon="11.994927684317096"><ele>417.0</ele><time>2026-04-12T08:22:15Z</time></trkpt><trkpt lat="42.51235883871413" lon="11.994693443772452"><ele>417.0</ele><time>2026-04-12T08:22:16Z</time></trkpt><trkpt lat="42.51245489273503" lon="11.994454772270478"><ele>417.0</ele><time>2026-04-12T08:22:17Z</time></trkpt><trkpt lat="42.51254755598886" lon="11.99422133356434"><ele>417.0</ele><time>2026-04-12T08:22:18Z</time></trkpt><trkpt lat="42.5126433269999" lon="11.993972490617052"><ele>417.0</ele><time>2026-04-12T08:22:19Z</time></trkpt><trkpt lat="42.51274224191729" lon="11.993721914194737"><ele>417.0</ele><time>2026-04-12T08:22:20Z</time></trkpt><trkpt lat="42.51284773461117" lon="11.99346916917246"><ele>417.0</ele><time>2026-04-12T08:22:21Z</time></trkpt><trkpt lat="42.51295805902966" lon="11.993210063442438"><ele>417.0</ele><time>2026-04-12T08:22:22Z</time></trkpt><trkpt lat="42.51306669115029" lon="11.992938791524969"><ele>417.0</ele><time>2026-04-12T08:22:23Z</time></trkpt><trkpt lat="42.51317795949413" lon="11.992665993073766"><ele>416.5</ele><time>2026-04-12T08:22:24Z</time></trkpt><trkpt lat="42.513290844583736" lon="11.992389319952855"><ele>416.0</ele><time>2026-04-12T08:22:25Z</time></trkpt><trkpt lat="42.513399530642936" lon="11.992111941971524"><ele>416.0</ele><time>2026-04-12T08:22:26Z</time></trkpt><trkpt lat="42.51351573983758" lon="11.991835863647596"><ele>416.0</ele><time>2026-04-12T08:22:27Z</time></trkpt><trkpt lat="42.513624250593" lon="11.991557034263638"><ele>415.0</ele><time>2026-04-12T08:22:28Z</time></trkpt><trkpt lat="42.5137323834131" lon="11.991281374411951"><ele>414.0</ele><time>2026-04-12T08:22:29Z</time></trkpt><trkpt lat="42.51384462472314" lon="11.991005917611636"><ele>416.5</ele><time>2026-04-12T08:22:30Z</time></trkpt><trkpt lat="42.51395733529494" lon="11.990737745853767"><ele>419.0</ele><time>2026-04-12T08:22:31Z</time></trkpt><trkpt lat="42.51407768127119" lon="11.99047339337766"><ele>419.0</ele><time>2026-04-12T08:22:32Z</time></trkpt><trkpt lat="42.514210989763036" lon="11.990213025972189"><ele>419.0</ele><time>2026-04-12T08:22:33Z</time></trkpt><trkpt lat="42.51435635175595" lon="11.989961100340903"><ele>419.5</ele><time>2026-04-12T08:22:34.001Z</time></trkpt><trkpt lat="42.51451168020266" lon="11.989712515170945"><ele>420.0</ele><time>2026-04-12T08:22:35.001Z</time></trkpt><trkpt lat="42.51468258220586" lon="11.989474984670235"><ele>420.0</ele><time>2026-04-12T08:22:36.001Z</time></trkpt><trkpt lat="42.5148525974816" lon="11.989236818922901"><ele>420.0</ele><time>2026-04-12T08:22:37.001Z</time></trkpt><trkpt lat="42.51501972435326" lon="11.988990543279531"><ele>420.0</ele><time>2026-04-12T08:22:38.001Z</time></trkpt><trkpt lat="42.51518506799895" lon="11.988744698115292"><ele>420.0</ele><time>2026-04-12T08:22:39.001Z</time></trkpt><trkpt lat="42.515349324049225" lon="11.988500729971799"><ele>421.5</ele><time>2026-04-12T08:22:40.001Z</time></trkpt><trkpt lat="42.515512375132595" lon="11.988258518603043"><ele>423.0</ele><time>2026-04-12T08:22:41.001Z</time></trkpt><trkpt lat="42.51567536973094" lon="11.988020020086239"><ele>423.0</ele><time>2026-04-12T08:22:42.001Z</time></trkpt><trkpt lat="42.515838567035345" lon="11.987779997189035"><ele>423.0</ele><time>2026-04-12T08:22:43.001Z</time></trkpt><trkpt lat="42.51599982489244" lon="11.987546134451897"><ele>422.5</ele><time>2026-04-12T08:22:44.001Z</time></trkpt><trkpt lat="42.51616429961426" lon="11.987311893445627"><ele>422.0</ele><time>2026-04-12T08:22:45.001Z</time></trkpt><trkpt lat="42.51632860275293" lon="11.987076170165947"><ele>423.5</ele><time>2026-04-12T08:22:46.001Z</time></trkpt><trkpt lat="42.51649648480796" lon="11.986835487031433"><ele>425.0</ele><time>2026-04-12T08:22:47.001Z</time></trkpt><trkpt lat="42.516665218518796" lon="11.986595421323193"><ele>425.0</ele><time>2026-04-12T08:22:48.001Z</time></trkpt><trkpt lat="42.51683466760956" lon="11.986348020340541"><ele>425.0</ele><time>2026-04-12T08:22:49.001Z</time></trkpt><trkpt lat="42.51700480449681" lon="11.986100841016581"><ele>424.0</ele><time>2026-04-12T08:22:50.001Z</time></trkpt><trkpt lat="42.51717008598021" lon="11.98586061980857"><ele>423.0</ele><time>2026-04-12T08:22:51.001Z</time></trkpt><trkpt lat="42.51733118338796" lon="11.98562973146943"><ele>423.0</ele><time>2026-04-12T08:22:52.001Z</time></trkpt><trkpt lat="42.51748103212105" lon="11.985386472620474"><ele>423.0</ele><time>2026-04-12T08:22:53.001Z</time></trkpt><trkpt lat="42.517626427708635" lon="11.985132179933773"><ele>415.5</ele><time>2026-04-12T08:22:54.001Z</time></trkpt><trkpt lat="42.517762974998156" lon="11.984854507610864"><ele>408.0</ele><time>2026-04-12T08:22:55.001Z</time></trkpt><trkpt lat="42.517884654449915" lon="11.984567915430747"><ele>406.5</ele><time>2026-04-12T08:22:56.001Z</time></trkpt><trkpt lat="42.518000468706255" lon="11.984265722660757"><ele>405.0</ele><time>2026-04-12T08:22:57.001Z</time></trkpt><trkpt lat="42.51810943439694" lon="11.983961730798915"><ele>405.0</ele><time>2026-04-12T08:22:58.001Z</time></trkpt><trkpt lat="42.518213210516926" lon="11.98365132198492"><ele>405.0</ele><time>2026-04-12T08:22:59.001Z</time></trkpt><trkpt lat="42.51832136264975" lon="11.98334866310139"><ele>409.0</ele><time>2026-04-12T08:23:00.001Z</time></trkpt><trkpt lat="42.51843506542093" lon="11.983047804941167"><ele>413.0</ele><time>2026-04-12T08:23:01.001Z</time></trkpt><trkpt lat="42.51854329713125" lon="11.982749297912374"><ele>418.0</ele><time>2026-04-12T08:23:02.001Z</time></trkpt><trkpt lat="42.51864260310057" lon="11.982458795903653"><ele>423.0</ele><time>2026-04-12T08:23:03.001Z</time></trkpt><trkpt lat="42.51872257707341" lon="11.982162620154746"><ele>423.0</ele><time>2026-04-12T08:23:04.001Z</time></trkpt><trkpt lat="42.518784591563524" lon="11.981871197521418"><ele>423.0</ele><time>2026-04-12T08:23:05.001Z</time></trkpt><trkpt lat="42.518827723392484" lon="11.981559918082858"><ele>426.5</ele><time>2026-04-12T08:23:06.001Z</time></trkpt><trkpt lat="42.51885183419055" lon="11.981235122993965"><ele>430.0</ele><time>2026-04-12T08:23:07.001Z</time></trkpt><trkpt lat="42.51885662831585" lon="11.980901554694848"><ele>429.0</ele><time>2026-04-12T08:23:08.001Z</time></trkpt><trkpt lat="42.518889062822346" lon="11.980559839378023"><ele>428.0</ele><time>2026-04-12T08:23:09.001Z</time></trkpt><trkpt lat="42.5188950807699" lon="11.980222601597642"><ele>423.0</ele><time>2026-04-12T08:23:10.001Z</time></trkpt><trkpt lat="42.5189200316363" lon="11.979903472974842"><ele>418.0</ele><time>2026-04-12T08:23:11.001Z</time></trkpt><trkpt lat="42.51894233018608" lon="11.979594766250997"><ele>418.0</ele><time>2026-04-12T08:23:12.001Z</time></trkpt><trkpt lat="42.51897856751813" lon="11.979276325538507"><ele>418.0</ele><time>2026-04-12T08:23:13.001Z</time></trkpt><trkpt lat="42.51903692407632" lon="11.978963789739325"><ele>412.5</ele><time>2026-04-12T08:23:14.001Z</time></trkpt><trkpt lat="42.519111426647875" lon="11.97865330454631"><ele>407.0</ele><time>2026-04-12T08:23:15.001Z</time></trkpt><trkpt lat="42.51920748172247" lon="11.97835358393751"><ele>402.5</ele><time>2026-04-12T08:23:16.001Z</time></trkpt><trkpt lat="42.5193154336463" lon="11.978056938195325"><ele>398.0</ele><time>2026-04-12T08:23:17.001Z</time></trkpt><trkpt lat="42.51942410581885" lon="11.977782495111656"><ele>397.5</ele><time>2026-04-12T08:23:18.001Z</time></trkpt><trkpt lat="42.51953091888185" lon="11.977515269573376"><ele>397.0</ele><time>2026-04-12T08:23:19.001Z</time></trkpt><trkpt lat="42.51963486748096" lon="11.977241893657636"><ele>397.0</ele><time>2026-04-12T08:23:20.001Z</time></trkpt><trkpt lat="42.5197362240386" lon="11.97696434678085"><ele>397.0</ele><time>2026-04-12T08:23:21.001Z</time></trkpt><trkpt lat="42.51983761733224" lon="11.976688112406833"><ele>395.6666666666667</ele><time>2026-04-12T08:23:22.001Z</time></trkpt><trkpt lat="42.51994141811302" lon="11.976423829872422"><ele>394.33333333333337</ele><time>2026-04-12T08:23:23.001Z</time></trkpt><trkpt lat="42.52004216053058" lon="11.976159560887599"><ele>393.0</ele><time>2026-04-12T08:23:24.001Z</time></trkpt><trkpt lat="42.520143151124614" lon="11.975900975310816"><ele>393.66666666666663</ele><time>2026-04-12T08:23:25.001Z</time></trkpt><trkpt lat="42.52023692355365" lon="11.97565907197069"><ele>394.3333333333333</ele><time>2026-04-12T08:23:26.001Z</time></trkpt><trkpt lat="42.52032486872541" lon="11.975426837064248"><ele>395.0</ele><time>2026-04-12T08:23:27.001Z</time></trkpt><trkpt lat="42.520406611857965" lon="11.975206260206626"><ele>397.0</ele><time>2026-04-12T08:23:28.001Z</time></trkpt><trkpt lat="42.520486366917524" lon="11.974997212135632"><ele>399.0</ele><time>2026-04-12T08:23:29.001Z</time></trkpt><trkpt lat="42.52055746683446" lon="11.97480375562667"><ele>401.0</ele><time>2026-04-12T08:23:30.001Z</time></trkpt><trkpt lat="42.52061476087048" lon="11.974646237015385"><ele>400.99999999999994</ele><time>2026-04-12T08:23:31.001Z</time></trkpt><trkpt lat="42.52066578304253" lon="11.974530280282673"><ele>401.0</ele><time>2026-04-12T08:23:32.001Z</time></trkpt><trkpt lat="42.520698854533414" lon="11.97443731238243"><ele>401.0</ele><time>2026-04-12T08:23:33.001Z</time></trkpt><trkpt lat="42.52074521724506" lon="11.974319837409679"><ele>401.0</ele><time>2026-04-12T08:23:35.001Z</time></trkpt><trkpt lat="42.52076800017644" lon="11.974223167932607"><ele>400.99999999999994</ele><time>2026-04-12T08:23:37.001Z</time></trkpt><trkpt lat="42.52073643169948" lon="11.974139403950172"><ele>401.0</ele><time>2026-04-12T08:23:39.001Z</time></trkpt><trkpt lat="42.52070565469204" lon="11.974037446443129"><ele>400.16666666666663</ele><time>2026-04-12T08:23:42.001Z</time></trkpt><trkpt lat="42.520751856665" lon="11.973922014358587"><ele>399.3333333333333</ele><time>2026-04-12T08:23:46Z</time></trkpt><trkpt lat="42.52082433392407" lon="11.973888084456481"><ele>398.5</ele><time>2026-04-12T08:23:48Z</time></trkpt><trkpt lat="42.52086797367795" lon="11.973788886798218"><ele>397.66666666666663</ele><time>2026-04-12T08:38:22.001Z</time></trkpt><trkpt lat="42.52094518189504" lon="11.973685717134007"><ele>396.8333333333333</ele><time>2026-04-12T08:38:26Z</time></trkpt><trkpt lat="42.52100308663211" lon="11.973607266325706"><ele>396.0</ele><time>2026-04-12T08:38:27Z</time></trkpt><trkpt lat="42.52107607751027" lon="11.973489215194258"><ele>396.0</ele><time>2026-04-12T08:38:28Z</time></trkpt><trkpt lat="42.52113953121252" lon="11.973363406013966"><ele>396.0</ele><time>2026-04-12T08:38:29Z</time></trkpt><trkpt lat="42.521198539242434" lon="11.973226565274539"><ele>396.0</ele><time>2026-04-12T08:38:30Z</time></trkpt><trkpt lat="42.52126173799089" lon="11.973071684341367"><ele>396.0</ele><time>2026-04-12T08:38:31Z</time></trkpt><trkpt lat="42.5213378323794" lon="11.97290081262578"><ele>396.25</ele><time>2026-04-12T08:38:32Z</time></trkpt><trkpt lat="42.52141423951698" lon="11.972728851333793"><ele>396.5</ele><time>2026-04-12T08:38:33Z</time></trkpt><trkpt lat="42.52148711652166" lon="11.97255155953511"><ele>396.75</ele><time>2026-04-12T08:38:34Z</time></trkpt><trkpt lat="42.52156058530115" lon="11.972373384125957"><ele>397.0</ele><time>2026-04-12T08:38:35Z</time></trkpt><trkpt lat="42.52163602344889" lon="11.972201157681823"><ele>395.33333333333337</ele><time>2026-04-12T08:38:36Z</time></trkpt><trkpt lat="42.521714945482856" lon="11.97201835145627"><ele>393.66666666666663</ele><time>2026-04-12T08:38:37Z</time></trkpt><trkpt lat="42.521794628271685" lon="11.97182792542057"><ele>392.0</ele><time>2026-04-12T08:38:38Z</time></trkpt><trkpt lat="42.52187599386165" lon="11.971642511123685"><ele>391.0</ele><time>2026-04-12T08:38:39Z</time></trkpt><trkpt lat="42.52194951810897" lon="11.971458723409498"><ele>390.0</ele><time>2026-04-12T08:38:40Z</time></trkpt><trkpt lat="42.522028998713004" lon="11.971272297099668"><ele>389.0</ele><time>2026-04-12T08:38:41Z</time></trkpt><trkpt lat="42.52211226191893" lon="11.971079599227428"><ele>391.3333333333333</ele><time>2026-04-12T08:38:42Z</time></trkpt><trkpt lat="42.52219728031979" lon="11.970887597592087"><ele>393.66666666666663</ele><time>2026-04-12T08:38:43Z</time></trkpt><trkpt lat="42.5222776181124" lon="11.970696765277683"><ele>396.0</ele><time>2026-04-12T08:38:44Z</time></trkpt><trkpt lat="42.52235772146297" lon="11.970502804506726"><ele>396.0</ele><time>2026-04-12T08:38:45Z</time></trkpt><trkpt lat="42.522446084115764" lon="11.970305920625956"><ele>396.0</ele><time>2026-04-12T08:38:46Z</time></trkpt><trkpt lat="42.52253854149508" lon="11.970105232468889"><ele>396.0</ele><time>2026-04-12T08:38:47Z</time></trkpt><trkpt lat="42.52262485952047" lon="11.96989717298732"><ele>395.0</ele><time>2026-04-12T08:38:48Z</time></trkpt><trkpt lat="42.5227123613328" lon="11.96968115771801"><ele>394.0</ele><time>2026-04-12T08:38:49Z</time></trkpt><trkpt lat="42.5228028822193" lon="11.969457603625141"><ele>393.0</ele><time>2026-04-12T08:38:50Z</time></trkpt><trkpt lat="42.522899971558125" lon="11.969236724860357"><ele>393.33333333333337</ele><time>2026-04-12T08:38:51Z</time></trkpt><trkpt lat="42.52299732817341" lon="11.969009456339885"><ele>393.6666666666667</ele><time>2026-04-12T08:38:52Z</time></trkpt><trkpt lat="42.523097039243645" lon="11.968780776678665"><ele>394.0</ele><time>2026-04-12T08:38:53Z</time></trkpt><trkpt lat="42.523203431553" lon="11.968533784805288"><ele>391.0</ele><time>2026-04-12T08:38:54Z</time></trkpt><trkpt lat="42.52331481713268" lon="11.968309717799414"><ele>388.0</ele><time>2026-04-12T08:38:55Z</time></trkpt><trkpt lat="42.52340946595751" lon="11.968087443615591"><ele>385.0</ele><time>2026-04-12T08:38:56Z</time></trkpt><trkpt lat="42.52348552663157" lon="11.967900002572419"><ele>385.0</ele><time>2026-04-12T08:38:57Z</time></trkpt><trkpt lat="42.523580260590606" lon="11.967691260855752"><ele>385.0</ele><time>2026-04-12T08:38:58Z</time></trkpt><trkpt lat="42.52367434857452" lon="11.96748482404112"><ele>385.0</ele><time>2026-04-12T08:38:59Z</time></trkpt><trkpt lat="42.523758299108465" lon="11.967288227034654"><ele>384.6666666666667</ele><time>2026-04-12T08:39:00Z</time></trkpt><trkpt lat="42.52384564002428" lon="11.967095937919026"><ele>384.33333333333337</ele><time>2026-04-12T08:39:01Z</time></trkpt><trkpt lat="42.52393512840598" lon="11.966900297969577"><ele>384.0</ele><time>2026-04-12T08:39:02Z</time></trkpt><trkpt lat="42.52402465304573" lon="11.96669441522208"><ele>382.6666666666667</ele><time>2026-04-12T08:39:03Z</time></trkpt><trkpt lat="42.52410428417926" lon="11.966470785173453"><ele>381.33333333333337</ele><time>2026-04-12T08:39:04Z</time></trkpt><trkpt lat="42.524167901050724" lon="11.966228401210907"><ele>380.0</ele><time>2026-04-12T08:39:05Z</time></trkpt><trkpt lat="42.524218223604386" lon="11.965978126024835"><ele>379.0</ele><time>2026-04-12T08:39:06Z</time></trkpt><trkpt lat="42.52427801014944" lon="11.965727713050233"><ele>378.0</ele><time>2026-04-12T08:39:07Z</time></trkpt><trkpt lat="42.524336018548325" lon="11.965502562305154"><ele>377.0</ele><time>2026-04-12T08:39:08Z</time></trkpt><trkpt lat="42.52439187044257" lon="11.965283329470132"><ele>377.0</ele><time>2026-04-12T08:39:09Z</time></trkpt><trkpt lat="42.524445548760525" lon="11.965070175934317"><ele>377.0</ele><time>2026-04-12T08:39:10Z</time></trkpt><trkpt lat="42.52449967734043" lon="11.964849926550132"><ele>377.0</ele><time>2026-04-12T08:39:11Z</time></trkpt><trkpt lat="42.52454589502859" lon="11.964616627221325"><ele>376.6666666666667</ele><time>2026-04-12T08:39:12Z</time></trkpt><trkpt lat="42.52457981803617" lon="11.96437305707923"><ele>376.3333333333333</ele><time>2026-04-12T08:39:13Z</time></trkpt><trkpt lat="42.524601813039816" lon="11.964117563183494"><ele>376.0</ele><time>2026-04-12T08:39:14Z</time></trkpt><trkpt lat="42.52460195054885" lon="11.963861078676006"><ele>375.0</ele><time>2026-04-12T08:39:15Z</time></trkpt><trkpt lat="42.52458631825529" lon="11.963613134914375"><ele>374.0</ele><time>2026-04-12T08:39:16Z</time></trkpt><trkpt lat="42.5245573969543" lon="11.963382170339209"><ele>373.0</ele><time>2026-04-12T08:39:17Z</time></trkpt><trkpt lat="42.52452091497526" lon="11.9631515300715"><ele>373.0</ele><time>2026-04-12T08:39:18Z</time></trkpt><trkpt lat="42.524485986746065" lon="11.962915911036951"><ele>373.0</ele><time>2026-04-12T08:39:19Z</time></trkpt><trkpt lat="42.5244521200554" lon="11.96267863110626"><ele>373.0</ele><time>2026-04-12T08:39:20Z</time></trkpt><trkpt lat="42.52442238811058" lon="11.962452617225717"><ele>373.3333333333333</ele><time>2026-04-12T08:39:21Z</time></trkpt><trkpt lat="42.52438934430719" lon="11.96223598952744"><ele>373.6666666666667</ele><time>2026-04-12T08:39:22Z</time></trkpt><trkpt lat="42.52435611251754" lon="11.96202328464388"><ele>374.0</ele><time>2026-04-12T08:39:23Z</time></trkpt><trkpt lat="42.524322917125566" lon="11.961808647743531"><ele>375.0</ele><time>2026-04-12T08:39:24Z</time></trkpt><trkpt lat="42.52428843078115" lon="11.961592306029408"><ele>376.0</ele><time>2026-04-12T08:39:25Z</time></trkpt><trkpt lat="42.52425489310043" lon="11.961373779149962"><ele>377.0</ele><time>2026-04-12T08:39:26Z</time></trkpt><trkpt lat="42.52422356477486" lon="11.961158670751322"><ele>377.0</ele><time>2026-04-12T08:39:27Z</time></trkpt><trkpt lat="42.524195667769376" lon="11.96095103642943"><ele>377.0</ele><time>2026-04-12T08:39:28Z</time></trkpt><trkpt lat="42.52416702684276" lon="11.960738431347897"><ele>377.0</ele><time>2026-04-12T08:39:29Z</time></trkpt><trkpt lat="42.52414033671579" lon="11.960513293720767"><ele>377.33333333333337</ele><time>2026-04-12T08:39:30Z</time></trkpt><trkpt lat="42.52411983046874" lon="11.960282153233825"><ele>377.6666666666667</ele><time>2026-04-12T08:39:31Z</time></trkpt><trkpt lat="42.52410250415149" lon="11.960037474305395"><ele>378.0</ele><time>2026-04-12T08:39:32Z</time></trkpt><trkpt lat="42.52408416519953" lon="11.959774878029208"><ele>377.3333333333333</ele><time>2026-04-12T08:39:33Z</time></trkpt><trkpt lat="42.5240588037381" lon="11.959507144975143"><ele>376.66666666666663</ele><time>2026-04-12T08:39:34Z</time></trkpt><trkpt lat="42.52403328027008" lon="11.959235869626685"><ele>376.0</ele><time>2026-04-12T08:39:35Z</time></trkpt><trkpt lat="42.52400854944313" lon="11.958968397696081"><ele>375.3333333333333</ele><time>2026-04-12T08:39:36Z</time></trkpt><trkpt lat="42.5239852835263" lon="11.95871854067432"><ele>374.6666666666667</ele><time>2026-04-12T08:39:37Z</time></trkpt><trkpt lat="42.52396296816657" lon="11.95848703155166"><ele>374.0</ele><time>2026-04-12T08:39:38Z</time></trkpt><trkpt lat="42.52394321964819" lon="11.958267590557856"><ele>375.33333333333337</ele><time>2026-04-12T08:39:39Z</time></trkpt><trkpt lat="42.52392524085941" lon="11.95805140026209"><ele>376.6666666666667</ele><time>2026-04-12T08:39:40Z</time></trkpt><trkpt lat="42.52390825685568" lon="11.957831493296954"><ele>378.0</ele><time>2026-04-12T08:39:41Z</time></trkpt><trkpt lat="42.5238939423962" lon="11.957606899667411"><ele>378.6666666666667</ele><time>2026-04-12T08:39:42Z</time></trkpt><trkpt lat="42.52388543122802" lon="11.95738513566002"><ele>379.33333333333337</ele><time>2026-04-12T08:39:43Z</time></trkpt><trkpt lat="42.52389052413523" lon="11.957150964464887"><ele>380.0</ele><time>2026-04-12T08:39:44Z</time></trkpt><trkpt lat="42.52391221668752" lon="11.956911426302241"><ele>380.6666666666667</ele><time>2026-04-12T08:39:45Z</time></trkpt><trkpt lat="42.52394270475441" lon="11.956679655888216"><ele>381.3333333333333</ele><time>2026-04-12T08:39:46Z</time></trkpt><trkpt lat="42.523980907594996" lon="11.95644172282511"><ele>382.0</ele><time>2026-04-12T08:39:47Z</time></trkpt><trkpt lat="42.52402561861432" lon="11.95619977845863"><ele>382.0</ele><time>2026-04-12T08:39:48Z</time></trkpt><trkpt lat="42.52407236286556" lon="11.955960641645854"><ele>382.0</ele><time>2026-04-12T08:39:49Z</time></trkpt><trkpt lat="42.52411544593155" lon="11.955721015967727"><ele>382.0</ele><time>2026-04-12T08:39:50Z</time></trkpt><trkpt lat="42.524158584858085" lon="11.955499542503942"><ele>381.66666666666663</ele><time>2026-04-12T08:39:51Z</time></trkpt><trkpt lat="42.52419500719529" lon="11.955288581222343"><ele>381.3333333333333</ele><time>2026-04-12T08:39:52Z</time></trkpt><trkpt lat="42.524220452711745" lon="11.95508896082234"><ele>381.0</ele><time>2026-04-12T08:39:53Z</time></trkpt><trkpt lat="42.52423869788043" lon="11.954891446136786"><ele>380.25</ele><time>2026-04-12T08:39:54Z</time></trkpt><trkpt lat="42.52424566325886" lon="11.954696878897789"><ele>379.5</ele><time>2026-04-12T08:39:55Z</time></trkpt><trkpt lat="42.524240093310794" lon="11.95449981131781"><ele>378.75</ele><time>2026-04-12T08:39:56Z</time></trkpt><trkpt lat="42.52422448947245" lon="11.954294520811887"><ele>378.0</ele><time>2026-04-12T08:39:57Z</time></trkpt><trkpt lat="42.5241957824736" lon="11.95408418662524"><ele>376.3333333333333</ele><time>2026-04-12T08:39:58Z</time></trkpt><trkpt lat="42.52416962095846" lon="11.953865573949402"><ele>374.66666666666663</ele><time>2026-04-12T08:39:59Z</time></trkpt><trkpt lat="42.52414076412953" lon="11.95363724539082"><ele>373.0</ele><time>2026-04-12T08:40:00Z</time></trkpt><trkpt lat="42.52410958994899" lon="11.953404583872494"><ele>372.0</ele><time>2026-04-12T08:40:01Z</time></trkpt><trkpt lat="42.52408278592558" lon="11.95316354880954"><ele>371.0</ele><time>2026-04-12T08:40:02Z</time></trkpt><trkpt lat="42.52406717020678" lon="11.952916231031013"><ele>370.0</ele><time>2026-04-12T08:40:03Z</time></trkpt><trkpt lat="42.52406702358523" lon="11.952659360533545"><ele>369.66666666666663</ele><time>2026-04-12T08:40:04.001Z</time></trkpt><trkpt lat="42.52408405325324" lon="11.952409091612642"><ele>369.3333333333333</ele><time>2026-04-12T08:40:05.001Z</time></trkpt><trkpt lat="42.52411804185599" lon="11.952153251531763"><ele>369.0</ele><time>2026-04-12T08:40:06.001Z</time></trkpt><trkpt lat="42.52415278876333" lon="11.95191482933228"><ele>368.3333333333333</ele><time>2026-04-12T08:40:07.001Z</time></trkpt><trkpt lat="42.52418639169434" lon="11.951682981651865"><ele>367.66666666666663</ele><time>2026-04-12T08:40:08.001Z</time></trkpt><trkpt lat="42.52422289718324" lon="11.951449443801595"><ele>367.0</ele><time>2026-04-12T08:40:09.001Z</time></trkpt><trkpt lat="42.524262465159445" lon="11.951206275638267"><ele>367.0</ele><time>2026-04-12T08:40:10.001Z</time></trkpt><trkpt lat="42.524305438283385" lon="11.950952634159409"><ele>367.0</ele><time>2026-04-12T08:40:11.001Z</time></trkpt><trkpt lat="42.524350380818895" lon="11.950703883971052"><ele>367.0</ele><time>2026-04-12T08:40:12.001Z</time></trkpt><trkpt lat="42.52439681879902" lon="11.950474112656682"><ele>367.0</ele><time>2026-04-12T08:40:13.001Z</time></trkpt><trkpt lat="42.52444932545999" lon="11.950257555283027"><ele>367.0</ele><time>2026-04-12T08:40:14.001Z</time></trkpt><trkpt lat="42.52450969744281" lon="11.950056181173206"><ele>367.0</ele><time>2026-04-12T08:40:15.001Z</time></trkpt><trkpt lat="42.5245768685982" lon="11.949861933583861"><ele>365.66666666666663</ele><time>2026-04-12T08:40:16.001Z</time></trkpt><trkpt lat="42.52465036281538" lon="11.949660589368065"><ele>364.3333333333333</ele><time>2026-04-12T08:40:17.001Z</time></trkpt><trkpt lat="42.52471453102662" lon="11.949455619877929"><ele>363.0</ele><time>2026-04-12T08:40:18.001Z</time></trkpt><trkpt lat="42.52477856182272" lon="11.94924817572381"><ele>362.3333333333333</ele><time>2026-04-12T08:40:19.001Z</time></trkpt><trkpt lat="42.52484033202199" lon="11.94905196662404"><ele>361.66666666666663</ele><time>2026-04-12T08:40:20.001Z</time></trkpt><trkpt lat="42.524899293867456" lon="11.94886152651866"><ele>361.0</ele><time>2026-04-12T08:40:21.001Z</time></trkpt><trkpt lat="42.52495829666151" lon="11.94867389103755"><ele>361.0</ele><time>2026-04-12T08:40:22.001Z</time></trkpt><trkpt lat="42.525016023321086" lon="11.948483722461264"><ele>361.0</ele><time>2026-04-12T08:40:23.001Z</time></trkpt><trkpt lat="42.52507537947692" lon="11.948286448214944"><ele>361.0</ele><time>2026-04-12T08:40:24.001Z</time></trkpt><trkpt lat="42.52514152273877" lon="11.948091477762071"><ele>361.0</ele><time>2026-04-12T08:40:25.001Z</time></trkpt><trkpt lat="42.52521176920805" lon="11.94789879767785"><ele>361.0</ele><time>2026-04-12T08:40:26.001Z</time></trkpt><trkpt lat="42.52528328062449" lon="11.947705569990838"><ele>361.0</ele><time>2026-04-12T08:40:27.001Z</time></trkpt><trkpt lat="42.52535970283432" lon="11.94751088283754"><ele>360.0</ele><time>2026-04-12T08:40:28.001Z</time></trkpt><trkpt lat="42.525443417929125" lon="11.94731409186032"><ele>359.0</ele><time>2026-04-12T08:40:29.001Z</time></trkpt><trkpt lat="42.52552510862969" lon="11.947117232252419"><ele>358.0</ele><time>2026-04-12T08:40:30.001Z</time></trkpt><trkpt lat="42.52560824340621" lon="11.946923147962183"><ele>358.0</ele><time>2026-04-12T08:40:30.998Z</time></trkpt><trkpt lat="42.52568953705686" lon="11.946735903818842"><ele>358.0</ele><time>2026-04-12T08:40:31.998Z</time></trkpt><trkpt lat="42.52577098046865" lon="11.946554693307416"><ele>358.0</ele><time>2026-04-12T08:40:32.998Z</time></trkpt><trkpt lat="42.52585209254219" lon="11.946384550318298"><ele>357.5</ele><time>2026-04-12T08:40:33.998Z</time></trkpt><trkpt lat="42.525927488848964" lon="11.946225502337882"><ele>357.0</ele><time>2026-04-12T08:40:34.998Z</time></trkpt><trkpt lat="42.526003230127536" lon="11.946072991412587"><ele>356.5</ele><time>2026-04-12T08:40:35.999Z</time></trkpt><trkpt lat="42.52607761611858" lon="11.945924650210914"><ele>356.0</ele><time>2026-04-12T08:40:36.999Z</time></trkpt><trkpt lat="42.52615436142076" lon="11.945772252492981"><ele>355.6666666666667</ele><time>2026-04-12T08:40:37.999Z</time></trkpt><trkpt lat="42.52623381571208" lon="11.945606418638548"><ele>355.3333333333333</ele><time>2026-04-12T08:40:38.999Z</time></trkpt><trkpt lat="42.5263205698493" lon="11.945433565233499"><ele>355.0</ele><time>2026-04-12T08:40:39.999Z</time></trkpt><trkpt lat="42.52641116296464" lon="11.945255447852302"><ele>355.0</ele><time>2026-04-12T08:40:40.999Z</time></trkpt><trkpt lat="42.52649511617341" lon="11.945082319447875"><ele>355.0</ele><time>2026-04-12T08:40:41.999Z</time></trkpt><trkpt lat="42.52657672464748" lon="11.944918807695208"><ele>355.0</ele><time>2026-04-12T08:40:42.999Z</time></trkpt><trkpt lat="42.52666080138354" lon="11.944750402493183"><ele>355.0</ele><time>2026-04-12T08:40:43.999Z</time></trkpt><trkpt lat="42.52674654822198" lon="11.944583261649719"><ele>355.0</ele><time>2026-04-12T08:40:44.999Z</time></trkpt><trkpt lat="42.526832802803504" lon="11.944410603981716"><ele>355.0</ele><time>2026-04-12T08:40:45.999Z</time></trkpt><trkpt lat="42.52692333641208" lon="11.94422899822748"><ele>355.0</ele><time>2026-04-12T08:40:46.999Z</time></trkpt><trkpt lat="42.52701627497576" lon="11.944040479677144"><ele>354.0</ele><time>2026-04-12T08:40:47.999Z</time></trkpt><trkpt lat="42.52711509018272" lon="11.943843364506108"><ele>353.0</ele><time>2026-04-12T08:40:48.999Z</time></trkpt><trkpt lat="42.52720933328011" lon="11.943644278098661"><ele>352.0</ele><time>2026-04-12T08:40:49.999Z</time></trkpt><trkpt lat="42.52729936858509" lon="11.943440975390901"><ele>351.3333333333333</ele><time>2026-04-12T08:40:50.999Z</time></trkpt><trkpt lat="42.527394921099805" lon="11.943236898101992"><ele>350.6666666666667</ele><time>2026-04-12T08:40:51.999Z</time></trkpt><trkpt lat="42.52748656006653" lon="11.943033394896199"><ele>350.0</ele><time>2026-04-12T08:40:52.999Z</time></trkpt><trkpt lat="42.527576461912645" lon="11.942827866824926"><ele>350.0</ele><time>2026-04-12T08:40:53.999Z</time></trkpt><trkpt lat="42.527659272144184" lon="11.942643747764249"><ele>350.0</ele><time>2026-04-12T08:40:54.999Z</time></trkpt><trkpt lat="42.52773785015525" lon="11.942469542205266"><ele>350.0</ele><time>2026-04-12T08:40:55.999Z</time></trkpt><trkpt lat="42.52781412007344" lon="11.942294948277844"><ele>349.0</ele><time>2026-04-12T08:40:56.999Z</time></trkpt><trkpt lat="42.527895094060774" lon="11.942112055418967"><ele>348.0</ele><time>2026-04-12T08:40:57.999Z</time></trkpt><trkpt lat="42.52797671666877" lon="11.941925436977755"><ele>347.0</ele><time>2026-04-12T08:40:58.999Z</time></trkpt><trkpt lat="42.52805758443732" lon="11.941738066931068"><ele>346.0</ele><time>2026-04-12T08:40:59.999Z</time></trkpt><trkpt lat="42.52813654878097" lon="11.941551539024779"><ele>345.0</ele><time>2026-04-12T08:41:00.999Z</time></trkpt><trkpt lat="42.52821090716951" lon="11.941370408022353"><ele>344.0</ele><time>2026-04-12T08:41:01.999Z</time></trkpt><trkpt lat="42.528277452140564" lon="11.941190978734756"><ele>344.0</ele><time>2026-04-12T08:41:02.999Z</time></trkpt><trkpt lat="42.52833868089497" lon="11.941011907998657"><ele>344.0</ele><time>2026-04-12T08:41:03.999Z</time></trkpt><trkpt lat="42.5283980665817" lon="11.940833190506256"><ele>344.0</ele><time>2026-04-12T08:41:04.999Z</time></trkpt><trkpt lat="42.528449880361954" lon="11.940659361376573"><ele>344.0</ele><time>2026-04-12T08:41:05.999Z</time></trkpt><trkpt lat="42.52849564823266" lon="11.94048504114413"><ele>344.0</ele><time>2026-04-12T08:41:07Z</time></trkpt><trkpt lat="42.5285308206671" lon="11.940307439356868"><ele>344.0</ele><time>2026-04-12T08:41:08Z</time></trkpt><trkpt lat="42.528553793140304" lon="11.94012241621697"><ele>344.0</ele><time>2026-04-12T08:41:09Z</time></trkpt><trkpt lat="42.52856806448079" lon="11.939937287943868"><ele>344.0</ele><time>2026-04-12T08:41:10Z</time></trkpt><trkpt lat="42.52858039474069" lon="11.939758504589197"><ele>343.5</ele><time>2026-04-12T08:41:11Z</time></trkpt><trkpt lat="42.52859167528494" lon="11.939581655462678"><ele>343.0</ele><time>2026-04-12T08:41:12Z</time></trkpt><trkpt lat="42.52859628686355" lon="11.939407117521716"><ele>342.5</ele><time>2026-04-12T08:41:13Z</time></trkpt><trkpt lat="42.528598395613194" lon="11.939233310900098"><ele>342.0</ele><time>2026-04-12T08:41:14Z</time></trkpt><trkpt lat="42.52859695459683" lon="11.939051440927125"><ele>341.0</ele><time>2026-04-12T08:41:15Z</time></trkpt><trkpt lat="42.52859271323034" lon="11.938857975503916"><ele>340.0</ele><time>2026-04-12T08:41:16Z</time></trkpt><trkpt lat="42.52858036356651" lon="11.938657591531117"><ele>339.0</ele><time>2026-04-12T08:41:17Z</time></trkpt><trkpt lat="42.52855931325677" lon="11.938447850064218"><ele>338.0</ele><time>2026-04-12T08:41:18Z</time></trkpt><trkpt lat="42.52853861688805" lon="11.938234240849242"><ele>337.33333333333337</ele><time>2026-04-12T08:41:19Z</time></trkpt><trkpt lat="42.528516369706644" lon="11.938013752625693"><ele>336.6666666666667</ele><time>2026-04-12T08:41:20Z</time></trkpt><trkpt lat="42.5284952157351" lon="11.937791749647829"><ele>336.0</ele><time>2026-04-12T08:41:21Z</time></trkpt><trkpt lat="42.52847094072755" lon="11.937562732491928"><ele>335.6666666666667</ele><time>2026-04-12T08:41:22Z</time></trkpt><trkpt lat="42.52844436515913" lon="11.937319801529485"><ele>335.33333333333337</ele><time>2026-04-12T08:41:23Z</time></trkpt><trkpt lat="42.52842265644234" lon="11.93708423473754"><ele>335.0</ele><time>2026-04-12T08:41:24Z</time></trkpt><trkpt lat="42.528398893953" lon="11.936859818369369"><ele>335.0</ele><time>2026-04-12T08:41:25Z</time></trkpt><trkpt lat="42.52837753143054" lon="11.936649741927004"><ele>335.0</ele><time>2026-04-12T08:41:26Z</time></trkpt><trkpt lat="42.5283573829252" lon="11.93643124689051"><ele>335.0</ele><time>2026-04-12T08:41:27Z</time></trkpt><trkpt lat="42.52833936365186" lon="11.936210207199291"><ele>335.0</ele><time>2026-04-12T08:41:28Z</time></trkpt><trkpt lat="42.52831804800244" lon="11.935979903650676"><ele>335.0</ele><time>2026-04-12T08:41:29Z</time></trkpt><trkpt lat="42.52829508910755" lon="11.935746741136391"><ele>335.0</ele><time>2026-04-12T08:41:30Z</time></trkpt><trkpt lat="42.528267416875075" lon="11.935505615594986"><ele>335.33333333333337</ele><time>2026-04-12T08:41:31Z</time></trkpt><trkpt lat="42.528242980741844" lon="11.935265253836208"><ele>335.6666666666667</ele><time>2026-04-12T08:41:32Z</time></trkpt><trkpt lat="42.52821831219918" lon="11.935027683906178"><ele>336.0</ele><time>2026-04-12T08:41:33Z</time></trkpt><trkpt lat="42.52819634956256" lon="11.93479944817448"><ele>335.3333333333333</ele><time>2026-04-12T08:41:34Z</time></trkpt><trkpt lat="42.528177884444524" lon="11.934573576729337"><ele>334.66666666666663</ele><time>2026-04-12T08:41:35Z</time></trkpt><trkpt lat="42.528159059996874" lon="11.934344713541416"><ele>334.0</ele><time>2026-04-12T08:41:36Z</time></trkpt><trkpt lat="42.528134579122934" lon="11.934112999441409"><ele>333.0</ele><time>2026-04-12T08:41:37Z</time></trkpt><trkpt lat="42.52811565428505" lon="11.933902603708434"><ele>332.0</ele><time>2026-04-12T08:41:38Z</time></trkpt><trkpt lat="42.528098553929084" lon="11.933700726764505"><ele>331.0</ele><time>2026-04-12T08:41:39Z</time></trkpt><trkpt lat="42.528077954932975" lon="11.933498389719624"><ele>331.0</ele><time>2026-04-12T08:41:40Z</time></trkpt><trkpt lat="42.52806758615297" lon="11.93330179982344"><ele>331.0</ele><time>2026-04-12T08:41:41Z</time></trkpt><trkpt lat="42.52806122515936" lon="11.933121995196295"><ele>331.0</ele><time>2026-04-12T08:41:42Z</time></trkpt><trkpt lat="42.52805862842435" lon="11.932947716032901"><ele>331.0</ele><time>2026-04-12T08:41:43Z</time></trkpt><trkpt lat="42.52806016789446" lon="11.932779376372514"><ele>331.0</ele><time>2026-04-12T08:41:44Z</time></trkpt><trkpt lat="42.52806219768404" lon="11.932612896370731"><ele>331.0</ele><time>2026-04-12T08:41:45Z</time></trkpt><trkpt lat="42.528067046492524" lon="11.932422999700572"><ele>331.0</ele><time>2026-04-12T08:41:46Z</time></trkpt><trkpt lat="42.52808718083019" lon="11.93223336226841"><ele>331.0</ele><time>2026-04-12T08:41:47Z</time></trkpt><trkpt lat="42.52811536421369" lon="11.932040969734361"><ele>331.0</ele><time>2026-04-12T08:41:48Z</time></trkpt><trkpt lat="42.52814637740556" lon="11.931846524675501"><ele>331.0</ele><time>2026-04-12T08:41:49Z</time></trkpt><trkpt lat="42.528183514738096" lon="11.931654362826363"><ele>331.0</ele><time>2026-04-12T08:41:50Z</time></trkpt><trkpt lat="42.52822378760092" lon="11.931458783315852"><ele>331.0</ele><time>2026-04-12T08:41:51Z</time></trkpt><trkpt lat="42.52826942269458" lon="11.93125952772666"><ele>331.0</ele><time>2026-04-12T08:41:52Z</time></trkpt><trkpt lat="42.528317540261845" lon="11.931058824033828"><ele>331.0</ele><time>2026-04-12T08:41:53Z</time></trkpt><trkpt lat="42.52836628973142" lon="11.930856285928842"><ele>331.0</ele><time>2026-04-12T08:41:54Z</time></trkpt><trkpt lat="42.52841734372212" lon="11.930650451873898"><ele>330.3333333333333</ele><time>2026-04-12T08:41:55Z</time></trkpt><trkpt lat="42.528467353593676" lon="11.930438335905544"><ele>329.6666666666667</ele><time>2026-04-12T08:41:56Z</time></trkpt><trkpt lat="42.52851525270785" lon="11.930228873580425"><ele>329.0</ele><time>2026-04-12T08:41:57Z</time></trkpt><trkpt lat="42.52856019355596" lon="11.930024216488972"><ele>329.0</ele><time>2026-04-12T08:41:58Z</time></trkpt><trkpt lat="42.52861035942299" lon="11.929815833367954"><ele>329.0</ele><time>2026-04-12T08:41:59Z</time></trkpt><trkpt lat="42.52866022878176" lon="11.92960976575129"><ele>329.0</ele><time>2026-04-12T08:42:00Z</time></trkpt><trkpt lat="42.528713446798136" lon="11.929394425814628"><ele>326.6666666666667</ele><time>2026-04-12T08:42:01Z</time></trkpt><trkpt lat="42.52876192352525" lon="11.929185671777132"><ele>324.3333333333333</ele><time>2026-04-12T08:42:02Z</time></trkpt><trkpt lat="42.52880738921173" lon="11.928982413943988"><ele>322.0</ele><time>2026-04-12T08:42:03Z</time></trkpt><trkpt lat="42.52885394127247" lon="11.92878434719603"><ele>322.0</ele><time>2026-04-12T08:42:04Z</time></trkpt><trkpt lat="42.52890269842647" lon="11.928580908382305"><ele>322.0</ele><time>2026-04-12T08:42:05Z</time></trkpt><trkpt lat="42.52895450831698" lon="11.928370302756695"><ele>322.0</ele><time>2026-04-12T08:42:06Z</time></trkpt><trkpt lat="42.52900946911261" lon="11.928150019364011"><ele>319.3333333333333</ele><time>2026-04-12T08:42:07Z</time></trkpt><trkpt lat="42.52906043746387" lon="11.927915435370679"><ele>316.6666666666667</ele><time>2026-04-12T08:42:08Z</time></trkpt><trkpt lat="42.529108906224096" lon="11.927688835716653"><ele>314.0</ele><time>2026-04-12T08:42:09Z</time></trkpt><trkpt lat="42.529159576595525" lon="11.927471935055094"><ele>313.0</ele><time>2026-04-12T08:42:10Z</time></trkpt><trkpt lat="42.52920992510571" lon="11.92726220211051"><ele>312.0</ele><time>2026-04-12T08:42:11Z</time></trkpt><trkpt lat="42.5292597241841" lon="11.92705725299694"><ele>311.0</ele><time>2026-04-12T08:42:12Z</time></trkpt><trkpt lat="42.529312099386956" lon="11.926849712787911"><ele>313.6666666666667</ele><time>2026-04-12T08:42:13Z</time></trkpt><trkpt lat="42.52936150732207" lon="11.926642144794782"><ele>316.3333333333333</ele><time>2026-04-12T08:42:14Z</time></trkpt><trkpt lat="42.529410844272704" lon="11.926434030482161"><ele>319.0</ele><time>2026-04-12T08:42:15Z</time></trkpt><trkpt lat="42.52946492020755" lon="11.926219451159236"><ele>319.0</ele><time>2026-04-12T08:42:16Z</time></trkpt><trkpt lat="42.529518338638425" lon="11.925999143432245"><ele>319.0</ele><time>2026-04-12T08:42:17.001Z</time></trkpt><trkpt lat="42.529564491153785" lon="11.925798743839806"><ele>319.0</ele><time>2026-04-12T08:42:18.001Z</time></trkpt><trkpt lat="42.52960865309155" lon="11.92560433056847"><ele>319.3333333333333</ele><time>2026-04-12T08:42:19.001Z</time></trkpt><trkpt lat="42.52965471401456" lon="11.925413774285849"><ele>319.6666666666667</ele><time>2026-04-12T08:42:20.001Z</time></trkpt><trkpt lat="42.52969878430477" lon="11.92521873573355"><ele>320.0</ele><time>2026-04-12T08:42:21.001Z</time></trkpt><trkpt lat="42.52974539032721" lon="11.925019600311007"><ele>320.0</ele><time>2026-04-12T08:42:22.001Z</time></trkpt><trkpt lat="42.52979316226769" lon="11.924817656924304"><ele>320.0</ele><time>2026-04-12T08:42:23.001Z</time></trkpt><trkpt lat="42.52984151702958" lon="11.924611294008209"><ele>320.0</ele><time>2026-04-12T08:42:24.001Z</time></trkpt><trkpt lat="42.529892168619035" lon="11.924396949958858"><ele>319.0</ele><time>2026-04-12T08:42:25.001Z</time></trkpt><trkpt lat="42.529940927716176" lon="11.924183738706414"><ele>318.0</ele><time>2026-04-12T08:42:26.001Z</time></trkpt><trkpt lat="42.52999095180206" lon="11.92397277261561"><ele>317.0</ele><time>2026-04-12T08:42:27.001Z</time></trkpt><trkpt lat="42.530037437785225" lon="11.923765543227622"><ele>317.0</ele><time>2026-04-12T08:42:28.001Z</time></trkpt><trkpt lat="42.5300860731613" lon="11.92355595165559"><ele>317.0</ele><time>2026-04-12T08:42:29.001Z</time></trkpt><trkpt lat="42.530139439072016" lon="11.923341707155878"><ele>317.0</ele><time>2026-04-12T08:42:30.001Z</time></trkpt><trkpt lat="42.53019681294593" lon="11.923123012744844"><ele>316.0</ele><time>2026-04-12T08:42:31.001Z</time></trkpt><trkpt lat="42.53025323580919" lon="11.922907282112194"><ele>315.0</ele><time>2026-04-12T08:42:32.001Z</time></trkpt><trkpt lat="42.53030394409006" lon="11.922690777005727"><ele>314.0</ele><time>2026-04-12T08:42:33.001Z</time></trkpt><trkpt lat="42.530356818966126" lon="11.922485617995052"><ele>313.6666666666667</ele><time>2026-04-12T08:42:34.001Z</time></trkpt><trkpt lat="42.530416761773814" lon="11.922276638097111"><ele>313.3333333333333</ele><time>2026-04-12T08:42:35.001Z</time></trkpt><trkpt lat="42.53048098938783" lon="11.922083525599188"><ele>313.0</ele><time>2026-04-12T08:42:36.001Z</time></trkpt><trkpt lat="42.53055670486503" lon="11.921903380255852"><ele>313.0</ele><time>2026-04-12T08:42:36.999Z</time></trkpt><trkpt lat="42.53064402788841" lon="11.921736314015323"><ele>313.0</ele><time>2026-04-12T08:42:37.999Z</time></trkpt><trkpt lat="42.53074719991814" lon="11.921591899409883"><ele>313.0</ele><time>2026-04-12T08:42:38.999Z</time></trkpt><trkpt lat="42.530858252046215" lon="11.92145784003608"><ele>313.0</ele><time>2026-04-12T08:42:39.999Z</time></trkpt><trkpt lat="42.530965626177874" lon="11.921334646870182"><ele>313.5</ele><time>2026-04-12T08:42:40.999Z</time></trkpt><trkpt lat="42.531082074729404" lon="11.921223611887148"><ele>314.0</ele><time>2026-04-12T08:42:41.999Z</time></trkpt><trkpt lat="42.531201239222575" lon="11.92112298293335"><ele>314.5</ele><time>2026-04-12T08:42:42.999Z</time></trkpt><trkpt lat="42.5313359891129" lon="11.921041890673393"><ele>315.0</ele><time>2026-04-12T08:42:43.999Z</time></trkpt><trkpt lat="42.53147732660744" lon="11.920972878960972"><ele>315.3333333333333</ele><time>2026-04-12T08:42:44.999Z</time></trkpt><trkpt lat="42.53162838533392" lon="11.920901819090545"><ele>315.66666666666663</ele><time>2026-04-12T08:42:45.999Z</time></trkpt><trkpt lat="42.5317871532783" lon="11.920836912253682"><ele>316.0</ele><time>2026-04-12T08:42:46.999Z</time></trkpt><trkpt lat="42.53195567111155" lon="11.920763062082555"><ele>319.66666666666663</ele><time>2026-04-12T08:42:47.999Z</time></trkpt><trkpt lat="42.53213508998104" lon="11.920675328682604"><ele>323.3333333333333</ele><time>2026-04-12T08:42:48.999Z</time></trkpt><trkpt lat="42.53231334241998" lon="11.920596383254763"><ele>327.0</ele><time>2026-04-12T08:42:49.999Z</time></trkpt><trkpt lat="42.532486257885076" lon="11.920523879296644"><ele>327.0</ele><time>2026-04-12T08:42:50.999Z</time></trkpt><trkpt lat="42.532654353188626" lon="11.920449704786396"><ele>327.0</ele><time>2026-04-12T08:42:51.999Z</time></trkpt><trkpt lat="42.532816222940546" lon="11.920366340328416"><ele>327.0</ele><time>2026-04-12T08:42:52.999Z</time></trkpt><trkpt lat="42.53297368600964" lon="11.920266015734395"><ele>326.0</ele><time>2026-04-12T08:42:53.999Z</time></trkpt><trkpt lat="42.53312730874558" lon="11.920149846038742"><ele>325.0</ele><time>2026-04-12T08:42:54.999Z</time></trkpt><trkpt lat="42.5332696910091" lon="11.920015804510768"><ele>324.0</ele><time>2026-04-12T08:42:55.999Z</time></trkpt><trkpt lat="42.53341411192265" lon="11.919880909581524"><ele>325.3333333333333</ele><time>2026-04-12T08:42:56.999Z</time></trkpt><trkpt lat="42.53354952110251" lon="11.919730637863296"><ele>326.66666666666663</ele><time>2026-04-12T08:42:57.999Z</time></trkpt><trkpt lat="42.5336830323607" lon="11.919586460384679"><ele>328.0</ele><time>2026-04-12T08:42:58.999Z</time></trkpt><trkpt lat="42.533813524168956" lon="11.919446635679398"><ele>328.0</ele><time>2026-04-12T08:42:59.999Z</time></trkpt><trkpt lat="42.533938585788526" lon="11.919300991280494"><ele>328.0</ele><time>2026-04-12T08:43:00.999Z</time></trkpt><trkpt lat="42.534060011237216" lon="11.919167629229285"><ele>328.0</ele><time>2026-04-12T08:43:02Z</time></trkpt><trkpt lat="42.53418670499895" lon="11.91903323305246"><ele>330.66666666666663</ele><time>2026-04-12T08:43:03Z</time></trkpt><trkpt lat="42.53431508899035" lon="11.91889695802015"><ele>333.3333333333333</ele><time>2026-04-12T08:43:04Z</time></trkpt><trkpt lat="42.53444147460344" lon="11.918760045668707"><ele>336.0</ele><time>2026-04-12T08:43:05Z</time></trkpt><trkpt lat="42.5345737632903" lon="11.918614664444938"><ele>336.0</ele><time>2026-04-12T08:43:06Z</time></trkpt><trkpt lat="42.53470241108388" lon="11.91847845291725"><ele>336.0</ele><time>2026-04-12T08:43:07Z</time></trkpt><trkpt lat="42.53482432878508" lon="11.9183334750045"><ele>336.0</ele><time>2026-04-12T08:43:08Z</time></trkpt><trkpt lat="42.5349440872959" lon="11.91818992473934"><ele>337.25</ele><time>2026-04-12T08:43:09Z</time></trkpt><trkpt lat="42.53505623586278" lon="11.918057627080316"><ele>338.5</ele><time>2026-04-12T08:43:10Z</time></trkpt><trkpt lat="42.53516932323542" lon="11.917934392732617"><ele>339.75</ele><time>2026-04-12T08:43:11Z</time></trkpt><trkpt lat="42.535284653882314" lon="11.917799110345761"><ele>341.0</ele><time>2026-04-12T08:43:12Z</time></trkpt><trkpt lat="42.53539932597938" lon="11.917662654341447"><ele>341.33333333333337</ele><time>2026-04-12T08:43:13Z</time></trkpt><trkpt lat="42.535515716484284" lon="11.91752921650769"><ele>341.6666666666667</ele><time>2026-04-12T08:43:14Z</time></trkpt><trkpt lat="42.535631525805655" lon="11.917396782845483"><ele>342.0</ele><time>2026-04-12T08:43:15Z</time></trkpt><trkpt lat="42.53575264605447" lon="11.917268099076232"><ele>342.0</ele><time>2026-04-12T08:43:16Z</time></trkpt><trkpt lat="42.535867817920575" lon="11.917130783302882"><ele>342.0</ele><time>2026-04-12T08:43:17Z</time></trkpt><trkpt lat="42.53598369746677" lon="11.916991988613454"><ele>342.0</ele><time>2026-04-12T08:43:18Z</time></trkpt><trkpt lat="42.53610078552896" lon="11.916857319688196"><ele>349.0</ele><time>2026-04-12T08:43:19Z</time></trkpt><trkpt lat="42.536223658389915" lon="11.91671787147157"><ele>356.0</ele><time>2026-04-12T08:43:20Z</time></trkpt><trkpt lat="42.53634083872375" lon="11.916579996085073"><ele>363.0</ele><time>2026-04-12T08:43:21Z</time></trkpt><trkpt lat="42.53646211657693" lon="11.916431933290799"><ele>363.0</ele><time>2026-04-12T08:43:22Z</time></trkpt><trkpt lat="42.53658894643086" lon="11.916290773016927"><ele>363.0</ele><time>2026-04-12T08:43:23Z</time></trkpt><trkpt lat="42.53671471531559" lon="11.91614737500185"><ele>363.0</ele><time>2026-04-12T08:43:24Z</time></trkpt><trkpt lat="42.536849858409404" lon="11.915997284310041"><ele>361.6666666666667</ele><time>2026-04-12T08:43:25Z</time></trkpt><trkpt lat="42.536978190150954" lon="11.91584599006191"><ele>360.33333333333337</ele><time>2026-04-12T08:43:26Z</time></trkpt><trkpt lat="42.537097808917686" lon="11.915702073807326"><ele>359.0</ele><time>2026-04-12T08:43:27Z</time></trkpt><trkpt lat="42.5372128276716" lon="11.915564653271216"><ele>359.0</ele><time>2026-04-12T08:43:28Z</time></trkpt><trkpt lat="42.537324922528825" lon="11.915426645646923"><ele>359.0</ele><time>2026-04-12T08:43:29Z</time></trkpt><trkpt lat="42.53743514678051" lon="11.915278031848421"><ele>359.0</ele><time>2026-04-12T08:43:30Z</time></trkpt><trkpt lat="42.537551805693866" lon="11.91512671877973"><ele>358.0</ele><time>2026-04-12T08:43:31Z</time></trkpt><trkpt lat="42.537666241540485" lon="11.914961946821132"><ele>357.0</ele><time>2026-04-12T08:43:32Z</time></trkpt><trkpt lat="42.53777908449374" lon="11.914797924978965"><ele>356.0</ele><time>2026-04-12T08:43:33Z</time></trkpt><trkpt lat="42.537881080127306" lon="11.914641663552477"><ele>353.0</ele><time>2026-04-12T08:43:34Z</time></trkpt><trkpt lat="42.537987896867556" lon="11.91446670813789"><ele>350.0</ele><time>2026-04-12T08:43:35Z</time></trkpt><trkpt lat="42.538089727469654" lon="11.914287687978813"><ele>347.0</ele><time>2026-04-12T08:43:36Z</time></trkpt><trkpt lat="42.538188819948054" lon="11.914115966675682"><ele>344.6666666666667</ele><time>2026-04-12T08:43:37Z</time></trkpt><trkpt lat="42.53828138090992" lon="11.913935303337217"><ele>342.3333333333333</ele><time>2026-04-12T08:43:38Z</time></trkpt><trkpt lat="42.53837899446832" lon="11.913743526918958"><ele>340.0</ele><time>2026-04-12T08:43:39Z</time></trkpt><trkpt lat="42.538484646503164" lon="11.91354261060095"><ele>339.3333333333333</ele><time>2026-04-12T08:43:40Z</time></trkpt><trkpt lat="42.53859496365732" lon="11.91333419028435"><ele>338.6666666666667</ele><time>2026-04-12T08:43:41Z</time></trkpt><trkpt lat="42.538707643566504" lon="11.91311423335906"><ele>338.0</ele><time>2026-04-12T08:43:42Z</time></trkpt><trkpt lat="42.53882168140351" lon="11.912886839096442"><ele>337.6666666666667</ele><time>2026-04-12T08:43:43Z</time></trkpt><trkpt lat="42.53893676803814" lon="11.912665044834213"><ele>337.3333333333333</ele><time>2026-04-12T08:43:44Z</time></trkpt><trkpt lat="42.53904980430905" lon="11.912453443772325"><ele>337.0</ele><time>2026-04-12T08:43:45Z</time></trkpt><trkpt lat="42.53916582441291" lon="11.912245136017704"><ele>337.0</ele><time>2026-04-12T08:43:46Z</time></trkpt><trkpt lat="42.53928620885862" lon="11.912025824134663"><ele>337.0</ele><time>2026-04-12T08:43:47Z</time></trkpt><trkpt lat="42.53940288852337" lon="11.91180399987221"><ele>337.0</ele><time>2026-04-12T08:43:48Z</time></trkpt><trkpt lat="42.53951827594565" lon="11.911576112580013"><ele>335.66666666666663</ele><time>2026-04-12T08:43:49Z</time></trkpt><trkpt lat="42.53963036325028" lon="11.911349645849478"><ele>334.3333333333333</ele><time>2026-04-12T08:43:50.001Z</time></trkpt><trkpt lat="42.53973986319238" lon="11.911147365173756"><ele>333.0</ele><time>2026-04-12T08:43:51.001Z</time></trkpt><trkpt lat="42.53985852679748" lon="11.910964731061448"><ele>334.3333333333333</ele><time>2026-04-12T08:43:52.001Z</time></trkpt><trkpt lat="42.539971664405364" lon="11.910800942648118"><ele>335.66666666666663</ele><time>2026-04-12T08:43:53.001Z</time></trkpt><trkpt lat="42.54008966872153" lon="11.910654614172113"><ele>337.0</ele><time>2026-04-12T08:43:54.001Z</time></trkpt><trkpt lat="42.54021003207744" lon="11.910527466074228"><ele>337.0</ele><time>2026-04-12T08:43:55.001Z</time></trkpt><trkpt lat="42.54032959109213" lon="11.910417660448324"><ele>337.0</ele><time>2026-04-12T08:43:56.001Z</time></trkpt><trkpt lat="42.540451679486665" lon="11.91034404191869"><ele>337.0</ele><time>2026-04-12T08:43:57.001Z</time></trkpt><trkpt lat="42.54058019501503" lon="11.910260778454235"><ele>337.0</ele><time>2026-04-12T08:43:58.001Z</time></trkpt><trkpt lat="42.540712232300905" lon="11.910178920930425"><ele>337.0</ele><time>2026-04-12T08:43:59.001Z</time></trkpt><trkpt lat="42.540844378310915" lon="11.910095768796312"><ele>337.0</ele><time>2026-04-12T08:44:00.001Z</time></trkpt><trkpt lat="42.54097726276649" lon="11.910017316875212"><ele>337.0</ele><time>2026-04-12T08:44:01.001Z</time></trkpt><trkpt lat="42.541112534494324" lon="11.909943935752445"><ele>337.0</ele><time>2026-04-12T08:44:02.001Z</time></trkpt><trkpt lat="42.54124115472193" lon="11.909874549730855"><ele>336.0</ele><time>2026-04-12T08:44:03.001Z</time></trkpt><trkpt lat="42.54136363458083" lon="11.909808840133296"><ele>335.0</ele><time>2026-04-12T08:44:04.001Z</time></trkpt><trkpt lat="42.541483278985105" lon="11.909743035416566"><ele>334.0</ele><time>2026-04-12T08:44:05.001Z</time></trkpt><trkpt lat="42.54160225108891" lon="11.909675855835909"><ele>333.0</ele><time>2026-04-12T08:44:06.001Z</time></trkpt><trkpt lat="42.54172079935058" lon="11.909608130768268"><ele>333.0</ele><time>2026-04-12T08:44:07.001Z</time></trkpt><trkpt lat="42.5418422232258" lon="11.909541476397962"><ele>333.0</ele><time>2026-04-12T08:44:08.001Z</time></trkpt><trkpt lat="42.54196905387634" lon="11.909471345921418"><ele>333.0</ele><time>2026-04-12T08:44:09.001Z</time></trkpt><trkpt lat="42.54209878052647" lon="11.909399164774776"><ele>333.0</ele><time>2026-04-12T08:44:10.001Z</time></trkpt><trkpt lat="42.542231103588556" lon="11.909326688092111"><ele>332.5</ele><time>2026-04-12T08:44:11.001Z</time></trkpt><trkpt lat="42.54236159882102" lon="11.909256417924261"><ele>332.0</ele><time>2026-04-12T08:44:12.001Z</time></trkpt><trkpt lat="42.5424876044251" lon="11.909188032163527"><ele>331.5</ele><time>2026-04-12T08:44:13.001Z</time></trkpt><trkpt lat="42.54260905234715" lon="11.909118409680243"><ele>331.0</ele><time>2026-04-12T08:44:14.001Z</time></trkpt><trkpt lat="42.542727128512986" lon="11.909049369845265"><ele>331.0</ele><time>2026-04-12T08:44:15.001Z</time></trkpt><trkpt lat="42.54285196601602" lon="11.90897965245942"><ele>331.0</ele><time>2026-04-12T08:44:16.001Z</time></trkpt><trkpt lat="42.542978831305824" lon="11.908908308166792"><ele>331.0</ele><time>2026-04-12T08:44:17.001Z</time></trkpt><trkpt lat="42.54310906988155" lon="11.908828053196185"><ele>331.0</ele><time>2026-04-12T08:44:18.001Z</time></trkpt><trkpt lat="42.54324402737864" lon="11.908742424943041"><ele>330.25</ele><time>2026-04-12T08:44:19.001Z</time></trkpt><trkpt lat="42.54338020501235" lon="11.908652331954213"><ele>329.5</ele><time>2026-04-12T08:44:20.001Z</time></trkpt><trkpt lat="42.54351340056054" lon="11.908559118628594"><ele>328.75</ele><time>2026-04-12T08:44:21.001Z</time></trkpt><trkpt lat="42.54363909608243" lon="11.908458052237172"><ele>328.0</ele><time>2026-04-12T08:44:22.001Z</time></trkpt><trkpt lat="42.543759222167274" lon="11.908341787635331"><ele>327.0</ele><time>2026-04-12T08:44:23.001Z</time></trkpt><trkpt lat="42.54387584895702" lon="11.908219594702649"><ele>326.0</ele><time>2026-04-12T08:44:24.001Z</time></trkpt><trkpt lat="42.54399424222218" lon="11.908087240720583"><ele>325.0</ele><time>2026-04-12T08:44:25.001Z</time></trkpt><trkpt lat="42.54411539828672" lon="11.907951145236247"><ele>325.0</ele><time>2026-04-12T08:44:26.001Z</time></trkpt><trkpt lat="42.544235658079096" lon="11.907810731472575"><ele>325.0</ele><time>2026-04-12T08:44:27.001Z</time></trkpt><trkpt lat="42.54435494811128" lon="11.907664930577678"><ele>325.0</ele><time>2026-04-12T08:44:28.001Z</time></trkpt><trkpt lat="42.544471027552454" lon="11.907517621788692"><ele>323.5</ele><time>2026-04-12T08:44:29.001Z</time></trkpt><trkpt lat="42.54457753054528" lon="11.907374847377447"><ele>322.0</ele><time>2026-04-12T08:44:30.001Z</time></trkpt><trkpt lat="42.544676297865365" lon="11.907227014976941"><ele>320.5</ele><time>2026-04-12T08:44:31.001Z</time></trkpt><trkpt lat="42.544760078555655" lon="11.907076114273732"><ele>319.0</ele><time>2026-04-12T08:44:32.001Z</time></trkpt><trkpt lat="42.54483615075169" lon="11.906926341079183"><ele>319.0</ele><time>2026-04-12T08:44:33.001Z</time></trkpt><trkpt lat="42.54491192827626" lon="11.906784050905364"><ele>319.0</ele><time>2026-04-12T08:44:34.001Z</time></trkpt><trkpt lat="42.54498162004561" lon="11.906649678051899"><ele>319.0</ele><time>2026-04-12T08:44:35.001Z</time></trkpt><trkpt lat="42.545046571748514" lon="11.906515572986821"><ele>319.0</ele><time>2026-04-12T08:44:36.001Z</time></trkpt><trkpt lat="42.54510751910018" lon="11.906380296851799"><ele>318.5</ele><time>2026-04-12T08:44:37.001Z</time></trkpt><trkpt lat="42.54516702815589" lon="11.906240984732152"><ele>318.0</ele><time>2026-04-12T08:44:38.001Z</time></trkpt><trkpt lat="42.545229333979165" lon="11.906091781333842"><ele>317.5</ele><time>2026-04-12T08:44:39.001Z</time></trkpt><trkpt lat="42.54529018926678" lon="11.905927166777692"><ele>317.0</ele><time>2026-04-12T08:44:40.001Z</time></trkpt><trkpt lat="42.545348643766985" lon="11.905755117261752"><ele>316.25</ele><time>2026-04-12T08:44:41.001Z</time></trkpt><trkpt lat="42.545406095018706" lon="11.905579378925255"><ele>315.5</ele><time>2026-04-12T08:44:42.001Z</time></trkpt><trkpt lat="42.545462944252485" lon="11.905398043721096"><ele>314.75</ele><time>2026-04-12T08:44:43Z</time></trkpt><trkpt lat="42.5455234016451" lon="11.905204479943974"><ele>314.0</ele><time>2026-04-12T08:44:44Z</time></trkpt><trkpt lat="42.54558787556802" lon="11.90500790813553"><ele>314.0</ele><time>2026-04-12T08:44:45Z</time></trkpt><trkpt lat="42.54565751093544" lon="11.904802479988014"><ele>314.0</ele><time>2026-04-12T08:44:46Z</time></trkpt><trkpt lat="42.54571902516781" lon="11.904596485088847"><ele>314.0</ele><time>2026-04-12T08:44:47Z</time></trkpt><trkpt lat="42.54577078401396" lon="11.904410515421345"><ele>314.0</ele><time>2026-04-12T08:44:48Z</time></trkpt><trkpt lat="42.545825937885596" lon="11.904253431558661"><ele>314.0</ele><time>2026-04-12T08:44:49Z</time></trkpt><trkpt lat="42.545881143007186" lon="11.904095049788625"><ele>314.0</ele><time>2026-04-12T08:44:50Z</time></trkpt><trkpt lat="42.54593007378072" lon="11.903945416184712"><ele>314.0</ele><time>2026-04-12T08:44:51Z</time></trkpt><trkpt lat="42.54597443704216" lon="11.903807247174637"><ele>314.2</ele><time>2026-04-12T08:44:52Z</time></trkpt><trkpt lat="42.54601750627025" lon="11.903678180044661"><ele>314.4</ele><time>2026-04-12T08:44:53Z</time></trkpt><trkpt lat="42.54605808166151" lon="11.903554267018936"><ele>314.6</ele><time>2026-04-12T08:44:54Z</time></trkpt><trkpt lat="42.546100890516044" lon="11.903429142169523"><ele>314.8</ele><time>2026-04-12T08:44:55Z</time></trkpt><trkpt lat="42.546143452713544" lon="11.903298270268277"><ele>315.0</ele><time>2026-04-12T08:44:56Z</time></trkpt><trkpt lat="42.54619024544347" lon="11.903160707072969"><ele>314.5</ele><time>2026-04-12T08:44:57Z</time></trkpt><trkpt lat="42.54623563306966" lon="11.903017277213644"><ele>314.0</ele><time>2026-04-12T08:44:58Z</time></trkpt><trkpt lat="42.54628100084688" lon="11.902874732487607"><ele>313.5</ele><time>2026-04-12T08:44:59Z</time></trkpt><trkpt lat="42.546327588780606" lon="11.902732020865843"><ele>313.0</ele><time>2026-04-12T08:45:00Z</time></trkpt><trkpt lat="42.54637437124478" lon="11.902582887900161"><ele>313.25</ele><time>2026-04-12T08:45:01Z</time></trkpt><trkpt lat="42.546422592854405" lon="11.902419748024894"><ele>313.5</ele><time>2026-04-12T08:45:02Z</time></trkpt><trkpt lat="42.54647484508327" lon="11.902248331171686"><ele>313.75</ele><time>2026-04-12T08:45:03Z</time></trkpt><trkpt lat="42.546531648555494" lon="11.902064145257514"><ele>314.0</ele><time>2026-04-12T08:45:04Z</time></trkpt><trkpt lat="42.54659555244914" lon="11.901870332753795"><ele>313.75</ele><time>2026-04-12T08:45:05Z</time></trkpt><trkpt lat="42.546661522053306" lon="11.901679446073214"><ele>313.5</ele><time>2026-04-12T08:45:06Z</time></trkpt><trkpt lat="42.546721965568025" lon="11.901499189379852"><ele>313.25</ele><time>2026-04-12T08:45:07Z</time></trkpt><trkpt lat="42.5467750808133" lon="11.901317353764243"><ele>313.0</ele><time>2026-04-12T08:45:08Z</time></trkpt><trkpt lat="42.54682809287188" lon="11.901143747802326"><ele>313.0</ele><time>2026-04-12T08:45:09Z</time></trkpt><trkpt lat="42.546878137216346" lon="11.90099060186112"><ele>313.0</ele><time>2026-04-12T08:45:10Z</time></trkpt><trkpt lat="42.5469251407573" lon="11.900849256370657"><ele>313.0</ele><time>2026-04-12T08:45:11Z</time></trkpt><trkpt lat="42.546971656026365" lon="11.900708969205"><ele>313.0</ele><time>2026-04-12T08:45:12Z</time></trkpt><trkpt lat="42.54701648969975" lon="11.900569452269144"><ele>313.0</ele><time>2026-04-12T08:45:13Z</time></trkpt><trkpt lat="42.54705843616933" lon="11.900432327045198"><ele>313.0</ele><time>2026-04-12T08:45:14Z</time></trkpt><trkpt lat="42.54709832805872" lon="11.900306303888192"><ele>313.0</ele><time>2026-04-12T08:45:15Z</time></trkpt><trkpt lat="42.5471336569659" lon="11.900192699926933"><ele>313.0</ele><time>2026-04-12T08:45:16Z</time></trkpt><trkpt lat="42.54716599827708" lon="11.900089589474936"><ele>313.0</ele><time>2026-04-12T08:45:17Z</time></trkpt><trkpt lat="42.54719801443822" lon="11.89999384320118"><ele>313.3333333333333</ele><time>2026-04-12T08:45:18Z</time></trkpt><trkpt lat="42.54722854916433" lon="11.899903407235954"><ele>313.66666666666663</ele><time>2026-04-12T08:45:19Z</time></trkpt><trkpt lat="42.54725659254982" lon="11.89982315001783"><ele>314.0</ele><time>2026-04-12T08:45:20Z</time></trkpt><trkpt lat="42.547340310513306" lon="11.899705458780883"><ele>314.3333333333333</ele><time>2026-04-12T08:45:22Z</time></trkpt><trkpt lat="42.54735179463019" lon="11.899620604770476"><ele>314.6666666666667</ele><time>2026-04-12T08:45:23Z</time></trkpt><trkpt lat="42.54746092421663" lon="11.899573443405071"><ele>315.0</ele><time>2026-04-12T08:45:24Z</time></trkpt><trkpt lat="42.5475180047937" lon="11.899475162663949"><ele>315.0</ele><time>2026-04-12T08:45:25Z</time></trkpt><trkpt lat="42.5475486323483" lon="11.899352815622144"><ele>315.0</ele><time>2026-04-12T08:45:26Z</time></trkpt><trkpt lat="42.54753191451735" lon="11.899214735247945"><ele>315.0</ele><time>2026-04-12T08:45:27Z</time></trkpt><trkpt lat="42.54751702125137" lon="11.899063185745115"><ele>315.0</ele><time>2026-04-12T08:45:28Z</time></trkpt><trkpt lat="42.54754651988881" lon="11.898924100816261"><ele>315.0</ele><time>2026-04-12T08:45:29Z</time></trkpt><trkpt lat="42.54760110664892" lon="11.898794448976743"><ele>315.2</ele><time>2026-04-12T08:45:30Z</time></trkpt><trkpt lat="42.54766080208479" lon="11.898668368946794"><ele>315.4</ele><time>2026-04-12T08:45:31Z</time></trkpt><trkpt lat="42.54771412362298" lon="11.898536952157075"><ele>315.6</ele><time>2026-04-12T08:45:32.001Z</time></trkpt><trkpt lat="42.54776292035482" lon="11.898404479516703"><ele>315.8</ele><time>2026-04-12T08:45:33.001Z</time></trkpt><trkpt lat="42.5478094781276" lon="11.89827798907241"><ele>316.0</ele><time>2026-04-12T08:45:34.001Z</time></trkpt><trkpt lat="42.54786088880034" lon="11.898155997337959"><ele>317.5</ele><time>2026-04-12T08:45:35.001Z</time></trkpt><trkpt lat="42.54792111064744" lon="11.898025889703487"><ele>319.0</ele><time>2026-04-12T08:45:36.001Z</time></trkpt><trkpt lat="42.54798584238221" lon="11.897881478921244"><ele>320.5</ele><time>2026-04-12T08:45:37.001Z</time></trkpt><trkpt lat="42.54805234606166" lon="11.897729239275801"><ele>322.0</ele><time>2026-04-12T08:45:38.001Z</time></trkpt><trkpt lat="42.54812116055861" lon="11.897581226718296"><ele>322.0</ele><time>2026-04-12T08:45:39.001Z</time></trkpt><trkpt lat="42.54819159147637" lon="11.897424867199092"><ele>322.0</ele><time>2026-04-12T08:45:40.001Z</time></trkpt><trkpt lat="42.54827015954723" lon="11.897253118999693"><ele>322.0</ele><time>2026-04-12T08:45:41.001Z</time></trkpt><trkpt lat="42.548352580595974" lon="11.897075317976828"><ele>322.0</ele><time>2026-04-12T08:45:42.001Z</time></trkpt><trkpt lat="42.548431726792" lon="11.8968987276855"><ele>322.66666666666663</ele><time>2026-04-12T08:45:43.001Z</time></trkpt><trkpt lat="42.548514377228926" lon="11.896707174733816"><ele>323.3333333333333</ele><time>2026-04-12T08:45:44.001Z</time></trkpt><trkpt lat="42.548603589269625" lon="11.896513458232107"><ele>324.0</ele><time>2026-04-12T08:45:45.001Z</time></trkpt><trkpt lat="42.54869669887818" lon="11.896315347157168"><ele>323.3333333333333</ele><time>2026-04-12T08:45:46.001Z</time></trkpt><trkpt lat="42.54878961903451" lon="11.896113243660853"><ele>322.66666666666663</ele><time>2026-04-12T08:45:47.001Z</time></trkpt><trkpt lat="42.548883073476354" lon="11.895909718187754"><ele>322.0</ele><time>2026-04-12T08:45:48.001Z</time></trkpt><trkpt lat="42.54896871347834" lon="11.895723036375937"><ele>321.3333333333333</ele><time>2026-04-12T08:45:49.001Z</time></trkpt><trkpt lat="42.54905578774631" lon="11.895535335274328"><ele>320.6666666666667</ele><time>2026-04-12T08:45:50.001Z</time></trkpt><trkpt lat="42.54914415636552" lon="11.895340282041275"><ele>320.0</ele><time>2026-04-12T08:45:51.001Z</time></trkpt><trkpt lat="42.54923635804134" lon="11.895144418166108"><ele>320.0</ele><time>2026-04-12T08:45:52.001Z</time></trkpt><trkpt lat="42.5493284118815" lon="11.894946133232581"><ele>320.0</ele><time>2026-04-12T08:45:53.001Z</time></trkpt><trkpt lat="42.54942038448544" lon="11.894742386631993"><ele>320.0</ele><time>2026-04-12T08:45:54.001Z</time></trkpt><trkpt lat="42.54951339727954" lon="11.894535785574107"><ele>319.33333333333337</ele><time>2026-04-12T08:45:55.001Z</time></trkpt><trkpt lat="42.54960869768332" lon="11.894324897852158"><ele>318.6666666666667</ele><time>2026-04-12T08:45:56.001Z</time></trkpt><trkpt lat="42.549699340808715" lon="11.89412195340516"><ele>318.0</ele><time>2026-04-12T08:45:57.001Z</time></trkpt><trkpt lat="42.54978472943296" lon="11.893938265081474"><ele>318.0</ele><time>2026-04-12T08:45:58.001Z</time></trkpt><trkpt lat="42.549869192753036" lon="11.893749954536485"><ele>318.0</ele><time>2026-04-12T08:45:59.001Z</time></trkpt><trkpt lat="42.54996047914942" lon="11.893548084570195"><ele>318.0</ele><time>2026-04-12T08:46:00.001Z</time></trkpt><trkpt lat="42.550054440153474" lon="11.893345483819111"><ele>317.3333333333333</ele><time>2026-04-12T08:46:01.001Z</time></trkpt><trkpt lat="42.55014824623572" lon="11.893140246012099"><ele>316.66666666666663</ele><time>2026-04-12T08:46:02.001Z</time></trkpt><trkpt lat="42.550239315369325" lon="11.89293515912229"><ele>316.0</ele><time>2026-04-12T08:46:03.001Z</time></trkpt><trkpt lat="42.550325835959164" lon="11.892735585512634"><ele>315.0</ele><time>2026-04-12T08:46:04.001Z</time></trkpt><trkpt lat="42.55041174313679" lon="11.892544985561225"><ele>314.0</ele><time>2026-04-12T08:46:05.001Z</time></trkpt><trkpt lat="42.5504965436231" lon="11.892351270654995"><ele>313.0</ele><time>2026-04-12T08:46:06.001Z</time></trkpt><trkpt lat="42.55058019823331" lon="11.892151847474974"><ele>313.0</ele><time>2026-04-12T08:46:07.001Z</time></trkpt><trkpt lat="42.550662614433556" lon="11.891950000658445"><ele>313.0</ele><time>2026-04-12T08:46:08.001Z</time></trkpt><trkpt lat="42.55074390823988" lon="11.891756721829754"><ele>313.0</ele><time>2026-04-12T08:46:09.001Z</time></trkpt><trkpt lat="42.550824530882316" lon="11.891563469301197"><ele>313.66666666666663</ele><time>2026-04-12T08:46:10.001Z</time></trkpt><trkpt lat="42.55090596910348" lon="11.891368496590609"><ele>314.3333333333333</ele><time>2026-04-12T08:46:11.001Z</time></trkpt><trkpt lat="42.5509867765734" lon="11.891177318534856"><ele>315.0</ele><time>2026-04-12T08:46:12.001Z</time></trkpt><trkpt lat="42.551066312331685" lon="11.890979735426983"><ele>315.3333333333333</ele><time>2026-04-12T08:46:13.001Z</time></trkpt><trkpt lat="42.551148794128636" lon="11.890787362896434"><ele>315.66666666666663</ele><time>2026-04-12T08:46:14.001Z</time></trkpt><trkpt lat="42.551235555525956" lon="11.890594436389096"><ele>316.0</ele><time>2026-04-12T08:46:15.001Z</time></trkpt><trkpt lat="42.55131971727369" lon="11.890408844526926"><ele>316.0</ele><time>2026-04-12T08:46:16.001Z</time></trkpt><trkpt lat="42.55140647815576" lon="11.890216206988086"><ele>316.0</ele><time>2026-04-12T08:46:17.001Z</time></trkpt><trkpt lat="42.55150381556136" lon="11.890028196946318"><ele>316.0</ele><time>2026-04-12T08:46:18.001Z</time></trkpt><trkpt lat="42.55160748349526" lon="11.889836866659783"><ele>316.0</ele><time>2026-04-12T08:46:19.001Z</time></trkpt><trkpt lat="42.55172016018866" lon="11.889634707192249"><ele>316.0</ele><time>2026-04-12T08:46:20.001Z</time></trkpt><trkpt lat="42.55186106590379" lon="11.889435816375435"><ele>316.0</ele><time>2026-04-12T08:46:21.001Z</time></trkpt><trkpt lat="42.551949011470015" lon="11.889279644302368"><ele>315.66666666666663</ele><time>2026-04-12T08:46:22.001Z</time></trkpt><trkpt lat="42.55206932858749" lon="11.889125015403613"><ele>315.3333333333333</ele><time>2026-04-12T08:46:23.001Z</time></trkpt><trkpt lat="42.5522052002991" lon="11.888980753720634"><ele>315.0</ele><time>2026-04-12T08:46:24.001Z</time></trkpt><trkpt lat="42.55234198061417" lon="11.888846765996671"><ele>315.0</ele><time>2026-04-12T08:46:25.001Z</time></trkpt><trkpt lat="42.55246859736915" lon="11.888714563781571"><ele>315.0</ele><time>2026-04-12T08:46:26.001Z</time></trkpt><trkpt lat="42.55259721785571" lon="11.888600112997056"><ele>315.0</ele><time>2026-04-12T08:46:27.001Z</time></trkpt><trkpt lat="42.55274549388102" lon="11.88849804983679"><ele>314.75</ele><time>2026-04-12T08:46:28.001Z</time></trkpt><trkpt lat="42.55288331760724" lon="11.88841648442553"><ele>314.5</ele><time>2026-04-12T08:46:29.001Z</time></trkpt><trkpt lat="42.55301794198055" lon="11.888336997665577"><ele>314.25</ele><time>2026-04-12T08:46:30.001Z</time></trkpt><trkpt lat="42.55315873846996" lon="11.888264306584377"><ele>314.0</ele><time>2026-04-12T08:46:31.001Z</time></trkpt><trkpt lat="42.55330568473187" lon="11.888201014763395"><ele>314.0</ele><time>2026-04-12T08:46:32.002Z</time></trkpt><trkpt lat="42.55345875861137" lon="11.88814993040368"><ele>314.0</ele><time>2026-04-12T08:46:33.002Z</time></trkpt><trkpt lat="42.55361583101299" lon="11.888107714512046"><ele>314.0</ele><time>2026-04-12T08:46:34.002Z</time></trkpt><trkpt lat="42.55377512219764" lon="11.888069605952122"><ele>313.6666666666667</ele><time>2026-04-12T08:46:35.002Z</time></trkpt><trkpt lat="42.55393887226396" lon="11.888029332825798"><ele>313.3333333333333</ele><time>2026-04-12T08:46:36.002Z</time></trkpt><trkpt lat="42.55409875967101" lon="11.887987411477527"><ele>313.0</ele><time>2026-04-12T08:46:37.002Z</time></trkpt><trkpt lat="42.55425640556137" lon="11.887937899951169"><ele>313.0</ele><time>2026-04-12T08:46:38.002Z</time></trkpt><trkpt lat="42.55441002794611" lon="11.887874294138989"><ele>313.0</ele><time>2026-04-12T08:46:39.002Z</time></trkpt><trkpt lat="42.5545590120382" lon="11.887792213246337"><ele>313.0</ele><time>2026-04-12T08:46:40.002Z</time></trkpt><trkpt lat="42.55470884025812" lon="11.88770661429147"><ele>312.66666666666663</ele><time>2026-04-12T08:46:41.002Z</time></trkpt><trkpt lat="42.554861520086206" lon="11.88761424321026"><ele>312.3333333333333</ele><time>2026-04-12T08:46:42.002Z</time></trkpt><trkpt lat="42.555012597816656" lon="11.88751867779055"><ele>312.0</ele><time>2026-04-12T08:46:43.002Z</time></trkpt><trkpt lat="42.555155282733026" lon="11.887424963911636"><ele>312.0</ele><time>2026-04-12T08:46:44.002Z</time></trkpt><trkpt lat="42.55529795655376" lon="11.887325832027427"><ele>312.0</ele><time>2026-04-12T08:46:45.002Z</time></trkpt><trkpt lat="42.555444418054726" lon="11.887223934487762"><ele>312.0</ele><time>2026-04-12T08:46:46.002Z</time></trkpt><trkpt lat="42.555581781334766" lon="11.887130623650066"><ele>312.0</ele><time>2026-04-12T08:46:47.002Z</time></trkpt><trkpt lat="42.55571433853632" lon="11.887041230929402"><ele>312.0</ele><time>2026-04-12T08:46:48.002Z</time></trkpt><trkpt lat="42.55583970115028" lon="11.886956439225402"><ele>312.0</ele><time>2026-04-12T08:46:49Z</time></trkpt><trkpt lat="42.555960067955525" lon="11.886875556135573"><ele>312.0</ele><time>2026-04-12T08:46:50Z</time></trkpt><trkpt lat="42.55607742485144" lon="11.88679696830176"><ele>312.0</ele><time>2026-04-12T08:46:51Z</time></trkpt><trkpt lat="42.556188958726096" lon="11.886717069157239"><ele>312.0</ele><time>2026-04-12T08:46:52Z</time></trkpt><trkpt lat="42.55629534912163" lon="11.886626596242012"><ele>312.0</ele><time>2026-04-12T08:46:53Z</time></trkpt><trkpt lat="42.556405215269706" lon="11.886530359473266"><ele>312.0</ele><time>2026-04-12T08:46:54Z</time></trkpt><trkpt lat="42.55650650082908" lon="11.886431199996663"><ele>312.0</ele><time>2026-04-12T08:46:55Z</time></trkpt><trkpt lat="42.556603178059426" lon="11.88633951636086"><ele>312.0</ele><time>2026-04-12T08:46:56Z</time></trkpt><trkpt lat="42.55669910825187" lon="11.886237390700156"><ele>312.0</ele><time>2026-04-12T08:46:57Z</time></trkpt><trkpt lat="42.55679745843062" lon="11.88612409018104"><ele>312.0</ele><time>2026-04-12T08:46:58Z</time></trkpt><trkpt lat="42.55690023042499" lon="11.885992967778646"><ele>312.0</ele><time>2026-04-12T08:46:59Z</time></trkpt><trkpt lat="42.55700293985945" lon="11.885848811990641"><ele>312.0</ele><time>2026-04-12T08:47:00Z</time></trkpt><trkpt lat="42.55710416288751" lon="11.885687099860201"><ele>312.0</ele><time>2026-04-12T08:47:01Z</time></trkpt><trkpt lat="42.5572065568103" lon="11.885501103511542"><ele>311.3333333333333</ele><time>2026-04-12T08:47:02Z</time></trkpt><trkpt lat="42.557315694914" lon="11.885309425889345"><ele>310.66666666666663</ele><time>2026-04-12T08:47:03Z</time></trkpt><trkpt lat="42.55744451019168" lon="11.88511707470962"><ele>310.0</ele><time>2026-04-12T08:47:04Z</time></trkpt><trkpt lat="42.55757757259342" lon="11.884956672250137"><ele>310.0</ele><time>2026-04-12T08:47:05Z</time></trkpt><trkpt lat="42.55771568455892" lon="11.884796807956189"><ele>310.0</ele><time>2026-04-12T08:47:06Z</time></trkpt><trkpt lat="42.5578516455432" lon="11.88464863199871"><ele>310.0</ele><time>2026-04-12T08:47:07Z</time></trkpt><trkpt lat="42.557989587123465" lon="11.884503092796155"><ele>309.66666666666663</ele><time>2026-04-12T08:47:08Z</time></trkpt><trkpt lat="42.558127155285085" lon="11.884361170257174"><ele>309.3333333333333</ele><time>2026-04-12T08:47:09Z</time></trkpt><trkpt lat="42.55826308618093" lon="11.88422724082268"><ele>309.0</ele><time>2026-04-12T08:47:10Z</time></trkpt><trkpt lat="42.55840057698518" lon="11.884092663942521"><ele>309.0</ele><time>2026-04-12T08:47:11Z</time></trkpt><trkpt lat="42.55853866925941" lon="11.883952256376448"><ele>309.0</ele><time>2026-04-12T08:47:12Z</time></trkpt><trkpt lat="42.55867710077724" lon="11.8838171810939"><ele>309.0</ele><time>2026-04-12T08:47:13Z</time></trkpt><trkpt lat="42.55880802562795" lon="11.883684104762795"><ele>308.6666666666667</ele><time>2026-04-12T08:47:14Z</time></trkpt><trkpt lat="42.55893920995115" lon="11.883553188392803"><ele>308.33333333333337</ele><time>2026-04-12T08:47:15Z</time></trkpt><trkpt lat="42.5590805152005" lon="11.883419712482812"><ele>308.0</ele><time>2026-04-12T08:47:16Z</time></trkpt><trkpt lat="42.55921833257473" lon="11.883301077909245"><ele>308.6666666666667</ele><time>2026-04-12T08:47:17Z</time></trkpt><trkpt lat="42.55934635435036" lon="11.883186154920907"><ele>309.3333333333333</ele><time>2026-04-12T08:47:18Z</time></trkpt><trkpt lat="42.55948032704269" lon="11.883057640470842"><ele>310.0</ele><time>2026-04-12T08:47:19Z</time></trkpt><trkpt lat="42.55961615412528" lon="11.882931887426583"><ele>310.0</ele><time>2026-04-12T08:47:20Z</time></trkpt><trkpt lat="42.55974833207043" lon="11.88280992999187"><ele>310.0</ele><time>2026-04-12T08:47:21Z</time></trkpt><trkpt lat="42.55988050155267" lon="11.882685374540324"><ele>310.0</ele><time>2026-04-12T08:47:22Z</time></trkpt><trkpt lat="42.56001387710375" lon="11.882560657811545"><ele>310.3333333333333</ele><time>2026-04-12T08:47:23Z</time></trkpt><trkpt lat="42.560152585471805" lon="11.882429998222989"><ele>310.6666666666667</ele><time>2026-04-12T08:47:24Z</time></trkpt><trkpt lat="42.560294797964524" lon="11.882300543085169"><ele>311.0</ele><time>2026-04-12T08:47:25Z</time></trkpt><trkpt lat="42.5604372614377" lon="11.882174824688787"><ele>310.33333333333337</ele><time>2026-04-12T08:47:26Z</time></trkpt><trkpt lat="42.560581344794706" lon="11.88204062677907"><ele>309.6666666666667</ele><time>2026-04-12T08:47:27Z</time></trkpt><trkpt lat="42.56073266352916" lon="11.88190420465956"><ele>309.0</ele><time>2026-04-12T08:47:28Z</time></trkpt><trkpt lat="42.56088494482804" lon="11.881769629169717"><ele>309.6666666666667</ele><time>2026-04-12T08:47:29Z</time></trkpt><trkpt lat="42.561033735571456" lon="11.881634579660059"><ele>310.33333333333337</ele><time>2026-04-12T08:47:30Z</time></trkpt><trkpt lat="42.56117621806173" lon="11.881503178131174"><ele>311.0</ele><time>2026-04-12T08:47:31Z</time></trkpt><trkpt lat="42.5613067680166" lon="11.881381467804653"><ele>311.0</ele><time>2026-04-12T08:47:32.001Z</time></trkpt><trkpt lat="42.56144211274217" lon="11.881262757881913"><ele>311.0</ele><time>2026-04-12T08:47:33.001Z</time></trkpt><trkpt lat="42.56156698497307" lon="11.881142606342951"><ele>311.0</ele><time>2026-04-12T08:47:34.001Z</time></trkpt><trkpt lat="42.561691546878514" lon="11.881022626513795"><ele>312.33333333333337</ele><time>2026-04-12T08:47:35.001Z</time></trkpt><trkpt lat="42.561806543429796" lon="11.88088545422884"><ele>313.6666666666667</ele><time>2026-04-12T08:47:36.001Z</time></trkpt><trkpt lat="42.56197384426779" lon="11.880769862679799"><ele>315.0</ele><time>2026-04-12T08:47:37.001Z</time></trkpt><trkpt lat="42.56211817562288" lon="11.88063946889466"><ele>315.6666666666667</ele><time>2026-04-12T08:47:38.001Z</time></trkpt><trkpt lat="42.56224967759602" lon="11.88051225000299"><ele>316.33333333333337</ele><time>2026-04-12T08:47:39.001Z</time></trkpt><trkpt lat="42.56237279595739" lon="11.880384341944275"><ele>317.0</ele><time>2026-04-12T08:47:40.001Z</time></trkpt><trkpt lat="42.56250001841318" lon="11.88025954253864"><ele>317.0</ele><time>2026-04-12T08:47:41.001Z</time></trkpt><trkpt lat="42.56264003334226" lon="11.880134804725875"><ele>317.0</ele><time>2026-04-12T08:47:42.001Z</time></trkpt><trkpt lat="42.56279140300634" lon="11.879996530439941"><ele>317.0</ele><time>2026-04-12T08:47:43.001Z</time></trkpt><trkpt lat="42.56294312348734" lon="11.879854438525694"><ele>318.33333333333337</ele><time>2026-04-12T08:47:44.001Z</time></trkpt><trkpt lat="42.563093234835414" lon="11.879709203233983"><ele>319.6666666666667</ele><time>2026-04-12T08:47:45.001Z</time></trkpt><trkpt lat="42.563247815468486" lon="11.879571766960137"><ele>321.0</ele><time>2026-04-12T08:47:46.001Z</time></trkpt><trkpt lat="42.563404105452335" lon="11.87943768298649"><ele>321.0</ele><time>2026-04-12T08:47:47.001Z</time></trkpt><trkpt lat="42.56355237833784" lon="11.879305656580788"><ele>321.0</ele><time>2026-04-12T08:47:48.001Z</time></trkpt><trkpt lat="42.56368418062662" lon="11.879179929460856"><ele>321.0</ele><time>2026-04-12T08:47:49.001Z</time></trkpt><trkpt lat="42.56382034954509" lon="11.879054438007389"><ele>323.0</ele><time>2026-04-12T08:47:50.001Z</time></trkpt><trkpt lat="42.563963764815874" lon="11.878928708153433"><ele>325.0</ele><time>2026-04-12T08:47:51.001Z</time></trkpt><trkpt lat="42.56410767614491" lon="11.878802004136512"><ele>327.0</ele><time>2026-04-12T08:47:52.001Z</time></trkpt><trkpt lat="42.56424763488772" lon="11.878671594354522"><ele>327.0</ele><time>2026-04-12T08:47:53.001Z</time></trkpt><trkpt lat="42.56438347373622" lon="11.878538292698764"><ele>327.0</ele><time>2026-04-12T08:47:54.001Z</time></trkpt><trkpt lat="42.56451994036024" lon="11.878409850292815"><ele>327.0</ele><time>2026-04-12T08:47:55.001Z</time></trkpt><trkpt lat="42.56465285120592" lon="11.878269769202754"><ele>327.6666666666667</ele><time>2026-04-12T08:47:56.001Z</time></trkpt><trkpt lat="42.56478370241065" lon="11.878110008611438"><ele>328.33333333333337</ele><time>2026-04-12T08:47:57.001Z</time></trkpt><trkpt lat="42.56490702621571" lon="11.877919833763364"><ele>329.0</ele><time>2026-04-12T08:47:58.001Z</time></trkpt><trkpt lat="42.56500729465328" lon="11.877707118276941"><ele>329.5</ele><time>2026-04-12T08:47:59.001Z</time></trkpt><trkpt lat="42.56510311636487" lon="11.87752744462642"><ele>330.0</ele><time>2026-04-12T08:48:00.001Z</time></trkpt><trkpt lat="42.56518430654215" lon="11.877361714001795"><ele>330.5</ele><time>2026-04-12T08:48:01.001Z</time></trkpt><trkpt lat="42.56525630501243" lon="11.877222542827477"><ele>331.0</ele><time>2026-04-12T08:48:02.001Z</time></trkpt><trkpt lat="42.56532354156483" lon="11.877104500296252"><ele>331.20000000000005</ele><time>2026-04-12T08:48:03.001Z</time></trkpt><trkpt lat="42.5653877411969" lon="11.876979680401353"><ele>331.40000000000003</ele><time>2026-04-12T08:48:04.001Z</time></trkpt><trkpt lat="42.56545211307703" lon="11.876852438387283"><ele>331.6</ele><time>2026-04-12T08:48:05.001Z</time></trkpt><trkpt lat="42.565515183490824" lon="11.876735546990243"><ele>331.8</ele><time>2026-04-12T08:48:06.001Z</time></trkpt><trkpt lat="42.565581475694664" lon="11.87660806585336"><ele>332.0</ele><time>2026-04-12T08:48:07.001Z</time></trkpt><trkpt lat="42.5656537366436" lon="11.876465565789747"><ele>332.0</ele><time>2026-04-12T08:48:08.001Z</time></trkpt><trkpt lat="42.565738374721015" lon="11.876304652907383"><ele>332.0</ele><time>2026-04-12T08:48:09.001Z</time></trkpt><trkpt lat="42.56583015408314" lon="11.876130470996575"><ele>332.0</ele><time>2026-04-12T08:48:10.001Z</time></trkpt><trkpt lat="42.56593273623123" lon="11.875936177533726"><ele>331.6666666666667</ele><time>2026-04-12T08:48:11.001Z</time></trkpt><trkpt lat="42.56604382652151" lon="11.875727021049796"><ele>331.3333333333333</ele><time>2026-04-12T08:48:12.001Z</time></trkpt><trkpt lat="42.56615175079423" lon="11.875520450782385"><ele>331.0</ele><time>2026-04-12T08:48:13.001Z</time></trkpt><trkpt lat="42.566258244279126" lon="11.87531545832027"><ele>330.3333333333333</ele><time>2026-04-12T08:48:14.001Z</time></trkpt><trkpt lat="42.56635948956065" lon="11.875118850591619"><ele>329.6666666666667</ele><time>2026-04-12T08:48:15.001Z</time></trkpt><trkpt lat="42.566455844723954" lon="11.87493188882351"><ele>329.0</ele><time>2026-04-12T08:48:16.001Z</time></trkpt><trkpt lat="42.566543541429766" lon="11.874757636800533"><ele>329.0</ele><time>2026-04-12T08:48:17.001Z</time></trkpt><trkpt lat="42.566628754769255" lon="11.874593935599009"><ele>329.0</ele><time>2026-04-12T08:48:18.001Z</time></trkpt><trkpt lat="42.56670703823732" lon="11.874442918991166"><ele>329.0</ele><time>2026-04-12T08:48:19.001Z</time></trkpt><trkpt lat="42.56678195544631" lon="11.874300484016981"><ele>329.0</ele><time>2026-04-12T08:48:20.001Z</time></trkpt><trkpt lat="42.56685553158263" lon="11.874161950511946"><ele>328.75</ele><time>2026-04-12T08:48:21.001Z</time></trkpt><trkpt lat="42.56692788120611" lon="11.874013568473005"><ele>328.5</ele><time>2026-04-12T08:48:22.001Z</time></trkpt><trkpt lat="42.56700242701048" lon="11.873846333734944"><ele>328.25</ele><time>2026-04-12T08:48:23.001Z</time></trkpt><trkpt lat="42.56709032843535" lon="11.873678682138316"><ele>328.0</ele><time>2026-04-12T08:48:24.001Z</time></trkpt><trkpt lat="42.56715568006604" lon="11.873494441719293"><ele>329.0</ele><time>2026-04-12T08:48:25.001Z</time></trkpt><trkpt lat="42.567344960865455" lon="11.873399122992419"><ele>330.0</ele><time>2026-04-12T08:48:26.001Z</time></trkpt><trkpt lat="42.56749028223221" lon="11.873273704540242"><ele>331.0</ele><time>2026-04-12T08:48:27.001Z</time></trkpt><trkpt lat="42.567642315776986" lon="11.873126565251175"><ele>331.0</ele><time>2026-04-12T08:48:28.001Z</time></trkpt><trkpt lat="42.56780088351227" lon="11.872954601757533"><ele>331.0</ele><time>2026-04-12T08:48:29.001Z</time></trkpt><trkpt lat="42.56796414302581" lon="11.8727818409858"><ele>331.0</ele><time>2026-04-12T08:48:30.001Z</time></trkpt><trkpt lat="42.568135097775" lon="11.872611932616316"><ele>331.3333333333333</ele><time>2026-04-12T08:48:31.001Z</time></trkpt><trkpt lat="42.5683127555473" lon="11.872431877365141"><ele>331.6666666666667</ele><time>2026-04-12T08:48:32.001Z</time></trkpt><trkpt lat="42.568490425114234" lon="11.872255432971278"><ele>332.0</ele><time>2026-04-12T08:48:33.001Z</time></trkpt><trkpt lat="42.56865481507401" lon="11.8721019069195"><ele>332.0</ele><time>2026-04-12T08:48:34.002Z</time></trkpt><trkpt lat="42.56881323808871" lon="11.87196028789921"><ele>332.0</ele><time>2026-04-12T08:48:35.002Z</time></trkpt><trkpt lat="42.56895825895713" lon="11.87182686446706"><ele>332.0</ele><time>2026-04-12T08:48:36.002Z</time></trkpt><trkpt lat="42.56909984536007" lon="11.871691188586322"><ele>333.0</ele><time>2026-04-12T08:48:37.002Z</time></trkpt><trkpt lat="42.56924874130256" lon="11.871545508790703"><ele>334.0</ele><time>2026-04-12T08:48:38.002Z</time></trkpt><trkpt lat="42.56938688967662" lon="11.871406960894472"><ele>335.0</ele><time>2026-04-12T08:48:39.002Z</time></trkpt><trkpt lat="42.56952788286929" lon="11.8712666769496"><ele>336.33333333333337</ele><time>2026-04-12T08:48:40.002Z</time></trkpt><trkpt lat="42.56967345341693" lon="11.871121106524848"><ele>337.6666666666667</ele><time>2026-04-12T08:48:41.002Z</time></trkpt><trkpt lat="42.56981765533787" lon="11.870977548483578"><ele>339.0</ele><time>2026-04-12T08:48:42.002Z</time></trkpt><trkpt lat="42.56995283591776" lon="11.870848099608057"><ele>339.0</ele><time>2026-04-12T08:48:43.002Z</time></trkpt><trkpt lat="42.57007399352208" lon="11.870728153875323"><ele>339.0</ele><time>2026-04-12T08:48:44.002Z</time></trkpt><trkpt lat="42.57018271934075" lon="11.870627709795516"><ele>339.0</ele><time>2026-04-12T08:48:45.002Z</time></trkpt><trkpt lat="42.57028511086426" lon="11.870539543327741"><ele>339.0</ele><time>2026-04-12T08:48:46.002Z</time></trkpt><trkpt lat="42.57039738656794" lon="11.870472718343503"><ele>340.75</ele><time>2026-04-12T08:48:47.002Z</time></trkpt><trkpt lat="42.57053320660397" lon="11.870423714416434"><ele>342.5</ele><time>2026-04-12T08:48:48.002Z</time></trkpt><trkpt lat="42.57067167290731" lon="11.870370944430352"><ele>344.25</ele><time>2026-04-12T08:48:49.002Z</time></trkpt><trkpt lat="42.570791731894154" lon="11.870325897843081"><ele>346.0</ele><time>2026-04-12T08:48:50.002Z</time></trkpt><trkpt lat="42.57090263767343" lon="11.870290396042941"><ele>346.0</ele><time>2026-04-12T08:48:51.002Z</time></trkpt><trkpt lat="42.571019126195715" lon="11.870286180384639"><ele>346.0</ele><time>2026-04-12T08:48:52.002Z</time></trkpt><trkpt lat="42.57112160375629" lon="11.870266760782766"><ele>346.0</ele><time>2026-04-12T08:48:53.002Z</time></trkpt><trkpt lat="42.571215515584086" lon="11.870227820229573"><ele>346.0</ele><time>2026-04-12T08:48:54.002Z</time></trkpt><trkpt lat="42.57131125299056" lon="11.870212860237002"><ele>346.0</ele><time>2026-04-12T08:48:55Z</time></trkpt><trkpt lat="42.57141092889167" lon="11.870188929634137"><ele>347.25</ele><time>2026-04-12T08:48:56Z</time></trkpt><trkpt lat="42.571534004095994" lon="11.870166235026844"><ele>348.5</ele><time>2026-04-12T08:48:57Z</time></trkpt><trkpt lat="42.571667054296505" lon="11.870098161045233"><ele>349.75</ele><time>2026-04-12T08:48:58Z</time></trkpt><trkpt lat="42.57180908278995" lon="11.8700207409731"><ele>351.0</ele><time>2026-04-12T08:48:59Z</time></trkpt><trkpt lat="42.57194756056467" lon="11.869949331786136"><ele>351.0</ele><time>2026-04-12T08:49:00Z</time></trkpt><trkpt lat="42.572066239712605" lon="11.869884860023198"><ele>351.0</ele><time>2026-04-12T08:49:01Z</time></trkpt><trkpt lat="42.57218116796179" lon="11.869831318890343"><ele>351.0</ele><time>2026-04-12T08:49:02Z</time></trkpt><trkpt lat="42.57229408096218" lon="11.869770587336498"><ele>351.0</ele><time>2026-04-12T08:49:03Z</time></trkpt><trkpt lat="42.572406981978176" lon="11.86970407878393"><ele>351.0</ele><time>2026-04-12T08:49:04Z</time></trkpt><trkpt lat="42.57251966734852" lon="11.86963965921906"><ele>351.0</ele><time>2026-04-12T08:49:05Z</time></trkpt><trkpt lat="42.572632479559005" lon="11.869576260840399"><ele>351.0</ele><time>2026-04-12T08:49:06Z</time></trkpt><trkpt lat="42.57275072471564" lon="11.869506263885762"><ele>351.0</ele><time>2026-04-12T08:49:07Z</time></trkpt><trkpt lat="42.57287167817562" lon="11.869426971050439"><ele>349.0</ele><time>2026-04-12T08:49:08Z</time></trkpt><trkpt lat="42.57299165471859" lon="11.8693488385278"><ele>347.0</ele><time>2026-04-12T08:49:09Z</time></trkpt><trkpt lat="42.57311206747042" lon="11.869272185319845"><ele>345.0</ele><time>2026-04-12T08:49:10Z</time></trkpt><trkpt lat="42.57323783301946" lon="11.869199305906392"><ele>343.0</ele><time>2026-04-12T08:49:11Z</time></trkpt><trkpt lat="42.57336596424007" lon="11.86912639594004"><ele>340.3333333333333</ele><time>2026-04-12T08:49:12Z</time></trkpt><trkpt lat="42.57349634621359" lon="11.86903887404976"><ele>337.6666666666667</ele><time>2026-04-12T08:49:13Z</time></trkpt><trkpt lat="42.573627218008234" lon="11.868947081822556"><ele>335.0</ele><time>2026-04-12T08:49:14Z</time></trkpt><trkpt lat="42.573772684729775" lon="11.868858324885537"><ele>333.0</ele><time>2026-04-12T08:49:15Z</time></trkpt><trkpt lat="42.573919104853545" lon="11.868769104718888"><ele>331.0</ele><time>2026-04-12T08:49:16Z</time></trkpt><trkpt lat="42.57406959262628" lon="11.868669866399577"><ele>329.0</ele><time>2026-04-12T08:49:17Z</time></trkpt><trkpt lat="42.57422902028563" lon="11.86857859992242"><ele>329.0</ele><time>2026-04-12T08:49:18Z</time></trkpt><trkpt lat="42.57439256764355" lon="11.868488093127"><ele>329.0</ele><time>2026-04-12T08:49:19Z</time></trkpt><trkpt lat="42.57456324294649" lon="11.868380493525795"><ele>329.0</ele><time>2026-04-12T08:49:20Z</time></trkpt><trkpt lat="42.57473909191878" lon="11.868278544424863"><ele>324.6666666666667</ele><time>2026-04-12T08:49:21Z</time></trkpt><trkpt lat="42.574916831124376" lon="11.868166784128045"><ele>320.3333333333333</ele><time>2026-04-12T08:49:22Z</time></trkpt><trkpt lat="42.57509202196972" lon="11.868039568295092"><ele>316.0</ele><time>2026-04-12T08:49:23Z</time></trkpt><trkpt lat="42.575275065612" lon="11.867923049366343"><ele>314.0</ele><time>2026-04-12T08:49:24Z</time></trkpt><trkpt lat="42.57544303692621" lon="11.867818467240252"><ele>312.0</ele><time>2026-04-12T08:49:25Z</time></trkpt><trkpt lat="42.575603509362544" lon="11.867715497414645"><ele>310.0</ele><time>2026-04-12T08:49:26Z</time></trkpt><trkpt lat="42.57575953717803" lon="11.867615031898255"><ele>310.3333333333333</ele><time>2026-04-12T08:49:27Z</time></trkpt><trkpt lat="42.5759101501264" lon="11.867517536933292"><ele>310.6666666666667</ele><time>2026-04-12T08:49:28Z</time></trkpt><trkpt lat="42.576064333732944" lon="11.86742072453952"><ele>311.0</ele><time>2026-04-12T08:49:29Z</time></trkpt><trkpt lat="42.57621704211437" lon="11.867329297721117"><ele>310.25</ele><time>2026-04-12T08:49:30Z</time></trkpt><trkpt lat="42.57635754362697" lon="11.867242181892307"><ele>309.5</ele><time>2026-04-12T08:49:31Z</time></trkpt><trkpt lat="42.57649314620101" lon="11.867161962060433"><ele>308.75</ele><time>2026-04-12T08:49:32.001Z</time></trkpt><trkpt lat="42.576625183721454" lon="11.86708017821082"><ele>308.0</ele><time>2026-04-12T08:49:33.001Z</time></trkpt><trkpt lat="42.57674388163723" lon="11.867001600972642"><ele>308.0</ele><time>2026-04-12T08:49:34.001Z</time></trkpt><trkpt lat="42.57685109847652" lon="11.866929017124734"><ele>308.0</ele><time>2026-04-12T08:49:35.001Z</time></trkpt><trkpt lat="42.5769460034553" lon="11.866864153543636"><ele>308.0</ele><time>2026-04-12T08:49:36.001Z</time></trkpt><trkpt lat="42.57703979838593" lon="11.866809979709803"><ele>308.0</ele><time>2026-04-12T08:49:37.001Z</time></trkpt><trkpt lat="42.57711992480596" lon="11.866761743360046"><ele>308.0</ele><time>2026-04-12T08:49:38.001Z</time></trkpt><trkpt lat="42.57719081817911" lon="11.866731274557104"><ele>307.83333333333337</ele><time>2026-04-12T08:49:39.001Z</time></trkpt><trkpt lat="42.57726572623593" lon="11.866727576747577"><ele>307.6666666666667</ele><time>2026-04-12T08:49:40.001Z</time></trkpt><trkpt lat="42.57733352534588" lon="11.866784105177068"><ele>307.5</ele><time>2026-04-12T08:49:41.001Z</time></trkpt><trkpt lat="42.57737693967897" lon="11.866888710499634"><ele>307.3333333333333</ele><time>2026-04-12T08:49:42.001Z</time></trkpt><trkpt lat="42.5774296089444" lon="11.866993469758716"><ele>307.16666666666663</ele><time>2026-04-12T08:49:43.001Z</time></trkpt><trkpt lat="42.57748672985652" lon="11.8670997043886"><ele>307.0</ele><time>2026-04-12T08:49:44.001Z</time></trkpt><trkpt lat="42.577563911924855" lon="11.867205721264662"><ele>307.0</ele><time>2026-04-12T08:49:45.001Z</time></trkpt><trkpt lat="42.577630760491516" lon="11.867338364662276"><ele>307.0</ele><time>2026-04-12T08:49:46.001Z</time></trkpt><trkpt lat="42.57770158956405" lon="11.86744980802332"><ele>307.0</ele><time>2026-04-12T08:49:47.001Z</time></trkpt><trkpt lat="42.577757368128225" lon="11.867537268469546"><ele>307.0</ele><time>2026-04-12T08:49:48.001Z</time></trkpt><trkpt lat="42.577821498280954" lon="11.867651248042556"><ele>307.0</ele><time>2026-04-12T08:49:49.001Z</time></trkpt><trkpt lat="42.57788162708261" lon="11.86773676241277"><ele>306.8</ele><time>2026-04-12T08:49:50.001Z</time></trkpt><trkpt lat="42.5779348239768" lon="11.86781398535687"><ele>306.6</ele><time>2026-04-12T08:49:51.001Z</time></trkpt><trkpt lat="42.57798130581137" lon="11.867872409743013"><ele>306.40000000000003</ele><time>2026-04-12T08:49:52.001Z</time></trkpt><trkpt lat="42.57809200231315" lon="11.867920167627519"><ele>306.2</ele><time>2026-04-12T08:49:54.001Z</time></trkpt><trkpt lat="42.57820909345224" lon="11.867845517017223"><ele>306.0</ele><time>2026-04-12T08:49:56.001Z</time></trkpt><trkpt lat="42.57826057546994" lon="11.867757592983974"><ele>306.0</ele><time>2026-04-12T08:49:57.001Z</time></trkpt><trkpt lat="42.57831733650576" lon="11.867680825983996"><ele>306.0</ele><time>2026-04-12T08:49:58.001Z</time></trkpt><trkpt lat="42.57837675935994" lon="11.867577669318239"><ele>306.0</ele><time>2026-04-12T08:49:59.001Z</time></trkpt><trkpt lat="42.578441174311514" lon="11.8674640179678"><ele>306.0</ele><time>2026-04-12T08:50:00.001Z</time></trkpt><trkpt lat="42.57850389749097" lon="11.867353351496464"><ele>306.0</ele><time>2026-04-12T08:50:01.001Z</time></trkpt><trkpt lat="42.57856627532595" lon="11.867243294386434"><ele>306.0</ele><time>2026-04-12T08:50:02.001Z</time></trkpt><trkpt lat="42.578626891510005" lon="11.867136345429298"><ele>306.0</ele><time>2026-04-12T08:50:03.001Z</time></trkpt><trkpt lat="42.57869665980563" lon="11.867013248820887"><ele>306.0</ele><time>2026-04-12T08:50:04.001Z</time></trkpt><trkpt lat="42.57876410174603" lon="11.866894256772769"><ele>306.0</ele><time>2026-04-12T08:50:05.001Z</time></trkpt><trkpt lat="42.578827815600036" lon="11.866781842414056"><ele>306.0</ele><time>2026-04-12T08:50:06.001Z</time></trkpt><trkpt lat="42.57889866701637" lon="11.86665683480415"><ele>305.5</ele><time>2026-04-12T08:50:07.001Z</time></trkpt><trkpt lat="42.57896997176108" lon="11.86653102732213"><ele>305.0</ele><time>2026-04-12T08:50:08.001Z</time></trkpt><trkpt lat="42.57903284056928" lon="11.866383333523418"><ele>304.5</ele><time>2026-04-12T08:50:09.001Z</time></trkpt><trkpt lat="42.57912176926731" lon="11.866264934656979"><ele>304.0</ele><time>2026-04-12T08:50:10.001Z</time></trkpt><trkpt lat="42.57919665248305" lon="11.866134484162652"><ele>304.0</ele><time>2026-04-12T08:50:11.001Z</time></trkpt><trkpt lat="42.57926949390189" lon="11.866007658901783"><ele>304.0</ele><time>2026-04-12T08:50:12.001Z</time></trkpt><trkpt lat="42.579353987184795" lon="11.865861564888585"><ele>304.0</ele><time>2026-04-12T08:50:13.001Z</time></trkpt><trkpt lat="42.57943216178213" lon="11.86572639629888"><ele>304.0</ele><time>2026-04-12T08:50:14.001Z</time></trkpt><trkpt lat="42.57951750721935" lon="11.865578828874373"><ele>304.0</ele><time>2026-04-12T08:50:15.001Z</time></trkpt><trkpt lat="42.579603598964006" lon="11.865428663307712"><ele>304.0</ele><time>2026-04-12T08:50:16.001Z</time></trkpt><trkpt lat="42.57968554304781" lon="11.865285322166345"><ele>304.0</ele><time>2026-04-12T08:50:17.001Z</time></trkpt><trkpt lat="42.57976734225766" lon="11.865141706429744"><ele>304.0</ele><time>2026-04-12T08:50:18.001Z</time></trkpt><trkpt lat="42.57984458203712" lon="11.865005920817827"><ele>304.0</ele><time>2026-04-12T08:50:19.001Z</time></trkpt><trkpt lat="42.57991373685448" lon="11.86485997175533"><ele>304.0</ele><time>2026-04-12T08:50:20.001Z</time></trkpt><trkpt lat="42.58000242265546" lon="11.864722694919104"><ele>304.0</ele><time>2026-04-12T08:50:21.001Z</time></trkpt><trkpt lat="42.58007863642082" lon="11.864584248424935"><ele>304.0</ele><time>2026-04-12T08:50:22.001Z</time></trkpt><trkpt lat="42.58015033197723" lon="11.864448739335085"><ele>304.0</ele><time>2026-04-12T08:50:23.001Z</time></trkpt><trkpt lat="42.58022546238684" lon="11.864321220561363"><ele>304.0</ele><time>2026-04-12T08:50:24.001Z</time></trkpt><trkpt lat="42.58029776166973" lon="11.864196384297772"><ele>304.0</ele><time>2026-04-12T08:50:25.001Z</time></trkpt><trkpt lat="42.58036826113247" lon="11.86406735527316"><ele>304.0</ele><time>2026-04-12T08:50:26.001Z</time></trkpt><trkpt lat="42.58043781244264" lon="11.863947277982545"><ele>304.0</ele><time>2026-04-12T08:50:27.001Z</time></trkpt><trkpt lat="42.58051219107435" lon="11.863821719685552"><ele>304.0</ele><time>2026-04-12T08:50:28.001Z</time></trkpt><trkpt lat="42.580585766845644" lon="11.863702147684128"><ele>304.0</ele><time>2026-04-12T08:50:29.001Z</time></trkpt><trkpt lat="42.580672936783714" lon="11.863567619133297"><ele>304.0</ele><time>2026-04-12T08:50:30.001Z</time></trkpt><trkpt lat="42.5807591053135" lon="11.863440478723183"><ele>304.25</ele><time>2026-04-12T08:50:31.001Z</time></trkpt><trkpt lat="42.58084767068199" lon="11.863313772780426"><ele>304.5</ele><time>2026-04-12T08:50:32.001Z</time></trkpt><trkpt lat="42.58094030641983" lon="11.863185400756043"><ele>304.75</ele><time>2026-04-12T08:50:33.001Z</time></trkpt><trkpt lat="42.58102293261508" lon="11.863070563063673"><ele>305.0</ele><time>2026-04-12T08:50:34.001Z</time></trkpt><trkpt lat="42.58109874043055" lon="11.862967833922552"><ele>305.0</ele><time>2026-04-12T08:50:35.001Z</time></trkpt><trkpt lat="42.58116748632535" lon="11.862873470277181"><ele>305.0</ele><time>2026-04-12T08:50:36.001Z</time></trkpt><trkpt lat="42.58123963948906" lon="11.862775374895323"><ele>305.0</ele><time>2026-04-12T08:50:37.002Z</time></trkpt><trkpt lat="42.5813274849654" lon="11.862665797905505"><ele>305.0</ele><time>2026-04-12T08:50:38.002Z</time></trkpt><trkpt lat="42.5814267029146" lon="11.86254384292606"><ele>305.0</ele><time>2026-04-12T08:50:39.002Z</time></trkpt><trkpt lat="42.581512145216124" lon="11.862397439172389"><ele>305.0</ele><time>2026-04-12T08:50:40.002Z</time></trkpt><trkpt lat="42.58160839993406" lon="11.86227123354329"><ele>305.0</ele><time>2026-04-12T08:50:41.002Z</time></trkpt><trkpt lat="42.58171172970897" lon="11.862135772347978"><ele>305.0</ele><time>2026-04-12T08:50:42.002Z</time></trkpt><trkpt lat="42.58180781059751" lon="11.861998588020493"><ele>305.0</ele><time>2026-04-12T08:50:43.002Z</time></trkpt><trkpt lat="42.58191904902694" lon="11.861872992239466"><ele>305.0</ele><time>2026-04-12T08:50:44.002Z</time></trkpt><trkpt lat="42.582005250862764" lon="11.861723402432567"><ele>305.0</ele><time>2026-04-12T08:50:45.002Z</time></trkpt><trkpt lat="42.58210296984542" lon="11.861621194123066"><ele>305.0</ele><time>2026-04-12T08:50:46.002Z</time></trkpt><trkpt lat="42.58217507307661" lon="11.861491913771113"><ele>305.0</ele><time>2026-04-12T08:50:47.002Z</time></trkpt><trkpt lat="42.582263548673794" lon="11.861384325288999"><ele>305.0</ele><time>2026-04-12T08:50:48.002Z</time></trkpt><trkpt lat="42.58235410197865" lon="11.861267502513378"><ele>305.0</ele><time>2026-04-12T08:50:49.002Z</time></trkpt><trkpt lat="42.58245798816774" lon="11.861152315897593"><ele>305.0</ele><time>2026-04-12T08:50:50.002Z</time></trkpt><trkpt lat="42.582551811369285" lon="11.861021249314994"><ele>305.0</ele><time>2026-04-12T08:50:51.002Z</time></trkpt><trkpt lat="42.582647882661334" lon="11.860918674556792"><ele>305.0</ele><time>2026-04-12T08:50:52.002Z</time></trkpt><trkpt lat="42.58272197627488" lon="11.860825567872006"><ele>305.0</ele><time>2026-04-12T08:50:53.002Z</time></trkpt><trkpt lat="42.58279251159387" lon="11.860732332505814"><ele>305.0</ele><time>2026-04-12T08:50:54.002Z</time></trkpt><trkpt lat="42.58285520249301" lon="11.860648438979927"><ele>305.0</ele><time>2026-04-12T08:50:55.002Z</time></trkpt><trkpt lat="42.582923449101465" lon="11.860565185195252"><ele>305.0</ele><time>2026-04-12T08:50:56.002Z</time></trkpt><trkpt lat="42.58302176408347" lon="11.860475035298235"><ele>305.0</ele><time>2026-04-12T08:50:57.002Z</time></trkpt><trkpt lat="42.58311813100952" lon="11.860385333359858"><ele>305.0</ele><time>2026-04-12T08:50:58.002Z</time></trkpt><trkpt lat="42.58321954038344" lon="11.860280475972855"><ele>305.0</ele><time>2026-04-12T08:50:59.002Z</time></trkpt><trkpt lat="42.58333196628217" lon="11.860173706087505"><ele>304.75</ele><time>2026-04-12T08:51:00.002Z</time></trkpt><trkpt lat="42.583444566087415" lon="11.860061092212868"><ele>304.5</ele><time>2026-04-12T08:51:01Z</time></trkpt><trkpt lat="42.583557108416215" lon="11.85993037126811"><ele>304.25</ele><time>2026-04-12T08:51:02Z</time></trkpt><trkpt lat="42.58366000427525" lon="11.85979358216815"><ele>304.0</ele><time>2026-04-12T08:51:03Z</time></trkpt><trkpt lat="42.583781301125256" lon="11.85966529475253"><ele>304.0</ele><time>2026-04-12T08:51:04Z</time></trkpt><trkpt lat="42.58388652838335" lon="11.859523000684804"><ele>304.0</ele><time>2026-04-12T08:51:05Z</time></trkpt><trkpt lat="42.58399645737095" lon="11.859423737077309"><ele>304.0</ele><time>2026-04-12T08:51:06Z</time></trkpt><trkpt lat="42.584104793596595" lon="11.85930737954675"><ele>304.0</ele><time>2026-04-12T08:51:07Z</time></trkpt><trkpt lat="42.58420721721343" lon="11.859178779644495"><ele>304.0</ele><time>2026-04-12T08:51:08Z</time></trkpt><trkpt lat="42.58431936167948" lon="11.859052340781895"><ele>304.0</ele><time>2026-04-12T08:51:09Z</time></trkpt><trkpt lat="42.58441416668611" lon="11.858937762962727"><ele>304.0</ele><time>2026-04-12T08:51:10Z</time></trkpt><trkpt lat="42.58450213906639" lon="11.858834534283375"><ele>304.0</ele><time>2026-04-12T08:51:11Z</time></trkpt><trkpt lat="42.584605247084106" lon="11.858728467742985"><ele>304.0</ele><time>2026-04-12T08:51:12Z</time></trkpt><trkpt lat="42.584716325692135" lon="11.858628812839143"><ele>304.0</ele><time>2026-04-12T08:51:13Z</time></trkpt><trkpt lat="42.584826603651805" lon="11.858528554485698"><ele>304.0</ele><time>2026-04-12T08:51:14Z</time></trkpt><trkpt lat="42.58493332051013" lon="11.858433192011969"><ele>304.0</ele><time>2026-04-12T08:51:15Z</time></trkpt><trkpt lat="42.58503350109675" lon="11.858349643135956"><ele>304.0</ele><time>2026-04-12T08:51:16Z</time></trkpt><trkpt lat="42.58512612364893" lon="11.858271658960767"><ele>304.0</ele><time>2026-04-12T08:51:17Z</time></trkpt><trkpt lat="42.58521888802642" lon="11.858207159112437"><ele>304.0</ele><time>2026-04-12T08:51:18Z</time></trkpt><trkpt lat="42.585320693903576" lon="11.85812112217582"><ele>304.0</ele><time>2026-04-12T08:51:19Z</time></trkpt><trkpt lat="42.58540941798605" lon="11.858052634614761"><ele>304.0</ele><time>2026-04-12T08:51:20Z</time></trkpt><trkpt lat="42.58549740909911" lon="11.857990369233432"><ele>304.0</ele><time>2026-04-12T08:51:21Z</time></trkpt><trkpt lat="42.58559387066977" lon="11.857922473219142"><ele>304.0</ele><time>2026-04-12T08:51:22Z</time></trkpt><trkpt lat="42.58569978494933" lon="11.857853460187355"><ele>304.0</ele><time>2026-04-12T08:51:23Z</time></trkpt><trkpt lat="42.58581656375493" lon="11.857785354619164"><ele>304.0</ele><time>2026-04-12T08:51:24Z</time></trkpt><trkpt lat="42.58592445826799" lon="11.85772323604909"><ele>304.0</ele><time>2026-04-12T08:51:25Z</time></trkpt><trkpt lat="42.58603835429965" lon="11.857658627022074"><ele>304.0</ele><time>2026-04-12T08:51:26Z</time></trkpt><trkpt lat="42.58615193336659" lon="11.857596440051525"><ele>304.0</ele><time>2026-04-12T08:51:27Z</time></trkpt><trkpt lat="42.58626757094397" lon="11.857521022698903"><ele>304.0</ele><time>2026-04-12T08:51:28Z</time></trkpt><trkpt lat="42.58638537008646" lon="11.85745507105843"><ele>304.25</ele><time>2026-04-12T08:51:29Z</time></trkpt><trkpt lat="42.58650039845847" lon="11.8573933268186"><ele>304.5</ele><time>2026-04-12T08:51:30Z</time></trkpt><trkpt lat="42.58661908394997" lon="11.857337105479216"><ele>304.75</ele><time>2026-04-12T08:51:31Z</time></trkpt><trkpt lat="42.58673809285266" lon="11.85727690958261"><ele>305.0</ele><time>2026-04-12T08:51:32Z</time></trkpt><trkpt lat="42.58685452367424" lon="11.85722081600374"><ele>305.0</ele><time>2026-04-12T08:51:33Z</time></trkpt><trkpt lat="42.58697228922934" lon="11.857167742701174"><ele>305.0</ele><time>2026-04-12T08:51:34Z</time></trkpt><trkpt lat="42.58709434830432" lon="11.857117892260488"><ele>305.0</ele><time>2026-04-12T08:51:35Z</time></trkpt><trkpt lat="42.58720964130963" lon="11.857088151690942"><ele>305.0</ele><time>2026-04-12T08:51:36Z</time></trkpt><trkpt lat="42.58731600866873" lon="11.857066157130426"><ele>305.8</ele><time>2026-04-12T08:51:37.001Z</time></trkpt><trkpt lat="42.587419570270974" lon="11.857044360872054"><ele>306.6</ele><time>2026-04-12T08:51:38.001Z</time></trkpt><trkpt lat="42.58751223424838" lon="11.857043255374814"><ele>307.4</ele><time>2026-04-12T08:51:39.001Z</time></trkpt><trkpt lat="42.58759813288992" lon="11.857055519064236"><ele>308.2</ele><time>2026-04-12T08:51:40.001Z</time></trkpt><trkpt lat="42.58769669875105" lon="11.857086485286931"><ele>309.0</ele><time>2026-04-12T08:51:41.001Z</time></trkpt><trkpt lat="42.58778819991976" lon="11.857152702563834"><ele>312.0</ele><time>2026-04-12T08:51:42.001Z</time></trkpt><trkpt lat="42.58789039072901" lon="11.857189960496571"><ele>315.0</ele><time>2026-04-12T08:51:43.001Z</time></trkpt><trkpt lat="42.5880129195055" lon="11.857253202328947"><ele>318.0</ele><time>2026-04-12T08:51:44.001Z</time></trkpt><trkpt lat="42.588154402039684" lon="11.857308362849446"><ele>321.0</ele><time>2026-04-12T08:51:45.001Z</time></trkpt><trkpt lat="42.58829580503448" lon="11.857342819223433"><ele>321.0</ele><time>2026-04-12T08:51:46.001Z</time></trkpt><trkpt lat="42.58840972542189" lon="11.85737756870551"><ele>321.0</ele><time>2026-04-12T08:51:47.001Z</time></trkpt><trkpt lat="42.58853406055286" lon="11.857406113485341"><ele>321.0</ele><time>2026-04-12T08:51:48.001Z</time></trkpt><trkpt lat="42.5886501799531" lon="11.857462484404733"><ele>321.0</ele><time>2026-04-12T08:51:49.001Z</time></trkpt><trkpt lat="42.58877768473694" lon="11.857553599975782"><ele>318.6</ele><time>2026-04-12T08:51:50.001Z</time></trkpt><trkpt lat="42.588878006131836" lon="11.857679968078777"><ele>316.20000000000005</ele><time>2026-04-12T08:51:51.001Z</time></trkpt><trkpt lat="42.58897021171613" lon="11.85777308070812"><ele>313.79999999999995</ele><time>2026-04-12T08:51:52.001Z</time></trkpt><trkpt lat="42.58904239904139" lon="11.857841475919857"><ele>311.4</ele><time>2026-04-12T08:51:53.001Z</time></trkpt><trkpt lat="42.589105360752946" lon="11.857888797048522"><ele>309.0</ele><time>2026-04-12T08:51:54.001Z</time></trkpt><trkpt lat="42.58916391441747" lon="11.857941465144812"><ele>309.0</ele><time>2026-04-12T08:51:55.001Z</time></trkpt><trkpt lat="42.589267457435824" lon="11.858054933478128"><ele>309.0</ele><time>2026-04-12T08:51:57.001Z</time></trkpt><trkpt lat="42.589332771757164" lon="11.858131486669778"><ele>309.0</ele><time>2026-04-12T08:51:58.001Z</time></trkpt><trkpt lat="42.589425270798834" lon="11.858210778008843"><ele>309.0</ele><time>2026-04-12T08:51:59.001Z</time></trkpt><trkpt lat="42.5895469903527" lon="11.858314743805028"><ele>309.0</ele><time>2026-04-12T08:52:00.001Z</time></trkpt><trkpt lat="42.58969257826728" lon="11.858412553651508"><ele>309.0</ele><time>2026-04-12T08:52:01.001Z</time></trkpt><trkpt lat="42.589843051310396" lon="11.858527455287652"><ele>309.0</ele><time>2026-04-12T08:52:02.001Z</time></trkpt><trkpt lat="42.589982559747995" lon="11.858673219498444"><ele>309.0</ele><time>2026-04-12T08:52:03.001Z</time></trkpt><trkpt lat="42.5901211070429" lon="11.858799080273368"><ele>309.0</ele><time>2026-04-12T08:52:04.001Z</time></trkpt><trkpt lat="42.59026111351985" lon="11.858904615809156"><ele>309.0</ele><time>2026-04-12T08:52:05.001Z</time></trkpt><trkpt lat="42.590386816481" lon="11.859041583687706"><ele>309.0</ele><time>2026-04-12T08:52:06.001Z</time></trkpt><trkpt lat="42.59050311977548" lon="11.859157906121151"><ele>309.0</ele><time>2026-04-12T08:52:07.001Z</time></trkpt><trkpt lat="42.59062804772165" lon="11.859298382544088"><ele>309.0</ele><time>2026-04-12T08:52:08.001Z</time></trkpt><trkpt lat="42.59074902819183" lon="11.859452284174647"><ele>309.0</ele><time>2026-04-12T08:52:09.001Z</time></trkpt><trkpt lat="42.590869973812914" lon="11.859637800102982"><ele>309.0</ele><time>2026-04-12T08:52:10.001Z</time></trkpt><trkpt lat="42.590973299769274" lon="11.859848174398337"><ele>309.0</ele><time>2026-04-12T08:52:11.001Z</time></trkpt><trkpt lat="42.591077853467425" lon="11.860022667628533"><ele>308.0</ele><time>2026-04-12T08:52:12.001Z</time></trkpt><trkpt lat="42.59117643814709" lon="11.86018169902769"><ele>307.0</ele><time>2026-04-12T08:52:13.001Z</time></trkpt><trkpt lat="42.59129566236592" lon="11.860324160774978"><ele>306.0</ele><time>2026-04-12T08:52:14.001Z</time></trkpt><trkpt lat="42.59143668140578" lon="11.8604395210989"><ele>306.0</ele><time>2026-04-12T08:52:15.001Z</time></trkpt><trkpt lat="42.591590892947295" lon="11.860529015707584"><ele>306.0</ele><time>2026-04-12T08:52:16.001Z</time></trkpt><trkpt lat="42.59172863048867" lon="11.86061937093124"><ele>306.0</ele><time>2026-04-12T08:52:17.001Z</time></trkpt><trkpt lat="42.59187527991063" lon="11.86067366251087"><ele>306.3333333333333</ele><time>2026-04-12T08:52:18.001Z</time></trkpt><trkpt lat="42.5920222808754" lon="11.860750091042137"><ele>306.66666666666663</ele><time>2026-04-12T08:52:19.001Z</time></trkpt><trkpt lat="42.59217531227814" lon="11.860826865421409"><ele>307.0</ele><time>2026-04-12T08:52:20.001Z</time></trkpt><trkpt lat="42.592338892739896" lon="11.860906056222541"><ele>307.0</ele><time>2026-04-12T08:52:21.001Z</time></trkpt><trkpt lat="42.592506709893954" lon="11.861002390595736"><ele>307.0</ele><time>2026-04-12T08:52:22.001Z</time></trkpt><trkpt lat="42.592683135149784" lon="11.861121067848336"><ele>307.0</ele><time>2026-04-12T08:52:23.001Z</time></trkpt><trkpt lat="42.59286401306991" lon="11.861256358318073"><ele>307.3333333333333</ele><time>2026-04-12T08:52:24.001Z</time></trkpt><trkpt lat="42.59304107466129" lon="11.861393145438607"><ele>307.6666666666667</ele><time>2026-04-12T08:52:25.001Z</time></trkpt><trkpt lat="42.59321943772391" lon="11.861532372127234"><ele>308.0</ele><time>2026-04-12T08:52:26.001Z</time></trkpt><trkpt lat="42.59338632775684" lon="11.861664640237064"><ele>307.6666666666667</ele><time>2026-04-12T08:52:27.001Z</time></trkpt><trkpt lat="42.593550819045696" lon="11.861795505811328"><ele>307.3333333333333</ele><time>2026-04-12T08:52:28.001Z</time></trkpt><trkpt lat="42.593709959280886" lon="11.861921684293877"><ele>307.0</ele><time>2026-04-12T08:52:29.001Z</time></trkpt><trkpt lat="42.59386925854058" lon="11.862043549465103"><ele>308.3333333333333</ele><time>2026-04-12T08:52:30.001Z</time></trkpt><trkpt lat="42.594031276364916" lon="11.862169115240196"><ele>309.6666666666667</ele><time>2026-04-12T08:52:31.001Z</time></trkpt><trkpt lat="42.59419470872" lon="11.862297747033042"><ele>311.0</ele><time>2026-04-12T08:52:32.001Z</time></trkpt><trkpt lat="42.59435583394466" lon="11.862418322311928"><ele>310.6666666666667</ele><time>2026-04-12T08:52:33.001Z</time></trkpt><trkpt lat="42.59451678041494" lon="11.862545889342744"><ele>310.3333333333333</ele><time>2026-04-12T08:52:34.001Z</time></trkpt><trkpt lat="42.594677845086764" lon="11.862679268358944"><ele>310.0</ele><time>2026-04-12T08:52:35.001Z</time></trkpt><trkpt lat="42.59482822315027" lon="11.86285346251711"><ele>309.66666666666663</ele><time>2026-04-12T08:52:36.001Z</time></trkpt><trkpt lat="42.59497631905056" lon="11.863036445538008"><ele>309.3333333333333</ele><time>2026-04-12T08:52:37.001Z</time></trkpt><trkpt lat="42.595123976030486" lon="11.863222580263107"><ele>309.0</ele><time>2026-04-12T08:52:38.001Z</time></trkpt><trkpt lat="42.59524856854846" lon="11.863366120431182"><ele>310.3333333333333</ele><time>2026-04-12T08:52:39.001Z</time></trkpt><trkpt lat="42.59537042421979" lon="11.86351742552999"><ele>311.66666666666663</ele><time>2026-04-12T08:52:40.001Z</time></trkpt><trkpt lat="42.595485249162444" lon="11.863660382012652"><ele>313.0</ele><time>2026-04-12T08:52:41.001Z</time></trkpt><trkpt lat="42.595593867175864" lon="11.863797861195605"><ele>313.0</ele><time>2026-04-12T08:52:42.001Z</time></trkpt><trkpt lat="42.595725264969644" lon="11.863936924943722"><ele>313.0</ele><time>2026-04-12T08:52:43.001Z</time></trkpt><trkpt lat="42.59587845059316" lon="11.864053019370843"><ele>313.0</ele><time>2026-04-12T08:52:44.001Z</time></trkpt><trkpt lat="42.59604648159852" lon="11.864169008877983"><ele>310.66666666666663</ele><time>2026-04-12T08:52:45.001Z</time></trkpt><trkpt lat="42.596203289593355" lon="11.864286395895537"><ele>308.3333333333333</ele><time>2026-04-12T08:52:46.001Z</time></trkpt><trkpt lat="42.59635669967514" lon="11.864396961643642"><ele>306.0</ele><time>2026-04-12T08:52:47.001Z</time></trkpt><trkpt lat="42.596517020928815" lon="11.864491926611933"><ele>306.0</ele><time>2026-04-12T08:52:48.002Z</time></trkpt><trkpt lat="42.59667840354581" lon="11.864555857855784"><ele>306.0</ele><time>2026-04-12T08:52:49.002Z</time></trkpt><trkpt lat="42.59684698637409" lon="11.86460765386892"><ele>306.0</ele><time>2026-04-12T08:52:50.002Z</time></trkpt><trkpt lat="42.597011844288694" lon="11.864654845257917"><ele>307.3333333333333</ele><time>2026-04-12T08:52:51.002Z</time></trkpt><trkpt lat="42.597167052477914" lon="11.86469984503004"><ele>308.66666666666663</ele><time>2026-04-12T08:52:52.002Z</time></trkpt><trkpt lat="42.597324111012675" lon="11.864746820192677"><ele>310.0</ele><time>2026-04-12T08:52:53.002Z</time></trkpt><trkpt lat="42.597487684229755" lon="11.864796225985499"><ele>310.0</ele><time>2026-04-12T08:52:54.002Z</time></trkpt><trkpt lat="42.59763732095275" lon="11.864861842214408"><ele>310.0</ele><time>2026-04-12T08:52:55.002Z</time></trkpt><trkpt lat="42.597787342840775" lon="11.864901025771811"><ele>310.0</ele><time>2026-04-12T08:52:56.002Z</time></trkpt><trkpt lat="42.59793276997866" lon="11.865015197226137"><ele>309.0</ele><time>2026-04-12T08:52:57.002Z</time></trkpt><trkpt lat="42.59807073764699" lon="11.865131474022345"><ele>308.0</ele><time>2026-04-12T08:52:58.002Z</time></trkpt><trkpt lat="42.59823155360071" lon="11.865225093071384"><ele>307.0</ele><time>2026-04-12T08:52:59.002Z</time></trkpt><trkpt lat="42.59839051873447" lon="11.865302291932862"><ele>307.0</ele><time>2026-04-12T08:53:00.002Z</time></trkpt><trkpt lat="42.598562479556335" lon="11.865345019622152"><ele>307.0</ele><time>2026-04-12T08:53:01.002Z</time></trkpt><trkpt lat="42.598737020702984" lon="11.865379501990695"><ele>307.0</ele><time>2026-04-12T08:53:02.002Z</time></trkpt><trkpt lat="42.5989092165548" lon="11.865414005502267"><ele>307.0</ele><time>2026-04-12T08:53:03.002Z</time></trkpt><trkpt lat="42.59906799906479" lon="11.865442516793365"><ele>307.0</ele><time>2026-04-12T08:53:04.002Z</time></trkpt><trkpt lat="42.59921370420772" lon="11.865468870093892"><ele>307.0</ele><time>2026-04-12T08:53:05.002Z</time></trkpt><trkpt lat="42.59934645126073" lon="11.865532566593172"><ele>307.0</ele><time>2026-04-12T08:53:06.002Z</time></trkpt><trkpt lat="42.59947302040444" lon="11.86555698070804"><ele>307.75</ele><time>2026-04-12T08:53:07Z</time></trkpt><trkpt lat="42.59958804561968" lon="11.865606267379768"><ele>308.5</ele><time>2026-04-12T08:53:08Z</time></trkpt><trkpt lat="42.5996986723342" lon="11.865663873365442"><ele>309.25</ele><time>2026-04-12T08:53:09Z</time></trkpt><trkpt lat="42.599807800636505" lon="11.865725360457981"><ele>310.0</ele><time>2026-04-12T08:53:10Z</time></trkpt><trkpt lat="42.5999127395791" lon="11.86578112625817"><ele>310.0</ele><time>2026-04-12T08:53:11Z</time></trkpt><trkpt lat="42.60000720309864" lon="11.86583420818457"><ele>310.0</ele><time>2026-04-12T08:53:12Z</time></trkpt><trkpt lat="42.600096248095944" lon="11.865886694023118"><ele>310.0</ele><time>2026-04-12T08:53:13Z</time></trkpt><trkpt lat="42.600196434178045" lon="11.865946954557028"><ele>310.0</ele><time>2026-04-12T08:53:14Z</time></trkpt><trkpt lat="42.60029340874759" lon="11.86600036813608"><ele>310.0</ele><time>2026-04-12T08:53:15Z</time></trkpt><trkpt lat="42.60038705059235" lon="11.866045171483323"><ele>309.2</ele><time>2026-04-12T08:53:16Z</time></trkpt><trkpt lat="42.60047618672274" lon="11.866093122478075"><ele>308.4</ele><time>2026-04-12T08:53:17Z</time></trkpt><trkpt lat="42.600565768772" lon="11.86614358818971"><ele>307.6</ele><time>2026-04-12T08:53:18Z</time></trkpt><trkpt lat="42.60066235189553" lon="11.866199931414144"><ele>306.8</ele><time>2026-04-12T08:53:19Z</time></trkpt><trkpt lat="42.600765237490926" lon="11.866257756653784"><ele>306.0</ele><time>2026-04-12T08:53:20Z</time></trkpt><trkpt lat="42.600875424508835" lon="11.866311175725231"><ele>306.0</ele><time>2026-04-12T08:53:21Z</time></trkpt><trkpt lat="42.600988503315044" lon="11.866362776589494"><ele>306.0</ele><time>2026-04-12T08:53:22Z</time></trkpt><trkpt lat="42.60110455293947" lon="11.866391469803835"><ele>306.0</ele><time>2026-04-12T08:53:23Z</time></trkpt><trkpt lat="42.60123343814006" lon="11.866375897843087"><ele>306.0</ele><time>2026-04-12T08:53:24Z</time></trkpt><trkpt lat="42.60137276234425" lon="11.866374861820026"><ele>306.3333333333333</ele><time>2026-04-12T08:53:25Z</time></trkpt><trkpt lat="42.601526032357256" lon="11.866375379572093"><ele>306.66666666666663</ele><time>2026-04-12T08:53:26Z</time></trkpt><trkpt lat="42.60167993434308" lon="11.866369470717482"><ele>307.0</ele><time>2026-04-12T08:53:27Z</time></trkpt><trkpt lat="42.601840016919525" lon="11.866394464495219"><ele>308.3333333333333</ele><time>2026-04-12T08:53:28Z</time></trkpt><trkpt lat="42.60200282431528" lon="11.866421967553174"><ele>309.6666666666667</ele><time>2026-04-12T08:53:29Z</time></trkpt><trkpt lat="42.60216644735713" lon="11.866455009816042"><ele>311.0</ele><time>2026-04-12T08:53:30Z</time></trkpt><trkpt lat="42.6023225255274" lon="11.866490019711652"><ele>311.0</ele><time>2026-04-12T08:53:31Z</time></trkpt><trkpt lat="42.6024741246489" lon="11.866521191370694"><ele>311.0</ele><time>2026-04-12T08:53:32Z</time></trkpt><trkpt lat="42.602618114945095" lon="11.866565636618695"><ele>311.0</ele><time>2026-04-12T08:53:33Z</time></trkpt><trkpt lat="42.60273934087556" lon="11.866635581489232"><ele>311.0</ele><time>2026-04-12T08:53:34Z</time></trkpt><trkpt lat="42.60281960700766" lon="11.866732988398825"><ele>310.0</ele><time>2026-04-12T08:53:35Z</time></trkpt><trkpt lat="42.60290534167206" lon="11.866817127757056"><ele>309.0</ele><time>2026-04-12T08:53:36Z</time></trkpt><trkpt lat="42.603000282960664" lon="11.866877960192657"><ele>308.0</ele><time>2026-04-12T08:53:37Z</time></trkpt><trkpt lat="42.603095951532225" lon="11.866881335831614"><ele>307.0</ele><time>2026-04-12T08:53:38Z</time></trkpt><trkpt lat="42.60318329424959" lon="11.86685277561166"><ele>306.0</ele><time>2026-04-12T08:53:39Z</time></trkpt><trkpt lat="42.6032615398698" lon="11.866801602746909"><ele>308.0</ele><time>2026-04-12T08:53:40Z</time></trkpt><trkpt lat="42.60333762351315" lon="11.866770863071956"><ele>310.0</ele><time>2026-04-12T08:53:41Z</time></trkpt><trkpt lat="42.60341624622969" lon="11.866745606900643"><ele>312.0</ele><time>2026-04-12T08:53:42Z</time></trkpt><trkpt lat="42.60349034353649" lon="11.866733688147473"><ele>314.0</ele><time>2026-04-12T08:53:43Z</time></trkpt><trkpt lat="42.60359338578984" lon="11.866716334626915"><ele>316.0</ele><time>2026-04-12T08:53:45.001Z</time></trkpt><trkpt lat="42.60364733005497" lon="11.86656359578824"><ele>315.25</ele><time>2026-04-12T08:53:48.001Z</time></trkpt><trkpt lat="42.603669922189674" lon="11.866382435788623"><ele>314.5</ele><time>2026-04-12T08:53:50.001Z</time></trkpt><trkpt lat="42.60369655442975" lon="11.866265830308988"><ele>313.75</ele><time>2026-04-12T08:53:51.001Z</time></trkpt><trkpt lat="42.60372156961715" lon="11.866121438917771"><ele>313.0</ele><time>2026-04-12T08:53:52.001Z</time></trkpt><trkpt lat="42.60375665847842" lon="11.865961335103169"><ele>318.3333333333333</ele><time>2026-04-12T08:53:53.001Z</time></trkpt><trkpt lat="42.60382238177339" lon="11.865781145767517"><ele>323.6666666666667</ele><time>2026-04-12T08:53:54.001Z</time></trkpt><trkpt lat="42.60387665948729" lon="11.86558032063671"><ele>329.0</ele><time>2026-04-12T08:53:55.001Z</time></trkpt><trkpt lat="42.603920806821634" lon="11.865392663503544"><ele>329.0</ele><time>2026-04-12T08:53:56.001Z</time></trkpt><trkpt lat="42.603966680455706" lon="11.865198176641044"><ele>329.0</ele><time>2026-04-12T08:53:57.001Z</time></trkpt><trkpt lat="42.604016495484366" lon="11.865012098943236"><ele>329.0</ele><time>2026-04-12T08:53:58.001Z</time></trkpt><trkpt lat="42.60406855920985" lon="11.864842920023225"><ele>329.0</ele><time>2026-04-12T08:53:59.001Z</time></trkpt><trkpt lat="42.6041227199088" lon="11.864687271803657"><ele>330.75</ele><time>2026-04-12T08:54:00.001Z</time></trkpt><trkpt lat="42.60418255324609" lon="11.864516622976357"><ele>332.5</ele><time>2026-04-12T08:54:01.001Z</time></trkpt><trkpt lat="42.60425685014152" lon="11.864336167015344"><ele>334.25</ele><time>2026-04-12T08:54:02.001Z</time></trkpt><trkpt lat="42.60432401569653" lon="11.864148107560524"><ele>336.0</ele><time>2026-04-12T08:54:03.001Z</time></trkpt><trkpt lat="42.60437908682787" lon="11.863954237052605"><ele>338.25</ele><time>2026-04-12T08:54:04.001Z</time></trkpt><trkpt lat="42.604444766961905" lon="11.863784639618022"><ele>340.5</ele><time>2026-04-12T08:54:05.001Z</time></trkpt><trkpt lat="42.60451122906668" lon="11.863617706340985"><ele>342.75</ele><time>2026-04-12T08:54:06.001Z</time></trkpt><trkpt lat="42.604551635542414" lon="11.863437417318806"><ele>345.0</ele><time>2026-04-12T08:54:07.001Z</time></trkpt><trkpt lat="42.60459452776637" lon="11.863263676281457"><ele>347.75</ele><time>2026-04-12T08:54:08.001Z</time></trkpt><trkpt lat="42.60464694019457" lon="11.863098208158732"><ele>350.5</ele><time>2026-04-12T08:54:09.001Z</time></trkpt><trkpt lat="42.60469365541482" lon="11.862940220101288"><ele>353.25</ele><time>2026-04-12T08:54:10.001Z</time></trkpt><trkpt lat="42.60473432587165" lon="11.862782536245337"><ele>356.0</ele><time>2026-04-12T08:54:11.001Z</time></trkpt><trkpt lat="42.60477739963179" lon="11.862616812031497"><ele>357.5</ele><time>2026-04-12T08:54:12.001Z</time></trkpt><trkpt lat="42.60481937855746" lon="11.86246012553364"><ele>359.0</ele><time>2026-04-12T08:54:13.001Z</time></trkpt><trkpt lat="42.60485158907749" lon="11.86232769050551"><ele>360.5</ele><time>2026-04-12T08:54:14.001Z</time></trkpt><trkpt lat="42.604894478435824" lon="11.86218969391153"><ele>362.0</ele><time>2026-04-12T08:54:15.001Z</time></trkpt><trkpt lat="42.604926694510624" lon="11.862031793866045"><ele>362.0</ele><time>2026-04-12T08:54:16.001Z</time></trkpt><trkpt lat="42.604954872523194" lon="11.861883031514141"><ele>362.0</ele><time>2026-04-12T08:54:17.001Z</time></trkpt><trkpt lat="42.604978682343216" lon="11.861734372726552"><ele>362.0</ele><time>2026-04-12T08:54:18.001Z</time></trkpt><trkpt lat="42.605002239647995" lon="11.861579543811741"><ele>362.0</ele><time>2026-04-12T08:54:19.001Z</time></trkpt><trkpt lat="42.605027435619725" lon="11.861418239925442"><ele>364.25</ele><time>2026-04-12T08:54:20.001Z</time></trkpt><trkpt lat="42.605054585352164" lon="11.861255079753105"><ele>366.5</ele><time>2026-04-12T08:54:21.001Z</time></trkpt><trkpt lat="42.60507967892009" lon="11.861088941200945"><ele>368.75</ele><time>2026-04-12T08:54:22.001Z</time></trkpt><trkpt lat="42.60510845045321" lon="11.860918209489704"><ele>371.0</ele><time>2026-04-12T08:54:23.001Z</time></trkpt><trkpt lat="42.60513755229758" lon="11.860747664734221"><ele>373.5</ele><time>2026-04-12T08:54:24.001Z</time></trkpt><trkpt lat="42.605168732734974" lon="11.860568513099938"><ele>376.0</ele><time>2026-04-12T08:54:25.001Z</time></trkpt><trkpt lat="42.60520609012782" lon="11.860397095467526"><ele>378.5</ele><time>2026-04-12T08:54:26.001Z</time></trkpt><trkpt lat="42.60524839742987" lon="11.860242951011335"><ele>381.0</ele><time>2026-04-12T08:54:27.001Z</time></trkpt><trkpt lat="42.605279118642535" lon="11.860129226783146"><ele>381.6666666666667</ele><time>2026-04-12T08:54:28.001Z</time></trkpt><trkpt lat="42.60532076924799" lon="11.859990811476203"><ele>382.33333333333337</ele><time>2026-04-12T08:54:30.001Z</time></trkpt><trkpt lat="42.60536939489672" lon="11.859839349681659"><ele>383.0</ele><time>2026-04-12T08:54:32.001Z</time></trkpt><trkpt lat="42.60538822516116" lon="11.859745958498932"><ele>383.6666666666667</ele><time>2026-04-12T08:54:33.001Z</time></trkpt><trkpt lat="42.605426875974466" lon="11.859667347570156"><ele>384.33333333333337</ele><time>2026-04-12T08:54:34.001Z</time></trkpt><trkpt lat="42.605451024075606" lon="11.859585124381427"><ele>385.0</ele><time>2026-04-12T08:54:35.001Z</time></trkpt><trkpt lat="42.60548188460107" lon="11.859411537186919"><ele>385.50000000000006</ele><time>2026-04-12T08:54:37.001Z</time></trkpt><trkpt lat="42.60550886048992" lon="11.859317815203598"><ele>386.0</ele><time>2026-04-12T08:54:38.001Z</time></trkpt><trkpt lat="42.605564804525685" lon="11.859124049350909"><ele>386.5</ele><time>2026-04-12T08:54:40.001Z</time></trkpt><trkpt lat="42.60558291198464" lon="11.859027817487744"><ele>387.0</ele><time>2026-04-12T08:54:41.001Z</time></trkpt><trkpt lat="42.605601235098774" lon="11.858944730949656"><ele>387.50000000000006</ele><time>2026-04-12T08:54:42.001Z</time></trkpt><trkpt lat="42.60562154192859" lon="11.858858240485965"><ele>388.0</ele><time>2026-04-12T08:54:43.001Z</time></trkpt><trkpt lat="42.605635279057026" lon="11.858767988600079"><ele>389.0</ele><time>2026-04-12T08:54:44.001Z</time></trkpt><trkpt lat="42.60566713439453" lon="11.858681743050438"><ele>390.0</ele><time>2026-04-12T08:54:45.001Z</time></trkpt><trkpt lat="42.60568217675282" lon="11.858596721657877"><ele>391.0</ele><time>2026-04-12T08:54:46.001Z</time></trkpt><trkpt lat="42.60567975971575" lon="11.85850800709473"><ele>392.0</ele><time>2026-04-12T08:54:47.001Z</time></trkpt><trkpt lat="42.60570584665417" lon="11.858394468748909"><ele>393.0</ele><time>2026-04-12T08:54:48.001Z</time></trkpt><trkpt lat="42.605711434235815" lon="11.858297552027029"><ele>394.0</ele><time>2026-04-12T08:54:49.001Z</time></trkpt><trkpt lat="42.605719095966144" lon="11.858188216835218"><ele>395.0</ele><time>2026-04-12T08:54:50.001Z</time></trkpt><trkpt lat="42.60572573431881" lon="11.858047519690686"><ele>396.3333333333333</ele><time>2026-04-12T08:54:51.001Z</time></trkpt><trkpt lat="42.605738163280385" lon="11.857913383391374"><ele>397.66666666666663</ele><time>2026-04-12T08:54:52.001Z</time></trkpt><trkpt lat="42.60574535172569" lon="11.85778425841774"><ele>399.0</ele><time>2026-04-12T08:54:53.001Z</time></trkpt><trkpt lat="42.60575297647978" lon="11.857659025753948"><ele>400.33333333333337</ele><time>2026-04-12T08:54:54.001Z</time></trkpt><trkpt lat="42.605759750191325" lon="11.857541849097348"><ele>401.6666666666667</ele><time>2026-04-12T08:54:55.001Z</time></trkpt><trkpt lat="42.6057671159866" lon="11.857447153287387"><ele>403.0</ele><time>2026-04-12T08:54:56.002Z</time></trkpt><trkpt lat="42.60578152371036" lon="11.857324873320259"><ele>404.00000000000006</ele><time>2026-04-12T08:54:57.002Z</time></trkpt><trkpt lat="42.60579297495583" lon="11.85722184188403"><ele>405.0</ele><time>2026-04-12T08:54:58.002Z</time></trkpt><trkpt lat="42.60579844856882" lon="11.857115890578692"><ele>406.0</ele><time>2026-04-12T08:54:59.002Z</time></trkpt><trkpt lat="42.605820870153536" lon="11.857025361345888"><ele>407.0</ele><time>2026-04-12T08:55:00.002Z</time></trkpt><trkpt lat="42.60582271264048" lon="11.856845495773767"><ele>408.00000000000006</ele><time>2026-04-12T08:55:02.002Z</time></trkpt><trkpt lat="42.60582734426151" lon="11.856723848272933"><ele>409.0</ele><time>2026-04-12T08:55:03.002Z</time></trkpt><trkpt lat="42.60582625708954" lon="11.856589813882804"><ele>409.6</ele><time>2026-04-12T08:55:04.002Z</time></trkpt><trkpt lat="42.60582161360811" lon="11.856460035429619"><ele>410.2</ele><time>2026-04-12T08:55:05.002Z</time></trkpt><trkpt lat="42.60581927438129" lon="11.856322964297872"><ele>410.8</ele><time>2026-04-12T08:55:06.002Z</time></trkpt><trkpt lat="42.60582511141167" lon="11.856195406393134"><ele>411.40000000000003</ele><time>2026-04-12T08:55:07.002Z</time></trkpt><trkpt lat="42.60582903799131" lon="11.856043963584646"><ele>412.0</ele><time>2026-04-12T08:55:08.002Z</time></trkpt><trkpt lat="42.60583371828004" lon="11.855886798144779"><ele>412.25</ele><time>2026-04-12T08:55:09.002Z</time></trkpt><trkpt lat="42.605829086621476" lon="11.855720727188576"><ele>412.5</ele><time>2026-04-12T08:55:10.002Z</time></trkpt><trkpt lat="42.605829757234616" lon="11.855551424458369"><ele>412.75</ele><time>2026-04-12T08:55:11.002Z</time></trkpt><trkpt lat="42.60582551354914" lon="11.855379070502375"><ele>413.0</ele><time>2026-04-12T08:55:12.002Z</time></trkpt><trkpt lat="42.60580672445591" lon="11.85520344413639"><ele>412.75</ele><time>2026-04-12T08:55:13.001Z</time></trkpt><trkpt lat="42.60578533956357" lon="11.855012430547562"><ele>412.5</ele><time>2026-04-12T08:55:14.001Z</time></trkpt><trkpt lat="42.605760844678485" lon="11.854846088765077"><ele>412.25</ele><time>2026-04-12T08:55:15.001Z</time></trkpt><trkpt lat="42.60574169572346" lon="11.854686224953548"><ele>412.0</ele><time>2026-04-12T08:55:16.001Z</time></trkpt><trkpt lat="42.6057254587294" lon="11.85452377386828"><ele>412.0</ele><time>2026-04-12T08:55:17Z</time></trkpt><trkpt lat="42.60570449257538" lon="11.854367043157328"><ele>412.0</ele><time>2026-04-12T08:55:18Z</time></trkpt><trkpt lat="42.60568464162217" lon="11.854216280892452"><ele>412.0</ele><time>2026-04-12T08:55:19Z</time></trkpt><trkpt lat="42.60566250215988" lon="11.854054310001038"><ele>412.0</ele><time>2026-04-12T08:55:20Z</time></trkpt><trkpt lat="42.6056516767786" lon="11.853889031602174"><ele>411.25</ele><time>2026-04-12T08:55:21Z</time></trkpt><trkpt lat="42.60566118407752" lon="11.853710857093885"><ele>410.5</ele><time>2026-04-12T08:55:22Z</time></trkpt><trkpt lat="42.60570020732794" lon="11.853540148764331"><ele>409.75</ele><time>2026-04-12T08:55:23Z</time></trkpt><trkpt lat="42.605730951913316" lon="11.853376496035033"><ele>409.0</ele><time>2026-04-12T08:55:24Z</time></trkpt><trkpt lat="42.60576248305417" lon="11.853207242714488"><ele>410.2</ele><time>2026-04-12T08:55:25Z</time></trkpt><trkpt lat="42.60578904540185" lon="11.853056423665192"><ele>411.4</ele><time>2026-04-12T08:55:26Z</time></trkpt><trkpt lat="42.60581490168983" lon="11.85291462152075"><ele>412.6</ele><time>2026-04-12T08:55:27Z</time></trkpt><trkpt lat="42.60584051165377" lon="11.852777976130215"><ele>413.8</ele><time>2026-04-12T08:55:28Z</time></trkpt><trkpt lat="42.60585837331032" lon="11.85264494442488"><ele>415.0</ele><time>2026-04-12T08:55:29Z</time></trkpt><trkpt lat="42.60587938336887" lon="11.852507787419531"><ele>418.4</ele><time>2026-04-12T08:55:30Z</time></trkpt><trkpt lat="42.605920591815554" lon="11.852392887926845"><ele>421.8</ele><time>2026-04-12T08:55:31Z</time></trkpt><trkpt lat="42.6059485862604" lon="11.852264570125161"><ele>425.20000000000005</ele><time>2026-04-12T08:55:32Z</time></trkpt><trkpt lat="42.60597858392308" lon="11.8521293817249"><ele>428.6</ele><time>2026-04-12T08:55:33Z</time></trkpt><trkpt lat="42.60600803273058" lon="11.852003598382355"><ele>432.0</ele><time>2026-04-12T08:55:34Z</time></trkpt><trkpt lat="42.60603752346005" lon="11.851884328006609"><ele>432.6</ele><time>2026-04-12T08:55:35Z</time></trkpt><trkpt lat="42.60607288396064" lon="11.85175464025631"><ele>433.20000000000005</ele><time>2026-04-12T08:55:36Z</time></trkpt><trkpt lat="42.606104817308456" lon="11.851645352009363"><ele>433.8</ele><time>2026-04-12T08:55:37Z</time></trkpt><trkpt lat="42.60615145893052" lon="11.851498689653862"><ele>434.4</ele><time>2026-04-12T08:55:38Z</time></trkpt><trkpt lat="42.60618833224278" lon="11.851345688977917"><ele>435.0</ele><time>2026-04-12T08:55:39Z</time></trkpt><trkpt lat="42.60624155915535" lon="11.851256803186565"><ele>435.0</ele><time>2026-04-12T08:55:40Z</time></trkpt><trkpt lat="42.60628102462823" lon="11.851175348212735"><ele>435.0</ele><time>2026-04-12T08:55:41Z</time></trkpt><trkpt lat="42.60633379650488" lon="11.851043075737673"><ele>435.0</ele><time>2026-04-12T08:55:42Z</time></trkpt><trkpt lat="42.6063937491191" lon="11.850922364104834"><ele>435.0</ele><time>2026-04-12T08:55:43Z</time></trkpt><trkpt lat="42.60641154388652" lon="11.850783683192198"><ele>435.0</ele><time>2026-04-12T08:55:44Z</time></trkpt><trkpt lat="42.60642263438343" lon="11.850651649872509"><ele>438.0</ele><time>2026-04-12T08:55:45Z</time></trkpt><trkpt lat="42.606433588729814" lon="11.850513352685955"><ele>441.0</ele><time>2026-04-12T08:55:46.001Z</time></trkpt><trkpt lat="42.606420854245066" lon="11.850334712436402"><ele>444.0</ele><time>2026-04-12T08:55:48.001Z</time></trkpt><trkpt lat="42.60639438744469" lon="11.850211392843338"><ele>447.0</ele><time>2026-04-12T08:55:49.001Z</time></trkpt><trkpt lat="42.6063437927476" lon="11.850075402226167"><ele>450.0</ele><time>2026-04-12T08:55:50.001Z</time></trkpt><trkpt lat="42.6063134557537" lon="11.84995919854595"><ele>451.8333333333333</ele><time>2026-04-12T08:55:51.001Z</time></trkpt><trkpt lat="42.606330685316" lon="11.849851419200656"><ele>453.66666666666663</ele><time>2026-04-12T08:55:52.001Z</time></trkpt><trkpt lat="42.606340211732615" lon="11.849757296973037"><ele>455.5</ele><time>2026-04-12T08:55:53.001Z</time></trkpt><trkpt lat="42.606354155893435" lon="11.849649659886541"><ele>457.3333333333333</ele><time>2026-04-12T08:55:54.001Z</time></trkpt><trkpt lat="42.606368930921896" lon="11.84954230713053"><ele>459.16666666666663</ele><time>2026-04-12T08:55:55.001Z</time></trkpt><trkpt lat="42.606384526227004" lon="11.849428994567642"><ele>461.0</ele><time>2026-04-12T08:55:56.001Z</time></trkpt><trkpt lat="42.60638192363223" lon="11.849303278218597"><ele>462.4</ele><time>2026-04-12T08:55:57.001Z</time></trkpt><trkpt lat="42.60639082030279" lon="11.849169752354415"><ele>463.8</ele><time>2026-04-12T08:55:58.001Z</time></trkpt><trkpt lat="42.60639593036161" lon="11.849043401058164"><ele>465.19999999999993</ele><time>2026-04-12T08:55:59.001Z</time></trkpt><trkpt lat="42.60639588900688" lon="11.848912651608524"><ele>466.59999999999997</ele><time>2026-04-12T08:56:00.001Z</time></trkpt><trkpt lat="42.60641234557375" lon="11.848786217079054"><ele>468.0</ele><time>2026-04-12T08:56:01.001Z</time></trkpt><trkpt lat="42.60641463448126" lon="11.8486467292087"><ele>468.0</ele><time>2026-04-12T08:56:02.001Z</time></trkpt><trkpt lat="42.606431044875286" lon="11.848496233321521"><ele>467.99999999999994</ele><time>2026-04-12T08:56:03.001Z</time></trkpt><trkpt lat="42.60644448253821" lon="11.848373313941648"><ele>467.99999999999994</ele><time>2026-04-12T08:56:04.001Z</time></trkpt><trkpt lat="42.6064544025387" lon="11.8482592850416"><ele>468.0</ele><time>2026-04-12T08:56:05.001Z</time></trkpt><trkpt lat="42.60647207540154" lon="11.848149843519467"><ele>468.0</ele><time>2026-04-12T08:56:06.001Z</time></trkpt><trkpt lat="42.6064897197445" lon="11.848033918895169"><ele>470.4</ele><time>2026-04-12T08:56:07.001Z</time></trkpt><trkpt lat="42.606513637340214" lon="11.847911601051711"><ele>472.79999999999995</ele><time>2026-04-12T08:56:08.001Z</time></trkpt><trkpt lat="42.60653725907146" lon="11.847797095501724"><ele>475.2</ele><time>2026-04-12T08:56:09.001Z</time></trkpt><trkpt lat="42.60654763499688" lon="11.8476710992424"><ele>477.6</ele><time>2026-04-12T08:56:10.001Z</time></trkpt><trkpt lat="42.60657230117519" lon="11.847550302333282"><ele>480.0</ele><time>2026-04-12T08:56:11.001Z</time></trkpt><trkpt lat="42.606580272389856" lon="11.847412366293163"><ele>482.4</ele><time>2026-04-12T08:56:12.001Z</time></trkpt><trkpt lat="42.60657083084537" lon="11.847293202746988"><ele>484.8</ele><time>2026-04-12T08:56:13.001Z</time></trkpt><trkpt lat="42.60657825820382" lon="11.84717429882048"><ele>487.20000000000005</ele><time>2026-04-12T08:56:14.001Z</time></trkpt><trkpt lat="42.60657383515664" lon="11.847063970545877"><ele>489.6</ele><time>2026-04-12T08:56:15.001Z</time></trkpt><trkpt lat="42.606573036925994" lon="11.846953079236199"><ele>492.0</ele><time>2026-04-12T08:56:16.001Z</time></trkpt><trkpt lat="42.6065644361398" lon="11.84677708046728"><ele>494.0</ele><time>2026-04-12T08:56:18.001Z</time></trkpt><trkpt lat="42.60655243314153" lon="11.8466667754248"><ele>496.0</ele><time>2026-04-12T08:56:19.001Z</time></trkpt><trkpt lat="42.60653509702877" lon="11.846565738798624"><ele>498.0</ele><time>2026-04-12T08:56:20.001Z</time></trkpt><trkpt lat="42.60650882902551" lon="11.846448213979578"><ele>500.0</ele><time>2026-04-12T08:56:21.001Z</time></trkpt><trkpt lat="42.60649211610691" lon="11.846328197156167"><ele>502.0</ele><time>2026-04-12T08:56:22.001Z</time></trkpt><trkpt lat="42.60648496450481" lon="11.846199101129852"><ele>504.0</ele><time>2026-04-12T08:56:23.001Z</time></trkpt><trkpt lat="42.60645606539407" lon="11.846075624086769"><ele>505.79999999999995</ele><time>2026-04-12T08:56:24.001Z</time></trkpt><trkpt lat="42.60643889805056" lon="11.845942550376733"><ele>507.59999999999997</ele><time>2026-04-12T08:56:25.001Z</time></trkpt><trkpt lat="42.60642120147924" lon="11.845815435892607"><ele>509.4</ele><time>2026-04-12T08:56:26.001Z</time></trkpt><trkpt lat="42.60641907366419" lon="11.84568085529403"><ele>511.2</ele><time>2026-04-12T08:56:27.001Z</time></trkpt><trkpt lat="42.60640971462767" lon="11.8455620714914"><ele>513.0</ele><time>2026-04-12T08:56:28.001Z</time></trkpt><trkpt lat="42.60639838422937" lon="11.845438387143773"><ele>513.0</ele><time>2026-04-12T08:56:29.001Z</time></trkpt><trkpt lat="42.60639083909503" lon="11.84530135749321"><ele>513.0</ele><time>2026-04-12T08:56:30.001Z</time></trkpt><trkpt lat="42.60639591353717" lon="11.845181876777712"><ele>513.0</ele><time>2026-04-12T08:56:31.001Z</time></trkpt><trkpt lat="42.60639168352516" lon="11.845060259429063"><ele>513.0</ele><time>2026-04-12T08:56:32.001Z</time></trkpt><trkpt lat="42.6063937668169" lon="11.84494026076285"><ele>513.0</ele><time>2026-04-12T08:56:33.001Z</time></trkpt><trkpt lat="42.606394164111315" lon="11.844811225900747"><ele>514.8</ele><time>2026-04-12T08:56:34.001Z</time></trkpt><trkpt lat="42.606391450246115" lon="11.844682906968288"><ele>516.5999999999999</ele><time>2026-04-12T08:56:35.001Z</time></trkpt><trkpt lat="42.60638917536417" lon="11.844557304634344"><ele>518.4000000000001</ele><time>2026-04-12T08:56:36.001Z</time></trkpt><trkpt lat="42.6063852954634" lon="11.844441160555185"><ele>520.2</ele><time>2026-04-12T08:56:37.001Z</time></trkpt><trkpt lat="42.606380075223406" lon="11.844342360047548"><ele>522.0</ele><time>2026-04-12T08:56:38.001Z</time></trkpt><trkpt lat="42.6063680048045" lon="11.844191317788084"><ele>523.4</ele><time>2026-04-12T08:56:40.001Z</time></trkpt><trkpt lat="42.60636135558342" lon="11.844079280084712"><ele>524.8000000000001</ele><time>2026-04-12T08:56:42.001Z</time></trkpt><trkpt lat="42.60635181091542" lon="11.843973329453664"><ele>526.2</ele><time>2026-04-12T08:57:23.001Z</time></trkpt><trkpt lat="42.6063482006677" lon="11.843863119815028"><ele>527.6</ele><time>2026-04-12T08:57:27.001Z</time></trkpt><trkpt lat="42.60619468804388" lon="11.843806108483276"><ele>529.0</ele><time>2026-04-12T08:57:30.001Z</time></trkpt><trkpt lat="42.6061195227579" lon="11.84383283913791"><ele>529.5</ele><time>2026-04-12T08:57:31.001Z</time></trkpt><trkpt lat="42.60602231091651" lon="11.84385576324512"><ele>530.0</ele><time>2026-04-12T08:57:32.001Z</time></trkpt><trkpt lat="42.60589782672108" lon="11.843871567069852"><ele>530.5</ele><time>2026-04-12T08:57:33.001Z</time></trkpt><trkpt lat="42.605770781875954" lon="11.843890815601267"><ele>531.0</ele><time>2026-04-12T08:57:34.001Z</time></trkpt><trkpt lat="42.605630040956655" lon="11.843894426775227"><ele>531.0</ele><time>2026-04-12T08:57:35.001Z</time></trkpt><trkpt lat="42.60548085030651" lon="11.843880930286707"><ele>531.0</ele><time>2026-04-12T08:57:36Z</time></trkpt><trkpt lat="42.605322720786326" lon="11.843848933258785"><ele>531.0</ele><time>2026-04-12T08:57:37Z</time></trkpt><trkpt lat="42.60516340092724" lon="11.843776059698076"><ele>530.0</ele><time>2026-04-12T08:57:38Z</time></trkpt><trkpt lat="42.60501107350741" lon="11.84369604930764"><ele>529.0</ele><time>2026-04-12T08:57:39Z</time></trkpt><trkpt lat="42.604848603137604" lon="11.84360081399409"><ele>528.0</ele><time>2026-04-12T08:57:40Z</time></trkpt><trkpt lat="42.60468014197388" lon="11.843499732508125"><ele>529.6666666666666</ele><time>2026-04-12T08:57:41Z</time></trkpt><trkpt lat="42.6045072808852" lon="11.843389086697682"><ele>531.3333333333333</ele><time>2026-04-12T08:57:42Z</time></trkpt><trkpt lat="42.60432826388492" lon="11.843283100316748"><ele>533.0</ele><time>2026-04-12T08:57:43.001Z</time></trkpt><trkpt lat="42.60414828883181" lon="11.843200401567481"><ele>533.6666666666666</ele><time>2026-04-12T08:57:44.001Z</time></trkpt><trkpt lat="42.60397621405072" lon="11.84309040726059"><ele>534.3333333333334</ele><time>2026-04-12T08:57:45.001Z</time></trkpt><trkpt lat="42.60381340016315" lon="11.842980642887019"><ele>535.0</ele><time>2026-04-12T08:57:46.001Z</time></trkpt><trkpt lat="42.60361581419011" lon="11.842881898696382"><ele>534.3333333333334</ele><time>2026-04-12T08:57:47.001Z</time></trkpt><trkpt lat="42.60342129345614" lon="11.842773274327037"><ele>533.6666666666666</ele><time>2026-04-12T08:57:48.001Z</time></trkpt><trkpt lat="42.60323455374202" lon="11.84266268843788"><ele>533.0</ele><time>2026-04-12T08:57:49.001Z</time></trkpt><trkpt lat="42.60305227042223" lon="11.8425492678804"><ele>533.0</ele><time>2026-04-12T08:57:50.001Z</time></trkpt><trkpt lat="42.60287551965473" lon="11.84243408721858"><ele>533.0</ele><time>2026-04-12T08:57:51.001Z</time></trkpt><trkpt lat="42.602694404601586" lon="11.842338027377131"><ele>533.0</ele><time>2026-04-12T08:57:52.001Z</time></trkpt><trkpt lat="42.60251407320409" lon="11.842245254786173"><ele>533.3333333333333</ele><time>2026-04-12T08:57:53.001Z</time></trkpt><trkpt lat="42.60233148176396" lon="11.842137270382056"><ele>533.6666666666666</ele><time>2026-04-12T08:57:54.001Z</time></trkpt><trkpt lat="42.60215213458969" lon="11.842027749685862"><ele>534.0</ele><time>2026-04-12T08:57:55.001Z</time></trkpt><trkpt lat="42.6019694722093" lon="11.841916245943345"><ele>534.3333333333334</ele><time>2026-04-12T08:57:56.001Z</time></trkpt><trkpt lat="42.60179563761932" lon="11.841798209113012"><ele>534.6666666666667</ele><time>2026-04-12T08:57:57.001Z</time></trkpt><trkpt lat="42.60160165853664" lon="11.841685574594448"><ele>535.0</ele><time>2026-04-12T08:57:58.001Z</time></trkpt><trkpt lat="42.601404629545996" lon="11.841585253211258"><ele>535.0</ele><time>2026-04-12T08:57:59.001Z</time></trkpt><trkpt lat="42.60120897504106" lon="11.841470592258178"><ele>535.0</ele><time>2026-04-12T08:58:00.001Z</time></trkpt><trkpt lat="42.601011928884496" lon="11.841361351553902"><ele>535.0</ele><time>2026-04-12T08:58:01.001Z</time></trkpt><trkpt lat="42.6008142780303" lon="11.841248769170745"><ele>533.3333333333334</ele><time>2026-04-12T08:58:02.001Z</time></trkpt><trkpt lat="42.60060285580839" lon="11.841135524769202"><ele>531.6666666666666</ele><time>2026-04-12T08:58:03.001Z</time></trkpt><trkpt lat="42.60040060345903" lon="11.841011055407906"><ele>530.0</ele><time>2026-04-12T08:58:04.001Z</time></trkpt><trkpt lat="42.60019312256345" lon="11.840894082596927"><ele>527.5</ele><time>2026-04-12T08:58:05.001Z</time></trkpt><trkpt lat="42.599985224904145" lon="11.840764389033211"><ele>525.0</ele><time>2026-04-12T08:58:06.001Z</time></trkpt><trkpt lat="42.59977131604024" lon="11.840651568255776"><ele>525.0</ele><time>2026-04-12T08:58:07.001Z</time></trkpt><trkpt lat="42.59956137179696" lon="11.840532365474258"><ele>525.0</ele><time>2026-04-12T08:58:08.001Z</time></trkpt><trkpt lat="42.59935432752929" lon="11.840413542610747"><ele>525.0</ele><time>2026-04-12T08:58:09.001Z</time></trkpt><trkpt lat="42.599155817280774" lon="11.840296553061604"><ele>525.0</ele><time>2026-04-12T08:58:10.001Z</time></trkpt><trkpt lat="42.598951364498284" lon="11.840181354608172"><ele>525.0</ele><time>2026-04-12T08:58:11.001Z</time></trkpt><trkpt lat="42.59875547125727" lon="11.840062093176686"><ele>524.3333333333334</ele><time>2026-04-12T08:58:12.001Z</time></trkpt><trkpt lat="42.59855979161324" lon="11.839953782048486"><ele>523.6666666666667</ele><time>2026-04-12T08:58:13.001Z</time></trkpt><trkpt lat="42.59835748919743" lon="11.839844476282522"><ele>523.0</ele><time>2026-04-12T08:58:14.001Z</time></trkpt><trkpt lat="42.59815715558594" lon="11.839728670102474"><ele>523.0</ele><time>2026-04-12T08:58:15.001Z</time></trkpt><trkpt lat="42.59796631868356" lon="11.83960796046645"><ele>523.0</ele><time>2026-04-12T08:58:16.001Z</time></trkpt><trkpt lat="42.59775685000819" lon="11.839490228973435"><ele>523.0</ele><time>2026-04-12T08:58:17.001Z</time></trkpt><trkpt lat="42.597553753139366" lon="11.839376750265396"><ele>520.0</ele><time>2026-04-12T08:58:18.001Z</time></trkpt><trkpt lat="42.59735195353926" lon="11.839253579878818"><ele>517.0</ele><time>2026-04-12T08:58:19.001Z</time></trkpt><trkpt lat="42.59713621771326" lon="11.839139071552248"><ele>517.0</ele><time>2026-04-12T08:58:20.001Z</time></trkpt><trkpt lat="42.596930425970704" lon="11.839033365190867"><ele>517.0</ele><time>2026-04-12T08:58:21.001Z</time></trkpt><trkpt lat="42.59671730441002" lon="11.83891210152745"><ele>517.0</ele><time>2026-04-12T08:58:22.001Z</time></trkpt><trkpt lat="42.59649860432379" lon="11.83879435706142"><ele>517.0</ele><time>2026-04-12T08:58:23.001Z</time></trkpt><trkpt lat="42.596288314001804" lon="11.838676924777662"><ele>519.0</ele><time>2026-04-12T08:58:24.001Z</time></trkpt><trkpt lat="42.59607032328327" lon="11.838550323880057"><ele>521.0</ele><time>2026-04-12T08:58:25.001Z</time></trkpt><trkpt lat="42.59585924916" lon="11.838422306529493"><ele>517.0</ele><time>2026-04-12T08:58:26.001Z</time></trkpt><trkpt lat="42.59564530726769" lon="11.838292318358357"><ele>513.0</ele><time>2026-04-12T08:58:27.001Z</time></trkpt><trkpt lat="42.595427712787256" lon="11.838165782129588"><ele>515.5</ele><time>2026-04-12T08:58:28.001Z</time></trkpt><trkpt lat="42.59520729456973" lon="11.83804935501387"><ele>518.0</ele><time>2026-04-12T08:58:29.001Z</time></trkpt><trkpt lat="42.594982339426636" lon="11.837937112579283"><ele>518.0</ele><time>2026-04-12T08:58:30.001Z</time></trkpt><trkpt lat="42.594765092743984" lon="11.837842844408943"><ele>518.0</ele><time>2026-04-12T08:58:31.001Z</time></trkpt><trkpt lat="42.594541090101025" lon="11.837775556952938"><ele>514.5</ele><time>2026-04-12T08:58:32.001Z</time></trkpt><trkpt lat="42.594308547037734" lon="11.837723624793474"><ele>511.0</ele><time>2026-04-12T08:58:33.001Z</time></trkpt><trkpt lat="42.59407483664543" lon="11.837695653184811"><ele>511.0</ele><time>2026-04-12T08:58:34.001Z</time></trkpt><trkpt lat="42.593839538176695" lon="11.837679737686631"><ele>511.0</ele><time>2026-04-12T08:58:35.001Z</time></trkpt><trkpt lat="42.5936058369864" lon="11.837659007812105"><ele>510.0</ele><time>2026-04-12T08:58:36.001Z</time></trkpt><trkpt lat="42.593369854873" lon="11.837636935351343"><ele>509.0</ele><time>2026-04-12T08:58:37.001Z</time></trkpt><trkpt lat="42.59313697837574" lon="11.837613501730866"><ele>509.0</ele><time>2026-04-12T08:58:38.001Z</time></trkpt><trkpt lat="42.592911112012764" lon="11.837587762732506"><ele>509.0</ele><time>2026-04-12T08:58:39.001Z</time></trkpt><trkpt lat="42.59269912751234" lon="11.837566409232917"><ele>509.0</ele><time>2026-04-12T08:58:40.001Z</time></trkpt><trkpt lat="42.59249322111818" lon="11.837539139083425"><ele>506.3333333333333</ele><time>2026-04-12T08:58:41.001Z</time></trkpt><trkpt lat="42.592290215825415" lon="11.837506825036618"><ele>503.66666666666663</ele><time>2026-04-12T08:58:42.001Z</time></trkpt><trkpt lat="42.59208133919432" lon="11.837471050975276"><ele>501.0</ele><time>2026-04-12T08:58:43.001Z</time></trkpt><trkpt lat="42.59186840336192" lon="11.837420331424838"><ele>501.0</ele><time>2026-04-12T08:58:44.001Z</time></trkpt><trkpt lat="42.591663713140946" lon="11.837344656528554"><ele>501.0</ele><time>2026-04-12T08:58:45.001Z</time></trkpt><trkpt lat="42.59147490397151" lon="11.837251528391466"><ele>501.0</ele><time>2026-04-12T08:58:46.001Z</time></trkpt><trkpt lat="42.59130847894438" lon="11.837159945665817"><ele>499.33333333333337</ele><time>2026-04-12T08:58:47.001Z</time></trkpt><trkpt lat="42.591157470148055" lon="11.83708293972344"><ele>497.6666666666667</ele><time>2026-04-12T08:58:48.001Z</time></trkpt><trkpt lat="42.59101403178805" lon="11.837016129637373"><ele>496.0</ele><time>2026-04-12T08:58:49.001Z</time></trkpt><trkpt lat="42.590880508667325" lon="11.836954711490208"><ele>496.0</ele><time>2026-04-12T08:58:50.001Z</time></trkpt><trkpt lat="42.59076880564837" lon="11.836904708852403"><ele>496.0</ele><time>2026-04-12T08:58:51.001Z</time></trkpt><trkpt lat="42.590682886881446" lon="11.836852396020994"><ele>496.0</ele><time>2026-04-12T08:58:52.001Z</time></trkpt><trkpt lat="42.59061788766993" lon="11.836792728515416"><ele>496.0</ele><time>2026-04-12T08:58:53.001Z</time></trkpt><trkpt lat="42.59056033351564" lon="11.83663946552362"><ele>496.0</ele><time>2026-04-12T08:58:55.001Z</time></trkpt><trkpt lat="42.590536285103134" lon="11.83655070425154"><ele>496.1666666666667</ele><time>2026-04-12T08:58:56.001Z</time></trkpt><trkpt lat="42.59050981870189" lon="11.836454313422463"><ele>496.33333333333337</ele><time>2026-04-12T08:58:57.001Z</time></trkpt><trkpt lat="42.59047337924067" lon="11.836278805359985"><ele>496.5</ele><time>2026-04-12T08:58:59.001Z</time></trkpt><trkpt lat="42.59045850396483" lon="11.836171044892518"><ele>496.66666666666663</ele><time>2026-04-12T08:59:01.001Z</time></trkpt><trkpt lat="42.5904769766917" lon="11.83607850485007"><ele>496.8333333333333</ele><time>2026-04-12T08:59:03.001Z</time></trkpt><trkpt lat="42.590531736196816" lon="11.836021307493393"><ele>497.0</ele><time>2026-04-12T08:59:05.001Z</time></trkpt><trkpt lat="42.590638983493875" lon="11.836044231973522"><ele>497.0</ele><time>2026-04-12T08:59:07.001Z</time></trkpt><trkpt lat="42.59076114740196" lon="11.836091282922187"><ele>497.00000000000006</ele><time>2026-04-12T08:59:09.001Z</time></trkpt><trkpt lat="42.590845699721726" lon="11.836133429804754"><ele>497.00000000000006</ele><time>2026-04-12T08:59:10.001Z</time></trkpt><trkpt lat="42.590911779190414" lon="11.836150958299612"><ele>497.0</ele><time>2026-04-12T08:59:11.001Z</time></trkpt><trkpt lat="42.59100251416443" lon="11.836190802275558"><ele>497.0</ele><time>2026-04-12T08:59:12.001Z</time></trkpt><trkpt lat="42.59107297321374" lon="11.836222194818113"><ele>496.99999999999994</ele><time>2026-04-12T08:59:13.001Z</time></trkpt><trkpt lat="42.59113554069532" lon="11.836252498477014"><ele>497.0</ele><time>2026-04-12T08:59:14.001Z</time></trkpt><trkpt lat="42.59119915160323" lon="11.836291073402675"><ele>497.0</ele><time>2026-04-12T08:59:15.001Z</time></trkpt><trkpt lat="42.59126748708904" lon="11.836347530980225"><ele>497.0</ele><time>2026-04-12T08:59:16.001Z</time></trkpt><trkpt lat="42.59134111639783" lon="11.836415487848333"><ele>496.99999999999994</ele><time>2026-04-12T08:59:17.001Z</time></trkpt><trkpt lat="42.59141328748501" lon="11.836486189431527"><ele>497.0</ele><time>2026-04-12T08:59:18.001Z</time></trkpt><trkpt lat="42.59147720304813" lon="11.836566131755458"><ele>496.20000000000005</ele><time>2026-04-12T08:59:19.001Z</time></trkpt><trkpt lat="42.591540734552574" lon="11.836667136861198"><ele>495.40000000000003</ele><time>2026-04-12T08:59:20.001Z</time></trkpt><trkpt lat="42.59160635184449" lon="11.83678656618312"><ele>494.59999999999997</ele><time>2026-04-12T08:59:21.001Z</time></trkpt><trkpt lat="42.5916601997533" lon="11.836878757160786"><ele>493.79999999999995</ele><time>2026-04-12T08:59:22.001Z</time></trkpt><trkpt lat="42.59171920792214" lon="11.836977053316406"><ele>493.0</ele><time>2026-04-12T08:59:23.002Z</time></trkpt><trkpt lat="42.59176923469131" lon="11.837044069804296"><ele>494.33333333333337</ele><time>2026-04-12T08:59:24.002Z</time></trkpt><trkpt lat="42.59183840416534" lon="11.83708642382993"><ele>495.6666666666667</ele><time>2026-04-12T08:59:25Z</time></trkpt><trkpt lat="42.5919390231642" lon="11.837125905818567"><ele>497.0</ele><time>2026-04-12T08:59:27Z</time></trkpt><trkpt lat="42.592005377206135" lon="11.83711185411457"><ele>498.33333333333337</ele><time>2026-04-12T08:59:28Z</time></trkpt><trkpt lat="42.592056575177494" lon="11.837060732505961"><ele>499.6666666666667</ele><time>2026-04-12T08:59:29Z</time></trkpt><trkpt lat="42.59209289569239" lon="11.836971653674953"><ele>501.0</ele><time>2026-04-12T08:59:30Z</time></trkpt><trkpt lat="42.59211841117788" lon="11.836860413888177"><ele>499.0</ele><time>2026-04-12T08:59:31Z</time></trkpt><trkpt lat="42.592145763896674" lon="11.836719091611368"><ele>497.0</ele><time>2026-04-12T08:59:32Z</time></trkpt><trkpt lat="42.592173335645334" lon="11.836595674811624"><ele>495.0</ele><time>2026-04-12T08:59:33Z</time></trkpt><trkpt lat="42.59221125763108" lon="11.836462711874425"><ele>493.0</ele><time>2026-04-12T08:59:34Z</time></trkpt><trkpt lat="42.59224333519048" lon="11.836344764206384"><ele>491.0</ele><time>2026-04-12T08:59:35Z</time></trkpt><trkpt lat="42.59228156144675" lon="11.836215370945544"><ele>490.99999999999994</ele><time>2026-04-12T08:59:36Z</time></trkpt><trkpt lat="42.59232604278692" lon="11.836109425827177"><ele>491.0</ele><time>2026-04-12T08:59:37Z</time></trkpt><trkpt lat="42.59237024399888" lon="11.83603520841497"><ele>491.0</ele><time>2026-04-12T08:59:38Z</time></trkpt><trkpt lat="42.59241743243853" lon="11.83593059637103"><ele>491.0</ele><time>2026-04-12T08:59:39Z</time></trkpt><trkpt lat="42.592468897895195" lon="11.835850729491389"><ele>490.99999999999994</ele><time>2026-04-12T08:59:40Z</time></trkpt><trkpt lat="42.59252439930492" lon="11.835780589867875"><ele>491.0</ele><time>2026-04-12T08:59:41Z</time></trkpt><trkpt lat="42.59258228127846" lon="11.835712056620503"><ele>488.66666666666663</ele><time>2026-04-12T08:59:42Z</time></trkpt><trkpt lat="42.59265314721272" lon="11.835711991089662"><ele>486.3333333333333</ele><time>2026-04-12T08:59:43Z</time></trkpt><trkpt lat="42.592721150862666" lon="11.835668720215837"><ele>484.0</ele><time>2026-04-12T08:59:44Z</time></trkpt><trkpt lat="42.59279153751575" lon="11.835642795198051"><ele>481.66666666666663</ele><time>2026-04-12T08:59:45Z</time></trkpt><trkpt lat="42.59287921893467" lon="11.835630702095543"><ele>479.3333333333333</ele><time>2026-04-12T08:59:46Z</time></trkpt><trkpt lat="42.59295613911655" lon="11.83563149201167"><ele>477.0</ele><time>2026-04-12T08:59:47Z</time></trkpt><trkpt lat="42.59303809068575" lon="11.835633606333564"><ele>477.0</ele><time>2026-04-12T08:59:48Z</time></trkpt><trkpt lat="42.59311445794414" lon="11.835641377647683"><ele>476.99999999999994</ele><time>2026-04-12T08:59:49Z</time></trkpt><trkpt lat="42.593195224534625" lon="11.835653621031714"><ele>477.0</ele><time>2026-04-12T08:59:50Z</time></trkpt><trkpt lat="42.593261687076726" lon="11.83566458991531"><ele>477.0</ele><time>2026-04-12T08:59:51Z</time></trkpt><trkpt lat="42.59333362874842" lon="11.835676463098972"><ele>476.99999999999994</ele><time>2026-04-12T08:59:52Z</time></trkpt><trkpt lat="42.59341672196032" lon="11.835665692539228"><ele>477.0</ele><time>2026-04-12T08:59:53Z</time></trkpt><trkpt lat="42.59348192359424" lon="11.835684371667622"><ele>477.0</ele><time>2026-04-12T08:59:54Z</time></trkpt><trkpt lat="42.59355502054445" lon="11.83566021785813"><ele>477.0</ele><time>2026-04-12T08:59:55Z</time></trkpt><trkpt lat="42.593612111395075" lon="11.835551670575253"><ele>477.00000000000006</ele><time>2026-04-12T08:59:56Z</time></trkpt><trkpt lat="42.59366437508276" lon="11.835485286976995"><ele>477.00000000000006</ele><time>2026-04-12T08:59:57Z</time></trkpt><trkpt lat="42.5937770866517" lon="11.835442773480965"><ele>477.0</ele><time>2026-04-12T08:59:59Z</time></trkpt><trkpt lat="42.593890849343914" lon="11.835422358262038"><ele>477.0</ele><time>2026-04-12T09:00:01Z</time></trkpt><trkpt lat="42.59396963517159" lon="11.835427049375078"><ele>475.40000000000003</ele><time>2026-04-12T09:00:02Z</time></trkpt><trkpt lat="42.59406271361309" lon="11.835447692606717"><ele>473.80000000000007</ele><time>2026-04-12T09:00:03Z</time></trkpt><trkpt lat="42.59415013211186" lon="11.835472287614948"><ele>472.2</ele><time>2026-04-12T09:00:04Z</time></trkpt><trkpt lat="42.59422917854173" lon="11.835497414991934"><ele>470.6</ele><time>2026-04-12T09:00:05Z</time></trkpt><trkpt lat="42.594324692460305" lon="11.835532831418886"><ele>469.0</ele><time>2026-04-12T09:00:06Z</time></trkpt><trkpt lat="42.594409189010435" lon="11.835568517440505"><ele>469.0</ele><time>2026-04-12T09:00:07.001Z</time></trkpt><trkpt lat="42.59449071280809" lon="11.835625979324963"><ele>469.0</ele><time>2026-04-12T09:00:08.001Z</time></trkpt><trkpt lat="42.59457709403675" lon="11.835737085982563"><ele>469.0</ele><time>2026-04-12T09:00:10.001Z</time></trkpt><trkpt lat="42.594622543500726" lon="11.835800276089486"><ele>469.0</ele><time>2026-04-12T09:00:11.001Z</time></trkpt><trkpt lat="42.59468208719604" lon="11.835843381845349"><ele>469.0</ele><time>2026-04-12T09:00:12.001Z</time></trkpt><trkpt lat="42.594769587331854" lon="11.835945458536807"><ele>471.0</ele><time>2026-04-12T09:00:14.001Z</time></trkpt><trkpt lat="42.594896011461" lon="11.83602496090951"><ele>473.0</ele><time>2026-04-12T09:00:16.001Z</time></trkpt><trkpt lat="42.594995015502946" lon="11.836060019737916"><ele>475.0</ele><time>2026-04-12T09:00:17.001Z</time></trkpt><trkpt lat="42.595059638396116" lon="11.836086094836737"><ele>477.0</ele><time>2026-04-12T09:00:18.001Z</time></trkpt><trkpt lat="42.59515772205048" lon="11.836101349707008"><ele>479.0</ele><time>2026-04-12T09:00:19.001Z</time></trkpt><trkpt lat="42.59524705855484" lon="11.836098169059799"><ele>478.99999999999994</ele><time>2026-04-12T09:00:20.001Z</time></trkpt><trkpt lat="42.59532647107428" lon="11.836091074878224"><ele>479.0</ele><time>2026-04-12T09:00:21.001Z</time></trkpt><trkpt lat="42.595409360688585" lon="11.836085614829196"><ele>479.0</ele><time>2026-04-12T09:00:22.001Z</time></trkpt><trkpt lat="42.5954879566445" lon="11.83608547490437"><ele>479.0</ele><time>2026-04-12T09:00:23.001Z</time></trkpt><trkpt lat="42.59557058781153" lon="11.836096561171987"><ele>478.99999999999994</ele><time>2026-04-12T09:00:24.001Z</time></trkpt><trkpt lat="42.595639690380494" lon="11.836110919241344"><ele>479.0</ele><time>2026-04-12T09:00:25.001Z</time></trkpt><trkpt lat="42.59572521064789" lon="11.83613217062565"><ele>476.2</ele><time>2026-04-12T09:00:26.001Z</time></trkpt><trkpt lat="42.59579975141211" lon="11.836151794341653"><ele>473.4</ele><time>2026-04-12T09:00:27.001Z</time></trkpt><trkpt lat="42.59587660199331" lon="11.836170566351543"><ele>470.6</ele><time>2026-04-12T09:00:28.001Z</time></trkpt><trkpt lat="42.59598008916796" lon="11.836204891242394"><ele>467.8</ele><time>2026-04-12T09:00:29.001Z</time></trkpt><trkpt lat="42.596084259543616" lon="11.836243386815356"><ele>465.0</ele><time>2026-04-12T09:00:30.001Z</time></trkpt><trkpt lat="42.596172310435506" lon="11.836281334400413"><ele>462.4</ele><time>2026-04-12T09:00:31.001Z</time></trkpt><trkpt lat="42.59626029055837" lon="11.836302946126635"><ele>459.8</ele><time>2026-04-12T09:00:32.001Z</time></trkpt><trkpt lat="42.596348928228224" lon="11.836298302157285"><ele>457.20000000000005</ele><time>2026-04-12T09:00:33.001Z</time></trkpt><trkpt lat="42.59644702462213" lon="11.836284652684506"><ele>454.6</ele><time>2026-04-12T09:00:34.001Z</time></trkpt><trkpt lat="42.59654792549548" lon="11.83627343039464"><ele>452.0</ele><time>2026-04-12T09:00:35.001Z</time></trkpt><trkpt lat="42.59663514194875" lon="11.836268019206807"><ele>451.99999999999994</ele><time>2026-04-12T09:00:36.001Z</time></trkpt><trkpt lat="42.59672413772615" lon="11.836261857788502"><ele>452.0</ele><time>2026-04-12T09:00:37.001Z</time></trkpt><trkpt lat="42.59681561888349" lon="11.836256339497528"><ele>452.0</ele><time>2026-04-12T09:00:38.001Z</time></trkpt><trkpt lat="42.59688418207305" lon="11.83625341391305"><ele>452.0</ele><time>2026-04-12T09:00:39.001Z</time></trkpt><trkpt lat="42.59694729653821" lon="11.83625944396778"><ele>451.99999999999994</ele><time>2026-04-12T09:00:40.001Z</time></trkpt><trkpt lat="42.597011791704126" lon="11.836259743102753"><ele>452.0</ele><time>2026-04-12T09:00:41.001Z</time></trkpt><trkpt lat="42.59708646198904" lon="11.836243201794884"><ele>450.6</ele><time>2026-04-12T09:00:42.001Z</time></trkpt><trkpt lat="42.59717603143053" lon="11.836234895897787"><ele>449.20000000000005</ele><time>2026-04-12T09:00:43.001Z</time></trkpt><trkpt lat="42.597271892872264" lon="11.836188289129145"><ele>447.8</ele><time>2026-04-12T09:00:44.001Z</time></trkpt><trkpt lat="42.59737149683034" lon="11.836131644037529"><ele>446.4</ele><time>2026-04-12T09:00:45.001Z</time></trkpt><trkpt lat="42.59746181931871" lon="11.836067946633579"><ele>445.0</ele><time>2026-04-12T09:00:46.001Z</time></trkpt><trkpt lat="42.5975552097713" lon="11.83603605444644"><ele>445.0</ele><time>2026-04-12T09:00:47.001Z</time></trkpt><trkpt lat="42.597632408480756" lon="11.83600378199979"><ele>445.0</ele><time>2026-04-12T09:00:48.001Z</time></trkpt><trkpt lat="42.59778067661907" lon="11.835973937018622"><ele>445.0</ele><time>2026-04-12T09:00:50.001Z</time></trkpt><trkpt lat="42.597867153472045" lon="11.835966351456147"><ele>445.0</ele><time>2026-04-12T09:00:51.001Z</time></trkpt><trkpt lat="42.59795938145054" lon="11.835957759403287"><ele>445.0</ele><time>2026-04-12T09:00:52.001Z</time></trkpt><trkpt lat="42.59806728751736" lon="11.835942632433328"><ele>441.6666666666667</ele><time>2026-04-12T09:00:53.001Z</time></trkpt><trkpt lat="42.59816822882812" lon="11.835928481786953"><ele>438.33333333333337</ele><time>2026-04-12T09:00:54.001Z</time></trkpt><trkpt lat="42.598260390156035" lon="11.835916539176061"><ele>435.0</ele><time>2026-04-12T09:00:55.001Z</time></trkpt><trkpt lat="42.59832683908506" lon="11.835886458609224"><ele>431.66666666666663</ele><time>2026-04-12T09:00:56.001Z</time></trkpt><trkpt lat="42.59840970208138" lon="11.835883639511676"><ele>428.3333333333333</ele><time>2026-04-12T09:00:57.001Z</time></trkpt><trkpt lat="42.59848113236873" lon="11.835858031629149"><ele>425.0</ele><time>2026-04-12T09:00:58.001Z</time></trkpt><trkpt lat="42.59854398377089" lon="11.835818757928275"><ele>424.99999999999994</ele><time>2026-04-12T09:00:59.001Z</time></trkpt><trkpt lat="42.59861376026057" lon="11.835753294790479"><ele>425.0</ele><time>2026-04-12T09:01:00.001Z</time></trkpt><trkpt lat="42.59867764319531" lon="11.83569141278157"><ele>425.0</ele><time>2026-04-12T09:01:01.001Z</time></trkpt><trkpt lat="42.59873417500717" lon="11.83562318672094"><ele>425.0</ele><time>2026-04-12T09:01:02.001Z</time></trkpt><trkpt lat="42.5987763081772" lon="11.835551311057161"><ele>424.99999999999994</ele><time>2026-04-12T09:01:03.001Z</time></trkpt><trkpt lat="42.59884819696826" lon="11.835509341662611"><ele>425.0</ele><time>2026-04-12T09:01:04.001Z</time></trkpt><trkpt lat="42.59893595914416" lon="11.835457363930752"><ele>424.49999999999994</ele><time>2026-04-12T09:01:05.001Z</time></trkpt><trkpt lat="42.5990108794412" lon="11.835415251108056"><ele>424.0</ele><time>2026-04-12T09:01:06.001Z</time></trkpt><trkpt lat="42.59908776283374" lon="11.835376193135751"><ele>423.5</ele><time>2026-04-12T09:01:07.001Z</time></trkpt><trkpt lat="42.599170644232586" lon="11.835337362536052"><ele>423.0</ele><time>2026-04-12T09:01:08.001Z</time></trkpt><trkpt lat="42.59925323217192" lon="11.835302805848967"><ele>422.49999999999994</ele><time>2026-04-12T09:01:09.001Z</time></trkpt><trkpt lat="42.59933608283213" lon="11.83527326271077"><ele>422.0</ele><time>2026-04-12T09:01:10.001Z</time></trkpt><trkpt lat="42.59940466432748" lon="11.83525339177103"><ele>422.0</ele><time>2026-04-12T09:01:11.001Z</time></trkpt><trkpt lat="42.59949314328846" lon="11.8352352179141"><ele>422.0</ele><time>2026-04-12T09:01:12.001Z</time></trkpt><trkpt lat="42.59958358092552" lon="11.835220974058343"><ele>422.0</ele><time>2026-04-12T09:01:13.001Z</time></trkpt><trkpt lat="42.59968026510757" lon="11.835206709655267"><ele>422.0</ele><time>2026-04-12T09:01:14.001Z</time></trkpt><trkpt lat="42.59977671231955" lon="11.835171203900861"><ele>422.0</ele><time>2026-04-12T09:01:15.001Z</time></trkpt><trkpt lat="42.59988034634989" lon="11.835162443891525"><ele>422.40000000000003</ele><time>2026-04-12T09:01:16.001Z</time></trkpt><trkpt lat="42.59998184554116" lon="11.835149784495893"><ele>422.8</ele><time>2026-04-12T09:01:17.001Z</time></trkpt><trkpt lat="42.60008259876096" lon="11.835115805894228"><ele>423.2</ele><time>2026-04-12T09:01:18.001Z</time></trkpt><trkpt lat="42.600184185512546" lon="11.835081668401772"><ele>423.6</ele><time>2026-04-12T09:01:19.001Z</time></trkpt><trkpt lat="42.600268495161" lon="11.835053158468112"><ele>424.0</ele><time>2026-04-12T09:01:20.001Z</time></trkpt><trkpt lat="42.600364183632976" lon="11.835021731943991"><ele>422.00000000000006</ele><time>2026-04-12T09:01:21.001Z</time></trkpt><trkpt lat="42.60045318112076" lon="11.834999607529285"><ele>420.0</ele><time>2026-04-12T09:01:22.001Z</time></trkpt><trkpt lat="42.60052716199367" lon="11.835003655512095"><ele>418.0</ele><time>2026-04-12T09:01:23.001Z</time></trkpt><trkpt lat="42.6006151478121" lon="11.834965941827951"><ele>416.0</ele><time>2026-04-12T09:01:24.001Z</time></trkpt><trkpt lat="42.60071771816424" lon="11.834976974628644"><ele>414.00000000000006</ele><time>2026-04-12T09:01:25.001Z</time></trkpt><trkpt lat="42.60078752558971" lon="11.834956810697836"><ele>412.0</ele><time>2026-04-12T09:01:26.001Z</time></trkpt><trkpt lat="42.600912954122634" lon="11.83497778542179"><ele>412.00000000000006</ele><time>2026-04-12T09:01:28.001Z</time></trkpt><trkpt lat="42.60098261804142" lon="11.834991607684325"><ele>412.0</ele><time>2026-04-12T09:01:29.001Z</time></trkpt><trkpt lat="42.60105616862449" lon="11.835009649737136"><ele>412.0</ele><time>2026-04-12T09:01:30.001Z</time></trkpt><trkpt lat="42.60112863770984" lon="11.83502193740544"><ele>412.0</ele><time>2026-04-12T09:01:31Z</time></trkpt><trkpt lat="42.60123302759284" lon="11.835035114389296"><ele>412.00000000000006</ele><time>2026-04-12T09:01:32Z</time></trkpt><trkpt lat="42.601329765160386" lon="11.835050504771553"><ele>412.0</ele><time>2026-04-12T09:01:33Z</time></trkpt><trkpt lat="42.60143897757339" lon="11.835054170718896"><ele>412.8</ele><time>2026-04-12T09:01:34Z</time></trkpt><trkpt lat="42.6015404607132" lon="11.83504359816884"><ele>413.6</ele><time>2026-04-12T09:01:35Z</time></trkpt><trkpt lat="42.60163771840471" lon="11.835008452887209"><ele>414.40000000000003</ele><time>2026-04-12T09:01:36Z</time></trkpt><trkpt lat="42.60174740991473" lon="11.83493492991224"><ele>415.20000000000005</ele><time>2026-04-12T09:01:37Z</time></trkpt><trkpt lat="42.60184411968507" lon="11.834835935118644"><ele>416.0</ele><time>2026-04-12T09:01:38Z</time></trkpt><trkpt lat="42.60192541078144" lon="11.834730055043071"><ele>415.25</ele><time>2026-04-12T09:01:39Z</time></trkpt><trkpt lat="42.602007663401565" lon="11.834632029321387"><ele>414.5</ele><time>2026-04-12T09:01:40Z</time></trkpt><trkpt lat="42.60209940502593" lon="11.834546746721717"><ele>413.75</ele><time>2026-04-12T09:01:41Z</time></trkpt><trkpt lat="42.60221733137285" lon="11.834461410452322"><ele>413.0</ele><time>2026-04-12T09:01:42Z</time></trkpt><trkpt lat="42.6023417581933" lon="11.834389815791054"><ele>413.0</ele><time>2026-04-12T09:01:43Z</time></trkpt><trkpt lat="42.60246181436743" lon="11.834315989320105"><ele>413.0</ele><time>2026-04-12T09:01:44Z</time></trkpt><trkpt lat="42.60258585906825" lon="11.834239303267035"><ele>413.0</ele><time>2026-04-12T09:01:45Z</time></trkpt><trkpt lat="42.60271351925273" lon="11.83414914055683"><ele>413.0</ele><time>2026-04-12T09:01:46Z</time></trkpt><trkpt lat="42.602816142909866" lon="11.834079928804519"><ele>413.25</ele><time>2026-04-12T09:01:47Z</time></trkpt><trkpt lat="42.60291606784793" lon="11.834028024871373"><ele>413.5</ele><time>2026-04-12T09:01:48Z</time></trkpt><trkpt lat="42.60302629454191" lon="11.83397546924732"><ele>413.75</ele><time>2026-04-12T09:01:49Z</time></trkpt><trkpt lat="42.603145664288874" lon="11.833918217192263"><ele>414.0</ele><time>2026-04-12T09:01:50Z</time></trkpt><trkpt lat="42.60325840434305" lon="11.833873360830077"><ele>414.0</ele><time>2026-04-12T09:01:51Z</time></trkpt><trkpt lat="42.60337487549645" lon="11.83383431086504"><ele>414.0</ele><time>2026-04-12T09:01:52Z</time></trkpt><trkpt lat="42.603498772546345" lon="11.833791584193778"><ele>414.0</ele><time>2026-04-12T09:01:53Z</time></trkpt><trkpt lat="42.603620298728345" lon="11.833754997681863"><ele>414.0</ele><time>2026-04-12T09:01:54Z</time></trkpt><trkpt lat="42.603739911068665" lon="11.833723978352998"><ele>414.25</ele><time>2026-04-12T09:01:55Z</time></trkpt><trkpt lat="42.60385679776296" lon="11.833706039925058"><ele>414.5</ele><time>2026-04-12T09:01:56Z</time></trkpt><trkpt lat="42.603986798697925" lon="11.833699441750394"><ele>414.75</ele><time>2026-04-12T09:01:57Z</time></trkpt><trkpt lat="42.604121748141814" lon="11.83369610141732"><ele>415.0</ele><time>2026-04-12T09:01:58Z</time></trkpt><trkpt lat="42.60426589965976" lon="11.833694594577926"><ele>415.0</ele><time>2026-04-12T09:01:59Z</time></trkpt><trkpt lat="42.60439328439386" lon="11.833686322767392"><ele>415.0</ele><time>2026-04-12T09:02:00Z</time></trkpt><trkpt lat="42.60451290831355" lon="11.833671801111652"><ele>415.0</ele><time>2026-04-12T09:02:01Z</time></trkpt><trkpt lat="42.60462931231416" lon="11.833634086569882"><ele>415.0</ele><time>2026-04-12T09:02:02Z</time></trkpt><trkpt lat="42.60472844486967" lon="11.833588317536051"><ele>415.25</ele><time>2026-04-12T09:02:03Z</time></trkpt><trkpt lat="42.60482594470486" lon="11.833548676539351"><ele>415.5</ele><time>2026-04-12T09:02:04Z</time></trkpt><trkpt lat="42.60493666942695" lon="11.833517658799918"><ele>415.75</ele><time>2026-04-12T09:02:05Z</time></trkpt><trkpt lat="42.60504860279808" lon="11.833476717242057"><ele>416.0</ele><time>2026-04-12T09:02:06Z</time></trkpt><trkpt lat="42.605165655297945" lon="11.83341628957024"><ele>415.5</ele><time>2026-04-12T09:02:07Z</time></trkpt><trkpt lat="42.605280821683515" lon="11.833349847842301"><ele>415.0</ele><time>2026-04-12T09:02:08Z</time></trkpt><trkpt lat="42.6053935327762" lon="11.83328680209349"><ele>414.5</ele><time>2026-04-12T09:02:09Z</time></trkpt><trkpt lat="42.6055059734822" lon="11.833217945420918"><ele>414.0</ele><time>2026-04-12T09:02:10Z</time></trkpt><trkpt lat="42.60561614692066" lon="11.833153307740467"><ele>414.0</ele><time>2026-04-12T09:02:11Z</time></trkpt><trkpt lat="42.60573318608528" lon="11.833093647564857"><ele>414.0</ele><time>2026-04-12T09:02:12Z</time></trkpt><trkpt lat="42.60585983768623" lon="11.833029974735567"><ele>414.0</ele><time>2026-04-12T09:02:13Z</time></trkpt><trkpt lat="42.60597972379499" lon="11.832962969213105"><ele>414.0</ele><time>2026-04-12T09:02:14Z</time></trkpt><trkpt lat="42.60608433711728" lon="11.832911583675317"><ele>414.75</ele><time>2026-04-12T09:02:15Z</time></trkpt><trkpt lat="42.60619475344851" lon="11.832859905000415"><ele>415.5</ele><time>2026-04-12T09:02:16Z</time></trkpt><trkpt lat="42.60631131255581" lon="11.832802746186587"><ele>416.25</ele><time>2026-04-12T09:02:17Z</time></trkpt><trkpt lat="42.60642882949733" lon="11.832749487476654"><ele>417.0</ele><time>2026-04-12T09:02:18Z</time></trkpt><trkpt lat="42.60653693391107" lon="11.832687758637864"><ele>416.25</ele><time>2026-04-12T09:02:19Z</time></trkpt><trkpt lat="42.6066460962436" lon="11.832612255643516"><ele>415.5</ele><time>2026-04-12T09:02:20Z</time></trkpt><trkpt lat="42.606747789764924" lon="11.832541671046489"><ele>414.75</ele><time>2026-04-12T09:02:21Z</time></trkpt><trkpt lat="42.606857720322886" lon="11.83248232361214"><ele>414.0</ele><time>2026-04-12T09:02:22Z</time></trkpt><trkpt lat="42.60697028349422" lon="11.832438071227136"><ele>414.2</ele><time>2026-04-12T09:02:23Z</time></trkpt><trkpt lat="42.60709550064428" lon="11.83242519835399"><ele>414.4</ele><time>2026-04-12T09:02:24Z</time></trkpt><trkpt lat="42.60719964336532" lon="11.832370072081357"><ele>414.6</ele><time>2026-04-12T09:02:25Z</time></trkpt><trkpt lat="42.607296227249265" lon="11.832345204056567"><ele>414.8</ele><time>2026-04-12T09:02:26Z</time></trkpt><trkpt lat="42.60738326882424" lon="11.832319179766994"><ele>415.0</ele><time>2026-04-12T09:02:27Z</time></trkpt><trkpt lat="42.607470792002964" lon="11.832267328204493"><ele>415.00000000000006</ele><time>2026-04-12T09:02:28Z</time></trkpt><trkpt lat="42.607542194605415" lon="11.83220424412712"><ele>415.0</ele><time>2026-04-12T09:02:29Z</time></trkpt><trkpt lat="42.60760695599139" lon="11.832164515544202"><ele>415.0</ele><time>2026-04-12T09:02:30Z</time></trkpt><trkpt lat="42.607667469896036" lon="11.832120287399494"><ele>415.0</ele><time>2026-04-12T09:02:31.001Z</time></trkpt><trkpt lat="42.60774857610513" lon="11.832061251177985"><ele>415.00000000000006</ele><time>2026-04-12T09:02:32.001Z</time></trkpt><trkpt lat="42.607821449184726" lon="11.832005827093608"><ele>415.0</ele><time>2026-04-12T09:02:33.001Z</time></trkpt><trkpt lat="42.60789250093498" lon="11.831951788375276"><ele>415.2</ele><time>2026-04-12T09:02:34.001Z</time></trkpt><trkpt lat="42.60796139869586" lon="11.831889093082316"><ele>415.4</ele><time>2026-04-12T09:02:35.001Z</time></trkpt><trkpt lat="42.60803667010477" lon="11.831841850747065"><ele>415.6</ele><time>2026-04-12T09:02:36.001Z</time></trkpt><trkpt lat="42.60812383773752" lon="11.831776255000813"><ele>415.8</ele><time>2026-04-12T09:02:37.001Z</time></trkpt><trkpt lat="42.608211248773515" lon="11.831699564457823"><ele>416.0</ele><time>2026-04-12T09:02:38.001Z</time></trkpt><trkpt lat="42.6082983972456" lon="11.831630098421671"><ele>416.0</ele><time>2026-04-12T09:02:39.001Z</time></trkpt><trkpt lat="42.60840908562699" lon="11.831544522146348"><ele>416.0</ele><time>2026-04-12T09:02:40.001Z</time></trkpt><trkpt lat="42.60851984149615" lon="11.831459189024603"><ele>416.0</ele><time>2026-04-12T09:02:41.001Z</time></trkpt><trkpt lat="42.60862137366944" lon="11.83137921387265"><ele>416.0</ele><time>2026-04-12T09:02:42.001Z</time></trkpt><trkpt lat="42.60872539320142" lon="11.831300250009496"><ele>416.4</ele><time>2026-04-12T09:02:43.001Z</time></trkpt><trkpt lat="42.60882712168078" lon="11.831232889372576"><ele>416.8</ele><time>2026-04-12T09:02:44.001Z</time></trkpt><trkpt lat="42.608910825542345" lon="11.831167284508476"><ele>417.2</ele><time>2026-04-12T09:02:45.001Z</time></trkpt><trkpt lat="42.60900353025564" lon="11.831091718375754"><ele>417.59999999999997</ele><time>2026-04-12T09:02:46.001Z</time></trkpt><trkpt lat="42.609105275896745" lon="11.831017130087748"><ele>418.0</ele><time>2026-04-12T09:02:47.001Z</time></trkpt><trkpt lat="42.60919557085523" lon="11.830943791745709"><ele>418.0</ele><time>2026-04-12T09:02:48.001Z</time></trkpt><trkpt lat="42.60927917764791" lon="11.830860057055705"><ele>418.0</ele><time>2026-04-12T09:02:49.001Z</time></trkpt><trkpt lat="42.60936127032499" lon="11.830766572367171"><ele>418.0</ele><time>2026-04-12T09:02:50.001Z</time></trkpt><trkpt lat="42.60944236507892" lon="11.830678765719608"><ele>418.0</ele><time>2026-04-12T09:02:51.001Z</time></trkpt><trkpt lat="42.609514621638745" lon="11.830610207297463"><ele>418.0</ele><time>2026-04-12T09:02:52.001Z</time></trkpt><trkpt lat="42.609582813381515" lon="11.830555625144891"><ele>419.0</ele><time>2026-04-12T09:02:53.001Z</time></trkpt><trkpt lat="42.60966137673379" lon="11.83047663969956"><ele>420.0</ele><time>2026-04-12T09:02:54.001Z</time></trkpt><trkpt lat="42.60973002097558" lon="11.830393493951913"><ele>421.0</ele><time>2026-04-12T09:02:55.001Z</time></trkpt><trkpt lat="42.60981243936424" lon="11.830315950923447"><ele>422.0</ele><time>2026-04-12T09:02:56.001Z</time></trkpt><trkpt lat="42.6099032986976" lon="11.830241326042755"><ele>423.0</ele><time>2026-04-12T09:02:57.001Z</time></trkpt><trkpt lat="42.60998354890458" lon="11.830196220665856"><ele>423.0</ele><time>2026-04-12T09:02:58.001Z</time></trkpt><trkpt lat="42.610087343174904" lon="11.830145287077803"><ele>423.0</ele><time>2026-04-12T09:02:59.001Z</time></trkpt><trkpt lat="42.61019527960182" lon="11.830074775176426"><ele>423.0</ele><time>2026-04-12T09:03:00.001Z</time></trkpt><trkpt lat="42.610308732314444" lon="11.830002666850488"><ele>423.0</ele><time>2026-04-12T09:03:01.001Z</time></trkpt><trkpt lat="42.6104285261354" lon="11.829913649993095"><ele>423.0</ele><time>2026-04-12T09:03:02.001Z</time></trkpt><trkpt lat="42.6105487171598" lon="11.829831568000865"><ele>423.0</ele><time>2026-04-12T09:03:03.001Z</time></trkpt><trkpt lat="42.610659042883775" lon="11.829760791961954"><ele>423.0</ele><time>2026-04-12T09:03:04.001Z</time></trkpt><trkpt lat="42.61077629617705" lon="11.829684414005756"><ele>423.0</ele><time>2026-04-12T09:03:05.001Z</time></trkpt><trkpt lat="42.610885618532514" lon="11.829614869411266"><ele>423.0</ele><time>2026-04-12T09:03:06.001Z</time></trkpt><trkpt lat="42.610991476782836" lon="11.829528915961369"><ele>423.0</ele><time>2026-04-12T09:03:07.001Z</time></trkpt><trkpt lat="42.61109822963262" lon="11.829424936250692"><ele>423.0</ele><time>2026-04-12T09:03:08.001Z</time></trkpt><trkpt lat="42.61120236168282" lon="11.829303263288907"><ele>423.0</ele><time>2026-04-12T09:03:09.001Z</time></trkpt><trkpt lat="42.61130909148406" lon="11.829173427091497"><ele>423.25</ele><time>2026-04-12T09:03:10.001Z</time></trkpt><trkpt lat="42.611422105637715" lon="11.829038870924727"><ele>423.5</ele><time>2026-04-12T09:03:11.001Z</time></trkpt><trkpt lat="42.61153724991087" lon="11.828912643851194"><ele>423.75</ele><time>2026-04-12T09:03:12.001Z</time></trkpt><trkpt lat="42.61163426374431" lon="11.82879324752584"><ele>424.0</ele><time>2026-04-12T09:03:13.001Z</time></trkpt><trkpt lat="42.61172845237873" lon="11.828663497099905"><ele>424.0</ele><time>2026-04-12T09:03:14.001Z</time></trkpt><trkpt lat="42.61182371488012" lon="11.828548487648737"><ele>424.0</ele><time>2026-04-12T09:03:15.001Z</time></trkpt><trkpt lat="42.611905968180324" lon="11.828452765285594"><ele>424.0</ele><time>2026-04-12T09:03:16.001Z</time></trkpt><trkpt lat="42.61198715726032" lon="11.828363222512507"><ele>424.0</ele><time>2026-04-12T09:03:17.001Z</time></trkpt><trkpt lat="42.61209057037203" lon="11.828269668462324"><ele>424.25</ele><time>2026-04-12T09:03:18.001Z</time></trkpt><trkpt lat="42.61221353411443" lon="11.828176705150637"><ele>424.5</ele><time>2026-04-12T09:03:19.001Z</time></trkpt><trkpt lat="42.61232796148055" lon="11.828091252437792"><ele>424.75</ele><time>2026-04-12T09:03:20.001Z</time></trkpt><trkpt lat="42.61241146837977" lon="11.82799719129468"><ele>425.0</ele><time>2026-04-12T09:03:21.001Z</time></trkpt><trkpt lat="42.612474703023786" lon="11.827922450374073"><ele>424.99999999999994</ele><time>2026-04-12T09:03:22.001Z</time></trkpt><trkpt lat="42.61255761514805" lon="11.827834489679846"><ele>425.0</ele><time>2026-04-12T09:03:24.001Z</time></trkpt><trkpt lat="42.6126125620296" lon="11.82776045335167"><ele>425.0</ele><time>2026-04-12T09:08:30Z</time></trkpt><trkpt lat="42.612667143558234" lon="11.827701051456312"><ele>425.0</ele><time>2026-04-12T09:08:33.001Z</time></trkpt><trkpt lat="42.61272834296279" lon="11.827643436836514"><ele>424.99999999999994</ele><time>2026-04-12T09:08:38.001Z</time></trkpt><trkpt lat="42.61279355219805" lon="11.82760619216698"><ele>425.0</ele><time>2026-04-12T09:08:41.001Z</time></trkpt><trkpt lat="42.61284271304865" lon="11.827528580274471"><ele>425.16666666666663</ele><time>2026-04-12T09:08:43.001Z</time></trkpt><trkpt lat="42.61289924169531" lon="11.827488235072964"><ele>425.3333333333333</ele><time>2026-04-12T09:08:44.001Z</time></trkpt><trkpt lat="42.61295689994791" lon="11.82743354367924"><ele>425.5</ele><time>2026-04-12T09:08:45.001Z</time></trkpt><trkpt lat="42.613020973823" lon="11.827377271035544"><ele>425.66666666666663</ele><time>2026-04-12T09:08:46.001Z</time></trkpt><trkpt lat="42.61308752716231" lon="11.827310485307333"><ele>425.8333333333333</ele><time>2026-04-12T09:08:47.001Z</time></trkpt><trkpt lat="42.61316427081119" lon="11.827234693110832"><ele>426.0</ele><time>2026-04-12T09:08:48.001Z</time></trkpt><trkpt lat="42.6132301957231" lon="11.827159229145037"><ele>426.0</ele><time>2026-04-12T09:08:49.001Z</time></trkpt><trkpt lat="42.61328609274215" lon="11.827093717134897"><ele>426.0</ele><time>2026-04-12T09:08:50.001Z</time></trkpt><trkpt lat="42.61334442155044" lon="11.827019333208527"><ele>426.0</ele><time>2026-04-12T09:08:51.001Z</time></trkpt><trkpt lat="42.613408683981916" lon="11.826933808444648"><ele>426.0</ele><time>2026-04-12T09:08:52.001Z</time></trkpt><trkpt lat="42.61346080302445" lon="11.826853861138735"><ele>426.0</ele><time>2026-04-12T09:08:53.001Z</time></trkpt><trkpt lat="42.61351286491072" lon="11.826784254143522"><ele>426.0</ele><time>2026-04-12T09:08:54.001Z</time></trkpt><trkpt lat="42.6135481644153" lon="11.826710993423823"><ele>425.5</ele><time>2026-04-12T09:08:55.001Z</time></trkpt><trkpt lat="42.61360985826519" lon="11.826622838182885"><ele>425.0</ele><time>2026-04-12T09:08:56.001Z</time></trkpt><trkpt lat="42.613671443948896" lon="11.826533189685248"><ele>424.5</ele><time>2026-04-12T09:08:57.001Z</time></trkpt><trkpt lat="42.61372672569837" lon="11.826435702053427"><ele>424.0</ele><time>2026-04-12T09:08:58.001Z</time></trkpt><trkpt lat="42.6137861526128" lon="11.826331610056878"><ele>423.5</ele><time>2026-04-12T09:08:59.001Z</time></trkpt><trkpt lat="42.6138454325663" lon="11.826260000352487"><ele>423.0</ele><time>2026-04-12T09:09:00.001Z</time></trkpt><trkpt lat="42.613909460497005" lon="11.826186283788818"><ele>423.8333333333333</ele><time>2026-04-12T09:09:01.001Z</time></trkpt><trkpt lat="42.61397213948425" lon="11.826137158324737"><ele>424.66666666666663</ele><time>2026-04-12T09:09:02.001Z</time></trkpt><trkpt lat="42.614030040597335" lon="11.826079582924613"><ele>425.5</ele><time>2026-04-12T09:09:03.001Z</time></trkpt><trkpt lat="42.61409964247999" lon="11.826025873957455"><ele>426.3333333333333</ele><time>2026-04-12T09:09:04.001Z</time></trkpt><trkpt lat="42.61417393560553" lon="11.825967716969934"><ele>427.16666666666663</ele><time>2026-04-12T09:09:05.001Z</time></trkpt><trkpt lat="42.61424506192893" lon="11.825895228955066"><ele>428.0</ele><time>2026-04-12T09:09:06.001Z</time></trkpt><trkpt lat="42.61431254405531" lon="11.82583615200836"><ele>428.0</ele><time>2026-04-12T09:09:07.001Z</time></trkpt><trkpt lat="42.614381414595115" lon="11.825792752295815"><ele>427.99999999999994</ele><time>2026-04-12T09:09:08.001Z</time></trkpt><trkpt lat="42.61439431954447" lon="11.825603728157155"><ele>427.99999999999994</ele><time>2026-04-12T09:09:09.001Z</time></trkpt><trkpt lat="42.6144297874819" lon="11.82546482169293"><ele>428.0</ele><time>2026-04-12T09:09:10.001Z</time></trkpt><trkpt lat="42.61446699017558" lon="11.825319688938773"><ele>428.0</ele><time>2026-04-12T09:09:11.001Z</time></trkpt><trkpt lat="42.614502738090856" lon="11.825188938741269"><ele>427.59999999999997</ele><time>2026-04-12T09:09:12.001Z</time></trkpt><trkpt lat="42.614523801713304" lon="11.825071250467326"><ele>427.19999999999993</ele><time>2026-04-12T09:09:13.001Z</time></trkpt><trkpt lat="42.61457448263063" lon="11.824956387568564"><ele>426.8</ele><time>2026-04-12T09:09:14.001Z</time></trkpt><trkpt lat="42.614592091671284" lon="11.824843273412338"><ele>426.4</ele><time>2026-04-12T09:09:15.001Z</time></trkpt><trkpt lat="42.61462950880711" lon="11.824711134497791"><ele>426.0</ele><time>2026-04-12T09:09:16.001Z</time></trkpt><trkpt lat="42.61465693036019" lon="11.82458900812169"><ele>426.0</ele><time>2026-04-12T09:09:17.001Z</time></trkpt><trkpt lat="42.6146947924849" lon="11.82446449217679"><ele>426.0</ele><time>2026-04-12T09:09:18.001Z</time></trkpt><trkpt lat="42.61472422685353" lon="11.824340972833014"><ele>426.0</ele><time>2026-04-12T09:09:19.001Z</time></trkpt><trkpt lat="42.61475979119002" lon="11.824203674844146"><ele>426.0</ele><time>2026-04-12T09:09:20.001Z</time></trkpt><trkpt lat="42.6148002131717" lon="11.824065361690893"><ele>426.0</ele><time>2026-04-12T09:09:21.001Z</time></trkpt><trkpt lat="42.61484808774368" lon="11.823918727936068"><ele>426.0</ele><time>2026-04-12T09:09:22.001Z</time></trkpt><trkpt lat="42.61488904416983" lon="11.823774989507033"><ele>426.0</ele><time>2026-04-12T09:09:23.001Z</time></trkpt><trkpt lat="42.614928045971126" lon="11.823642673215987"><ele>426.0</ele><time>2026-04-12T09:09:24.001Z</time></trkpt><trkpt lat="42.61495718866802" lon="11.82351957757282"><ele>426.0</ele><time>2026-04-12T09:09:25.001Z</time></trkpt><trkpt lat="42.614983183364856" lon="11.823404041236614"><ele>426.0</ele><time>2026-04-12T09:09:26.001Z</time></trkpt><trkpt lat="42.61502943719283" lon="11.823295171971404"><ele>425.8333333333333</ele><time>2026-04-12T09:09:27.001Z</time></trkpt><trkpt lat="42.6150551338113" lon="11.823199658148463"><ele>425.66666666666663</ele><time>2026-04-12T09:09:28.001Z</time></trkpt><trkpt lat="42.61508127586003" lon="11.82310248853521"><ele>425.5</ele><time>2026-04-12T09:09:29.001Z</time></trkpt><trkpt lat="42.615127275046106" lon="11.822952464164384"><ele>425.3333333333333</ele><time>2026-04-12T09:09:31.001Z</time></trkpt><trkpt lat="42.61521445480914" lon="11.822905755244673"><ele>425.16666666666663</ele><time>2026-04-12T09:09:33.001Z</time></trkpt><trkpt lat="42.615275179633315" lon="11.822935534246001"><ele>425.0</ele><time>2026-04-12T09:09:34.001Z</time></trkpt><trkpt lat="42.61534251796487" lon="11.82295772863446"><ele>425.49999999999994</ele><time>2026-04-12T09:09:35.001Z</time></trkpt><trkpt lat="42.61542624365628" lon="11.822990439554838"><ele>426.0</ele><time>2026-04-12T09:09:36.001Z</time></trkpt><trkpt lat="42.615531026096185" lon="11.823015072807591"><ele>426.5</ele><time>2026-04-12T09:09:37.001Z</time></trkpt><trkpt lat="42.61562182671292" lon="11.823057787555506"><ele>427.0</ele><time>2026-04-12T09:09:38.001Z</time></trkpt><trkpt lat="42.61569301672859" lon="11.823075546247718"><ele>427.49999999999994</ele><time>2026-04-12T09:09:39.001Z</time></trkpt><trkpt lat="42.61575998232362" lon="11.823065831260372"><ele>428.0</ele><time>2026-04-12T09:09:40.001Z</time></trkpt><trkpt lat="42.615823869700236" lon="11.823051134366564"><ele>428.0</ele><time>2026-04-12T09:09:42.001Z</time></trkpt><trkpt lat="42.61587765071411" lon="11.822964120319314"><ele>427.99999999999994</ele><time>2026-04-12T09:09:44.001Z</time></trkpt><trkpt lat="42.61592183385463" lon="11.822887218698218"><ele>427.99999999999994</ele><time>2026-04-12T09:09:45.001Z</time></trkpt><trkpt lat="42.615976650407255" lon="11.822790552476796"><ele>428.0</ele><time>2026-04-12T09:09:46.001Z</time></trkpt><trkpt lat="42.616037425882034" lon="11.822687262944815"><ele>428.0</ele><time>2026-04-12T09:09:47.001Z</time></trkpt><trkpt lat="42.616105632716796" lon="11.822571343573303"><ele>428.0</ele><time>2026-04-12T09:09:48.001Z</time></trkpt><trkpt lat="42.61616898461161" lon="11.822430827039087"><ele>428.0</ele><time>2026-04-12T09:09:49.001Z</time></trkpt><trkpt lat="42.616261661510556" lon="11.822306168430522"><ele>428.0</ele><time>2026-04-12T09:09:50.001Z</time></trkpt><trkpt lat="42.616329501822385" lon="11.822158743125426"><ele>428.0</ele><time>2026-04-12T09:09:51.001Z</time></trkpt><trkpt lat="42.616407400501025" lon="11.822022291305863"><ele>428.0</ele><time>2026-04-12T09:09:52.001Z</time></trkpt><trkpt lat="42.61649771518494" lon="11.821893497052168"><ele>428.0</ele><time>2026-04-12T09:09:53.001Z</time></trkpt><trkpt lat="42.61656865290032" lon="11.821742123176117"><ele>428.0</ele><time>2026-04-12T09:09:54.001Z</time></trkpt><trkpt lat="42.61664368487452" lon="11.821596776947965"><ele>428.0</ele><time>2026-04-12T09:09:54.999Z</time></trkpt><trkpt lat="42.61672611157817" lon="11.821459035362748"><ele>427.25</ele><time>2026-04-12T09:09:55.999Z</time></trkpt><trkpt lat="42.61680368532731" lon="11.821323363379546"><ele>426.5</ele><time>2026-04-12T09:09:56.999Z</time></trkpt><trkpt lat="42.61688155869897" lon="11.82119021384881"><ele>425.75</ele><time>2026-04-12T09:09:57.999Z</time></trkpt><trkpt lat="42.616956989843956" lon="11.821061571083218"><ele>425.0</ele><time>2026-04-12T09:09:58.999Z</time></trkpt><trkpt lat="42.61705173357172" lon="11.82094020480431"><ele>424.75</ele><time>2026-04-12T09:09:59.999Z</time></trkpt><trkpt lat="42.61714378415324" lon="11.82079786806275"><ele>424.5</ele><time>2026-04-12T09:10:00.999Z</time></trkpt><trkpt lat="42.61722760077755" lon="11.820633605563495"><ele>424.25</ele><time>2026-04-12T09:10:01.999Z</time></trkpt><trkpt lat="42.61732066682738" lon="11.820496055053736"><ele>424.0</ele><time>2026-04-12T09:10:02.999Z</time></trkpt><trkpt lat="42.61740130290358" lon="11.820372093584968"><ele>424.0</ele><time>2026-04-12T09:10:03.999Z</time></trkpt><trkpt lat="42.61747126093235" lon="11.820255950622045"><ele>424.0</ele><time>2026-04-12T09:10:04.999Z</time></trkpt><trkpt lat="42.61751768566574" lon="11.820127009790898"><ele>424.0</ele><time>2026-04-12T09:10:05.999Z</time></trkpt><trkpt lat="42.617554406304635" lon="11.820022941020627"><ele>424.0</ele><time>2026-04-12T09:10:06.999Z</time></trkpt><trkpt lat="42.61745671503822" lon="11.819867855476277"><ele>424.0</ele><time>2026-04-12T09:10:07.999Z</time></trkpt><trkpt lat="42.61741958139689" lon="11.819745520033026"><ele>424.0</ele><time>2026-04-12T09:10:09.999Z</time></trkpt><trkpt lat="42.61750471223926" lon="11.819573237566745"><ele>424.0</ele><time>2026-04-12T09:10:11.999Z</time></trkpt><trkpt lat="42.617567636298524" lon="11.81951453665689"><ele>424.0</ele><time>2026-04-12T09:10:12.999Z</time></trkpt><trkpt lat="42.61764200627115" lon="11.81946455105071"><ele>424.0</ele><time>2026-04-12T09:10:13.999Z</time></trkpt><trkpt lat="42.61772090870115" lon="11.819424029840446"><ele>424.00000000000006</ele><time>2026-04-12T09:10:14.999Z</time></trkpt><trkpt lat="42.61780647106683" lon="11.819393098031844"><ele>424.0</ele><time>2026-04-12T09:10:15.999Z</time></trkpt><trkpt lat="42.61789682519441" lon="11.81937076226257"><ele>424.0</ele><time>2026-04-12T09:10:16.999Z</time></trkpt><trkpt lat="42.61798347904487" lon="11.819362329652028"><ele>424.0</ele><time>2026-04-12T09:10:17.999Z</time></trkpt><trkpt lat="42.61807034929828" lon="11.819358903055267"><ele>424.00000000000006</ele><time>2026-04-12T09:10:18.999Z</time></trkpt><trkpt lat="42.61816191873368" lon="11.819346545808848"><ele>424.0</ele><time>2026-04-12T09:10:19.999Z</time></trkpt><trkpt lat="42.618255926618644" lon="11.819332119632204"><ele>424.4</ele><time>2026-04-12T09:10:20.999Z</time></trkpt><trkpt lat="42.61835363206964" lon="11.819319987207816"><ele>424.79999999999995</ele><time>2026-04-12T09:10:21.999Z</time></trkpt><trkpt lat="42.61844841809325" lon="11.819311890958666"><ele>425.20000000000005</ele><time>2026-04-12T09:10:22.999Z</time></trkpt><trkpt lat="42.61854438609109" lon="11.819306456475642"><ele>425.6</ele><time>2026-04-12T09:10:23.999Z</time></trkpt><trkpt lat="42.618648499561836" lon="11.819305170626969"><ele>426.0</ele><time>2026-04-12T09:10:24.999Z</time></trkpt><trkpt lat="42.618758749847565" lon="11.819303070285388"><ele>427.8</ele><time>2026-04-12T09:10:25.999Z</time></trkpt><trkpt lat="42.618858515676045" lon="11.819320698257286"><ele>429.6</ele><time>2026-04-12T09:10:26.999Z</time></trkpt><trkpt lat="42.61895417266376" lon="11.819355796712731"><ele>431.4</ele><time>2026-04-12T09:10:27.999Z</time></trkpt><trkpt lat="42.619053463045006" lon="11.819381710154556"><ele>433.2</ele><time>2026-04-12T09:10:28.999Z</time></trkpt><trkpt lat="42.61915103948657" lon="11.819407244301495"><ele>435.0</ele><time>2026-04-12T09:10:29.999Z</time></trkpt><trkpt lat="42.61924759876653" lon="11.819426975227532"><ele>435.0</ele><time>2026-04-12T09:10:30.999Z</time></trkpt><trkpt lat="42.61935457013686" lon="11.81943564181768"><ele>435.0</ele><time>2026-04-12T09:10:31.999Z</time></trkpt><trkpt lat="42.61947306343905" lon="11.819442890673207"><ele>435.0</ele><time>2026-04-12T09:10:32.999Z</time></trkpt><trkpt lat="42.619600008673736" lon="11.819438281628821"><ele>435.0</ele><time>2026-04-12T09:10:33.999Z</time></trkpt><trkpt lat="42.61973062909406" lon="11.81942966420071"><ele>437.0</ele><time>2026-04-12T09:10:34.999Z</time></trkpt><trkpt lat="42.61985012500371" lon="11.819417173929944"><ele>439.0</ele><time>2026-04-12T09:10:35.999Z</time></trkpt><trkpt lat="42.61995624260286" lon="11.819419904186898"><ele>441.0</ele><time>2026-04-12T09:10:36.999Z</time></trkpt><trkpt lat="42.62005007590279" lon="11.819406669832032"><ele>443.0</ele><time>2026-04-12T09:10:38Z</time></trkpt><trkpt lat="42.62014838076033" lon="11.819385183843044"><ele>445.0</ele><time>2026-04-12T09:10:39Z</time></trkpt><trkpt lat="42.62024608783223" lon="11.819353709448073"><ele>443.6</ele><time>2026-04-12T09:10:40Z</time></trkpt><trkpt lat="42.62033073957023" lon="11.819318882197058"><ele>442.2</ele><time>2026-04-12T09:10:41Z</time></trkpt><trkpt lat="42.62041081809356" lon="11.819273799921005"><ele>440.79999999999995</ele><time>2026-04-12T09:10:42Z</time></trkpt><trkpt lat="42.62050471779987" lon="11.81919870069389"><ele>439.4</ele><time>2026-04-12T09:10:43Z</time></trkpt><trkpt lat="42.62059920046835" lon="11.8190962337728"><ele>438.0</ele><time>2026-04-12T09:10:44Z</time></trkpt><trkpt lat="42.620693075642826" lon="11.818969563669283"><ele>438.0</ele><time>2026-04-12T09:10:45Z</time></trkpt><trkpt lat="42.6207846926759" lon="11.818842947367678"><ele>438.0</ele><time>2026-04-12T09:10:46Z</time></trkpt><trkpt lat="42.6208600663303" lon="11.818719140415276"><ele>438.0</ele><time>2026-04-12T09:10:47Z</time></trkpt><trkpt lat="42.62092650412399" lon="11.81859209665116"><ele>438.0</ele><time>2026-04-12T09:10:48Z</time></trkpt><trkpt lat="42.6209889610189" lon="11.818445221784414"><ele>438.0</ele><time>2026-04-12T09:10:49Z</time></trkpt><trkpt lat="42.621042606507494" lon="11.818279736385263"><ele>437.99999999999994</ele><time>2026-04-12T09:10:50Z</time></trkpt><trkpt lat="42.621097519087535" lon="11.818154162674949"><ele>437.99999999999994</ele><time>2026-04-12T09:10:51Z</time></trkpt><trkpt lat="42.621122543312126" lon="11.81804372383711"><ele>438.0</ele><time>2026-04-12T09:10:52Z</time></trkpt><trkpt lat="42.62114832466296" lon="11.817951257058427"><ele>438.0</ele><time>2026-04-12T09:10:53Z</time></trkpt><trkpt lat="42.6211768678783" lon="11.817858743654314"><ele>438.0</ele><time>2026-04-12T09:10:54Z</time></trkpt><trkpt lat="42.62120067240678" lon="11.817752645459628"><ele>438.0</ele><time>2026-04-12T09:10:55Z</time></trkpt><trkpt lat="42.621220119061334" lon="11.817636459628465"><ele>438.0</ele><time>2026-04-12T09:10:56Z</time></trkpt><trkpt lat="42.62123842462274" lon="11.817530924469768"><ele>438.0</ele><time>2026-04-12T09:10:57Z</time></trkpt><trkpt lat="42.621272530602425" lon="11.81741818293916"><ele>438.0</ele><time>2026-04-12T09:10:58Z</time></trkpt><trkpt lat="42.621305212711555" lon="11.817300367109235"><ele>438.0</ele><time>2026-04-12T09:10:59Z</time></trkpt><trkpt lat="42.621343943444536" lon="11.81715361461797"><ele>437.59999999999997</ele><time>2026-04-12T09:11:00Z</time></trkpt><trkpt lat="42.62137516392401" lon="11.816978206354907"><ele>437.19999999999993</ele><time>2026-04-12T09:11:01Z</time></trkpt><trkpt lat="42.62139475916645" lon="11.81681037573039"><ele>436.8</ele><time>2026-04-12T09:11:02Z</time></trkpt><trkpt lat="42.62141784243773" lon="11.81667272038025"><ele>436.4</ele><time>2026-04-12T09:11:03Z</time></trkpt><trkpt lat="42.621453552891715" lon="11.816568389272469"><ele>436.0</ele><time>2026-04-12T09:11:04Z</time></trkpt><trkpt lat="42.62150686634467" lon="11.816470136661556"><ele>435.4</ele><time>2026-04-12T09:11:05Z</time></trkpt><trkpt lat="42.62157521176107" lon="11.81639548739785"><ele>434.8</ele><time>2026-04-12T09:11:06Z</time></trkpt><trkpt lat="42.621660073021346" lon="11.81631263241927"><ele>434.19999999999993</ele><time>2026-04-12T09:11:07Z</time></trkpt><trkpt lat="42.62174969880918" lon="11.816226288899546"><ele>433.59999999999997</ele><time>2026-04-12T09:11:08Z</time></trkpt><trkpt lat="42.62185578230818" lon="11.816112970290536"><ele>433.0</ele><time>2026-04-12T09:11:09Z</time></trkpt><trkpt lat="42.62194811584128" lon="11.81598428061851"><ele>433.25</ele><time>2026-04-12T09:11:10Z</time></trkpt><trkpt lat="42.62202209550486" lon="11.815833476935161"><ele>433.5</ele><time>2026-04-12T09:11:11Z</time></trkpt><trkpt lat="42.6220985358023" lon="11.815653881903007"><ele>433.75</ele><time>2026-04-12T09:11:12Z</time></trkpt><trkpt lat="42.62216344177782" lon="11.815494670832509"><ele>434.0</ele><time>2026-04-12T09:11:13Z</time></trkpt><trkpt lat="42.62223046675436" lon="11.815348634947057"><ele>434.0</ele><time>2026-04-12T09:11:14Z</time></trkpt><trkpt lat="42.622297003274454" lon="11.815257958977192"><ele>434.0</ele><time>2026-04-12T09:11:15Z</time></trkpt><trkpt lat="42.6223495087832" lon="11.815161956956953"><ele>434.0</ele><time>2026-04-12T09:11:16Z</time></trkpt><trkpt lat="42.62240043493735" lon="11.815059939658731"><ele>434.0</ele><time>2026-04-12T09:11:17Z</time></trkpt><trkpt lat="42.622436499964984" lon="11.814952381718944"><ele>434.0</ele><time>2026-04-12T09:11:18Z</time></trkpt><trkpt lat="42.62248724267009" lon="11.814847085051571"><ele>433.79999999999995</ele><time>2026-04-12T09:11:19Z</time></trkpt><trkpt lat="42.622522852714525" lon="11.814719431671536"><ele>433.59999999999997</ele><time>2026-04-12T09:11:20Z</time></trkpt><trkpt lat="42.622550824702" lon="11.814586466671082"><ele>433.4</ele><time>2026-04-12T09:11:21Z</time></trkpt><trkpt lat="42.62256618567335" lon="11.814441019403837"><ele>433.2</ele><time>2026-04-12T09:11:22Z</time></trkpt><trkpt lat="42.62257654133154" lon="11.814322622139766"><ele>433.0</ele><time>2026-04-12T09:11:23Z</time></trkpt><trkpt lat="42.62257365727966" lon="11.814168998552711"><ele>433.59999999999997</ele><time>2026-04-12T09:11:24Z</time></trkpt><trkpt lat="42.622582216917934" lon="11.814048641898863"><ele>434.19999999999993</ele><time>2026-04-12T09:11:25Z</time></trkpt><trkpt lat="42.622603773118826" lon="11.813895715068586"><ele>434.8</ele><time>2026-04-12T09:11:26Z</time></trkpt><trkpt lat="42.62263110101202" lon="11.813742171512263"><ele>435.4</ele><time>2026-04-12T09:11:27Z</time></trkpt><trkpt lat="42.622664142777715" lon="11.813597850958178"><ele>436.0</ele><time>2026-04-12T09:11:28Z</time></trkpt><trkpt lat="42.62267850059486" lon="11.813445084528572"><ele>436.5</ele><time>2026-04-12T09:11:29Z</time></trkpt><trkpt lat="42.62267354813087" lon="11.8132911046744"><ele>437.0</ele><time>2026-04-12T09:11:30Z</time></trkpt><trkpt lat="42.62264784976925" lon="11.813120601385227"><ele>437.5</ele><time>2026-04-12T09:11:31Z</time></trkpt><trkpt lat="42.62262140200454" lon="11.81295860097195"><ele>438.0</ele><time>2026-04-12T09:11:32Z</time></trkpt><trkpt lat="42.62258915161192" lon="11.812809056168646"><ele>438.0</ele><time>2026-04-12T09:11:33Z</time></trkpt><trkpt lat="42.62257982514043" lon="11.81266965417859"><ele>438.0</ele><time>2026-04-12T09:11:34Z</time></trkpt><trkpt lat="42.622572076840584" lon="11.812525640046566"><ele>438.0</ele><time>2026-04-12T09:11:35Z</time></trkpt><trkpt lat="42.62257044073557" lon="11.812357515158824"><ele>438.0</ele><time>2026-04-12T09:11:36Z</time></trkpt><trkpt lat="42.62260628126551" lon="11.812157281023458"><ele>438.75</ele><time>2026-04-12T09:11:37Z</time></trkpt><trkpt lat="42.62262621115079" lon="11.811967785890749"><ele>439.5</ele><time>2026-04-12T09:11:38Z</time></trkpt><trkpt lat="42.62262744116016" lon="11.811793049912996"><ele>440.25</ele><time>2026-04-12T09:11:39Z</time></trkpt><trkpt lat="42.62261694794362" lon="11.811615204162308"><ele>441.0</ele><time>2026-04-12T09:11:40Z</time></trkpt><trkpt lat="42.62260256380422" lon="11.811426353815492"><ele>441.75</ele><time>2026-04-12T09:11:41Z</time></trkpt><trkpt lat="42.62258087845154" lon="11.811244662035701"><ele>442.5</ele><time>2026-04-12T09:11:42Z</time></trkpt><trkpt lat="42.62254957140475" lon="11.811078937547027"><ele>443.25</ele><time>2026-04-12T09:11:43Z</time></trkpt><trkpt lat="42.622533608114" lon="11.810932447241543"><ele>444.0</ele><time>2026-04-12T09:11:44Z</time></trkpt><trkpt lat="42.622505320429376" lon="11.810758089690653"><ele>444.25</ele><time>2026-04-12T09:11:45Z</time></trkpt><trkpt lat="42.62247768815942" lon="11.810595629420373"><ele>444.5</ele><time>2026-04-12T09:11:46Z</time></trkpt><trkpt lat="42.622454264946946" lon="11.810429826347612"><ele>444.75</ele><time>2026-04-12T09:11:47Z</time></trkpt><trkpt lat="42.622439122850814" lon="11.81027991113026"><ele>445.0</ele><time>2026-04-12T09:11:48Z</time></trkpt><trkpt lat="42.62243700098675" lon="11.810111467174268"><ele>445.2</ele><time>2026-04-12T09:11:49Z</time></trkpt><trkpt lat="42.62242857736544" lon="11.809950407316565"><ele>445.4</ele><time>2026-04-12T09:11:50Z</time></trkpt><trkpt lat="42.62240479230902" lon="11.809814765256858"><ele>445.6</ele><time>2026-04-12T09:11:51Z</time></trkpt><trkpt lat="42.62240512773037" lon="11.809684854202716"><ele>445.8</ele><time>2026-04-12T09:11:52Z</time></trkpt><trkpt lat="42.62239512925993" lon="11.809557193666027"><ele>446.0</ele><time>2026-04-12T09:11:53Z</time></trkpt><trkpt lat="42.622405920262985" lon="11.809450112367385"><ele>446.0</ele><time>2026-04-12T09:11:54Z</time></trkpt><trkpt lat="42.622406853374734" lon="11.809356499507524"><ele>446.0</ele><time>2026-04-12T09:11:55Z</time></trkpt><trkpt lat="42.62240715429512" lon="11.809267306751789"><ele>446.0</ele><time>2026-04-12T09:11:56Z</time></trkpt><trkpt lat="42.622391777937864" lon="11.809111929858265"><ele>446.0</ele><time>2026-04-12T09:11:58Z</time></trkpt><trkpt lat="42.62238386068076" lon="11.808980042014603"><ele>446.0</ele><time>2026-04-12T09:12:00Z</time></trkpt><trkpt lat="42.62230839087908" lon="11.808881497431624"><ele>445.99999999999994</ele><time>2026-04-12T09:12:01.998Z</time></trkpt><trkpt lat="42.62223346334799" lon="11.808784630341684"><ele>446.0</ele><time>2026-04-12T09:12:03.998Z</time></trkpt><trkpt lat="42.62214904157662" lon="11.808669053631863"><ele>446.0</ele><time>2026-04-12T09:12:05.998Z</time></trkpt><trkpt lat="42.62211334923307" lon="11.808596768843994"><ele>446.0</ele><time>2026-04-12T09:12:06.998Z</time></trkpt><trkpt lat="42.622075934738945" lon="11.80852383668592"><ele>445.99999999999994</ele><time>2026-04-12T09:12:07.998Z</time></trkpt><trkpt lat="42.622052117428865" lon="11.808436293152269"><ele>446.0</ele><time>2026-04-12T09:12:08.998Z</time></trkpt><trkpt lat="42.62201916442586" lon="11.808358913227758"><ele>445.16666666666663</ele><time>2026-04-12T09:12:09.998Z</time></trkpt><trkpt lat="42.62198318556674" lon="11.808272594525203"><ele>444.3333333333333</ele><time>2026-04-12T09:12:10.998Z</time></trkpt><trkpt lat="42.621948049946596" lon="11.808185998389161"><ele>443.5</ele><time>2026-04-12T09:12:11.998Z</time></trkpt><trkpt lat="42.621910316528684" lon="11.80809299966303"><ele>442.66666666666663</ele><time>2026-04-12T09:12:12.998Z</time></trkpt><trkpt lat="42.621869283134394" lon="11.808007931421127"><ele>441.8333333333333</ele><time>2026-04-12T09:12:13.998Z</time></trkpt><trkpt lat="42.62183447494911" lon="11.8079144955977"><ele>441.0</ele><time>2026-04-12T09:12:14.999Z</time></trkpt><trkpt lat="42.62179494040723" lon="11.807806811043415"><ele>440.6</ele><time>2026-04-12T09:12:15.999Z</time></trkpt><trkpt lat="42.62174025965903" lon="11.807678684013096"><ele>440.20000000000005</ele><time>2026-04-12T09:12:16.999Z</time></trkpt><trkpt lat="42.62171472354691" lon="11.807548070517086"><ele>439.79999999999995</ele><time>2026-04-12T09:12:17.999Z</time></trkpt><trkpt lat="42.62167608288751" lon="11.807408467291678"><ele>439.4</ele><time>2026-04-12T09:12:18.999Z</time></trkpt><trkpt lat="42.62163740273647" lon="11.807260890410454"><ele>439.0</ele><time>2026-04-12T09:12:19.999Z</time></trkpt><trkpt lat="42.621596647347594" lon="11.80710377334586"><ele>438.0</ele><time>2026-04-12T09:12:20.999Z</time></trkpt><trkpt lat="42.62155379067132" lon="11.80694180391462"><ele>437.0</ele><time>2026-04-12T09:12:21.999Z</time></trkpt><trkpt lat="42.621496570134184" lon="11.806784999042481"><ele>436.0</ele><time>2026-04-12T09:12:22.999Z</time></trkpt><trkpt lat="42.621465218968865" lon="11.806605904001598"><ele>435.0</ele><time>2026-04-12T09:12:23.999Z</time></trkpt><trkpt lat="42.62142690847976" lon="11.806439671087364"><ele>435.0</ele><time>2026-04-12T09:12:24.999Z</time></trkpt><trkpt lat="42.62138936002097" lon="11.806303405186634"><ele>435.0</ele><time>2026-04-12T09:12:25.999Z</time></trkpt><trkpt lat="42.62133870020572" lon="11.806153377789732"><ele>435.0</ele><time>2026-04-12T09:12:26.999Z</time></trkpt><trkpt lat="42.621292126767685" lon="11.806007745085772"><ele>435.0</ele><time>2026-04-12T09:12:27.999Z</time></trkpt><trkpt lat="42.621246295170735" lon="11.805854242933378"><ele>434.8</ele><time>2026-04-12T09:12:28.999Z</time></trkpt><trkpt lat="42.62120436342701" lon="11.805704943812533"><ele>434.6</ele><time>2026-04-12T09:12:29.999Z</time></trkpt><trkpt lat="42.62116369158822" lon="11.805571010299651"><ele>434.4</ele><time>2026-04-12T09:12:30.999Z</time></trkpt><trkpt lat="42.62113148722664" lon="11.80546333841026"><ele>434.2</ele><time>2026-04-12T09:12:31.999Z</time></trkpt><trkpt lat="42.62111838040967" lon="11.805364981451154"><ele>434.0</ele><time>2026-04-12T09:12:32.999Z</time></trkpt><trkpt lat="42.62108418664312" lon="11.805279568673399"><ele>434.6</ele><time>2026-04-12T09:12:33.999Z</time></trkpt><trkpt lat="42.6210562842749" lon="11.805152126387247"><ele>435.2</ele><time>2026-04-12T09:12:34.999Z</time></trkpt><trkpt lat="42.621023811537746" lon="11.80501398196339"><ele>435.80000000000007</ele><time>2026-04-12T09:12:35.999Z</time></trkpt><trkpt lat="42.620978996224444" lon="11.804857604275897"><ele>436.40000000000003</ele><time>2026-04-12T09:12:36.999Z</time></trkpt><trkpt lat="42.62094429443433" lon="11.804712495200087"><ele>437.0</ele><time>2026-04-12T09:12:37.999Z</time></trkpt><trkpt lat="42.620930917881104" lon="11.804575368898169"><ele>437.0</ele><time>2026-04-12T09:12:39Z</time></trkpt><trkpt lat="42.620901651975316" lon="11.80443508923608"><ele>437.0</ele><time>2026-04-12T09:12:40Z</time></trkpt><trkpt lat="42.62086791858054" lon="11.804274558413383"><ele>437.0</ele><time>2026-04-12T09:12:41Z</time></trkpt><trkpt lat="42.62083501448029" lon="11.80409315287627"><ele>437.0</ele><time>2026-04-12T09:12:42Z</time></trkpt><trkpt lat="42.62080191837317" lon="11.803925333347552"><ele>437.0</ele><time>2026-04-12T09:12:43Z</time></trkpt><trkpt lat="42.62076572743476" lon="11.803761803988667"><ele>437.0</ele><time>2026-04-12T09:12:44Z</time></trkpt><trkpt lat="42.62072472714998" lon="11.8036140519987"><ele>437.0</ele><time>2026-04-12T09:12:45Z</time></trkpt><trkpt lat="42.62067149149719" lon="11.803460018086998"><ele>437.0</ele><time>2026-04-12T09:12:46Z</time></trkpt><trkpt lat="42.620645784852954" lon="11.803334185210124"><ele>436.8</ele><time>2026-04-12T09:12:47Z</time></trkpt><trkpt lat="42.62061815323991" lon="11.803245605239887"><ele>436.6</ele><time>2026-04-12T09:12:48Z</time></trkpt><trkpt lat="42.62058618381079" lon="11.803106882558508"><ele>436.40000000000003</ele><time>2026-04-12T09:12:50Z</time></trkpt><trkpt lat="42.62057305156023" lon="11.802991268596355"><ele>436.20000000000005</ele><time>2026-04-12T09:12:53Z</time></trkpt><trkpt lat="42.620416220726675" lon="11.802913122711582"><ele>436.0</ele><time>2026-04-12T09:12:59Z</time></trkpt><trkpt lat="42.62037013345115" lon="11.802829604029414"><ele>436.33333333333337</ele><time>2026-04-12T09:13:00Z</time></trkpt><trkpt lat="42.62031005730188" lon="11.802752673001125"><ele>436.6666666666667</ele><time>2026-04-12T09:13:01Z</time></trkpt><trkpt lat="42.62025108998105" lon="11.802671827725565"><ele>437.0</ele><time>2026-04-12T09:13:02Z</time></trkpt><trkpt lat="42.620185099328296" lon="11.802580066934024"><ele>437.33333333333337</ele><time>2026-04-12T09:13:03Z</time></trkpt><trkpt lat="42.62012134454926" lon="11.80248891031292"><ele>437.6666666666667</ele><time>2026-04-12T09:13:04Z</time></trkpt><trkpt lat="42.62005755832557" lon="11.802397708760372"><ele>438.0</ele><time>2026-04-12T09:13:05Z</time></trkpt><trkpt lat="42.62000022139135" lon="11.802308070530803"><ele>438.0</ele><time>2026-04-12T09:13:06Z</time></trkpt><trkpt lat="42.61994175213183" lon="11.802195557489867"><ele>438.0</ele><time>2026-04-12T09:13:07Z</time></trkpt><trkpt lat="42.619893268840244" lon="11.802058457234509"><ele>438.0</ele><time>2026-04-12T09:13:08Z</time></trkpt><trkpt lat="42.619867066494535" lon="11.801905076025427"><ele>438.0</ele><time>2026-04-12T09:13:09Z</time></trkpt><trkpt lat="42.61982981783653" lon="11.801730632164572"><ele>438.0</ele><time>2026-04-12T09:13:10Z</time></trkpt><trkpt lat="42.61978159148204" lon="11.801569193775153"><ele>438.0</ele><time>2026-04-12T09:13:11Z</time></trkpt><trkpt lat="42.61976054735538" lon="11.801420238248427"><ele>438.0</ele><time>2026-04-12T09:13:12Z</time></trkpt><trkpt lat="42.61972090145771" lon="11.80127772509422"><ele>438.0</ele><time>2026-04-12T09:13:13Z</time></trkpt><trkpt lat="42.61967202601302" lon="11.801158406153569"><ele>438.0</ele><time>2026-04-12T09:13:14Z</time></trkpt><trkpt lat="42.61961855253327" lon="11.801065707603845"><ele>438.0</ele><time>2026-04-12T09:13:15Z</time></trkpt><trkpt lat="42.619563769067916" lon="11.800993947513625"><ele>438.0</ele><time>2026-04-12T09:13:16Z</time></trkpt><trkpt lat="42.61950916119303" lon="11.800947586786066"><ele>438.0</ele><time>2026-04-12T09:13:17Z</time></trkpt><trkpt lat="42.619421986847044" lon="11.80089398091496"><ele>438.0</ele><time>2026-04-12T09:13:19Z</time></trkpt><trkpt lat="42.61935830648999" lon="11.800848950948142"><ele>438.0</ele><time>2026-04-12T09:13:22Z</time></trkpt><trkpt lat="42.61926754374616" lon="11.800770062626102"><ele>439.0</ele><time>2026-04-12T09:13:24Z</time></trkpt><trkpt lat="42.61920386166238" lon="11.800738795579568"><ele>439.99999999999994</ele><time>2026-04-12T09:13:25Z</time></trkpt><trkpt lat="42.619106998977074" lon="11.800619177123298"><ele>440.99999999999994</ele><time>2026-04-12T09:13:27Z</time></trkpt><trkpt lat="42.61903908606195" lon="11.800500776864002"><ele>442.0</ele><time>2026-04-12T09:13:28Z</time></trkpt><trkpt lat="42.6189803229323" lon="11.800393917427124"><ele>443.0</ele><time>2026-04-12T09:13:29Z</time></trkpt><trkpt lat="42.61890712277692" lon="11.800254377650013"><ele>442.5</ele><time>2026-04-12T09:13:30Z</time></trkpt><trkpt lat="42.61882033798648" lon="11.800115171197026"><ele>442.0</ele><time>2026-04-12T09:13:31Z</time></trkpt><trkpt lat="42.61875516659913" lon="11.79996309756723"><ele>441.5</ele><time>2026-04-12T09:13:32Z</time></trkpt><trkpt lat="42.618684756596984" lon="11.799822303246543"><ele>441.0</ele><time>2026-04-12T09:13:33Z</time></trkpt><trkpt lat="42.6186404312494" lon="11.79966806004314"><ele>443.0</ele><time>2026-04-12T09:13:34Z</time></trkpt><trkpt lat="42.6185881784892" lon="11.799529458956329"><ele>445.0</ele><time>2026-04-12T09:13:35.001Z</time></trkpt><trkpt lat="42.61854330969554" lon="11.799398961007318"><ele>447.0</ele><time>2026-04-12T09:13:36.001Z</time></trkpt><trkpt lat="42.61849819431925" lon="11.799261356136368"><ele>449.0</ele><time>2026-04-12T09:13:37.001Z</time></trkpt><trkpt lat="42.61845746592891" lon="11.799126033894492"><ele>451.0</ele><time>2026-04-12T09:13:38.001Z</time></trkpt><trkpt lat="42.61840773696085" lon="11.799013250592932"><ele>451.0</ele><time>2026-04-12T09:13:39.001Z</time></trkpt><trkpt lat="42.61839102895825" lon="11.798883799786639"><ele>451.0</ele><time>2026-04-12T09:13:40.001Z</time></trkpt><trkpt lat="42.61835053723503" lon="11.798780871875437"><ele>451.0</ele><time>2026-04-12T09:13:41.001Z</time></trkpt><trkpt lat="42.618321854031834" lon="11.79866317614131"><ele>451.0</ele><time>2026-04-12T09:13:42.001Z</time></trkpt><trkpt lat="42.61829783194352" lon="11.79855168482111"><ele>451.0</ele><time>2026-04-12T09:13:43.001Z</time></trkpt><trkpt lat="42.61827340896453" lon="11.79842289946815"><ele>451.20000000000005</ele><time>2026-04-12T09:13:44.001Z</time></trkpt><trkpt lat="42.61826494925871" lon="11.798281639229128"><ele>451.40000000000003</ele><time>2026-04-12T09:13:45.001Z</time></trkpt><trkpt lat="42.61824275174653" lon="11.798160462332655"><ele>451.6</ele><time>2026-04-12T09:13:46.001Z</time></trkpt><trkpt lat="42.61820727838879" lon="11.798045397837486"><ele>451.8</ele><time>2026-04-12T09:13:47.001Z</time></trkpt><trkpt lat="42.61818651318943" lon="11.797942012946326"><ele>452.0</ele><time>2026-04-12T09:13:48.001Z</time></trkpt><trkpt lat="42.618147258642374" lon="11.797827398294226"><ele>452.0</ele><time>2026-04-12T09:13:49.001Z</time></trkpt><trkpt lat="42.6181241738286" lon="11.797729140142714"><ele>452.00000000000006</ele><time>2026-04-12T09:13:50.001Z</time></trkpt><trkpt lat="42.61807788222667" lon="11.79761324367403"><ele>452.00000000000006</ele><time>2026-04-12T09:13:51.001Z</time></trkpt><trkpt lat="42.61803216722678" lon="11.797490685875992"><ele>452.0</ele><time>2026-04-12T09:13:52.001Z</time></trkpt><trkpt lat="42.61797958818899" lon="11.79736869750443"><ele>452.0</ele><time>2026-04-12T09:13:53.001Z</time></trkpt><trkpt lat="42.61792589188631" lon="11.797235160600087"><ele>451.6</ele><time>2026-04-12T09:13:54.001Z</time></trkpt><trkpt lat="42.617857944056816" lon="11.797130133544947"><ele>451.20000000000005</ele><time>2026-04-12T09:13:55.001Z</time></trkpt><trkpt lat="42.61778835996811" lon="11.797028156516397"><ele>450.8</ele><time>2026-04-12T09:13:56.001Z</time></trkpt><trkpt lat="42.61771034462584" lon="11.796931943620384"><ele>450.4</ele><time>2026-04-12T09:13:57.001Z</time></trkpt><trkpt lat="42.61764359305767" lon="11.796795279563453"><ele>450.0</ele><time>2026-04-12T09:13:58.001Z</time></trkpt><trkpt lat="42.617565997563815" lon="11.796692460395942"><ele>450.8</ele><time>2026-04-12T09:13:59.001Z</time></trkpt><trkpt lat="42.617503360379715" lon="11.796574449141064"><ele>451.6</ele><time>2026-04-12T09:14:00.001Z</time></trkpt><trkpt lat="42.61744963646474" lon="11.796456853263242"><ele>452.4</ele><time>2026-04-12T09:14:01.001Z</time></trkpt><trkpt lat="42.61738926965215" lon="11.7963443819532"><ele>453.2</ele><time>2026-04-12T09:14:02.001Z</time></trkpt><trkpt lat="42.617344326300284" lon="11.79621557093745"><ele>454.0</ele><time>2026-04-12T09:14:03.001Z</time></trkpt><trkpt lat="42.6172844425699" lon="11.796093397825606"><ele>452.6</ele><time>2026-04-12T09:14:04.001Z</time></trkpt><trkpt lat="42.617220912466976" lon="11.795963263573755"><ele>451.2</ele><time>2026-04-12T09:14:05.001Z</time></trkpt><trkpt lat="42.61715799551301" lon="11.795834385293556"><ele>449.80000000000007</ele><time>2026-04-12T09:14:06Z</time></trkpt><trkpt lat="42.61708750765736" lon="11.79573061442351"><ele>448.40000000000003</ele><time>2026-04-12T09:14:07Z</time></trkpt><trkpt lat="42.61703096377514" lon="11.795608208788464"><ele>447.0</ele><time>2026-04-12T09:14:08Z</time></trkpt><trkpt lat="42.61698789662683" lon="11.795469831778147"><ele>447.40000000000003</ele><time>2026-04-12T09:14:09Z</time></trkpt><trkpt lat="42.61693586110187" lon="11.79533677577969"><ele>447.80000000000007</ele><time>2026-04-12T09:14:10Z</time></trkpt><trkpt lat="42.61689776652787" lon="11.795211476371763"><ele>448.2</ele><time>2026-04-12T09:14:11Z</time></trkpt><trkpt lat="42.616862415531216" lon="11.795078687715916"><ele>448.6</ele><time>2026-04-12T09:14:12Z</time></trkpt><trkpt lat="42.61681495757013" lon="11.794949082758073"><ele>449.0</ele><time>2026-04-12T09:14:13Z</time></trkpt><trkpt lat="42.616791242904384" lon="11.794804779114946"><ele>449.0</ele><time>2026-04-12T09:14:14Z</time></trkpt><trkpt lat="42.616753309548315" lon="11.794657921667708"><ele>449.0</ele><time>2026-04-12T09:14:15Z</time></trkpt><trkpt lat="42.61670174364605" lon="11.794526206226664"><ele>449.0</ele><time>2026-04-12T09:14:16Z</time></trkpt><trkpt lat="42.61667524735559" lon="11.794401779570851"><ele>449.0</ele><time>2026-04-12T09:14:17Z</time></trkpt><trkpt lat="42.61663952489576" lon="11.794306311972123"><ele>449.0</ele><time>2026-04-12T09:14:18Z</time></trkpt><trkpt lat="42.61656332473441" lon="11.794180774008282"><ele>449.0</ele><time>2026-04-12T09:14:20Z</time></trkpt><trkpt lat="42.61645300521006" lon="11.794128492609445"><ele>449.0</ele><time>2026-04-12T09:14:22Z</time></trkpt><trkpt lat="42.61637585651869" lon="11.794105322014902"><ele>449.0</ele><time>2026-04-12T09:14:23Z</time></trkpt><trkpt lat="42.61628066332463" lon="11.794078510316453"><ele>449.0</ele><time>2026-04-12T09:14:24Z</time></trkpt><trkpt lat="42.61617874727468" lon="11.79404522458383"><ele>449.0</ele><time>2026-04-12T09:14:25Z</time></trkpt><trkpt lat="42.61607950476696" lon="11.794003980379252"><ele>449.4</ele><time>2026-04-12T09:14:26Z</time></trkpt><trkpt lat="42.61597652177134" lon="11.793972733385466"><ele>449.79999999999995</ele><time>2026-04-12T09:14:27Z</time></trkpt><trkpt lat="42.61589601740431" lon="11.793944662273464"><ele>450.20000000000005</ele><time>2026-04-12T09:14:28Z</time></trkpt><trkpt lat="42.615810451527004" lon="11.793890402445639"><ele>450.6</ele><time>2026-04-12T09:14:29Z</time></trkpt><trkpt lat="42.61573057210906" lon="11.793860547845366"><ele>451.0</ele><time>2026-04-12T09:14:30Z</time></trkpt><trkpt lat="42.61560480858215" lon="11.793836578416414"><ele>451.0</ele><time>2026-04-12T09:14:32Z</time></trkpt><trkpt lat="42.61546333522969" lon="11.793760669169849"><ele>451.0</ele><time>2026-04-12T09:14:34Z</time></trkpt><trkpt lat="42.61539207217386" lon="11.793734034905954"><ele>451.0</ele><time>2026-04-12T09:14:35Z</time></trkpt><trkpt lat="42.61529764949892" lon="11.793698744859906"><ele>451.0</ele><time>2026-04-12T09:14:36Z</time></trkpt><trkpt lat="42.61520421277237" lon="11.793663823252203"><ele>451.0</ele><time>2026-04-12T09:14:37Z</time></trkpt><trkpt lat="42.61513027331299" lon="11.793655951347581"><ele>451.4</ele><time>2026-04-12T09:14:38Z</time></trkpt><trkpt lat="42.61506097085305" lon="11.793631526840148"><ele>451.8</ele><time>2026-04-12T09:14:39.001Z</time></trkpt><trkpt lat="42.61497545409474" lon="11.79359187685111"><ele>452.19999999999993</ele><time>2026-04-12T09:14:40.001Z</time></trkpt><trkpt lat="42.61486142529784" lon="11.793547978684028"><ele>452.59999999999997</ele><time>2026-04-12T09:14:41.001Z</time></trkpt><trkpt lat="42.61476165863157" lon="11.793510319292066"><ele>453.0</ele><time>2026-04-12T09:14:42.001Z</time></trkpt><trkpt lat="42.6146432005214" lon="11.793464028456578"><ele>453.0</ele><time>2026-04-12T09:14:43.001Z</time></trkpt><trkpt lat="42.614513667297395" lon="11.793414698027432"><ele>453.0</ele><time>2026-04-12T09:14:44.001Z</time></trkpt><trkpt lat="42.614389625905" lon="11.793358427712283"><ele>453.0</ele><time>2026-04-12T09:14:45.001Z</time></trkpt><trkpt lat="42.614281197561425" lon="11.79331264176405"><ele>453.0</ele><time>2026-04-12T09:14:46.001Z</time></trkpt><trkpt lat="42.61420163614482" lon="11.793278245288777"><ele>453.8333333333333</ele><time>2026-04-12T09:14:47.001Z</time></trkpt><trkpt lat="42.61412576322801" lon="11.793246782827115"><ele>454.66666666666663</ele><time>2026-04-12T09:14:48.001Z</time></trkpt><trkpt lat="42.61403914314736" lon="11.793211183634691"><ele>455.5</ele><time>2026-04-12T09:14:49.001Z</time></trkpt><trkpt lat="42.61394960083433" lon="11.793183706183873"><ele>456.3333333333333</ele><time>2026-04-12T09:14:50.001Z</time></trkpt><trkpt lat="42.61388646187534" lon="11.793152287100288"><ele>457.16666666666663</ele><time>2026-04-12T09:14:51.001Z</time></trkpt><trkpt lat="42.61380491730632" lon="11.79313542286832"><ele>458.0</ele><time>2026-04-12T09:14:52.001Z</time></trkpt><trkpt lat="42.61369673151747" lon="11.793168988695834"><ele>458.59999999999997</ele><time>2026-04-12T09:14:53.001Z</time></trkpt><trkpt lat="42.61359290673055" lon="11.79319522413288"><ele>459.19999999999993</ele><time>2026-04-12T09:14:54.001Z</time></trkpt><trkpt lat="42.61348053657205" lon="11.793228655391085"><ele>459.8</ele><time>2026-04-12T09:14:55.001Z</time></trkpt><trkpt lat="42.613390800478946" lon="11.793217754046674"><ele>460.4</ele><time>2026-04-12T09:14:56.001Z</time></trkpt><trkpt lat="42.61331586772392" lon="11.793212600200873"><ele>461.0</ele><time>2026-04-12T09:14:57.001Z</time></trkpt><trkpt lat="42.61324162440077" lon="11.793193188945178"><ele>461.0</ele><time>2026-04-12T09:14:58.001Z</time></trkpt><trkpt lat="42.613154283426276" lon="11.793196938993601"><ele>461.0</ele><time>2026-04-12T09:14:59.001Z</time></trkpt><trkpt lat="42.61305846804835" lon="11.793164074689846"><ele>461.0</ele><time>2026-04-12T09:15:00.001Z</time></trkpt><trkpt lat="42.61294569738982" lon="11.793144756551564"><ele>461.0</ele><time>2026-04-12T09:15:01.001Z</time></trkpt><trkpt lat="42.612819423869674" lon="11.793110258996776"><ele>461.0</ele><time>2026-04-12T09:15:02.001Z</time></trkpt><trkpt lat="42.612697276088085" lon="11.79307073569087"><ele>461.8</ele><time>2026-04-12T09:15:03.001Z</time></trkpt><trkpt lat="42.61258988222935" lon="11.793040894575594"><ele>462.6</ele><time>2026-04-12T09:15:04.001Z</time></trkpt><trkpt lat="42.61250726323066" lon="11.793017456311185"><ele>463.4</ele><time>2026-04-12T09:15:05.001Z</time></trkpt><trkpt lat="42.612424610724624" lon="11.792996640117476"><ele>464.2</ele><time>2026-04-12T09:15:06.001Z</time></trkpt><trkpt lat="42.61232344516578" lon="11.793011106816575"><ele>465.0</ele><time>2026-04-12T09:15:07.001Z</time></trkpt><trkpt lat="42.612191956686196" lon="11.793037294558406"><ele>465.0</ele><time>2026-04-12T09:15:08.001Z</time></trkpt><trkpt lat="42.61206711605911" lon="11.79311685709461"><ele>465.0</ele><time>2026-04-12T09:15:09.001Z</time></trkpt><trkpt lat="42.61199530603945" lon="11.793260843190717"><ele>465.0</ele><time>2026-04-12T09:15:10.001Z</time></trkpt><trkpt lat="42.61200020557134" lon="11.79350577551227"><ele>465.0</ele><time>2026-04-12T09:15:11.001Z</time></trkpt><trkpt lat="42.6118919405761" lon="11.793625290813642"><ele>466.33333333333337</ele><time>2026-04-12T09:15:12.001Z</time></trkpt><trkpt lat="42.61181100214942" lon="11.793695776146421"><ele>467.6666666666667</ele><time>2026-04-12T09:15:13.001Z</time></trkpt><trkpt lat="42.61171513437403" lon="11.793773891758923"><ele>469.0</ele><time>2026-04-12T09:15:15.001Z</time></trkpt><trkpt lat="42.611238080657586" lon="11.793224646745768"><ele>468.75</ele><time>2026-04-12T09:15:16.001Z</time></trkpt><trkpt lat="42.61112496202998" lon="11.793223635740146"><ele>468.5</ele><time>2026-04-12T09:15:17.001Z</time></trkpt><trkpt lat="42.610998901248834" lon="11.793243068812426"><ele>468.25</ele><time>2026-04-12T09:15:18.001Z</time></trkpt><trkpt lat="42.610870490293365" lon="11.793260626443807"><ele>468.0</ele><time>2026-04-12T09:15:19.001Z</time></trkpt><trkpt lat="42.610766373648275" lon="11.793277032848762"><ele>468.0</ele><time>2026-04-12T09:15:20.001Z</time></trkpt><trkpt lat="42.610683256708526" lon="11.793274847261788"><ele>467.99999999999994</ele><time>2026-04-12T09:15:21.001Z</time></trkpt><trkpt lat="42.61060283171302" lon="11.793274036295859"><ele>467.99999999999994</ele><time>2026-04-12T09:15:22.001Z</time></trkpt><trkpt lat="42.61045250413172" lon="11.79332460717167"><ele>468.0</ele><time>2026-04-12T09:15:24.001Z</time></trkpt><trkpt lat="42.610380563100875" lon="11.79336636766554"><ele>468.0</ele><time>2026-04-12T09:15:25.001Z</time></trkpt><trkpt lat="42.61029369075636" lon="11.793413521562611"><ele>468.0</ele><time>2026-04-12T09:15:26.001Z</time></trkpt><trkpt lat="42.61021410884284" lon="11.793449357768745"><ele>468.0</ele><time>2026-04-12T09:15:27.001Z</time></trkpt><trkpt lat="42.61012526060753" lon="11.793474431585334"><ele>468.0</ele><time>2026-04-12T09:15:28.001Z</time></trkpt><trkpt lat="42.61004663679247" lon="11.793495622581222"><ele>468.0</ele><time>2026-04-12T09:15:29.001Z</time></trkpt><trkpt lat="42.60997414191152" lon="11.793515081304408"><ele>468.0</ele><time>2026-04-12T09:15:30.001Z</time></trkpt><trkpt lat="42.60989254058095" lon="11.793544382020164"><ele>468.0</ele><time>2026-04-12T09:15:31.001Z</time></trkpt><trkpt lat="42.609826784558074" lon="11.793533041167652"><ele>468.0</ele><time>2026-04-12T09:15:32.001Z</time></trkpt><trkpt lat="42.60975813392369" lon="11.793581092340924"><ele>468.0</ele><time>2026-04-12T09:15:33.001Z</time></trkpt><trkpt lat="42.60968648220917" lon="11.793620352679842"><ele>468.0</ele><time>2026-04-12T09:15:34.001Z</time></trkpt><trkpt lat="42.609602498067524" lon="11.793656529401511"><ele>468.0</ele><time>2026-04-12T09:15:35.001Z</time></trkpt><trkpt lat="42.60952046627597" lon="11.793671070135193"><ele>468.0</ele><time>2026-04-12T09:15:36.001Z</time></trkpt><trkpt lat="42.60945401530214" lon="11.793692113460548"><ele>468.0</ele><time>2026-04-12T09:15:37.001Z</time></trkpt><trkpt lat="42.609351772585946" lon="11.793688207956365"><ele>469.4</ele><time>2026-04-12T09:15:39.001Z</time></trkpt><trkpt lat="42.60925195004554" lon="11.793635976343985"><ele>470.79999999999995</ele><time>2026-04-12T09:15:41.001Z</time></trkpt><trkpt lat="42.60919672716367" lon="11.793588597688547"><ele>472.2</ele><time>2026-04-12T09:15:42.001Z</time></trkpt><trkpt lat="42.609121644470605" lon="11.793537095865236"><ele>473.6</ele><time>2026-04-12T09:15:43.001Z</time></trkpt><trkpt lat="42.60901087790444" lon="11.793421677453729"><ele>475.0</ele><time>2026-04-12T09:15:45.001Z</time></trkpt><trkpt lat="42.60893988737921" lon="11.79333063708249"><ele>477.5</ele><time>2026-04-12T09:15:46.001Z</time></trkpt><trkpt lat="42.60885259124935" lon="11.793254370246558"><ele>480.0</ele><time>2026-04-12T09:15:47.001Z</time></trkpt><trkpt lat="42.608752379867695" lon="11.79314405996771"><ele>482.5</ele><time>2026-04-12T09:15:48.001Z</time></trkpt><trkpt lat="42.608668833134985" lon="11.793055196233164"><ele>485.0</ele><time>2026-04-12T09:15:49.001Z</time></trkpt><trkpt lat="42.608568585598555" lon="11.792983772657761"><ele>485.0</ele><time>2026-04-12T09:15:50.001Z</time></trkpt><trkpt lat="42.608471858093516" lon="11.792914323397712"><ele>485.0</ele><time>2026-04-12T09:15:51.002Z</time></trkpt><trkpt lat="42.608373811561805" lon="11.79286114343322"><ele>485.0</ele><time>2026-04-12T09:15:52.002Z</time></trkpt><trkpt lat="42.6082922507471" lon="11.792830943364525"><ele>485.0</ele><time>2026-04-12T09:15:53.002Z</time></trkpt><trkpt lat="42.60822697936195" lon="11.792780811852575"><ele>485.0</ele><time>2026-04-12T09:15:54.002Z</time></trkpt><trkpt lat="42.60815295078551" lon="11.79274597885667"><ele>485.0</ele><time>2026-04-12T09:15:55.002Z</time></trkpt><trkpt lat="42.60807863683714" lon="11.792714280548093"><ele>485.0</ele><time>2026-04-12T09:15:56.002Z</time></trkpt><trkpt lat="42.607999124354535" lon="11.792657672844774"><ele>485.0</ele><time>2026-04-12T09:15:57.002Z</time></trkpt><trkpt lat="42.60790076330425" lon="11.792593680754125"><ele>485.0</ele><time>2026-04-12T09:15:58.002Z</time></trkpt><trkpt lat="42.607805061550884" lon="11.792527560474936"><ele>485.0</ele><time>2026-04-12T09:15:59.002Z</time></trkpt><trkpt lat="42.60772556076594" lon="11.79247667190371"><ele>485.8</ele><time>2026-04-12T09:16:00.002Z</time></trkpt><trkpt lat="42.607660460300494" lon="11.792438407378498"><ele>486.6</ele><time>2026-04-12T09:16:01.002Z</time></trkpt><trkpt lat="42.60758123083363" lon="11.792371941339457"><ele>487.4</ele><time>2026-04-12T09:16:02.002Z</time></trkpt><trkpt lat="42.60745746716331" lon="11.792312536980608"><ele>488.2</ele><time>2026-04-12T09:16:04.002Z</time></trkpt><trkpt lat="42.607330494029135" lon="11.792209160848401"><ele>489.0</ele><time>2026-04-12T09:16:06.002Z</time></trkpt><trkpt lat="42.60725285393894" lon="11.792142205965494"><ele>489.0</ele><time>2026-04-12T09:16:07.002Z</time></trkpt><trkpt lat="42.60714201056366" lon="11.792080762752382"><ele>489.0</ele><time>2026-04-12T09:16:08.002Z</time></trkpt><trkpt lat="42.607041675422934" lon="11.792028338801279"><ele>489.0</ele><time>2026-04-12T09:16:09.002Z</time></trkpt><trkpt lat="42.60695420388269" lon="11.791966771108415"><ele>489.0</ele><time>2026-04-12T09:16:10.002Z</time></trkpt><trkpt lat="42.60689087333503" lon="11.791917722867579"><ele>489.0</ele><time>2026-04-12T09:16:11.002Z</time></trkpt><trkpt lat="42.60680404217399" lon="11.791869359466084"><ele>489.8333333333333</ele><time>2026-04-12T09:16:12.002Z</time></trkpt><trkpt lat="42.60673261755337" lon="11.791816657727553"><ele>490.66666666666663</ele><time>2026-04-12T09:16:13.002Z</time></trkpt><trkpt lat="42.60666657565921" lon="11.791776625904173"><ele>491.5</ele><time>2026-04-12T09:16:14.002Z</time></trkpt><trkpt lat="42.60658059195703" lon="11.791689392281437"><ele>492.3333333333333</ele><time>2026-04-12T09:16:15.002Z</time></trkpt><trkpt lat="42.60651345728175" lon="11.791625952750577"><ele>493.16666666666663</ele><time>2026-04-12T09:16:16.002Z</time></trkpt><trkpt lat="42.60642729125234" lon="11.79159863479393"><ele>494.0</ele><time>2026-04-12T09:16:17.002Z</time></trkpt><trkpt lat="42.60636254270038" lon="11.791551803826755"><ele>493.99999999999994</ele><time>2026-04-12T09:16:18.001Z</time></trkpt><trkpt lat="42.60629923775614" lon="11.791485218844828"><ele>494.0</ele><time>2026-04-12T09:16:19.001Z</time></trkpt><trkpt lat="42.60623261853703" lon="11.791419014307726"><ele>494.0</ele><time>2026-04-12T09:16:20.001Z</time></trkpt><trkpt lat="42.60616744814283" lon="11.791363103662741"><ele>494.0</ele><time>2026-04-12T09:16:21.001Z</time></trkpt><trkpt lat="42.60609086504012" lon="11.791312074369701"><ele>493.99999999999994</ele><time>2026-04-12T09:16:22.001Z</time></trkpt><trkpt lat="42.60602847627314" lon="11.791275406193147"><ele>494.0</ele><time>2026-04-12T09:16:23.001Z</time></trkpt><trkpt lat="42.60596849629008" lon="11.791217048872204"><ele>493.99999999999994</ele><time>2026-04-12T09:16:24.001Z</time></trkpt><trkpt lat="42.60591759131563" lon="11.791139287200863"><ele>494.0</ele><time>2026-04-12T09:16:25.001Z</time></trkpt><trkpt lat="42.6058650715448" lon="11.791040379065013"><ele>494.0</ele><time>2026-04-12T09:16:26.001Z</time></trkpt><trkpt lat="42.60580706247307" lon="11.790976101524016"><ele>494.0</ele><time>2026-04-12T09:16:27.001Z</time></trkpt><trkpt lat="42.60575693114938" lon="11.790892786349346"><ele>493.99999999999994</ele><time>2026-04-12T09:16:28.001Z</time></trkpt><trkpt lat="42.60570005314544" lon="11.79079343587665"><ele>494.0</ele><time>2026-04-12T09:16:29.001Z</time></trkpt><trkpt lat="42.605626759465665" lon="11.790702573928403"><ele>494.79999999999995</ele><time>2026-04-12T09:16:30.001Z</time></trkpt><trkpt lat="42.6055646063423" lon="11.790625934831182"><ele>495.59999999999997</ele><time>2026-04-12T09:16:31.001Z</time></trkpt><trkpt lat="42.60550424883468" lon="11.790552785887488"><ele>496.4</ele><time>2026-04-12T09:16:32.001Z</time></trkpt><trkpt lat="42.605442510282806" lon="11.790478990434641"><ele>497.2</ele><time>2026-04-12T09:16:33.001Z</time></trkpt><trkpt lat="42.605373444290784" lon="11.790390080569422"><ele>498.0</ele><time>2026-04-12T09:16:34.001Z</time></trkpt><trkpt lat="42.60529415720162" lon="11.790291386790182"><ele>498.0</ele><time>2026-04-12T09:16:35.001Z</time></trkpt><trkpt lat="42.605212881293" lon="11.790198666425946"><ele>498.0</ele><time>2026-04-12T09:16:36.001Z</time></trkpt><trkpt lat="42.60512511350581" lon="11.790119830509784"><ele>498.0</ele><time>2026-04-12T09:16:37.001Z</time></trkpt><trkpt lat="42.60506568230793" lon="11.790048923320674"><ele>498.0</ele><time>2026-04-12T09:16:38.001Z</time></trkpt><trkpt lat="42.60500494597624" lon="11.78998902744197"><ele>498.0</ele><time>2026-04-12T09:16:39.001Z</time></trkpt><trkpt lat="42.60494400157821" lon="11.789922233493828"><ele>498.0</ele><time>2026-04-12T09:16:40.001Z</time></trkpt><trkpt lat="42.604895493294954" lon="11.789862783286276"><ele>498.79999999999995</ele><time>2026-04-12T09:16:41.001Z</time></trkpt><trkpt lat="42.60484833877715" lon="11.78979607211976"><ele>499.59999999999997</ele><time>2026-04-12T09:16:42.001Z</time></trkpt><trkpt lat="42.60479172589057" lon="11.789703039999141"><ele>500.40000000000003</ele><time>2026-04-12T09:16:44.001Z</time></trkpt><trkpt lat="42.60470895802472" lon="11.789599054775131"><ele>501.20000000000005</ele><time>2026-04-12T09:16:46.001Z</time></trkpt><trkpt lat="42.604623342637254" lon="11.78948039797404"><ele>502.0</ele><time>2026-04-12T09:16:48.001Z</time></trkpt><trkpt lat="42.60454927496425" lon="11.789354717912369"><ele>502.6</ele><time>2026-04-12T09:16:50.001Z</time></trkpt><trkpt lat="42.60447275224668" lon="11.78924151133862"><ele>503.20000000000005</ele><time>2026-04-12T09:16:52.001Z</time></trkpt><trkpt lat="42.604379018012224" lon="11.789144107159206"><ele>503.8</ele><time>2026-04-12T09:16:54.001Z</time></trkpt><trkpt lat="42.6043303501576" lon="11.789078478122708"><ele>504.4</ele><time>2026-04-12T09:16:55.001Z</time></trkpt><trkpt lat="42.60425160198191" lon="11.788965276076906"><ele>505.0</ele><time>2026-04-12T09:16:57.001Z</time></trkpt><trkpt lat="42.604203224094945" lon="11.788901571862947"><ele>505.00000000000006</ele><time>2026-04-12T09:16:58.001Z</time></trkpt><trkpt lat="42.60414351989012" lon="11.788830849115383"><ele>505.0</ele><time>2026-04-12T09:16:59.001Z</time></trkpt><trkpt lat="42.604097854132334" lon="11.788758677826097"><ele>505.0</ele><time>2026-04-12T09:17:00.001Z</time></trkpt><trkpt lat="42.60407537225346" lon="11.78867580432865"><ele>505.0</ele><time>2026-04-12T09:17:01.001Z</time></trkpt><trkpt lat="42.60401618739896" lon="11.788583879140402"><ele>505.00000000000006</ele><time>2026-04-12T09:17:02.001Z</time></trkpt><trkpt lat="42.603961107429264" lon="11.788462428559523"><ele>505.0</ele><time>2026-04-12T09:17:03.001Z</time></trkpt><trkpt lat="42.603898379650246" lon="11.788328254082922"><ele>505.2</ele><time>2026-04-12T09:17:04.001Z</time></trkpt><trkpt lat="42.60384214212285" lon="11.78820086267752"><ele>505.4</ele><time>2026-04-12T09:17:05.001Z</time></trkpt><trkpt lat="42.60379108414444" lon="11.788078597518822"><ele>505.6</ele><time>2026-04-12T09:17:06.001Z</time></trkpt><trkpt lat="42.60373311931647" lon="11.787963328175273"><ele>505.8</ele><time>2026-04-12T09:17:07.001Z</time></trkpt><trkpt lat="42.603671300416636" lon="11.78783779987836"><ele>506.0</ele><time>2026-04-12T09:17:08.001Z</time></trkpt><trkpt lat="42.603606093254534" lon="11.78770764335563"><ele>505.4</ele><time>2026-04-12T09:17:09.001Z</time></trkpt><trkpt lat="42.60353438821837" lon="11.787597089615652"><ele>504.8</ele><time>2026-04-12T09:17:10.001Z</time></trkpt><trkpt lat="42.60346046322279" lon="11.787498830213783"><ele>504.19999999999993</ele><time>2026-04-12T09:17:11.001Z</time></trkpt><trkpt lat="42.60340227414226" lon="11.78739887147745"><ele>503.59999999999997</ele><time>2026-04-12T09:17:12.001Z</time></trkpt><trkpt lat="42.60336258537607" lon="11.787321902293959"><ele>503.0</ele><time>2026-04-12T09:17:13.001Z</time></trkpt><trkpt lat="42.60331895288458" lon="11.787165751830415"><ele>502.99999999999994</ele><time>2026-04-12T09:17:15.001Z</time></trkpt><trkpt lat="42.60333730752437" lon="11.787050145987262"><ele>503.0</ele><time>2026-04-12T09:17:16.001Z</time></trkpt><trkpt lat="42.60335504489413" lon="11.78694056571251"><ele>503.0</ele><time>2026-04-12T09:17:17.001Z</time></trkpt><trkpt lat="42.60337417388491" lon="11.786849228868155"><ele>503.0</ele><time>2026-04-12T09:17:18.001Z</time></trkpt><trkpt lat="42.603419508710765" lon="11.786766877334395"><ele>502.99999999999994</ele><time>2026-04-12T09:17:19.001Z</time></trkpt><trkpt lat="42.603479480417356" lon="11.786650674049085"><ele>503.0</ele><time>2026-04-12T09:17:20.001Z</time></trkpt><trkpt lat="42.60353894897821" lon="11.786528722830752"><ele>503.59999999999997</ele><time>2026-04-12T09:17:21.001Z</time></trkpt><trkpt lat="42.60358652179536" lon="11.786410344552985"><ele>504.19999999999993</ele><time>2026-04-12T09:17:22.001Z</time></trkpt><trkpt lat="42.60363146013939" lon="11.786281054688553"><ele>504.8</ele><time>2026-04-12T09:17:23.001Z</time></trkpt><trkpt lat="42.60367042848078" lon="11.786157005158833"><ele>505.4</ele><time>2026-04-12T09:17:24.001Z</time></trkpt><trkpt lat="42.60371002531798" lon="11.786033374027081"><ele>506.0</ele><time>2026-04-12T09:17:25.001Z</time></trkpt><trkpt lat="42.60375746733695" lon="11.785931039380639"><ele>506.0</ele><time>2026-04-12T09:17:26.001Z</time></trkpt><trkpt lat="42.60380645728605" lon="11.785800528617324"><ele>506.0</ele><time>2026-04-12T09:17:27.001Z</time></trkpt><trkpt lat="42.60383677826817" lon="11.78567982888663"><ele>506.0</ele><time>2026-04-12T09:17:28.001Z</time></trkpt><trkpt lat="42.60388369089782" lon="11.78556390561715"><ele>506.0</ele><time>2026-04-12T09:17:29.001Z</time></trkpt><trkpt lat="42.603927005821056" lon="11.78543306599798"><ele>506.0</ele><time>2026-04-12T09:17:30.001Z</time></trkpt><trkpt lat="42.60396840105102" lon="11.785310217355155"><ele>505.99999999999994</ele><time>2026-04-12T09:17:31.001Z</time></trkpt><trkpt lat="42.60401353058682" lon="11.785191031308367"><ele>506.0</ele><time>2026-04-12T09:17:32.001Z</time></trkpt><trkpt lat="42.60406683912001" lon="11.785109286309963"><ele>506.0</ele><time>2026-04-12T09:17:33.001Z</time></trkpt><trkpt lat="42.60409927299709" lon="11.785009690491046"><ele>506.0</ele><time>2026-04-12T09:17:34.001Z</time></trkpt><trkpt lat="42.6041297640952" lon="11.78491270651253"><ele>505.99999999999994</ele><time>2026-04-12T09:17:35.001Z</time></trkpt><trkpt lat="42.60415936819172" lon="11.784774238132883"><ele>506.0</ele><time>2026-04-12T09:17:36.001Z</time></trkpt><trkpt lat="42.60418348846663" lon="11.784658323918896"><ele>505.00000000000006</ele><time>2026-04-12T09:17:37.001Z</time></trkpt><trkpt lat="42.604195028564114" lon="11.784547126578108"><ele>504.0</ele><time>2026-04-12T09:17:38.001Z</time></trkpt><trkpt lat="42.6041999624035" lon="11.784437376482975"><ele>503.00000000000006</ele><time>2026-04-12T09:17:39.001Z</time></trkpt><trkpt lat="42.60420525943753" lon="11.784327363253569"><ele>502.00000000000006</ele><time>2026-04-12T09:17:40.001Z</time></trkpt><trkpt lat="42.60420706304223" lon="11.784240237477933"><ele>501.0</ele><time>2026-04-12T09:17:41.001Z</time></trkpt><trkpt lat="42.60421338723337" lon="11.784152556522047"><ele>500.00000000000006</ele><time>2026-04-12T09:17:42.001Z</time></trkpt><trkpt lat="42.6042278069907" lon="11.784064566785817"><ele>499.00000000000006</ele><time>2026-04-12T09:17:43.001Z</time></trkpt><trkpt lat="42.60423497200996" lon="11.783956437494725"><ele>498.1666666666667</ele><time>2026-04-12T09:17:44.001Z</time></trkpt><trkpt lat="42.604242521968246" lon="11.783865315512337"><ele>497.33333333333337</ele><time>2026-04-12T09:17:45.001Z</time></trkpt><trkpt lat="42.60424906676727" lon="11.783708930504822"><ele>496.5</ele><time>2026-04-12T09:17:47.001Z</time></trkpt><trkpt lat="42.60423930936161" lon="11.783617121392743"><ele>495.66666666666663</ele><time>2026-04-12T09:17:48.001Z</time></trkpt><trkpt lat="42.604230111122995" lon="11.783443272144513"><ele>494.8333333333333</ele><time>2026-04-12T09:17:50.001Z</time></trkpt><trkpt lat="42.60422695991468" lon="11.783357321253469"><ele>494.0</ele><time>2026-04-12T09:17:51.001Z</time></trkpt><trkpt lat="42.60422690099351" lon="11.783260215238482"><ele>493.99999999999994</ele><time>2026-04-12T09:17:52.001Z</time></trkpt><trkpt lat="42.60423285872482" lon="11.783144886400526"><ele>494.0</ele><time>2026-04-12T09:17:53.001Z</time></trkpt><trkpt lat="42.60423890090866" lon="11.783030513052056"><ele>494.0</ele><time>2026-04-12T09:17:54.002Z</time></trkpt><trkpt lat="42.60424390298276" lon="11.782929162930172"><ele>494.0</ele><time>2026-04-12T09:17:55.002Z</time></trkpt><trkpt lat="42.60423992488003" lon="11.782836721004113"><ele>493.99999999999994</ele><time>2026-04-12T09:17:56.002Z</time></trkpt><trkpt lat="42.604241471582675" lon="11.782743320848041"><ele>494.0</ele><time>2026-04-12T09:17:57.002Z</time></trkpt><trkpt lat="42.604209624511675" lon="11.782601141368227"><ele>493.99999999999994</ele><time>2026-04-12T09:17:58.002Z</time></trkpt><trkpt lat="42.604182041382245" lon="11.782489733486196"><ele>494.0</ele><time>2026-04-12T09:17:59.002Z</time></trkpt><trkpt lat="42.60414790936287" lon="11.782355663767824"><ele>494.0</ele><time>2026-04-12T09:18:00.002Z</time></trkpt><trkpt lat="42.604113428191795" lon="11.78224329056042"><ele>494.0</ele><time>2026-04-12T09:18:01.002Z</time></trkpt><trkpt lat="42.604101732374794" lon="11.782150265662516"><ele>493.99999999999994</ele><time>2026-04-12T09:18:02.002Z</time></trkpt><trkpt lat="42.60406279840754" lon="11.78203972537847"><ele>494.0</ele><time>2026-04-12T09:18:03.002Z</time></trkpt><trkpt lat="42.604026083277624" lon="11.781965291753924"><ele>493.99999999999994</ele><time>2026-04-12T09:18:04.002Z</time></trkpt><trkpt lat="42.604001881613016" lon="11.781882889642226"><ele>494.0</ele><time>2026-04-12T09:18:05.002Z</time></trkpt><trkpt lat="42.603965375730034" lon="11.781782914140617"><ele>494.0</ele><time>2026-04-12T09:18:06.002Z</time></trkpt><trkpt lat="42.60393357208441" lon="11.781686878057307"><ele>494.0</ele><time>2026-04-12T09:18:07.002Z</time></trkpt><trkpt lat="42.603892496497544" lon="11.78157905007762"><ele>493.99999999999994</ele><time>2026-04-12T09:18:08.002Z</time></trkpt><trkpt lat="42.603856077511516" lon="11.781496784768164"><ele>494.0</ele><time>2026-04-12T09:18:09.002Z</time></trkpt><trkpt lat="42.60381320874712" lon="11.781367634322182"><ele>494.0</ele><time>2026-04-12T09:18:10.002Z</time></trkpt><trkpt lat="42.60375698308853" lon="11.7812290363846"><ele>494.0</ele><time>2026-04-12T09:18:11.002Z</time></trkpt><trkpt lat="42.60370141907904" lon="11.781093875327635"><ele>494.0</ele><time>2026-04-12T09:18:12.002Z</time></trkpt><trkpt lat="42.603665865356945" lon="11.780964355727544"><ele>494.0</ele><time>2026-04-12T09:18:13.002Z</time></trkpt><trkpt lat="42.60362908900665" lon="11.78084233877546"><ele>494.0</ele><time>2026-04-12T09:18:14.002Z</time></trkpt><trkpt lat="42.60359599024765" lon="11.780730524239441"><ele>496.49999999999994</ele><time>2026-04-12T09:18:15.002Z</time></trkpt><trkpt lat="42.60355416613794" lon="11.780626764643149"><ele>499.0</ele><time>2026-04-12T09:18:16.002Z</time></trkpt><trkpt lat="42.6035161997775" lon="11.780542743034063"><ele>501.5</ele><time>2026-04-12T09:18:17.002Z</time></trkpt><trkpt lat="42.60350122495373" lon="11.78042086669874"><ele>504.0</ele><time>2026-04-12T09:18:18.002Z</time></trkpt><trkpt lat="42.60348508758715" lon="11.780329870279555"><ele>506.49999999999994</ele><time>2026-04-12T09:18:19.002Z</time></trkpt><trkpt lat="42.603427578603004" lon="11.78026352783467"><ele>509.0</ele><time>2026-04-12T09:18:20.002Z</time></trkpt><trkpt lat="42.6033847390551" lon="11.780106229964126"><ele>509.0</ele><time>2026-04-12T09:18:22.002Z</time></trkpt><trkpt lat="42.60335536638781" lon="11.7800157692333"><ele>509.0</ele><time>2026-04-12T09:18:23.002Z</time></trkpt><trkpt lat="42.603314405676954" lon="11.77983952459955"><ele>509.0</ele><time>2026-04-12T09:18:25.002Z</time></trkpt><trkpt lat="42.603293758427995" lon="11.779751845143872"><ele>509.0</ele><time>2026-04-12T09:18:26.001Z</time></trkpt><trkpt lat="42.60327633093658" lon="11.779657798210808"><ele>509.0</ele><time>2026-04-12T09:18:27.001Z</time></trkpt><trkpt lat="42.60324202357676" lon="11.779477912685637"><ele>508.99999999999994</ele><time>2026-04-12T09:18:29.001Z</time></trkpt><trkpt lat="42.6032038191055" lon="11.779402140921013"><ele>509.0</ele><time>2026-04-12T09:18:30.001Z</time></trkpt><trkpt lat="42.603161056166115" lon="11.779327282568122"><ele>508.99999999999994</ele><time>2026-04-12T09:18:31.001Z</time></trkpt><trkpt lat="42.60312413662748" lon="11.77922221330414"><ele>508.99999999999994</ele><time>2026-04-12T09:18:32.001Z</time></trkpt><trkpt lat="42.60308233460311" lon="11.779133101728487"><ele>509.0</ele><time>2026-04-12T09:18:33.001Z</time></trkpt><trkpt lat="42.60305778768405" lon="11.779046325103392"><ele>508.99999999999994</ele><time>2026-04-12T09:18:35.001Z</time></trkpt><trkpt lat="42.60302061978629" lon="11.778970736964883"><ele>508.99999999999994</ele><time>2026-04-12T09:18:40.001Z</time></trkpt><trkpt lat="42.60294776679233" lon="11.778982847816922"><ele>509.8333333333333</ele><time>2026-04-12T09:18:48.001Z</time></trkpt><trkpt lat="42.60292901645529" lon="11.77890038700685"><ele>510.66666666666663</ele><time>2026-04-12T09:18:49.001Z</time></trkpt><trkpt lat="42.60286338879894" lon="11.778881989011234"><ele>511.5</ele><time>2026-04-12T09:18:51.001Z</time></trkpt><trkpt lat="42.602795922567154" lon="11.778865187571634"><ele>512.3333333333334</ele><time>2026-04-12T09:19:05.001Z</time></trkpt><trkpt lat="42.60270907931883" lon="11.77887551383475"><ele>513.1666666666667</ele><time>2026-04-12T09:19:12.001Z</time></trkpt><trkpt lat="42.60258479654325" lon="11.778855192709962"><ele>514.0</ele><time>2026-04-12T09:19:14.001Z</time></trkpt><trkpt lat="42.60250110844146" lon="11.77886050923306"><ele>516.0</ele><time>2026-04-12T09:19:15.001Z</time></trkpt><trkpt lat="42.602406569681854" lon="11.778867140151277"><ele>518.0</ele><time>2026-04-12T09:19:16.001Z</time></trkpt><trkpt lat="42.602308572178956" lon="11.778874013664193"><ele>520.0</ele><time>2026-04-12T09:19:17.001Z</time></trkpt><trkpt lat="42.60221019479264" lon="11.778880431239157"><ele>522.0</ele><time>2026-04-12T09:19:18.001Z</time></trkpt><trkpt lat="42.602109546627304" lon="11.778884497220687"><ele>524.0</ele><time>2026-04-12T09:19:19.001Z</time></trkpt><trkpt lat="42.60201552734419" lon="11.778888295401385"><ele>523.6</ele><time>2026-04-12T09:19:20.001Z</time></trkpt><trkpt lat="42.60192997635005" lon="11.778891751487892"><ele>523.2</ele><time>2026-04-12T09:19:21.001Z</time></trkpt><trkpt lat="42.601846746485194" lon="11.778894281283048"><ele>522.8000000000001</ele><time>2026-04-12T09:19:22.001Z</time></trkpt><trkpt lat="42.60175427858676" lon="11.77889642174632"><ele>522.4</ele><time>2026-04-12T09:19:23.001Z</time></trkpt><trkpt lat="42.601650831482246" lon="11.778897158346158"><ele>522.0</ele><time>2026-04-12T09:19:24.001Z</time></trkpt><trkpt lat="42.60153291662604" lon="11.778894908403545"><ele>522.0</ele><time>2026-04-12T09:19:25.001Z</time></trkpt><trkpt lat="42.60140936139564" lon="11.778886762735445"><ele>522.0</ele><time>2026-04-12T09:19:26.001Z</time></trkpt><trkpt lat="42.601295557184706" lon="11.778873929533026"><ele>522.0</ele><time>2026-04-12T09:19:27.001Z</time></trkpt><trkpt lat="42.60118905089943" lon="11.778860969864299"><ele>522.0</ele><time>2026-04-12T09:19:28.001Z</time></trkpt><trkpt lat="42.60108337747549" lon="11.77884928436201"><ele>522.5</ele><time>2026-04-12T09:19:29.001Z</time></trkpt><trkpt lat="42.60101226322376" lon="11.77885198076885"><ele>523.0</ele><time>2026-04-12T09:19:30.001Z</time></trkpt><trkpt lat="42.60094734144109" lon="11.778809302020813"><ele>523.5</ele><time>2026-04-12T09:19:32.001Z</time></trkpt><trkpt lat="42.60088485316817" lon="11.778796202011744"><ele>524.0</ele><time>2026-04-12T09:19:34.001Z</time></trkpt><trkpt lat="42.60090942010311" lon="11.778674939354733"><ele>524.5</ele><time>2026-04-12T09:19:38.001Z</time></trkpt><trkpt lat="42.60096198563621" lon="11.778611861192246"><ele>525.0</ele><time>2026-04-12T09:19:40.001Z</time></trkpt><trkpt lat="42.60102746668413" lon="11.778526283652312"><ele>524.4</ele><time>2026-04-12T09:19:42.001Z</time></trkpt><trkpt lat="42.60108344237429" lon="11.77842763503199"><ele>523.8</ele><time>2026-04-12T09:19:44.001Z</time></trkpt><trkpt lat="42.60115838563781" lon="11.778344885861701"><ele>523.2</ele><time>2026-04-12T09:19:46.001Z</time></trkpt><trkpt lat="42.601214553142974" lon="11.77824082593288"><ele>522.6</ele><time>2026-04-12T09:19:48.001Z</time></trkpt><trkpt lat="42.60125334935266" lon="11.778150305508433"><ele>522.0</ele><time>2026-04-12T09:19:50.001Z</time></trkpt><trkpt lat="42.60129811442244" lon="11.778029641012903"><ele>524.0</ele><time>2026-04-12T09:19:52.001Z</time></trkpt><trkpt lat="42.601344435986775" lon="11.777892984301982"><ele>526.0</ele><time>2026-04-12T09:19:54.001Z</time></trkpt><trkpt lat="42.60140075507193" lon="11.777745941519088"><ele>528.0</ele><time>2026-04-12T09:19:56.001Z</time></trkpt><trkpt lat="42.60143314419715" lon="11.777665817999274"><ele>530.0</ele><time>2026-04-12T09:19:57.001Z</time></trkpt><trkpt lat="42.60146550206777" lon="11.77759032740955"><ele>532.0</ele><time>2026-04-12T09:19:58.001Z</time></trkpt><trkpt lat="42.60154226422454" lon="11.777450698522548"><ele>532.1666666666667</ele><time>2026-04-12T09:20:00.001Z</time></trkpt><trkpt lat="42.601574625779755" lon="11.777375239762067"><ele>532.3333333333334</ele><time>2026-04-12T09:20:01.001Z</time></trkpt><trkpt lat="42.601632471586576" lon="11.777297451109467"><ele>532.5</ele><time>2026-04-12T09:20:02.001Z</time></trkpt><trkpt lat="42.60169610446557" lon="11.777213043794182"><ele>532.6666666666666</ele><time>2026-04-12T09:20:03.001Z</time></trkpt><trkpt lat="42.60175276411666" lon="11.777138190841773"><ele>532.8333333333333</ele><time>2026-04-12T09:20:04.001Z</time></trkpt><trkpt lat="42.60180881162369" lon="11.777049862424752"><ele>533.0</ele><time>2026-04-12T09:20:05.001Z</time></trkpt><trkpt lat="42.60186911138201" lon="11.776960384350875"><ele>533.0</ele><time>2026-04-12T09:20:06.001Z</time></trkpt><trkpt lat="42.601917496317945" lon="11.776876606528127"><ele>533.0</ele><time>2026-04-12T09:20:07.001Z</time></trkpt><trkpt lat="42.60196487920623" lon="11.776781910820311"><ele>533.0</ele><time>2026-04-12T09:20:08.001Z</time></trkpt><trkpt lat="42.6020123643275" lon="11.776681356531228"><ele>533.0</ele><time>2026-04-12T09:20:09.001Z</time></trkpt><trkpt lat="42.60205637110505" lon="11.776579507972476"><ele>533.0</ele><time>2026-04-12T09:20:10.001Z</time></trkpt><trkpt lat="42.6020987265365" lon="11.776469118089208"><ele>533.0</ele><time>2026-04-12T09:20:11.001Z</time></trkpt><trkpt lat="42.60213829780121" lon="11.776359777179312"><ele>533.5714285714286</ele><time>2026-04-12T09:20:12.001Z</time></trkpt><trkpt lat="42.60217663536519" lon="11.776251117273885"><ele>534.1428571428571</ele><time>2026-04-12T09:20:13.001Z</time></trkpt><trkpt lat="42.602214269621854" lon="11.776154846873757"><ele>534.7142857142857</ele><time>2026-04-12T09:20:14.001Z</time></trkpt><trkpt lat="42.602251175394656" lon="11.776069082923918"><ele>535.2857142857142</ele><time>2026-04-12T09:20:15.001Z</time></trkpt><trkpt lat="42.60228086040333" lon="11.775983017946247"><ele>535.8571428571429</ele><time>2026-04-12T09:20:16.001Z</time></trkpt><trkpt lat="42.60230859207019" lon="11.77589912678506"><ele>536.4285714285713</ele><time>2026-04-12T09:20:17.001Z</time></trkpt><trkpt lat="42.60233819472818" lon="11.7758184172458"><ele>537.0</ele><time>2026-04-12T09:20:18.001Z</time></trkpt><trkpt lat="42.60239250934604" lon="11.775669094046517"><ele>537.0</ele><time>2026-04-12T09:20:20.001Z</time></trkpt><trkpt lat="42.60245490865074" lon="11.775532042603041"><ele>537.0</ele><time>2026-04-12T09:20:22.001Z</time></trkpt><trkpt lat="42.6025167412312" lon="11.775383587940599"><ele>537.0</ele><time>2026-04-12T09:20:24.001Z</time></trkpt><trkpt lat="42.60254520069924" lon="11.775297950871757"><ele>537.0</ele><time>2026-04-12T09:20:25.001Z</time></trkpt><trkpt lat="42.602569804848194" lon="11.77519727369825"><ele>537.0</ele><time>2026-04-12T09:20:26.001Z</time></trkpt><trkpt lat="42.602617006673626" lon="11.77511418359585"><ele>537.2</ele><time>2026-04-12T09:20:27.001Z</time></trkpt><trkpt lat="42.602656068420785" lon="11.77500939604366"><ele>537.4000000000001</ele><time>2026-04-12T09:20:28.001Z</time></trkpt><trkpt lat="42.60268997346319" lon="11.774918441547866"><ele>537.5999999999999</ele><time>2026-04-12T09:20:29.001Z</time></trkpt><trkpt lat="42.60272298083752" lon="11.774829895337016"><ele>537.8</ele><time>2026-04-12T09:20:30.001Z</time></trkpt><trkpt lat="42.60276961008569" lon="11.77465822276343"><ele>538.0</ele><time>2026-04-12T09:20:32.001Z</time></trkpt><trkpt lat="42.60281153707041" lon="11.774556579852623"><ele>540.0</ele><time>2026-04-12T09:20:33.001Z</time></trkpt><trkpt lat="42.602846657081386" lon="11.774456893518447"><ele>542.0</ele><time>2026-04-12T09:20:34.001Z</time></trkpt><trkpt lat="42.60288219200914" lon="11.774363178753687"><ele>544.0</ele><time>2026-04-12T09:20:35.001Z</time></trkpt><trkpt lat="42.602914315024634" lon="11.774273496648961"><ele>546.0</ele><time>2026-04-12T09:20:36.001Z</time></trkpt><trkpt lat="42.602944742807004" lon="11.774196563174995"><ele>548.0</ele><time>2026-04-12T09:20:37.001Z</time></trkpt><trkpt lat="42.60298443664709" lon="11.774108833547919"><ele>550.0</ele><time>2026-04-12T09:20:38.001Z</time></trkpt><trkpt lat="42.603062089767256" lon="11.773974798462504"><ele>550.0</ele><time>2026-04-12T09:20:40.001Z</time></trkpt><trkpt lat="42.60310030132084" lon="11.773898527241716"><ele>550.0</ele><time>2026-04-12T09:20:41.001Z</time></trkpt><trkpt lat="42.603138944618074" lon="11.773829444014908"><ele>550.0</ele><time>2026-04-12T09:20:42.001Z</time></trkpt><trkpt lat="42.60321762923135" lon="11.773711625443402"><ele>550.0</ele><time>2026-04-12T09:20:44.001Z</time></trkpt><trkpt lat="42.60330418508382" lon="11.773609029939895"><ele>550.0</ele><time>2026-04-12T09:20:46.001Z</time></trkpt><trkpt lat="42.60337894484256" lon="11.773489818118941"><ele>549.5</ele><time>2026-04-12T09:20:48.001Z</time></trkpt><trkpt lat="42.60344532717128" lon="11.77335553754269"><ele>549.0</ele><time>2026-04-12T09:20:50.001Z</time></trkpt><trkpt lat="42.6035218347315" lon="11.773224996602034"><ele>548.5</ele><time>2026-04-12T09:20:52.001Z</time></trkpt><trkpt lat="42.60362166119472" lon="11.77309639981976"><ele>548.0</ele><time>2026-04-12T09:20:54.001Z</time></trkpt><trkpt lat="42.60366883775706" lon="11.773020801568597"><ele>546.1999999999999</ele><time>2026-04-12T09:20:55.001Z</time></trkpt><trkpt lat="42.60370445629005" lon="11.772931866012195"><ele>544.4</ele><time>2026-04-12T09:20:56.001Z</time></trkpt><trkpt lat="42.60376069447654" lon="11.772847032892347"><ele>542.5999999999999</ele><time>2026-04-12T09:20:57.001Z</time></trkpt><trkpt lat="42.603826869291346" lon="11.772747784296579"><ele>540.8</ele><time>2026-04-12T09:20:58.001Z</time></trkpt><trkpt lat="42.603893538484876" lon="11.772640833831254"><ele>539.0</ele><time>2026-04-12T09:20:59.001Z</time></trkpt><trkpt lat="42.603961706966786" lon="11.772540171895752"><ele>538.75</ele><time>2026-04-12T09:21:00.001Z</time></trkpt><trkpt lat="42.60402634393219" lon="11.772427493427456"><ele>538.5</ele><time>2026-04-12T09:21:01.001Z</time></trkpt><trkpt lat="42.60409332122295" lon="11.77231357494808"><ele>538.25</ele><time>2026-04-12T09:21:02.001Z</time></trkpt><trkpt lat="42.604169904799676" lon="11.772185844144488"><ele>538.0</ele><time>2026-04-12T09:21:03.001Z</time></trkpt><trkpt lat="42.604243873473145" lon="11.772064334587816"><ele>538.0</ele><time>2026-04-12T09:21:04.001Z</time></trkpt><trkpt lat="42.60433233285551" lon="11.77195089048071"><ele>538.0</ele><time>2026-04-12T09:21:05.001Z</time></trkpt><trkpt lat="42.60440609311384" lon="11.771809613852968"><ele>538.0</ele><time>2026-04-12T09:21:06.001Z</time></trkpt><trkpt lat="42.604482148915345" lon="11.771690236350429"><ele>538.0</ele><time>2026-04-12T09:21:07.001Z</time></trkpt><trkpt lat="42.60456487552194" lon="11.771557443021432"><ele>536.75</ele><time>2026-04-12T09:21:08.001Z</time></trkpt><trkpt lat="42.604648118312106" lon="11.771423401658016"><ele>535.5</ele><time>2026-04-12T09:21:09.001Z</time></trkpt><trkpt lat="42.60472986342837" lon="11.77129482008181"><ele>534.25</ele><time>2026-04-12T09:21:10.001Z</time></trkpt><trkpt lat="42.60481535830926" lon="11.771165130987102"><ele>533.0</ele><time>2026-04-12T09:21:11.001Z</time></trkpt><trkpt lat="42.60489910422742" lon="11.77103608892694"><ele>532.75</ele><time>2026-04-12T09:21:12.001Z</time></trkpt><trkpt lat="42.604975501910204" lon="11.770919890046235"><ele>532.5</ele><time>2026-04-12T09:21:13.001Z</time></trkpt><trkpt lat="42.605041896433015" lon="11.770804641766665"><ele>532.25</ele><time>2026-04-12T09:21:14.001Z</time></trkpt><trkpt lat="42.60511152140556" lon="11.770677924393157"><ele>532.0</ele><time>2026-04-12T09:21:15.001Z</time></trkpt><trkpt lat="42.60519499358377" lon="11.770537353027224"><ele>532.0</ele><time>2026-04-12T09:21:16.001Z</time></trkpt><trkpt lat="42.605269679984346" lon="11.770410846186275"><ele>532.0</ele><time>2026-04-12T09:21:17.001Z</time></trkpt><trkpt lat="42.6053345434176" lon="11.770294730212358"><ele>532.0</ele><time>2026-04-12T09:21:18.001Z</time></trkpt><trkpt lat="42.60539969192828" lon="11.770178226067175"><ele>532.0</ele><time>2026-04-12T09:21:19.001Z</time></trkpt><trkpt lat="42.60546716256014" lon="11.77007053650157"><ele>532.0</ele><time>2026-04-12T09:21:20.001Z</time></trkpt><trkpt lat="42.60554384975999" lon="11.769945106485823"><ele>532.75</ele><time>2026-04-12T09:21:21.001Z</time></trkpt><trkpt lat="42.605619939709364" lon="11.769815245981846"><ele>533.5</ele><time>2026-04-12T09:21:22.001Z</time></trkpt><trkpt lat="42.605685190734555" lon="11.76967991450495"><ele>534.25</ele><time>2026-04-12T09:21:23.001Z</time></trkpt><trkpt lat="42.605753868502696" lon="11.769539617304972"><ele>535.0</ele><time>2026-04-12T09:21:24.001Z</time></trkpt><trkpt lat="42.60582124072705" lon="11.769396766873646"><ele>535.75</ele><time>2026-04-12T09:21:25.001Z</time></trkpt><trkpt lat="42.605895176236665" lon="11.76925529061096"><ele>536.5</ele><time>2026-04-12T09:21:26.001Z</time></trkpt><trkpt lat="42.60594795619052" lon="11.769098012855256"><ele>537.25</ele><time>2026-04-12T09:21:27.001Z</time></trkpt><trkpt lat="42.60597774533377" lon="11.76895350377707"><ele>538.0</ele><time>2026-04-12T09:21:28.001Z</time></trkpt><trkpt lat="42.60598741988229" lon="11.768831544454626"><ele>538.0</ele><time>2026-04-12T09:21:29.001Z</time></trkpt><trkpt lat="42.605992976044405" lon="11.768714506257815"><ele>538.0</ele><time>2026-04-12T09:21:30.001Z</time></trkpt><trkpt lat="42.60599407564442" lon="11.768582640753884"><ele>538.0</ele><time>2026-04-12T09:21:31.001Z</time></trkpt><trkpt lat="42.60599478975959" lon="11.768474405511698"><ele>538.0</ele><time>2026-04-12T09:21:32.001Z</time></trkpt><trkpt lat="42.60599557595052" lon="11.768355245559137"><ele>538.0</ele><time>2026-04-12T09:21:33.001Z</time></trkpt><trkpt lat="42.60599712128087" lon="11.768219197278716"><ele>537.4</ele><time>2026-04-12T09:21:34.001Z</time></trkpt><trkpt lat="42.606002115217564" lon="11.768087732776634"><ele>536.8</ele><time>2026-04-12T09:21:35.001Z</time></trkpt><trkpt lat="42.60600940869375" lon="11.767958820902988"><ele>536.2</ele><time>2026-04-12T09:21:36.001Z</time></trkpt><trkpt lat="42.606018552890184" lon="11.76782595680792"><ele>535.6</ele><time>2026-04-12T09:21:37.001Z</time></trkpt><trkpt lat="42.60601281462884" lon="11.76768724027926"><ele>535.0</ele><time>2026-04-12T09:21:38.001Z</time></trkpt><trkpt lat="42.60603685634815" lon="11.767564280268342"><ele>534.2</ele><time>2026-04-12T09:21:39.001Z</time></trkpt><trkpt lat="42.60605018429414" lon="11.76743242285868"><ele>533.4</ele><time>2026-04-12T09:21:40.001Z</time></trkpt><trkpt lat="42.60606810817009" lon="11.767282532440868"><ele>532.6</ele><time>2026-04-12T09:21:41.001Z</time></trkpt><trkpt lat="42.606078555282494" lon="11.767120839039034"><ele>531.8</ele><time>2026-04-12T09:21:42.001Z</time></trkpt><trkpt lat="42.606079038859264" lon="11.766971885214641"><ele>531.0</ele><time>2026-04-12T09:21:43.001Z</time></trkpt><trkpt lat="42.60606728300823" lon="11.766839315816203"><ele>530.0</ele><time>2026-04-12T09:21:44.001Z</time></trkpt><trkpt lat="42.606076833791505" lon="11.766703574525875"><ele>529.0</ele><time>2026-04-12T09:21:45.001Z</time></trkpt><trkpt lat="42.6060711511426" lon="11.766590464247372"><ele>528.0</ele><time>2026-04-12T09:21:46.001Z</time></trkpt><trkpt lat="42.606099117290206" lon="11.766469586767839"><ele>527.0</ele><time>2026-04-12T09:21:47.001Z</time></trkpt><trkpt lat="42.60611620982426" lon="11.766325288077756"><ele>526.0</ele><time>2026-04-12T09:21:48.001Z</time></trkpt><trkpt lat="42.60613962114838" lon="11.766169297852162"><ele>526.0</ele><time>2026-04-12T09:21:49.001Z</time></trkpt><trkpt lat="42.60617030773177" lon="11.766021459212364"><ele>526.0</ele><time>2026-04-12T09:21:50.001Z</time></trkpt><trkpt lat="42.606211362754436" lon="11.765876729104628"><ele>526.0</ele><time>2026-04-12T09:21:51.001Z</time></trkpt><trkpt lat="42.60625812950886" lon="11.765759212696187"><ele>526.0</ele><time>2026-04-12T09:21:52.001Z</time></trkpt><trkpt lat="42.6063032914356" lon="11.765643298871812"><ele>526.0</ele><time>2026-04-12T09:21:53.001Z</time></trkpt><trkpt lat="42.60635203352376" lon="11.765557089722352"><ele>526.0</ele><time>2026-04-12T09:21:54.001Z</time></trkpt><trkpt lat="42.60640134692386" lon="11.765448414425453"><ele>526.0</ele><time>2026-04-12T09:21:55.001Z</time></trkpt><trkpt lat="42.60647550533812" lon="11.765360643389164"><ele>526.0</ele><time>2026-04-12T09:21:56.001Z</time></trkpt><trkpt lat="42.606562039599204" lon="11.765275152722936"><ele>526.0</ele><time>2026-04-12T09:21:58.001Z</time></trkpt><trkpt lat="42.60661923931457" lon="11.76521353236072"><ele>526.0</ele><time>2026-04-12T09:21:59.001Z</time></trkpt><trkpt lat="42.606700108561334" lon="11.76514242092349"><ele>525.8</ele><time>2026-04-12T09:22:00.001Z</time></trkpt><trkpt lat="42.606782722188186" lon="11.76509537637611"><ele>525.6</ele><time>2026-04-12T09:22:01.001Z</time></trkpt><trkpt lat="42.60686562439266" lon="11.765074306336816"><ele>525.4</ele><time>2026-04-12T09:22:02.001Z</time></trkpt><trkpt lat="42.606962612882064" lon="11.7650518049006"><ele>525.2</ele><time>2026-04-12T09:22:03.001Z</time></trkpt><trkpt lat="42.607081237788094" lon="11.765038514909435"><ele>525.0</ele><time>2026-04-12T09:22:04.001Z</time></trkpt><trkpt lat="42.60720024566878" lon="11.765053059244787"><ele>526.4</ele><time>2026-04-12T09:22:05.001Z</time></trkpt><trkpt lat="42.60732274011374" lon="11.765047712565812"><ele>527.8</ele><time>2026-04-12T09:22:06.001Z</time></trkpt><trkpt lat="42.60744197119869" lon="11.765029132018647"><ele>529.2</ele><time>2026-04-12T09:22:07.001Z</time></trkpt><trkpt lat="42.60755361780065" lon="11.765015852344"><ele>530.6</ele><time>2026-04-12T09:22:08.001Z</time></trkpt><trkpt lat="42.607638889394224" lon="11.765027933249058"><ele>532.0</ele><time>2026-04-12T09:22:09.001Z</time></trkpt><trkpt lat="42.60774636763716" lon="11.765002356642295"><ele>532.6</ele><time>2026-04-12T09:22:10.001Z</time></trkpt><trkpt lat="42.60783950665562" lon="11.765011989027082"><ele>533.2</ele><time>2026-04-12T09:22:11.001Z</time></trkpt><trkpt lat="42.60792779936878" lon="11.76497596253553"><ele>533.8</ele><time>2026-04-12T09:22:12.001Z</time></trkpt><trkpt lat="42.60801474795111" lon="11.76486423085194"><ele>534.4</ele><time>2026-04-12T09:22:14.001Z</time></trkpt><trkpt lat="42.60808426045161" lon="11.764807950889182"><ele>535.0</ele><time>2026-04-12T09:22:15.001Z</time></trkpt><trkpt lat="42.608131747582874" lon="11.76471656257805"><ele>535.0</ele><time>2026-04-12T09:22:16.001Z</time></trkpt><trkpt lat="42.60819473246718" lon="11.764608340976572"><ele>535.0</ele><time>2026-04-12T09:22:17.001Z</time></trkpt><trkpt lat="42.608282049084444" lon="11.764505989012262"><ele>535.0</ele><time>2026-04-12T09:22:18.001Z</time></trkpt><trkpt lat="42.608349066813744" lon="11.764415685016626"><ele>535.0</ele><time>2026-04-12T09:22:19.001Z</time></trkpt><trkpt lat="42.60842267739291" lon="11.764312221439111"><ele>535.0</ele><time>2026-04-12T09:22:20.001Z</time></trkpt><trkpt lat="42.608493343336434" lon="11.764210305238478"><ele>534.6</ele><time>2026-04-12T09:22:21.001Z</time></trkpt><trkpt lat="42.60856373115071" lon="11.76410971155806"><ele>534.2</ele><time>2026-04-12T09:22:22.001Z</time></trkpt><trkpt lat="42.60863539132682" lon="11.764012173109966"><ele>533.8</ele><time>2026-04-12T09:22:23.001Z</time></trkpt><trkpt lat="42.60870927780251" lon="11.76390543644205"><ele>533.4</ele><time>2026-04-12T09:22:24.001Z</time></trkpt><trkpt lat="42.60881254628373" lon="11.763819378096185"><ele>533.0</ele><time>2026-04-12T09:22:25.001Z</time></trkpt><trkpt lat="42.60890333078079" lon="11.76374497966041"><ele>533.0</ele><time>2026-04-12T09:22:26.001Z</time></trkpt><trkpt lat="42.60901444030062" lon="11.76368065696053"><ele>533.0</ele><time>2026-04-12T09:22:27.001Z</time></trkpt><trkpt lat="42.609135035017005" lon="11.763625476740474"><ele>533.0</ele><time>2026-04-12T09:22:28.001Z</time></trkpt><trkpt lat="42.60923809980536" lon="11.763561261291644"><ele>533.0</ele><time>2026-04-12T09:22:29.001Z</time></trkpt><trkpt lat="42.60928556833937" lon="11.763486636695072"><ele>533.0</ele><time>2026-04-12T09:22:30.001Z</time></trkpt><trkpt lat="42.609350574437386" lon="11.763435886303913"><ele>534.75</ele><time>2026-04-12T09:22:31.001Z</time></trkpt><trkpt lat="42.60944860749968" lon="11.763343949058541"><ele>536.5</ele><time>2026-04-12T09:22:32.001Z</time></trkpt><trkpt lat="42.60954059233675" lon="11.763303591442371"><ele>538.25</ele><time>2026-04-12T09:22:33.001Z</time></trkpt><trkpt lat="42.609715990056664" lon="11.76325281102657"><ele>540.0</ele><time>2026-04-12T09:22:35.001Z</time></trkpt><trkpt lat="42.60983233784689" lon="11.763249248519513"><ele>540.0</ele><time>2026-04-12T09:22:36.001Z</time></trkpt><trkpt lat="42.6099313829329" lon="11.763238343026883"><ele>540.0</ele><time>2026-04-12T09:22:37.001Z</time></trkpt><trkpt lat="42.610026804788916" lon="11.763209722841943"><ele>540.0</ele><time>2026-04-12T09:22:38.001Z</time></trkpt><trkpt lat="42.6101215824608" lon="11.763165822180843"><ele>540.0</ele><time>2026-04-12T09:22:39.001Z</time></trkpt><trkpt lat="42.61029394634897" lon="11.763091093519895"><ele>535.25</ele><time>2026-04-12T09:22:40.001Z</time></trkpt><trkpt lat="42.610402960102206" lon="11.76302716570048"><ele>530.5</ele><time>2026-04-12T09:22:41.001Z</time></trkpt><trkpt lat="42.61050989005562" lon="11.762976820387752"><ele>525.75</ele><time>2026-04-12T09:22:42.001Z</time></trkpt><trkpt lat="42.610616712896636" lon="11.762928981969516"><ele>521.0</ele><time>2026-04-12T09:22:43.001Z</time></trkpt><trkpt lat="42.61071378713001" lon="11.762871384756796"><ele>521.0</ele><time>2026-04-12T09:22:44.001Z</time></trkpt><trkpt lat="42.61079843861457" lon="11.762829000464743"><ele>521.0</ele><time>2026-04-12T09:22:45.001Z</time></trkpt><trkpt lat="42.61085837392983" lon="11.762800352472524"><ele>521.0</ele><time>2026-04-12T09:22:46.001Z</time></trkpt><trkpt lat="42.61095068387754" lon="11.762736854642487"><ele>521.0</ele><time>2026-04-12T09:22:47Z</time></trkpt><trkpt lat="42.61105007869334" lon="11.762677769875012"><ele>521.0</ele><time>2026-04-12T09:22:48Z</time></trkpt><trkpt lat="42.611136457908444" lon="11.762618974743646"><ele>522.0</ele><time>2026-04-12T09:22:49Z</time></trkpt><trkpt lat="42.61120295738264" lon="11.762582287855718"><ele>523.0</ele><time>2026-04-12T09:22:50Z</time></trkpt><trkpt lat="42.611288694601264" lon="11.762533107990995"><ele>524.0</ele><time>2026-04-12T09:22:51Z</time></trkpt><trkpt lat="42.61135345508366" lon="11.762498940898318"><ele>525.0</ele><time>2026-04-12T09:22:52Z</time></trkpt><trkpt lat="42.61143014599121" lon="11.762460110600435"><ele>526.0</ele><time>2026-04-12T09:22:53Z</time></trkpt><trkpt lat="42.61151868732914" lon="11.762400756901156"><ele>527.0</ele><time>2026-04-12T09:22:54Z</time></trkpt><trkpt lat="42.611603768425155" lon="11.76233941424407"><ele>527.0</ele><time>2026-04-12T09:22:55Z</time></trkpt><trkpt lat="42.611699940022234" lon="11.762291343434198"><ele>527.0</ele><time>2026-04-12T09:22:56Z</time></trkpt><trkpt lat="42.611775220750374" lon="11.762253463968138"><ele>527.0</ele><time>2026-04-12T09:22:57Z</time></trkpt><trkpt lat="42.61186889063063" lon="11.762220935818842"><ele>527.0</ele><time>2026-04-12T09:22:58Z</time></trkpt><trkpt lat="42.61199805000967" lon="11.76221778362953"><ele>527.0</ele><time>2026-04-12T09:23:00Z</time></trkpt><trkpt lat="42.612065671299845" lon="11.762221647584626"><ele>524.0</ele><time>2026-04-12T09:23:01Z</time></trkpt><trkpt lat="42.61214240499061" lon="11.76222146954912"><ele>521.0</ele><time>2026-04-12T09:23:02Z</time></trkpt><trkpt lat="42.61223421513314" lon="11.76222098736148"><ele>518.0</ele><time>2026-04-12T09:23:03Z</time></trkpt><trkpt lat="42.61231268371503" lon="11.762240843405822"><ele>515.0</ele><time>2026-04-12T09:23:04Z</time></trkpt><trkpt lat="42.61238681328886" lon="11.762240843413714"><ele>511.99999999999994</ele><time>2026-04-12T09:23:05Z</time></trkpt><trkpt lat="42.612467496124445" lon="11.762222304065103"><ele>509.0</ele><time>2026-04-12T09:23:06Z</time></trkpt><trkpt lat="42.612549296371334" lon="11.762219449821268"><ele>509.0</ele><time>2026-04-12T09:23:07Z</time></trkpt><trkpt lat="42.612668424762695" lon="11.7621608211296"><ele>509.0</ele><time>2026-04-12T09:23:09Z</time></trkpt><trkpt lat="42.61272133693099" lon="11.762050698088258"><ele>509.0</ele><time>2026-04-12T09:23:11Z</time></trkpt><trkpt lat="42.61275817133515" lon="11.76195252170228"><ele>509.0</ele><time>2026-04-12T09:23:13Z</time></trkpt><trkpt lat="42.61282666725725" lon="11.761926697363648"><ele>509.0</ele><time>2026-04-12T09:23:15Z</time></trkpt><trkpt lat="42.61296118737657" lon="11.762008653542336"><ele>506.99999999999994</ele><time>2026-04-12T09:23:42Z</time></trkpt><trkpt lat="42.6130665002335" lon="11.762091747452017"><ele>505.0</ele><time>2026-04-12T09:23:44Z</time></trkpt><trkpt lat="42.61312279426505" lon="11.762130294229063"><ele>503.0</ele><time>2026-04-12T09:23:45Z</time></trkpt><trkpt lat="42.61318044975743" lon="11.762166751292641"><ele>501.0</ele><time>2026-04-12T09:23:46Z</time></trkpt><trkpt lat="42.61329999190936" lon="11.762214645415998"><ele>498.99999999999994</ele><time>2026-04-12T09:23:48Z</time></trkpt><trkpt lat="42.61335569898356" lon="11.76226049308761"><ele>497.0</ele><time>2026-04-12T09:23:49Z</time></trkpt><trkpt lat="42.613458930751" lon="11.762343814405732"><ele>496.99999999999994</ele><time>2026-04-12T09:23:51Z</time></trkpt><trkpt lat="42.613569292783666" lon="11.762420018967402"><ele>497.0</ele><time>2026-04-12T09:23:53Z</time></trkpt><trkpt lat="42.61363147179988" lon="11.762464072202913"><ele>497.0</ele><time>2026-04-12T09:23:54Z</time></trkpt><trkpt lat="42.61369092982849" lon="11.762495983565294"><ele>497.0</ele><time>2026-04-12T09:23:55Z</time></trkpt><trkpt lat="42.61376247680308" lon="11.76252330297706"><ele>496.99999999999994</ele><time>2026-04-12T09:23:56Z</time></trkpt><trkpt lat="42.61384058803421" lon="11.76253961747367"><ele>497.0</ele><time>2026-04-12T09:23:57Z</time></trkpt><trkpt lat="42.61392060707577" lon="11.762556913725717"><ele>496.16666666666663</ele><time>2026-04-12T09:23:58Z</time></trkpt><trkpt lat="42.61400248880423" lon="11.762567909444787"><ele>495.3333333333333</ele><time>2026-04-12T09:23:59Z</time></trkpt><trkpt lat="42.614077661584375" lon="11.762594949248472"><ele>494.5</ele><time>2026-04-12T09:24:00Z</time></trkpt><trkpt lat="42.61414103474749" lon="11.762615514360263"><ele>493.66666666666663</ele><time>2026-04-12T09:24:01Z</time></trkpt><trkpt lat="42.61420616678427" lon="11.762634781380042"><ele>492.8333333333333</ele><time>2026-04-12T09:24:02Z</time></trkpt><trkpt lat="42.61427716968648" lon="11.76263559942287"><ele>492.0</ele><time>2026-04-12T09:24:03Z</time></trkpt><trkpt lat="42.61436420744861" lon="11.762669434228862"><ele>491.40000000000003</ele><time>2026-04-12T09:24:04Z</time></trkpt><trkpt lat="42.61447836201973" lon="11.762703332325007"><ele>490.80000000000007</ele><time>2026-04-12T09:24:06Z</time></trkpt><trkpt lat="42.614553586096775" lon="11.762718277189402"><ele>490.2</ele><time>2026-04-12T09:24:07Z</time></trkpt><trkpt lat="42.614702107547025" lon="11.762763239633573"><ele>489.6</ele><time>2026-04-12T09:24:09Z</time></trkpt><trkpt lat="42.61478728825312" lon="11.762780027462718"><ele>489.0</ele><time>2026-04-12T09:24:10Z</time></trkpt><trkpt lat="42.614878723631215" lon="11.762800387360235"><ele>489.0</ele><time>2026-04-12T09:24:11Z</time></trkpt><trkpt lat="42.61496009491642" lon="11.762814995412857"><ele>489.0</ele><time>2026-04-12T09:24:12Z</time></trkpt><trkpt lat="42.6150257059073" lon="11.762841799126674"><ele>489.0</ele><time>2026-04-12T09:24:13Z</time></trkpt><trkpt lat="42.61509966089053" lon="11.762887059364244"><ele>489.0</ele><time>2026-04-12T09:24:14Z</time></trkpt><trkpt lat="42.615176509720435" lon="11.762942867060806"><ele>489.0</ele><time>2026-04-12T09:24:15Z</time></trkpt><trkpt lat="42.61522959389005" lon="11.76300696500063"><ele>489.0</ele><time>2026-04-12T09:24:16Z</time></trkpt><trkpt lat="42.615291137080455" lon="11.763068004064134"><ele>489.2</ele><time>2026-04-12T09:24:17Z</time></trkpt><trkpt lat="42.61536593572763" lon="11.76312950556819"><ele>489.4</ele><time>2026-04-12T09:24:18Z</time></trkpt><trkpt lat="42.61544270433332" lon="11.763205434921687"><ele>489.6</ele><time>2026-04-12T09:24:19Z</time></trkpt><trkpt lat="42.61552075261458" lon="11.763286089921063"><ele>489.8</ele><time>2026-04-12T09:24:20Z</time></trkpt><trkpt lat="42.61559490314889" lon="11.763368824128795"><ele>490.0</ele><time>2026-04-12T09:24:21Z</time></trkpt><trkpt lat="42.615668554762664" lon="11.763432066002212"><ele>490.0</ele><time>2026-04-12T09:24:22Z</time></trkpt><trkpt lat="42.615727610978" lon="11.76350231952192"><ele>490.0</ele><time>2026-04-12T09:24:23Z</time></trkpt><trkpt lat="42.615801218675394" lon="11.763577382778271"><ele>490.0</ele><time>2026-04-12T09:24:24Z</time></trkpt><trkpt lat="42.61586956790277" lon="11.76366062574354"><ele>490.0</ele><time>2026-04-12T09:24:25Z</time></trkpt><trkpt lat="42.61594723003722" lon="11.763744191632705"><ele>490.0</ele><time>2026-04-12T09:24:26Z</time></trkpt><trkpt lat="42.61601915391601" lon="11.763829902447899"><ele>489.6</ele><time>2026-04-12T09:24:27Z</time></trkpt><trkpt lat="42.616099502777274" lon="11.76391364849596"><ele>489.2</ele><time>2026-04-12T09:24:28Z</time></trkpt><trkpt lat="42.6161784006653" lon="11.763993592262715"><ele>488.79999999999995</ele><time>2026-04-12T09:24:29Z</time></trkpt><trkpt lat="42.616263124564945" lon="11.764071889868298"><ele>488.4</ele><time>2026-04-12T09:24:30Z</time></trkpt><trkpt lat="42.61633518476497" lon="11.764138964823726"><ele>488.0</ele><time>2026-04-12T09:24:31Z</time></trkpt><trkpt lat="42.61639650442219" lon="11.764201155412758"><ele>487.99999999999994</ele><time>2026-04-12T09:24:32Z</time></trkpt><trkpt lat="42.61645754029652" lon="11.764258182888867"><ele>488.0</ele><time>2026-04-12T09:24:33Z</time></trkpt><trkpt lat="42.61652110304558" lon="11.76432524921625"><ele>488.0</ele><time>2026-04-12T09:24:34Z</time></trkpt><trkpt lat="42.61658957866957" lon="11.76439259601199"><ele>488.0</ele><time>2026-04-12T09:24:35Z</time></trkpt><trkpt lat="42.61665158588066" lon="11.764461723366608"><ele>487.99999999999994</ele><time>2026-04-12T09:24:36Z</time></trkpt><trkpt lat="42.61670217374744" lon="11.764521104803752"><ele>488.0</ele><time>2026-04-12T09:24:37Z</time></trkpt><trkpt lat="42.61676802625369" lon="11.764591087401266"><ele>487.66666666666663</ele><time>2026-04-12T09:24:38Z</time></trkpt><trkpt lat="42.616831630033786" lon="11.764668711032783"><ele>487.3333333333333</ele><time>2026-04-12T09:24:39Z</time></trkpt><trkpt lat="42.616871505650096" lon="11.764745488212712"><ele>487.0</ele><time>2026-04-12T09:24:40Z</time></trkpt><trkpt lat="42.616923256132885" lon="11.764822219662738"><ele>486.66666666666663</ele><time>2026-04-12T09:24:41Z</time></trkpt><trkpt lat="42.61698036131876" lon="11.764915899053142"><ele>486.3333333333333</ele><time>2026-04-12T09:24:42Z</time></trkpt><trkpt lat="42.61703875020312" lon="11.765014561770341"><ele>486.0</ele><time>2026-04-12T09:24:43Z</time></trkpt><trkpt lat="42.617086218402186" lon="11.76512017275387"><ele>485.8</ele><time>2026-04-12T09:24:44Z</time></trkpt><trkpt lat="42.617136577432525" lon="11.765238750291877"><ele>485.6</ele><time>2026-04-12T09:24:45Z</time></trkpt><trkpt lat="42.61717856210195" lon="11.765351380542487"><ele>485.4</ele><time>2026-04-12T09:24:46Z</time></trkpt><trkpt lat="42.61722028327978" lon="11.76545738203313"><ele>485.2</ele><time>2026-04-12T09:24:47Z</time></trkpt><trkpt lat="42.61725313328619" lon="11.765578393543489"><ele>485.0</ele><time>2026-04-12T09:24:48Z</time></trkpt><trkpt lat="42.61729035281003" lon="11.765701655698788"><ele>485.0</ele><time>2026-04-12T09:24:49Z</time></trkpt><trkpt lat="42.61731768256645" lon="11.765812305167145"><ele>485.0</ele><time>2026-04-12T09:24:50Z</time></trkpt><trkpt lat="42.61735220590414" lon="11.765958810541218"><ele>485.0</ele><time>2026-04-12T09:24:51Z</time></trkpt><trkpt lat="42.61736567850273" lon="11.766105132341597"><ele>485.0</ele><time>2026-04-12T09:24:52Z</time></trkpt><trkpt lat="42.617370791071984" lon="11.766252193445833"><ele>485.0</ele><time>2026-04-12T09:24:53Z</time></trkpt><trkpt lat="42.617386453592005" lon="11.766365105982015"><ele>484.8</ele><time>2026-04-12T09:24:54Z</time></trkpt><trkpt lat="42.61740414013615" lon="11.766502339749053"><ele>484.6</ele><time>2026-04-12T09:24:55Z</time></trkpt><trkpt lat="42.617420271981636" lon="11.766643234199032"><ele>484.4</ele><time>2026-04-12T09:24:56Z</time></trkpt><trkpt lat="42.61743720729451" lon="11.76676841352389"><ele>484.2</ele><time>2026-04-12T09:24:57Z</time></trkpt><trkpt lat="42.61745356056326" lon="11.766902795461766"><ele>484.0</ele><time>2026-04-12T09:24:58Z</time></trkpt><trkpt lat="42.6174705380608" lon="11.76705044405464"><ele>483.0</ele><time>2026-04-12T09:24:59Z</time></trkpt><trkpt lat="42.617491151260424" lon="11.767204486174625"><ele>482.0</ele><time>2026-04-12T09:25:00Z</time></trkpt><trkpt lat="42.61751301170639" lon="11.767354653857318"><ele>481.0</ele><time>2026-04-12T09:25:01Z</time></trkpt><trkpt lat="42.61753210359874" lon="11.767524895967375"><ele>480.0</ele><time>2026-04-12T09:25:02Z</time></trkpt><trkpt lat="42.61757078498983" lon="11.76769149626456"><ele>480.0</ele><time>2026-04-12T09:25:03Z</time></trkpt><trkpt lat="42.61759061628535" lon="11.767839258772277"><ele>480.0</ele><time>2026-04-12T09:25:04Z</time></trkpt><trkpt lat="42.6175988898212" lon="11.767972177082656"><ele>480.0</ele><time>2026-04-12T09:25:05Z</time></trkpt><trkpt lat="42.61760548682858" lon="11.768079475798672"><ele>480.0</ele><time>2026-04-12T09:25:06Z</time></trkpt><trkpt lat="42.617619083562744" lon="11.768219535592408"><ele>480.0</ele><time>2026-04-12T09:25:07Z</time></trkpt><trkpt lat="42.617646467805756" lon="11.768376061215957"><ele>480.6</ele><time>2026-04-12T09:25:08Z</time></trkpt><trkpt lat="42.617671750212025" lon="11.768543354934414"><ele>481.2</ele><time>2026-04-12T09:25:09Z</time></trkpt><trkpt lat="42.617687639780456" lon="11.76867947485566"><ele>481.79999999999995</ele><time>2026-04-12T09:25:10Z</time></trkpt><trkpt lat="42.617713729427045" lon="11.768806986948176"><ele>482.4</ele><time>2026-04-12T09:25:11Z</time></trkpt><trkpt lat="42.61774336527762" lon="11.768908970580117"><ele>483.0</ele><time>2026-04-12T09:25:12Z</time></trkpt><trkpt lat="42.61778036171542" lon="11.768996100131268"><ele>483.1428571428571</ele><time>2026-04-12T09:25:13Z</time></trkpt><trkpt lat="42.61784002791296" lon="11.769066784077355"><ele>483.2857142857143</ele><time>2026-04-12T09:25:14Z</time></trkpt><trkpt lat="42.617905508713065" lon="11.769108889905274"><ele>483.42857142857144</ele><time>2026-04-12T09:25:15Z</time></trkpt><trkpt lat="42.61798037890282" lon="11.76912592136687"><ele>483.57142857142856</ele><time>2026-04-12T09:25:16Z</time></trkpt><trkpt lat="42.61805137166045" lon="11.769130305856077"><ele>483.71428571428567</ele><time>2026-04-12T09:25:17Z</time></trkpt><trkpt lat="42.61812255373169" lon="11.769120208762999"><ele>483.85714285714283</ele><time>2026-04-12T09:25:18Z</time></trkpt><trkpt lat="42.61819274811206" lon="11.769102097029302"><ele>484.0</ele><time>2026-04-12T09:25:19Z</time></trkpt><trkpt lat="42.61825813983223" lon="11.76908462879505"><ele>484.0</ele><time>2026-04-12T09:25:20Z</time></trkpt><trkpt lat="42.6183626905403" lon="11.769034879752818"><ele>484.0</ele><time>2026-04-12T09:25:22Z</time></trkpt><trkpt lat="42.61845253768669" lon="11.769029674496501"><ele>484.0</ele><time>2026-04-12T09:25:24Z</time></trkpt><trkpt lat="42.61853918544814" lon="11.769018239267332"><ele>484.0</ele><time>2026-04-12T09:25:26Z</time></trkpt><trkpt lat="42.61863606978685" lon="11.769004037666049"><ele>484.0</ele><time>2026-04-12T09:25:28Z</time></trkpt><trkpt lat="42.618736694756414" lon="11.768983202986247"><ele>484.1666666666667</ele><time>2026-04-12T09:25:30Z</time></trkpt><trkpt lat="42.61884059507489" lon="11.768961076601787"><ele>484.33333333333337</ele><time>2026-04-12T09:25:32Z</time></trkpt><trkpt lat="42.61896067593118" lon="11.76894778329892"><ele>484.5</ele><time>2026-04-12T09:25:34Z</time></trkpt><trkpt lat="42.6190294420111" lon="11.768937601807313"><ele>484.66666666666663</ele><time>2026-04-12T09:25:35Z</time></trkpt><trkpt lat="42.619095223208774" lon="11.76892466822331"><ele>484.8333333333333</ele><time>2026-04-12T09:25:36Z</time></trkpt><trkpt lat="42.61916420081788" lon="11.768913266168282"><ele>485.0</ele><time>2026-04-12T09:25:37Z</time></trkpt><trkpt lat="42.61924125395647" lon="11.768903545826857"><ele>485.0</ele><time>2026-04-12T09:25:38Z</time></trkpt><trkpt lat="42.61932225370553" lon="11.768890824216125"><ele>485.0</ele><time>2026-04-12T09:25:39Z</time></trkpt><trkpt lat="42.619432499424896" lon="11.76887481611946"><ele>485.0</ele><time>2026-04-12T09:25:40Z</time></trkpt><trkpt lat="42.61953255294749" lon="11.768860258801576"><ele>485.0</ele><time>2026-04-12T09:25:41Z</time></trkpt><trkpt lat="42.61961945320214" lon="11.768848104433067"><ele>485.0</ele><time>2026-04-12T09:25:42Z</time></trkpt><trkpt lat="42.6197092189585" lon="11.768835839568656"><ele>485.8</ele><time>2026-04-12T09:25:43Z</time></trkpt><trkpt lat="42.61980129161401" lon="11.768822268018369"><ele>486.6</ele><time>2026-04-12T09:25:44Z</time></trkpt><trkpt lat="42.61990757907595" lon="11.768805425223913"><ele>487.4</ele><time>2026-04-12T09:25:45Z</time></trkpt><trkpt lat="42.620022435813354" lon="11.768781893444485"><ele>488.2</ele><time>2026-04-12T09:25:46Z</time></trkpt><trkpt lat="42.62013855227968" lon="11.768761706421307"><ele>489.0</ele><time>2026-04-12T09:25:47Z</time></trkpt><trkpt lat="42.62024237084951" lon="11.768738800155726"><ele>489.5</ele><time>2026-04-12T09:25:48Z</time></trkpt><trkpt lat="42.62035696591463" lon="11.768718967368546"><ele>490.0</ele><time>2026-04-12T09:25:49Z</time></trkpt><trkpt lat="42.620468704623164" lon="11.768698467924665"><ele>490.5</ele><time>2026-04-12T09:25:50Z</time></trkpt><trkpt lat="42.62057886458805" lon="11.768668495859977"><ele>491.0</ele><time>2026-04-12T09:25:51Z</time></trkpt><trkpt lat="42.620689369496986" lon="11.768635692596469"><ele>491.0</ele><time>2026-04-12T09:25:52Z</time></trkpt><trkpt lat="42.62080513352829" lon="11.768589711356919"><ele>491.0</ele><time>2026-04-12T09:25:53Z</time></trkpt><trkpt lat="42.62091827689238" lon="11.768541492934707"><ele>491.0</ele><time>2026-04-12T09:25:54Z</time></trkpt><trkpt lat="42.62102897396976" lon="11.768489517344157"><ele>491.0</ele><time>2026-04-12T09:25:55Z</time></trkpt><trkpt lat="42.62113738538784" lon="11.768441459270742"><ele>491.20000000000005</ele><time>2026-04-12T09:25:56Z</time></trkpt><trkpt lat="42.62122800841281" lon="11.768413553798766"><ele>491.40000000000003</ele><time>2026-04-12T09:25:57Z</time></trkpt><trkpt lat="42.621329760536746" lon="11.768373388216919"><ele>491.6</ele><time>2026-04-12T09:25:58Z</time></trkpt><trkpt lat="42.6214360696649" lon="11.768332789364987"><ele>491.8</ele><time>2026-04-12T09:25:59Z</time></trkpt><trkpt lat="42.62153153517487" lon="11.768300804277505"><ele>492.0</ele><time>2026-04-12T09:26:00Z</time></trkpt><trkpt lat="42.62160713261777" lon="11.768274827224046"><ele>492.0</ele><time>2026-04-12T09:26:01Z</time></trkpt><trkpt lat="42.62167915514797" lon="11.768247553834346"><ele>492.0</ele><time>2026-04-12T09:26:02Z</time></trkpt><trkpt lat="42.62174811767098" lon="11.768228280583049"><ele>492.0</ele><time>2026-04-12T09:26:03Z</time></trkpt><trkpt lat="42.6218162386775" lon="11.768225988915887"><ele>492.0</ele><time>2026-04-12T09:26:04Z</time></trkpt><trkpt lat="42.621894327992145" lon="11.768229234518722"><ele>492.0</ele><time>2026-04-12T09:26:05Z</time></trkpt><trkpt lat="42.621965931536174" lon="11.76823172970634"><ele>492.0</ele><time>2026-04-12T09:26:06Z</time></trkpt><trkpt lat="42.62205536725853" lon="11.768248038120497"><ele>491.6</ele><time>2026-04-12T09:26:07Z</time></trkpt><trkpt lat="42.6221467205937" lon="11.768270683483046"><ele>491.20000000000005</ele><time>2026-04-12T09:26:08Z</time></trkpt><trkpt lat="42.62225312542056" lon="11.768297249423808"><ele>490.8</ele><time>2026-04-12T09:26:09Z</time></trkpt><trkpt lat="42.622365261974835" lon="11.768324205664221"><ele>490.4</ele><time>2026-04-12T09:26:10Z</time></trkpt><trkpt lat="42.62248236998261" lon="11.768357427527674"><ele>490.0</ele><time>2026-04-12T09:26:11Z</time></trkpt><trkpt lat="42.62260058322278" lon="11.768388084665023"><ele>490.0</ele><time>2026-04-12T09:26:12Z</time></trkpt><trkpt lat="42.62272578912267" lon="11.768421663809248"><ele>490.0</ele><time>2026-04-12T09:26:13Z</time></trkpt><trkpt lat="42.62285546141758" lon="11.768453686992538"><ele>490.0</ele><time>2026-04-12T09:26:14Z</time></trkpt><trkpt lat="42.62298283858105" lon="11.768487943943644"><ele>490.0</ele><time>2026-04-12T09:26:15Z</time></trkpt><trkpt lat="42.62311744075882" lon="11.768522160435948"><ele>491.0</ele><time>2026-04-12T09:26:16Z</time></trkpt><trkpt lat="42.62325539957606" lon="11.768561241145935"><ele>492.0</ele><time>2026-04-12T09:26:17Z</time></trkpt><trkpt lat="42.623390192880656" lon="11.768596296331278"><ele>493.0</ele><time>2026-04-12T09:26:18Z</time></trkpt><trkpt lat="42.62352731872078" lon="11.768630332065047"><ele>494.0</ele><time>2026-04-12T09:26:19Z</time></trkpt><trkpt lat="42.62365602090138" lon="11.76865914662203"><ele>494.0</ele><time>2026-04-12T09:26:20Z</time></trkpt><trkpt lat="42.6237774908288" lon="11.768688871325804"><ele>494.0</ele><time>2026-04-12T09:26:21Z</time></trkpt><trkpt lat="42.62389405463818" lon="11.768720057681582"><ele>494.0</ele><time>2026-04-12T09:26:22Z</time></trkpt><trkpt lat="42.62401063935201" lon="11.768753259868047"><ele>494.0</ele><time>2026-04-12T09:26:23Z</time></trkpt><trkpt lat="42.62412132579289" lon="11.768783274298272"><ele>494.0</ele><time>2026-04-12T09:26:24Z</time></trkpt><trkpt lat="42.6242341252057" lon="11.768812966505044"><ele>494.0</ele><time>2026-04-12T09:26:25Z</time></trkpt><trkpt lat="42.62433795445468" lon="11.768841945840398"><ele>494.0</ele><time>2026-04-12T09:26:26Z</time></trkpt><trkpt lat="42.62443207282216" lon="11.768869970720191"><ele>494.0</ele><time>2026-04-12T09:26:27Z</time></trkpt><trkpt lat="42.62451442941517" lon="11.768892632404008"><ele>494.0</ele><time>2026-04-12T09:26:28Z</time></trkpt><trkpt lat="42.62459018377203" lon="11.76891789806506"><ele>493.6</ele><time>2026-04-12T09:26:29Z</time></trkpt><trkpt lat="42.62468001379479" lon="11.768944271526776"><ele>493.2</ele><time>2026-04-12T09:26:30Z</time></trkpt><trkpt lat="42.62478915927172" lon="11.768974543043404"><ele>492.80000000000007</ele><time>2026-04-12T09:26:31Z</time></trkpt><trkpt lat="42.62489949365798" lon="11.769009794002159"><ele>492.40000000000003</ele><time>2026-04-12T09:26:32Z</time></trkpt><trkpt lat="42.62501382694167" lon="11.769045136153338"><ele>492.0</ele><time>2026-04-12T09:26:33Z</time></trkpt><trkpt lat="42.62511430754815" lon="11.769078472912748"><ele>492.0</ele><time>2026-04-12T09:26:34Z</time></trkpt><trkpt lat="42.62520406790243" lon="11.769107168779424"><ele>492.00000000000006</ele><time>2026-04-12T09:26:35Z</time></trkpt><trkpt lat="42.62529943672643" lon="11.769138071176345"><ele>492.00000000000006</ele><time>2026-04-12T09:26:36Z</time></trkpt><trkpt lat="42.62540513476573" lon="11.769161723602892"><ele>492.0</ele><time>2026-04-12T09:26:37Z</time></trkpt><trkpt lat="42.62550939803809" lon="11.769192941115636"><ele>492.0</ele><time>2026-04-12T09:26:38Z</time></trkpt><trkpt lat="42.62561281815481" lon="11.76923022449566"><ele>491.5</ele><time>2026-04-12T09:26:39Z</time></trkpt><trkpt lat="42.62572281129974" lon="11.76927024272488"><ele>491.0</ele><time>2026-04-12T09:26:40Z</time></trkpt><trkpt lat="42.62582976646767" lon="11.76930466112565"><ele>490.5</ele><time>2026-04-12T09:26:41Z</time></trkpt><trkpt lat="42.62594689294627" lon="11.769337432406731"><ele>490.0</ele><time>2026-04-12T09:26:42Z</time></trkpt><trkpt lat="42.62606188465153" lon="11.769378055407532"><ele>489.0</ele><time>2026-04-12T09:26:43Z</time></trkpt><trkpt lat="42.6261785162733" lon="11.769418738043148"><ele>488.0</ele><time>2026-04-12T09:26:44Z</time></trkpt><trkpt lat="42.62628959903227" lon="11.76945525484325"><ele>487.0</ele><time>2026-04-12T09:26:45Z</time></trkpt><trkpt lat="42.6264072610896" lon="11.769491913109217"><ele>486.0</ele><time>2026-04-12T09:26:46Z</time></trkpt><trkpt lat="42.62652106191381" lon="11.769514774364277"><ele>486.0</ele><time>2026-04-12T09:26:47Z</time></trkpt><trkpt lat="42.62663217906927" lon="11.769526040869213"><ele>486.0</ele><time>2026-04-12T09:26:48Z</time></trkpt><trkpt lat="42.62675668767152" lon="11.769524670214839"><ele>486.0</ele><time>2026-04-12T09:26:49Z</time></trkpt><trkpt lat="42.626879487187466" lon="11.769515711635856"><ele>486.0</ele><time>2026-04-12T09:26:50Z</time></trkpt><trkpt lat="42.62700423949055" lon="11.769491850330693"><ele>486.25</ele><time>2026-04-12T09:26:51Z</time></trkpt><trkpt lat="42.62712648425344" lon="11.769466463686861"><ele>486.5</ele><time>2026-04-12T09:26:52Z</time></trkpt><trkpt lat="42.62724565954492" lon="11.769436846439763"><ele>486.75</ele><time>2026-04-12T09:26:53Z</time></trkpt><trkpt lat="42.62736600438525" lon="11.769407428226184"><ele>487.0</ele><time>2026-04-12T09:26:54Z</time></trkpt><trkpt lat="42.62747912889314" lon="11.769380665310218"><ele>487.40000000000003</ele><time>2026-04-12T09:26:55Z</time></trkpt><trkpt lat="42.62757836895591" lon="11.769350383632334"><ele>487.80000000000007</ele><time>2026-04-12T09:26:56Z</time></trkpt><trkpt lat="42.62767560333924" lon="11.76932023999572"><ele>488.2</ele><time>2026-04-12T09:26:57Z</time></trkpt><trkpt lat="42.6277705601404" lon="11.769281438005407"><ele>488.6</ele><time>2026-04-12T09:26:58Z</time></trkpt><trkpt lat="42.62785893362478" lon="11.769219122363474"><ele>489.0</ele><time>2026-04-12T09:26:59Z</time></trkpt><trkpt lat="42.62792099793442" lon="11.76913460512285"><ele>491.2</ele><time>2026-04-12T09:27:00Z</time></trkpt><trkpt lat="42.62797042460534" lon="11.769060231710341"><ele>493.4</ele><time>2026-04-12T09:27:01Z</time></trkpt><trkpt lat="42.62799689125638" lon="11.768939016842566"><ele>495.6</ele><time>2026-04-12T09:27:02Z</time></trkpt><trkpt lat="42.628015473045565" lon="11.76881900619824"><ele>497.8</ele><time>2026-04-12T09:27:03Z</time></trkpt><trkpt lat="42.62802995092819" lon="11.76869121361536"><ele>500.0</ele><time>2026-04-12T09:27:04Z</time></trkpt><trkpt lat="42.628042206647336" lon="11.76854778765469"><ele>500.6</ele><time>2026-04-12T09:27:05Z</time></trkpt><trkpt lat="42.628052118741934" lon="11.768404497496114"><ele>501.2</ele><time>2026-04-12T09:27:06Z</time></trkpt><trkpt lat="42.62806136355152" lon="11.768270853987993"><ele>501.79999999999995</ele><time>2026-04-12T09:27:07Z</time></trkpt><trkpt lat="42.62807092235114" lon="11.768133019649895"><ele>502.4</ele><time>2026-04-12T09:27:08Z</time></trkpt><trkpt lat="42.62808002982279" lon="11.76800562695231"><ele>503.0</ele><time>2026-04-12T09:27:09Z</time></trkpt><trkpt lat="42.62808993376967" lon="11.767867092368082"><ele>503.0</ele><time>2026-04-12T09:27:10Z</time></trkpt><trkpt lat="42.62810022698812" lon="11.767723114456116"><ele>503.0</ele><time>2026-04-12T09:27:11Z</time></trkpt><trkpt lat="42.62811107455156" lon="11.76756437286254"><ele>503.0</ele><time>2026-04-12T09:27:12Z</time></trkpt><trkpt lat="42.628106141943455" lon="11.767397830301535"><ele>503.0</ele><time>2026-04-12T09:27:13Z</time></trkpt><trkpt lat="42.628116892734916" lon="11.767243453266879"><ele>504.25</ele><time>2026-04-12T09:27:14Z</time></trkpt><trkpt lat="42.62812508937055" lon="11.767082510001819"><ele>505.5</ele><time>2026-04-12T09:27:15Z</time></trkpt><trkpt lat="42.62813322559345" lon="11.766922467912481"><ele>506.75</ele><time>2026-04-12T09:27:16Z</time></trkpt><trkpt lat="42.628145086862894" lon="11.766769700516074"><ele>508.0</ele><time>2026-04-12T09:27:17Z</time></trkpt><trkpt lat="42.62815821358022" lon="11.766623231397553"><ele>508.33333333333337</ele><time>2026-04-12T09:27:18Z</time></trkpt><trkpt lat="42.62817072708556" lon="11.76650961475795"><ele>508.6666666666667</ele><time>2026-04-12T09:27:19Z</time></trkpt><trkpt lat="42.62819292317191" lon="11.76641924712507"><ele>509.0</ele><time>2026-04-12T09:27:20Z</time></trkpt><trkpt lat="42.6282365469385" lon="11.766335748145485"><ele>509.33333333333337</ele><time>2026-04-12T09:27:21Z</time></trkpt><trkpt lat="42.62836107198875" lon="11.76631622502051"><ele>509.6666666666667</ele><time>2026-04-12T09:27:23Z</time></trkpt><trkpt lat="42.6284223317591" lon="11.766356181502674"><ele>510.0</ele><time>2026-04-12T09:27:24Z</time></trkpt><trkpt lat="42.6285146811027" lon="11.766490335075401"><ele>510.0</ele><time>2026-04-12T09:27:26Z</time></trkpt><trkpt lat="42.62856274215852" lon="11.76657571995819"><ele>510.0</ele><time>2026-04-12T09:27:27Z</time></trkpt><trkpt lat="42.62861488170549" lon="11.766657320720446"><ele>510.0</ele><time>2026-04-12T09:27:28Z</time></trkpt><trkpt lat="42.62868147969788" lon="11.76676756830351"><ele>510.0</ele><time>2026-04-12T09:27:29Z</time></trkpt><trkpt lat="42.628742884579296" lon="11.766879477793463"><ele>510.0</ele><time>2026-04-12T09:27:30Z</time></trkpt><trkpt lat="42.62880670353417" lon="11.76698592133091"><ele>511.8</ele><time>2026-04-12T09:27:31Z</time></trkpt><trkpt lat="42.62887556254663" lon="11.767090737073241"><ele>513.6</ele><time>2026-04-12T09:27:32Z</time></trkpt><trkpt lat="42.62894347843832" lon="11.767192168079266"><ele>515.4</ele><time>2026-04-12T09:27:33Z</time></trkpt><trkpt lat="42.629010512066536" lon="11.767302718604906"><ele>517.2</ele><time>2026-04-12T09:27:34Z</time></trkpt><trkpt lat="42.62907873199736" lon="11.767410221696446"><ele>519.0</ele><time>2026-04-12T09:27:35Z</time></trkpt><trkpt lat="42.62914382924482" lon="11.767513098599448"><ele>519.0</ele><time>2026-04-12T09:27:36Z</time></trkpt><trkpt lat="42.629214810425765" lon="11.767622904343488"><ele>519.0</ele><time>2026-04-12T09:27:37Z</time></trkpt><trkpt lat="42.62928719752193" lon="11.767734907045519"><ele>519.0</ele><time>2026-04-12T09:27:38Z</time></trkpt><trkpt lat="42.62935688270898" lon="11.767849228000312"><ele>519.0</ele><time>2026-04-12T09:27:39Z</time></trkpt><trkpt lat="42.62942767467753" lon="11.767960559979205"><ele>519.0</ele><time>2026-04-12T09:27:40Z</time></trkpt><trkpt lat="42.629498840578464" lon="11.768069546538248"><ele>520.6</ele><time>2026-04-12T09:27:41Z</time></trkpt><trkpt lat="42.62956172717878" lon="11.768169416758708"><ele>522.2</ele><time>2026-04-12T09:27:42Z</time></trkpt><trkpt lat="42.62962747095659" lon="11.768267405701843"><ele>523.8000000000001</ele><time>2026-04-12T09:27:43Z</time></trkpt><trkpt lat="42.62968784294324" lon="11.768370206435062"><ele>525.4</ele><time>2026-04-12T09:27:44Z</time></trkpt><trkpt lat="42.6297483511629" lon="11.768471629991186"><ele>527.0</ele><time>2026-04-12T09:27:45Z</time></trkpt><trkpt lat="42.62980214126426" lon="11.768564303613196"><ele>528.0</ele><time>2026-04-12T09:27:46Z</time></trkpt><trkpt lat="42.629854434014156" lon="11.768660881731073"><ele>529.0</ele><time>2026-04-12T09:27:47Z</time></trkpt><trkpt lat="42.62989683551907" lon="11.768752569763684"><ele>530.0</ele><time>2026-04-12T09:27:48Z</time></trkpt><trkpt lat="42.62992643728406" lon="11.768853381962488"><ele>531.0</ele><time>2026-04-12T09:27:49Z</time></trkpt><trkpt lat="42.62992251543901" lon="11.768955389599828"><ele>532.0</ele><time>2026-04-12T09:27:50Z</time></trkpt><trkpt lat="42.62989547620258" lon="11.769052163890253"><ele>533.0</ele><time>2026-04-12T09:27:51Z</time></trkpt><trkpt lat="42.62984559663547" lon="11.769141692411564"><ele>533.0</ele><time>2026-04-12T09:27:52Z</time></trkpt><trkpt lat="42.62978141860087" lon="11.769231488522598"><ele>533.0</ele><time>2026-04-12T09:27:53Z</time></trkpt><trkpt lat="42.629712882244704" lon="11.769335359464984"><ele>533.0</ele><time>2026-04-12T09:27:54Z</time></trkpt><trkpt lat="42.62966175852696" lon="11.769443270116648"><ele>533.0</ele><time>2026-04-12T09:27:55Z</time></trkpt><trkpt lat="42.62963243764503" lon="11.76956323555195"><ele>533.0</ele><time>2026-04-12T09:27:56Z</time></trkpt><trkpt lat="42.629619423356196" lon="11.769661698263654"><ele>533.6</ele><time>2026-04-12T09:27:57Z</time></trkpt><trkpt lat="42.629660956520546" lon="11.7697618175545"><ele>534.1999999999999</ele><time>2026-04-12T09:27:58Z</time></trkpt><trkpt lat="42.629700726408124" lon="11.769870210827653"><ele>534.8</ele><time>2026-04-12T09:27:59Z</time></trkpt><trkpt lat="42.629750428847146" lon="11.769987780422957"><ele>535.4</ele><time>2026-04-12T09:28:00Z</time></trkpt><trkpt lat="42.629803298901955" lon="11.770102863913232"><ele>536.0</ele><time>2026-04-12T09:28:01Z</time></trkpt><trkpt lat="42.62985946915574" lon="11.77022621715294"><ele>536.8</ele><time>2026-04-12T09:28:02Z</time></trkpt><trkpt lat="42.62991467112794" lon="11.77034203053193"><ele>537.6</ele><time>2026-04-12T09:28:03Z</time></trkpt><trkpt lat="42.629969268658435" lon="11.770460468315092"><ele>538.4</ele><time>2026-04-12T09:28:04Z</time></trkpt><trkpt lat="42.63002700722777" lon="11.770595326150533"><ele>539.2</ele><time>2026-04-12T09:28:05Z</time></trkpt><trkpt lat="42.630078390749695" lon="11.770713852866567"><ele>540.0</ele><time>2026-04-12T09:28:06Z</time></trkpt><trkpt lat="42.63013886669861" lon="11.770844829355521"><ele>540.0</ele><time>2026-04-12T09:28:07Z</time></trkpt><trkpt lat="42.63019288969526" lon="11.770970466037996"><ele>540.0</ele><time>2026-04-12T09:28:08Z</time></trkpt><trkpt lat="42.63025534095307" lon="11.771113285719577"><ele>540.0</ele><time>2026-04-12T09:28:09Z</time></trkpt><trkpt lat="42.630318297761484" lon="11.771256214987384"><ele>540.0</ele><time>2026-04-12T09:28:10Z</time></trkpt><trkpt lat="42.630382805661526" lon="11.771402189878913"><ele>543.5</ele><time>2026-04-12T09:28:11Z</time></trkpt><trkpt lat="42.63044571656244" lon="11.771550819250205"><ele>547.0</ele><time>2026-04-12T09:28:12Z</time></trkpt><trkpt lat="42.630506909276754" lon="11.771688364233105"><ele>550.5</ele><time>2026-04-12T09:28:13Z</time></trkpt><trkpt lat="42.63056822170115" lon="11.771828013235053"><ele>554.0</ele><time>2026-04-12T09:28:14Z</time></trkpt><trkpt lat="42.630635289719606" lon="11.771982570177139"><ele>555.0</ele><time>2026-04-12T09:28:15Z</time></trkpt><trkpt lat="42.63070493108634" lon="11.772141037373062"><ele>556.0</ele><time>2026-04-12T09:28:16Z</time></trkpt><trkpt lat="42.630769726004885" lon="11.772287558943859"><ele>557.0</ele><time>2026-04-12T09:28:17Z</time></trkpt><trkpt lat="42.63083398653054" lon="11.772427734754944"><ele>558.0</ele><time>2026-04-12T09:28:18Z</time></trkpt><trkpt lat="42.630892131970626" lon="11.772563665164803"><ele>558.0</ele><time>2026-04-12T09:28:19Z</time></trkpt><trkpt lat="42.63095566661386" lon="11.772708370080874"><ele>558.0</ele><time>2026-04-12T09:28:20Z</time></trkpt><trkpt lat="42.63102314713035" lon="11.772854171211426"><ele>558.0</ele><time>2026-04-12T09:28:21Z</time></trkpt><trkpt lat="42.631085723993905" lon="11.772976881001615"><ele>558.0</ele><time>2026-04-12T09:28:22Z</time></trkpt><trkpt lat="42.631150091842144" lon="11.77307885143562"><ele>559.6</ele><time>2026-04-12T09:28:23Z</time></trkpt><trkpt lat="42.63121355647094" lon="11.77318536344807"><ele>561.1999999999999</ele><time>2026-04-12T09:28:24Z</time></trkpt><trkpt lat="42.63127574201588" lon="11.773293048660927"><ele>562.8</ele><time>2026-04-12T09:28:25Z</time></trkpt><trkpt lat="42.6313429320562" lon="11.773408276233571"><ele>564.4</ele><time>2026-04-12T09:28:26Z</time></trkpt><trkpt lat="42.631406093857606" lon="11.773520578945487"><ele>566.0</ele><time>2026-04-12T09:28:27Z</time></trkpt><trkpt lat="42.63147861562166" lon="11.77365071934708"><ele>567.75</ele><time>2026-04-12T09:28:28Z</time></trkpt><trkpt lat="42.63155734087" lon="11.773784530045845"><ele>569.5</ele><time>2026-04-12T09:28:29Z</time></trkpt><trkpt lat="42.63164004068802" lon="11.773914934627019"><ele>571.25</ele><time>2026-04-12T09:28:30Z</time></trkpt><trkpt lat="42.63171060391862" lon="11.77403405670936"><ele>573.0</ele><time>2026-04-12T09:28:31Z</time></trkpt><trkpt lat="42.6317729874902" lon="11.774149262516906"><ele>573.0</ele><time>2026-04-12T09:28:32Z</time></trkpt><trkpt lat="42.631836743887845" lon="11.774262119154676"><ele>573.0</ele><time>2026-04-12T09:28:33Z</time></trkpt><trkpt lat="42.63189880990245" lon="11.774374663163876"><ele>573.0</ele><time>2026-04-12T09:28:34Z</time></trkpt><trkpt lat="42.63195748016645" lon="11.774480333857296"><ele>573.0</ele><time>2026-04-12T09:28:35Z</time></trkpt><trkpt lat="42.63201225254231" lon="11.774589842679143"><ele>573.0</ele><time>2026-04-12T09:28:36Z</time></trkpt><trkpt lat="42.63206911567235" lon="11.774711729878351"><ele>574.4</ele><time>2026-04-12T09:28:37Z</time></trkpt><trkpt lat="42.63212781699159" lon="11.774842056894483"><ele>575.8</ele><time>2026-04-12T09:28:38Z</time></trkpt><trkpt lat="42.632183743762305" lon="11.774981958131887"><ele>577.2</ele><time>2026-04-12T09:28:39Z</time></trkpt><trkpt lat="42.632229984525075" lon="11.775110978304234"><ele>578.6</ele><time>2026-04-12T09:28:40Z</time></trkpt><trkpt lat="42.63227766854947" lon="11.775240622564125"><ele>580.0</ele><time>2026-04-12T09:28:41Z</time></trkpt><trkpt lat="42.63232150616502" lon="11.775375454233489"><ele>581.25</ele><time>2026-04-12T09:28:42Z</time></trkpt><trkpt lat="42.63236385366853" lon="11.77551840558983"><ele>582.5</ele><time>2026-04-12T09:28:43Z</time></trkpt><trkpt lat="42.632410323895485" lon="11.775665860376696"><ele>583.75</ele><time>2026-04-12T09:28:44Z</time></trkpt><trkpt lat="42.63246029571258" lon="11.775811196921339"><ele>585.0</ele><time>2026-04-12T09:28:45Z</time></trkpt><trkpt lat="42.63250738514722" lon="11.775956196438162"><ele>585.0</ele><time>2026-04-12T09:28:46Z</time></trkpt><trkpt lat="42.63255019430744" lon="11.776089604177717"><ele>585.0</ele><time>2026-04-12T09:28:47Z</time></trkpt><trkpt lat="42.63260674269295" lon="11.776214775092708"><ele>585.0</ele><time>2026-04-12T09:28:48Z</time></trkpt><trkpt lat="42.63265862409011" lon="11.77636119055388"><ele>585.0</ele><time>2026-04-12T09:28:49Z</time></trkpt><trkpt lat="42.632711174244946" lon="11.77652909390832"><ele>585.0</ele><time>2026-04-12T09:28:50Z</time></trkpt><trkpt lat="42.63273855915434" lon="11.776694130244817"><ele>585.0</ele><time>2026-04-12T09:28:51Z</time></trkpt><trkpt lat="42.63277515656872" lon="11.776860670977506"><ele>585.0</ele><time>2026-04-12T09:28:52Z</time></trkpt><trkpt lat="42.63278722804252" lon="11.777033968902199"><ele>585.0</ele><time>2026-04-12T09:28:53Z</time></trkpt><trkpt lat="42.63280321306013" lon="11.777209146532188"><ele>587.75</ele><time>2026-04-12T09:28:54Z</time></trkpt><trkpt lat="42.63281697570093" lon="11.777399177484593"><ele>590.5</ele><time>2026-04-12T09:28:55Z</time></trkpt><trkpt lat="42.63283136869743" lon="11.777579796678163"><ele>593.25</ele><time>2026-04-12T09:28:56Z</time></trkpt><trkpt lat="42.63284484826789" lon="11.777747995715016"><ele>596.0</ele><time>2026-04-12T09:28:57Z</time></trkpt><trkpt lat="42.63285436638556" lon="11.77789916829262"><ele>597.25</ele><time>2026-04-12T09:28:58Z</time></trkpt><trkpt lat="42.632862332268175" lon="11.778046964245608"><ele>598.5</ele><time>2026-04-12T09:28:59Z</time></trkpt><trkpt lat="42.63287608386085" lon="11.778213101665944"><ele>599.75</ele><time>2026-04-12T09:29:00Z</time></trkpt><trkpt lat="42.63289226315272" lon="11.778370489963619"><ele>601.0</ele><time>2026-04-12T09:29:01Z</time></trkpt><trkpt lat="42.6329088373026" lon="11.77853640522753"><ele>602.25</ele><time>2026-04-12T09:29:02Z</time></trkpt><trkpt lat="42.632931602150464" lon="11.778701376725737"><ele>603.5</ele><time>2026-04-12T09:29:03Z</time></trkpt><trkpt lat="42.63295181056774" lon="11.77886300226041"><ele>604.75</ele><time>2026-04-12T09:29:04Z</time></trkpt><trkpt lat="42.632973542292596" lon="11.77901011728122"><ele>606.0</ele><time>2026-04-12T09:29:05Z</time></trkpt><trkpt lat="42.63299336010256" lon="11.779155176443671"><ele>606.0</ele><time>2026-04-12T09:29:06Z</time></trkpt><trkpt lat="42.63301016046438" lon="11.77929088229652"><ele>606.0</ele><time>2026-04-12T09:29:07Z</time></trkpt><trkpt lat="42.63302962910554" lon="11.779437937186108"><ele>606.0</ele><time>2026-04-12T09:29:08Z</time></trkpt><trkpt lat="42.6330568573063" lon="11.779575583534344"><ele>606.0</ele><time>2026-04-12T09:29:09Z</time></trkpt><trkpt lat="42.63311913342745" lon="11.779702330150998"><ele>606.0</ele><time>2026-04-12T09:29:10Z</time></trkpt><trkpt lat="42.633176721068715" lon="11.779807116580862"><ele>606.8</ele><time>2026-04-12T09:29:11Z</time></trkpt><trkpt lat="42.633243043842825" lon="11.779909431600426"><ele>607.6</ele><time>2026-04-12T09:29:12Z</time></trkpt><trkpt lat="42.63331881497227" lon="11.780026020884737"><ele>608.4</ele><time>2026-04-12T09:29:13Z</time></trkpt><trkpt lat="42.633397825586144" lon="11.780125322631834"><ele>609.2</ele><time>2026-04-12T09:29:14Z</time></trkpt><trkpt lat="42.63347314540128" lon="11.780232288469502"><ele>610.0</ele><time>2026-04-12T09:29:15Z</time></trkpt><trkpt lat="42.63354742170088" lon="11.780337742842486"><ele>610.0</ele><time>2026-04-12T09:29:16Z</time></trkpt><trkpt lat="42.63362527608039" lon="11.780443055220648"><ele>610.0</ele><time>2026-04-12T09:29:17Z</time></trkpt><trkpt lat="42.63370224655889" lon="11.780546838216182"><ele>610.0</ele><time>2026-04-12T09:29:18Z</time></trkpt><trkpt lat="42.63377220230776" lon="11.780641539157058"><ele>610.0</ele><time>2026-04-12T09:29:19Z</time></trkpt><trkpt lat="42.633859617146534" lon="11.780745363948512"><ele>610.0</ele><time>2026-04-12T09:29:20Z</time></trkpt><trkpt lat="42.633961662402825" lon="11.780854973535579"><ele>609.6666666666667</ele><time>2026-04-12T09:29:21Z</time></trkpt><trkpt lat="42.63407828322568" lon="11.780973096738943"><ele>609.3333333333334</ele><time>2026-04-12T09:29:22Z</time></trkpt><trkpt lat="42.6342039612456" lon="11.781088421791774"><ele>609.0</ele><time>2026-04-12T09:29:23Z</time></trkpt><trkpt lat="42.63435113218148" lon="11.781188269792281"><ele>610.25</ele><time>2026-04-12T09:29:24Z</time></trkpt><trkpt lat="42.63448490225609" lon="11.781295283910733"><ele>611.5</ele><time>2026-04-12T09:29:25Z</time></trkpt><trkpt lat="42.63460551766257" lon="11.78136655458425"><ele>612.75</ele><time>2026-04-12T09:29:26Z</time></trkpt><trkpt lat="42.634702636858925" lon="11.78143274948137"><ele>614.0</ele><time>2026-04-12T09:29:27Z</time></trkpt><trkpt lat="42.63479858337115" lon="11.781509910589172"><ele>614.0</ele><time>2026-04-12T09:29:28Z</time></trkpt><trkpt lat="42.634911380979595" lon="11.781577254895563"><ele>614.0</ele><time>2026-04-12T09:29:29Z</time></trkpt><trkpt lat="42.6350279945947" lon="11.781665590311558"><ele>614.0</ele><time>2026-04-12T09:29:30Z</time></trkpt><trkpt lat="42.63514398818799" lon="11.781751637016223"><ele>614.0</ele><time>2026-04-12T09:29:31Z</time></trkpt><trkpt lat="42.635252199524956" lon="11.78183947061728"><ele>613.25</ele><time>2026-04-12T09:29:32Z</time></trkpt><trkpt lat="42.635367833433584" lon="11.781935317062757"><ele>612.5</ele><time>2026-04-12T09:29:33Z</time></trkpt><trkpt lat="42.63546657403879" lon="11.782025355601125"><ele>611.75</ele><time>2026-04-12T09:29:34Z</time></trkpt><trkpt lat="42.63556282443705" lon="11.782111588050642"><ele>611.0</ele><time>2026-04-12T09:29:35Z</time></trkpt><trkpt lat="42.63564375055269" lon="11.782203707618864"><ele>611.0</ele><time>2026-04-12T09:29:36Z</time></trkpt><trkpt lat="42.635736018850515" lon="11.782285117245296"><ele>611.0</ele><time>2026-04-12T09:29:37Z</time></trkpt><trkpt lat="42.63586179062089" lon="11.782405827241524"><ele>611.0</ele><time>2026-04-12T09:29:38Z</time></trkpt><trkpt lat="42.635982788436536" lon="11.782531839422207"><ele>611.0</ele><time>2026-04-12T09:29:39Z</time></trkpt><trkpt lat="42.636091963509536" lon="11.782662470478353"><ele>610.25</ele><time>2026-04-12T09:29:40Z</time></trkpt><trkpt lat="42.63620403705912" lon="11.782775115337397"><ele>609.5</ele><time>2026-04-12T09:29:41Z</time></trkpt><trkpt lat="42.63630537933461" lon="11.78288234821896"><ele>608.75</ele><time>2026-04-12T09:29:42Z</time></trkpt><trkpt lat="42.63641024802895" lon="11.7830090724132"><ele>608.0</ele><time>2026-04-12T09:29:43Z</time></trkpt><trkpt lat="42.636512996579874" lon="11.783135038249862"><ele>608.0</ele><time>2026-04-12T09:29:44Z</time></trkpt><trkpt lat="42.6366143810372" lon="11.783240194168359"><ele>608.0</ele><time>2026-04-12T09:29:45Z</time></trkpt><trkpt lat="42.63670749277898" lon="11.783337480657853"><ele>608.0</ele><time>2026-04-12T09:29:46Z</time></trkpt><trkpt lat="42.63680037644318" lon="11.78341337278846"><ele>608.0</ele><time>2026-04-12T09:29:47Z</time></trkpt><trkpt lat="42.636883214760395" lon="11.78352036598259"><ele>607.8</ele><time>2026-04-12T09:29:48Z</time></trkpt><trkpt lat="42.63698020211958" lon="11.783615812571215"><ele>607.5999999999999</ele><time>2026-04-12T09:29:49Z</time></trkpt><trkpt lat="42.63707996501075" lon="11.78370084984452"><ele>607.4000000000001</ele><time>2026-04-12T09:29:50Z</time></trkpt><trkpt lat="42.63716427377411" lon="11.78376981020678"><ele>607.2</ele><time>2026-04-12T09:29:51Z</time></trkpt><trkpt lat="42.63724235851618" lon="11.783835175650708"><ele>607.0</ele><time>2026-04-12T09:29:52Z</time></trkpt><trkpt lat="42.63733161497092" lon="11.783917514758814"><ele>607.0</ele><time>2026-04-12T09:29:53Z</time></trkpt><trkpt lat="42.63740830449604" lon="11.783999467838772"><ele>607.0</ele><time>2026-04-12T09:29:54Z</time></trkpt><trkpt lat="42.637493925457775" lon="11.784087454456138"><ele>607.0</ele><time>2026-04-12T09:29:55Z</time></trkpt><trkpt lat="42.63758292167147" lon="11.784200151543084"><ele>607.0</ele><time>2026-04-12T09:29:56Z</time></trkpt><trkpt lat="42.637667383288665" lon="11.784321329033114"><ele>607.0</ele><time>2026-04-12T09:29:57Z</time></trkpt><trkpt lat="42.63774091098803" lon="11.784441780644801"><ele>606.0</ele><time>2026-04-12T09:29:58Z</time></trkpt><trkpt lat="42.63780987571883" lon="11.784578809235507"><ele>605.0</ele><time>2026-04-12T09:29:59Z</time></trkpt><trkpt lat="42.63788349193568" lon="11.784723256173706"><ele>604.0</ele><time>2026-04-12T09:30:00Z</time></trkpt><trkpt lat="42.63796399706107" lon="11.784863313872401"><ele>603.0</ele><time>2026-04-12T09:30:01Z</time></trkpt><trkpt lat="42.63803541914416" lon="11.785001477317296"><ele>603.0</ele><time>2026-04-12T09:30:02Z</time></trkpt><trkpt lat="42.6381134838876" lon="11.785120390810581"><ele>603.0</ele><time>2026-04-12T09:30:03Z</time></trkpt><trkpt lat="42.63819271890048" lon="11.785247973003063"><ele>603.0</ele><time>2026-04-12T09:30:04Z</time></trkpt><trkpt lat="42.63826083191001" lon="11.785359938879445"><ele>603.0</ele><time>2026-04-12T09:30:05Z</time></trkpt><trkpt lat="42.638337722833064" lon="11.785486097954093"><ele>603.5</ele><time>2026-04-12T09:30:06Z</time></trkpt><trkpt lat="42.63843048268152" lon="11.78561544547117"><ele>604.0</ele><time>2026-04-12T09:30:07Z</time></trkpt><trkpt lat="42.638520700801884" lon="11.785750074934123"><ele>604.5</ele><time>2026-04-12T09:30:08Z</time></trkpt><trkpt lat="42.638617620815054" lon="11.785902002587582"><ele>605.0</ele><time>2026-04-12T09:30:09Z</time></trkpt><trkpt lat="42.638708507776315" lon="11.786054469956417"><ele>605.0</ele><time>2026-04-12T09:30:10Z</time></trkpt><trkpt lat="42.63880181801313" lon="11.78622507986199"><ele>605.0</ele><time>2026-04-12T09:30:11Z</time></trkpt><trkpt lat="42.63888843395106" lon="11.786393783011361"><ele>605.0</ele><time>2026-04-12T09:30:12Z</time></trkpt><trkpt lat="42.63896404379134" lon="11.786547254693984"><ele>605.0</ele><time>2026-04-12T09:30:13Z</time></trkpt><trkpt lat="42.63903832012451" lon="11.78669507354821"><ele>605.75</ele><time>2026-04-12T09:30:14Z</time></trkpt><trkpt lat="42.639112203864386" lon="11.786850117760286"><ele>606.5</ele><time>2026-04-12T09:30:15Z</time></trkpt><trkpt lat="42.639180769209794" lon="11.787012885198003"><ele>607.25</ele><time>2026-04-12T09:30:16Z</time></trkpt><trkpt lat="42.63924664906944" lon="11.787184823758611"><ele>608.0</ele><time>2026-04-12T09:30:17Z</time></trkpt><trkpt lat="42.63930385035548" lon="11.78736095927619"><ele>608.0</ele><time>2026-04-12T09:30:18Z</time></trkpt><trkpt lat="42.639345282887376" lon="11.78751880054362"><ele>608.0</ele><time>2026-04-12T09:30:19Z</time></trkpt><trkpt lat="42.63937447488619" lon="11.787677187838426"><ele>608.0</ele><time>2026-04-12T09:30:20Z</time></trkpt><trkpt lat="42.63939086250069" lon="11.7878536024835"><ele>608.0</ele><time>2026-04-12T09:30:21Z</time></trkpt><trkpt lat="42.63939695135872" lon="11.788043811909464"><ele>607.0</ele><time>2026-04-12T09:30:22Z</time></trkpt><trkpt lat="42.63940624289254" lon="11.78824469546606"><ele>606.0</ele><time>2026-04-12T09:30:23Z</time></trkpt><trkpt lat="42.639418982726674" lon="11.788447420738228"><ele>605.0</ele><time>2026-04-12T09:30:24Z</time></trkpt><trkpt lat="42.6394290350194" lon="11.788625569707335"><ele>604.0</ele><time>2026-04-12T09:30:25Z</time></trkpt><trkpt lat="42.639436539093715" lon="11.788783754552021"><ele>604.0</ele><time>2026-04-12T09:30:26Z</time></trkpt><trkpt lat="42.63944760398165" lon="11.78893496840041"><ele>604.0</ele><time>2026-04-12T09:30:27Z</time></trkpt><trkpt lat="42.639453258517264" lon="11.789082979768352"><ele>604.0</ele><time>2026-04-12T09:30:28Z</time></trkpt><trkpt lat="42.63946157564397" lon="11.78923130519285"><ele>604.0</ele><time>2026-04-12T09:30:29Z</time></trkpt><trkpt lat="42.63947502603218" lon="11.78938634133987"><ele>604.0</ele><time>2026-04-12T09:30:30Z</time></trkpt><trkpt lat="42.63949073218485" lon="11.78953796391855"><ele>604.1666666666667</ele><time>2026-04-12T09:30:31Z</time></trkpt><trkpt lat="42.63949989600426" lon="11.78967801938072"><ele>604.3333333333334</ele><time>2026-04-12T09:30:32Z</time></trkpt><trkpt lat="42.63951053803797" lon="11.789802157314831"><ele>604.5</ele><time>2026-04-12T09:30:33Z</time></trkpt><trkpt lat="42.63952004130286" lon="11.789897945416733"><ele>604.6666666666666</ele><time>2026-04-12T09:30:34Z</time></trkpt><trkpt lat="42.63954676028014" lon="11.790037994610843"><ele>604.8333333333333</ele><time>2026-04-12T09:30:36Z</time></trkpt><trkpt lat="42.63956588244696" lon="11.790125385498886"><ele>605.0</ele><time>2026-04-12T09:30:38Z</time></trkpt><trkpt lat="42.639596142814554" lon="11.790202409738445"><ele>605.0</ele><time>2026-04-12T09:31:06Z</time></trkpt><trkpt lat="42.63966782314937" lon="11.790315681322404"><ele>605.0</ele><time>2026-04-12T09:31:09Z</time></trkpt><trkpt lat="42.639711957529066" lon="11.790406058403805"><ele>605.0</ele><time>2026-04-12T09:31:10Z</time></trkpt><trkpt lat="42.63974939929576" lon="11.790521430795948"><ele>605.0</ele><time>2026-04-12T09:31:11Z</time></trkpt><trkpt lat="42.6397827494592" lon="11.790670047784856"><ele>605.0</ele><time>2026-04-12T09:31:12Z</time></trkpt><trkpt lat="42.63981642020265" lon="11.790826114338707"><ele>605.6666666666666</ele><time>2026-04-12T09:31:13Z</time></trkpt><trkpt lat="42.63986246715618" lon="11.791009217415288"><ele>606.3333333333334</ele><time>2026-04-12T09:31:14Z</time></trkpt><trkpt lat="42.639910852797364" lon="11.791201605588846"><ele>607.0</ele><time>2026-04-12T09:31:15Z</time></trkpt><trkpt lat="42.63996682362048" lon="11.791410734722172"><ele>607.0</ele><time>2026-04-12T09:31:16Z</time></trkpt><trkpt lat="42.640024599751214" lon="11.791633912695309"><ele>607.0</ele><time>2026-04-12T09:31:17Z</time></trkpt><trkpt lat="42.64007902165372" lon="11.791844444427511"><ele>607.0</ele><time>2026-04-12T09:31:18Z</time></trkpt><trkpt lat="42.640129625880725" lon="11.79206049704258"><ele>607.3333333333334</ele><time>2026-04-12T09:31:19Z</time></trkpt><trkpt lat="42.640184756833584" lon="11.792283090364839"><ele>607.6666666666666</ele><time>2026-04-12T09:31:20Z</time></trkpt><trkpt lat="42.64023868597224" lon="11.792504930165476"><ele>608.0</ele><time>2026-04-12T09:31:21Z</time></trkpt><trkpt lat="42.640300079614974" lon="11.79272062841289"><ele>609.6666666666666</ele><time>2026-04-12T09:31:22Z</time></trkpt><trkpt lat="42.64037543272125" lon="11.792931077959834"><ele>611.3333333333334</ele><time>2026-04-12T09:31:23Z</time></trkpt><trkpt lat="42.640471670464315" lon="11.793151404918872"><ele>613.0</ele><time>2026-04-12T09:31:24Z</time></trkpt><trkpt lat="42.6405827088184" lon="11.793367284219775"><ele>613.6666666666667</ele><time>2026-04-12T09:31:25Z</time></trkpt><trkpt lat="42.640693736369585" lon="11.793588673614204"><ele>614.3333333333334</ele><time>2026-04-12T09:31:26Z</time></trkpt><trkpt lat="42.640798034907135" lon="11.793800159358726"><ele>615.0</ele><time>2026-04-12T09:31:27Z</time></trkpt><trkpt lat="42.64090179364507" lon="11.79401430718185"><ele>615.0</ele><time>2026-04-12T09:31:28Z</time></trkpt><trkpt lat="42.640997959160316" lon="11.794221325725433"><ele>615.0</ele><time>2026-04-12T09:31:29Z</time></trkpt><trkpt lat="42.64109033390435" lon="11.794412388712706"><ele>615.0</ele><time>2026-04-12T09:31:30Z</time></trkpt><trkpt lat="42.641183386264956" lon="11.794603005378056"><ele>613.6666666666666</ele><time>2026-04-12T09:31:31Z</time></trkpt><trkpt lat="42.641272408714286" lon="11.794786550410883"><ele>612.3333333333333</ele><time>2026-04-12T09:31:32Z</time></trkpt><trkpt lat="42.6413575703695" lon="11.794960433072486"><ele>611.0</ele><time>2026-04-12T09:31:33Z</time></trkpt><trkpt lat="42.64145589345518" lon="11.795141540092374"><ele>608.6666666666666</ele><time>2026-04-12T09:31:34Z</time></trkpt><trkpt lat="42.64157308992226" lon="11.79531610973038"><ele>606.3333333333334</ele><time>2026-04-12T09:31:35Z</time></trkpt><trkpt lat="42.64171421381525" lon="11.795480788522804"><ele>604.0</ele><time>2026-04-12T09:31:36Z</time></trkpt><trkpt lat="42.64186255890743" lon="11.795629052668557"><ele>606.0</ele><time>2026-04-12T09:31:37Z</time></trkpt><trkpt lat="42.642015050646" lon="11.795773991836855"><ele>608.0</ele><time>2026-04-12T09:31:38Z</time></trkpt><trkpt lat="42.64216077434292" lon="11.795911014743375"><ele>610.0</ele><time>2026-04-12T09:31:39Z</time></trkpt><trkpt lat="42.6423133001726" lon="11.79606093807822"><ele>610.0</ele><time>2026-04-12T09:31:40Z</time></trkpt><trkpt lat="42.6424631777183" lon="11.79621220355759"><ele>610.0</ele><time>2026-04-12T09:31:41Z</time></trkpt><trkpt lat="42.64260717095367" lon="11.796357536513039"><ele>610.0</ele><time>2026-04-12T09:31:42Z</time></trkpt><trkpt lat="42.64274935196819" lon="11.79649503167476"><ele>612.75</ele><time>2026-04-12T09:31:43Z</time></trkpt><trkpt lat="42.642874256385824" lon="11.796618175939889"><ele>615.5</ele><time>2026-04-12T09:31:44Z</time></trkpt><trkpt lat="42.64298897354796" lon="11.796742204564348"><ele>618.25</ele><time>2026-04-12T09:31:45Z</time></trkpt><trkpt lat="42.643082717443484" lon="11.796869195727176"><ele>621.0</ele><time>2026-04-12T09:31:46Z</time></trkpt><trkpt lat="42.64315797337443" lon="11.79698844302219"><ele>621.5</ele><time>2026-04-12T09:31:47Z</time></trkpt><trkpt lat="42.643216528751125" lon="11.797093012752788"><ele>622.0</ele><time>2026-04-12T09:31:48Z</time></trkpt><trkpt lat="42.64326045363178" lon="11.797185099248553"><ele>622.5</ele><time>2026-04-12T09:31:49Z</time></trkpt><trkpt lat="42.64330665116974" lon="11.79727322069603"><ele>623.0</ele><time>2026-04-12T09:31:50Z</time></trkpt><trkpt lat="42.64334704743434" lon="11.797347465634873"><ele>623.5</ele><time>2026-04-12T09:31:51Z</time></trkpt><trkpt lat="42.64339622855225" lon="11.79745117512457"><ele>624.0</ele><time>2026-04-12T09:31:53Z</time></trkpt><trkpt lat="42.64345722560408" lon="11.797551765287476"><ele>624.0</ele><time>2026-04-12T09:32:06Z</time></trkpt><trkpt lat="42.64355147092132" lon="11.797477703408486"><ele>624.0</ele><time>2026-04-12T09:32:09Z</time></trkpt><trkpt lat="42.643583338932295" lon="11.797400443677622"><ele>624.0</ele><time>2026-04-12T09:32:11Z</time></trkpt><trkpt lat="42.64363893602047" lon="11.797269967104684"><ele>624.0</ele><time>2026-04-12T09:32:18Z</time></trkpt><trkpt lat="42.64366631577983" lon="11.797184520257263"><ele>624.0</ele><time>2026-04-12T09:32:19Z</time></trkpt><trkpt lat="42.643712521416106" lon="11.79701184975562"><ele>624.4</ele><time>2026-04-12T09:32:21Z</time></trkpt><trkpt lat="42.643753296319304" lon="11.796891314008528"><ele>624.8</ele><time>2026-04-12T09:32:22Z</time></trkpt><trkpt lat="42.643793703600096" lon="11.796780645254477"><ele>625.2</ele><time>2026-04-12T09:32:23Z</time></trkpt><trkpt lat="42.64386194239108" lon="11.796696549405375"><ele>625.6</ele><time>2026-04-12T09:32:24Z</time></trkpt><trkpt lat="42.64393159077138" lon="11.796587490309772"><ele>626.0</ele><time>2026-04-12T09:32:25Z</time></trkpt><trkpt lat="42.64399675698551" lon="11.796484529269103"><ele>626.0</ele><time>2026-04-12T09:32:26Z</time></trkpt><trkpt lat="42.64406208043724" lon="11.796381319913918"><ele>626.0</ele><time>2026-04-12T09:32:27Z</time></trkpt><trkpt lat="42.644129775144705" lon="11.796271969999548"><ele>626.0</ele><time>2026-04-12T09:32:28Z</time></trkpt><trkpt lat="42.64418601249138" lon="11.796178304357841"><ele>626.0</ele><time>2026-04-12T09:32:29Z</time></trkpt><trkpt lat="42.64423763538396" lon="11.796074933804547"><ele>626.0</ele><time>2026-04-12T09:32:30Z</time></trkpt><trkpt lat="42.644279648189105" lon="11.79595717938545"><ele>625.4</ele><time>2026-04-12T09:32:31Z</time></trkpt><trkpt lat="42.64434049182565" lon="11.795861248789686"><ele>624.8</ele><time>2026-04-12T09:32:32Z</time></trkpt><trkpt lat="42.64441882804862" lon="11.795789312730768"><ele>624.1999999999999</ele><time>2026-04-12T09:32:33Z</time></trkpt><trkpt lat="42.644518017317" lon="11.7957300316479"><ele>623.6</ele><time>2026-04-12T09:32:34Z</time></trkpt><trkpt lat="42.644623152489224" lon="11.795665953689186"><ele>623.0</ele><time>2026-04-12T09:32:35Z</time></trkpt><trkpt lat="42.6447342974633" lon="11.795616447580507"><ele>623.0</ele><time>2026-04-12T09:32:36Z</time></trkpt><trkpt lat="42.64483150027597" lon="11.795598104036154"><ele>623.0</ele><time>2026-04-12T09:32:37Z</time></trkpt><trkpt lat="42.64493831308718" lon="11.795581971015398"><ele>623.0</ele><time>2026-04-12T09:32:38Z</time></trkpt><trkpt lat="42.64504652835567" lon="11.795566479874083"><ele>623.0</ele><time>2026-04-12T09:32:39Z</time></trkpt><trkpt lat="42.64515630243866" lon="11.79555696524346"><ele>623.0</ele><time>2026-04-12T09:32:40Z</time></trkpt><trkpt lat="42.645266592247324" lon="11.79555279836917"><ele>620.75</ele><time>2026-04-12T09:32:41Z</time></trkpt><trkpt lat="42.645380688137195" lon="11.795563225846008"><ele>618.5</ele><time>2026-04-12T09:32:42Z</time></trkpt><trkpt lat="42.64550636770547" lon="11.795584651311245"><ele>616.25</ele><time>2026-04-12T09:32:43Z</time></trkpt><trkpt lat="42.64561208222204" lon="11.79562862457894"><ele>614.0</ele><time>2026-04-12T09:32:44Z</time></trkpt><trkpt lat="42.64570905847612" lon="11.795669743510595"><ele>614.0</ele><time>2026-04-12T09:32:45Z</time></trkpt><trkpt lat="42.64580645683993" lon="11.795665376649481"><ele>614.0</ele><time>2026-04-12T09:32:46Z</time></trkpt><trkpt lat="42.64589852593181" lon="11.79563428840978"><ele>614.0</ele><time>2026-04-12T09:32:47Z</time></trkpt><trkpt lat="42.64598353749837" lon="11.795589622185963"><ele>614.0</ele><time>2026-04-12T09:32:48Z</time></trkpt><trkpt lat="42.646077261426555" lon="11.795541404606018"><ele>614.0</ele><time>2026-04-12T09:32:49Z</time></trkpt><trkpt lat="42.64615899386479" lon="11.795504989253242"><ele>612.6666666666666</ele><time>2026-04-12T09:32:50Z</time></trkpt><trkpt lat="42.646241410262476" lon="11.795470557092994"><ele>611.3333333333333</ele><time>2026-04-12T09:32:51Z</time></trkpt><trkpt lat="42.6463100754139" lon="11.795425616680518"><ele>610.0</ele><time>2026-04-12T09:32:52Z</time></trkpt><trkpt lat="42.64636834236567" lon="11.795342515096616"><ele>608.6666666666666</ele><time>2026-04-12T09:32:54Z</time></trkpt><trkpt lat="42.64643604594445" lon="11.79527952755657"><ele>607.3333333333334</ele><time>2026-04-12T09:32:56Z</time></trkpt><trkpt lat="42.64650842693152" lon="11.795271208535306"><ele>606.0</ele><time>2026-04-12T09:32:58Z</time></trkpt><trkpt lat="42.646571076481315" lon="11.79529094166401"><ele>606.0</ele><time>2026-04-12T09:32:59Z</time></trkpt><trkpt lat="42.6466366081871" lon="11.79536634424073"><ele>606.0</ele><time>2026-04-12T09:33:00Z</time></trkpt><trkpt lat="42.64669598063399" lon="11.795438331797786"><ele>606.0</ele><time>2026-04-12T09:33:01Z</time></trkpt><trkpt lat="42.64678208865017" lon="11.795519859234103"><ele>606.0</ele><time>2026-04-12T09:33:02Z</time></trkpt><trkpt lat="42.64688226994436" lon="11.795579011225664"><ele>606.0</ele><time>2026-04-12T09:33:03Z</time></trkpt><trkpt lat="42.646998867842775" lon="11.79563183225875"><ele>604.75</ele><time>2026-04-12T09:33:04Z</time></trkpt><trkpt lat="42.6471214624195" lon="11.795685040074583"><ele>603.5</ele><time>2026-04-12T09:33:05Z</time></trkpt><trkpt lat="42.64725027074483" lon="11.79573909958313"><ele>602.25</ele><time>2026-04-12T09:33:06Z</time></trkpt><trkpt lat="42.64737089791728" lon="11.795782881257246"><ele>601.0</ele><time>2026-04-12T09:33:07Z</time></trkpt><trkpt lat="42.64748346115468" lon="11.795820406260061"><ele>601.0</ele><time>2026-04-12T09:33:08Z</time></trkpt><trkpt lat="42.64758870200781" lon="11.795851614459421"><ele>601.0</ele><time>2026-04-12T09:33:09Z</time></trkpt><trkpt lat="42.64769531560413" lon="11.795876970799615"><ele>601.0</ele><time>2026-04-12T09:33:10Z</time></trkpt><trkpt lat="42.647809354957595" lon="11.795897228794988"><ele>601.0</ele><time>2026-04-12T09:33:11Z</time></trkpt><trkpt lat="42.64790945416244" lon="11.795919579769738"><ele>601.0</ele><time>2026-04-12T09:33:12Z</time></trkpt><trkpt lat="42.64800100246731" lon="11.795945016242362"><ele>600.8</ele><time>2026-04-12T09:33:13Z</time></trkpt><trkpt lat="42.64808788585554" lon="11.795967618973744"><ele>600.6</ele><time>2026-04-12T09:33:14Z</time></trkpt><trkpt lat="42.64818328807678" lon="11.795978261480284"><ele>600.4</ele><time>2026-04-12T09:33:15Z</time></trkpt><trkpt lat="42.64827868569459" lon="11.795980558156058"><ele>600.2</ele><time>2026-04-12T09:33:16Z</time></trkpt><trkpt lat="42.64837896635651" lon="11.795968702158298"><ele>600.0</ele><time>2026-04-12T09:33:17Z</time></trkpt><trkpt lat="42.648480608720845" lon="11.795943253310949"><ele>600.0</ele><time>2026-04-12T09:33:18Z</time></trkpt><trkpt lat="42.648584192208716" lon="11.795900757049473"><ele>600.0</ele><time>2026-04-12T09:33:19Z</time></trkpt><trkpt lat="42.648679414316376" lon="11.79584517118545"><ele>600.0</ele><time>2026-04-12T09:33:20Z</time></trkpt><trkpt lat="42.648777837747815" lon="11.795810119371508"><ele>600.0</ele><time>2026-04-12T09:33:21Z</time></trkpt><trkpt lat="42.648865929301884" lon="11.795753979283978"><ele>600.0</ele><time>2026-04-12T09:33:22Z</time></trkpt><trkpt lat="42.64895601590272" lon="11.79569339142119"><ele>600.2</ele><time>2026-04-12T09:33:23Z</time></trkpt><trkpt lat="42.64905136770688" lon="11.795628557618034"><ele>600.4</ele><time>2026-04-12T09:33:24Z</time></trkpt><trkpt lat="42.64913838284063" lon="11.795555778096901"><ele>600.6</ele><time>2026-04-12T09:33:25Z</time></trkpt><trkpt lat="42.649240362340585" lon="11.79548600639713"><ele>600.8</ele><time>2026-04-12T09:33:26Z</time></trkpt><trkpt lat="42.64933756200432" lon="11.795418591027582"><ele>601.0</ele><time>2026-04-12T09:33:27Z</time></trkpt><trkpt lat="42.649429693819194" lon="11.795344744473088"><ele>598.6</ele><time>2026-04-12T09:33:28Z</time></trkpt><trkpt lat="42.649517089129425" lon="11.795278482913979"><ele>596.2</ele><time>2026-04-12T09:33:29Z</time></trkpt><trkpt lat="42.64961191279173" lon="11.795206841174803"><ele>593.8</ele><time>2026-04-12T09:33:30Z</time></trkpt><trkpt lat="42.649704067274605" lon="11.795131084308615"><ele>591.4</ele><time>2026-04-12T09:33:31Z</time></trkpt><trkpt lat="42.64980119596423" lon="11.795078051075947"><ele>589.0</ele><time>2026-04-12T09:33:32Z</time></trkpt><trkpt lat="42.649899368005464" lon="11.794985581592714"><ele>588.75</ele><time>2026-04-12T09:33:33Z</time></trkpt><trkpt lat="42.65000390449696" lon="11.794903740490268"><ele>588.5</ele><time>2026-04-12T09:33:34Z</time></trkpt><trkpt lat="42.65009336421963" lon="11.794835418541087"><ele>588.25</ele><time>2026-04-12T09:33:35Z</time></trkpt><trkpt lat="42.65018806334846" lon="11.794759821581964"><ele>588.0</ele><time>2026-04-12T09:33:36Z</time></trkpt><trkpt lat="42.650296194564504" lon="11.794688057898599"><ele>586.4</ele><time>2026-04-12T09:33:37Z</time></trkpt><trkpt lat="42.65040001487893" lon="11.79461750138231"><ele>584.8</ele><time>2026-04-12T09:33:38Z</time></trkpt><trkpt lat="42.650510189994996" lon="11.79458507800078"><ele>583.2</ele><time>2026-04-12T09:33:39Z</time></trkpt><trkpt lat="42.65061003234171" lon="11.79453598939894"><ele>581.6</ele><time>2026-04-12T09:33:40Z</time></trkpt><trkpt lat="42.65071559428384" lon="11.794479053054294"><ele>580.0</ele><time>2026-04-12T09:33:41Z</time></trkpt><trkpt lat="42.65083659004254" lon="11.794423682308485"><ele>580.0</ele><time>2026-04-12T09:33:42Z</time></trkpt><trkpt lat="42.650971937082474" lon="11.794364181406896"><ele>580.0</ele><time>2026-04-12T09:33:43Z</time></trkpt><trkpt lat="42.65109773252337" lon="11.79429986201212"><ele>580.0</ele><time>2026-04-12T09:33:44Z</time></trkpt><trkpt lat="42.65121575941324" lon="11.794225553137998"><ele>580.0</ele><time>2026-04-12T09:33:45Z</time></trkpt><trkpt lat="42.65133402886016" lon="11.794167322702279"><ele>578.0</ele><time>2026-04-12T09:33:46Z</time></trkpt><trkpt lat="42.65147498649245" lon="11.794130280993828"><ele>576.0</ele><time>2026-04-12T09:33:47Z</time></trkpt><trkpt lat="42.65159535264793" lon="11.79408097141142"><ele>574.0</ele><time>2026-04-12T09:33:48Z</time></trkpt><trkpt lat="42.65172193245383" lon="11.794065184394961"><ele>572.0</ele><time>2026-04-12T09:33:49Z</time></trkpt><trkpt lat="42.65185595333783" lon="11.794056318533725"><ele>571.0</ele><time>2026-04-12T09:33:50Z</time></trkpt><trkpt lat="42.651983530889545" lon="11.794039774949454"><ele>570.0</ele><time>2026-04-12T09:33:51Z</time></trkpt><trkpt lat="42.65208937611512" lon="11.794046530330705"><ele>569.0</ele><time>2026-04-12T09:33:52Z</time></trkpt><trkpt lat="42.652180018016175" lon="11.794060468771772"><ele>568.0</ele><time>2026-04-12T09:33:53Z</time></trkpt><trkpt lat="42.65226328293895" lon="11.794054981396425"><ele>567.0</ele><time>2026-04-12T09:33:54Z</time></trkpt><trkpt lat="42.65234186936275" lon="11.794026739526895"><ele>567.0</ele><time>2026-04-12T09:33:55Z</time></trkpt><trkpt lat="42.65241692418394" lon="11.793959839025728"><ele>567.0</ele><time>2026-04-12T09:33:56Z</time></trkpt><trkpt lat="42.65248398703761" lon="11.793858673298224"><ele>567.0</ele><time>2026-04-12T09:33:57Z</time></trkpt><trkpt lat="42.652573273653196" lon="11.793767256441084"><ele>567.0</ele><time>2026-04-12T09:33:58Z</time></trkpt><trkpt lat="42.652658268158724" lon="11.793654188709343"><ele>567.0</ele><time>2026-04-12T09:33:59Z</time></trkpt><trkpt lat="42.65274531517715" lon="11.793536281838655"><ele>565.0</ele><time>2026-04-12T09:34:00Z</time></trkpt><trkpt lat="42.65282316301011" lon="11.793408649561009"><ele>563.0</ele><time>2026-04-12T09:34:01Z</time></trkpt><trkpt lat="42.65292482986062" lon="11.793306503890841"><ele>561.0</ele><time>2026-04-12T09:34:02Z</time></trkpt><trkpt lat="42.65303148062043" lon="11.79320441197178"><ele>559.0</ele><time>2026-04-12T09:34:03Z</time></trkpt><trkpt lat="42.65312838415189" lon="11.793123123401717"><ele>559.0</ele><time>2026-04-12T09:34:04Z</time></trkpt><trkpt lat="42.65323862661867" lon="11.793056089878428"><ele>559.0</ele><time>2026-04-12T09:34:05Z</time></trkpt><trkpt lat="42.65335085318083" lon="11.792985356439694"><ele>559.0</ele><time>2026-04-12T09:34:06Z</time></trkpt><trkpt lat="42.653471645639726" lon="11.792910364776418"><ele>559.0</ele><time>2026-04-12T09:34:07Z</time></trkpt><trkpt lat="42.65357871607934" lon="11.792839310056586"><ele>558.75</ele><time>2026-04-12T09:34:08Z</time></trkpt><trkpt lat="42.65368695538407" lon="11.792762828713181"><ele>558.5</ele><time>2026-04-12T09:34:09Z</time></trkpt><trkpt lat="42.653809288145865" lon="11.792711385457777"><ele>558.25</ele><time>2026-04-12T09:34:10Z</time></trkpt><trkpt lat="42.65392802201632" lon="11.79265973393568"><ele>558.0</ele><time>2026-04-12T09:34:11Z</time></trkpt><trkpt lat="42.65404391704302" lon="11.792593448057819"><ele>558.0</ele><time>2026-04-12T09:34:12Z</time></trkpt><trkpt lat="42.65415350247356" lon="11.792554620026241"><ele>558.0</ele><time>2026-04-12T09:34:13Z</time></trkpt><trkpt lat="42.65425932295941" lon="11.792506191380799"><ele>558.0</ele><time>2026-04-12T09:34:14Z</time></trkpt><trkpt lat="42.654369722165924" lon="11.792455636763119"><ele>558.0</ele><time>2026-04-12T09:34:15Z</time></trkpt><trkpt lat="42.654472215338046" lon="11.792403142276436"><ele>555.5</ele><time>2026-04-12T09:34:16Z</time></trkpt><trkpt lat="42.65457343002247" lon="11.792339921927232"><ele>553.0</ele><time>2026-04-12T09:34:17Z</time></trkpt><trkpt lat="42.654662568482486" lon="11.792240300541902"><ele>550.5</ele><time>2026-04-12T09:34:18Z</time></trkpt><trkpt lat="42.654747879996705" lon="11.792133079292755"><ele>548.0</ele><time>2026-04-12T09:34:19Z</time></trkpt><trkpt lat="42.65480887510147" lon="11.792007941328846"><ele>548.0</ele><time>2026-04-12T09:34:20Z</time></trkpt><trkpt lat="42.654851709456565" lon="11.791858115504498"><ele>548.0</ele><time>2026-04-12T09:34:21Z</time></trkpt><trkpt lat="42.65491553171076" lon="11.79169703628051"><ele>548.0</ele><time>2026-04-12T09:34:22Z</time></trkpt><trkpt lat="42.65496299182791" lon="11.791569303678168"><ele>548.0</ele><time>2026-04-12T09:34:23Z</time></trkpt><trkpt lat="42.65498909294042" lon="11.791442381763732"><ele>548.1999999999999</ele><time>2026-04-12T09:34:24Z</time></trkpt><trkpt lat="42.655040037466705" lon="11.791320927442682"><ele>548.4</ele><time>2026-04-12T09:34:25Z</time></trkpt><trkpt lat="42.65509112818195" lon="11.791191868386857"><ele>548.5999999999999</ele><time>2026-04-12T09:34:26Z</time></trkpt><trkpt lat="42.65512879206478" lon="11.791054797688298"><ele>548.8</ele><time>2026-04-12T09:34:27Z</time></trkpt><trkpt lat="42.655170626747974" lon="11.790919642020892"><ele>549.0</ele><time>2026-04-12T09:34:28Z</time></trkpt><trkpt lat="42.65523482848407" lon="11.790826367937566"><ele>548.2</ele><time>2026-04-12T09:34:29Z</time></trkpt><trkpt lat="42.65530020838881" lon="11.79074118805757"><ele>547.4</ele><time>2026-04-12T09:34:30Z</time></trkpt><trkpt lat="42.65537094050084" lon="11.790648254005916"><ele>546.6</ele><time>2026-04-12T09:34:31Z</time></trkpt><trkpt lat="42.65547140275205" lon="11.79057353527749"><ele>545.8</ele><time>2026-04-12T09:34:32Z</time></trkpt><trkpt lat="42.65556049424764" lon="11.790524094826493"><ele>545.0</ele><time>2026-04-12T09:34:33Z</time></trkpt><trkpt lat="42.655647718062" lon="11.790488575115324"><ele>545.0</ele><time>2026-04-12T09:34:34Z</time></trkpt><trkpt lat="42.65573214937517" lon="11.79046103172919"><ele>545.0</ele><time>2026-04-12T09:34:35Z</time></trkpt><trkpt lat="42.655810431656136" lon="11.790450840568269"><ele>545.0</ele><time>2026-04-12T09:34:36Z</time></trkpt><trkpt lat="42.65589157216238" lon="11.790458494669922"><ele>545.0</ele><time>2026-04-12T09:34:37Z</time></trkpt><trkpt lat="42.65597213448286" lon="11.79047122810027"><ele>545.0</ele><time>2026-04-12T09:34:38Z</time></trkpt><trkpt lat="42.65604534358128" lon="11.790484015706351"><ele>545.0</ele><time>2026-04-12T09:34:39Z</time></trkpt><trkpt lat="42.65615210953353" lon="11.790452684318646"><ele>545.0</ele><time>2026-04-12T09:34:41Z</time></trkpt><trkpt lat="42.65624035567972" lon="11.790365531039567"><ele>545.0</ele><time>2026-04-12T09:34:43Z</time></trkpt><trkpt lat="42.6563029145805" lon="11.790261448387623"><ele>545.0</ele><time>2026-04-12T09:34:45Z</time></trkpt><trkpt lat="42.656360342981" lon="11.790146539132845"><ele>545.0</ele><time>2026-04-12T09:34:47Z</time></trkpt><trkpt lat="42.65638943654965" lon="11.790065601574474"><ele>545.0</ele><time>2026-04-12T09:34:48Z</time></trkpt><trkpt lat="42.65642265867928" lon="11.789983391647029"><ele>545.0</ele><time>2026-04-12T09:34:49Z</time></trkpt><trkpt lat="42.65648924875067" lon="11.789820167277261"><ele>545.2</ele><time>2026-04-12T09:34:51Z</time></trkpt><trkpt lat="42.6565431055066" lon="11.78971364001654"><ele>545.4</ele><time>2026-04-12T09:34:52Z</time></trkpt><trkpt lat="42.656598099565805" lon="11.789608075719396"><ele>545.6</ele><time>2026-04-12T09:34:53Z</time></trkpt><trkpt lat="42.65665773105628" lon="11.78948801639148"><ele>545.8</ele><time>2026-04-12T09:34:54Z</time></trkpt><trkpt lat="42.65673779680468" lon="11.78939218169552"><ele>546.0</ele><time>2026-04-12T09:34:55Z</time></trkpt><trkpt lat="42.65680970893583" lon="11.78928047183042"><ele>544.4</ele><time>2026-04-12T09:34:56Z</time></trkpt><trkpt lat="42.65691415122142" lon="11.78922068609473"><ele>542.8</ele><time>2026-04-12T09:34:57Z</time></trkpt><trkpt lat="42.657008096702036" lon="11.789164666797525"><ele>541.1999999999999</ele><time>2026-04-12T09:34:58Z</time></trkpt><trkpt lat="42.65710899995192" lon="11.789124148206882"><ele>539.6</ele><time>2026-04-12T09:34:59Z</time></trkpt><trkpt lat="42.65721534034087" lon="11.789092403629722"><ele>538.0</ele><time>2026-04-12T09:35:00Z</time></trkpt><trkpt lat="42.65731753143537" lon="11.789069205657377"><ele>537.5</ele><time>2026-04-12T09:35:01Z</time></trkpt><trkpt lat="42.65742221288987" lon="11.789044144104743"><ele>537.0</ele><time>2026-04-12T09:35:02Z</time></trkpt><trkpt lat="42.657543415699095" lon="11.789010089577094"><ele>536.5</ele><time>2026-04-12T09:35:03Z</time></trkpt><trkpt lat="42.65766705656909" lon="11.788975350025046"><ele>536.0</ele><time>2026-04-12T09:35:04Z</time></trkpt><trkpt lat="42.65778413101591" lon="11.788942455445458"><ele>535.0</ele><time>2026-04-12T09:35:05Z</time></trkpt><trkpt lat="42.657886298394835" lon="11.788913356131038"><ele>534.0</ele><time>2026-04-12T09:35:06Z</time></trkpt><trkpt lat="42.65799298675789" lon="11.788881723464813"><ele>533.0</ele><time>2026-04-12T09:35:07Z</time></trkpt><trkpt lat="42.65810402335236" lon="11.788847892402215"><ele>532.0</ele><time>2026-04-12T09:35:08Z</time></trkpt><trkpt lat="42.65821608655832" lon="11.788813226872238"><ele>531.0</ele><time>2026-04-12T09:35:09Z</time></trkpt><trkpt lat="42.6583267841631" lon="11.788774109923635"><ele>531.0</ele><time>2026-04-12T09:35:10Z</time></trkpt><trkpt lat="42.658432972564746" lon="11.788744799054484"><ele>531.0</ele><time>2026-04-12T09:35:11Z</time></trkpt><trkpt lat="42.65853986540205" lon="11.788719010077944"><ele>531.0</ele><time>2026-04-12T09:35:12Z</time></trkpt><trkpt lat="42.6586530203961" lon="11.788687153421264"><ele>531.0</ele><time>2026-04-12T09:35:13Z</time></trkpt><trkpt lat="42.65877365662729" lon="11.788673316468385"><ele>531.25</ele><time>2026-04-12T09:35:14Z</time></trkpt><trkpt lat="42.65888534459797" lon="11.788642171495711"><ele>531.5</ele><time>2026-04-12T09:35:15Z</time></trkpt><trkpt lat="42.65901214360052" lon="11.788605063139078"><ele>531.75</ele><time>2026-04-12T09:35:16Z</time></trkpt><trkpt lat="42.65913765514501" lon="11.788558475105472"><ele>532.0</ele><time>2026-04-12T09:35:17Z</time></trkpt><trkpt lat="42.65926777974733" lon="11.788522912796621"><ele>532.4</ele><time>2026-04-12T09:35:18Z</time></trkpt><trkpt lat="42.659389905399365" lon="11.788489510723506"><ele>532.8000000000001</ele><time>2026-04-12T09:35:19Z</time></trkpt><trkpt lat="42.659493852702084" lon="11.788458149752104"><ele>533.2</ele><time>2026-04-12T09:35:20Z</time></trkpt><trkpt lat="42.659586353345134" lon="11.788428383916658"><ele>533.6</ele><time>2026-04-12T09:35:21Z</time></trkpt><trkpt lat="42.65969193554236" lon="11.78840454176417"><ele>534.0</ele><time>2026-04-12T09:35:22Z</time></trkpt><trkpt lat="42.659810388611724" lon="11.788373986671674"><ele>534.0</ele><time>2026-04-12T09:35:23Z</time></trkpt><trkpt lat="42.659945728334776" lon="11.788338662313222"><ele>534.0</ele><time>2026-04-12T09:35:24Z</time></trkpt><trkpt lat="42.66008549564576" lon="11.788294116035782"><ele>534.0</ele><time>2026-04-12T09:35:25Z</time></trkpt><trkpt lat="42.66021814986365" lon="11.78825882783342"><ele>534.0</ele><time>2026-04-12T09:35:26Z</time></trkpt><trkpt lat="42.66034103539237" lon="11.788241983107214"><ele>532.8</ele><time>2026-04-12T09:35:27Z</time></trkpt><trkpt lat="42.660454523959835" lon="11.78821073494803"><ele>531.5999999999999</ele><time>2026-04-12T09:35:28Z</time></trkpt><trkpt lat="42.6605632559123" lon="11.788171723460842"><ele>530.4</ele><time>2026-04-12T09:35:29Z</time></trkpt><trkpt lat="42.660656928890205" lon="11.788138845562502"><ele>529.1999999999999</ele><time>2026-04-12T09:35:30Z</time></trkpt><trkpt lat="42.66073771054502" lon="11.788095474286298"><ele>528.0</ele><time>2026-04-12T09:35:31Z</time></trkpt><trkpt lat="42.66081832625033" lon="11.788027833121992"><ele>528.0</ele><time>2026-04-12T09:35:32Z</time></trkpt><trkpt lat="42.66090697870114" lon="11.787911739093756"><ele>528.0</ele><time>2026-04-12T09:35:33Z</time></trkpt><trkpt lat="42.66100085590489" lon="11.787772123850866"><ele>528.0</ele><time>2026-04-12T09:35:34Z</time></trkpt><trkpt lat="42.66110326753268" lon="11.787644867418646"><ele>528.0</ele><time>2026-04-12T09:35:35Z</time></trkpt><trkpt lat="42.661206007720644" lon="11.787511065244173"><ele>526.25</ele><time>2026-04-12T09:35:36Z</time></trkpt><trkpt lat="42.66129854535189" lon="11.78739741823023"><ele>524.5</ele><time>2026-04-12T09:35:37Z</time></trkpt><trkpt lat="42.661383504890495" lon="11.787291265688301"><ele>522.75</ele><time>2026-04-12T09:35:38Z</time></trkpt><trkpt lat="42.661467459153634" lon="11.787216894519474"><ele>521.0</ele><time>2026-04-12T09:35:39Z</time></trkpt><trkpt lat="42.66155193489962" lon="11.787114977946027"><ele>521.0</ele><time>2026-04-12T09:35:40Z</time></trkpt><trkpt lat="42.66164572826004" lon="11.78697408485829"><ele>521.0</ele><time>2026-04-12T09:35:41Z</time></trkpt><trkpt lat="42.66176238537614" lon="11.786864903171843"><ele>521.0</ele><time>2026-04-12T09:35:42Z</time></trkpt><trkpt lat="42.661854295174045" lon="11.786755542016584"><ele>521.0</ele><time>2026-04-12T09:35:43Z</time></trkpt><trkpt lat="42.66195330961266" lon="11.786635841455713"><ele>520.75</ele><time>2026-04-12T09:35:44Z</time></trkpt><trkpt lat="42.662064646061836" lon="11.786501065856346"><ele>520.5</ele><time>2026-04-12T09:35:45Z</time></trkpt><trkpt lat="42.66217488322861" lon="11.786366693061463"><ele>520.25</ele><time>2026-04-12T09:35:46Z</time></trkpt><trkpt lat="42.662280780568075" lon="11.786237610236197"><ele>520.0</ele><time>2026-04-12T09:35:47Z</time></trkpt><trkpt lat="42.6623830483834" lon="11.786112951627278"><ele>519.75</ele><time>2026-04-12T09:35:48Z</time></trkpt><trkpt lat="42.662485780689586" lon="11.785987726817133"><ele>519.5</ele><time>2026-04-12T09:35:49Z</time></trkpt><trkpt lat="42.66258111246206" lon="11.78587152286694"><ele>519.25</ele><time>2026-04-12T09:35:50Z</time></trkpt><trkpt lat="42.662669093365835" lon="11.785765095606592"><ele>519.0</ele><time>2026-04-12T09:35:51Z</time></trkpt><trkpt lat="42.66276597755799" lon="11.785652461070008"><ele>517.75</ele><time>2026-04-12T09:35:52Z</time></trkpt><trkpt lat="42.66287594162535" lon="11.7855252279165"><ele>516.5</ele><time>2026-04-12T09:35:53Z</time></trkpt><trkpt lat="42.662978562194944" lon="11.785399322714788"><ele>515.25</ele><time>2026-04-12T09:35:54Z</time></trkpt><trkpt lat="42.663079825615604" lon="11.785273039971358"><ele>514.0</ele><time>2026-04-12T09:35:55Z</time></trkpt><trkpt lat="42.66317577460786" lon="11.785153384691606"><ele>514.0</ele><time>2026-04-12T09:35:56Z</time></trkpt><trkpt lat="42.6632738472206" lon="11.785029981407392"><ele>514.0</ele><time>2026-04-12T09:35:57Z</time></trkpt><trkpt lat="42.663364555939836" lon="11.784915655443232"><ele>514.0</ele><time>2026-04-12T09:35:58Z</time></trkpt><trkpt lat="42.6634611028464" lon="11.784793971258503"><ele>514.0</ele><time>2026-04-12T09:35:59Z</time></trkpt><trkpt lat="42.66357019191427" lon="11.784656420153892"><ele>513.0</ele><time>2026-04-12T09:36:00Z</time></trkpt><trkpt lat="42.66367091750266" lon="11.784529247079512"><ele>512.0</ele><time>2026-04-12T09:36:01Z</time></trkpt><trkpt lat="42.663764435462234" lon="11.78441117411094"><ele>511.0</ele><time>2026-04-12T09:36:02Z</time></trkpt><trkpt lat="42.66384851321288" lon="11.784287132231748"><ele>510.0</ele><time>2026-04-12T09:36:03Z</time></trkpt><trkpt lat="42.6639543380351" lon="11.784165856839428"><ele>510.0</ele><time>2026-04-12T09:36:04Z</time></trkpt><trkpt lat="42.66406752745732" lon="11.784033850176067"><ele>510.0</ele><time>2026-04-12T09:36:05Z</time></trkpt><trkpt lat="42.66417318519313" lon="11.783897933453046"><ele>510.0</ele><time>2026-04-12T09:36:06Z</time></trkpt><trkpt lat="42.664284168408926" lon="11.783761402949423"><ele>510.0</ele><time>2026-04-12T09:36:07Z</time></trkpt><trkpt lat="42.66439341302164" lon="11.783636911379832"><ele>511.75</ele><time>2026-04-12T09:36:08Z</time></trkpt><trkpt lat="42.66450798100691" lon="11.783506366876264"><ele>513.5</ele><time>2026-04-12T09:36:09Z</time></trkpt><trkpt lat="42.66461752250188" lon="11.78336935489035"><ele>515.25</ele><time>2026-04-12T09:36:10Z</time></trkpt><trkpt lat="42.66470852047974" lon="11.783250276498771"><ele>517.0</ele><time>2026-04-12T09:36:11Z</time></trkpt><trkpt lat="42.66478303189769" lon="11.783144082961693"><ele>517.0</ele><time>2026-04-12T09:36:12Z</time></trkpt><trkpt lat="42.664831903675825" lon="11.7830456839179"><ele>517.0</ele><time>2026-04-12T09:36:13Z</time></trkpt><trkpt lat="42.664868875763" lon="11.78292770674665"><ele>517.0</ele><time>2026-04-12T09:36:14Z</time></trkpt><trkpt lat="42.664898660090195" lon="11.782807207786178"><ele>517.0</ele><time>2026-04-12T09:36:15Z</time></trkpt><trkpt lat="42.664947368150884" lon="11.782677689983007"><ele>517.0</ele><time>2026-04-12T09:36:16Z</time></trkpt><trkpt lat="42.664981899871634" lon="11.782560627157544"><ele>516.25</ele><time>2026-04-12T09:36:17Z</time></trkpt><trkpt lat="42.66500690294318" lon="11.782419002327586"><ele>515.5</ele><time>2026-04-12T09:36:18Z</time></trkpt><trkpt lat="42.66506226686867" lon="11.782270633762485"><ele>514.75</ele><time>2026-04-12T09:36:19Z</time></trkpt><trkpt lat="42.66510540551772" lon="11.782108690834304"><ele>514.0</ele><time>2026-04-12T09:36:20Z</time></trkpt><trkpt lat="42.66515322716461" lon="11.781933542595546"><ele>513.0</ele><time>2026-04-12T09:36:21Z</time></trkpt><trkpt lat="42.66520531990659" lon="11.781771594058654"><ele>512.0</ele><time>2026-04-12T09:36:22Z</time></trkpt><trkpt lat="42.665234797387384" lon="11.78161161978728"><ele>511.0</ele><time>2026-04-12T09:36:23Z</time></trkpt><trkpt lat="42.665277861420556" lon="11.781466693462201"><ele>510.0</ele><time>2026-04-12T09:36:24Z</time></trkpt><trkpt lat="42.66533110778946" lon="11.781298342860719"><ele>510.0</ele><time>2026-04-12T09:36:25Z</time></trkpt><trkpt lat="42.66539139807539" lon="11.781115649675373"><ele>510.0</ele><time>2026-04-12T09:36:26Z</time></trkpt><trkpt lat="42.6654489311255" lon="11.780936688923374"><ele>510.0</ele><time>2026-04-12T09:36:27Z</time></trkpt><trkpt lat="42.6654964506599" lon="11.780762230570351"><ele>510.0</ele><time>2026-04-12T09:36:28Z</time></trkpt><trkpt lat="42.66554800052548" lon="11.780584045276969"><ele>509.66666666666663</ele><time>2026-04-12T09:36:29Z</time></trkpt><trkpt lat="42.66561340355156" lon="11.78038899276791"><ele>509.3333333333333</ele><time>2026-04-12T09:36:30Z</time></trkpt><trkpt lat="42.66566511409668" lon="11.780194362601437"><ele>509.0</ele><time>2026-04-12T09:36:31Z</time></trkpt><trkpt lat="42.66570036682484" lon="11.779998789298828"><ele>508.75</ele><time>2026-04-12T09:36:32Z</time></trkpt><trkpt lat="42.66575085434572" lon="11.779828718717987"><ele>508.5</ele><time>2026-04-12T09:36:33Z</time></trkpt><trkpt lat="42.66580046626824" lon="11.779654637684487"><ele>508.25</ele><time>2026-04-12T09:36:34Z</time></trkpt><trkpt lat="42.66585412468566" lon="11.779454331399474"><ele>508.0</ele><time>2026-04-12T09:36:35Z</time></trkpt><trkpt lat="42.66590586383924" lon="11.779246735440555"><ele>507.5</ele><time>2026-04-12T09:36:36Z</time></trkpt><trkpt lat="42.66597767808369" lon="11.779046507794092"><ele>507.0</ele><time>2026-04-12T09:36:37Z</time></trkpt><trkpt lat="42.66603457282569" lon="11.778865944826853"><ele>506.5</ele><time>2026-04-12T09:36:38Z</time></trkpt><trkpt lat="42.666088729487754" lon="11.778715932412194"><ele>506.0</ele><time>2026-04-12T09:36:39Z</time></trkpt><trkpt lat="42.66613639583479" lon="11.778595637522368"><ele>505.0</ele><time>2026-04-12T09:36:40Z</time></trkpt><trkpt lat="42.66619051102111" lon="11.778484293736721"><ele>504.0</ele><time>2026-04-12T09:36:41Z</time></trkpt><trkpt lat="42.666262881378465" lon="11.778383165478049"><ele>503.0</ele><time>2026-04-12T09:36:42Z</time></trkpt><trkpt lat="42.66635795251888" lon="11.778287423517483"><ele>502.0</ele><time>2026-04-12T09:36:43Z</time></trkpt><trkpt lat="42.666471484283285" lon="11.778182490712204"><ele>502.0</ele><time>2026-04-12T09:36:44Z</time></trkpt><trkpt lat="42.66659197725923" lon="11.778045295926301"><ele>502.0</ele><time>2026-04-12T09:36:45Z</time></trkpt><trkpt lat="42.666723543909924" lon="11.7779521507843"><ele>502.0</ele><time>2026-04-12T09:36:46Z</time></trkpt><trkpt lat="42.66684718959081" lon="11.777840196586592"><ele>500.75</ele><time>2026-04-12T09:36:47Z</time></trkpt><trkpt lat="42.66696851136668" lon="11.777730407062194"><ele>499.5</ele><time>2026-04-12T09:36:48Z</time></trkpt><trkpt lat="42.66707911680979" lon="11.777630315382085"><ele>498.25</ele><time>2026-04-12T09:36:49Z</time></trkpt><trkpt lat="42.667176143329414" lon="11.777522151650427"><ele>497.0</ele><time>2026-04-12T09:36:50Z</time></trkpt><trkpt lat="42.66727390998814" lon="11.777432608496735"><ele>497.0</ele><time>2026-04-12T09:36:51Z</time></trkpt><trkpt lat="42.66737277522315" lon="11.777346006987111"><ele>497.0</ele><time>2026-04-12T09:36:52Z</time></trkpt><trkpt lat="42.667478447363585" lon="11.777273176834061"><ele>497.0</ele><time>2026-04-12T09:36:53Z</time></trkpt><trkpt lat="42.6675775007917" lon="11.777165993477478"><ele>497.0</ele><time>2026-04-12T09:36:54Z</time></trkpt><trkpt lat="42.667677979709104" lon="11.777090935982322"><ele>496.40000000000003</ele><time>2026-04-12T09:36:55Z</time></trkpt><trkpt lat="42.66777998392453" lon="11.777025855070924"><ele>495.80000000000007</ele><time>2026-04-12T09:36:56Z</time></trkpt><trkpt lat="42.66787830193886" lon="11.776966578682092"><ele>495.2</ele><time>2026-04-12T09:36:57Z</time></trkpt><trkpt lat="42.66797248105393" lon="11.776910156210704"><ele>494.6</ele><time>2026-04-12T09:36:58Z</time></trkpt><trkpt lat="42.66805895540894" lon="11.776835708151674"><ele>494.0</ele><time>2026-04-12T09:36:59Z</time></trkpt><trkpt lat="42.66813796626406" lon="11.776733205806925"><ele>494.0</ele><time>2026-04-12T09:37:00Z</time></trkpt><trkpt lat="42.6682094506303" lon="11.776596704520555"><ele>494.0</ele><time>2026-04-12T09:37:01Z</time></trkpt><trkpt lat="42.668302079655575" lon="11.776454226412467"><ele>494.0</ele><time>2026-04-12T09:37:02Z</time></trkpt><trkpt lat="42.66836136262029" lon="11.776253895788356"><ele>494.0</ele><time>2026-04-12T09:37:03Z</time></trkpt><trkpt lat="42.668434873563506" lon="11.776056599789129"><ele>494.0</ele><time>2026-04-12T09:37:04Z</time></trkpt><trkpt lat="42.668469825983266" lon="11.775840385530062"><ele>494.0</ele><time>2026-04-12T09:37:05Z</time></trkpt><trkpt lat="42.668512164845986" lon="11.77567769446863"><ele>494.0</ele><time>2026-04-12T09:37:06Z</time></trkpt><trkpt lat="42.66858154808797" lon="11.775548897592277"><ele>494.0</ele><time>2026-04-12T09:37:07Z</time></trkpt><trkpt lat="42.668640871345296" lon="11.775439792914373"><ele>495.5</ele><time>2026-04-12T09:37:08Z</time></trkpt><trkpt lat="42.668704357447915" lon="11.775299504390969"><ele>497.0</ele><time>2026-04-12T09:37:09Z</time></trkpt><trkpt lat="42.66873156842961" lon="11.775138901126986"><ele>498.5</ele><time>2026-04-12T09:37:10Z</time></trkpt><trkpt lat="42.66875989383914" lon="11.774999622262865"><ele>500.0</ele><time>2026-04-12T09:37:11Z</time></trkpt><trkpt lat="42.668811381098706" lon="11.77487766575259"><ele>500.0</ele><time>2026-04-12T09:37:12Z</time></trkpt><trkpt lat="42.66885134925606" lon="11.77475893180895"><ele>500.0</ele><time>2026-04-12T09:37:13Z</time></trkpt><trkpt lat="42.66888350621513" lon="11.774647645025102"><ele>500.0</ele><time>2026-04-12T09:37:14Z</time></trkpt><trkpt lat="42.668904460464454" lon="11.774527387458077"><ele>500.0</ele><time>2026-04-12T09:37:15Z</time></trkpt><trkpt lat="42.668898555684464" lon="11.774397139529919"><ele>500.0</ele><time>2026-04-12T09:37:16Z</time></trkpt><trkpt lat="42.668913162065316" lon="11.774225564810873"><ele>499.4</ele><time>2026-04-12T09:37:17Z</time></trkpt><trkpt lat="42.66893010413022" lon="11.774072559830252"><ele>498.8</ele><time>2026-04-12T09:37:18Z</time></trkpt><trkpt lat="42.668930262847326" lon="11.773923629677686"><ele>498.20000000000005</ele><time>2026-04-12T09:37:19Z</time></trkpt><trkpt lat="42.66894776414893" lon="11.773789225175449"><ele>497.6</ele><time>2026-04-12T09:37:20Z</time></trkpt><trkpt lat="42.66897245541941" lon="11.77365734402239"><ele>497.0</ele><time>2026-04-12T09:37:21Z</time></trkpt><trkpt lat="42.6690255878274" lon="11.773530656179991"><ele>495.66666666666663</ele><time>2026-04-12T09:37:22Z</time></trkpt><trkpt lat="42.66905110827464" lon="11.773393593146084"><ele>494.3333333333333</ele><time>2026-04-12T09:37:23Z</time></trkpt><trkpt lat="42.66904520930703" lon="11.773254253761392"><ele>493.0</ele><time>2026-04-12T09:37:24Z</time></trkpt><trkpt lat="42.66905621665123" lon="11.773133620210182"><ele>491.66666666666663</ele><time>2026-04-12T09:37:25Z</time></trkpt><trkpt lat="42.66906851722649" lon="11.773024463437437"><ele>490.3333333333333</ele><time>2026-04-12T09:37:26Z</time></trkpt><trkpt lat="42.66908266312924" lon="11.772938855932166"><ele>489.0</ele><time>2026-04-12T09:37:27Z</time></trkpt><trkpt lat="42.66912507707438" lon="11.772799396598915"><ele>489.0</ele><time>2026-04-12T09:37:29Z</time></trkpt><trkpt lat="42.669248589393575" lon="11.772721545077562"><ele>489.0</ele><time>2026-04-12T09:37:31Z</time></trkpt><trkpt lat="42.66932995230015" lon="11.772707524460223"><ele>489.0</ele><time>2026-04-12T09:37:32Z</time></trkpt><trkpt lat="42.6694284477397" lon="11.772682879402113"><ele>489.0</ele><time>2026-04-12T09:37:33Z</time></trkpt><trkpt lat="42.66951588839713" lon="11.772619543497015"><ele>489.0</ele><time>2026-04-12T09:37:34Z</time></trkpt><trkpt lat="42.669598388497036" lon="11.772523153706954"><ele>487.79999999999995</ele><time>2026-04-12T09:37:35Z</time></trkpt><trkpt lat="42.669672459931796" lon="11.77242726311243"><ele>486.59999999999997</ele><time>2026-04-12T09:37:36Z</time></trkpt><trkpt lat="42.66974177839511" lon="11.772336446742054"><ele>485.4</ele><time>2026-04-12T09:37:37Z</time></trkpt><trkpt lat="42.66980134437656" lon="11.772249103482165"><ele>484.2</ele><time>2026-04-12T09:37:38Z</time></trkpt><trkpt lat="42.66985910037083" lon="11.772137522325794"><ele>483.0</ele><time>2026-04-12T09:37:39Z</time></trkpt><trkpt lat="42.66989509603916" lon="11.772040483903801"><ele>483.0</ele><time>2026-04-12T09:37:40Z</time></trkpt><trkpt lat="42.66992116936439" lon="11.771948255560792"><ele>483.0</ele><time>2026-04-12T09:37:41Z</time></trkpt><trkpt lat="42.66992841368711" lon="11.771847703279361"><ele>483.0</ele><time>2026-04-12T09:37:42Z</time></trkpt><trkpt lat="42.66993233329139" lon="11.771747100577068"><ele>483.0</ele><time>2026-04-12T09:37:43Z</time></trkpt><trkpt lat="42.669888130894556" lon="11.771639433572554"><ele>483.0</ele><time>2026-04-12T09:37:44Z</time></trkpt><trkpt lat="42.66982458674883" lon="11.771536690187233"><ele>483.0</ele><time>2026-04-12T09:37:45Z</time></trkpt><trkpt lat="42.66975121721048" lon="11.771424850241768"><ele>483.0</ele><time>2026-04-12T09:37:46Z</time></trkpt><trkpt lat="42.66967265409455" lon="11.771290200742314"><ele>483.0</ele><time>2026-04-12T09:37:47Z</time></trkpt><trkpt lat="42.66957544997733" lon="11.77116038173061"><ele>483.0</ele><time>2026-04-12T09:37:48Z</time></trkpt><trkpt lat="42.66949074715971" lon="11.771079145649438"><ele>483.0</ele><time>2026-04-12T09:37:49Z</time></trkpt><trkpt lat="42.66939743703483" lon="11.771021144741361"><ele>483.0</ele><time>2026-04-12T09:37:50Z</time></trkpt><trkpt lat="42.66931058371301" lon="11.770918983331107"><ele>483.0</ele><time>2026-04-12T09:37:51Z</time></trkpt><trkpt lat="42.669207434097586" lon="11.770827603973503"><ele>483.0</ele><time>2026-04-12T09:37:52Z</time></trkpt><trkpt lat="42.66908495153542" lon="11.7707243175836"><ele>483.0</ele><time>2026-04-12T09:37:53Z</time></trkpt><trkpt lat="42.66896582617849" lon="11.770631095685456"><ele>483.0</ele><time>2026-04-12T09:37:54Z</time></trkpt><trkpt lat="42.668853716607124" lon="11.770546955688074"><ele>483.0</ele><time>2026-04-12T09:37:55Z</time></trkpt><trkpt lat="42.66874962189221" lon="11.770479957748869"><ele>483.0</ele><time>2026-04-12T09:37:56Z</time></trkpt><trkpt lat="42.668639636413026" lon="11.77041635985761"><ele>483.0</ele><time>2026-04-12T09:37:57Z</time></trkpt><trkpt lat="42.66851204430541" lon="11.770353578899709"><ele>483.75</ele><time>2026-04-12T09:37:58Z</time></trkpt><trkpt lat="42.668388692290414" lon="11.770300935780408"><ele>484.5</ele><time>2026-04-12T09:37:59Z</time></trkpt><trkpt lat="42.66827525394876" lon="11.770256770927297"><ele>485.25</ele><time>2026-04-12T09:38:00Z</time></trkpt><trkpt lat="42.66816978781991" lon="11.770211687034033"><ele>486.0</ele><time>2026-04-12T09:38:01Z</time></trkpt><trkpt lat="42.66805461265183" lon="11.770176513457047"><ele>487.75</ele><time>2026-04-12T09:38:02Z</time></trkpt><trkpt lat="42.6679476994127" lon="11.770111493508276"><ele>489.5</ele><time>2026-04-12T09:38:03Z</time></trkpt><trkpt lat="42.667853640323244" lon="11.770058762869374"><ele>491.25</ele><time>2026-04-12T09:38:04Z</time></trkpt><trkpt lat="42.667743378097" lon="11.770000304274502"><ele>493.0</ele><time>2026-04-12T09:38:05Z</time></trkpt><trkpt lat="42.66761412658859" lon="11.769940088700585"><ele>493.2</ele><time>2026-04-12T09:38:06Z</time></trkpt><trkpt lat="42.66751545920173" lon="11.769886445870226"><ele>493.4</ele><time>2026-04-12T09:38:07Z</time></trkpt><trkpt lat="42.66745292315242" lon="11.769858935705516"><ele>493.59999999999997</ele><time>2026-04-12T09:38:08Z</time></trkpt><trkpt lat="42.6673685954562" lon="11.76980363360608"><ele>493.79999999999995</ele><time>2026-04-12T09:38:09Z</time></trkpt><trkpt lat="42.667269208313655" lon="11.769742684802319"><ele>494.0</ele><time>2026-04-12T09:38:10Z</time></trkpt><trkpt lat="42.66717148486691" lon="11.769683856929237"><ele>494.0</ele><time>2026-04-12T09:38:11Z</time></trkpt><trkpt lat="42.66708996175452" lon="11.7696354883409"><ele>494.0</ele><time>2026-04-12T09:38:12Z</time></trkpt><trkpt lat="42.66701266358323" lon="11.76958514978479"><ele>494.0</ele><time>2026-04-12T09:38:13Z</time></trkpt><trkpt lat="42.6669294860573" lon="11.769527190753138"><ele>494.0</ele><time>2026-04-12T09:38:14Z</time></trkpt><trkpt lat="42.66684248408199" lon="11.76946055789755"><ele>494.0</ele><time>2026-04-12T09:38:15Z</time></trkpt><trkpt lat="42.6667458246917" lon="11.769374521682767"><ele>492.79999999999995</ele><time>2026-04-12T09:38:16Z</time></trkpt><trkpt lat="42.666646596301426" lon="11.769265519208112"><ele>491.59999999999997</ele><time>2026-04-12T09:38:17Z</time></trkpt><trkpt lat="42.666564901613995" lon="11.769160879743641"><ele>490.4</ele><time>2026-04-12T09:38:18Z</time></trkpt><trkpt lat="42.666483401506085" lon="11.76908776760484"><ele>489.2</ele><time>2026-04-12T09:38:19Z</time></trkpt><trkpt lat="42.666424804681995" lon="11.769010803662164"><ele>488.0</ele><time>2026-04-12T09:38:20Z</time></trkpt><trkpt lat="42.66636849562197" lon="11.768956469382022"><ele>488.0</ele><time>2026-04-12T09:38:21Z</time></trkpt><trkpt lat="42.666299873855266" lon="11.768865482692535"><ele>487.99999999999994</ele><time>2026-04-12T09:38:23Z</time></trkpt><trkpt lat="42.66628153109339" lon="11.768783390018967"><ele>487.99999999999994</ele><time>2026-04-12T09:38:25Z</time></trkpt><trkpt lat="42.666367418198064" lon="11.768666353035954"><ele>488.0</ele><time>2026-04-12T09:38:27Z</time></trkpt><trkpt lat="42.666436602107574" lon="11.768557140549412"><ele>488.0</ele><time>2026-04-12T09:38:29Z</time></trkpt><trkpt lat="42.66650681865556" lon="11.768495420807868"><ele>487.59999999999997</ele><time>2026-04-12T09:38:31Z</time></trkpt><trkpt lat="42.66656783904542" lon="11.768417771961344"><ele>487.19999999999993</ele><time>2026-04-12T09:38:41Z</time></trkpt><trkpt lat="42.66666999476973" lon="11.768288013199555"><ele>486.8</ele><time>2026-04-12T09:38:43Z</time></trkpt><trkpt lat="42.66673227431903" lon="11.768208905487318"><ele>486.4</ele><time>2026-04-12T09:38:44Z</time></trkpt><trkpt lat="42.666805875670526" lon="11.768095795901804"><ele>486.0</ele><time>2026-04-12T09:38:45Z</time></trkpt><trkpt lat="42.666905434063736" lon="11.767986378347699"><ele>485.75</ele><time>2026-04-12T09:38:46Z</time></trkpt><trkpt lat="42.66700542409966" lon="11.767854941635534"><ele>485.5</ele><time>2026-04-12T09:38:47Z</time></trkpt><trkpt lat="42.66710358579243" lon="11.767724914283725"><ele>485.25</ele><time>2026-04-12T09:38:48Z</time></trkpt><trkpt lat="42.6671858637127" lon="11.767588063217339"><ele>485.0</ele><time>2026-04-12T09:38:49Z</time></trkpt><trkpt lat="42.66725901816208" lon="11.76746569669896"><ele>485.0</ele><time>2026-04-12T09:38:50Z</time></trkpt><trkpt lat="42.667332115482665" lon="11.767345051728558"><ele>485.0</ele><time>2026-04-12T09:38:51Z</time></trkpt><trkpt lat="42.667419638648326" lon="11.767238067008645"><ele>485.0</ele><time>2026-04-12T09:38:52Z</time></trkpt><trkpt lat="42.66750591863177" lon="11.767105258651585"><ele>485.0</ele><time>2026-04-12T09:38:53Z</time></trkpt><trkpt lat="42.66760437337028" lon="11.766984260578413"><ele>485.0</ele><time>2026-04-12T09:38:54Z</time></trkpt><trkpt lat="42.66769209497829" lon="11.766863474804044"><ele>485.0</ele><time>2026-04-12T09:38:55Z</time></trkpt><trkpt lat="42.66777824261208" lon="11.76675731589678"><ele>485.0</ele><time>2026-04-12T09:38:56Z</time></trkpt><trkpt lat="42.6678895039773" lon="11.766681992619263"><ele>485.0</ele><time>2026-04-12T09:38:57Z</time></trkpt><trkpt lat="42.66797318087851" lon="11.766600784211642"><ele>486.16666666666663</ele><time>2026-04-12T09:38:58Z</time></trkpt><trkpt lat="42.66804051264046" lon="11.766554979331639"><ele>487.3333333333333</ele><time>2026-04-12T09:38:59Z</time></trkpt><trkpt lat="42.66810278605524" lon="11.766503469021822"><ele>488.5</ele><time>2026-04-12T09:39:00Z</time></trkpt><trkpt lat="42.66817564119362" lon="11.766441520391265"><ele>489.66666666666663</ele><time>2026-04-12T09:39:02Z</time></trkpt><trkpt lat="42.66825073741004" lon="11.76637865286938"><ele>490.8333333333333</ele><time>2026-04-12T09:39:27Z</time></trkpt><trkpt lat="42.668318771021724" lon="11.766317810070028"><ele>492.0</ele><time>2026-04-12T09:39:29Z</time></trkpt><trkpt lat="42.66838762155634" lon="11.766260957822798"><ele>492.0</ele><time>2026-04-12T09:39:31Z</time></trkpt><trkpt lat="42.66852973825268" lon="11.76623533581838"><ele>492.0</ele><time>2026-04-12T09:39:33Z</time></trkpt><trkpt lat="42.668633950257984" lon="11.766234413407576"><ele>492.0</ele><time>2026-04-12T09:39:34Z</time></trkpt><trkpt lat="42.66876369989249" lon="11.76623734856867"><ele>492.0</ele><time>2026-04-12T09:39:35Z</time></trkpt><trkpt lat="42.66891279402073" lon="11.766230215249509"><ele>492.25</ele><time>2026-04-12T09:39:36Z</time></trkpt><trkpt lat="42.669060257991475" lon="11.766222566906835"><ele>492.5</ele><time>2026-04-12T09:39:37Z</time></trkpt><trkpt lat="42.66920046265055" lon="11.76621607130752"><ele>492.75</ele><time>2026-04-12T09:39:38Z</time></trkpt><trkpt lat="42.6693279185022" lon="11.766222402294122"><ele>493.0</ele><time>2026-04-12T09:39:39Z</time></trkpt><trkpt lat="42.669464606924855" lon="11.766276919023603"><ele>490.33333333333337</ele><time>2026-04-12T09:39:40Z</time></trkpt><trkpt lat="42.66962118506555" lon="11.766313505605556"><ele>487.66666666666663</ele><time>2026-04-12T09:39:41Z</time></trkpt><trkpt lat="42.66978080900733" lon="11.766386885602671"><ele>485.0</ele><time>2026-04-12T09:39:42Z</time></trkpt><trkpt lat="42.66993733839996" lon="11.766461438069868"><ele>485.0</ele><time>2026-04-12T09:39:43Z</time></trkpt><trkpt lat="42.67009352722614" lon="11.766526032704288"><ele>485.0</ele><time>2026-04-12T09:39:44Z</time></trkpt><trkpt lat="42.67024335419881" lon="11.76657378600661"><ele>485.0</ele><time>2026-04-12T09:39:45Z</time></trkpt><trkpt lat="42.67039317146594" lon="11.76659128773419"><ele>484.3333333333333</ele><time>2026-04-12T09:39:46Z</time></trkpt><trkpt lat="42.67055460244679" lon="11.766576263492604"><ele>483.66666666666663</ele><time>2026-04-12T09:39:47Z</time></trkpt><trkpt lat="42.670722395797334" lon="11.766531306250206"><ele>483.0</ele><time>2026-04-12T09:39:48Z</time></trkpt><trkpt lat="42.67089546728321" lon="11.766481709677008"><ele>483.0</ele><time>2026-04-12T09:39:49Z</time></trkpt><trkpt lat="42.67106602990353" lon="11.76643400045882"><ele>483.0</ele><time>2026-04-12T09:39:50Z</time></trkpt><trkpt lat="42.67123371293115" lon="11.766389339142224"><ele>483.0</ele><time>2026-04-12T09:39:51Z</time></trkpt><trkpt lat="42.671406722730005" lon="11.766337932599008"><ele>481.0</ele><time>2026-04-12T09:39:52Z</time></trkpt><trkpt lat="42.671578270310995" lon="11.766265974925092"><ele>479.0</ele><time>2026-04-12T09:39:53Z</time></trkpt><trkpt lat="42.671744588580125" lon="11.766166161486934"><ele>477.0</ele><time>2026-04-12T09:39:54Z</time></trkpt><trkpt lat="42.671911681272185" lon="11.76608582917003"><ele>475.66666666666663</ele><time>2026-04-12T09:39:55Z</time></trkpt><trkpt lat="42.672058456981965" lon="11.765982477660911"><ele>474.3333333333333</ele><time>2026-04-12T09:39:56Z</time></trkpt><trkpt lat="42.672211587689475" lon="11.765905910348627"><ele>473.0</ele><time>2026-04-12T09:39:57Z</time></trkpt><trkpt lat="42.6723608910134" lon="11.76582647675259"><ele>473.0</ele><time>2026-04-12T09:39:58Z</time></trkpt><trkpt lat="42.67250812978912" lon="11.765741359138557"><ele>473.0</ele><time>2026-04-12T09:39:59Z</time></trkpt><trkpt lat="42.67266621353468" lon="11.765651460120326"><ele>473.0</ele><time>2026-04-12T09:40:00Z</time></trkpt><trkpt lat="42.672837891876014" lon="11.765579111062834"><ele>473.3333333333333</ele><time>2026-04-12T09:40:01Z</time></trkpt><trkpt lat="42.67299077199628" lon="11.765514007674662"><ele>473.66666666666663</ele><time>2026-04-12T09:40:02Z</time></trkpt><trkpt lat="42.67314752647781" lon="11.765476389593244"><ele>474.0</ele><time>2026-04-12T09:40:03Z</time></trkpt><trkpt lat="42.67330534301805" lon="11.7655264779781"><ele>474.0</ele><time>2026-04-12T09:40:04Z</time></trkpt><trkpt lat="42.67347661308031" lon="11.765595586933843"><ele>474.0</ele><time>2026-04-12T09:40:05Z</time></trkpt><trkpt lat="42.673617393588245" lon="11.76569235894481"><ele>474.0</ele><time>2026-04-12T09:40:06Z</time></trkpt><trkpt lat="42.67375688671453" lon="11.765780962803246"><ele>476.66666666666663</ele><time>2026-04-12T09:40:07Z</time></trkpt><trkpt lat="42.67390658137827" lon="11.765863682256645"><ele>479.3333333333333</ele><time>2026-04-12T09:40:08Z</time></trkpt><trkpt lat="42.67405865406047" lon="11.765932755038795"><ele>482.0</ele><time>2026-04-12T09:40:09Z</time></trkpt><trkpt lat="42.674207775266666" lon="11.766032085228723"><ele>482.3333333333333</ele><time>2026-04-12T09:40:10Z</time></trkpt><trkpt lat="42.6743584413193" lon="11.766130005335341"><ele>482.66666666666663</ele><time>2026-04-12T09:40:11Z</time></trkpt><trkpt lat="42.67451269739265" lon="11.766219693215392"><ele>483.0</ele><time>2026-04-12T09:40:12Z</time></trkpt><trkpt lat="42.674663757050325" lon="11.766317197084405"><ele>483.0</ele><time>2026-04-12T09:40:13Z</time></trkpt><trkpt lat="42.6748244281754" lon="11.76641413105825"><ele>483.0</ele><time>2026-04-12T09:40:14Z</time></trkpt><trkpt lat="42.67499024061057" lon="11.766512043138402"><ele>483.0</ele><time>2026-04-12T09:40:15Z</time></trkpt><trkpt lat="42.67515781423376" lon="11.766613499759176"><ele>482.0</ele><time>2026-04-12T09:40:16Z</time></trkpt><trkpt lat="42.6753291010009" lon="11.766703812319722"><ele>481.0</ele><time>2026-04-12T09:40:17Z</time></trkpt><trkpt lat="42.675512091422505" lon="11.766771472979867"><ele>480.0</ele><time>2026-04-12T09:40:18Z</time></trkpt><trkpt lat="42.67569839848733" lon="11.766824936139294"><ele>480.0</ele><time>2026-04-12T09:40:19Z</time></trkpt><trkpt lat="42.67588447445441" lon="11.76688129629058"><ele>480.0</ele><time>2026-04-12T09:40:20Z</time></trkpt><trkpt lat="42.676060972353056" lon="11.766928353529638"><ele>480.0</ele><time>2026-04-12T09:40:21Z</time></trkpt><trkpt lat="42.67621902988872" lon="11.766978992656178"><ele>480.0</ele><time>2026-04-12T09:40:22Z</time></trkpt><trkpt lat="42.676371482392504" lon="11.76701765197293"><ele>480.0</ele><time>2026-04-12T09:40:23Z</time></trkpt><trkpt lat="42.67650994898581" lon="11.767053025016066"><ele>480.0</ele><time>2026-04-12T09:40:24Z</time></trkpt><trkpt lat="42.676622540239926" lon="11.767142258838291"><ele>480.0</ele><time>2026-04-12T09:40:25Z</time></trkpt><trkpt lat="42.67673634638407" lon="11.767246281792694"><ele>480.0</ele><time>2026-04-12T09:40:26Z</time></trkpt><trkpt lat="42.676814273935314" lon="11.767393508727894"><ele>480.0</ele><time>2026-04-12T09:40:27Z</time></trkpt><trkpt lat="42.67683818398101" lon="11.767536293520957"><ele>480.0</ele><time>2026-04-12T09:40:28Z</time></trkpt><trkpt lat="42.676827460081704" lon="11.767678751929687"><ele>480.0</ele><time>2026-04-12T09:40:29Z</time></trkpt><trkpt lat="42.67678055071746" lon="11.76784080089254"><ele>479.0</ele><time>2026-04-12T09:40:30Z</time></trkpt><trkpt lat="42.67672539390229" lon="11.768009081654515"><ele>478.0</ele><time>2026-04-12T09:40:31Z</time></trkpt><trkpt lat="42.67665945285491" lon="11.768233563618603"><ele>477.0</ele><time>2026-04-12T09:40:32Z</time></trkpt><trkpt lat="42.67660125636964" lon="11.768420390758122"><ele>474.66666666666663</ele><time>2026-04-12T09:40:33Z</time></trkpt><trkpt lat="42.676550721242016" lon="11.768619289091152"><ele>472.3333333333333</ele><time>2026-04-12T09:40:34Z</time></trkpt><trkpt lat="42.676480497200515" lon="11.768835207144816"><ele>470.0</ele><time>2026-04-12T09:40:35Z</time></trkpt><trkpt lat="42.6763864666586" lon="11.769042817651783"><ele>470.0</ele><time>2026-04-12T09:40:36Z</time></trkpt><trkpt lat="42.676286498293905" lon="11.769264834851015"><ele>470.0</ele><time>2026-04-12T09:40:37Z</time></trkpt><trkpt lat="42.67619810136334" lon="11.769466985028942"><ele>470.0</ele><time>2026-04-12T09:40:38Z</time></trkpt><trkpt lat="42.676114231778996" lon="11.769638758896685"><ele>469.75</ele><time>2026-04-12T09:40:39Z</time></trkpt><trkpt lat="42.67605238177864" lon="11.769800162950919"><ele>469.5</ele><time>2026-04-12T09:40:40Z</time></trkpt><trkpt lat="42.67601282632966" lon="11.769965511805003"><ele>469.25</ele><time>2026-04-12T09:40:41Z</time></trkpt><trkpt lat="42.67599708513322" lon="11.770125272996058"><ele>469.0</ele><time>2026-04-12T09:40:42Z</time></trkpt><trkpt lat="42.676039884245675" lon="11.770288967879544"><ele>471.0</ele><time>2026-04-12T09:40:43Z</time></trkpt><trkpt lat="42.67613107275567" lon="11.770428467880675"><ele>473.0</ele><time>2026-04-12T09:40:44Z</time></trkpt><trkpt lat="42.676230662538174" lon="11.77052523366769"><ele>475.0</ele><time>2026-04-12T09:40:45Z</time></trkpt><trkpt lat="42.67635518434029" lon="11.770565592595034"><ele>477.0</ele><time>2026-04-12T09:40:46Z</time></trkpt><trkpt lat="42.676482066024654" lon="11.77056020651795"><ele>477.0</ele><time>2026-04-12T09:40:47Z</time></trkpt><trkpt lat="42.67660348170042" lon="11.770499412856706"><ele>477.0</ele><time>2026-04-12T09:40:48Z</time></trkpt><trkpt lat="42.67669807435842" lon="11.77038161789445"><ele>477.0</ele><time>2026-04-12T09:40:49Z</time></trkpt><trkpt lat="42.67675637933537" lon="11.770224678187486"><ele>477.0</ele><time>2026-04-12T09:40:50Z</time></trkpt><trkpt lat="42.67678713194074" lon="11.770082064404175"><ele>477.75</ele><time>2026-04-12T09:40:51Z</time></trkpt><trkpt lat="42.676826650746676" lon="11.76993557307423"><ele>478.5</ele><time>2026-04-12T09:40:52Z</time></trkpt><trkpt lat="42.67688582823848" lon="11.769789766423553"><ele>479.25</ele><time>2026-04-12T09:40:53Z</time></trkpt><trkpt lat="42.67693695116703" lon="11.769629424960334"><ele>480.0</ele><time>2026-04-12T09:40:54Z</time></trkpt><trkpt lat="42.67700148182908" lon="11.769460879331197"><ele>478.25</ele><time>2026-04-12T09:40:55Z</time></trkpt><trkpt lat="42.67706240296592" lon="11.76928300951326"><ele>476.5</ele><time>2026-04-12T09:40:56Z</time></trkpt><trkpt lat="42.677111086342585" lon="11.76908284724186"><ele>474.75</ele><time>2026-04-12T09:40:57Z</time></trkpt><trkpt lat="42.67715048459113" lon="11.76889039807027"><ele>473.0</ele><time>2026-04-12T09:40:58Z</time></trkpt><trkpt lat="42.67719116695261" lon="11.768716420495313"><ele>473.0</ele><time>2026-04-12T09:40:59Z</time></trkpt><trkpt lat="42.6772614731952" lon="11.76856787591192"><ele>473.0</ele><time>2026-04-12T09:41:00Z</time></trkpt><trkpt lat="42.67734583479731" lon="11.768432369993493"><ele>473.0</ele><time>2026-04-12T09:41:01Z</time></trkpt><trkpt lat="42.67747262092633" lon="11.768358949626295"><ele>473.0</ele><time>2026-04-12T09:41:02Z</time></trkpt><trkpt lat="42.67762668561488" lon="11.76832223884829"><ele>471.66666666666663</ele><time>2026-04-12T09:41:03Z</time></trkpt><trkpt lat="42.677794854384466" lon="11.768275150494448"><ele>470.33333333333337</ele><time>2026-04-12T09:41:04Z</time></trkpt><trkpt lat="42.67794222537478" lon="11.768220701793997"><ele>469.0</ele><time>2026-04-12T09:41:05Z</time></trkpt><trkpt lat="42.67806908316602" lon="11.768137987182268"><ele>469.0</ele><time>2026-04-12T09:41:06Z</time></trkpt><trkpt lat="42.67819128304701" lon="11.768048834968514"><ele>469.0</ele><time>2026-04-12T09:41:07Z</time></trkpt><trkpt lat="42.678331496764265" lon="11.76800710635249"><ele>469.0</ele><time>2026-04-12T09:41:08Z</time></trkpt><trkpt lat="42.678453547878135" lon="11.767977122118808"><ele>469.0</ele><time>2026-04-12T09:41:09Z</time></trkpt><trkpt lat="42.67856730856849" lon="11.76802347154989"><ele>469.0</ele><time>2026-04-12T09:41:10Z</time></trkpt><trkpt lat="42.67867479768236" lon="11.768126323755018"><ele>469.0</ele><time>2026-04-12T09:41:11Z</time></trkpt><trkpt lat="42.67878454409685" lon="11.768264424215397"><ele>469.0</ele><time>2026-04-12T09:41:12Z</time></trkpt><trkpt lat="42.67889724046959" lon="11.76841671087546"><ele>469.0</ele><time>2026-04-12T09:41:13Z</time></trkpt><trkpt lat="42.679012252846334" lon="11.768548696488864"><ele>469.5</ele><time>2026-04-12T09:41:14Z</time></trkpt><trkpt lat="42.67912277230326" lon="11.768677007370224"><ele>470.0</ele><time>2026-04-12T09:41:15Z</time></trkpt><trkpt lat="42.67925183851374" lon="11.768760740992962"><ele>470.5</ele><time>2026-04-12T09:41:16Z</time></trkpt><trkpt lat="42.67940833669069" lon="11.76881068679595"><ele>471.0</ele><time>2026-04-12T09:41:17Z</time></trkpt><trkpt lat="42.67957224751444" lon="11.768793315832529"><ele>471.66666666666663</ele><time>2026-04-12T09:41:18Z</time></trkpt><trkpt lat="42.67972976443819" lon="11.76878983968882"><ele>472.3333333333333</ele><time>2026-04-12T09:41:19Z</time></trkpt><trkpt lat="42.67989258018684" lon="11.768776155110983"><ele>473.0</ele><time>2026-04-12T09:41:20Z</time></trkpt><trkpt lat="42.680055496228334" lon="11.768786615783428"><ele>473.0</ele><time>2026-04-12T09:41:21Z</time></trkpt><trkpt lat="42.68022849909671" lon="11.768786129370714"><ele>473.0</ele><time>2026-04-12T09:41:22Z</time></trkpt><trkpt lat="42.68040443547767" lon="11.76880024117061"><ele>473.0</ele><time>2026-04-12T09:41:23Z</time></trkpt><trkpt lat="42.680584343974694" lon="11.768807303611684"><ele>473.66666666666663</ele><time>2026-04-12T09:41:24Z</time></trkpt><trkpt lat="42.680765215205184" lon="11.768825051742828"><ele>474.33333333333337</ele><time>2026-04-12T09:41:25Z</time></trkpt><trkpt lat="42.68094884322116" lon="11.768887280101278"><ele>475.0</ele><time>2026-04-12T09:41:26Z</time></trkpt><trkpt lat="42.6811345845009" lon="11.76891981917815"><ele>476.33333333333337</ele><time>2026-04-12T09:41:27Z</time></trkpt><trkpt lat="42.681320422142896" lon="11.768976614734207"><ele>477.66666666666663</ele><time>2026-04-12T09:41:28Z</time></trkpt><trkpt lat="42.68150050364002" lon="11.769025232082129"><ele>479.0</ele><time>2026-04-12T09:41:29Z</time></trkpt><trkpt lat="42.68167954254128" lon="11.769072740777144"><ele>479.0</ele><time>2026-04-12T09:41:30Z</time></trkpt><trkpt lat="42.68185899607766" lon="11.769117759168683"><ele>479.0</ele><time>2026-04-12T09:41:31Z</time></trkpt><trkpt lat="42.6820487147963" lon="11.769160700590762"><ele>479.0</ele><time>2026-04-12T09:41:32Z</time></trkpt><trkpt lat="42.682253601033196" lon="11.769176461353695"><ele>479.66666666666663</ele><time>2026-04-12T09:41:33Z</time></trkpt><trkpt lat="42.68246550570953" lon="11.769175965047415"><ele>480.33333333333337</ele><time>2026-04-12T09:41:34Z</time></trkpt><trkpt lat="42.68266518389898" lon="11.769172369581012"><ele>481.0</ele><time>2026-04-12T09:41:35Z</time></trkpt><trkpt lat="42.682845726494016" lon="11.769177547993095"><ele>481.6666666666667</ele><time>2026-04-12T09:41:36Z</time></trkpt><trkpt lat="42.683021243128245" lon="11.769188653981487"><ele>482.33333333333337</ele><time>2026-04-12T09:41:37Z</time></trkpt><trkpt lat="42.6832009433901" lon="11.769196890676058"><ele>483.0</ele><time>2026-04-12T09:41:38Z</time></trkpt><trkpt lat="42.68337655878126" lon="11.769202773658774"><ele>483.0</ele><time>2026-04-12T09:41:39Z</time></trkpt><trkpt lat="42.68355146301911" lon="11.769205891332955"><ele>483.0</ele><time>2026-04-12T09:41:40Z</time></trkpt><trkpt lat="42.683726742137516" lon="11.769208617818855"><ele>483.0</ele><time>2026-04-12T09:41:41Z</time></trkpt><trkpt lat="42.68390413529116" lon="11.769215637570696"><ele>482.66666666666663</ele><time>2026-04-12T09:41:42Z</time></trkpt><trkpt lat="42.684063187619635" lon="11.769223397200573"><ele>482.3333333333333</ele><time>2026-04-12T09:41:43Z</time></trkpt><trkpt lat="42.68422040990783" lon="11.769229946690533"><ele>482.0</ele><time>2026-04-12T09:41:44Z</time></trkpt><trkpt lat="42.68437070903802" lon="11.769233241246486"><ele>480.75</ele><time>2026-04-12T09:41:45Z</time></trkpt><trkpt lat="42.68451823873253" lon="11.76923184510206"><ele>479.5</ele><time>2026-04-12T09:41:46Z</time></trkpt><trkpt lat="42.68466460480073" lon="11.76921635381312"><ele>478.25</ele><time>2026-04-12T09:41:47Z</time></trkpt><trkpt lat="42.68481015411894" lon="11.76916936193925"><ele>477.0</ele><time>2026-04-12T09:41:48Z</time></trkpt><trkpt lat="42.68496456938393" lon="11.769064330159775"><ele>477.0</ele><time>2026-04-12T09:41:49Z</time></trkpt><trkpt lat="42.685113348903656" lon="11.768916116937627"><ele>477.0</ele><time>2026-04-12T09:41:50Z</time></trkpt><trkpt lat="42.68527102958681" lon="11.768784346683871"><ele>477.0</ele><time>2026-04-12T09:41:51Z</time></trkpt><trkpt lat="42.685413947834164" lon="11.768652789594027"><ele>475.66666666666663</ele><time>2026-04-12T09:41:52Z</time></trkpt><trkpt lat="42.68555200492493" lon="11.768525438369185"><ele>474.3333333333333</ele><time>2026-04-12T09:41:53Z</time></trkpt><trkpt lat="42.685678396373525" lon="11.768411680158176"><ele>473.0</ele><time>2026-04-12T09:41:54Z</time></trkpt><trkpt lat="42.685800066518695" lon="11.768275959711058"><ele>473.0</ele><time>2026-04-12T09:41:55Z</time></trkpt><trkpt lat="42.68595311091485" lon="11.76816569939357"><ele>473.0</ele><time>2026-04-12T09:41:56Z</time></trkpt><trkpt lat="42.686096779582726" lon="11.76801315938244"><ele>473.0</ele><time>2026-04-12T09:41:57Z</time></trkpt><trkpt lat="42.68624911157949" lon="11.767874950367217"><ele>473.3333333333333</ele><time>2026-04-12T09:41:58Z</time></trkpt><trkpt lat="42.686393996312084" lon="11.767743746923134"><ele>473.66666666666663</ele><time>2026-04-12T09:41:59Z</time></trkpt><trkpt lat="42.686536303252204" lon="11.767648830587632"><ele>474.0</ele><time>2026-04-12T09:42:00Z</time></trkpt><trkpt lat="42.686676807520485" lon="11.767548832429918"><ele>474.0</ele><time>2026-04-12T09:42:01Z</time></trkpt><trkpt lat="42.68683570605875" lon="11.767488875668178"><ele>474.0</ele><time>2026-04-12T09:42:02Z</time></trkpt><trkpt lat="42.686985290733006" lon="11.767481419013771"><ele>474.0</ele><time>2026-04-12T09:42:03Z</time></trkpt><trkpt lat="42.68712403924985" lon="11.76748273487324"><ele>474.75</ele><time>2026-04-12T09:42:04Z</time></trkpt><trkpt lat="42.687254857268336" lon="11.7674718710672"><ele>475.5</ele><time>2026-04-12T09:42:05Z</time></trkpt><trkpt lat="42.68738776145949" lon="11.767476739684954"><ele>476.25</ele><time>2026-04-12T09:42:06Z</time></trkpt><trkpt lat="42.68753027384575" lon="11.767473302989352"><ele>477.0</ele><time>2026-04-12T09:42:07Z</time></trkpt><trkpt lat="42.68767837350561" lon="11.76747167630954"><ele>478.33333333333337</ele><time>2026-04-12T09:42:08Z</time></trkpt><trkpt lat="42.68783156626628" lon="11.767478185333479"><ele>479.6666666666667</ele><time>2026-04-12T09:42:09Z</time></trkpt><trkpt lat="42.687988485480844" lon="11.767487469187444"><ele>481.0</ele><time>2026-04-12T09:42:10Z</time></trkpt><trkpt lat="42.68814872701724" lon="11.767482803558856"><ele>481.0</ele><time>2026-04-12T09:42:11Z</time></trkpt><trkpt lat="42.68828984240458" lon="11.767487239447746"><ele>481.0</ele><time>2026-04-12T09:42:12Z</time></trkpt><trkpt lat="42.688417989832395" lon="11.7674858054765"><ele>481.0</ele><time>2026-04-12T09:42:13Z</time></trkpt><trkpt lat="42.688519605530594" lon="11.767499539760765"><ele>481.0</ele><time>2026-04-12T09:42:14Z</time></trkpt><trkpt lat="42.68860938526812" lon="11.767545853121547"><ele>481.0</ele><time>2026-04-12T09:42:15Z</time></trkpt><trkpt lat="42.68868359556245" lon="11.767591202024265"><ele>481.0</ele><time>2026-04-12T09:42:16Z</time></trkpt><trkpt lat="42.68872244862983" lon="11.767856043342556"><ele>481.0</ele><time>2026-04-12T09:42:18Z</time></trkpt><trkpt lat="42.68871591621223" lon="11.768003700908542"><ele>481.0</ele><time>2026-04-12T09:42:19Z</time></trkpt><trkpt lat="42.68869527593812" lon="11.768177276674475"><ele>481.0</ele><time>2026-04-12T09:42:20Z</time></trkpt><trkpt lat="42.68867336333264" lon="11.768370966143667"><ele>481.0</ele><time>2026-04-12T09:42:21Z</time></trkpt><trkpt lat="42.688651763136946" lon="11.768591135872486"><ele>481.0</ele><time>2026-04-12T09:42:22Z</time></trkpt><trkpt lat="42.6886353134592" lon="11.768796880339803"><ele>481.20000000000005</ele><time>2026-04-12T09:42:23Z</time></trkpt><trkpt lat="42.68862678961293" lon="11.768962343144668"><ele>481.40000000000003</ele><time>2026-04-12T09:42:24Z</time></trkpt><trkpt lat="42.688628964427934" lon="11.769112983389146"><ele>481.6</ele><time>2026-04-12T09:42:25Z</time></trkpt><trkpt lat="42.68863198149922" lon="11.769255445581415"><ele>481.8</ele><time>2026-04-12T09:42:26Z</time></trkpt><trkpt lat="42.68863657560743" lon="11.76938563818644"><ele>482.0</ele><time>2026-04-12T09:42:27Z</time></trkpt><trkpt lat="42.688640041421124" lon="11.76949269146614"><ele>482.20000000000005</ele><time>2026-04-12T09:42:28Z</time></trkpt><trkpt lat="42.68866672327007" lon="11.769631060103984"><ele>482.40000000000003</ele><time>2026-04-12T09:42:30Z</time></trkpt><trkpt lat="42.68876375813104" lon="11.76966954612686"><ele>482.59999999999997</ele><time>2026-04-12T09:42:32Z</time></trkpt><trkpt lat="42.68888489520189" lon="11.769640311353726"><ele>482.79999999999995</ele><time>2026-04-12T09:42:34Z</time></trkpt><trkpt lat="42.6889577587628" lon="11.769609694668858"><ele>483.0</ele><time>2026-04-12T09:42:35Z</time></trkpt><trkpt lat="42.68905756944239" lon="11.769563734932158"><ele>483.0</ele><time>2026-04-12T09:42:36Z</time></trkpt><trkpt lat="42.68916015592043" lon="11.769525203495999"><ele>482.99999999999994</ele><time>2026-04-12T09:42:37Z</time></trkpt><trkpt lat="42.689255427494665" lon="11.76946434331281"><ele>482.99999999999994</ele><time>2026-04-12T09:42:38Z</time></trkpt><trkpt lat="42.68935198095976" lon="11.769428597309112"><ele>483.0</ele><time>2026-04-12T09:42:39Z</time></trkpt><trkpt lat="42.68943912187898" lon="11.769370665037513"><ele>483.0</ele><time>2026-04-12T09:42:40Z</time></trkpt><trkpt lat="42.68951972957047" lon="11.769291319024438"><ele>482.8333333333333</ele><time>2026-04-12T09:42:41Z</time></trkpt><trkpt lat="42.68959862022282" lon="11.769244742262098"><ele>482.66666666666663</ele><time>2026-04-12T09:42:42Z</time></trkpt><trkpt lat="42.68967453202293" lon="11.76920146995845"><ele>482.5</ele><time>2026-04-12T09:42:43Z</time></trkpt><trkpt lat="42.68976063764559" lon="11.76913699704343"><ele>482.3333333333333</ele><time>2026-04-12T09:42:44Z</time></trkpt><trkpt lat="42.68983193468886" lon="11.76906903697067"><ele>482.16666666666663</ele><time>2026-04-12T09:42:45Z</time></trkpt><trkpt lat="42.689903837852754" lon="11.769015129305346"><ele>482.0</ele><time>2026-04-12T09:42:46Z</time></trkpt><trkpt lat="42.68997059763615" lon="11.768980980917291"><ele>482.0</ele><time>2026-04-12T09:42:47Z</time></trkpt><trkpt lat="42.69001558567615" lon="11.76890800923662"><ele>482.00000000000006</ele><time>2026-04-12T09:42:48Z</time></trkpt><trkpt lat="42.690084483314266" lon="11.768903525384399"><ele>482.00000000000006</ele><time>2026-04-12T09:42:49Z</time></trkpt><trkpt lat="42.69011826129342" lon="11.76880308296403"><ele>482.0</ele><time>2026-04-12T09:42:50Z</time></trkpt><trkpt lat="42.69017941159903" lon="11.76868939301139"><ele>482.0</ele><time>2026-04-12T09:42:52Z</time></trkpt><trkpt lat="42.69027311267046" lon="11.768562008794493"><ele>482.28571428571433</ele><time>2026-04-12T09:42:54Z</time></trkpt><trkpt lat="42.69032024385279" lon="11.768499202517425"><ele>482.5714285714286</ele><time>2026-04-12T09:42:55Z</time></trkpt><trkpt lat="42.69036707390663" lon="11.76843706901604"><ele>482.8571428571429</ele><time>2026-04-12T09:42:56Z</time></trkpt><trkpt lat="42.690432361540545" lon="11.76840215835835"><ele>483.1428571428571</ele><time>2026-04-12T09:42:57Z</time></trkpt><trkpt lat="42.69049990232815" lon="11.768368235066509"><ele>483.4285714285714</ele><time>2026-04-12T09:42:58Z</time></trkpt><trkpt lat="42.69056796258322" lon="11.768319036571764"><ele>483.71428571428567</ele><time>2026-04-12T09:42:59Z</time></trkpt><trkpt lat="42.69064383823625" lon="11.76829135660332"><ele>484.0</ele><time>2026-04-12T09:43:00Z</time></trkpt><trkpt lat="42.69072033974907" lon="11.768260686169718"><ele>484.00000000000006</ele><time>2026-04-12T09:43:01Z</time></trkpt><trkpt lat="42.69080227771457" lon="11.768231693187236"><ele>484.0</ele><time>2026-04-12T09:43:02Z</time></trkpt><trkpt lat="42.69088927726571" lon="11.768207770679648"><ele>484.0</ele><time>2026-04-12T09:43:03Z</time></trkpt><trkpt lat="42.69097927887314" lon="11.768183106589674"><ele>484.0</ele><time>2026-04-12T09:43:04Z</time></trkpt><trkpt lat="42.69106334947128" lon="11.768155286250702"><ele>484.00000000000006</ele><time>2026-04-12T09:43:05Z</time></trkpt><trkpt lat="42.69114808420309" lon="11.768129570120502"><ele>484.0</ele><time>2026-04-12T09:43:06Z</time></trkpt><trkpt lat="42.69123435017357" lon="11.768104834514421"><ele>483.2</ele><time>2026-04-12T09:43:07Z</time></trkpt><trkpt lat="42.69132209957793" lon="11.768074190994414"><ele>482.4</ele><time>2026-04-12T09:43:08Z</time></trkpt><trkpt lat="42.69141407865195" lon="11.768040395614188"><ele>481.6</ele><time>2026-04-12T09:43:09Z</time></trkpt><trkpt lat="42.69150270846108" lon="11.768010030784678"><ele>480.8</ele><time>2026-04-12T09:43:10Z</time></trkpt><trkpt lat="42.69158969853708" lon="11.767987917521038"><ele>480.0</ele><time>2026-04-12T09:43:11Z</time></trkpt><trkpt lat="42.69169437477739" lon="11.767956188999849"><ele>480.0</ele><time>2026-04-12T09:43:12Z</time></trkpt><trkpt lat="42.69179614122667" lon="11.767924384015267"><ele>480.0</ele><time>2026-04-12T09:43:13Z</time></trkpt><trkpt lat="42.691886134916125" lon="11.767895298422392"><ele>480.0</ele><time>2026-04-12T09:43:14Z</time></trkpt><trkpt lat="42.691967885524654" lon="11.767884225561465"><ele>480.0</ele><time>2026-04-12T09:43:15Z</time></trkpt><trkpt lat="42.6920570507031" lon="11.76785127498704"><ele>480.0</ele><time>2026-04-12T09:43:16Z</time></trkpt><trkpt lat="42.69214910270081" lon="11.76781079080881"><ele>479.2</ele><time>2026-04-12T09:43:17Z</time></trkpt><trkpt lat="42.69224779158009" lon="11.767766449566823"><ele>478.4</ele><time>2026-04-12T09:43:18Z</time></trkpt><trkpt lat="42.692328917843135" lon="11.767727194948167"><ele>477.6</ele><time>2026-04-12T09:43:19Z</time></trkpt><trkpt lat="42.69240658789525" lon="11.767686817569244"><ele>476.8</ele><time>2026-04-12T09:43:20Z</time></trkpt><trkpt lat="42.692487827244555" lon="11.76764204465908"><ele>476.0</ele><time>2026-04-12T09:43:21Z</time></trkpt><trkpt lat="42.69257040443729" lon="11.767595426128198"><ele>476.0</ele><time>2026-04-12T09:43:22Z</time></trkpt><trkpt lat="42.69265474344726" lon="11.767547813000713"><ele>476.0</ele><time>2026-04-12T09:43:23Z</time></trkpt><trkpt lat="42.69274491912189" lon="11.76749690482193"><ele>476.0</ele><time>2026-04-12T09:43:24Z</time></trkpt><trkpt lat="42.69283688001657" lon="11.767444988757884"><ele>476.0</ele><time>2026-04-12T09:43:25Z</time></trkpt><trkpt lat="42.69293379982075" lon="11.767392079040006"><ele>476.0</ele><time>2026-04-12T09:43:26Z</time></trkpt><trkpt lat="42.69303145506032" lon="11.767339741473808"><ele>475.20000000000005</ele><time>2026-04-12T09:43:27Z</time></trkpt><trkpt lat="42.693126226274046" lon="11.767270362198595"><ele>474.40000000000003</ele><time>2026-04-12T09:43:28Z</time></trkpt><trkpt lat="42.693222180062904" lon="11.767218857799287"><ele>473.6</ele><time>2026-04-12T09:43:29Z</time></trkpt><trkpt lat="42.693325001886215" lon="11.767194783697002"><ele>472.8</ele><time>2026-04-12T09:43:30Z</time></trkpt><trkpt lat="42.69342070778008" lon="11.767151315099122"><ele>472.0</ele><time>2026-04-12T09:43:31Z</time></trkpt><trkpt lat="42.693512925307346" lon="11.767116215749592"><ele>471.0</ele><time>2026-04-12T09:43:32Z</time></trkpt><trkpt lat="42.69360604341087" lon="11.767088894176526"><ele>470.00000000000006</ele><time>2026-04-12T09:43:33Z</time></trkpt><trkpt lat="42.693701576282315" lon="11.767068722736267"><ele>469.00000000000006</ele><time>2026-04-12T09:43:34Z</time></trkpt><trkpt lat="42.69379951481189" lon="11.767051912253542"><ele>468.0</ele><time>2026-04-12T09:43:35Z</time></trkpt><trkpt lat="42.69390391678144" lon="11.767035548546962"><ele>467.0</ele><time>2026-04-12T09:43:36Z</time></trkpt><trkpt lat="42.69401404772572" lon="11.767018286903737"><ele>467.0</ele><time>2026-04-12T09:43:37Z</time></trkpt><trkpt lat="42.69411959672017" lon="11.76698484389589"><ele>467.0</ele><time>2026-04-12T09:43:38Z</time></trkpt><trkpt lat="42.6942323101517" lon="11.766979885202035"><ele>467.0</ele><time>2026-04-12T09:43:39Z</time></trkpt><trkpt lat="42.694340317788516" lon="11.766959121612413"><ele>467.0</ele><time>2026-04-12T09:43:40Z</time></trkpt><trkpt lat="42.69446041362351" lon="11.76694102546727"><ele>465.5</ele><time>2026-04-12T09:43:41Z</time></trkpt><trkpt lat="42.694579011993284" lon="11.76693169970489"><ele>464.0</ele><time>2026-04-12T09:43:42Z</time></trkpt><trkpt lat="42.69468965890354" lon="11.766914093583463"><ele>462.5</ele><time>2026-04-12T09:43:43Z</time></trkpt><trkpt lat="42.69480988075363" lon="11.766886681787666"><ele>461.0</ele><time>2026-04-12T09:43:44Z</time></trkpt><trkpt lat="42.694919624372055" lon="11.766879437938533"><ele>461.0</ele><time>2026-04-12T09:43:45Z</time></trkpt><trkpt lat="42.69502966489225" lon="11.76687041095094"><ele>461.0</ele><time>2026-04-12T09:43:46Z</time></trkpt><trkpt lat="42.695148135867846" lon="11.766860479370353"><ele>461.0</ele><time>2026-04-12T09:43:47Z</time></trkpt><trkpt lat="42.695273748322144" lon="11.766857421601628"><ele>461.0</ele><time>2026-04-12T09:43:48Z</time></trkpt><trkpt lat="42.695399011418445" lon="11.76684760949557"><ele>461.0</ele><time>2026-04-12T09:43:49Z</time></trkpt><trkpt lat="42.695517414794395" lon="11.76684876076143"><ele>461.0</ele><time>2026-04-12T09:43:50Z</time></trkpt><trkpt lat="42.69563423415913" lon="11.766848142932115"><ele>461.0</ele><time>2026-04-12T09:43:51Z</time></trkpt><trkpt lat="42.69574749471999" lon="11.766849659392255"><ele>461.0</ele><time>2026-04-12T09:43:52Z</time></trkpt><trkpt lat="42.69584812485319" lon="11.766842552780641"><ele>461.0</ele><time>2026-04-12T09:43:53Z</time></trkpt><trkpt lat="42.69595341246119" lon="11.766856845075553"><ele>461.0</ele><time>2026-04-12T09:43:54Z</time></trkpt><trkpt lat="42.69605414747924" lon="11.766845293480047"><ele>461.0</ele><time>2026-04-12T09:43:55Z</time></trkpt><trkpt lat="42.69615154991931" lon="11.766809591908924"><ele>461.0</ele><time>2026-04-12T09:43:56Z</time></trkpt><trkpt lat="42.69624178412151" lon="11.766798010109042"><ele>461.0</ele><time>2026-04-12T09:43:57Z</time></trkpt><trkpt lat="42.69634958261432" lon="11.766785210403974"><ele>461.0</ele><time>2026-04-12T09:43:58Z</time></trkpt><trkpt lat="42.69646266595084" lon="11.766768502032285"><ele>460.75</ele><time>2026-04-12T09:43:59Z</time></trkpt><trkpt lat="42.69657116645155" lon="11.766722421883163"><ele>460.5</ele><time>2026-04-12T09:44:00Z</time></trkpt><trkpt lat="42.69668010569103" lon="11.766638501570622"><ele>460.25</ele><time>2026-04-12T09:44:01Z</time></trkpt><trkpt lat="42.696793284637536" lon="11.766547852586397"><ele>460.0</ele><time>2026-04-12T09:44:02Z</time></trkpt><trkpt lat="42.69688814128114" lon="11.766478192033214"><ele>460.4</ele><time>2026-04-12T09:44:03Z</time></trkpt><trkpt lat="42.69697681404079" lon="11.76642844975601"><ele>460.8</ele><time>2026-04-12T09:44:04Z</time></trkpt><trkpt lat="42.697071027812285" lon="11.76641157357168"><ele>461.20000000000005</ele><time>2026-04-12T09:44:05Z</time></trkpt><trkpt lat="42.69716910582901" lon="11.766428361728055"><ele>461.6</ele><time>2026-04-12T09:44:06Z</time></trkpt><trkpt lat="42.69727138921058" lon="11.766472426870838"><ele>462.0</ele><time>2026-04-12T09:44:07Z</time></trkpt><trkpt lat="42.69739381390655" lon="11.766521491912581"><ele>462.0</ele><time>2026-04-12T09:44:08Z</time></trkpt><trkpt lat="42.697527821081124" lon="11.766565587926456"><ele>462.0</ele><time>2026-04-12T09:44:09Z</time></trkpt><trkpt lat="42.69766890620367" lon="11.766603459811769"><ele>462.0</ele><time>2026-04-12T09:44:10Z</time></trkpt><trkpt lat="42.697793006958534" lon="11.76662360627171"><ele>462.0</ele><time>2026-04-12T09:44:11Z</time></trkpt><trkpt lat="42.69792074733408" lon="11.766647962056945"><ele>462.25</ele><time>2026-04-12T09:44:12Z</time></trkpt><trkpt lat="42.69806168913229" lon="11.766675079329529"><ele>462.5</ele><time>2026-04-12T09:44:13Z</time></trkpt><trkpt lat="42.69819269234471" lon="11.766737341426895"><ele>462.75</ele><time>2026-04-12T09:44:14Z</time></trkpt><trkpt lat="42.69830099156234" lon="11.766782478501469"><ele>463.0</ele><time>2026-04-12T09:44:15Z</time></trkpt><trkpt lat="42.698401296504954" lon="11.766836779087553"><ele>461.6666666666667</ele><time>2026-04-12T09:44:16Z</time></trkpt><trkpt lat="42.6984935577529" lon="11.76689170035954"><ele>460.33333333333337</ele><time>2026-04-12T09:44:17Z</time></trkpt><trkpt lat="42.698565207718325" lon="11.766937666992265"><ele>459.0</ele><time>2026-04-12T09:44:18Z</time></trkpt><trkpt lat="42.69862293100677" lon="11.766979125629552"><ele>457.66666666666663</ele><time>2026-04-12T09:44:19Z</time></trkpt><trkpt lat="42.69872021648636" lon="11.76708186750571"><ele>456.3333333333333</ele><time>2026-04-12T09:44:21Z</time></trkpt><trkpt lat="42.69876063134928" lon="11.767156584586777"><ele>455.0</ele><time>2026-04-12T09:44:22Z</time></trkpt><trkpt lat="42.698809259804264" lon="11.76723490272088"><ele>455.0</ele><time>2026-04-12T09:44:23Z</time></trkpt><trkpt lat="42.69884259276739" lon="11.767333802239435"><ele>455.0</ele><time>2026-04-12T09:44:24Z</time></trkpt><trkpt lat="42.69889641551275" lon="11.767411984371373"><ele>455.0</ele><time>2026-04-12T09:44:25Z</time></trkpt><trkpt lat="42.69895548419787" lon="11.767454103941608"><ele>455.0</ele><time>2026-04-12T09:44:26Z</time></trkpt><trkpt lat="42.69902508599607" lon="11.76746855435644"><ele>455.0</ele><time>2026-04-12T09:44:27Z</time></trkpt><trkpt lat="42.699098465487225" lon="11.767463997816629"><ele>455.0</ele><time>2026-04-12T09:44:28Z</time></trkpt><trkpt lat="42.69916335213259" lon="11.76741891323428"><ele>455.0</ele><time>2026-04-12T09:44:29Z</time></trkpt><trkpt lat="42.69922791281673" lon="11.767342763500263"><ele>455.0</ele><time>2026-04-12T09:44:30Z</time></trkpt><trkpt lat="42.699314457091845" lon="11.76726839412331"><ele>455.0</ele><time>2026-04-12T09:44:31Z</time></trkpt><trkpt lat="42.69940165787922" lon="11.767178981840969"><ele>455.0</ele><time>2026-04-12T09:44:32Z</time></trkpt><trkpt lat="42.699511210961774" lon="11.767128417956899"><ele>455.0</ele><time>2026-04-12T09:44:33Z</time></trkpt><trkpt lat="42.699635009646336" lon="11.767130437313133"><ele>456.6</ele><time>2026-04-12T09:44:34Z</time></trkpt><trkpt lat="42.69974256616051" lon="11.767102020065284"><ele>458.2</ele><time>2026-04-12T09:44:35Z</time></trkpt><trkpt lat="42.699822985296855" lon="11.767089245619637"><ele>459.79999999999995</ele><time>2026-04-12T09:44:36Z</time></trkpt><trkpt lat="42.69989352218316" lon="11.76708444636573"><ele>461.4</ele><time>2026-04-12T09:44:37Z</time></trkpt><trkpt lat="42.699959976357064" lon="11.767072274108958"><ele>463.0</ele><time>2026-04-12T09:44:38Z</time></trkpt><trkpt lat="42.70001102248109" lon="11.76689582915241"><ele>463.2</ele><time>2026-04-12T09:44:39Z</time></trkpt><trkpt lat="42.700064048887285" lon="11.766739491213498"><ele>463.4</ele><time>2026-04-12T09:44:40Z</time></trkpt><trkpt lat="42.700139011442985" lon="11.766596187016605"><ele>463.59999999999997</ele><time>2026-04-12T09:44:41Z</time></trkpt><trkpt lat="42.70019592797105" lon="11.766499942933395"><ele>463.79999999999995</ele><time>2026-04-12T09:44:42Z</time></trkpt><trkpt lat="42.7002712797895" lon="11.766410662958366"><ele>464.0</ele><time>2026-04-12T09:44:43Z</time></trkpt><trkpt lat="42.700371113991764" lon="11.76635444812604"><ele>464.0</ele><time>2026-04-12T09:44:44Z</time></trkpt><trkpt lat="42.70047366297758" lon="11.766337009475002"><ele>464.0</ele><time>2026-04-12T09:44:45Z</time></trkpt><trkpt lat="42.70055948869591" lon="11.76637265509629"><ele>464.0</ele><time>2026-04-12T09:44:46Z</time></trkpt><trkpt lat="42.70064841083715" lon="11.766465696001333"><ele>464.0</ele><time>2026-04-12T09:44:47Z</time></trkpt><trkpt lat="42.7007728767905" lon="11.766529521207111"><ele>464.0</ele><time>2026-04-12T09:44:48Z</time></trkpt><trkpt lat="42.70090312498909" lon="11.766590486943485"><ele>464.0</ele><time>2026-04-12T09:44:49Z</time></trkpt><trkpt lat="42.701043966352785" lon="11.766615602487747"><ele>464.0</ele><time>2026-04-12T09:44:50Z</time></trkpt><trkpt lat="42.70117296222439" lon="11.766611458424942"><ele>464.0</ele><time>2026-04-12T09:44:51Z</time></trkpt><trkpt lat="42.701285340375414" lon="11.766612287988849"><ele>464.0</ele><time>2026-04-12T09:44:52Z</time></trkpt><trkpt lat="42.701385230862584" lon="11.766620876067599"><ele>464.4</ele><time>2026-04-12T09:44:53Z</time></trkpt><trkpt lat="42.701484080762484" lon="11.766630659450065"><ele>464.79999999999995</ele><time>2026-04-12T09:44:54Z</time></trkpt><trkpt lat="42.70157740844108" lon="11.766633009564991"><ele>465.20000000000005</ele><time>2026-04-12T09:44:55Z</time></trkpt><trkpt lat="42.70167084594134" lon="11.766635361403601"><ele>465.6</ele><time>2026-04-12T09:44:56Z</time></trkpt><trkpt lat="42.70176436835938" lon="11.766631807122765"><ele>466.0</ele><time>2026-04-12T09:44:57Z</time></trkpt><trkpt lat="42.70186530328356" lon="11.76663607987594"><ele>466.4</ele><time>2026-04-12T09:44:58Z</time></trkpt><trkpt lat="42.70197196555737" lon="11.766641600859135"><ele>466.8</ele><time>2026-04-12T09:44:59Z</time></trkpt><trkpt lat="42.702080567993995" lon="11.766646932909952"><ele>467.19999999999993</ele><time>2026-04-12T09:45:00Z</time></trkpt><trkpt lat="42.70216640053383" lon="11.766677227940798"><ele>467.59999999999997</ele><time>2026-04-12T09:45:01Z</time></trkpt><trkpt lat="42.702229512286145" lon="11.766701942669041"><ele>468.0</ele><time>2026-04-12T09:45:02Z</time></trkpt><trkpt lat="42.70233577463965" lon="11.7667747414198"><ele>468.0</ele><time>2026-04-12T09:45:04Z</time></trkpt><trkpt lat="42.70246415737871" lon="11.766781286069802"><ele>468.0</ele><time>2026-04-12T09:45:06Z</time></trkpt><trkpt lat="42.70253311761632" lon="11.766772584162094"><ele>468.0</ele><time>2026-04-12T09:45:07Z</time></trkpt><trkpt lat="42.70261631799781" lon="11.766753267945806"><ele>468.0</ele><time>2026-04-12T09:45:08Z</time></trkpt><trkpt lat="42.702700005338315" lon="11.766727869870216"><ele>468.0</ele><time>2026-04-12T09:45:09Z</time></trkpt><trkpt lat="42.70277070836044" lon="11.766692266988397"><ele>468.0</ele><time>2026-04-12T09:45:10Z</time></trkpt><trkpt lat="42.70287959669137" lon="11.766670216964487"><ele>468.1666666666667</ele><time>2026-04-12T09:45:12Z</time></trkpt><trkpt lat="42.70294642499892" lon="11.766687022866979"><ele>468.33333333333337</ele><time>2026-04-12T09:45:13Z</time></trkpt><trkpt lat="42.70302181360357" lon="11.766717007184345"><ele>468.5</ele><time>2026-04-12T09:45:14Z</time></trkpt><trkpt lat="42.70310083823728" lon="11.76678527533132"><ele>468.6666666666667</ele><time>2026-04-12T09:45:15Z</time></trkpt><trkpt lat="42.70318475238659" lon="11.766841914176416"><ele>468.83333333333337</ele><time>2026-04-12T09:45:16Z</time></trkpt><trkpt lat="42.70327545966331" lon="11.766889667599306"><ele>469.0</ele><time>2026-04-12T09:45:17Z</time></trkpt><trkpt lat="42.70336599681328" lon="11.766957876206765"><ele>469.2</ele><time>2026-04-12T09:45:18Z</time></trkpt><trkpt lat="42.70343354368359" lon="11.76701384700241"><ele>469.4</ele><time>2026-04-12T09:45:19Z</time></trkpt><trkpt lat="42.703514537712714" lon="11.767067824962627"><ele>469.6</ele><time>2026-04-12T09:45:20Z</time></trkpt><trkpt lat="42.70360037166007" lon="11.767131667770377"><ele>469.8</ele><time>2026-04-12T09:45:21Z</time></trkpt><trkpt lat="42.7036801309998" lon="11.76718951544165"><ele>470.0</ele><time>2026-04-12T09:45:22Z</time></trkpt><trkpt lat="42.70376724583195" lon="11.767251414822525"><ele>470.0</ele><time>2026-04-12T09:45:23Z</time></trkpt><trkpt lat="42.70384501495127" lon="11.767306605378486"><ele>470.0</ele><time>2026-04-12T09:45:24Z</time></trkpt><trkpt lat="42.70392570512196" lon="11.767360939791502"><ele>470.0</ele><time>2026-04-12T09:45:25Z</time></trkpt><trkpt lat="42.70400796915053" lon="11.767420152554525"><ele>470.0</ele><time>2026-04-12T09:45:26Z</time></trkpt><trkpt lat="42.70410319627665" lon="11.76748253414805"><ele>470.0</ele><time>2026-04-12T09:45:27Z</time></trkpt><trkpt lat="42.7041967114366" lon="11.767539934960903"><ele>470.0</ele><time>2026-04-12T09:45:28Z</time></trkpt><trkpt lat="42.70429420596396" lon="11.767608019854357"><ele>470.0</ele><time>2026-04-12T09:45:29Z</time></trkpt><trkpt lat="42.70438456911405" lon="11.767669542275147"><ele>470.0</ele><time>2026-04-12T09:45:30Z</time></trkpt><trkpt lat="42.70446352059552" lon="11.767722741301185"><ele>470.0</ele><time>2026-04-12T09:45:31Z</time></trkpt><trkpt lat="42.7045407340271" lon="11.76777330526626"><ele>470.0</ele><time>2026-04-12T09:45:32Z</time></trkpt><trkpt lat="42.704622383174495" lon="11.767835116452769"><ele>469.8</ele><time>2026-04-12T09:45:33Z</time></trkpt><trkpt lat="42.70470477516313" lon="11.76790481592777"><ele>469.6</ele><time>2026-04-12T09:45:34Z</time></trkpt><trkpt lat="42.70479075458948" lon="11.76797477204102"><ele>469.4</ele><time>2026-04-12T09:45:35Z</time></trkpt><trkpt lat="42.7048840406548" lon="11.768062999255338"><ele>469.2</ele><time>2026-04-12T09:45:36Z</time></trkpt><trkpt lat="42.704977123169904" lon="11.768155606388962"><ele>469.0</ele><time>2026-04-12T09:45:37Z</time></trkpt><trkpt lat="42.705068003669886" lon="11.768236784383106"><ele>469.0</ele><time>2026-04-12T09:45:38Z</time></trkpt><trkpt lat="42.70516727816294" lon="11.768308377339492"><ele>469.0</ele><time>2026-04-12T09:45:39Z</time></trkpt><trkpt lat="42.70526557860193" lon="11.768363070755047"><ele>469.0</ele><time>2026-04-12T09:45:40Z</time></trkpt><trkpt lat="42.70537828333508" lon="11.768411139479285"><ele>469.0</ele><time>2026-04-12T09:45:41Z</time></trkpt><trkpt lat="42.70549591055555" lon="11.768464723985923"><ele>469.0</ele><time>2026-04-12T09:45:42Z</time></trkpt><trkpt lat="42.705616599901326" lon="11.768517709000497"><ele>469.0</ele><time>2026-04-12T09:45:43Z</time></trkpt><trkpt lat="42.70573447496654" lon="11.768566854597143"><ele>469.0</ele><time>2026-04-12T09:45:44Z</time></trkpt><trkpt lat="42.705840504309926" lon="11.768614605633863"><ele>469.0</ele><time>2026-04-12T09:45:45Z</time></trkpt><trkpt lat="42.705943647492035" lon="11.768660232866736"><ele>469.0</ele><time>2026-04-12T09:45:46Z</time></trkpt><trkpt lat="42.70604153847275" lon="11.768706195414289"><ele>469.0</ele><time>2026-04-12T09:45:47Z</time></trkpt><trkpt lat="42.70614509307966" lon="11.768751427483538"><ele>469.0</ele><time>2026-04-12T09:45:48Z</time></trkpt><trkpt lat="42.70625214698258" lon="11.768793432515926"><ele>469.0</ele><time>2026-04-12T09:45:49Z</time></trkpt><trkpt lat="42.70637478773204" lon="11.76884186148571"><ele>469.0</ele><time>2026-04-12T09:45:50Z</time></trkpt><trkpt lat="42.70649596830472" lon="11.768890435879984"><ele>469.0</ele><time>2026-04-12T09:45:51Z</time></trkpt><trkpt lat="42.70661084350535" lon="11.768934744604973"><ele>469.0</ele><time>2026-04-12T09:45:52Z</time></trkpt><trkpt lat="42.70671830833651" lon="11.768972034878232"><ele>469.0</ele><time>2026-04-12T09:45:53Z</time></trkpt><trkpt lat="42.706828260834484" lon="11.769010428528595"><ele>469.0</ele><time>2026-04-12T09:45:54Z</time></trkpt><trkpt lat="42.706942826601455" lon="11.769047795628627"><ele>469.0</ele><time>2026-04-12T09:45:55Z</time></trkpt><trkpt lat="42.70705911564413" lon="11.769085746383894"><ele>469.0</ele><time>2026-04-12T09:45:56Z</time></trkpt><trkpt lat="42.70717716644391" lon="11.769140653549734"><ele>469.0</ele><time>2026-04-12T09:45:57Z</time></trkpt><trkpt lat="42.70728265352085" lon="11.769187727342754"><ele>469.0</ele><time>2026-04-12T09:45:58Z</time></trkpt><trkpt lat="42.70737585063177" lon="11.769225834095941"><ele>469.0</ele><time>2026-04-12T09:45:59Z</time></trkpt><trkpt lat="42.707468395597" lon="11.769269714629452"><ele>469.0</ele><time>2026-04-12T09:46:00Z</time></trkpt><trkpt lat="42.70756231471172" lon="11.769313487955442"><ele>469.0</ele><time>2026-04-12T09:46:01Z</time></trkpt><trkpt lat="42.70765675607799" lon="11.769356977481356"><ele>469.0</ele><time>2026-04-12T09:46:02Z</time></trkpt><trkpt lat="42.70775180990825" lon="11.769395810386982"><ele>468.6</ele><time>2026-04-12T09:46:03Z</time></trkpt><trkpt lat="42.70784684995317" lon="11.769424977128121"><ele>468.2</ele><time>2026-04-12T09:46:04Z</time></trkpt><trkpt lat="42.70793980945399" lon="11.769454226329811"><ele>467.80000000000007</ele><time>2026-04-12T09:46:05Z</time></trkpt><trkpt lat="42.708020087746036" lon="11.769500850624608"><ele>467.40000000000003</ele><time>2026-04-12T09:46:06Z</time></trkpt><trkpt lat="42.70810363755626" lon="11.769559304555266"><ele>467.0</ele><time>2026-04-12T09:46:07Z</time></trkpt><trkpt lat="42.708179640584596" lon="11.769642891268655"><ele>467.0</ele><time>2026-04-12T09:46:08Z</time></trkpt><trkpt lat="42.70825228046765" lon="11.769743744313361"><ele>467.00000000000006</ele><time>2026-04-12T09:46:09Z</time></trkpt><trkpt lat="42.708324885020794" lon="11.769840094843776"><ele>467.00000000000006</ele><time>2026-04-12T09:46:10Z</time></trkpt><trkpt lat="42.70840332968236" lon="11.769928641648441"><ele>467.0</ele><time>2026-04-12T09:46:11Z</time></trkpt><trkpt lat="42.70849087063094" lon="11.769999274927736"><ele>467.0</ele><time>2026-04-12T09:46:12Z</time></trkpt><trkpt lat="42.70859745728846" lon="11.77006405490956"><ele>467.0</ele><time>2026-04-12T09:46:13Z</time></trkpt><trkpt lat="42.70870480913411" lon="11.770124867350715"><ele>467.0</ele><time>2026-04-12T09:46:14Z</time></trkpt><trkpt lat="42.70881698542317" lon="11.7701823446946"><ele>467.0</ele><time>2026-04-12T09:46:15Z</time></trkpt><trkpt lat="42.708916488509765" lon="11.77025296695835"><ele>467.0</ele><time>2026-04-12T09:46:16Z</time></trkpt><trkpt lat="42.70900959638776" lon="11.7703087173573"><ele>466.8</ele><time>2026-04-12T09:46:17Z</time></trkpt><trkpt lat="42.709107846755046" lon="11.770353148438286"><ele>466.6</ele><time>2026-04-12T09:46:18Z</time></trkpt><trkpt lat="42.709199691007036" lon="11.770402554403276"><ele>466.40000000000003</ele><time>2026-04-12T09:46:19Z</time></trkpt><trkpt lat="42.709296078828736" lon="11.770475581362335"><ele>466.20000000000005</ele><time>2026-04-12T09:46:20Z</time></trkpt><trkpt lat="42.70937709604659" lon="11.770546582585485"><ele>466.0</ele><time>2026-04-12T09:46:21Z</time></trkpt><trkpt lat="42.70946591644289" lon="11.770612004436419"><ele>465.8</ele><time>2026-04-12T09:46:22Z</time></trkpt><trkpt lat="42.7095570781411" lon="11.770673314414413"><ele>465.6</ele><time>2026-04-12T09:46:23Z</time></trkpt><trkpt lat="42.709667640792375" lon="11.7707374426927"><ele>465.4</ele><time>2026-04-12T09:46:24Z</time></trkpt><trkpt lat="42.70977762031065" lon="11.770793179215287"><ele>465.2</ele><time>2026-04-12T09:46:25Z</time></trkpt><trkpt lat="42.70988425188718" lon="11.770819435859291"><ele>465.0</ele><time>2026-04-12T09:46:26Z</time></trkpt><trkpt lat="42.709968777392504" lon="11.770900228774527"><ele>465.0</ele><time>2026-04-12T09:46:27Z</time></trkpt><trkpt lat="42.71005541988033" lon="11.770965447306997"><ele>465.0</ele><time>2026-04-12T09:46:28Z</time></trkpt><trkpt lat="42.71014280837807" lon="11.771021457429828"><ele>465.0</ele><time>2026-04-12T09:46:29Z</time></trkpt><trkpt lat="42.71022526096838" lon="11.771090474722815"><ele>465.0</ele><time>2026-04-12T09:46:30Z</time></trkpt><trkpt lat="42.710327470239584" lon="11.771118577573851"><ele>465.0</ele><time>2026-04-12T09:46:31Z</time></trkpt><trkpt lat="42.710450808349684" lon="11.771156274675107"><ele>466.25</ele><time>2026-04-12T09:46:32Z</time></trkpt><trkpt lat="42.71057515467744" lon="11.771170694263276"><ele>467.5</ele><time>2026-04-12T09:46:33Z</time></trkpt><trkpt lat="42.71069571096156" lon="11.771188224967247"><ele>468.75</ele><time>2026-04-12T09:46:34Z</time></trkpt><trkpt lat="42.7108099614062" lon="11.771201889859396"><ele>470.0</ele><time>2026-04-12T09:46:35Z</time></trkpt><trkpt lat="42.71090640472463" lon="11.771220583617257"><ele>470.0</ele><time>2026-04-12T09:46:36Z</time></trkpt><trkpt lat="42.711001791394395" lon="11.771228062726722"><ele>470.0</ele><time>2026-04-12T09:46:37Z</time></trkpt><trkpt lat="42.71110953001936" lon="11.77127865798347"><ele>470.0</ele><time>2026-04-12T09:46:38Z</time></trkpt><trkpt lat="42.71122821294694" lon="11.771335876529568"><ele>470.0</ele><time>2026-04-12T09:46:39Z</time></trkpt><trkpt lat="42.71134941161826" lon="11.771389918948428"><ele>470.2</ele><time>2026-04-12T09:46:40Z</time></trkpt><trkpt lat="42.7114625616396" lon="11.771428310604026"><ele>470.4</ele><time>2026-04-12T09:46:41Z</time></trkpt><trkpt lat="42.71156487580552" lon="11.771465394599392"><ele>470.6</ele><time>2026-04-12T09:46:42Z</time></trkpt><trkpt lat="42.7116639190209" lon="11.771506876046875"><ele>470.8</ele><time>2026-04-12T09:46:43Z</time></trkpt><trkpt lat="42.71176552844544" lon="11.77153738167513"><ele>471.0</ele><time>2026-04-12T09:46:44Z</time></trkpt><trkpt lat="42.71186133951848" lon="11.771589361477531"><ele>471.0</ele><time>2026-04-12T09:46:45Z</time></trkpt><trkpt lat="42.71196705694051" lon="11.771621683646856"><ele>471.0</ele><time>2026-04-12T09:46:46Z</time></trkpt><trkpt lat="42.71209123228282" lon="11.771635916528139"><ele>471.0</ele><time>2026-04-12T09:46:47Z</time></trkpt><trkpt lat="42.71222329950513" lon="11.771634215599397"><ele>471.0</ele><time>2026-04-12T09:46:48Z</time></trkpt><trkpt lat="42.71234831520675" lon="11.771611070169811"><ele>471.0</ele><time>2026-04-12T09:46:49Z</time></trkpt><trkpt lat="42.71245476971893" lon="11.771574283086277"><ele>471.0</ele><time>2026-04-12T09:46:50Z</time></trkpt><trkpt lat="42.71254329164086" lon="11.771537763533699"><ele>471.0</ele><time>2026-04-12T09:46:51Z</time></trkpt><trkpt lat="42.71262943971964" lon="11.771504065744008"><ele>471.0</ele><time>2026-04-12T09:46:52Z</time></trkpt><trkpt lat="42.71271542136895" lon="11.771473165344116"><ele>471.0</ele><time>2026-04-12T09:46:53Z</time></trkpt><trkpt lat="42.71280594245523" lon="11.77144855816923"><ele>471.0</ele><time>2026-04-12T09:46:54Z</time></trkpt><trkpt lat="42.712898980234414" lon="11.77147761098154"><ele>471.0</ele><time>2026-04-12T09:46:55Z</time></trkpt><trkpt lat="42.71298266690434" lon="11.771530820670476"><ele>471.0</ele><time>2026-04-12T09:46:56Z</time></trkpt><trkpt lat="42.713066276304346" lon="11.771620038131793"><ele>471.0</ele><time>2026-04-12T09:46:57Z</time></trkpt><trkpt lat="42.71315237209225" lon="11.771694981226993"><ele>471.0</ele><time>2026-04-12T09:46:58Z</time></trkpt><trkpt lat="42.71326141745096" lon="11.77174862170991"><ele>471.0</ele><time>2026-04-12T09:46:59Z</time></trkpt><trkpt lat="42.71337165955191" lon="11.771783427945575"><ele>471.0</ele><time>2026-04-12T09:47:00Z</time></trkpt><trkpt lat="42.71347616669899" lon="11.771838710008732"><ele>471.0</ele><time>2026-04-12T09:47:01Z</time></trkpt><trkpt lat="42.713596477629515" lon="11.771887837241826"><ele>471.0</ele><time>2026-04-12T09:47:02Z</time></trkpt><trkpt lat="42.713734979763814" lon="11.771946906118375"><ele>471.0</ele><time>2026-04-12T09:47:03Z</time></trkpt><trkpt lat="42.713873017725405" lon="11.771984909272401"><ele>471.0</ele><time>2026-04-12T09:47:04Z</time></trkpt><trkpt lat="42.71399982865492" lon="11.772041503844749"><ele>471.0</ele><time>2026-04-12T09:47:05Z</time></trkpt><trkpt lat="42.71410722807492" lon="11.772077280316626"><ele>471.0</ele><time>2026-04-12T09:47:06Z</time></trkpt><trkpt lat="42.71420545516146" lon="11.77210746721875"><ele>471.0</ele><time>2026-04-12T09:47:07Z</time></trkpt><trkpt lat="42.714314116038366" lon="11.772129665645766"><ele>471.0</ele><time>2026-04-12T09:47:08Z</time></trkpt><trkpt lat="42.714412083858825" lon="11.772155404309919"><ele>471.0</ele><time>2026-04-12T09:47:09Z</time></trkpt><trkpt lat="42.71449818985933" lon="11.772182821071823"><ele>471.0</ele><time>2026-04-12T09:47:10Z</time></trkpt><trkpt lat="42.71456697721926" lon="11.772242436745971"><ele>471.0</ele><time>2026-04-12T09:47:11Z</time></trkpt><trkpt lat="42.71463596821921" lon="11.77229116737998"><ele>470.5</ele><time>2026-04-12T09:47:12Z</time></trkpt><trkpt lat="42.71469812084539" lon="11.77231993426325"><ele>470.0</ele><time>2026-04-12T09:47:13Z</time></trkpt><trkpt lat="42.71475904683119" lon="11.772359787611698"><ele>469.5</ele><time>2026-04-12T09:47:15Z</time></trkpt><trkpt lat="42.71482507742572" lon="11.7723266253981"><ele>469.0</ele><time>2026-04-12T09:47:18Z</time></trkpt><trkpt lat="42.714927591631636" lon="11.772286725647456"><ele>468.5</ele><time>2026-04-12T09:47:20Z</time></trkpt><trkpt lat="42.7149958879172" lon="11.77230270259657"><ele>468.0</ele><time>2026-04-12T09:47:21Z</time></trkpt><trkpt lat="42.71506989952989" lon="11.772329239742707"><ele>468.0</ele><time>2026-04-12T09:47:22Z</time></trkpt><trkpt lat="42.71514241197215" lon="11.772350876014123"><ele>468.0</ele><time>2026-04-12T09:47:23Z</time></trkpt><trkpt lat="42.71521363687248" lon="11.772366477770534"><ele>468.0</ele><time>2026-04-12T09:47:24Z</time></trkpt><trkpt lat="42.71529545891747" lon="11.772387652153363"><ele>468.0</ele><time>2026-04-12T09:47:25Z</time></trkpt><trkpt lat="42.71538950284939" lon="11.772409497475103"><ele>468.0</ele><time>2026-04-12T09:47:26Z</time></trkpt><trkpt lat="42.715503589671755" lon="11.772438593411326"><ele>468.0</ele><time>2026-04-12T09:47:27Z</time></trkpt><trkpt lat="42.71562124768342" lon="11.772465455233675"><ele>468.5</ele><time>2026-04-12T09:47:28Z</time></trkpt><trkpt lat="42.7157397324843" lon="11.772502759495017"><ele>469.0</ele><time>2026-04-12T09:47:29Z</time></trkpt><trkpt lat="42.71587001530985" lon="11.772540747164"><ele>469.5</ele><time>2026-04-12T09:47:30Z</time></trkpt><trkpt lat="42.716001597889246" lon="11.772579090161937"><ele>470.0</ele><time>2026-04-12T09:47:31Z</time></trkpt><trkpt lat="42.71612590575609" lon="11.772610467174154"><ele>470.2</ele><time>2026-04-12T09:47:32Z</time></trkpt><trkpt lat="42.71623979270786" lon="11.772638557615016"><ele>470.4</ele><time>2026-04-12T09:47:33Z</time></trkpt><trkpt lat="42.71634214762646" lon="11.772665998091489"><ele>470.6</ele><time>2026-04-12T09:47:34Z</time></trkpt><trkpt lat="42.716442665809325" lon="11.772695861275372"><ele>470.8</ele><time>2026-04-12T09:47:35Z</time></trkpt><trkpt lat="42.71653910317535" lon="11.772723905375322"><ele>471.0</ele><time>2026-04-12T09:47:36Z</time></trkpt><trkpt lat="42.7166391236329" lon="11.772747938557599"><ele>471.0</ele><time>2026-04-12T09:47:37Z</time></trkpt><trkpt lat="42.71673955578885" lon="11.772776449619577"><ele>471.0</ele><time>2026-04-12T09:47:38Z</time></trkpt><trkpt lat="42.71683954076633" lon="11.772808625808796"><ele>471.0</ele><time>2026-04-12T09:47:39Z</time></trkpt><trkpt lat="42.716940819159184" lon="11.772839189248101"><ele>471.0</ele><time>2026-04-12T09:47:40Z</time></trkpt><trkpt lat="42.717044613902054" lon="11.772873473174334"><ele>471.0</ele><time>2026-04-12T09:47:41Z</time></trkpt><trkpt lat="42.71714712263668" lon="11.772912297843432"><ele>471.0</ele><time>2026-04-12T09:47:42Z</time></trkpt><trkpt lat="42.71725344336747" lon="11.77296619767761"><ele>471.0</ele><time>2026-04-12T09:47:43Z</time></trkpt><trkpt lat="42.71735717367651" lon="11.773025212132328"><ele>471.0</ele><time>2026-04-12T09:47:44Z</time></trkpt><trkpt lat="42.71745215286115" lon="11.773091209467553"><ele>471.0</ele><time>2026-04-12T09:47:45Z</time></trkpt><trkpt lat="42.717553636597096" lon="11.773136642477413"><ele>471.0</ele><time>2026-04-12T09:47:46Z</time></trkpt><trkpt lat="42.71767150014653" lon="11.773156186445757"><ele>471.0</ele><time>2026-04-12T09:47:47Z</time></trkpt><trkpt lat="42.717806674135" lon="11.773163565175341"><ele>471.0</ele><time>2026-04-12T09:47:48Z</time></trkpt><trkpt lat="42.71794572298655" lon="11.773194979927368"><ele>471.0</ele><time>2026-04-12T09:47:49Z</time></trkpt><trkpt lat="42.71807672878547" lon="11.773197511750796"><ele>471.0</ele><time>2026-04-12T09:47:50Z</time></trkpt><trkpt lat="42.71821930530851" lon="11.773204948583006"><ele>471.0</ele><time>2026-04-12T09:47:51Z</time></trkpt><trkpt lat="42.71836927486194" lon="11.773222821990778"><ele>471.0</ele><time>2026-04-12T09:47:52Z</time></trkpt><trkpt lat="42.71851257182208" lon="11.773238422657897"><ele>471.0</ele><time>2026-04-12T09:47:53Z</time></trkpt><trkpt lat="42.71863785679377" lon="11.773247343537555"><ele>471.0</ele><time>2026-04-12T09:47:54Z</time></trkpt><trkpt lat="42.71875097501524" lon="11.773245906993612"><ele>471.25</ele><time>2026-04-12T09:47:55Z</time></trkpt><trkpt lat="42.71886123703697" lon="11.773222383470712"><ele>471.5</ele><time>2026-04-12T09:47:56Z</time></trkpt><trkpt lat="42.71898886635184" lon="11.773182838196115"><ele>471.75</ele><time>2026-04-12T09:47:57Z</time></trkpt><trkpt lat="42.71911101895671" lon="11.773133606289498"><ele>472.0</ele><time>2026-04-12T09:47:58Z</time></trkpt><trkpt lat="42.71923467055258" lon="11.773077292544007"><ele>472.0</ele><time>2026-04-12T09:47:59Z</time></trkpt><trkpt lat="42.7193513089688" lon="11.77303302068606"><ele>472.0</ele><time>2026-04-12T09:48:00Z</time></trkpt><trkpt lat="42.71946442638024" lon="11.772985233091099"><ele>472.0</ele><time>2026-04-12T09:48:01Z</time></trkpt><trkpt lat="42.71957829023803" lon="11.772939796989036"><ele>472.0</ele><time>2026-04-12T09:48:02Z</time></trkpt><trkpt lat="42.719673571910675" lon="11.772898428931473"><ele>472.0</ele><time>2026-04-12T09:48:03Z</time></trkpt><trkpt lat="42.719741607458396" lon="11.772874929268491"><ele>472.00000000000006</ele><time>2026-04-12T09:48:04Z</time></trkpt><trkpt lat="42.71985346645947" lon="11.772836102202632"><ele>472.00000000000006</ele><time>2026-04-12T09:48:06Z</time></trkpt><trkpt lat="42.71991635558289" lon="11.772828727754579"><ele>472.0</ele><time>2026-04-12T09:48:08Z</time></trkpt><trkpt lat="42.71992225843587" lon="11.772651130486828"><ele>472.0</ele><time>2026-04-12T09:48:11Z</time></trkpt><trkpt lat="42.71992168185112" lon="11.772546534494994"><ele>472.00000000000006</ele><time>2026-04-12T09:48:13Z</time></trkpt><trkpt lat="42.719931022026934" lon="11.7724457799893"><ele>472.0</ele><time>2026-04-12T09:48:14Z</time></trkpt><trkpt lat="42.71993306241733" lon="11.77232817635252"><ele>472.0</ele><time>2026-04-12T09:48:15Z</time></trkpt><trkpt lat="42.71994074089313" lon="11.77222175358676"><ele>472.0</ele><time>2026-04-12T09:48:16Z</time></trkpt><trkpt lat="42.71994858198522" lon="11.772097450358068"><ele>472.00000000000006</ele><time>2026-04-12T09:48:17Z</time></trkpt><trkpt lat="42.71997270545243" lon="11.772003343576104"><ele>472.0</ele><time>2026-04-12T09:48:18Z</time></trkpt><trkpt lat="42.71998809431541" lon="11.771830987813106"><ele>471.83333333333337</ele><time>2026-04-12T09:48:20Z</time></trkpt><trkpt lat="42.72000180997074" lon="11.771661762419605"><ele>471.6666666666667</ele><time>2026-04-12T09:48:22Z</time></trkpt><trkpt lat="42.720007342744125" lon="11.771562202172698"><ele>471.5</ele><time>2026-04-12T09:48:23Z</time></trkpt><trkpt lat="42.720010260348076" lon="11.771452047085"><ele>471.33333333333337</ele><time>2026-04-12T09:48:24Z</time></trkpt><trkpt lat="42.7200307161216" lon="11.77134752752995"><ele>471.1666666666667</ele><time>2026-04-12T09:48:25Z</time></trkpt><trkpt lat="42.72003598969678" lon="11.771239940359553"><ele>471.0</ele><time>2026-04-12T09:48:26Z</time></trkpt><trkpt lat="42.72004073651191" lon="11.771143099588933"><ele>471.4</ele><time>2026-04-12T09:48:27Z</time></trkpt><trkpt lat="42.72004669650214" lon="11.771020595128002"><ele>471.8</ele><time>2026-04-12T09:48:28Z</time></trkpt><trkpt lat="42.720041748318316" lon="11.770904097452332"><ele>472.19999999999993</ele><time>2026-04-12T09:48:29Z</time></trkpt><trkpt lat="42.72004340089026" lon="11.77078473883015"><ele>472.59999999999997</ele><time>2026-04-12T09:48:30Z</time></trkpt><trkpt lat="42.720061843076415" lon="11.770664981071093"><ele>473.0</ele><time>2026-04-12T09:48:31Z</time></trkpt><trkpt lat="42.720060311625645" lon="11.770531095963323"><ele>473.0</ele><time>2026-04-12T09:48:32Z</time></trkpt><trkpt lat="42.72006832572425" lon="11.770379557314701"><ele>472.99999999999994</ele><time>2026-04-12T09:48:33Z</time></trkpt><trkpt lat="42.72007651325331" lon="11.770237812873914"><ele>472.99999999999994</ele><time>2026-04-12T09:48:34Z</time></trkpt><trkpt lat="42.72009665147777" lon="11.770087660488736"><ele>473.0</ele><time>2026-04-12T09:48:35Z</time></trkpt><trkpt lat="42.72010900943056" lon="11.769941255618205"><ele>473.0</ele><time>2026-04-12T09:48:36Z</time></trkpt><trkpt lat="42.720120186918486" lon="11.769812324298117"><ele>472.8333333333333</ele><time>2026-04-12T09:48:37Z</time></trkpt><trkpt lat="42.720125529850996" lon="11.769704472815834"><ele>472.66666666666663</ele><time>2026-04-12T09:48:38Z</time></trkpt><trkpt lat="42.72011609139422" lon="11.769581618545518"><ele>472.5</ele><time>2026-04-12T09:48:39Z</time></trkpt><trkpt lat="42.72012346143123" lon="11.769465652115123"><ele>472.33333333333337</ele><time>2026-04-12T09:48:40Z</time></trkpt><trkpt lat="42.720078790822576" lon="11.769351634252459"><ele>472.1666666666667</ele><time>2026-04-12T09:48:41Z</time></trkpt><trkpt lat="42.72006461075622" lon="11.769256268805352"><ele>472.0</ele><time>2026-04-12T09:48:42Z</time></trkpt><trkpt lat="42.72016962141344" lon="11.769113698472538"><ele>472.1666666666667</ele><time>2026-04-12T09:48:43Z</time></trkpt><trkpt lat="42.72019640395087" lon="11.769017265029303"><ele>472.33333333333337</ele><time>2026-04-12T09:48:44Z</time></trkpt><trkpt lat="42.720233468944876" lon="11.76891175195583"><ele>472.5</ele><time>2026-04-12T09:48:45Z</time></trkpt><trkpt lat="42.72029842841692" lon="11.768754803412879"><ele>472.66666666666663</ele><time>2026-04-12T09:48:47Z</time></trkpt><trkpt lat="42.72033454712568" lon="11.768668172292793"><ele>472.8333333333333</ele><time>2026-04-12T09:48:48Z</time></trkpt><trkpt lat="42.720368696080385" lon="11.768582704170088"><ele>473.0</ele><time>2026-04-12T09:48:49Z</time></trkpt><trkpt lat="42.72040546070975" lon="11.768490990477668"><ele>472.4</ele><time>2026-04-12T09:48:50Z</time></trkpt><trkpt lat="42.720445235044885" lon="11.768397216368047"><ele>471.79999999999995</ele><time>2026-04-12T09:48:51Z</time></trkpt><trkpt lat="42.72049122237702" lon="11.768278412753393"><ele>471.2</ele><time>2026-04-12T09:48:52Z</time></trkpt><trkpt lat="42.720513559876636" lon="11.768163878554308"><ele>470.6</ele><time>2026-04-12T09:48:53Z</time></trkpt><trkpt lat="42.72057293431686" lon="11.768053293313988"><ele>470.0</ele><time>2026-04-12T09:48:54Z</time></trkpt><trkpt lat="42.72063178306517" lon="11.767920104752339"><ele>469.99999999999994</ele><time>2026-04-12T09:48:56Z</time></trkpt><trkpt lat="42.72065717999434" lon="11.767790470881904"><ele>470.0</ele><time>2026-04-12T09:48:58Z</time></trkpt><trkpt lat="42.72064692121621" lon="11.767676475958917"><ele>470.0</ele><time>2026-04-12T09:49:00Z</time></trkpt><trkpt lat="42.720628311746246" lon="11.76755143554103"><ele>470.0</ele><time>2026-04-12T09:49:02Z</time></trkpt><trkpt lat="42.72061966069084" lon="11.767464190960704"><ele>469.99999999999994</ele><time>2026-04-12T09:49:03Z</time></trkpt><trkpt lat="42.720618085745784" lon="11.767368769156532"><ele>470.0</ele><time>2026-04-12T09:49:04Z</time></trkpt><trkpt lat="42.72062510041661" lon="11.767176133191711"><ele>470.3333333333333</ele><time>2026-04-12T09:49:06Z</time></trkpt><trkpt lat="42.72064694634808" lon="11.767086402452627"><ele>470.66666666666663</ele><time>2026-04-12T09:49:07Z</time></trkpt><trkpt lat="42.720669662840955" lon="11.766987349004623"><ele>471.0</ele><time>2026-04-12T09:49:08Z</time></trkpt><trkpt lat="42.72069300050126" lon="11.766877471494217"><ele>471.33333333333337</ele><time>2026-04-12T09:49:09Z</time></trkpt><trkpt lat="42.720753614171116" lon="11.766795191574706"><ele>471.6666666666667</ele><time>2026-04-12T09:49:11Z</time></trkpt><trkpt lat="42.72077286066587" lon="11.766681628449819"><ele>472.0</ele><time>2026-04-12T09:49:12Z</time></trkpt><trkpt lat="42.72082604661766" lon="11.766612187056753"><ele>471.6666666666667</ele><time>2026-04-12T09:49:13Z</time></trkpt><trkpt lat="42.720898813205714" lon="11.766546258773761"><ele>471.33333333333337</ele><time>2026-04-12T09:49:14Z</time></trkpt><trkpt lat="42.721008515202776" lon="11.766421124157702"><ele>471.0</ele><time>2026-04-12T09:49:16Z</time></trkpt><trkpt lat="42.72105263643467" lon="11.76633102688264"><ele>470.66666666666663</ele><time>2026-04-12T09:49:17Z</time></trkpt><trkpt lat="42.72107607889092" lon="11.76624113249814"><ele>470.3333333333333</ele><time>2026-04-12T09:49:18Z</time></trkpt><trkpt lat="42.72108567383077" lon="11.766150733727255"><ele>470.0</ele><time>2026-04-12T09:49:19Z</time></trkpt><trkpt lat="42.72107955084259" lon="11.766047795132973"><ele>467.4</ele><time>2026-04-12T09:49:20Z</time></trkpt><trkpt lat="42.72107470223173" lon="11.76593498742221"><ele>464.8</ele><time>2026-04-12T09:49:21Z</time></trkpt><trkpt lat="42.72106318469724" lon="11.765804028810061"><ele>462.20000000000005</ele><time>2026-04-12T09:49:22Z</time></trkpt><trkpt lat="42.72104770407444" lon="11.765641904965044"><ele>459.6</ele><time>2026-04-12T09:49:23Z</time></trkpt><trkpt lat="42.72103423984991" lon="11.765489289280916"><ele>457.0</ele><time>2026-04-12T09:49:24Z</time></trkpt><trkpt lat="42.72101126306506" lon="11.765338840044844"><ele>457.0</ele><time>2026-04-12T09:49:25Z</time></trkpt><trkpt lat="42.720999529183295" lon="11.765203794869313"><ele>457.00000000000006</ele><time>2026-04-12T09:49:26Z</time></trkpt><trkpt lat="42.720985610750056" lon="11.765078265498051"><ele>457.00000000000006</ele><time>2026-04-12T09:49:27Z</time></trkpt><trkpt lat="42.720980455835424" lon="11.764944081529892"><ele>457.0</ele><time>2026-04-12T09:49:28Z</time></trkpt><trkpt lat="42.72098478590751" lon="11.764801281322185"><ele>457.0</ele><time>2026-04-12T09:49:29Z</time></trkpt><trkpt lat="42.72099047731286" lon="11.764691032964208"><ele>457.00000000000006</ele><time>2026-04-12T09:49:30Z</time></trkpt><trkpt lat="42.72100962435883" lon="11.764563119234623"><ele>457.0</ele><time>2026-04-12T09:49:31Z</time></trkpt><trkpt lat="42.721045776286125" lon="11.764444747642854"><ele>457.0</ele><time>2026-04-12T09:49:32Z</time></trkpt><trkpt lat="42.7210864940397" lon="11.764346566961171"><ele>457.0</ele><time>2026-04-12T09:49:33Z</time></trkpt><trkpt lat="42.72111968736405" lon="11.764236172198801"><ele>457.00000000000006</ele><time>2026-04-12T09:49:34Z</time></trkpt><trkpt lat="42.72112487104587" lon="11.764148742235651"><ele>457.0</ele><time>2026-04-12T09:49:35Z</time></trkpt><trkpt lat="42.72112811926954" lon="11.764047454687923"><ele>457.1666666666667</ele><time>2026-04-12T09:49:36Z</time></trkpt><trkpt lat="42.72113204345617" lon="11.763920755199463"><ele>457.33333333333337</ele><time>2026-04-12T09:49:37Z</time></trkpt><trkpt lat="42.72113091047994" lon="11.763788314106835"><ele>457.5</ele><time>2026-04-12T09:49:38Z</time></trkpt><trkpt lat="42.72112340193867" lon="11.763674402658772"><ele>457.66666666666663</ele><time>2026-04-12T09:49:39Z</time></trkpt><trkpt lat="42.72112385105283" lon="11.763558003921966"><ele>457.8333333333333</ele><time>2026-04-12T09:49:40Z</time></trkpt><trkpt lat="42.72112723164236" lon="11.763452607172802"><ele>458.0</ele><time>2026-04-12T09:49:41Z</time></trkpt><trkpt lat="42.72107587156241" lon="11.763311179898873"><ele>458.2</ele><time>2026-04-12T09:49:44Z</time></trkpt><trkpt lat="42.72100576743012" lon="11.763281263576669"><ele>458.4</ele><time>2026-04-12T09:49:45Z</time></trkpt><trkpt lat="42.720942772917084" lon="11.76323659578998"><ele>458.59999999999997</ele><time>2026-04-12T09:49:46Z</time></trkpt><trkpt lat="42.72089695582239" lon="11.763128024752453"><ele>458.79999999999995</ele><time>2026-04-12T09:49:48Z</time></trkpt><trkpt lat="42.72092536474842" lon="11.762972569600668"><ele>459.0</ele><time>2026-04-12T09:49:50Z</time></trkpt><trkpt lat="42.721040152412144" lon="11.762867248839434"><ele>460.3333333333333</ele><time>2026-04-12T09:49:52Z</time></trkpt><trkpt lat="42.72111808462204" lon="11.762812929335764"><ele>461.66666666666663</ele><time>2026-04-12T09:49:53Z</time></trkpt><trkpt lat="42.72118925201359" lon="11.762766382119633"><ele>463.0</ele><time>2026-04-12T09:49:54Z</time></trkpt><trkpt lat="42.721259831677024" lon="11.762723202080702"><ele>464.3333333333333</ele><time>2026-04-12T09:49:55Z</time></trkpt><trkpt lat="42.721355770970725" lon="11.762652449672586"><ele>465.66666666666663</ele><time>2026-04-12T09:49:57Z</time></trkpt><trkpt lat="42.72142720276376" lon="11.762618623797408"><ele>467.0</ele><time>2026-04-12T09:49:58Z</time></trkpt><trkpt lat="42.7215025051631" lon="11.76257556561626"><ele>467.75</ele><time>2026-04-12T09:49:59Z</time></trkpt><trkpt lat="42.721625549899954" lon="11.762547563097346"><ele>468.5</ele><time>2026-04-12T09:50:01Z</time></trkpt><trkpt lat="42.721711955954355" lon="11.762570861934927"><ele>469.25</ele><time>2026-04-12T09:50:02Z</time></trkpt><trkpt lat="42.721871331994976" lon="11.762483349151012"><ele>470.0</ele><time>2026-04-12T09:50:04Z</time></trkpt><trkpt lat="42.721943116385084" lon="11.762413291021078"><ele>470.6</ele><time>2026-04-12T09:50:05Z</time></trkpt><trkpt lat="42.72202711006332" lon="11.762347112046522"><ele>471.2</ele><time>2026-04-12T09:50:06Z</time></trkpt><trkpt lat="42.72211730437903" lon="11.762278831590425"><ele>471.79999999999995</ele><time>2026-04-12T09:50:07Z</time></trkpt><trkpt lat="42.722187790681275" lon="11.762223919068859"><ele>472.4</ele><time>2026-04-12T09:50:08Z</time></trkpt><trkpt lat="42.72225174962104" lon="11.762163385145675"><ele>473.0</ele><time>2026-04-12T09:50:09Z</time></trkpt><trkpt lat="42.72233195870583" lon="11.762097443083523"><ele>473.0</ele><time>2026-04-12T09:50:10Z</time></trkpt><trkpt lat="42.72242484546953" lon="11.762024297740814"><ele>472.99999999999994</ele><time>2026-04-12T09:50:11Z</time></trkpt><trkpt lat="42.72251035978418" lon="11.761952532587108"><ele>472.99999999999994</ele><time>2026-04-12T09:50:12Z</time></trkpt><trkpt lat="42.7225972501953" lon="11.761885287425446"><ele>473.0</ele><time>2026-04-12T09:50:13Z</time></trkpt><trkpt lat="42.72270688045746" lon="11.761809536505275"><ele>473.0</ele><time>2026-04-12T09:50:14Z</time></trkpt><trkpt lat="42.72281527264117" lon="11.761725386229168"><ele>472.79999999999995</ele><time>2026-04-12T09:50:15Z</time></trkpt><trkpt lat="42.722917063210616" lon="11.761643392135529"><ele>472.59999999999997</ele><time>2026-04-12T09:50:16Z</time></trkpt><trkpt lat="42.72301095234957" lon="11.761569567414325"><ele>472.40000000000003</ele><time>2026-04-12T09:50:17Z</time></trkpt><trkpt lat="42.72310507703737" lon="11.761493218974165"><ele>472.20000000000005</ele><time>2026-04-12T09:50:18Z</time></trkpt><trkpt lat="42.72319666607378" lon="11.761417889283443"><ele>472.0</ele><time>2026-04-12T09:50:19Z</time></trkpt><trkpt lat="42.72328797865525" lon="11.761344309562354"><ele>472.0</ele><time>2026-04-12T09:50:20Z</time></trkpt><trkpt lat="42.723389334570825" lon="11.761264783146801"><ele>472.00000000000006</ele><time>2026-04-12T09:50:21Z</time></trkpt><trkpt lat="42.723493865993085" lon="11.76117963868736"><ele>472.00000000000006</ele><time>2026-04-12T09:50:22Z</time></trkpt><trkpt lat="42.72359271857754" lon="11.761098009587728"><ele>472.0</ele><time>2026-04-12T09:50:23Z</time></trkpt><trkpt lat="42.723653502729135" lon="11.761052471928702"><ele>472.0</ele><time>2026-04-12T09:50:24Z</time></trkpt><trkpt lat="42.723730502663535" lon="11.760995409135706"><ele>472.50000000000006</ele><time>2026-04-12T09:50:26Z</time></trkpt><trkpt lat="42.723789010698034" lon="11.760942831949842"><ele>473.0</ele><time>2026-04-12T09:50:40Z</time></trkpt><trkpt lat="42.72385423307322" lon="11.760886196010347"><ele>473.5</ele><time>2026-04-12T09:50:42Z</time></trkpt><trkpt lat="42.72394695518905" lon="11.76082900173822"><ele>474.0</ele><time>2026-04-12T09:50:44Z</time></trkpt><trkpt lat="42.724009952641" lon="11.760839148514302"><ele>474.50000000000006</ele><time>2026-04-12T09:50:45Z</time></trkpt><trkpt lat="42.72409663501461" lon="11.76083769960613"><ele>475.0</ele><time>2026-04-12T09:50:46Z</time></trkpt><trkpt lat="42.72420752391828" lon="11.760843709829812"><ele>475.0</ele><time>2026-04-12T09:50:47Z</time></trkpt><trkpt lat="42.72434238816128" lon="11.760873177530879"><ele>475.0</ele><time>2026-04-12T09:50:48Z</time></trkpt><trkpt lat="42.72447428107834" lon="11.760924639336254"><ele>475.0</ele><time>2026-04-12T09:50:49Z</time></trkpt><trkpt lat="42.72462900196307" lon="11.760977375154557"><ele>475.0</ele><time>2026-04-12T09:50:50Z</time></trkpt><trkpt lat="42.72479662127995" lon="11.761063556080304"><ele>475.0</ele><time>2026-04-12T09:50:51Z</time></trkpt><trkpt lat="42.72497904756611" lon="11.761159964134881"><ele>475.0</ele><time>2026-04-12T09:50:52Z</time></trkpt><trkpt lat="42.725150847061784" lon="11.761253298889907"><ele>475.0</ele><time>2026-04-12T09:50:53Z</time></trkpt><trkpt lat="42.72533809819853" lon="11.761339902052251"><ele>475.0</ele><time>2026-04-12T09:50:54Z</time></trkpt><trkpt lat="42.725514253280956" lon="11.761415257718944"><ele>475.0</ele><time>2026-04-12T09:50:55Z</time></trkpt><trkpt lat="42.725686097470536" lon="11.761492208047768"><ele>475.0</ele><time>2026-04-12T09:50:56Z</time></trkpt><trkpt lat="42.72585438083075" lon="11.76157420077239"><ele>475.0</ele><time>2026-04-12T09:50:57Z</time></trkpt><trkpt lat="42.72602107575398" lon="11.761653837388886"><ele>475.0</ele><time>2026-04-12T09:50:58Z</time></trkpt><trkpt lat="42.72618700288702" lon="11.76173263348338"><ele>475.0</ele><time>2026-04-12T09:50:59Z</time></trkpt><trkpt lat="42.726355649170706" lon="11.761809698433007"><ele>474.6666666666667</ele><time>2026-04-12T09:51:00Z</time></trkpt><trkpt lat="42.72652587419803" lon="11.761890383876407"><ele>474.33333333333337</ele><time>2026-04-12T09:51:01Z</time></trkpt><trkpt lat="42.72668507398134" lon="11.761975712464924"><ele>474.0</ele><time>2026-04-12T09:51:02Z</time></trkpt><trkpt lat="42.726839064256026" lon="11.762047458440849"><ele>472.66666666666663</ele><time>2026-04-12T09:51:03Z</time></trkpt><trkpt lat="42.72699730138521" lon="11.762113276985662"><ele>471.3333333333333</ele><time>2026-04-12T09:51:04Z</time></trkpt><trkpt lat="42.72716506224923" lon="11.762176166502536"><ele>470.0</ele><time>2026-04-12T09:51:05Z</time></trkpt><trkpt lat="42.72735321899628" lon="11.762255300950043"><ele>470.0</ele><time>2026-04-12T09:51:06Z</time></trkpt><trkpt lat="42.72754506446153" lon="11.762324141557347"><ele>470.0</ele><time>2026-04-12T09:51:07Z</time></trkpt><trkpt lat="42.72773553688664" lon="11.762377376784205"><ele>470.0</ele><time>2026-04-12T09:51:08Z</time></trkpt><trkpt lat="42.72793474491604" lon="11.762419350248498"><ele>470.3333333333333</ele><time>2026-04-12T09:51:09Z</time></trkpt><trkpt lat="42.72813309413992" lon="11.76245625422408"><ele>470.66666666666663</ele><time>2026-04-12T09:51:10Z</time></trkpt><trkpt lat="42.72833729981412" lon="11.762464063176303"><ele>471.0</ele><time>2026-04-12T09:51:11Z</time></trkpt><trkpt lat="42.72854360711642" lon="11.762474046982588"><ele>472.33333333333337</ele><time>2026-04-12T09:51:12Z</time></trkpt><trkpt lat="42.72873250878819" lon="11.76249549372045"><ele>473.6666666666667</ele><time>2026-04-12T09:51:13Z</time></trkpt><trkpt lat="42.728888302695644" lon="11.762520007042177"><ele>475.0</ele><time>2026-04-12T09:51:14Z</time></trkpt><trkpt lat="42.72904418167671" lon="11.762550039161162"><ele>475.0</ele><time>2026-04-12T09:51:15Z</time></trkpt><trkpt lat="42.7292014557155" lon="11.762597764500152"><ele>475.0</ele><time>2026-04-12T09:51:16Z</time></trkpt><trkpt lat="42.729365286409426" lon="11.76264574907016"><ele>475.0</ele><time>2026-04-12T09:51:17Z</time></trkpt><trkpt lat="42.729527903747275" lon="11.762680965856369"><ele>474.0</ele><time>2026-04-12T09:51:18Z</time></trkpt><trkpt lat="42.72968209195546" lon="11.762719137235651"><ele>473.0</ele><time>2026-04-12T09:51:19Z</time></trkpt><trkpt lat="42.72981907738779" lon="11.762758072343004"><ele>472.0</ele><time>2026-04-12T09:51:20Z</time></trkpt><trkpt lat="42.72995750294651" lon="11.762792705632505"><ele>471.0</ele><time>2026-04-12T09:51:21Z</time></trkpt><trkpt lat="42.73010592677447" lon="11.762832470441765"><ele>472.0</ele><time>2026-04-12T09:51:22Z</time></trkpt><trkpt lat="42.730237275750646" lon="11.76287061011114"><ele>473.0</ele><time>2026-04-12T09:51:23Z</time></trkpt><trkpt lat="42.73033684837435" lon="11.762896879903114"><ele>474.0</ele><time>2026-04-12T09:51:24Z</time></trkpt><trkpt lat="42.73041828321026" lon="11.762920538262208"><ele>475.0</ele><time>2026-04-12T09:51:25Z</time></trkpt><trkpt lat="42.7305382556661" lon="11.762947967674696"><ele>476.0</ele><time>2026-04-12T09:51:27Z</time></trkpt><trkpt lat="42.73062928098745" lon="11.762985176069357"><ele>476.0</ele><time>2026-04-12T09:51:29Z</time></trkpt><trkpt lat="42.73066834568569" lon="11.763083428981231"><ele>476.0</ele><time>2026-04-12T09:51:32Z</time></trkpt><trkpt lat="42.73075176813119" lon="11.763089613301705"><ele>476.0</ele><time>2026-04-12T09:52:06Z</time></trkpt><trkpt lat="42.730818476501696" lon="11.763304753118272"><ele>476.0</ele><time>2026-04-12T09:52:08Z</time></trkpt><trkpt lat="42.73093578223196" lon="11.76335096660854"><ele>476.0</ele><time>2026-04-12T09:52:10Z</time></trkpt><trkpt lat="42.731052995724156" lon="11.763346118719683"><ele>476.0</ele><time>2026-04-12T09:52:12Z</time></trkpt><trkpt lat="42.73118971121106" lon="11.76335082612781"><ele>476.0</ele><time>2026-04-12T09:52:14Z</time></trkpt><trkpt lat="42.73127379991585" lon="11.763345195213594"><ele>476.0</ele><time>2026-04-12T09:52:15Z</time></trkpt><trkpt lat="42.73135809214758" lon="11.763359138323597"><ele>476.0</ele><time>2026-04-12T09:52:16Z</time></trkpt><trkpt lat="42.73142719261367" lon="11.7633509479388"><ele>475.6</ele><time>2026-04-12T09:52:17Z</time></trkpt><trkpt lat="42.73149536547083" lon="11.763335910610774"><ele>475.20000000000005</ele><time>2026-04-12T09:52:18Z</time></trkpt><trkpt lat="42.731601552376624" lon="11.763302075101334"><ele>474.79999999999995</ele><time>2026-04-12T09:52:20Z</time></trkpt><trkpt lat="42.73170635546272" lon="11.763259872971423"><ele>474.4</ele><time>2026-04-12T09:52:22Z</time></trkpt><trkpt lat="42.73179648290531" lon="11.763259025583578"><ele>474.0</ele><time>2026-04-12T09:52:23Z</time></trkpt><trkpt lat="42.73192129698331" lon="11.76330854523311"><ele>473.66666666666663</ele><time>2026-04-12T09:52:24Z</time></trkpt><trkpt lat="42.73207630674363" lon="11.763334067916727"><ele>473.3333333333333</ele><time>2026-04-12T09:52:25Z</time></trkpt><trkpt lat="42.73223296261096" lon="11.76337931102715"><ele>473.0</ele><time>2026-04-12T09:52:26Z</time></trkpt><trkpt lat="42.73239552286651" lon="11.76341529410812"><ele>473.0</ele><time>2026-04-12T09:52:27Z</time></trkpt><trkpt lat="42.73256332771571" lon="11.763461535033546"><ele>473.0</ele><time>2026-04-12T09:52:28Z</time></trkpt><trkpt lat="42.73274027152535" lon="11.763486837617744"><ele>473.0</ele><time>2026-04-12T09:52:29Z</time></trkpt><trkpt lat="42.73292521415814" lon="11.763480030970685"><ele>473.66666666666663</ele><time>2026-04-12T09:52:30Z</time></trkpt><trkpt lat="42.73309877696067" lon="11.763433004263636"><ele>474.33333333333337</ele><time>2026-04-12T09:52:31Z</time></trkpt><trkpt lat="42.73327316084053" lon="11.763331126082248"><ele>475.0</ele><time>2026-04-12T09:52:32Z</time></trkpt><trkpt lat="42.73344482177367" lon="11.76318294915675"><ele>475.33333333333337</ele><time>2026-04-12T09:52:33Z</time></trkpt><trkpt lat="42.7336131978101" lon="11.763000628887786"><ele>475.66666666666663</ele><time>2026-04-12T09:52:34Z</time></trkpt><trkpt lat="42.733765927857924" lon="11.762844431089498"><ele>476.0</ele><time>2026-04-12T09:52:35Z</time></trkpt><trkpt lat="42.73390486523718" lon="11.762707266077758"><ele>477.3333333333333</ele><time>2026-04-12T09:52:36Z</time></trkpt><trkpt lat="42.73403773702016" lon="11.76256222469042"><ele>478.66666666666663</ele><time>2026-04-12T09:52:37Z</time></trkpt><trkpt lat="42.73415637178803" lon="11.762389039768939"><ele>480.0</ele><time>2026-04-12T09:52:38Z</time></trkpt><trkpt lat="42.7342583935435" lon="11.76215956011096"><ele>480.0</ele><time>2026-04-12T09:52:39Z</time></trkpt><trkpt lat="42.73434735852032" lon="11.761946775739888"><ele>480.0</ele><time>2026-04-12T09:52:40Z</time></trkpt><trkpt lat="42.734444442385254" lon="11.76176605751495"><ele>480.0</ele><time>2026-04-12T09:52:41Z</time></trkpt><trkpt lat="42.73456169310629" lon="11.761648136869882"><ele>479.33333333333337</ele><time>2026-04-12T09:52:42Z</time></trkpt><trkpt lat="42.73466260972174" lon="11.761515597291787"><ele>478.6666666666667</ele><time>2026-04-12T09:52:43Z</time></trkpt><trkpt lat="42.73480304163319" lon="11.761433818048026"><ele>478.0</ele><time>2026-04-12T09:52:44Z</time></trkpt><trkpt lat="42.73496040825071" lon="11.761351403047145"><ele>478.0</ele><time>2026-04-12T09:52:45Z</time></trkpt><trkpt lat="42.73509549325969" lon="11.761298184624666"><ele>478.0</ele><time>2026-04-12T09:52:46Z</time></trkpt><trkpt lat="42.735240256527064" lon="11.761287383706454"><ele>478.0</ele><time>2026-04-12T09:52:47Z</time></trkpt><trkpt lat="42.73537964936499" lon="11.761328844625092"><ele>478.0</ele><time>2026-04-12T09:52:48Z</time></trkpt><trkpt lat="42.73549362481424" lon="11.761450522215679"><ele>478.6666666666667</ele><time>2026-04-12T09:52:49Z</time></trkpt><trkpt lat="42.735600604577485" lon="11.761585967109786"><ele>479.33333333333337</ele><time>2026-04-12T09:52:50Z</time></trkpt><trkpt lat="42.735716783312945" lon="11.761736613310918"><ele>480.0</ele><time>2026-04-12T09:52:51Z</time></trkpt><trkpt lat="42.7358222544384" lon="11.761935157998417"><ele>480.0</ele><time>2026-04-12T09:52:52Z</time></trkpt><trkpt lat="42.73593741701151" lon="11.762115363624305"><ele>480.0</ele><time>2026-04-12T09:52:53Z</time></trkpt><trkpt lat="42.73606207055278" lon="11.762314438388502"><ele>480.0</ele><time>2026-04-12T09:52:54Z</time></trkpt><trkpt lat="42.7361926261096" lon="11.762524733005996"><ele>480.66666666666663</ele><time>2026-04-12T09:52:55Z</time></trkpt><trkpt lat="42.73633197844441" lon="11.76274528624196"><ele>481.3333333333333</ele><time>2026-04-12T09:52:56Z</time></trkpt><trkpt lat="42.73646789867461" lon="11.762956044718598"><ele>482.0</ele><time>2026-04-12T09:52:57Z</time></trkpt><trkpt lat="42.73660316152604" lon="11.76316315973753"><ele>482.0</ele><time>2026-04-12T09:52:58Z</time></trkpt><trkpt lat="42.73673242060356" lon="11.763379734065486"><ele>482.0</ele><time>2026-04-12T09:52:59Z</time></trkpt><trkpt lat="42.73686184303328" lon="11.763590775794615"><ele>482.0</ele><time>2026-04-12T09:53:00Z</time></trkpt><trkpt lat="42.736992167417796" lon="11.76379993799995"><ele>483.3333333333333</ele><time>2026-04-12T09:53:01Z</time></trkpt><trkpt lat="42.737118090170476" lon="11.764002185373785"><ele>484.66666666666663</ele><time>2026-04-12T09:53:02Z</time></trkpt><trkpt lat="42.73724307124119" lon="11.764182409450312"><ele>486.0</ele><time>2026-04-12T09:53:03Z</time></trkpt><trkpt lat="42.73736781141658" lon="11.764379480784536"><ele>485.66666666666663</ele><time>2026-04-12T09:53:04Z</time></trkpt><trkpt lat="42.7374905619013" lon="11.764584337774552"><ele>485.3333333333333</ele><time>2026-04-12T09:53:05Z</time></trkpt><trkpt lat="42.73761868903886" lon="11.764783744517983"><ele>485.0</ele><time>2026-04-12T09:53:06Z</time></trkpt><trkpt lat="42.737735601520036" lon="11.764965660368164"><ele>485.0</ele><time>2026-04-12T09:53:07Z</time></trkpt><trkpt lat="42.73783969225645" lon="11.765136622192163"><ele>485.0</ele><time>2026-04-12T09:53:08Z</time></trkpt><trkpt lat="42.73794160654277" lon="11.765297997818442"><ele>485.0</ele><time>2026-04-12T09:53:09Z</time></trkpt><trkpt lat="42.73804299578434" lon="11.765454040325372"><ele>484.66666666666663</ele><time>2026-04-12T09:53:10Z</time></trkpt><trkpt lat="42.7381418245641" lon="11.765613553051285"><ele>484.33333333333337</ele><time>2026-04-12T09:53:11Z</time></trkpt><trkpt lat="42.73824568676569" lon="11.765789403724648"><ele>484.0</ele><time>2026-04-12T09:53:12Z</time></trkpt><trkpt lat="42.738344164141736" lon="11.765986932261852"><ele>483.33333333333337</ele><time>2026-04-12T09:53:13Z</time></trkpt><trkpt lat="42.738409419633676" lon="11.76620063075593"><ele>482.66666666666663</ele><time>2026-04-12T09:53:14Z</time></trkpt><trkpt lat="42.738479003199195" lon="11.766405015585471"><ele>482.0</ele><time>2026-04-12T09:53:15Z</time></trkpt><trkpt lat="42.73858455846096" lon="11.766606739654941"><ele>481.0</ele><time>2026-04-12T09:53:16Z</time></trkpt><trkpt lat="42.73870918935698" lon="11.766785498518358"><ele>480.0</ele><time>2026-04-12T09:53:17Z</time></trkpt><trkpt lat="42.73882954177497" lon="11.766945391688182"><ele>479.0</ele><time>2026-04-12T09:53:18Z</time></trkpt><trkpt lat="42.73895807656996" lon="11.767095323726618"><ele>478.66666666666663</ele><time>2026-04-12T09:53:19Z</time></trkpt><trkpt lat="42.73909794411484" lon="11.76725394892431"><ele>478.33333333333337</ele><time>2026-04-12T09:53:20Z</time></trkpt><trkpt lat="42.7392287269524" lon="11.767406807790367"><ele>478.0</ele><time>2026-04-12T09:53:21Z</time></trkpt><trkpt lat="42.73935133582614" lon="11.767548067232699"><ele>478.33333333333337</ele><time>2026-04-12T09:53:22Z</time></trkpt><trkpt lat="42.7394639438513" lon="11.767690969812067"><ele>478.66666666666663</ele><time>2026-04-12T09:53:23Z</time></trkpt><trkpt lat="42.7395691981385" lon="11.76784661772555"><ele>479.0</ele><time>2026-04-12T09:53:24Z</time></trkpt><trkpt lat="42.739661303306015" lon="11.768011335010637"><ele>478.0</ele><time>2026-04-12T09:53:25Z</time></trkpt><trkpt lat="42.73973738605036" lon="11.768197237608835"><ele>477.0</ele><time>2026-04-12T09:53:26Z</time></trkpt><trkpt lat="42.7398043928616" lon="11.768417822751156"><ele>476.0</ele><time>2026-04-12T09:53:27Z</time></trkpt><trkpt lat="42.73984869571109" lon="11.768662623230895"><ele>474.0</ele><time>2026-04-12T09:53:28Z</time></trkpt><trkpt lat="42.73988401291611" lon="11.768908177541046"><ele>472.0</ele><time>2026-04-12T09:53:29Z</time></trkpt><trkpt lat="42.73990906532834" lon="11.769159240007808"><ele>470.0</ele><time>2026-04-12T09:53:30Z</time></trkpt><trkpt lat="42.739916018160095" lon="11.769413754091005"><ele>467.66666666666663</ele><time>2026-04-12T09:53:31Z</time></trkpt><trkpt lat="42.739902824846396" lon="11.769688361719085"><ele>465.33333333333337</ele><time>2026-04-12T09:53:32Z</time></trkpt><trkpt lat="42.73986540668552" lon="11.769958366478152"><ele>463.0</ele><time>2026-04-12T09:53:33Z</time></trkpt><trkpt lat="42.73982156112689" lon="11.770214369710557"><ele>462.0</ele><time>2026-04-12T09:53:34Z</time></trkpt><trkpt lat="42.73978987277057" lon="11.770458511058655"><ele>461.0</ele><time>2026-04-12T09:53:35Z</time></trkpt><trkpt lat="42.73975431183333" lon="11.770718239374869"><ele>460.0</ele><time>2026-04-12T09:53:36Z</time></trkpt><trkpt lat="42.73971415286591" lon="11.77096544069445"><ele>459.0</ele><time>2026-04-12T09:53:37Z</time></trkpt><trkpt lat="42.73968023756054" lon="11.771211633681444"><ele>458.0</ele><time>2026-04-12T09:53:38Z</time></trkpt><trkpt lat="42.73965488421629" lon="11.771450393860919"><ele>457.0</ele><time>2026-04-12T09:53:39Z</time></trkpt><trkpt lat="42.73965305173074" lon="11.771691321827328"><ele>455.33333333333337</ele><time>2026-04-12T09:53:40Z</time></trkpt><trkpt lat="42.73969182571428" lon="11.771939822623843"><ele>453.66666666666663</ele><time>2026-04-12T09:53:41Z</time></trkpt><trkpt lat="42.73974949237349" lon="11.772174375382084"><ele>452.0</ele><time>2026-04-12T09:53:42Z</time></trkpt><trkpt lat="42.73977940581625" lon="11.77239196958044"><ele>452.0</ele><time>2026-04-12T09:53:43Z</time></trkpt><trkpt lat="42.73977151994999" lon="11.772647169010828"><ele>452.0</ele><time>2026-04-12T09:53:44Z</time></trkpt><trkpt lat="42.73971855200631" lon="11.772885413767979"><ele>452.0</ele><time>2026-04-12T09:53:45Z</time></trkpt><trkpt lat="42.739670798232055" lon="11.773117031165505"><ele>451.75</ele><time>2026-04-12T09:53:46Z</time></trkpt><trkpt lat="42.73962651606893" lon="11.773326319518489"><ele>451.5</ele><time>2026-04-12T09:53:47Z</time></trkpt><trkpt lat="42.73959799118466" lon="11.773511359616014"><ele>451.25</ele><time>2026-04-12T09:53:48Z</time></trkpt><trkpt lat="42.73959273327953" lon="11.773676713349234"><ele>451.0</ele><time>2026-04-12T09:53:49Z</time></trkpt><trkpt lat="42.73963102349497" lon="11.773868626868213"><ele>447.6666666666667</ele><time>2026-04-12T09:53:50Z</time></trkpt><trkpt lat="42.73969760243367" lon="11.774083991865284"><ele>444.33333333333337</ele><time>2026-04-12T09:53:51Z</time></trkpt><trkpt lat="42.73974555957292" lon="11.774289058468447"><ele>441.0</ele><time>2026-04-12T09:53:52Z</time></trkpt><trkpt lat="42.7398224446329" lon="11.774487145965223"><ele>439.75</ele><time>2026-04-12T09:53:53Z</time></trkpt><trkpt lat="42.73991257257425" lon="11.774636727210542"><ele>438.5</ele><time>2026-04-12T09:53:54Z</time></trkpt><trkpt lat="42.74001210464942" lon="11.774764349449262"><ele>437.25</ele><time>2026-04-12T09:53:55Z</time></trkpt><trkpt lat="42.7401474762749" lon="11.774858769753298"><ele>436.0</ele><time>2026-04-12T09:53:56Z</time></trkpt><trkpt lat="42.74031767817865" lon="11.774939914929941"><ele>436.0</ele><time>2026-04-12T09:53:57Z</time></trkpt><trkpt lat="42.74049050064849" lon="11.77504725823028"><ele>436.0</ele><time>2026-04-12T09:53:58Z</time></trkpt><trkpt lat="42.7406654359398" lon="11.775153054238897"><ele>436.0</ele><time>2026-04-12T09:53:59Z</time></trkpt><trkpt lat="42.740805329157666" lon="11.77530071737593"><ele>432.0</ele><time>2026-04-12T09:54:00Z</time></trkpt><trkpt lat="42.740930732314546" lon="11.77545185259806"><ele>428.0</ele><time>2026-04-12T09:54:01Z</time></trkpt><trkpt lat="42.74102741630672" lon="11.775618292039939"><ele>424.0</ele><time>2026-04-12T09:54:02Z</time></trkpt><trkpt lat="42.74111176182564" lon="11.775803041154806"><ele>424.0</ele><time>2026-04-12T09:54:03Z</time></trkpt><trkpt lat="42.741172118712115" lon="11.775998615202312"><ele>424.0</ele><time>2026-04-12T09:54:04Z</time></trkpt><trkpt lat="42.74123419101397" lon="11.776182110915766"><ele>424.0</ele><time>2026-04-12T09:54:05Z</time></trkpt><trkpt lat="42.74132975220801" lon="11.776348277306917"><ele>419.33333333333337</ele><time>2026-04-12T09:54:06Z</time></trkpt><trkpt lat="42.74146446945571" lon="11.776467466894342"><ele>414.66666666666663</ele><time>2026-04-12T09:54:07Z</time></trkpt><trkpt lat="42.74160882267566" lon="11.77652631571224"><ele>410.0</ele><time>2026-04-12T09:54:08Z</time></trkpt><trkpt lat="42.741758649555464" lon="11.776551245444773"><ele>408.66666666666663</ele><time>2026-04-12T09:54:09Z</time></trkpt><trkpt lat="42.741925405559755" lon="11.77657518746423"><ele>407.33333333333337</ele><time>2026-04-12T09:54:10Z</time></trkpt><trkpt lat="42.74211150886089" lon="11.776612230391864"><ele>406.0</ele><time>2026-04-12T09:54:11Z</time></trkpt><trkpt lat="42.7423116180178" lon="11.77664839638396"><ele>406.0</ele><time>2026-04-12T09:54:12Z</time></trkpt><trkpt lat="42.74252222472179" lon="11.776688873074205"><ele>406.0</ele><time>2026-04-12T09:54:13Z</time></trkpt><trkpt lat="42.74271952991676" lon="11.776729809430277"><ele>406.0</ele><time>2026-04-12T09:54:14Z</time></trkpt><trkpt lat="42.74290340819534" lon="11.776767462639372"><ele>405.6666666666667</ele><time>2026-04-12T09:54:15Z</time></trkpt><trkpt lat="42.74308763956708" lon="11.776804692960603"><ele>405.33333333333337</ele><time>2026-04-12T09:54:16Z</time></trkpt><trkpt lat="42.74326198747898" lon="11.776841896106244"><ele>405.0</ele><time>2026-04-12T09:54:17Z</time></trkpt><trkpt lat="42.743424484759764" lon="11.776876620165275"><ele>405.66666666666663</ele><time>2026-04-12T09:54:18Z</time></trkpt><trkpt lat="42.74357809269011" lon="11.77690549026046"><ele>406.3333333333333</ele><time>2026-04-12T09:54:19Z</time></trkpt><trkpt lat="42.74372968270435" lon="11.776933989396007"><ele>407.0</ele><time>2026-04-12T09:54:20Z</time></trkpt><trkpt lat="42.743887454141095" lon="11.776937534830225"><ele>406.3333333333333</ele><time>2026-04-12T09:54:21Z</time></trkpt><trkpt lat="42.744041213011215" lon="11.776835919063933"><ele>405.66666666666663</ele><time>2026-04-12T09:54:22Z</time></trkpt><trkpt lat="42.74417311389597" lon="11.77669897951162"><ele>405.0</ele><time>2026-04-12T09:54:23Z</time></trkpt><trkpt lat="42.74425394140708" lon="11.776521974147563"><ele>405.0</ele><time>2026-04-12T09:54:24Z</time></trkpt><trkpt lat="42.74429994697821" lon="11.776329133169002"><ele>405.0</ele><time>2026-04-12T09:54:25Z</time></trkpt><trkpt lat="42.74433281117176" lon="11.776122778696731"><ele>405.0</ele><time>2026-04-12T09:54:26Z</time></trkpt><trkpt lat="42.744368924365375" lon="11.775907706013996"><ele>410.0</ele><time>2026-04-12T09:54:27Z</time></trkpt><trkpt lat="42.74439382119013" lon="11.775685346030517"><ele>415.0</ele><time>2026-04-12T09:54:28Z</time></trkpt><trkpt lat="42.74439568069248" lon="11.775457817710771"><ele>420.0</ele><time>2026-04-12T09:54:29Z</time></trkpt><trkpt lat="42.744386670017214" lon="11.775227857643802"><ele>418.0</ele><time>2026-04-12T09:54:30Z</time></trkpt><trkpt lat="42.744380080416995" lon="11.774985581302111"><ele>416.0</ele><time>2026-04-12T09:54:31Z</time></trkpt><trkpt lat="42.74437852309072" lon="11.774736611720162"><ele>414.0</ele><time>2026-04-12T09:54:32Z</time></trkpt><trkpt lat="42.744377882810674" lon="11.774494187523716"><ele>411.33333333333337</ele><time>2026-04-12T09:54:33Z</time></trkpt><trkpt lat="42.74437475711584" lon="11.774247051435855"><ele>408.6666666666667</ele><time>2026-04-12T09:54:34Z</time></trkpt><trkpt lat="42.744369480915275" lon="11.773989029718548"><ele>406.0</ele><time>2026-04-12T09:54:35Z</time></trkpt><trkpt lat="42.744364268399586" lon="11.773739775892308"><ele>406.6666666666667</ele><time>2026-04-12T09:54:36Z</time></trkpt><trkpt lat="42.74436030910525" lon="11.773483774679697"><ele>407.33333333333337</ele><time>2026-04-12T09:54:37Z</time></trkpt><trkpt lat="42.744359505050745" lon="11.773218373358054"><ele>408.0</ele><time>2026-04-12T09:54:38Z</time></trkpt><trkpt lat="42.74435780748235" lon="11.772947429560071"><ele>408.33333333333337</ele><time>2026-04-12T09:54:39Z</time></trkpt><trkpt lat="42.74435386321446" lon="11.772661190882852"><ele>408.6666666666667</ele><time>2026-04-12T09:54:40Z</time></trkpt><trkpt lat="42.744349152342494" lon="11.772367726682385"><ele>409.0</ele><time>2026-04-12T09:54:41Z</time></trkpt><trkpt lat="42.74434458663297" lon="11.7720610544923"><ele>409.6666666666667</ele><time>2026-04-12T09:54:42Z</time></trkpt><trkpt lat="42.74433706031499" lon="11.771755861395658"><ele>410.33333333333337</ele><time>2026-04-12T09:54:43Z</time></trkpt><trkpt lat="42.74433309834681" lon="11.771479872951005"><ele>411.0</ele><time>2026-04-12T09:54:44Z</time></trkpt><trkpt lat="42.74433141425905" lon="11.771232045114843"><ele>411.66666666666663</ele><time>2026-04-12T09:54:45Z</time></trkpt><trkpt lat="42.74433043448044" lon="11.770991629680813"><ele>412.3333333333333</ele><time>2026-04-12T09:54:46Z</time></trkpt><trkpt lat="42.74432920315045" lon="11.77075726820197"><ele>413.0</ele><time>2026-04-12T09:54:47Z</time></trkpt><trkpt lat="42.744325194433124" lon="11.770523827395683"><ele>413.0</ele><time>2026-04-12T09:54:48Z</time></trkpt><trkpt lat="42.744320363596074" lon="11.77029008218504"><ele>413.0</ele><time>2026-04-12T09:54:49Z</time></trkpt><trkpt lat="42.7443188541752" lon="11.770068496432788"><ele>413.0</ele><time>2026-04-12T09:54:50Z</time></trkpt><trkpt lat="42.74431633881092" lon="11.7698599807679"><ele>413.3333333333333</ele><time>2026-04-12T09:54:51Z</time></trkpt><trkpt lat="42.74429239372481" lon="11.76963158572007"><ele>413.66666666666663</ele><time>2026-04-12T09:54:52Z</time></trkpt><trkpt lat="42.744254676249795" lon="11.769396381730571"><ele>414.0</ele><time>2026-04-12T09:54:53Z</time></trkpt><trkpt lat="42.74421100232637" lon="11.769152198100178"><ele>415.0</ele><time>2026-04-12T09:54:54Z</time></trkpt><trkpt lat="42.744164495072205" lon="11.768905015286125"><ele>416.0</ele><time>2026-04-12T09:54:55Z</time></trkpt><trkpt lat="42.744119933035286" lon="11.768657257476242"><ele>417.0</ele><time>2026-04-12T09:54:56Z</time></trkpt><trkpt lat="42.744071176809996" lon="11.768410321199633"><ele>417.0</ele><time>2026-04-12T09:54:57Z</time></trkpt><trkpt lat="42.744021473446615" lon="11.768159365220184"><ele>417.0</ele><time>2026-04-12T09:54:58Z</time></trkpt><trkpt lat="42.743980257551485" lon="11.767923083624638"><ele>417.0</ele><time>2026-04-12T09:54:59Z</time></trkpt><trkpt lat="42.74394337311065" lon="11.767713182736767"><ele>418.66666666666663</ele><time>2026-04-12T09:55:00Z</time></trkpt><trkpt lat="42.74394121649299" lon="11.767503499581771"><ele>420.3333333333333</ele><time>2026-04-12T09:55:01Z</time></trkpt><trkpt lat="42.743963062402806" lon="11.76727383824517"><ele>422.0</ele><time>2026-04-12T09:55:02Z</time></trkpt><trkpt lat="42.744026359284014" lon="11.767060450409645"><ele>422.66666666666663</ele><time>2026-04-12T09:55:03Z</time></trkpt><trkpt lat="42.74411684996734" lon="11.766851025161047"><ele>423.33333333333337</ele><time>2026-04-12T09:55:04Z</time></trkpt><trkpt lat="42.744186194105836" lon="11.766644700445523"><ele>424.0</ele><time>2026-04-12T09:55:05Z</time></trkpt><trkpt lat="42.74426928854822" lon="11.766435708954797"><ele>424.0</ele><time>2026-04-12T09:55:06Z</time></trkpt><trkpt lat="42.74436552050236" lon="11.766211404372628"><ele>424.0</ele><time>2026-04-12T09:55:07Z</time></trkpt><trkpt lat="42.74445386684966" lon="11.765972674023871"><ele>424.0</ele><time>2026-04-12T09:55:08Z</time></trkpt><trkpt lat="42.74455886453009" lon="11.765757289015893"><ele>424.6666666666667</ele><time>2026-04-12T09:55:09Z</time></trkpt><trkpt lat="42.744654879520596" lon="11.765546058605956"><ele>425.33333333333337</ele><time>2026-04-12T09:55:10Z</time></trkpt><trkpt lat="42.744750765327375" lon="11.765339548004354"><ele>426.0</ele><time>2026-04-12T09:55:11Z</time></trkpt><trkpt lat="42.744845815175154" lon="11.765130899730883"><ele>426.0</ele><time>2026-04-12T09:55:12Z</time></trkpt><trkpt lat="42.74494190256881" lon="11.76492917324289"><ele>426.0</ele><time>2026-04-12T09:55:13Z</time></trkpt><trkpt lat="42.74503243696901" lon="11.76472091040897"><ele>426.0</ele><time>2026-04-12T09:55:14Z</time></trkpt><trkpt lat="42.74511937286447" lon="11.764517783749145"><ele>426.33333333333337</ele><time>2026-04-12T09:55:15Z</time></trkpt><trkpt lat="42.74520444251947" lon="11.764326806282709"><ele>426.6666666666667</ele><time>2026-04-12T09:55:16Z</time></trkpt><trkpt lat="42.745284934772094" lon="11.764132852295948"><ele>427.0</ele><time>2026-04-12T09:55:17Z</time></trkpt><trkpt lat="42.745368677979975" lon="11.763931275168089"><ele>427.0</ele><time>2026-04-12T09:55:18Z</time></trkpt><trkpt lat="42.745460421334215" lon="11.7637365497269"><ele>427.0</ele><time>2026-04-12T09:55:19Z</time></trkpt><trkpt lat="42.745546175090084" lon="11.763540873388457"><ele>427.0</ele><time>2026-04-12T09:55:20Z</time></trkpt><trkpt lat="42.74563883199395" lon="11.763337393827646"><ele>425.33333333333337</ele><time>2026-04-12T09:55:21Z</time></trkpt><trkpt lat="42.74573231609182" lon="11.763133389773271"><ele>423.66666666666663</ele><time>2026-04-12T09:55:22Z</time></trkpt><trkpt lat="42.74583076724869" lon="11.762920598894562"><ele>422.0</ele><time>2026-04-12T09:55:23Z</time></trkpt><trkpt lat="42.74593010493956" lon="11.7627000401435"><ele>421.3333333333333</ele><time>2026-04-12T09:55:24Z</time></trkpt><trkpt lat="42.74601385533725" lon="11.76247540297766"><ele>420.66666666666663</ele><time>2026-04-12T09:55:25Z</time></trkpt><trkpt lat="42.74610871438206" lon="11.762250556006261"><ele>420.0</ele><time>2026-04-12T09:55:26Z</time></trkpt><trkpt lat="42.74620609125319" lon="11.762029093553174"><ele>423.33333333333337</ele><time>2026-04-12T09:55:27Z</time></trkpt><trkpt lat="42.746307594335" lon="11.76180712567479"><ele>426.6666666666667</ele><time>2026-04-12T09:55:28Z</time></trkpt><trkpt lat="42.74640657320871" lon="11.761581122908737"><ele>430.0</ele><time>2026-04-12T09:55:29Z</time></trkpt><trkpt lat="42.74651699858269" lon="11.761357420498603"><ele>430.0</ele><time>2026-04-12T09:55:30Z</time></trkpt><trkpt lat="42.746620438289646" lon="11.761122019947475"><ele>430.0</ele><time>2026-04-12T09:55:31Z</time></trkpt><trkpt lat="42.74671726874856" lon="11.760882702555262"><ele>430.0</ele><time>2026-04-12T09:55:32Z</time></trkpt><trkpt lat="42.74682147119067" lon="11.760640127523807"><ele>431.6666666666667</ele><time>2026-04-12T09:55:33Z</time></trkpt><trkpt lat="42.7469279940036" lon="11.760405470087381"><ele>433.33333333333337</ele><time>2026-04-12T09:55:34Z</time></trkpt><trkpt lat="42.747027489854666" lon="11.760197880420428"><ele>435.0</ele><time>2026-04-12T09:55:35Z</time></trkpt><trkpt lat="42.74712201233774" lon="11.7599803748031"><ele>435.0</ele><time>2026-04-12T09:55:36Z</time></trkpt><trkpt lat="42.74721855397577" lon="11.759752675303185"><ele>435.0</ele><time>2026-04-12T09:55:37Z</time></trkpt><trkpt lat="42.747323285074074" lon="11.759517430315519"><ele>435.0</ele><time>2026-04-12T09:55:38Z</time></trkpt><trkpt lat="42.74743087669698" lon="11.75928284748316"><ele>433.33333333333337</ele><time>2026-04-12T09:55:39Z</time></trkpt><trkpt lat="42.74753937111793" lon="11.759042220541417"><ele>431.6666666666667</ele><time>2026-04-12T09:55:40Z</time></trkpt><trkpt lat="42.74764013573766" lon="11.75879635703968"><ele>430.0</ele><time>2026-04-12T09:55:41Z</time></trkpt><trkpt lat="42.74774557152703" lon="11.758551035193811"><ele>432.6666666666667</ele><time>2026-04-12T09:55:42Z</time></trkpt><trkpt lat="42.747855583528406" lon="11.758320173177855"><ele>435.33333333333337</ele><time>2026-04-12T09:55:43Z</time></trkpt><trkpt lat="42.747951341553595" lon="11.758115578585786"><ele>438.0</ele><time>2026-04-12T09:55:44Z</time></trkpt><trkpt lat="42.74803473669087" lon="11.7579014075529"><ele>437.0</ele><time>2026-04-12T09:55:45Z</time></trkpt><trkpt lat="42.748135494046274" lon="11.75767738188777"><ele>436.0</ele><time>2026-04-12T09:55:46Z</time></trkpt><trkpt lat="42.74823961506256" lon="11.757449875848424"><ele>435.0</ele><time>2026-04-12T09:55:47Z</time></trkpt><trkpt lat="42.74834450692901" lon="11.757216401516217"><ele>435.0</ele><time>2026-04-12T09:55:48Z</time></trkpt><trkpt lat="42.74845366943324" lon="11.756983517222967"><ele>435.0</ele><time>2026-04-12T09:55:49Z</time></trkpt><trkpt lat="42.748547468372905" lon="11.756756859199092"><ele>435.0</ele><time>2026-04-12T09:55:50Z</time></trkpt><trkpt lat="42.748645515133724" lon="11.756529539079027"><ele>435.33333333333337</ele><time>2026-04-12T09:55:51Z</time></trkpt><trkpt lat="42.748742943077815" lon="11.756316433196746"><ele>435.6666666666667</ele><time>2026-04-12T09:55:52Z</time></trkpt><trkpt lat="42.748839732653146" lon="11.756120199903934"><ele>436.0</ele><time>2026-04-12T09:55:53Z</time></trkpt><trkpt lat="42.74893089153661" lon="11.755937021164575"><ele>436.0</ele><time>2026-04-12T09:55:54Z</time></trkpt><trkpt lat="42.74901526965117" lon="11.755717266175541"><ele>436.0</ele><time>2026-04-12T09:55:55Z</time></trkpt><trkpt lat="42.7491068591717" lon="11.755509195067503"><ele>436.0</ele><time>2026-04-12T09:55:56Z</time></trkpt><trkpt lat="42.749198463809456" lon="11.755302707782667"><ele>435.6666666666667</ele><time>2026-04-12T09:55:57Z</time></trkpt><trkpt lat="42.74929012430395" lon="11.755087106157324"><ele>435.33333333333337</ele><time>2026-04-12T09:55:58Z</time></trkpt><trkpt lat="42.74938419293607" lon="11.754871043160735"><ele>435.0</ele><time>2026-04-12T09:55:59Z</time></trkpt><trkpt lat="42.749482761727414" lon="11.754653630617739"><ele>438.33333333333337</ele><time>2026-04-12T09:56:00Z</time></trkpt><trkpt lat="42.749579711122955" lon="11.754430803223528"><ele>441.6666666666667</ele><time>2026-04-12T09:56:01Z</time></trkpt><trkpt lat="42.749675332337205" lon="11.754189115001084"><ele>445.0</ele><time>2026-04-12T09:56:02Z</time></trkpt><trkpt lat="42.74977472600877" lon="11.753957227446698"><ele>445.0</ele><time>2026-04-12T09:56:03Z</time></trkpt><trkpt lat="42.749875909395996" lon="11.753732707680756"><ele>445.0</ele><time>2026-04-12T09:56:04Z</time></trkpt><trkpt lat="42.749971437311885" lon="11.753503875106754"><ele>445.0</ele><time>2026-04-12T09:56:05Z</time></trkpt><trkpt lat="42.750063090930574" lon="11.753292846864326"><ele>445.0</ele><time>2026-04-12T09:56:06Z</time></trkpt><trkpt lat="42.75015369335238" lon="11.753107599282432"><ele>445.0</ele><time>2026-04-12T09:56:07Z</time></trkpt><trkpt lat="42.75026210496046" lon="11.7529310394773"><ele>445.0</ele><time>2026-04-12T09:56:08Z</time></trkpt><trkpt lat="42.750378469969874" lon="11.752772474752362"><ele>447.33333333333337</ele><time>2026-04-12T09:56:09Z</time></trkpt><trkpt lat="42.75050121272094" lon="11.752628309321516"><ele>449.66666666666663</ele><time>2026-04-12T09:56:10Z</time></trkpt><trkpt lat="42.750633384105974" lon="11.752504453220192"><ele>452.0</ele><time>2026-04-12T09:56:11Z</time></trkpt><trkpt lat="42.75077781502099" lon="11.752387382712836"><ele>452.0</ele><time>2026-04-12T09:56:12Z</time></trkpt><trkpt lat="42.750927577876006" lon="11.752279248087836"><ele>452.0</ele><time>2026-04-12T09:56:13Z</time></trkpt><trkpt lat="42.75109111571824" lon="11.752181044205713"><ele>452.0</ele><time>2026-04-12T09:56:14Z</time></trkpt><trkpt lat="42.75125389626641" lon="11.75208457141687"><ele>451.3333333333333</ele><time>2026-04-12T09:56:15Z</time></trkpt><trkpt lat="42.75142129047949" lon="11.751974079507596"><ele>450.66666666666663</ele><time>2026-04-12T09:56:16Z</time></trkpt><trkpt lat="42.75157736580741" lon="11.751865424761704"><ele>450.0</ele><time>2026-04-12T09:56:17Z</time></trkpt><trkpt lat="42.751730157491195" lon="11.75177275716551"><ele>452.66666666666663</ele><time>2026-04-12T09:56:18Z</time></trkpt><trkpt lat="42.75188768397495" lon="11.751682879922383"><ele>455.3333333333333</ele><time>2026-04-12T09:56:19Z</time></trkpt><trkpt lat="42.75203970637236" lon="11.75158210471516"><ele>458.0</ele><time>2026-04-12T09:56:20Z</time></trkpt><trkpt lat="42.752176546552604" lon="11.751472776283471"><ele>458.0</ele><time>2026-04-12T09:56:21Z</time></trkpt><trkpt lat="42.75229040824196" lon="11.75133705383117"><ele>458.0</ele><time>2026-04-12T09:56:22Z</time></trkpt><trkpt lat="42.75236113685271" lon="11.751169078025278"><ele>458.0</ele><time>2026-04-12T09:56:23Z</time></trkpt><trkpt lat="42.75241604879224" lon="11.750996120619467"><ele>458.0</ele><time>2026-04-12T09:56:24Z</time></trkpt><trkpt lat="42.75245448815389" lon="11.750812594032709"><ele>458.0</ele><time>2026-04-12T09:56:25Z</time></trkpt><trkpt lat="42.752484112680996" lon="11.750636018522062"><ele>458.0</ele><time>2026-04-12T09:56:26Z</time></trkpt><trkpt lat="42.752524058753494" lon="11.750461005155207"><ele>458.0</ele><time>2026-04-12T09:56:27Z</time></trkpt><trkpt lat="42.75255925794203" lon="11.750272432431023"><ele>458.0</ele><time>2026-04-12T09:56:28Z</time></trkpt><trkpt lat="42.752594332540724" lon="11.750078600345363"><ele>458.0</ele><time>2026-04-12T09:56:29Z</time></trkpt><trkpt lat="42.752629452793755" lon="11.749892033227873"><ele>458.0</ele><time>2026-04-12T09:56:30Z</time></trkpt><trkpt lat="42.75266336427622" lon="11.749723440806791"><ele>458.0</ele><time>2026-04-12T09:56:31Z</time></trkpt><trkpt lat="42.7526987829055" lon="11.749561495649115"><ele>458.0</ele><time>2026-04-12T09:56:32Z</time></trkpt><trkpt lat="42.75273020371916" lon="11.749400374234527"><ele>459.4</ele><time>2026-04-12T09:56:33Z</time></trkpt><trkpt lat="42.752761625126176" lon="11.749242280843243"><ele>460.79999999999995</ele><time>2026-04-12T09:56:34Z</time></trkpt><trkpt lat="42.75279081604754" lon="11.749099493550201"><ele>462.2</ele><time>2026-04-12T09:56:35Z</time></trkpt><trkpt lat="42.75281673866676" lon="11.748976435010045"><ele>463.6</ele><time>2026-04-12T09:56:36Z</time></trkpt><trkpt lat="42.75284401391584" lon="11.748863588376711"><ele>465.0</ele><time>2026-04-12T09:56:37Z</time></trkpt><trkpt lat="42.75286974162258" lon="11.748765987444852"><ele>465.0</ele><time>2026-04-12T09:56:38Z</time></trkpt><trkpt lat="42.752903630917814" lon="11.74863912390928"><ele>465.0</ele><time>2026-04-12T09:56:40Z</time></trkpt><trkpt lat="42.75278314324858" lon="11.748515564380664"><ele>465.0</ele><time>2026-04-12T09:56:45Z</time></trkpt><trkpt lat="42.752700710631" lon="11.748492535832067"><ele>465.0</ele><time>2026-04-12T09:56:46Z</time></trkpt><trkpt lat="42.752616634431725" lon="11.748502110508602"><ele>465.0</ele><time>2026-04-12T09:56:47Z</time></trkpt><trkpt lat="42.75253492114483" lon="11.748490976312102"><ele>463.6666666666667</ele><time>2026-04-12T09:56:48Z</time></trkpt><trkpt lat="42.75243834364322" lon="11.748454090766662"><ele>462.33333333333337</ele><time>2026-04-12T09:56:49Z</time></trkpt><trkpt lat="42.75235055837602" lon="11.748439694481892"><ele>461.0</ele><time>2026-04-12T09:56:50Z</time></trkpt><trkpt lat="42.752271952250915" lon="11.748426532773296"><ele>459.6666666666667</ele><time>2026-04-12T09:56:51Z</time></trkpt><trkpt lat="42.752186353463095" lon="11.748425112304485"><ele>458.33333333333337</ele><time>2026-04-12T09:56:52Z</time></trkpt><trkpt lat="42.752094213093564" lon="11.748410244590817"><ele>457.0</ele><time>2026-04-12T09:56:53Z</time></trkpt><trkpt lat="42.75200283654516" lon="11.748395691383928"><ele>457.00000000000006</ele><time>2026-04-12T09:56:54Z</time></trkpt><trkpt lat="42.751911573442115" lon="11.748381704126542"><ele>457.0</ele><time>2026-04-12T09:56:55Z</time></trkpt><trkpt lat="42.751830545391094" lon="11.748345991840987"><ele>457.0</ele><time>2026-04-12T09:56:56Z</time></trkpt><trkpt lat="42.751743852909485" lon="11.748331578103485"><ele>457.0</ele><time>2026-04-12T09:56:57Z</time></trkpt><trkpt lat="42.75166542029257" lon="11.748343942527008"><ele>457.00000000000006</ele><time>2026-04-12T09:56:58Z</time></trkpt><trkpt lat="42.751577614105926" lon="11.748337479832324"><ele>457.0</ele><time>2026-04-12T09:56:59Z</time></trkpt><trkpt lat="42.75151366183076" lon="11.748313773059222"><ele>455.50000000000006</ele><time>2026-04-12T09:57:00Z</time></trkpt><trkpt lat="42.751442078603624" lon="11.748312797344001"><ele>454.0</ele><time>2026-04-12T09:57:01Z</time></trkpt><trkpt lat="42.75134927094056" lon="11.748311563237221"><ele>452.5</ele><time>2026-04-12T09:57:03Z</time></trkpt><trkpt lat="42.75129294100399" lon="11.748237363879184"><ele>451.0</ele><time>2026-04-12T09:57:06Z</time></trkpt><trkpt lat="42.751340582694915" lon="11.748083299664872"><ele>449.50000000000006</ele><time>2026-04-12T09:57:08Z</time></trkpt><trkpt lat="42.75137169392359" lon="11.747994928539846"><ele>448.0</ele><time>2026-04-12T09:57:09Z</time></trkpt><trkpt lat="42.75140245849839" lon="11.7478926913946"><ele>448.0</ele><time>2026-04-12T09:57:10Z</time></trkpt><trkpt lat="42.75143403298326" lon="11.747782073225663"><ele>447.99999999999994</ele><time>2026-04-12T09:57:11Z</time></trkpt><trkpt lat="42.75146219725441" lon="11.747671877517938"><ele>447.99999999999994</ele><time>2026-04-12T09:57:12Z</time></trkpt><trkpt lat="42.75149745022062" lon="11.747564698574479"><ele>448.0</ele><time>2026-04-12T09:57:13Z</time></trkpt><trkpt lat="42.75154014138086" lon="11.747449498008988"><ele>448.0</ele><time>2026-04-12T09:57:14Z</time></trkpt><trkpt lat="42.751581962138054" lon="11.747321030128438"><ele>447.5</ele><time>2026-04-12T09:57:15Z</time></trkpt><trkpt lat="42.75162294711218" lon="11.747161626610765"><ele>447.0</ele><time>2026-04-12T09:57:16Z</time></trkpt><trkpt lat="42.75165000639092" lon="11.747005599648872"><ele>446.5</ele><time>2026-04-12T09:57:17Z</time></trkpt><trkpt lat="42.75167267375865" lon="11.746851283315383"><ele>446.0</ele><time>2026-04-12T09:57:18Z</time></trkpt><trkpt lat="42.75169159066755" lon="11.746694519224386"><ele>445.75</ele><time>2026-04-12T09:57:19Z</time></trkpt><trkpt lat="42.75170934257525" lon="11.746531942950869"><ele>445.5</ele><time>2026-04-12T09:57:20Z</time></trkpt><trkpt lat="42.7517250835655" lon="11.74636982431789"><ele>445.25</ele><time>2026-04-12T09:57:21Z</time></trkpt><trkpt lat="42.75174682261883" lon="11.746198189370734"><ele>445.0</ele><time>2026-04-12T09:57:22Z</time></trkpt><trkpt lat="42.75176938433767" lon="11.746031126221261"><ele>445.5</ele><time>2026-04-12T09:57:23Z</time></trkpt><trkpt lat="42.75179322755089" lon="11.745876214614487"><ele>446.0</ele><time>2026-04-12T09:57:24Z</time></trkpt><trkpt lat="42.751816959558205" lon="11.745723788470267"><ele>446.5</ele><time>2026-04-12T09:57:25Z</time></trkpt><trkpt lat="42.751848779322934" lon="11.74557742698804"><ele>447.0</ele><time>2026-04-12T09:57:26Z</time></trkpt><trkpt lat="42.75188587661541" lon="11.745434044361271"><ele>449.25</ele><time>2026-04-12T09:57:27Z</time></trkpt><trkpt lat="42.751925042344965" lon="11.745277084355418"><ele>451.5</ele><time>2026-04-12T09:57:28Z</time></trkpt><trkpt lat="42.75195844768491" lon="11.745131915104723"><ele>453.75</ele><time>2026-04-12T09:57:29Z</time></trkpt><trkpt lat="42.75199001284417" lon="11.74499695243402"><ele>456.0</ele><time>2026-04-12T09:57:30Z</time></trkpt><trkpt lat="42.75202534218424" lon="11.744840124860424"><ele>456.4</ele><time>2026-04-12T09:57:31Z</time></trkpt><trkpt lat="42.752057157923865" lon="11.744703546140485"><ele>456.8</ele><time>2026-04-12T09:57:32Z</time></trkpt><trkpt lat="42.75208619411793" lon="11.744595991512817"><ele>457.19999999999993</ele><time>2026-04-12T09:57:33Z</time></trkpt><trkpt lat="42.7521186042116" lon="11.744473000841005"><ele>457.59999999999997</ele><time>2026-04-12T09:57:34Z</time></trkpt><trkpt lat="42.75215225457281" lon="11.744337619898102"><ele>458.0</ele><time>2026-04-12T09:57:35Z</time></trkpt><trkpt lat="42.75217875935789" lon="11.744222564905154"><ele>457.0</ele><time>2026-04-12T09:57:36Z</time></trkpt><trkpt lat="42.752204079122166" lon="11.744117897794553"><ele>455.99999999999994</ele><time>2026-04-12T09:57:37Z</time></trkpt><trkpt lat="42.75222975593737" lon="11.744024787614489"><ele>454.99999999999994</ele><time>2026-04-12T09:57:38Z</time></trkpt><trkpt lat="42.75224924774957" lon="11.743937063403003"><ele>454.0</ele><time>2026-04-12T09:57:39Z</time></trkpt><trkpt lat="42.752230161094204" lon="11.743817794324526"><ele>453.0</ele><time>2026-04-12T09:57:41Z</time></trkpt><trkpt lat="42.752087510609876" lon="11.743759504280904"><ele>453.0</ele><time>2026-04-12T09:57:43Z</time></trkpt><trkpt lat="42.75199216366083" lon="11.743708990017097"><ele>453.0</ele><time>2026-04-12T09:57:44Z</time></trkpt><trkpt lat="42.75188508758934" lon="11.743658597114822"><ele>453.0</ele><time>2026-04-12T09:57:45Z</time></trkpt><trkpt lat="42.751771362617006" lon="11.743608376302745"><ele>453.0</ele><time>2026-04-12T09:57:46Z</time></trkpt><trkpt lat="42.75166569040506" lon="11.743523848056137"><ele>452.25</ele><time>2026-04-12T09:57:47Z</time></trkpt><trkpt lat="42.7515503039537" lon="11.743470404080652"><ele>451.5</ele><time>2026-04-12T09:57:48Z</time></trkpt><trkpt lat="42.75143591357269" lon="11.743403073946128"><ele>450.75</ele><time>2026-04-12T09:57:49Z</time></trkpt><trkpt lat="42.75133189097302" lon="11.743339777925856"><ele>450.0</ele><time>2026-04-12T09:57:50Z</time></trkpt><trkpt lat="42.75124577183867" lon="11.743292276235998"><ele>450.0</ele><time>2026-04-12T09:57:51Z</time></trkpt><trkpt lat="42.75116486895228" lon="11.743248708872011"><ele>450.0</ele><time>2026-04-12T09:57:52Z</time></trkpt><trkpt lat="42.751090795052626" lon="11.743210316372169"><ele>450.0</ele><time>2026-04-12T09:57:53Z</time></trkpt><trkpt lat="42.75101915696525" lon="11.743168294724144"><ele>450.0</ele><time>2026-04-12T09:57:54Z</time></trkpt><trkpt lat="42.7509587853366" lon="11.743120768228962"><ele>450.0</ele><time>2026-04-12T09:57:55Z</time></trkpt><trkpt lat="42.75091348841776" lon="11.743042353122856"><ele>450.0</ele><time>2026-04-12T09:57:56Z</time></trkpt><trkpt lat="42.750883855512285" lon="11.7429455787224"><ele>449.8</ele><time>2026-04-12T09:57:57Z</time></trkpt><trkpt lat="42.75085184869807" lon="11.742819538858907"><ele>449.6</ele><time>2026-04-12T09:57:58Z</time></trkpt><trkpt lat="42.75081580536073" lon="11.742681542157705"><ele>449.4</ele><time>2026-04-12T09:57:59Z</time></trkpt><trkpt lat="42.75078767110495" lon="11.742532864099037"><ele>449.2</ele><time>2026-04-12T09:58:00Z</time></trkpt><trkpt lat="42.75077889216662" lon="11.742369461361886"><ele>449.0</ele><time>2026-04-12T09:58:01Z</time></trkpt><trkpt lat="42.75077185657072" lon="11.742206124916303"><ele>449.0</ele><time>2026-04-12T09:58:02Z</time></trkpt><trkpt lat="42.750749756962165" lon="11.742062188557314"><ele>449.0</ele><time>2026-04-12T09:58:03Z</time></trkpt><trkpt lat="42.750725565064684" lon="11.741927341795867"><ele>449.0</ele><time>2026-04-12T09:58:04Z</time></trkpt><trkpt lat="42.75070470900545" lon="11.7417852513202"><ele>449.0</ele><time>2026-04-12T09:58:05Z</time></trkpt><trkpt lat="42.7506954843432" lon="11.741630842870288"><ele>449.0</ele><time>2026-04-12T09:58:06Z</time></trkpt><trkpt lat="42.750698720175144" lon="11.741463983236166"><ele>449.5</ele><time>2026-04-12T09:58:07Z</time></trkpt><trkpt lat="42.75071303785891" lon="11.741290643043678"><ele>450.0</ele><time>2026-04-12T09:58:08Z</time></trkpt><trkpt lat="42.75072705646527" lon="11.741115897294364"><ele>450.5</ele><time>2026-04-12T09:58:09Z</time></trkpt><trkpt lat="42.75074282851533" lon="11.740961910536079"><ele>451.0</ele><time>2026-04-12T09:58:10Z</time></trkpt><trkpt lat="42.75074925597864" lon="11.740840910093295"><ele>451.5</ele><time>2026-04-12T09:58:11Z</time></trkpt><trkpt lat="42.75077099336222" lon="11.740714780434713"><ele>452.0</ele><time>2026-04-12T09:58:12Z</time></trkpt><trkpt lat="42.75079301436012" lon="11.74056317966042"><ele>452.5</ele><time>2026-04-12T09:58:13Z</time></trkpt><trkpt lat="42.750808042514194" lon="11.74039358957859"><ele>453.0</ele><time>2026-04-12T09:58:14Z</time></trkpt><trkpt lat="42.750819220912035" lon="11.740229228307763"><ele>453.59999999999997</ele><time>2026-04-12T09:58:15Z</time></trkpt><trkpt lat="42.75083556477446" lon="11.740088121495962"><ele>454.19999999999993</ele><time>2026-04-12T09:58:16Z</time></trkpt><trkpt lat="42.75086090390037" lon="11.739959450993474"><ele>454.8</ele><time>2026-04-12T09:58:17Z</time></trkpt><trkpt lat="42.75090380748339" lon="11.739814192017345"><ele>455.4</ele><time>2026-04-12T09:58:18Z</time></trkpt><trkpt lat="42.7509583986798" lon="11.739667384711408"><ele>456.0</ele><time>2026-04-12T09:58:19Z</time></trkpt><trkpt lat="42.75101387673508" lon="11.739510053625866"><ele>456.25</ele><time>2026-04-12T09:58:20Z</time></trkpt><trkpt lat="42.75106454473927" lon="11.739359585880775"><ele>456.5</ele><time>2026-04-12T09:58:21Z</time></trkpt><trkpt lat="42.751104435867795" lon="11.739214133673233"><ele>456.75</ele><time>2026-04-12T09:58:22Z</time></trkpt><trkpt lat="42.75114728488627" lon="11.739063464679779"><ele>457.0</ele><time>2026-04-12T09:58:23Z</time></trkpt><trkpt lat="42.751194651647566" lon="11.73891419347891"><ele>457.0</ele><time>2026-04-12T09:58:24Z</time></trkpt><trkpt lat="42.751250070338884" lon="11.738766185847439"><ele>457.00000000000006</ele><time>2026-04-12T09:58:25Z</time></trkpt><trkpt lat="42.75131448847548" lon="11.738627864334884"><ele>457.00000000000006</ele><time>2026-04-12T09:58:26Z</time></trkpt><trkpt lat="42.75137194131404" lon="11.738514697952235"><ele>457.0</ele><time>2026-04-12T09:58:27Z</time></trkpt><trkpt lat="42.75142025012576" lon="11.738418560290143"><ele>457.0</ele><time>2026-04-12T09:58:28Z</time></trkpt><trkpt lat="42.75145681139071" lon="11.73831774728522"><ele>457.1666666666667</ele><time>2026-04-12T09:58:29Z</time></trkpt><trkpt lat="42.75148092230143" lon="11.73822971257053"><ele>457.33333333333337</ele><time>2026-04-12T09:58:30Z</time></trkpt><trkpt lat="42.75150366093208" lon="11.738138351218252"><ele>457.5</ele><time>2026-04-12T09:58:31Z</time></trkpt><trkpt lat="42.75153279462796" lon="11.737967892362741"><ele>457.66666666666663</ele><time>2026-04-12T09:58:33Z</time></trkpt><trkpt lat="42.7515588486531" lon="11.737868640875584"><ele>457.8333333333333</ele><time>2026-04-12T09:58:34Z</time></trkpt><trkpt lat="42.75158523981957" lon="11.73777117738304"><ele>458.0</ele><time>2026-04-12T09:58:35Z</time></trkpt><trkpt lat="42.75161009974108" lon="11.73768009644409"><ele>458.2</ele><time>2026-04-12T09:58:36Z</time></trkpt><trkpt lat="42.75163485820714" lon="11.737574065077983"><ele>458.4</ele><time>2026-04-12T09:58:37Z</time></trkpt><trkpt lat="42.751662052209404" lon="11.73745690635039"><ele>458.59999999999997</ele><time>2026-04-12T09:58:38Z</time></trkpt><trkpt lat="42.75168601469028" lon="11.737323827606376"><ele>458.79999999999995</ele><time>2026-04-12T09:58:39Z</time></trkpt><trkpt lat="42.75170027969544" lon="11.737186499941973"><ele>459.0</ele><time>2026-04-12T09:58:40Z</time></trkpt><trkpt lat="42.751704730141824" lon="11.737063815573984"><ele>459.0</ele><time>2026-04-12T09:58:41Z</time></trkpt><trkpt lat="42.75172060431665" lon="11.736939225392094"><ele>459.0</ele><time>2026-04-12T09:58:42Z</time></trkpt><trkpt lat="42.751750725325635" lon="11.736836085224278"><ele>459.0</ele><time>2026-04-12T09:58:43Z</time></trkpt><trkpt lat="42.75178943049068" lon="11.736752551229628"><ele>459.0</ele><time>2026-04-12T09:58:44Z</time></trkpt><trkpt lat="42.75182843940714" lon="11.736678360811117"><ele>459.0</ele><time>2026-04-12T09:58:45Z</time></trkpt><trkpt lat="42.75187277922036" lon="11.736612792681802"><ele>459.0</ele><time>2026-04-12T09:58:46Z</time></trkpt><trkpt lat="42.751944225206444" lon="11.736512752455248"><ele>460.0</ele><time>2026-04-12T09:58:48Z</time></trkpt><trkpt lat="42.75198565914837" lon="11.736444539560713"><ele>461.0</ele><time>2026-04-12T09:58:50Z</time></trkpt><trkpt lat="42.752039015029425" lon="11.736363199788682"><ele>462.0</ele><time>2026-04-12T09:59:09Z</time></trkpt><trkpt lat="42.7520962730537" lon="11.73626824388098"><ele>463.0</ele><time>2026-04-12T09:59:11Z</time></trkpt><trkpt lat="42.75214389624975" lon="11.736092350834882"><ele>464.0</ele><time>2026-04-12T09:59:13Z</time></trkpt><trkpt lat="42.75215022814055" lon="11.73598449815355"><ele>464.2</ele><time>2026-04-12T09:59:14Z</time></trkpt><trkpt lat="42.75217641817264" lon="11.735860017764953"><ele>464.4</ele><time>2026-04-12T09:59:15Z</time></trkpt><trkpt lat="42.75219891585468" lon="11.735717536938736"><ele>464.6</ele><time>2026-04-12T09:59:16Z</time></trkpt><trkpt lat="42.75221012456903" lon="11.735573625668788"><ele>464.8</ele><time>2026-04-12T09:59:17Z</time></trkpt><trkpt lat="42.75221893696942" lon="11.735433118095814"><ele>465.0</ele><time>2026-04-12T09:59:18Z</time></trkpt><trkpt lat="42.752214588334965" lon="11.735289311956967"><ele>465.2</ele><time>2026-04-12T09:59:19Z</time></trkpt><trkpt lat="42.75221205679814" lon="11.735144261601116"><ele>465.4</ele><time>2026-04-12T09:59:20Z</time></trkpt><trkpt lat="42.752213274894686" lon="11.735005479158623"><ele>465.6</ele><time>2026-04-12T09:59:21Z</time></trkpt><trkpt lat="42.75221785105319" lon="11.734857731768153"><ele>465.8</ele><time>2026-04-12T09:59:22Z</time></trkpt><trkpt lat="42.75222655078868" lon="11.73469494916862"><ele>466.0</ele><time>2026-04-12T09:59:23Z</time></trkpt><trkpt lat="42.752252551973335" lon="11.734545807142082"><ele>466.0</ele><time>2026-04-12T09:59:24Z</time></trkpt><trkpt lat="42.75231810641959" lon="11.734409567944851"><ele>466.0</ele><time>2026-04-12T09:59:25Z</time></trkpt><trkpt lat="42.752350115634364" lon="11.734287936331665"><ele>466.0</ele><time>2026-04-12T09:59:26Z</time></trkpt><trkpt lat="42.752401986771055" lon="11.734170448092382"><ele>466.0</ele><time>2026-04-12T09:59:27Z</time></trkpt><trkpt lat="42.75245586444296" lon="11.734015664256827"><ele>466.0</ele><time>2026-04-12T09:59:28Z</time></trkpt><trkpt lat="42.75251970730722" lon="11.733877410600517"><ele>466.0</ele><time>2026-04-12T09:59:29Z</time></trkpt><trkpt lat="42.75258443912025" lon="11.733737393738517"><ele>466.0</ele><time>2026-04-12T09:59:30Z</time></trkpt><trkpt lat="42.75263115161077" lon="11.733604170446405"><ele>466.0</ele><time>2026-04-12T09:59:31Z</time></trkpt><trkpt lat="42.75266908104234" lon="11.73350158584309"><ele>466.0</ele><time>2026-04-12T09:59:32Z</time></trkpt><trkpt lat="42.75269613382783" lon="11.733410025678968"><ele>466.0</ele><time>2026-04-12T09:59:33Z</time></trkpt><trkpt lat="42.752735631767045" lon="11.733293515048182"><ele>466.4</ele><time>2026-04-12T09:59:35Z</time></trkpt><trkpt lat="42.75271438265786" lon="11.73316149782416"><ele>466.8</ele><time>2026-04-12T09:59:38Z</time></trkpt><trkpt lat="42.752652570136725" lon="11.733007248066935"><ele>467.19999999999993</ele><time>2026-04-12T09:59:40Z</time></trkpt><trkpt lat="42.75261062741461" lon="11.732920266356745"><ele>467.59999999999997</ele><time>2026-04-12T09:59:41Z</time></trkpt><trkpt lat="42.752585142592494" lon="11.732808046012483"><ele>468.0</ele><time>2026-04-12T09:59:42Z</time></trkpt><trkpt lat="42.75254542061484" lon="11.73270423775139"><ele>468.1666666666667</ele><time>2026-04-12T09:59:43Z</time></trkpt><trkpt lat="42.75251936845117" lon="11.73261189058463"><ele>468.33333333333337</ele><time>2026-04-12T09:59:44Z</time></trkpt><trkpt lat="42.752502460265845" lon="11.732453146583476"><ele>468.5</ele><time>2026-04-12T09:59:46Z</time></trkpt><trkpt lat="42.752489812352835" lon="11.73236099454803"><ele>468.6666666666667</ele><time>2026-04-12T09:59:47Z</time></trkpt><trkpt lat="42.75248755374293" lon="11.73224812304813"><ele>468.83333333333337</ele><time>2026-04-12T09:59:48Z</time></trkpt><trkpt lat="42.752511349520354" lon="11.732109486884962"><ele>469.0</ele><time>2026-04-12T09:59:49Z</time></trkpt><trkpt lat="42.75252885588597" lon="11.732007847979999"><ele>469.6</ele><time>2026-04-12T09:59:50Z</time></trkpt><trkpt lat="42.75254242860002" lon="11.731884113390606"><ele>470.2</ele><time>2026-04-12T09:59:51Z</time></trkpt><trkpt lat="42.75258265650284" lon="11.731755469390531"><ele>470.80000000000007</ele><time>2026-04-12T09:59:52Z</time></trkpt><trkpt lat="42.75262688485972" lon="11.73161581530961"><ele>471.40000000000003</ele><time>2026-04-12T09:59:53Z</time></trkpt><trkpt lat="42.75267035648223" lon="11.731474660505278"><ele>472.0</ele><time>2026-04-12T09:59:54Z</time></trkpt><trkpt lat="42.75270811268736" lon="11.731352057590003"><ele>472.0</ele><time>2026-04-12T09:59:55Z</time></trkpt><trkpt lat="42.752741977830226" lon="11.73124752467427"><ele>472.00000000000006</ele><time>2026-04-12T09:59:56Z</time></trkpt><trkpt lat="42.752753405552994" lon="11.731143246731426"><ele>472.00000000000006</ele><time>2026-04-12T09:59:57Z</time></trkpt><trkpt lat="42.75275709263092" lon="11.73102646117273"><ele>472.0</ele><time>2026-04-12T09:59:58Z</time></trkpt><trkpt lat="42.752741800543774" lon="11.730884331382317"><ele>472.0</ele><time>2026-04-12T09:59:59Z</time></trkpt><trkpt lat="42.75272846545045" lon="11.730740929601367"><ele>473.75</ele><time>2026-04-12T10:00:00Z</time></trkpt><trkpt lat="42.75271759822289" lon="11.730600637494787"><ele>475.5</ele><time>2026-04-12T10:00:01Z</time></trkpt><trkpt lat="42.75271939511805" lon="11.730436578291021"><ele>477.25</ele><time>2026-04-12T10:00:02Z</time></trkpt><trkpt lat="42.7527316633501" lon="11.730281414324223"><ele>479.0</ele><time>2026-04-12T10:00:03Z</time></trkpt><trkpt lat="42.752752767854766" lon="11.73011998382469"><ele>479.8333333333333</ele><time>2026-04-12T10:00:04Z</time></trkpt><trkpt lat="42.752770929959546" lon="11.729996301973621"><ele>480.66666666666663</ele><time>2026-04-12T10:00:05Z</time></trkpt><trkpt lat="42.75277645081263" lon="11.729886547075981"><ele>481.5</ele><time>2026-04-12T10:00:06Z</time></trkpt><trkpt lat="42.75276741613073" lon="11.729780556922826"><ele>482.33333333333337</ele><time>2026-04-12T10:00:07Z</time></trkpt><trkpt lat="42.75274011347672" lon="11.729671883378062"><ele>483.1666666666667</ele><time>2026-04-12T10:00:08Z</time></trkpt><trkpt lat="42.75268648687936" lon="11.729557200743892"><ele>484.0</ele><time>2026-04-12T10:00:09Z</time></trkpt><trkpt lat="42.75261458857912" lon="11.729436934716613"><ele>486.79999999999995</ele><time>2026-04-12T10:00:10Z</time></trkpt><trkpt lat="42.75252256993549" lon="11.729319740917125"><ele>489.59999999999997</ele><time>2026-04-12T10:00:11Z</time></trkpt><trkpt lat="42.75244102389068" lon="11.729220047441204"><ele>492.4</ele><time>2026-04-12T10:00:12Z</time></trkpt><trkpt lat="42.752384117879615" lon="11.72914724422148"><ele>495.2</ele><time>2026-04-12T10:00:13Z</time></trkpt><trkpt lat="42.75234745121436" lon="11.72907224292606"><ele>498.0</ele><time>2026-04-12T10:00:14Z</time></trkpt><trkpt lat="42.75230656873862" lon="11.72896023078526"><ele>498.0</ele><time>2026-04-12T10:00:15Z</time></trkpt><trkpt lat="42.752283905125445" lon="11.728828467518861"><ele>498.0</ele><time>2026-04-12T10:00:16Z</time></trkpt><trkpt lat="42.752267515817" lon="11.728663586089846"><ele>498.0</ele><time>2026-04-12T10:00:17Z</time></trkpt><trkpt lat="42.75225058344539" lon="11.72848813761382"><ele>498.0</ele><time>2026-04-12T10:00:18Z</time></trkpt><trkpt lat="42.75223948931819" lon="11.728333763982539"><ele>499.59999999999997</ele><time>2026-04-12T10:00:19Z</time></trkpt><trkpt lat="42.75223567046644" lon="11.728192469363083"><ele>501.19999999999993</ele><time>2026-04-12T10:00:20Z</time></trkpt><trkpt lat="42.75223711605076" lon="11.728059077440012"><ele>502.8</ele><time>2026-04-12T10:00:21Z</time></trkpt><trkpt lat="42.75222464991979" lon="11.727926098298108"><ele>504.4</ele><time>2026-04-12T10:00:22Z</time></trkpt><trkpt lat="42.752199379741796" lon="11.727804907394724"><ele>506.0</ele><time>2026-04-12T10:00:23Z</time></trkpt><trkpt lat="42.75215567888065" lon="11.727679822104047"><ele>506.8</ele><time>2026-04-12T10:00:24Z</time></trkpt><trkpt lat="42.752096318680735" lon="11.727543102025756"><ele>507.6</ele><time>2026-04-12T10:00:25Z</time></trkpt><trkpt lat="42.75203491177887" lon="11.72741094128681"><ele>508.4</ele><time>2026-04-12T10:00:26Z</time></trkpt><trkpt lat="42.751991934897795" lon="11.727295990682103"><ele>509.2</ele><time>2026-04-12T10:00:27Z</time></trkpt><trkpt lat="42.75197296520695" lon="11.727173691110893"><ele>510.0</ele><time>2026-04-12T10:00:28Z</time></trkpt><trkpt lat="42.75193655183564" lon="11.727075901855168"><ele>510.0</ele><time>2026-04-12T10:00:29Z</time></trkpt><trkpt lat="42.75189769660417" lon="11.726945991691192"><ele>510.0</ele><time>2026-04-12T10:00:30Z</time></trkpt><trkpt lat="42.75186173819101" lon="11.726824056771788"><ele>510.0</ele><time>2026-04-12T10:00:31Z</time></trkpt><trkpt lat="42.7518267063833" lon="11.726707986236462"><ele>510.0</ele><time>2026-04-12T10:00:32Z</time></trkpt><trkpt lat="42.75178456862644" lon="11.72656517899707"><ele>510.0</ele><time>2026-04-12T10:00:33Z</time></trkpt><trkpt lat="42.75176967409878" lon="11.726425439767372"><ele>513.0</ele><time>2026-04-12T10:00:34Z</time></trkpt><trkpt lat="42.751749718054114" lon="11.726305703243042"><ele>516.0</ele><time>2026-04-12T10:00:35Z</time></trkpt><trkpt lat="42.75173930742032" lon="11.726171349379213"><ele>519.0</ele><time>2026-04-12T10:00:36Z</time></trkpt><trkpt lat="42.75170344931319" lon="11.726021283360808"><ele>522.0</ele><time>2026-04-12T10:00:37Z</time></trkpt><trkpt lat="42.751686882959255" lon="11.72587035757101"><ele>525.0</ele><time>2026-04-12T10:00:38Z</time></trkpt><trkpt lat="42.75167764504801" lon="11.725721957809657"><ele>527.5</ele><time>2026-04-12T10:00:39Z</time></trkpt><trkpt lat="42.75168048948787" lon="11.725576893861374"><ele>530.0</ele><time>2026-04-12T10:00:40Z</time></trkpt><trkpt lat="42.751691399439544" lon="11.725404647644018"><ele>532.5</ele><time>2026-04-12T10:00:41Z</time></trkpt><trkpt lat="42.75169323234117" lon="11.725218560784668"><ele>535.0</ele><time>2026-04-12T10:00:42Z</time></trkpt><trkpt lat="42.7516804169675" lon="11.725057933521516"><ele>537.2</ele><time>2026-04-12T10:00:43Z</time></trkpt><trkpt lat="42.751666310922374" lon="11.72491113609419"><ele>539.4</ele><time>2026-04-12T10:00:44Z</time></trkpt><trkpt lat="42.75164292954935" lon="11.72477110017742"><ele>541.6</ele><time>2026-04-12T10:00:45Z</time></trkpt><trkpt lat="42.75161767354015" lon="11.724647338369705"><ele>543.8</ele><time>2026-04-12T10:00:46Z</time></trkpt><trkpt lat="42.75159330299975" lon="11.724521130147178"><ele>546.0</ele><time>2026-04-12T10:00:47Z</time></trkpt><trkpt lat="42.7515555633773" lon="11.72439088366154"><ele>547.25</ele><time>2026-04-12T10:00:48Z</time></trkpt><trkpt lat="42.751529849494716" lon="11.724233724146025"><ele>548.5</ele><time>2026-04-12T10:00:49Z</time></trkpt><trkpt lat="42.75148775803097" lon="11.724086081266874"><ele>549.75</ele><time>2026-04-12T10:00:50Z</time></trkpt><trkpt lat="42.75144397378942" lon="11.723932500391768"><ele>551.0</ele><time>2026-04-12T10:00:51Z</time></trkpt><trkpt lat="42.751390627866584" lon="11.723792942542051"><ele>551.0</ele><time>2026-04-12T10:00:52Z</time></trkpt><trkpt lat="42.75135514008634" lon="11.723649858386468"><ele>551.0</ele><time>2026-04-12T10:00:53Z</time></trkpt><trkpt lat="42.751327940131155" lon="11.723505962444579"><ele>551.0</ele><time>2026-04-12T10:00:54Z</time></trkpt><trkpt lat="42.75129988828003" lon="11.723371514669902"><ele>551.0</ele><time>2026-04-12T10:00:55Z</time></trkpt><trkpt lat="42.75127699224327" lon="11.723266770331394"><ele>551.0</ele><time>2026-04-12T10:00:56Z</time></trkpt><trkpt lat="42.75124377028252" lon="11.72317431336171"><ele>551.8333333333333</ele><time>2026-04-12T10:00:57Z</time></trkpt><trkpt lat="42.75120095841974" lon="11.723111272054535"><ele>552.6666666666666</ele><time>2026-04-12T10:00:58Z</time></trkpt><trkpt lat="42.75114092717597" lon="11.72305289424212"><ele>553.5</ele><time>2026-04-12T10:00:59Z</time></trkpt><trkpt lat="42.75106120155661" lon="11.722976587618934"><ele>554.3333333333334</ele><time>2026-04-12T10:01:00Z</time></trkpt><trkpt lat="42.75099293258924" lon="11.722877563965218"><ele>555.1666666666667</ele><time>2026-04-12T10:01:01Z</time></trkpt><trkpt lat="42.75091683808031" lon="11.722766802392846"><ele>556.0</ele><time>2026-04-12T10:01:02Z</time></trkpt><trkpt lat="42.75086617426662" lon="11.722653947063451"><ele>558.8</ele><time>2026-04-12T10:01:03Z</time></trkpt><trkpt lat="42.750807677638264" lon="11.722523871048516"><ele>561.6</ele><time>2026-04-12T10:01:04Z</time></trkpt><trkpt lat="42.750736458587085" lon="11.722384827102635"><ele>564.4</ele><time>2026-04-12T10:01:05Z</time></trkpt><trkpt lat="42.75068245188746" lon="11.72224717953383"><ele>567.2</ele><time>2026-04-12T10:01:06Z</time></trkpt><trkpt lat="42.75062672201315" lon="11.72215350593978"><ele>570.0</ele><time>2026-04-12T10:01:07Z</time></trkpt><trkpt lat="42.75055649670317" lon="11.722084291261083"><ele>570.0</ele><time>2026-04-12T10:01:08Z</time></trkpt><trkpt lat="42.75047600656071" lon="11.72203432028101"><ele>570.0</ele><time>2026-04-12T10:01:09Z</time></trkpt><trkpt lat="42.75040125105188" lon="11.721942533396568"><ele>570.0</ele><time>2026-04-12T10:01:10Z</time></trkpt><trkpt lat="42.75032968446703" lon="11.721844606413336"><ele>570.0</ele><time>2026-04-12T10:01:11Z</time></trkpt><trkpt lat="42.75028185451684" lon="11.721750208723895"><ele>570.0</ele><time>2026-04-12T10:01:12Z</time></trkpt><trkpt lat="42.75023778672195" lon="11.72164937998576"><ele>572.5</ele><time>2026-04-12T10:01:13Z</time></trkpt><trkpt lat="42.75019208928312" lon="11.721525180827355"><ele>575.0</ele><time>2026-04-12T10:01:14Z</time></trkpt><trkpt lat="42.750134014080494" lon="11.721406016630674"><ele>577.5</ele><time>2026-04-12T10:01:15Z</time></trkpt><trkpt lat="42.75008441464207" lon="11.72126571242024"><ele>580.0</ele><time>2026-04-12T10:01:16Z</time></trkpt><trkpt lat="42.75001837562948" lon="11.721110891565289"><ele>581.5</ele><time>2026-04-12T10:01:17Z</time></trkpt><trkpt lat="42.749963120933735" lon="11.720949288508745"><ele>583.0</ele><time>2026-04-12T10:01:18Z</time></trkpt><trkpt lat="42.749892085816285" lon="11.720796231066169"><ele>584.5</ele><time>2026-04-12T10:01:19Z</time></trkpt><trkpt lat="42.74983067592977" lon="11.720651283432844"><ele>586.0</ele><time>2026-04-12T10:01:20Z</time></trkpt><trkpt lat="42.749768206542896" lon="11.720497720543962"><ele>586.0</ele><time>2026-04-12T10:01:21Z</time></trkpt><trkpt lat="42.74970269250164" lon="11.720339075741787"><ele>586.0</ele><time>2026-04-12T10:01:22Z</time></trkpt><trkpt lat="42.749644363552825" lon="11.72018964774155"><ele>586.0</ele><time>2026-04-12T10:01:23Z</time></trkpt><trkpt lat="42.749599433655845" lon="11.720048802839496"><ele>586.0</ele><time>2026-04-12T10:01:24Z</time></trkpt><trkpt lat="42.74955541446761" lon="11.719903938507532"><ele>585.6</ele><time>2026-04-12T10:01:25Z</time></trkpt><trkpt lat="42.7495300512981" lon="11.719770470589463"><ele>585.2</ele><time>2026-04-12T10:01:26Z</time></trkpt><trkpt lat="42.749498582458926" lon="11.71963022531431"><ele>584.8</ele><time>2026-04-12T10:01:27Z</time></trkpt><trkpt lat="42.749483106442156" lon="11.71949093079375"><ele>584.4</ele><time>2026-04-12T10:01:28Z</time></trkpt><trkpt lat="42.74945416280875" lon="11.719361419808575"><ele>584.0</ele><time>2026-04-12T10:01:29Z</time></trkpt><trkpt lat="42.749442160292006" lon="11.71922422379003"><ele>583.25</ele><time>2026-04-12T10:01:30Z</time></trkpt><trkpt lat="42.74940746532864" lon="11.719106125817119"><ele>582.5</ele><time>2026-04-12T10:01:31Z</time></trkpt><trkpt lat="42.74935342428869" lon="11.718979597293396"><ele>581.75</ele><time>2026-04-12T10:01:32Z</time></trkpt><trkpt lat="42.74927840161315" lon="11.71884331468746"><ele>581.0</ele><time>2026-04-12T10:01:33Z</time></trkpt><trkpt lat="42.749216777405955" lon="11.718681872533335"><ele>583.25</ele><time>2026-04-12T10:01:34Z</time></trkpt><trkpt lat="42.74915984101998" lon="11.718519225160762"><ele>585.5</ele><time>2026-04-12T10:01:35Z</time></trkpt><trkpt lat="42.74909676046688" lon="11.718339452611449"><ele>587.75</ele><time>2026-04-12T10:01:36Z</time></trkpt><trkpt lat="42.74903323833803" lon="11.718170279664227"><ele>590.0</ele><time>2026-04-12T10:01:37Z</time></trkpt><trkpt lat="42.74897290578999" lon="11.718030055011235"><ele>590.0</ele><time>2026-04-12T10:01:38Z</time></trkpt><trkpt lat="42.74889808162502" lon="11.7178993705823"><ele>590.0</ele><time>2026-04-12T10:01:39Z</time></trkpt><trkpt lat="42.74880580210749" lon="11.717767010142206"><ele>590.0</ele><time>2026-04-12T10:01:40Z</time></trkpt><trkpt lat="42.7486940078395" lon="11.717644130856003"><ele>590.0</ele><time>2026-04-12T10:01:41Z</time></trkpt><trkpt lat="42.74860990629964" lon="11.717499285398244"><ele>591.75</ele><time>2026-04-12T10:01:42Z</time></trkpt><trkpt lat="42.74853448187429" lon="11.717372651074669"><ele>593.5</ele><time>2026-04-12T10:01:43Z</time></trkpt><trkpt lat="42.74845986821397" lon="11.717225245454134"><ele>595.25</ele><time>2026-04-12T10:01:44Z</time></trkpt><trkpt lat="42.74837914573265" lon="11.71704527075548"><ele>597.0</ele><time>2026-04-12T10:01:45Z</time></trkpt><trkpt lat="42.748294658147216" lon="11.716879760631482"><ele>597.5</ele><time>2026-04-12T10:01:46Z</time></trkpt><trkpt lat="42.748230290554304" lon="11.716733738410824"><ele>598.0</ele><time>2026-04-12T10:01:47Z</time></trkpt><trkpt lat="42.74816981112398" lon="11.716598260458163"><ele>598.5</ele><time>2026-04-12T10:01:48Z</time></trkpt><trkpt lat="42.74811930079646" lon="11.716476046221555"><ele>599.0</ele><time>2026-04-12T10:01:49Z</time></trkpt><trkpt lat="42.74807325536921" lon="11.716341010264118"><ele>599.0</ele><time>2026-04-12T10:01:50Z</time></trkpt><trkpt lat="42.748054342252445" lon="11.716170606973058"><ele>599.0</ele><time>2026-04-12T10:01:51Z</time></trkpt><trkpt lat="42.74801250097315" lon="11.715995716369664"><ele>599.0</ele><time>2026-04-12T10:01:52Z</time></trkpt><trkpt lat="42.747982833738895" lon="11.715855258282394"><ele>599.0</ele><time>2026-04-12T10:01:53Z</time></trkpt><trkpt lat="42.747944676515615" lon="11.715728466167016"><ele>599.2</ele><time>2026-04-12T10:01:54Z</time></trkpt><trkpt lat="42.747900268616085" lon="11.715611806829093"><ele>599.4</ele><time>2026-04-12T10:01:55Z</time></trkpt><trkpt lat="42.7478495010643" lon="11.715479395957754"><ele>599.6</ele><time>2026-04-12T10:01:56Z</time></trkpt><trkpt lat="42.74779759300372" lon="11.71536125451099"><ele>599.8</ele><time>2026-04-12T10:01:57Z</time></trkpt><trkpt lat="42.7477376088096" lon="11.715249976091934"><ele>600.0</ele><time>2026-04-12T10:01:58Z</time></trkpt><trkpt lat="42.74767671170509" lon="11.715115460435394"><ele>601.75</ele><time>2026-04-12T10:01:59Z</time></trkpt><trkpt lat="42.74761246476766" lon="11.714966243538246"><ele>603.5</ele><time>2026-04-12T10:02:00Z</time></trkpt><trkpt lat="42.747538513504736" lon="11.714814000381454"><ele>605.25</ele><time>2026-04-12T10:02:01Z</time></trkpt><trkpt lat="42.74746365426014" lon="11.71465004201166"><ele>607.0</ele><time>2026-04-12T10:02:02Z</time></trkpt><trkpt lat="42.7473857302651" lon="11.714471856793754"><ele>608.25</ele><time>2026-04-12T10:02:03Z</time></trkpt><trkpt lat="42.74730236863555" lon="11.714298064788569"><ele>609.5</ele><time>2026-04-12T10:02:04Z</time></trkpt><trkpt lat="42.747232186220785" lon="11.714142907252612"><ele>610.75</ele><time>2026-04-12T10:02:05Z</time></trkpt><trkpt lat="42.7471539177192" lon="11.713996169692685"><ele>612.0</ele><time>2026-04-12T10:02:06Z</time></trkpt><trkpt lat="42.74707922467367" lon="11.713874600310486"><ele>612.0</ele><time>2026-04-12T10:02:07Z</time></trkpt><trkpt lat="42.746993404355095" lon="11.713783178654044"><ele>612.0</ele><time>2026-04-12T10:02:08Z</time></trkpt><trkpt lat="42.746903413652674" lon="11.713700173222655"><ele>612.0</ele><time>2026-04-12T10:02:09Z</time></trkpt><trkpt lat="42.74685215602194" lon="11.71358844808503"><ele>612.0</ele><time>2026-04-12T10:02:10Z</time></trkpt><trkpt lat="42.74683499909722" lon="11.713474345500423"><ele>612.0</ele><time>2026-04-12T10:02:11Z</time></trkpt><trkpt lat="42.74680551059293" lon="11.713378172950026"><ele>615.1666666666666</ele><time>2026-04-12T10:02:12Z</time></trkpt><trkpt lat="42.746763803226735" lon="11.713277320997888"><ele>618.3333333333334</ele><time>2026-04-12T10:02:13Z</time></trkpt><trkpt lat="42.74673331936774" lon="11.713164729739809"><ele>621.5</ele><time>2026-04-12T10:02:14Z</time></trkpt><trkpt lat="42.74669263699383" lon="11.71305605584874"><ele>624.6666666666667</ele><time>2026-04-12T10:02:15Z</time></trkpt><trkpt lat="42.74665173615471" lon="11.712949346953954"><ele>627.8333333333334</ele><time>2026-04-12T10:02:16Z</time></trkpt><trkpt lat="42.74661407620508" lon="11.71283898008581"><ele>631.0</ele><time>2026-04-12T10:02:17Z</time></trkpt><trkpt lat="42.74659392850954" lon="11.712716894509281"><ele>632.0</ele><time>2026-04-12T10:02:18Z</time></trkpt><trkpt lat="42.746562770184305" lon="11.71255021669942"><ele>633.0</ele><time>2026-04-12T10:02:19Z</time></trkpt><trkpt lat="42.74654429140761" lon="11.712405207534877"><ele>634.0</ele><time>2026-04-12T10:02:20Z</time></trkpt><trkpt lat="42.7465199299868" lon="11.71226094225006"><ele>635.0</ele><time>2026-04-12T10:02:21Z</time></trkpt><trkpt lat="42.7464942227515" lon="11.712121803568367"><ele>636.0</ele><time>2026-04-12T10:02:22Z</time></trkpt><trkpt lat="42.74646592685443" lon="11.711969000765766"><ele>636.8</ele><time>2026-04-12T10:02:23Z</time></trkpt><trkpt lat="42.74646020819643" lon="11.711836281932525"><ele>637.6</ele><time>2026-04-12T10:02:24Z</time></trkpt><trkpt lat="42.746446595207196" lon="11.711709925799434"><ele>638.4</ele><time>2026-04-12T10:02:25Z</time></trkpt><trkpt lat="42.746441042440146" lon="11.711560685967836"><ele>639.2</ele><time>2026-04-12T10:02:26Z</time></trkpt><trkpt lat="42.746425558643885" lon="11.711413110194094"><ele>640.0</ele><time>2026-04-12T10:02:27Z</time></trkpt><trkpt lat="42.74639685374789" lon="11.711262942859427"><ele>640.0</ele><time>2026-04-12T10:02:28Z</time></trkpt><trkpt lat="42.74635427172029" lon="11.711116761722579"><ele>640.0</ele><time>2026-04-12T10:02:29Z</time></trkpt><trkpt lat="42.74630057635049" lon="11.71095636206739"><ele>640.0</ele><time>2026-04-12T10:02:30Z</time></trkpt><trkpt lat="42.74623529132974" lon="11.710798520661221"><ele>640.0</ele><time>2026-04-12T10:02:31Z</time></trkpt><trkpt lat="42.74617823325629" lon="11.710673296104474"><ele>639.7142857142857</ele><time>2026-04-12T10:02:32Z</time></trkpt><trkpt lat="42.74613131991901" lon="11.710579680218633"><ele>639.4285714285714</ele><time>2026-04-12T10:02:33Z</time></trkpt><trkpt lat="42.74610117082812" lon="11.710492117928677"><ele>639.1428571428571</ele><time>2026-04-12T10:02:34Z</time></trkpt><trkpt lat="42.74606733994158" lon="11.710414509202018"><ele>638.8571428571429</ele><time>2026-04-12T10:02:35Z</time></trkpt><trkpt lat="42.74602663281469" lon="11.71033875893452"><ele>638.5714285714286</ele><time>2026-04-12T10:02:36Z</time></trkpt><trkpt lat="42.74597939069597" lon="11.710276795564653"><ele>638.2857142857143</ele><time>2026-04-12T10:02:37Z</time></trkpt><trkpt lat="42.74592841463439" lon="11.710212904906674"><ele>638.0</ele><time>2026-04-12T10:02:38Z</time></trkpt><trkpt lat="42.74589872466175" lon="11.710123177980647"><ele>641.4</ele><time>2026-04-12T10:02:39Z</time></trkpt><trkpt lat="42.74587328584375" lon="11.710026724640935"><ele>644.8</ele><time>2026-04-12T10:02:40Z</time></trkpt><trkpt lat="42.74584558816149" lon="11.70991916811555"><ele>648.2</ele><time>2026-04-12T10:02:41Z</time></trkpt><trkpt lat="42.7458109193771" lon="11.70978913142525"><ele>651.6</ele><time>2026-04-12T10:02:42Z</time></trkpt><trkpt lat="42.74577394788572" lon="11.709646757487128"><ele>655.0</ele><time>2026-04-12T10:02:43Z</time></trkpt><trkpt lat="42.74574452778796" lon="11.709498328832568"><ele>654.6666666666667</ele><time>2026-04-12T10:02:44Z</time></trkpt><trkpt lat="42.74571706680381" lon="11.709349103900296"><ele>654.3333333333334</ele><time>2026-04-12T10:02:45Z</time></trkpt><trkpt lat="42.7456860178824" lon="11.709218981659287"><ele>654.0</ele><time>2026-04-12T10:02:46Z</time></trkpt><trkpt lat="42.74565241835777" lon="11.7091220080024"><ele>653.6666666666666</ele><time>2026-04-12T10:02:47Z</time></trkpt><trkpt lat="42.74561697756665" lon="11.709035343497396"><ele>653.3333333333333</ele><time>2026-04-12T10:02:48Z</time></trkpt><trkpt lat="42.745583659422955" lon="11.708940944063503"><ele>653.0</ele><time>2026-04-12T10:02:49Z</time></trkpt><trkpt lat="42.745552766553054" lon="11.708856669729151"><ele>653.0</ele><time>2026-04-12T10:02:50Z</time></trkpt><trkpt lat="42.74551723652134" lon="11.708673594139018"><ele>653.0</ele><time>2026-04-12T10:02:52Z</time></trkpt><trkpt lat="42.74551848860917" lon="11.708555421074804"><ele>653.0</ele><time>2026-04-12T10:02:53Z</time></trkpt><trkpt lat="42.74553176228079" lon="11.708441617659005"><ele>653.0</ele><time>2026-04-12T10:02:54Z</time></trkpt><trkpt lat="42.74552803463655" lon="11.708324782377936"><ele>653.0</ele><time>2026-04-12T10:02:55Z</time></trkpt><trkpt lat="42.745528072252746" lon="11.708232297861784"><ele>653.8333333333333</ele><time>2026-04-12T10:02:56Z</time></trkpt><trkpt lat="42.74553044284025" lon="11.708077931065116"><ele>654.6666666666666</ele><time>2026-04-12T10:02:58Z</time></trkpt><trkpt lat="42.7455292259531" lon="11.707988039024377"><ele>655.5</ele><time>2026-04-12T10:02:59Z</time></trkpt><trkpt lat="42.74553462423953" lon="11.707891552991123"><ele>656.3333333333334</ele><time>2026-04-12T10:03:00Z</time></trkpt><trkpt lat="42.74554479435365" lon="11.70778691111672"><ele>657.1666666666667</ele><time>2026-04-12T10:03:01Z</time></trkpt><trkpt lat="42.74555955121157" lon="11.707686781891223"><ele>658.0</ele><time>2026-04-12T10:03:02Z</time></trkpt><trkpt lat="42.74557849242496" lon="11.707596403032825"><ele>658.6666666666667</ele><time>2026-04-12T10:03:03Z</time></trkpt><trkpt lat="42.745591483070726" lon="11.707501947206271"><ele>659.3333333333334</ele><time>2026-04-12T10:03:04Z</time></trkpt><trkpt lat="42.74559726220312" lon="11.707384670320932"><ele>660.0</ele><time>2026-04-12T10:03:05Z</time></trkpt><trkpt lat="42.745602657035356" lon="11.707275011125107"><ele>660.6666666666666</ele><time>2026-04-12T10:03:06Z</time></trkpt><trkpt lat="42.74562260333607" lon="11.707162512896584"><ele>661.3333333333333</ele><time>2026-04-12T10:03:07Z</time></trkpt><trkpt lat="42.74562414735961" lon="11.707075222941862"><ele>662.0</ele><time>2026-04-12T10:03:08Z</time></trkpt><trkpt lat="42.745611360784416" lon="11.706914684620635"><ele>661.8333333333333</ele><time>2026-04-12T10:03:10Z</time></trkpt><trkpt lat="42.74561647531345" lon="11.706816800388241"><ele>661.6666666666666</ele><time>2026-04-12T10:03:11Z</time></trkpt><trkpt lat="42.74563453643698" lon="11.706699488892752"><ele>661.5</ele><time>2026-04-12T10:03:12Z</time></trkpt><trkpt lat="42.745653793354776" lon="11.706561625797457"><ele>661.3333333333334</ele><time>2026-04-12T10:03:13Z</time></trkpt><trkpt lat="42.74566574276188" lon="11.70645547657082"><ele>661.1666666666667</ele><time>2026-04-12T10:03:14Z</time></trkpt><trkpt lat="42.74567713249726" lon="11.706333703717197"><ele>661.0</ele><time>2026-04-12T10:03:16Z</time></trkpt><trkpt lat="42.74568734372293" lon="11.706245212673124"><ele>661.0</ele><time>2026-04-12T10:03:18Z</time></trkpt><trkpt lat="42.74567447326925" lon="11.706137756938242"><ele>661.0</ele><time>2026-04-12T10:03:25Z</time></trkpt><trkpt lat="42.74567915091405" lon="11.706001165661922"><ele>661.0</ele><time>2026-04-12T10:03:27Z</time></trkpt><trkpt lat="42.74570000809166" lon="11.705908808732028"><ele>661.0</ele><time>2026-04-12T10:03:28Z</time></trkpt><trkpt lat="42.74574326672118" lon="11.705753277251315"><ele>661.0</ele><time>2026-04-12T10:03:30Z</time></trkpt><trkpt lat="42.74565317970517" lon="11.705613841237321"><ele>661.3333333333334</ele><time>2026-04-12T10:03:31Z</time></trkpt><trkpt lat="42.74564371895634" lon="11.705508341788828"><ele>661.6666666666667</ele><time>2026-04-12T10:03:32Z</time></trkpt><trkpt lat="42.74563065703013" lon="11.705412438860982"><ele>662.0</ele><time>2026-04-12T10:03:33Z</time></trkpt><trkpt lat="42.74560843845444" lon="11.70532299843532"><ele>662.3333333333334</ele><time>2026-04-12T10:03:34Z</time></trkpt><trkpt lat="42.745554329757766" lon="11.705175352245847"><ele>662.6666666666666</ele><time>2026-04-12T10:03:36Z</time></trkpt><trkpt lat="42.745525338972065" lon="11.705098965325403"><ele>663.0</ele><time>2026-04-12T10:03:37Z</time></trkpt><trkpt lat="42.74547335961282" lon="11.704971521591329"><ele>664.1666666666666</ele><time>2026-04-12T10:03:39Z</time></trkpt><trkpt lat="42.745405848639905" lon="11.704831715452588"><ele>665.3333333333334</ele><time>2026-04-12T10:03:41Z</time></trkpt><trkpt lat="42.745376722955946" lon="11.704747173894077"><ele>666.5</ele><time>2026-04-12T10:03:42Z</time></trkpt><trkpt lat="42.74534397930259" lon="11.704665436811421"><ele>667.6666666666667</ele><time>2026-04-12T10:03:43Z</time></trkpt><trkpt lat="42.74530708853318" lon="11.704581308444087"><ele>668.8333333333334</ele><time>2026-04-12T10:03:44Z</time></trkpt><trkpt lat="42.74527279348078" lon="11.704491916155138"><ele>670.0</ele><time>2026-04-12T10:03:45Z</time></trkpt><trkpt lat="42.74523552022258" lon="11.704403284263053"><ele>670.7142857142857</ele><time>2026-04-12T10:03:46Z</time></trkpt><trkpt lat="42.74519715787665" lon="11.704322179767859"><ele>671.4285714285714</ele><time>2026-04-12T10:03:47Z</time></trkpt><trkpt lat="42.74515826132775" lon="11.704240216910351"><ele>672.1428571428571</ele><time>2026-04-12T10:03:48Z</time></trkpt><trkpt lat="42.74512231231032" lon="11.704156920204566"><ele>672.8571428571429</ele><time>2026-04-12T10:03:49Z</time></trkpt><trkpt lat="42.7450945589613" lon="11.704070395602248"><ele>673.5714285714286</ele><time>2026-04-12T10:03:50Z</time></trkpt><trkpt lat="42.74506095027192" lon="11.703983652214884"><ele>674.2857142857142</ele><time>2026-04-12T10:03:51Z</time></trkpt><trkpt lat="42.74502372495344" lon="11.703888486040139"><ele>675.0</ele><time>2026-04-12T10:03:52Z</time></trkpt><trkpt lat="42.74498869158608" lon="11.70377839443182"><ele>675.0</ele><time>2026-04-12T10:03:53Z</time></trkpt><trkpt lat="42.74495039139453" lon="11.703658462174026"><ele>675.0</ele><time>2026-04-12T10:03:54Z</time></trkpt><trkpt lat="42.74491440894005" lon="11.70352884835846"><ele>675.0</ele><time>2026-04-12T10:03:55Z</time></trkpt><trkpt lat="42.744887280220375" lon="11.703387919099075"><ele>675.0</ele><time>2026-04-12T10:03:56Z</time></trkpt><trkpt lat="42.74491153450507" lon="11.703245055101796"><ele>675.0</ele><time>2026-04-12T10:03:57Z</time></trkpt><trkpt lat="42.74491217761285" lon="11.703098013531308"><ele>675.6666666666666</ele><time>2026-04-12T10:03:58Z</time></trkpt><trkpt lat="42.744935026783374" lon="11.702961581522349"><ele>676.3333333333334</ele><time>2026-04-12T10:03:59Z</time></trkpt><trkpt lat="42.74495120377045" lon="11.702833441642735"><ele>677.0</ele><time>2026-04-12T10:04:00Z</time></trkpt><trkpt lat="42.74496476574121" lon="11.70271735384056"><ele>677.6666666666667</ele><time>2026-04-12T10:04:01Z</time></trkpt><trkpt lat="42.74497912033163" lon="11.70261617169392"><ele>678.3333333333334</ele><time>2026-04-12T10:04:02Z</time></trkpt><trkpt lat="42.744986238962" lon="11.702518617643868"><ele>679.0</ele><time>2026-04-12T10:04:03Z</time></trkpt><trkpt lat="42.74499223689327" lon="11.70242419380334"><ele>680.2</ele><time>2026-04-12T10:04:04Z</time></trkpt><trkpt lat="42.74499606921098" lon="11.70229348049618"><ele>681.4000000000001</ele><time>2026-04-12T10:04:06Z</time></trkpt><trkpt lat="42.745015562850796" lon="11.702103352088422"><ele>682.6</ele><time>2026-04-12T10:04:08Z</time></trkpt><trkpt lat="42.745020310222074" lon="11.701991903271233"><ele>683.8</ele><time>2026-04-12T10:04:09Z</time></trkpt><trkpt lat="42.74502027890525" lon="11.701885482064512"><ele>685.0</ele><time>2026-04-12T10:04:10Z</time></trkpt><trkpt lat="42.74502678073241" lon="11.701751797014653"><ele>687.2</ele><time>2026-04-12T10:04:11Z</time></trkpt><trkpt lat="42.74502728333619" lon="11.701606450446745"><ele>689.4</ele><time>2026-04-12T10:04:12Z</time></trkpt><trkpt lat="42.74502139358493" lon="11.70146962932019"><ele>691.5999999999999</ele><time>2026-04-12T10:04:13Z</time></trkpt><trkpt lat="42.74502145534465" lon="11.701347076719985"><ele>693.8</ele><time>2026-04-12T10:04:14Z</time></trkpt><trkpt lat="42.7450332896087" lon="11.701238240294707"><ele>696.0</ele><time>2026-04-12T10:04:15Z</time></trkpt><trkpt lat="42.745034692547776" lon="11.701130693756607"><ele>696.4</ele><time>2026-04-12T10:04:16Z</time></trkpt><trkpt lat="42.74503093088229" lon="11.701000327498974"><ele>696.8</ele><time>2026-04-12T10:04:17Z</time></trkpt><trkpt lat="42.74507028559237" lon="11.700881277460116"><ele>697.1999999999999</ele><time>2026-04-12T10:04:18Z</time></trkpt><trkpt lat="42.745084775410184" lon="11.700741311358387"><ele>697.5999999999999</ele><time>2026-04-12T10:04:19Z</time></trkpt><trkpt lat="42.7451094880425" lon="11.70059978101222"><ele>698.0</ele><time>2026-04-12T10:04:20Z</time></trkpt><trkpt lat="42.745135723370964" lon="11.700452669147209"><ele>698.0</ele><time>2026-04-12T10:04:21Z</time></trkpt><trkpt lat="42.74515978704994" lon="11.700293402923428"><ele>698.0</ele><time>2026-04-12T10:04:22Z</time></trkpt><trkpt lat="42.74518203506399" lon="11.70013526637205"><ele>698.0</ele><time>2026-04-12T10:04:23Z</time></trkpt><trkpt lat="42.7452065047314" lon="11.700003525012576"><ele>698.0</ele><time>2026-04-12T10:04:24Z</time></trkpt><trkpt lat="42.745223023037795" lon="11.699887844228417"><ele>698.0</ele><time>2026-04-12T10:04:25Z</time></trkpt><trkpt lat="42.74526250391278" lon="11.699777438815573"><ele>700.5</ele><time>2026-04-12T10:04:26Z</time></trkpt><trkpt lat="42.74529706869179" lon="11.699671288043286"><ele>703.0</ele><time>2026-04-12T10:04:27Z</time></trkpt><trkpt lat="42.745347384549376" lon="11.699572357331155"><ele>705.5</ele><time>2026-04-12T10:04:28Z</time></trkpt><trkpt lat="42.745410653236235" lon="11.699474714135759"><ele>708.0</ele><time>2026-04-12T10:04:29Z</time></trkpt><trkpt lat="42.74545653458191" lon="11.699376728687728"><ele>710.5</ele><time>2026-04-12T10:04:30Z</time></trkpt><trkpt lat="42.74550684365279" lon="11.69927903987276"><ele>713.0</ele><time>2026-04-12T10:04:31Z</time></trkpt><trkpt lat="42.74552544810047" lon="11.699187654181742"><ele>713.0</ele><time>2026-04-12T10:04:32Z</time></trkpt><trkpt lat="42.74552706563383" lon="11.699086830503001"><ele>713.0</ele><time>2026-04-12T10:04:33Z</time></trkpt><trkpt lat="42.7454931924849" lon="11.698990952558033"><ele>713.0</ele><time>2026-04-12T10:04:34Z</time></trkpt><trkpt lat="42.74544396867218" lon="11.698903767465689"><ele>713.0</ele><time>2026-04-12T10:04:35Z</time></trkpt><trkpt lat="42.74540545257944" lon="11.69880781988534"><ele>713.0</ele><time>2026-04-12T10:04:36Z</time></trkpt><trkpt lat="42.745334115147486" lon="11.698716353330369"><ele>713.0</ele><time>2026-04-12T10:04:37Z</time></trkpt><trkpt lat="42.74526898493785" lon="11.698596296325135"><ele>713.0</ele><time>2026-04-12T10:04:38Z</time></trkpt><trkpt lat="42.74519858962642" lon="11.698471776384729"><ele>713.0</ele><time>2026-04-12T10:04:39Z</time></trkpt><trkpt lat="42.74514157467634" lon="11.698367995802695"><ele>713.0</ele><time>2026-04-12T10:04:40Z</time></trkpt><trkpt lat="42.74508011000503" lon="11.698287963178407"><ele>713.0</ele><time>2026-04-12T10:04:41Z</time></trkpt><trkpt lat="42.74499870401032" lon="11.698254347148596"><ele>713.0</ele><time>2026-04-12T10:04:42Z</time></trkpt><trkpt lat="42.74490930380763" lon="11.69822014576172"><ele>713.0</ele><time>2026-04-12T10:04:43Z</time></trkpt><trkpt lat="42.74486419953891" lon="11.698159391098653"><ele>713.0</ele><time>2026-04-12T10:04:44Z</time></trkpt><trkpt lat="42.74478385306281" lon="11.698029238008642"><ele>713.0</ele><time>2026-04-12T10:04:46Z</time></trkpt><trkpt lat="42.74471060604107" lon="11.697880603269091"><ele>713.0</ele><time>2026-04-12T10:04:48Z</time></trkpt><trkpt lat="42.74467456976565" lon="11.697797850998098"><ele>713.0</ele><time>2026-04-12T10:04:49Z</time></trkpt><trkpt lat="42.74464008762835" lon="11.697714907686857"><ele>717.5999999999999</ele><time>2026-04-12T10:04:50Z</time></trkpt><trkpt lat="42.74458771489741" lon="11.697607947666418"><ele>722.1999999999999</ele><time>2026-04-12T10:04:51Z</time></trkpt><trkpt lat="42.744536964894216" lon="11.697481022355085"><ele>726.8</ele><time>2026-04-12T10:04:52Z</time></trkpt><trkpt lat="42.74448342012262" lon="11.697367793455841"><ele>731.4</ele><time>2026-04-12T10:04:53Z</time></trkpt><trkpt lat="42.744444627003034" lon="11.697257857166088"><ele>736.0</ele><time>2026-04-12T10:04:54Z</time></trkpt><trkpt lat="42.7443827687029" lon="11.697171438633639"><ele>736.0</ele><time>2026-04-12T10:04:55Z</time></trkpt><trkpt lat="42.74432719373381" lon="11.697066678948033"><ele>736.0</ele><time>2026-04-12T10:04:56Z</time></trkpt><trkpt lat="42.74428854826154" lon="11.696955091220326"><ele>736.0</ele><time>2026-04-12T10:04:57Z</time></trkpt><trkpt lat="42.7442309263448" lon="11.696866792687326"><ele>736.0</ele><time>2026-04-12T10:04:58Z</time></trkpt><trkpt lat="42.744170114870755" lon="11.696758217040207"><ele>736.0</ele><time>2026-04-12T10:04:59Z</time></trkpt><trkpt lat="42.7441033918691" lon="11.696642262169997"><ele>736.0</ele><time>2026-04-12T10:05:00Z</time></trkpt><trkpt lat="42.74403837534863" lon="11.696553137455666"><ele>736.0</ele><time>2026-04-12T10:05:01Z</time></trkpt><trkpt lat="42.743953976277396" lon="11.69645266178134"><ele>736.0</ele><time>2026-04-12T10:05:02Z</time></trkpt><trkpt lat="42.74386784371392" lon="11.696349451458813"><ele>736.0</ele><time>2026-04-12T10:05:03Z</time></trkpt><trkpt lat="42.74378270614007" lon="11.696270005916498"><ele>736.0</ele><time>2026-04-12T10:05:04Z</time></trkpt><trkpt lat="42.74372309899775" lon="11.696205736121655"><ele>736.0</ele><time>2026-04-12T10:05:05Z</time></trkpt><trkpt lat="42.74365546039176" lon="11.696133196273673"><ele>736.0</ele><time>2026-04-12T10:05:06Z</time></trkpt><trkpt lat="42.74362091535307" lon="11.696008387531606"><ele>736.0</ele><time>2026-04-12T10:05:07Z</time></trkpt><trkpt lat="42.74356247184633" lon="11.695884928923457"><ele>736.0</ele><time>2026-04-12T10:05:08Z</time></trkpt><trkpt lat="42.74352776698489" lon="11.695746369899409"><ele>736.0</ele><time>2026-04-12T10:05:09Z</time></trkpt><trkpt lat="42.74348986025803" lon="11.69561871764509"><ele>737.0</ele><time>2026-04-12T10:05:10Z</time></trkpt><trkpt lat="42.7434313389083" lon="11.695512311132552"><ele>738.0</ele><time>2026-04-12T10:05:11Z</time></trkpt><trkpt lat="42.743347552931645" lon="11.695423422079806"><ele>739.0</ele><time>2026-04-12T10:05:12Z</time></trkpt><trkpt lat="42.743252824707795" lon="11.69534665413939"><ele>740.0</ele><time>2026-04-12T10:05:13Z</time></trkpt><trkpt lat="42.74316118076533" lon="11.695276935173776"><ele>741.0</ele><time>2026-04-12T10:05:14Z</time></trkpt><trkpt lat="42.743067864781416" lon="11.6952066116651"><ele>744.5999999999999</ele><time>2026-04-12T10:05:15Z</time></trkpt><trkpt lat="42.743002817868664" lon="11.695110428342563"><ele>748.2</ele><time>2026-04-12T10:05:16Z</time></trkpt><trkpt lat="42.74293743459262" lon="11.695017375129138"><ele>751.8</ele><time>2026-04-12T10:05:17Z</time></trkpt><trkpt lat="42.7428755594325" lon="11.694927820767624"><ele>755.4000000000001</ele><time>2026-04-12T10:05:18Z</time></trkpt><trkpt lat="42.74281766130433" lon="11.694825283503926"><ele>759.0</ele><time>2026-04-12T10:05:19Z</time></trkpt><trkpt lat="42.74277983033359" lon="11.69471113184282"><ele>759.0</ele><time>2026-04-12T10:05:20Z</time></trkpt><trkpt lat="42.74276148281463" lon="11.694604309774006"><ele>759.0</ele><time>2026-04-12T10:05:21Z</time></trkpt><trkpt lat="42.74273671367826" lon="11.69447948110002"><ele>759.0</ele><time>2026-04-12T10:05:22Z</time></trkpt><trkpt lat="42.74270067133978" lon="11.694346713642998"><ele>759.0</ele><time>2026-04-12T10:05:23Z</time></trkpt><trkpt lat="42.74267858450299" lon="11.69419758268723"><ele>759.0</ele><time>2026-04-12T10:05:24Z</time></trkpt><trkpt lat="42.74264703678733" lon="11.69404459265544"><ele>759.0</ele><time>2026-04-12T10:05:25Z</time></trkpt><trkpt lat="42.742601665851126" lon="11.693901652617429"><ele>759.0</ele><time>2026-04-12T10:05:26Z</time></trkpt><trkpt lat="42.74257064268129" lon="11.693768900534923"><ele>759.0</ele><time>2026-04-12T10:05:27Z</time></trkpt><trkpt lat="42.74253956936495" lon="11.693643626171653"><ele>759.0</ele><time>2026-04-12T10:05:28Z</time></trkpt><trkpt lat="42.74250692996919" lon="11.693515710271651"><ele>759.0</ele><time>2026-04-12T10:05:29Z</time></trkpt><trkpt lat="42.742473657518396" lon="11.693367656642565"><ele>760.5</ele><time>2026-04-12T10:05:30Z</time></trkpt><trkpt lat="42.742441727875025" lon="11.693204815146567"><ele>762.0</ele><time>2026-04-12T10:05:31Z</time></trkpt><trkpt lat="42.7424023489178" lon="11.69305124590922"><ele>763.5</ele><time>2026-04-12T10:05:32Z</time></trkpt><trkpt lat="42.74238018679777" lon="11.692890555528395"><ele>765.0</ele><time>2026-04-12T10:05:33Z</time></trkpt><trkpt lat="42.74236614767885" lon="11.692728454220635"><ele>765.5</ele><time>2026-04-12T10:05:34Z</time></trkpt><trkpt lat="42.742324494383446" lon="11.692572116080017"><ele>766.0</ele><time>2026-04-12T10:05:35Z</time></trkpt><trkpt lat="42.7422967090488" lon="11.69240964894536"><ele>766.5</ele><time>2026-04-12T10:05:36Z</time></trkpt><trkpt lat="42.742270150327506" lon="11.692242693995091"><ele>767.0</ele><time>2026-04-12T10:05:37Z</time></trkpt><trkpt lat="42.74225474004123" lon="11.692068166311332"><ele>767.0</ele><time>2026-04-12T10:05:38Z</time></trkpt><trkpt lat="42.74221652746043" lon="11.691926859290325"><ele>767.0</ele><time>2026-04-12T10:05:39Z</time></trkpt><trkpt lat="42.74220741041468" lon="11.691767366263168"><ele>767.0</ele><time>2026-04-12T10:05:40Z</time></trkpt><trkpt lat="42.7421733859223" lon="11.691615690554599"><ele>767.0</ele><time>2026-04-12T10:05:41Z</time></trkpt><trkpt lat="42.74214743525753" lon="11.69146643492771"><ele>768.4000000000001</ele><time>2026-04-12T10:05:42Z</time></trkpt><trkpt lat="42.74212786782901" lon="11.691325976828509"><ele>769.8000000000001</ele><time>2026-04-12T10:05:43Z</time></trkpt><trkpt lat="42.742101756357656" lon="11.691193733299139"><ele>771.2</ele><time>2026-04-12T10:05:44Z</time></trkpt><trkpt lat="42.742047406515276" lon="11.691072695082646"><ele>772.6</ele><time>2026-04-12T10:05:45Z</time></trkpt><trkpt lat="42.74199014441547" lon="11.690948459870551"><ele>774.0</ele><time>2026-04-12T10:05:46Z</time></trkpt><trkpt lat="42.74196133063654" lon="11.690815293929221"><ele>774.3333333333334</ele><time>2026-04-12T10:05:47Z</time></trkpt><trkpt lat="42.74194315120971" lon="11.690698280234587"><ele>774.6666666666667</ele><time>2026-04-12T10:05:48Z</time></trkpt><trkpt lat="42.74196354108625" lon="11.690578715538862"><ele>775.0</ele><time>2026-04-12T10:05:49Z</time></trkpt><trkpt lat="42.74198374160134" lon="11.69047366732829"><ele>775.3333333333334</ele><time>2026-04-12T10:05:50Z</time></trkpt><trkpt lat="42.74198830964326" lon="11.690350825552823"><ele>775.6666666666667</ele><time>2026-04-12T10:05:51Z</time></trkpt><trkpt lat="42.74199631619515" lon="11.690220384532395"><ele>776.0</ele><time>2026-04-12T10:05:52Z</time></trkpt><trkpt lat="42.74199349500039" lon="11.69008627551836"><ele>777.0</ele><time>2026-04-12T10:05:53Z</time></trkpt><trkpt lat="42.74200560887686" lon="11.689954699463119"><ele>778.0</ele><time>2026-04-12T10:05:54Z</time></trkpt><trkpt lat="42.74200661587585" lon="11.689818300974819"><ele>779.0</ele><time>2026-04-12T10:05:55Z</time></trkpt><trkpt lat="42.74199522551193" lon="11.689666182297076"><ele>780.0</ele><time>2026-04-12T10:05:56Z</time></trkpt><trkpt lat="42.74199997536277" lon="11.689515975059246"><ele>781.0</ele><time>2026-04-12T10:05:57Z</time></trkpt><trkpt lat="42.74199542389324" lon="11.68936915048747"><ele>782.4</ele><time>2026-04-12T10:05:58Z</time></trkpt><trkpt lat="42.741993784294635" lon="11.689234798722568"><ele>783.8</ele><time>2026-04-12T10:05:59Z</time></trkpt><trkpt lat="42.741992030681565" lon="11.689093804291238"><ele>785.1999999999999</ele><time>2026-04-12T10:06:00Z</time></trkpt><trkpt lat="42.742012977922485" lon="11.688965931257226"><ele>786.5999999999999</ele><time>2026-04-12T10:06:01Z</time></trkpt><trkpt lat="42.74204583110618" lon="11.688823337552716"><ele>788.0</ele><time>2026-04-12T10:06:02Z</time></trkpt><trkpt lat="42.742059398164635" lon="11.68866846496764"><ele>789.0</ele><time>2026-04-12T10:06:03Z</time></trkpt><trkpt lat="42.74209353344036" lon="11.68851713072098"><ele>790.0</ele><time>2026-04-12T10:06:04Z</time></trkpt><trkpt lat="42.74211217067685" lon="11.688334286604185"><ele>791.0</ele><time>2026-04-12T10:06:05Z</time></trkpt><trkpt lat="42.74214449959725" lon="11.688163086817884"><ele>792.0</ele><time>2026-04-12T10:06:06Z</time></trkpt><trkpt lat="42.74218340791285" lon="11.687991885711838"><ele>792.0</ele><time>2026-04-12T10:06:07Z</time></trkpt><trkpt lat="42.74224726620944" lon="11.687819944688401"><ele>792.0</ele><time>2026-04-12T10:06:08Z</time></trkpt><trkpt lat="42.74230163471579" lon="11.687649609538115"><ele>792.0</ele><time>2026-04-12T10:06:09Z</time></trkpt><trkpt lat="42.74232967440532" lon="11.68747016550841"><ele>792.0</ele><time>2026-04-12T10:06:10Z</time></trkpt><trkpt lat="42.74237254152361" lon="11.687332255790666"><ele>794.0</ele><time>2026-04-12T10:06:11Z</time></trkpt><trkpt lat="42.74237088047138" lon="11.687192762532717"><ele>796.0</ele><time>2026-04-12T10:06:12Z</time></trkpt><trkpt lat="42.742364528456555" lon="11.68706179787303"><ele>798.0</ele><time>2026-04-12T10:06:13Z</time></trkpt><trkpt lat="42.74233845827831" lon="11.686950593949314"><ele>800.0</ele><time>2026-04-12T10:06:14Z</time></trkpt><trkpt lat="42.74230309546339" lon="11.686829816412075"><ele>802.0</ele><time>2026-04-12T10:06:15Z</time></trkpt><trkpt lat="42.742285485306844" lon="11.686673976631694"><ele>803.25</ele><time>2026-04-12T10:06:16Z</time></trkpt><trkpt lat="42.74225749022144" lon="11.686516936441302"><ele>804.5</ele><time>2026-04-12T10:06:17Z</time></trkpt><trkpt lat="42.74221616116947" lon="11.686359231208058"><ele>805.75</ele><time>2026-04-12T10:06:18Z</time></trkpt><trkpt lat="42.74219777379996" lon="11.686202801466916"><ele>807.0</ele><time>2026-04-12T10:06:19Z</time></trkpt><trkpt lat="42.74221690446471" lon="11.686061356836891"><ele>808.5</ele><time>2026-04-12T10:06:20Z</time></trkpt><trkpt lat="42.74223709580315" lon="11.685951333971868"><ele>810.0</ele><time>2026-04-12T10:06:21Z</time></trkpt><trkpt lat="42.74227032465961" lon="11.685839812313407"><ele>811.5</ele><time>2026-04-12T10:06:22Z</time></trkpt><trkpt lat="42.742313316431606" lon="11.685737953929168"><ele>813.0</ele><time>2026-04-12T10:06:23Z</time></trkpt><trkpt lat="42.74237577676809" lon="11.685659989241532"><ele>814.5</ele><time>2026-04-12T10:06:24Z</time></trkpt><trkpt lat="42.74243671880082" lon="11.685619774323994"><ele>816.0</ele><time>2026-04-12T10:06:25Z</time></trkpt><trkpt lat="42.74249892911803" lon="11.685567386478233"><ele>816.0</ele><time>2026-04-12T10:06:26Z</time></trkpt><trkpt lat="42.74258569320138" lon="11.68549798968119"><ele>816.0</ele><time>2026-04-12T10:06:27Z</time></trkpt><trkpt lat="42.74267075585352" lon="11.685422619462312"><ele>816.0</ele><time>2026-04-12T10:06:28Z</time></trkpt><trkpt lat="42.74275445603072" lon="11.685344812690921"><ele>816.0</ele><time>2026-04-12T10:06:29Z</time></trkpt><trkpt lat="42.74280812544737" lon="11.685255612218127"><ele>816.0</ele><time>2026-04-12T10:06:30Z</time></trkpt><trkpt lat="42.742829316204165" lon="11.685141461684527"><ele>817.5999999999999</ele><time>2026-04-12T10:06:31Z</time></trkpt><trkpt lat="42.74282918622886" lon="11.685034544281022"><ele>819.2</ele><time>2026-04-12T10:06:32Z</time></trkpt><trkpt lat="42.742822925210255" lon="11.684938831663821"><ele>820.8</ele><time>2026-04-12T10:06:33Z</time></trkpt><trkpt lat="42.74280827434941" lon="11.68480518483334"><ele>822.4000000000001</ele><time>2026-04-12T10:06:35Z</time></trkpt><trkpt lat="42.742825269165465" lon="11.684719168572013"><ele>824.0</ele><time>2026-04-12T10:06:39Z</time></trkpt><trkpt lat="42.74290143882158" lon="11.684942155839677"><ele>824.0000000000001</ele><time>2026-04-12T10:07:23Z</time></trkpt><trkpt lat="42.742954625970086" lon="11.685050202772365"><ele>824.0</ele><time>2026-04-12T10:07:24Z</time></trkpt><trkpt lat="42.74298244341324" lon="11.6851396939072"><ele>824.0</ele><time>2026-04-12T10:07:25Z</time></trkpt><trkpt lat="42.74301677417031" lon="11.685217584603048"><ele>824.0</ele><time>2026-04-12T10:07:26Z</time></trkpt><trkpt lat="42.74306745155363" lon="11.685296195084282"><ele>824.0000000000001</ele><time>2026-04-12T10:07:27Z</time></trkpt><trkpt lat="42.743120895397" lon="11.685357636098239"><ele>824.0</ele><time>2026-04-12T10:07:28Z</time></trkpt><trkpt lat="42.74319004682667" lon="11.685424543951466"><ele>822.8000000000001</ele><time>2026-04-12T10:07:29Z</time></trkpt><trkpt lat="42.74326411587739" lon="11.685495619317347"><ele>821.6</ele><time>2026-04-12T10:07:30Z</time></trkpt><trkpt lat="42.74332513551198" lon="11.685568811724826"><ele>820.4</ele><time>2026-04-12T10:07:31Z</time></trkpt><trkpt lat="42.74340384335434" lon="11.68568998232199"><ele>819.2</ele><time>2026-04-12T10:07:33Z</time></trkpt><trkpt lat="42.74344836457596" lon="11.685818846099327"><ele>818.0</ele><time>2026-04-12T10:07:35Z</time></trkpt><trkpt lat="42.74349368945809" lon="11.685911008759998"><ele>818.0000000000001</ele><time>2026-04-12T10:07:37Z</time></trkpt><trkpt lat="42.74353055152747" lon="11.68598426180499"><ele>818.0</ele><time>2026-04-12T10:07:39Z</time></trkpt><trkpt lat="42.74356666111565" lon="11.686056019395712"><ele>818.0</ele><time>2026-04-12T10:07:43Z</time></trkpt><trkpt lat="42.74360855512101" lon="11.686139271913937"><ele>818.0</ele><time>2026-04-12T10:08:04Z</time></trkpt><trkpt lat="42.74365401634794" lon="11.686239615941703"><ele>818.0000000000001</ele><time>2026-04-12T10:18:57Z</time></trkpt><trkpt lat="42.743708474116815" lon="11.686362604063849"><ele>818.0</ele><time>2026-04-12T10:18:59Z</time></trkpt><trkpt lat="42.743774036906785" lon="11.686454370010505"><ele>819.5</ele><time>2026-04-12T10:19:01Z</time></trkpt><trkpt lat="42.743844974867855" lon="11.686522098803541"><ele>821.0</ele><time>2026-04-12T10:19:03Z</time></trkpt><trkpt lat="42.74400039247335" lon="11.686435301995568"><ele>822.5</ele><time>2026-04-12T10:19:07Z</time></trkpt><trkpt lat="42.74409384631478" lon="11.686327948530348"><ele>824.0</ele><time>2026-04-12T10:19:09Z</time></trkpt><trkpt lat="42.74411000687993" lon="11.686224264431669"><ele>824.8000000000001</ele><time>2026-04-12T10:19:13Z</time></trkpt><trkpt lat="42.74410163142148" lon="11.686089896329072"><ele>825.6</ele><time>2026-04-12T10:19:16Z</time></trkpt><trkpt lat="42.74410360418749" lon="11.685972992308846"><ele>826.4</ele><time>2026-04-12T10:19:18Z</time></trkpt><trkpt lat="42.74409078790202" lon="11.68584014168428"><ele>827.2</ele><time>2026-04-12T10:19:20Z</time></trkpt><trkpt lat="42.744063242120596" lon="11.685707928923966"><ele>828.0</ele><time>2026-04-12T10:19:22Z</time></trkpt><trkpt lat="42.74403180510737" lon="11.685576341850561"><ele>828.0</ele><time>2026-04-12T10:19:24Z</time></trkpt><trkpt lat="42.743996992224226" lon="11.685494837530268"><ele>828.0</ele><time>2026-04-12T10:19:26Z</time></trkpt><trkpt lat="42.74393080129234" lon="11.685439117075171"><ele>828.0</ele><time>2026-04-12T10:19:28Z</time></trkpt><trkpt lat="42.74382330465856" lon="11.685422171244769"><ele>828.0</ele><time>2026-04-12T10:19:30Z</time></trkpt><trkpt lat="42.743735442799206" lon="11.68546133789342"><ele>828.0</ele><time>2026-04-12T10:19:32Z</time></trkpt><trkpt lat="42.74366730578205" lon="11.685528003348383"><ele>828.0</ele><time>2026-04-12T10:19:34Z</time></trkpt><trkpt lat="42.743600264989674" lon="11.685562559845065"><ele>828.0</ele><time>2026-04-12T10:19:36Z</time></trkpt><trkpt lat="42.743585772238205" lon="11.685679900027743"><ele>828.0</ele><time>2026-04-12T10:19:39Z</time></trkpt><trkpt lat="42.7435961596845" lon="11.685768479522945"><ele>828.0</ele><time>2026-04-12T10:19:40Z</time></trkpt><trkpt lat="42.74360408546973" lon="11.685854826629033"><ele>828.0</ele><time>2026-04-12T10:19:42Z</time></trkpt><trkpt lat="42.7435607577771" lon="11.685918338507657"><ele>828.0</ele><time>2026-04-12T10:19:45Z</time></trkpt><trkpt lat="42.74349984527203" lon="11.685852141868327"><ele>828.0</ele><time>2026-04-12T10:19:52Z</time></trkpt><trkpt lat="42.7434520318998" lon="11.685744661584067"><ele>826.0</ele><time>2026-04-12T10:19:54Z</time></trkpt><trkpt lat="42.74337126425604" lon="11.685599795200408"><ele>824.0</ele><time>2026-04-12T10:19:56Z</time></trkpt><trkpt lat="42.7433038303351" lon="11.685508096850054"><ele>822.0</ele><time>2026-04-12T10:19:57Z</time></trkpt><trkpt lat="42.743223181608435" lon="11.685443418741453"><ele>820.0</ele><time>2026-04-12T10:19:58Z</time></trkpt><trkpt lat="42.74313360095873" lon="11.685366653538297"><ele>818.0</ele><time>2026-04-12T10:20:00Z</time></trkpt><trkpt lat="42.74309863634495" lon="11.685295369009454"><ele>819.2</ele><time>2026-04-12T10:20:01Z</time></trkpt><trkpt lat="42.743026603789666" lon="11.68517975834392"><ele>820.4</ele><time>2026-04-12T10:20:03Z</time></trkpt><trkpt lat="42.74298869432742" lon="11.685102063646074"><ele>821.6</ele><time>2026-04-12T10:20:04Z</time></trkpt><trkpt lat="42.742944450895756" lon="11.68494867394023"><ele>822.8000000000001</ele><time>2026-04-12T10:20:06Z</time></trkpt><trkpt lat="42.742919437161135" lon="11.684838923094798"><ele>824.0</ele><time>2026-04-12T10:20:08Z</time></trkpt><trkpt lat="42.74289669322417" lon="11.684714887870092"><ele>824.0000000000001</ele><time>2026-04-12T10:20:10Z</time></trkpt><trkpt lat="42.74284902818845" lon="11.68461393510713"><ele>824.0</ele><time>2026-04-12T10:20:12Z</time></trkpt><trkpt lat="42.74278203898049" lon="11.684631635491291"><ele>824.0</ele><time>2026-04-12T10:20:13Z</time></trkpt><trkpt lat="42.74269926329266" lon="11.684590163471434"><ele>824.0</ele><time>2026-04-12T10:20:15Z</time></trkpt><trkpt lat="42.74263757218649" lon="11.684726644515452"><ele>824.0000000000001</ele><time>2026-04-12T10:20:17Z</time></trkpt><trkpt lat="42.74260685556273" lon="11.684644778882555"><ele>824.0</ele><time>2026-04-12T10:22:45Z</time></trkpt><trkpt lat="42.74258503787622" lon="11.684729344781065"><ele>823.5714285714286</ele><time>2026-04-12T10:23:33Z</time></trkpt><trkpt lat="42.74251972172466" lon="11.684699870642374"><ele>823.1428571428571</ele><time>2026-04-12T10:23:42Z</time></trkpt><trkpt lat="42.742485781709505" lon="11.68462160517384"><ele>822.7142857142858</ele><time>2026-04-12T10:25:21Z</time></trkpt><trkpt lat="42.74255408476866" lon="11.684665625311904"><ele>822.2857142857142</ele><time>2026-04-12T11:31:20Z</time></trkpt><trkpt lat="42.74261802665585" lon="11.684605474123599"><ele>821.8571428571429</ele><time>2026-04-12T11:31:45Z</time></trkpt><trkpt lat="42.74269524826008" lon="11.684604794842421"><ele>821.4285714285714</ele><time>2026-04-12T11:37:21Z</time></trkpt><trkpt lat="42.74268639176376" lon="11.68449207120542"><ele>821.0</ele><time>2026-04-12T11:37:25Z</time></trkpt><trkpt lat="42.742616660349476" lon="11.684424510945565"><ele>821.0</ele><time>2026-04-12T11:37:37Z</time></trkpt><trkpt lat="42.74254580181146" lon="11.684343711179284"><ele>821.0</ele><time>2026-04-12T11:37:39Z</time></trkpt><trkpt lat="42.74248692201716" lon="11.684302971466998"><ele>821.0</ele><time>2026-04-12T11:37:40Z</time></trkpt><trkpt lat="42.74238446266821" lon="11.684282812623326"><ele>821.0</ele><time>2026-04-12T11:37:42Z</time></trkpt><trkpt lat="42.74229473577533" lon="11.684314741159817"><ele>821.0</ele><time>2026-04-12T11:37:44Z</time></trkpt><trkpt lat="42.74221168542473" lon="11.684379812097337"><ele>820.5999999999999</ele><time>2026-04-12T11:37:46Z</time></trkpt><trkpt lat="42.74214277575196" lon="11.684492312488812"><ele>820.2</ele><time>2026-04-12T11:37:48Z</time></trkpt><trkpt lat="42.7420833479098" lon="11.68460927055611"><ele>819.8</ele><time>2026-04-12T11:37:50Z</time></trkpt><trkpt lat="42.74201721356892" lon="11.68475827183203"><ele>819.4000000000001</ele><time>2026-04-12T11:37:52Z</time></trkpt><trkpt lat="42.74198700884498" lon="11.684843121735438"><ele>819.0</ele><time>2026-04-12T11:37:53Z</time></trkpt><trkpt lat="42.741958500840866" lon="11.684931108129682"><ele>819.0</ele><time>2026-04-12T11:37:54Z</time></trkpt><trkpt lat="42.74188225468891" lon="11.685077378392402"><ele>819.0</ele><time>2026-04-12T11:37:56Z</time></trkpt><trkpt lat="42.74182458703822" lon="11.685132401727246"><ele>819.0</ele><time>2026-04-12T11:37:57Z</time></trkpt><trkpt lat="42.74176375785359" lon="11.685170344511132"><ele>819.0</ele><time>2026-04-12T11:37:58Z</time></trkpt><trkpt lat="42.74169121341242" lon="11.685199353211601"><ele>819.0</ele><time>2026-04-12T11:37:59Z</time></trkpt><trkpt lat="42.74160468706771" lon="11.685215917991192"><ele>819.0</ele><time>2026-04-12T11:38:00Z</time></trkpt><trkpt lat="42.74150471024139" lon="11.685233647736855"><ele>821.5</ele><time>2026-04-12T11:38:01Z</time></trkpt><trkpt lat="42.74141692945009" lon="11.68524997805548"><ele>824.0</ele><time>2026-04-12T11:38:02Z</time></trkpt><trkpt lat="42.74133274110364" lon="11.68524593659113"><ele>826.5</ele><time>2026-04-12T11:38:03Z</time></trkpt><trkpt lat="42.74125153373211" lon="11.68522101694233"><ele>829.0</ele><time>2026-04-12T11:38:04Z</time></trkpt><trkpt lat="42.741174970050565" lon="11.685181019100247"><ele>831.5</ele><time>2026-04-12T11:38:05Z</time></trkpt><trkpt lat="42.741102442609936" lon="11.685150789995307"><ele>834.0</ele><time>2026-04-12T11:38:06Z</time></trkpt><trkpt lat="42.74103838429869" lon="11.685139225585084"><ele>835.5</ele><time>2026-04-12T11:38:07Z</time></trkpt><trkpt lat="42.7409150249221" lon="11.685101605117966"><ele>837.0</ele><time>2026-04-12T11:38:09Z</time></trkpt><trkpt lat="42.740848410978515" lon="11.685063894097407"><ele>838.5</ele><time>2026-04-12T11:38:10Z</time></trkpt><trkpt lat="42.740775739056225" lon="11.685042695395058"><ele>840.0</ele><time>2026-04-12T11:38:11.001Z</time></trkpt><trkpt lat="42.74070673123333" lon="11.685033567573383"><ele>841.5</ele><time>2026-04-12T11:38:12.001Z</time></trkpt><trkpt lat="42.740643754206005" lon="11.685026963349069"><ele>843.0</ele><time>2026-04-12T11:38:13.001Z</time></trkpt><trkpt lat="42.74053079368185" lon="11.685022858464796"><ele>843.0</ele><time>2026-04-12T11:38:15.001Z</time></trkpt><trkpt lat="42.74046354228177" lon="11.685023834606422"><ele>843.0</ele><time>2026-04-12T11:38:17.001Z</time></trkpt><trkpt lat="42.74037638116626" lon="11.685031163189205"><ele>843.0</ele><time>2026-04-12T11:38:19.001Z</time></trkpt><trkpt lat="42.740283602279746" lon="11.685029910946596"><ele>843.0</ele><time>2026-04-12T11:38:21.001Z</time></trkpt><trkpt lat="42.74019875955121" lon="11.685033984753312"><ele>843.0</ele><time>2026-04-12T11:38:23.001Z</time></trkpt><trkpt lat="42.7401150033915" lon="11.685039698472302"><ele>843.0</ele><time>2026-04-12T11:38:25.001Z</time></trkpt><trkpt lat="42.74003466473505" lon="11.685049202299641"><ele>843.8333333333334</ele><time>2026-04-12T11:38:27.001Z</time></trkpt><trkpt lat="42.739954108037296" lon="11.685065787285232"><ele>844.6666666666667</ele><time>2026-04-12T11:38:29.001Z</time></trkpt><trkpt lat="42.739870146103854" lon="11.685069289107664"><ele>845.5</ele><time>2026-04-12T11:38:31.001Z</time></trkpt><trkpt lat="42.73979018956873" lon="11.685074054774294"><ele>846.3333333333334</ele><time>2026-04-12T11:38:33.001Z</time></trkpt><trkpt lat="42.739698126955574" lon="11.685074484401545"><ele>847.1666666666667</ele><time>2026-04-12T11:38:35.001Z</time></trkpt><trkpt lat="42.739605151888334" lon="11.685107063350257"><ele>848.0</ele><time>2026-04-12T11:38:37.001Z</time></trkpt><trkpt lat="42.73950159661945" lon="11.685174670234996"><ele>848.0</ele><time>2026-04-12T11:38:39.001Z</time></trkpt><trkpt lat="42.73943796421085" lon="11.685214985644318"><ele>848.0</ele><time>2026-04-12T11:38:40.001Z</time></trkpt><trkpt lat="42.73932418895925" lon="11.685298837236566"><ele>848.0</ele><time>2026-04-12T11:38:42.001Z</time></trkpt><trkpt lat="42.739266619444216" lon="11.685354451197506"><ele>848.0</ele><time>2026-04-12T11:38:43.001Z</time></trkpt><trkpt lat="42.739177927930434" lon="11.685441589136998"><ele>848.0</ele><time>2026-04-12T11:38:45.001Z</time></trkpt><trkpt lat="42.73910326435136" lon="11.685508720386558"><ele>850.4</ele><time>2026-04-12T11:38:47.001Z</time></trkpt><trkpt lat="42.739043079783336" lon="11.68557321971881"><ele>852.8</ele><time>2026-04-12T11:38:48.001Z</time></trkpt><trkpt lat="42.738965374637175" lon="11.685654542684366"><ele>855.2</ele><time>2026-04-12T11:38:49.001Z</time></trkpt><trkpt lat="42.73887960691874" lon="11.685729333233295"><ele>857.6</ele><time>2026-04-12T11:38:50.001Z</time></trkpt><trkpt lat="42.738786146820296" lon="11.685801230048897"><ele>860.0</ele><time>2026-04-12T11:38:51.001Z</time></trkpt><trkpt lat="42.73870216639408" lon="11.685846878497086"><ele>860.0000000000001</ele><time>2026-04-12T11:38:52.001Z</time></trkpt><trkpt lat="42.73861993443381" lon="11.685852365600699"><ele>860.0</ele><time>2026-04-12T11:38:53.001Z</time></trkpt><trkpt lat="42.73854271151797" lon="11.685846764160654"><ele>860.0</ele><time>2026-04-12T11:38:54.001Z</time></trkpt><trkpt lat="42.73847572220906" lon="11.685810444462312"><ele>860.0</ele><time>2026-04-12T11:38:55.001Z</time></trkpt><trkpt lat="42.73840913249047" lon="11.685773557144364"><ele>860.0000000000001</ele><time>2026-04-12T11:38:56.001Z</time></trkpt><trkpt lat="42.738334401947235" lon="11.68572174140149"><ele>860.0</ele><time>2026-04-12T11:38:57.001Z</time></trkpt><trkpt lat="42.73826029085729" lon="11.685674818398452"><ele>860.5000000000001</ele><time>2026-04-12T11:38:58.001Z</time></trkpt><trkpt lat="42.73818871746575" lon="11.685635450089277"><ele>861.0</ele><time>2026-04-12T11:38:58.999Z</time></trkpt><trkpt lat="42.738121734113676" lon="11.68560978253166"><ele>861.5</ele><time>2026-04-12T11:38:59.999Z</time></trkpt><trkpt lat="42.738059485389925" lon="11.685585269860676"><ele>862.0</ele><time>2026-04-12T11:39:00.999Z</time></trkpt><trkpt lat="42.737991085662465" lon="11.685552262691875"><ele>862.5000000000001</ele><time>2026-04-12T11:39:01.999Z</time></trkpt><trkpt lat="42.7379026399971" lon="11.685523750241288"><ele>863.0</ele><time>2026-04-12T11:39:02.999Z</time></trkpt><trkpt lat="42.73781156163028" lon="11.68551078675905"><ele>863.0000000000001</ele><time>2026-04-12T11:39:03.999Z</time></trkpt><trkpt lat="42.73772541372429" lon="11.685485454309484"><ele>863.0</ele><time>2026-04-12T11:39:04.999Z</time></trkpt><trkpt lat="42.737646385917984" lon="11.685425925207047"><ele>863.0</ele><time>2026-04-12T11:39:05.999Z</time></trkpt><trkpt lat="42.73759399021859" lon="11.685334674753362"><ele>863.0</ele><time>2026-04-12T11:39:06.999Z</time></trkpt><trkpt lat="42.73754800561395" lon="11.685239107148648"><ele>863.0000000000001</ele><time>2026-04-12T11:39:07.999Z</time></trkpt><trkpt lat="42.73751071824398" lon="11.685123816537716"><ele>863.0</ele><time>2026-04-12T11:39:08.999Z</time></trkpt><trkpt lat="42.7374632851213" lon="11.68498999752032"><ele>864.2</ele><time>2026-04-12T11:39:09.999Z</time></trkpt><trkpt lat="42.73741741721643" lon="11.684873889356464"><ele>865.4</ele><time>2026-04-12T11:39:10.999Z</time></trkpt><trkpt lat="42.73736575106955" lon="11.684797588478997"><ele>866.6000000000001</ele><time>2026-04-12T11:39:11.999Z</time></trkpt><trkpt lat="42.737295126628155" lon="11.684722121903631"><ele>867.8000000000001</ele><time>2026-04-12T11:39:12.999Z</time></trkpt><trkpt lat="42.73721994359621" lon="11.684606398438762"><ele>869.0</ele><time>2026-04-12T11:39:13.999Z</time></trkpt><trkpt lat="42.73714453060347" lon="11.684484829774274"><ele>868.2</ele><time>2026-04-12T11:39:14.999Z</time></trkpt><trkpt lat="42.73707113758942" lon="11.68436608392739"><ele>867.4000000000001</ele><time>2026-04-12T11:39:15.999Z</time></trkpt><trkpt lat="42.73700479020014" lon="11.684242579301484"><ele>866.6</ele><time>2026-04-12T11:39:16.999Z</time></trkpt><trkpt lat="42.7369530057005" lon="11.684135334716421"><ele>865.8</ele><time>2026-04-12T11:39:17.999Z</time></trkpt><trkpt lat="42.736888105320666" lon="11.684041838610579"><ele>865.0</ele><time>2026-04-12T11:39:18.999Z</time></trkpt><trkpt lat="42.73681853260502" lon="11.683936020730108"><ele>865.0</ele><time>2026-04-12T11:39:19.999Z</time></trkpt><trkpt lat="42.736725531774965" lon="11.683808392641474"><ele>865.0</ele><time>2026-04-12T11:39:20.999Z</time></trkpt><trkpt lat="42.73664142012192" lon="11.683648758273577"><ele>865.0</ele><time>2026-04-12T11:39:21.999Z</time></trkpt><trkpt lat="42.73656169051932" lon="11.683467504873885"><ele>865.0</ele><time>2026-04-12T11:39:22.999Z</time></trkpt><trkpt lat="42.73649387607516" lon="11.683283901998717"><ele>865.3333333333333</ele><time>2026-04-12T11:39:23.999Z</time></trkpt><trkpt lat="42.73645182997995" lon="11.683128506613887"><ele>865.6666666666666</ele><time>2026-04-12T11:39:24.999Z</time></trkpt><trkpt lat="42.73642055015133" lon="11.683012335564174"><ele>866.0</ele><time>2026-04-12T11:39:25.999Z</time></trkpt><trkpt lat="42.736397406591315" lon="11.682898858537433"><ele>866.3333333333333</ele><time>2026-04-12T11:39:26.999Z</time></trkpt><trkpt lat="42.73639013185185" lon="11.682803334013016"><ele>866.6666666666666</ele><time>2026-04-12T11:39:27.999Z</time></trkpt><trkpt lat="42.73639669293858" lon="11.682707312493683"><ele>867.0</ele><time>2026-04-12T11:39:28.999Z</time></trkpt><trkpt lat="42.73644289244992" lon="11.682605835345788"><ele>868.4000000000001</ele><time>2026-04-12T11:39:29.999Z</time></trkpt><trkpt lat="42.736502579210025" lon="11.682503349855669"><ele>869.8000000000001</ele><time>2026-04-12T11:39:31Z</time></trkpt><trkpt lat="42.736576852996635" lon="11.682392176338407"><ele>871.2</ele><time>2026-04-12T11:39:32Z</time></trkpt><trkpt lat="42.736648718245526" lon="11.682275900769291"><ele>872.6</ele><time>2026-04-12T11:39:33Z</time></trkpt><trkpt lat="42.73670280682602" lon="11.682153689659474"><ele>874.0</ele><time>2026-04-12T11:39:34Z</time></trkpt><trkpt lat="42.73675396512195" lon="11.682007562981058"><ele>875.4000000000001</ele><time>2026-04-12T11:39:35Z</time></trkpt><trkpt lat="42.73679666391077" lon="11.681863606497402"><ele>876.8000000000001</ele><time>2026-04-12T11:39:36Z</time></trkpt><trkpt lat="42.73685503243343" lon="11.681728839103545"><ele>878.1999999999999</ele><time>2026-04-12T11:39:37Z</time></trkpt><trkpt lat="42.73690608325221" lon="11.681612323003206"><ele>879.5999999999999</ele><time>2026-04-12T11:39:38Z</time></trkpt><trkpt lat="42.736960366412696" lon="11.68148818431568"><ele>881.0</ele><time>2026-04-12T11:39:39Z</time></trkpt><trkpt lat="42.737001943974924" lon="11.681369008389327"><ele>878.0000000000001</ele><time>2026-04-12T11:39:40Z</time></trkpt><trkpt lat="42.73704333157863" lon="11.681226460745556"><ele>875.0</ele><time>2026-04-12T11:39:41Z</time></trkpt><trkpt lat="42.737068803615216" lon="11.681093560012055"><ele>872.0</ele><time>2026-04-12T11:39:42Z</time></trkpt><trkpt lat="42.73708215101219" lon="11.68098826979944"><ele>869.0</ele><time>2026-04-12T11:39:43Z</time></trkpt><trkpt lat="42.73708710190704" lon="11.680889911614562"><ele>866.0000000000001</ele><time>2026-04-12T11:39:44Z</time></trkpt><trkpt lat="42.737073698911225" lon="11.680790164696727"><ele>863.0</ele><time>2026-04-12T11:39:45Z</time></trkpt><trkpt lat="42.737034671823984" lon="11.68067493220142"><ele>863.0</ele><time>2026-04-12T11:39:46Z</time></trkpt><trkpt lat="42.73698260599685" lon="11.68056425452416"><ele>863.0</ele><time>2026-04-12T11:39:47Z</time></trkpt><trkpt lat="42.73693517581338" lon="11.680458664666729"><ele>863.0</ele><time>2026-04-12T11:39:48Z</time></trkpt><trkpt lat="42.73689838681385" lon="11.680349834170096"><ele>863.0</ele><time>2026-04-12T11:39:49Z</time></trkpt><trkpt lat="42.736878264619136" lon="11.680219973790456"><ele>863.0</ele><time>2026-04-12T11:39:50Z</time></trkpt><trkpt lat="42.73688644379731" lon="11.680082977591962"><ele>863.5999999999999</ele><time>2026-04-12T11:39:51Z</time></trkpt><trkpt lat="42.73691583149539" lon="11.679953427316946"><ele>864.1999999999999</ele><time>2026-04-12T11:39:52Z</time></trkpt><trkpt lat="42.736968075616964" lon="11.679825195032912"><ele>864.8</ele><time>2026-04-12T11:39:53Z</time></trkpt><trkpt lat="42.7370277735481" lon="11.679703785561928"><ele>865.4</ele><time>2026-04-12T11:39:54Z</time></trkpt><trkpt lat="42.737082987627254" lon="11.67959575097076"><ele>866.0</ele><time>2026-04-12T11:39:55Z</time></trkpt><trkpt lat="42.73713191410895" lon="11.679464213872013"><ele>866.0</ele><time>2026-04-12T11:39:56Z</time></trkpt><trkpt lat="42.73718459392237" lon="11.679344725247542"><ele>866.0</ele><time>2026-04-12T11:39:57Z</time></trkpt><trkpt lat="42.73723068095337" lon="11.679210598160545"><ele>866.0</ele><time>2026-04-12T11:39:58Z</time></trkpt><trkpt lat="42.73728124718596" lon="11.67905990571792"><ele>866.0</ele><time>2026-04-12T11:39:59Z</time></trkpt><trkpt lat="42.73732969805396" lon="11.678902069635543"><ele>866.0</ele><time>2026-04-12T11:40:00Z</time></trkpt><trkpt lat="42.73737257107996" lon="11.678740233645122"><ele>866.0</ele><time>2026-04-12T11:40:01Z</time></trkpt><trkpt lat="42.73741334546779" lon="11.678585295233665"><ele>866.0</ele><time>2026-04-12T11:40:02Z</time></trkpt><trkpt lat="42.737437484055974" lon="11.678439459861625"><ele>866.0</ele><time>2026-04-12T11:40:03Z</time></trkpt><trkpt lat="42.73746325447682" lon="11.67828082508777"><ele>866.0</ele><time>2026-04-12T11:40:04Z</time></trkpt><trkpt lat="42.73748865421864" lon="11.678117901336902"><ele>866.0</ele><time>2026-04-12T11:40:05Z</time></trkpt><trkpt lat="42.737512954405865" lon="11.677949795816524"><ele>866.0</ele><time>2026-04-12T11:40:06Z</time></trkpt><trkpt lat="42.73750904994068" lon="11.677768375918133"><ele>866.0</ele><time>2026-04-12T11:40:07Z</time></trkpt><trkpt lat="42.737489418146765" lon="11.67760170352951"><ele>868.4</ele><time>2026-04-12T11:40:08Z</time></trkpt><trkpt lat="42.737468502728525" lon="11.67745951901331"><ele>870.8</ele><time>2026-04-12T11:40:09Z</time></trkpt><trkpt lat="42.737439401881964" lon="11.677325152089985"><ele>873.1999999999999</ele><time>2026-04-12T11:40:10Z</time></trkpt><trkpt lat="42.73742408877358" lon="11.677187091755046"><ele>875.5999999999999</ele><time>2026-04-12T11:40:11Z</time></trkpt><trkpt lat="42.73743178250713" lon="11.67706388333192"><ele>878.0</ele><time>2026-04-12T11:40:12Z</time></trkpt><trkpt lat="42.73745221806229" lon="11.676942607229329"><ele>879.5999999999999</ele><time>2026-04-12T11:40:13Z</time></trkpt><trkpt lat="42.73747392406542" lon="11.676799329228286"><ele>881.1999999999999</ele><time>2026-04-12T11:40:14Z</time></trkpt><trkpt lat="42.73748988333385" lon="11.676660138505706"><ele>882.8</ele><time>2026-04-12T11:40:15Z</time></trkpt><trkpt lat="42.73749611619164" lon="11.676520175678869"><ele>884.4</ele><time>2026-04-12T11:40:16Z</time></trkpt><trkpt lat="42.73749988444836" lon="11.676361817938258"><ele>886.0</ele><time>2026-04-12T11:40:17Z</time></trkpt><trkpt lat="42.737520964844514" lon="11.676210658335577"><ele>886.75</ele><time>2026-04-12T11:40:18Z</time></trkpt><trkpt lat="42.73757061722182" lon="11.67604555464306"><ele>887.5</ele><time>2026-04-12T11:40:19Z</time></trkpt><trkpt lat="42.737644675544715" lon="11.675903728949677"><ele>888.25</ele><time>2026-04-12T11:40:20Z</time></trkpt><trkpt lat="42.73770373362756" lon="11.675776971259364"><ele>889.0</ele><time>2026-04-12T11:40:21Z</time></trkpt><trkpt lat="42.73777643098535" lon="11.675663884465681"><ele>884.4000000000001</ele><time>2026-04-12T11:40:22Z</time></trkpt><trkpt lat="42.737826758625275" lon="11.675549970949517"><ele>879.8000000000001</ele><time>2026-04-12T11:40:23Z</time></trkpt><trkpt lat="42.73785640078928" lon="11.675440201765053"><ele>875.1999999999999</ele><time>2026-04-12T11:40:24Z</time></trkpt><trkpt lat="42.73785891198233" lon="11.67532705830845"><ele>870.5999999999999</ele><time>2026-04-12T11:40:25Z</time></trkpt><trkpt lat="42.737845170463274" lon="11.675189925900234"><ele>866.0</ele><time>2026-04-12T11:40:26Z</time></trkpt><trkpt lat="42.73782470666708" lon="11.675035007606816"><ele>866.0</ele><time>2026-04-12T11:40:27Z</time></trkpt><trkpt lat="42.73779657699433" lon="11.674878697544969"><ele>865.9999999999999</ele><time>2026-04-12T11:40:28Z</time></trkpt><trkpt lat="42.73776482628127" lon="11.674740709684968"><ele>865.9999999999999</ele><time>2026-04-12T11:40:29Z</time></trkpt><trkpt lat="42.73771003639842" lon="11.674640871215482"><ele>866.0</ele><time>2026-04-12T11:40:30Z</time></trkpt><trkpt lat="42.73765573127332" lon="11.674556751232675"><ele>866.0</ele><time>2026-04-12T11:40:31Z</time></trkpt><trkpt lat="42.73758296300163" lon="11.674482874441953"><ele>871.75</ele><time>2026-04-12T11:40:32.001Z</time></trkpt><trkpt lat="42.73748573174431" lon="11.674402050226922"><ele>877.5</ele><time>2026-04-12T11:40:33.001Z</time></trkpt><trkpt lat="42.737388525371166" lon="11.674310596383872"><ele>883.25</ele><time>2026-04-12T11:40:34.001Z</time></trkpt><trkpt lat="42.73730705228452" lon="11.674195579104227"><ele>889.0</ele><time>2026-04-12T11:40:35.001Z</time></trkpt><trkpt lat="42.73725296643162" lon="11.674048553762146"><ele>889.0</ele><time>2026-04-12T11:40:36.001Z</time></trkpt><trkpt lat="42.73719353262702" lon="11.673896653241403"><ele>889.0</ele><time>2026-04-12T11:40:37.001Z</time></trkpt><trkpt lat="42.737118149716224" lon="11.673741733570099"><ele>889.0</ele><time>2026-04-12T11:40:38.001Z</time></trkpt><trkpt lat="42.737056910821885" lon="11.673578122291081"><ele>889.0</ele><time>2026-04-12T11:40:39.001Z</time></trkpt><trkpt lat="42.737008505341564" lon="11.673417949089007"><ele>888.6</ele><time>2026-04-12T11:40:40.001Z</time></trkpt><trkpt lat="42.73700249526293" lon="11.673255738670434"><ele>888.2</ele><time>2026-04-12T11:40:41.001Z</time></trkpt><trkpt lat="42.73699127217105" lon="11.673131860652378"><ele>887.8000000000001</ele><time>2026-04-12T11:40:42.001Z</time></trkpt><trkpt lat="42.736951757354674" lon="11.673036164818116"><ele>887.4000000000001</ele><time>2026-04-12T11:40:43.001Z</time></trkpt><trkpt lat="42.73688160121274" lon="11.672925138861222"><ele>887.0</ele><time>2026-04-12T11:40:44.001Z</time></trkpt><trkpt lat="42.7367839439329" lon="11.672828848789258"><ele>887.25</ele><time>2026-04-12T11:40:45.001Z</time></trkpt><trkpt lat="42.73668949107994" lon="11.672704621852363"><ele>887.5</ele><time>2026-04-12T11:40:46.001Z</time></trkpt><trkpt lat="42.73658663627885" lon="11.672549470269786"><ele>887.75</ele><time>2026-04-12T11:40:47.001Z</time></trkpt><trkpt lat="42.73649273551913" lon="11.672445606064585"><ele>888.0</ele><time>2026-04-12T11:40:48.001Z</time></trkpt><trkpt lat="42.736393815367634" lon="11.672370234675384"><ele>888.0</ele><time>2026-04-12T11:40:49.001Z</time></trkpt><trkpt lat="42.73630567294491" lon="11.672301606955294"><ele>888.0</ele><time>2026-04-12T11:40:50.001Z</time></trkpt><trkpt lat="42.73620977510734" lon="11.672258723972122"><ele>888.0</ele><time>2026-04-12T11:40:51.001Z</time></trkpt><trkpt lat="42.73611456999288" lon="11.672221778113283"><ele>888.0</ele><time>2026-04-12T11:40:52.001Z</time></trkpt><trkpt lat="42.736027083978215" lon="11.67217996069408"><ele>888.0</ele><time>2026-04-12T11:40:53.001Z</time></trkpt><trkpt lat="42.7359536586252" lon="11.67210102488855"><ele>889.0</ele><time>2026-04-12T11:40:54.001Z</time></trkpt><trkpt lat="42.7358841226479" lon="11.671994162249797"><ele>890.0</ele><time>2026-04-12T11:40:55.001Z</time></trkpt><trkpt lat="42.73582242893217" lon="11.671863413441363"><ele>891.0</ele><time>2026-04-12T11:40:56.001Z</time></trkpt><trkpt lat="42.735749876185515" lon="11.671751635990628"><ele>892.0</ele><time>2026-04-12T11:40:57.001Z</time></trkpt><trkpt lat="42.735654633284156" lon="11.671691159453147"><ele>893.0</ele><time>2026-04-12T11:40:58.001Z</time></trkpt><trkpt lat="42.73553465771518" lon="11.671663750276673"><ele>890.8</ele><time>2026-04-12T11:40:59.001Z</time></trkpt><trkpt lat="42.73540158620683" lon="11.671626261421324"><ele>888.5999999999999</ele><time>2026-04-12T11:41:00.001Z</time></trkpt><trkpt lat="42.73529703104935" lon="11.671595610376414"><ele>886.4000000000001</ele><time>2026-04-12T11:41:01.001Z</time></trkpt><trkpt lat="42.73521187927855" lon="11.67156283943068"><ele>884.2</ele><time>2026-04-12T11:41:02.001Z</time></trkpt><trkpt lat="42.73513599788484" lon="11.671526703244355"><ele>882.0</ele><time>2026-04-12T11:41:03.001Z</time></trkpt><trkpt lat="42.73506960138247" lon="11.671481971383322"><ele>882.1428571428571</ele><time>2026-04-12T11:41:04.001Z</time></trkpt><trkpt lat="42.73501943118181" lon="11.671412860074081"><ele>882.2857142857142</ele><time>2026-04-12T11:41:04.998Z</time></trkpt><trkpt lat="42.73498818467732" lon="11.671316880002632"><ele>882.4285714285714</ele><time>2026-04-12T11:41:05.998Z</time></trkpt><trkpt lat="42.734989239437745" lon="11.671216717389559"><ele>882.5714285714286</ele><time>2026-04-12T11:41:06.998Z</time></trkpt><trkpt lat="42.73501178956559" lon="11.671126710707863"><ele>882.7142857142857</ele><time>2026-04-12T11:41:07.998Z</time></trkpt><trkpt lat="42.73505607046222" lon="11.671053740395534"><ele>882.8571428571429</ele><time>2026-04-12T11:41:08.998Z</time></trkpt><trkpt lat="42.73511506989794" lon="11.671001621701162"><ele>883.0</ele><time>2026-04-12T11:41:09.998Z</time></trkpt><trkpt lat="42.7351885295781" lon="11.670965395372162"><ele>884.0</ele><time>2026-04-12T11:41:10.998Z</time></trkpt><trkpt lat="42.735260828876704" lon="11.670936760232301"><ele>885.0</ele><time>2026-04-12T11:41:11.998Z</time></trkpt><trkpt lat="42.735332565444416" lon="11.670910456363393"><ele>886.0</ele><time>2026-04-12T11:41:12.998Z</time></trkpt><trkpt lat="42.73541700259823" lon="11.670870713136287"><ele>887.0</ele><time>2026-04-12T11:41:13.998Z</time></trkpt><trkpt lat="42.735525523602334" lon="11.67083495735504"><ele>888.0</ele><time>2026-04-12T11:41:14.998Z</time></trkpt><trkpt lat="42.73564830642021" lon="11.670819355819258"><ele>888.0</ele><time>2026-04-12T11:41:15.998Z</time></trkpt><trkpt lat="42.735760367529544" lon="11.670817448557315"><ele>888.0</ele><time>2026-04-12T11:41:16.998Z</time></trkpt><trkpt lat="42.735860158841916" lon="11.670817506287277"><ele>888.0</ele><time>2026-04-12T11:41:17.998Z</time></trkpt><trkpt lat="42.735957221205815" lon="11.67082454204435"><ele>888.0</ele><time>2026-04-12T11:41:18.998Z</time></trkpt><trkpt lat="42.73605356686722" lon="11.670836946850558"><ele>888.0</ele><time>2026-04-12T11:41:19.998Z</time></trkpt><trkpt lat="42.73614559363446" lon="11.67084989258142"><ele>889.8</ele><time>2026-04-12T11:41:20.998Z</time></trkpt><trkpt lat="42.73623419663465" lon="11.670864570887725"><ele>891.5999999999999</ele><time>2026-04-12T11:41:21.999Z</time></trkpt><trkpt lat="42.73634720829913" lon="11.670861185272328"><ele>893.4000000000001</ele><time>2026-04-12T11:41:22.999Z</time></trkpt><trkpt lat="42.73642357442923" lon="11.670864180752089"><ele>895.2</ele><time>2026-04-12T11:41:23.999Z</time></trkpt><trkpt lat="42.736510874505115" lon="11.670875387403006"><ele>897.0</ele><time>2026-04-12T11:41:24.999Z</time></trkpt><trkpt lat="42.736602759340805" lon="11.670864887657801"><ele>897.0</ele><time>2026-04-12T11:41:25.999Z</time></trkpt><trkpt lat="42.73669431272841" lon="11.670845071993044"><ele>897.0</ele><time>2026-04-12T11:41:26.999Z</time></trkpt><trkpt lat="42.73679613076697" lon="11.670824078100438"><ele>897.0</ele><time>2026-04-12T11:41:27.999Z</time></trkpt><trkpt lat="42.73688486103587" lon="11.670786669020568"><ele>897.0</ele><time>2026-04-12T11:41:28.999Z</time></trkpt><trkpt lat="42.73697440474141" lon="11.670739437162338"><ele>897.0</ele><time>2026-04-12T11:41:29.999Z</time></trkpt><trkpt lat="42.73703047329969" lon="11.670690021294206"><ele>896.4000000000001</ele><time>2026-04-12T11:41:30.999Z</time></trkpt><trkpt lat="42.73711586887526" lon="11.67056188427113"><ele>895.8000000000001</ele><time>2026-04-12T11:41:32.999Z</time></trkpt><trkpt lat="42.7371646229034" lon="11.670421897430865"><ele>895.2</ele><time>2026-04-12T11:41:34.999Z</time></trkpt><trkpt lat="42.73718360318029" lon="11.670312359139565"><ele>894.6</ele><time>2026-04-12T11:41:36.999Z</time></trkpt><trkpt lat="42.737206166039435" lon="11.670190114136233"><ele>894.0</ele><time>2026-04-12T11:42:30.001Z</time></trkpt><trkpt lat="42.73725371475621" lon="11.670124000587586"><ele>895.0</ele><time>2026-04-12T11:42:32.001Z</time></trkpt><trkpt lat="42.73731163309524" lon="11.669987375565585"><ele>896.0</ele><time>2026-04-12T11:42:34.001Z</time></trkpt><trkpt lat="42.7373285312677" lon="11.669890032551299"><ele>897.0</ele><time>2026-04-12T11:42:35.001Z</time></trkpt><trkpt lat="42.73733830053079" lon="11.669785552188841"><ele>898.0</ele><time>2026-04-12T11:42:36.001Z</time></trkpt><trkpt lat="42.73734918832913" lon="11.669664590244418"><ele>899.0</ele><time>2026-04-12T11:42:37.001Z</time></trkpt><trkpt lat="42.73737969206419" lon="11.669551231209542"><ele>900.0</ele><time>2026-04-12T11:42:38.001Z</time></trkpt><trkpt lat="42.73743625504289" lon="11.669464029467273"><ele>901.4</ele><time>2026-04-12T11:42:39.001Z</time></trkpt><trkpt lat="42.73750891304909" lon="11.669374830013345"><ele>902.8</ele><time>2026-04-12T11:42:40.001Z</time></trkpt><trkpt lat="42.73760015683265" lon="11.669300762170689"><ele>904.2</ele><time>2026-04-12T11:42:41.001Z</time></trkpt><trkpt lat="42.73769417548521" lon="11.669230209476696"><ele>905.6</ele><time>2026-04-12T11:42:42.001Z</time></trkpt><trkpt lat="42.73775581320142" lon="11.66915297356265"><ele>907.0</ele><time>2026-04-12T11:42:43.001Z</time></trkpt><trkpt lat="42.73778948146258" lon="11.669050791242764"><ele>906.0</ele><time>2026-04-12T11:42:44.001Z</time></trkpt><trkpt lat="42.73779697110578" lon="11.668924301747218"><ele>905.0</ele><time>2026-04-12T11:42:45.001Z</time></trkpt><trkpt lat="42.737791509881546" lon="11.668774379942265"><ele>904.0</ele><time>2026-04-12T11:42:46.001Z</time></trkpt><trkpt lat="42.737789189548494" lon="11.668576780631046"><ele>903.0</ele><time>2026-04-12T11:42:47.001Z</time></trkpt><trkpt lat="42.737798511991926" lon="11.668418476260303"><ele>903.0</ele><time>2026-04-12T11:42:48.001Z</time></trkpt><trkpt lat="42.73782955385665" lon="11.668300554126075"><ele>903.0</ele><time>2026-04-12T11:42:49.001Z</time></trkpt><trkpt lat="42.737855539684226" lon="11.668166338937285"><ele>903.0</ele><time>2026-04-12T11:42:50.001Z</time></trkpt><trkpt lat="42.73788174790733" lon="11.66803153641329"><ele>903.0</ele><time>2026-04-12T11:42:51.001Z</time></trkpt><trkpt lat="42.73790355820878" lon="11.66791418132053"><ele>903.0</ele><time>2026-04-12T11:42:52.001Z</time></trkpt><trkpt lat="42.737941372222444" lon="11.667818046034157"><ele>903.8</ele><time>2026-04-12T11:42:53.001Z</time></trkpt><trkpt lat="42.737995519442116" lon="11.667741878294716"><ele>904.5999999999999</ele><time>2026-04-12T11:42:54.001Z</time></trkpt><trkpt lat="42.738074041238775" lon="11.667664579687777"><ele>905.4000000000001</ele><time>2026-04-12T11:42:55.001Z</time></trkpt><trkpt lat="42.73817037142956" lon="11.66760369368055"><ele>906.2</ele><time>2026-04-12T11:42:56.001Z</time></trkpt><trkpt lat="42.73829437504897" lon="11.667539863028546"><ele>907.0</ele><time>2026-04-12T11:42:57.001Z</time></trkpt><trkpt lat="42.73842185775622" lon="11.667507724121515"><ele>907.0</ele><time>2026-04-12T11:42:58.001Z</time></trkpt><trkpt lat="42.738544453682735" lon="11.667474611514026"><ele>907.0</ele><time>2026-04-12T11:42:59.001Z</time></trkpt><trkpt lat="42.73864977113345" lon="11.667451727472102"><ele>907.0</ele><time>2026-04-12T11:43:00.001Z</time></trkpt><trkpt lat="42.73875566217658" lon="11.667428689514177"><ele>907.0</ele><time>2026-04-12T11:43:01.001Z</time></trkpt><trkpt lat="42.73885559418805" lon="11.667402541345306"><ele>907.0</ele><time>2026-04-12T11:43:02.001Z</time></trkpt><trkpt lat="42.73896461405352" lon="11.66737120034511"><ele>907.0</ele><time>2026-04-12T11:43:03.001Z</time></trkpt><trkpt lat="42.739058641749615" lon="11.667329739013056"><ele>907.0</ele><time>2026-04-12T11:43:04.001Z</time></trkpt><trkpt lat="42.73915316162809" lon="11.667266799223418"><ele>907.0</ele><time>2026-04-12T11:43:05.001Z</time></trkpt><trkpt lat="42.73924571472584" lon="11.66721801256258"><ele>907.0</ele><time>2026-04-12T11:43:06.001Z</time></trkpt><trkpt lat="42.73933650559045" lon="11.66717478278682"><ele>907.0</ele><time>2026-04-12T11:43:07.001Z</time></trkpt><trkpt lat="42.739425481523" lon="11.667149215141771"><ele>907.0</ele><time>2026-04-12T11:43:08.001Z</time></trkpt><trkpt lat="42.73952038779856" lon="11.66715041191022"><ele>907.0</ele><time>2026-04-12T11:43:09.001Z</time></trkpt><trkpt lat="42.73961928611939" lon="11.667202427999287"><ele>907.0</ele><time>2026-04-12T11:43:10.001Z</time></trkpt><trkpt lat="42.73971038733103" lon="11.667266199819991"><ele>907.0</ele><time>2026-04-12T11:43:10.999Z</time></trkpt><trkpt lat="42.7397919157651" lon="11.667317752073247"><ele>907.0</ele><time>2026-04-12T11:43:11.999Z</time></trkpt><trkpt lat="42.73987914454249" lon="11.667354382883511"><ele>907.0</ele><time>2026-04-12T11:43:12.999Z</time></trkpt><trkpt lat="42.739967483743875" lon="11.66736051232146"><ele>907.0</ele><time>2026-04-12T11:43:13.999Z</time></trkpt><trkpt lat="42.74006429357005" lon="11.667333512626831"><ele>907.0</ele><time>2026-04-12T11:43:14.999Z</time></trkpt><trkpt lat="42.74017672366845" lon="11.667286768164821"><ele>907.0</ele><time>2026-04-12T11:43:15.999Z</time></trkpt><trkpt lat="42.74029778880502" lon="11.667231018129524"><ele>907.0</ele><time>2026-04-12T11:43:16.999Z</time></trkpt><trkpt lat="42.74042367129603" lon="11.667179393073358"><ele>906.6</ele><time>2026-04-12T11:43:17.999Z</time></trkpt><trkpt lat="42.740536578576396" lon="11.667128321171655"><ele>906.2</ele><time>2026-04-12T11:43:18.999Z</time></trkpt><trkpt lat="42.74063180432442" lon="11.667082802737694"><ele>905.8</ele><time>2026-04-12T11:43:19.999Z</time></trkpt><trkpt lat="42.74071274451564" lon="11.667021993351801"><ele>905.4</ele><time>2026-04-12T11:43:20.999Z</time></trkpt><trkpt lat="42.74078111466279" lon="11.66693400952157"><ele>905.0</ele><time>2026-04-12T11:43:21.999Z</time></trkpt><trkpt lat="42.74085422845818" lon="11.66682391877459"><ele>905.0</ele><time>2026-04-12T11:43:22.999Z</time></trkpt><trkpt lat="42.74091564717131" lon="11.666706060500745"><ele>905.0</ele><time>2026-04-12T11:43:23.999Z</time></trkpt><trkpt lat="42.74097554501543" lon="11.666577847800108"><ele>905.0</ele><time>2026-04-12T11:43:24.999Z</time></trkpt><trkpt lat="42.74104229760755" lon="11.666432400603318"><ele>905.0</ele><time>2026-04-12T11:43:25.999Z</time></trkpt><trkpt lat="42.7411076129048" lon="11.66629561451176"><ele>907.6</ele><time>2026-04-12T11:43:26.999Z</time></trkpt><trkpt lat="42.74117056579718" lon="11.666176223624827"><ele>910.2</ele><time>2026-04-12T11:43:27.999Z</time></trkpt><trkpt lat="42.741236737454" lon="11.666066890226533"><ele>912.8</ele><time>2026-04-12T11:43:28.999Z</time></trkpt><trkpt lat="42.74129179323774" lon="11.665964656725926"><ele>915.4</ele><time>2026-04-12T11:43:29.999Z</time></trkpt><trkpt lat="42.74135718181175" lon="11.66586041698778"><ele>918.0</ele><time>2026-04-12T11:43:30.999Z</time></trkpt><trkpt lat="42.741445537535775" lon="11.665759434252697"><ele>918.0</ele><time>2026-04-12T11:43:31.999Z</time></trkpt><trkpt lat="42.741538032324115" lon="11.66566903920645"><ele>918.0</ele><time>2026-04-12T11:43:32.999Z</time></trkpt><trkpt lat="42.74162254993501" lon="11.6655995715868"><ele>918.0</ele><time>2026-04-12T11:43:33.999Z</time></trkpt><trkpt lat="42.74170746626174" lon="11.665553024592992"><ele>918.0</ele><time>2026-04-12T11:43:34.999Z</time></trkpt><trkpt lat="42.741800204948795" lon="11.665521660115438"><ele>918.0</ele><time>2026-04-12T11:43:36Z</time></trkpt><trkpt lat="42.74190682900407" lon="11.665521456766493"><ele>920.25</ele><time>2026-04-12T11:43:37Z</time></trkpt><trkpt lat="42.741995929383094" lon="11.66551284196154"><ele>922.5</ele><time>2026-04-12T11:43:38Z</time></trkpt><trkpt lat="42.74211444209795" lon="11.665504680388192"><ele>924.75</ele><time>2026-04-12T11:43:39Z</time></trkpt><trkpt lat="42.74224234088855" lon="11.665498168042681"><ele>927.0</ele><time>2026-04-12T11:43:40Z</time></trkpt><trkpt lat="42.74237115070731" lon="11.665471973129417"><ele>927.0</ele><time>2026-04-12T11:43:41Z</time></trkpt><trkpt lat="42.74249624686426" lon="11.665422709331423"><ele>927.0</ele><time>2026-04-12T11:43:42Z</time></trkpt><trkpt lat="42.74260122485404" lon="11.66538505613792"><ele>927.0</ele><time>2026-04-12T11:43:43Z</time></trkpt><trkpt lat="42.74269843192345" lon="11.665332305600064"><ele>927.0</ele><time>2026-04-12T11:43:44Z</time></trkpt><trkpt lat="42.742802435487775" lon="11.665258259175495"><ele>926.0</ele><time>2026-04-12T11:43:45Z</time></trkpt><trkpt lat="42.742901168476806" lon="11.665169160122643"><ele>925.0</ele><time>2026-04-12T11:43:46Z</time></trkpt><trkpt lat="42.74299565616025" lon="11.665067863184325"><ele>924.0</ele><time>2026-04-12T11:43:47Z</time></trkpt><trkpt lat="42.743089959916446" lon="11.664977001282217"><ele>923.0</ele><time>2026-04-12T11:43:48Z</time></trkpt><trkpt lat="42.74318714645497" lon="11.664910918124075"><ele>923.0</ele><time>2026-04-12T11:43:49Z</time></trkpt><trkpt lat="42.74329177583892" lon="11.66485826540757"><ele>923.0</ele><time>2026-04-12T11:43:50Z</time></trkpt><trkpt lat="42.74341479048403" lon="11.664814570104625"><ele>923.0</ele><time>2026-04-12T11:43:51Z</time></trkpt><trkpt lat="42.74354852787338" lon="11.664755325387247"><ele>923.0</ele><time>2026-04-12T11:43:52Z</time></trkpt><trkpt lat="42.743680022078884" lon="11.664683800934725"><ele>922.0</ele><time>2026-04-12T11:43:53Z</time></trkpt><trkpt lat="42.74379125919193" lon="11.664626431644896"><ele>921.0</ele><time>2026-04-12T11:43:54Z</time></trkpt><trkpt lat="42.7438854553428" lon="11.66457934616742"><ele>920.0</ele><time>2026-04-12T11:43:55Z</time></trkpt><trkpt lat="42.74396443420483" lon="11.664534729588443"><ele>919.0</ele><time>2026-04-12T11:43:56Z</time></trkpt><trkpt lat="42.74403397064903" lon="11.664482136993911"><ele>918.0</ele><time>2026-04-12T11:43:57Z</time></trkpt><trkpt lat="42.74409905758085" lon="11.664354384400097"><ele>920.5</ele><time>2026-04-12T11:43:59Z</time></trkpt><trkpt lat="42.74407198127017" lon="11.664176742246786"><ele>923.0</ele><time>2026-04-12T11:44:01Z</time></trkpt><trkpt lat="42.744034118064725" lon="11.664055880580404"><ele>925.5</ele><time>2026-04-12T11:44:02Z</time></trkpt><trkpt lat="42.743997626805694" lon="11.663924038521223"><ele>928.0</ele><time>2026-04-12T11:44:03Z</time></trkpt><trkpt lat="42.74397429314857" lon="11.663767285543262"><ele>928.4</ele><time>2026-04-12T11:44:04Z</time></trkpt><trkpt lat="42.74397090705327" lon="11.663611263087367"><ele>928.8</ele><time>2026-04-12T11:44:05Z</time></trkpt><trkpt lat="42.74398185526699" lon="11.6634690296714"><ele>929.2</ele><time>2026-04-12T11:44:06Z</time></trkpt><trkpt lat="42.74402132298871" lon="11.663352145439227"><ele>929.6</ele><time>2026-04-12T11:44:07Z</time></trkpt><trkpt lat="42.74407189828043" lon="11.663237916494358"><ele>930.0</ele><time>2026-04-12T11:44:08Z</time></trkpt><trkpt lat="42.74415568369639" lon="11.663148516444505"><ele>930.0</ele><time>2026-04-12T11:44:09Z</time></trkpt><trkpt lat="42.74425184804349" lon="11.663081288257146"><ele>930.0</ele><time>2026-04-12T11:44:10.001Z</time></trkpt><trkpt lat="42.74435518175756" lon="11.663022461077048"><ele>930.0</ele><time>2026-04-12T11:44:11.001Z</time></trkpt><trkpt lat="42.74447557199305" lon="11.662958982883483"><ele>930.0</ele><time>2026-04-12T11:44:12.001Z</time></trkpt><trkpt lat="42.74460489586694" lon="11.662894732334323"><ele>930.6666666666666</ele><time>2026-04-12T11:44:13.001Z</time></trkpt><trkpt lat="42.74470718560138" lon="11.662848289781333"><ele>931.3333333333333</ele><time>2026-04-12T11:44:14.001Z</time></trkpt><trkpt lat="42.74478761228883" lon="11.66281751123722"><ele>932.0</ele><time>2026-04-12T11:44:15.001Z</time></trkpt><trkpt lat="42.74485168030646" lon="11.662790961610334"><ele>932.6666666666666</ele><time>2026-04-12T11:44:16.001Z</time></trkpt><trkpt lat="42.7449425260041" lon="11.66277405243239"><ele>933.3333333333333</ele><time>2026-04-12T11:44:18.001Z</time></trkpt><trkpt lat="42.74501207793405" lon="11.662833809646242"><ele>934.0</ele><time>2026-04-12T11:44:21.001Z</time></trkpt><trkpt lat="42.7450659759987" lon="11.662894528209954"><ele>934.0</ele><time>2026-04-12T11:44:23.001Z</time></trkpt><trkpt lat="42.74512475244557" lon="11.662982765125081"><ele>934.0000000000001</ele><time>2026-04-12T11:44:25.001Z</time></trkpt><trkpt lat="42.74519915875539" lon="11.663072300642284"><ele>934.0000000000001</ele><time>2026-04-12T11:44:27.001Z</time></trkpt><trkpt lat="42.74530056385274" lon="11.663197674349433"><ele>934.0</ele><time>2026-04-12T11:44:29.001Z</time></trkpt><trkpt lat="42.745371132224946" lon="11.663254365987719"><ele>934.0</ele><time>2026-04-12T11:44:30.001Z</time></trkpt><trkpt lat="42.74544610645025" lon="11.663324115200842"><ele>933.4000000000001</ele><time>2026-04-12T11:44:31.001Z</time></trkpt><trkpt lat="42.745542111733855" lon="11.663380591675756"><ele>932.8000000000001</ele><time>2026-04-12T11:44:32.001Z</time></trkpt><trkpt lat="42.74564867258948" lon="11.663434067689346"><ele>932.1999999999999</ele><time>2026-04-12T11:44:33.001Z</time></trkpt><trkpt lat="42.74576148959076" lon="11.663486298749325"><ele>931.5999999999999</ele><time>2026-04-12T11:44:34.001Z</time></trkpt><trkpt lat="42.74586985087179" lon="11.663512101743658"><ele>931.0</ele><time>2026-04-12T11:44:35.001Z</time></trkpt><trkpt lat="42.74596708050128" lon="11.663523367847723"><ele>931.75</ele><time>2026-04-12T11:44:36.001Z</time></trkpt><trkpt lat="42.74608321583739" lon="11.66354177401476"><ele>932.5</ele><time>2026-04-12T11:44:37.001Z</time></trkpt><trkpt lat="42.74619793767227" lon="11.663550228582274"><ele>933.25</ele><time>2026-04-12T11:44:38.001Z</time></trkpt><trkpt lat="42.746314235954024" lon="11.663547169858122"><ele>934.0</ele><time>2026-04-12T11:44:39.001Z</time></trkpt><trkpt lat="42.746450025270065" lon="11.663537249178006"><ele>934.0</ele><time>2026-04-12T11:44:40.001Z</time></trkpt><trkpt lat="42.74658421393617" lon="11.663520575481254"><ele>934.0</ele><time>2026-04-12T11:44:41.001Z</time></trkpt><trkpt lat="42.746729937669336" lon="11.663499617249528"><ele>934.0</ele><time>2026-04-12T11:44:42.001Z</time></trkpt><trkpt lat="42.746877222156044" lon="11.663486804876682"><ele>934.0</ele><time>2026-04-12T11:44:43.001Z</time></trkpt><trkpt lat="42.74700707201176" lon="11.66348097270226"><ele>933.8000000000001</ele><time>2026-04-12T11:44:44.001Z</time></trkpt><trkpt lat="42.74710996418" lon="11.663467362745829"><ele>933.6000000000001</ele><time>2026-04-12T11:44:45.001Z</time></trkpt><trkpt lat="42.747192096664776" lon="11.663464574507234"><ele>933.4</ele><time>2026-04-12T11:44:46.001Z</time></trkpt><trkpt lat="42.74729022031759" lon="11.663446656816145"><ele>933.2</ele><time>2026-04-12T11:44:47.001Z</time></trkpt><trkpt lat="42.74738199668365" lon="11.663431967481218"><ele>933.0</ele><time>2026-04-12T11:44:48.001Z</time></trkpt><trkpt lat="42.747473881612976" lon="11.663399656630789"><ele>933.0</ele><time>2026-04-12T11:44:49.001Z</time></trkpt><trkpt lat="42.74758113803044" lon="11.663349824353164"><ele>933.0</ele><time>2026-04-12T11:44:50.001Z</time></trkpt><trkpt lat="42.7476822397031" lon="11.66329141702381"><ele>933.0</ele><time>2026-04-12T11:44:51.001Z</time></trkpt><trkpt lat="42.74775537402268" lon="11.663213161057879"><ele>933.0</ele><time>2026-04-12T11:44:52.001Z</time></trkpt><trkpt lat="42.74784714621726" lon="11.663157427147226"><ele>933.0</ele><time>2026-04-12T11:44:53.002Z</time></trkpt><trkpt lat="42.74791028130082" lon="11.663103076592499"><ele>932.8333333333334</ele><time>2026-04-12T11:44:54.002Z</time></trkpt><trkpt lat="42.74796911281246" lon="11.663039185620793"><ele>932.6666666666667</ele><time>2026-04-12T11:44:55.002Z</time></trkpt><trkpt lat="42.748037690942326" lon="11.662931919681467"><ele>932.5</ele><time>2026-04-12T11:44:56.002Z</time></trkpt><trkpt lat="42.74810061544966" lon="11.6628281233053"><ele>932.3333333333334</ele><time>2026-04-12T11:44:57.002Z</time></trkpt><trkpt lat="42.748157906873104" lon="11.66275763316299"><ele>932.1666666666667</ele><time>2026-04-12T11:44:58.002Z</time></trkpt><trkpt lat="42.748218758547495" lon="11.662715020072415"><ele>932.0</ele><time>2026-04-12T11:44:59.002Z</time></trkpt><trkpt lat="42.74830066398714" lon="11.66268216546906"><ele>931.2</ele><time>2026-04-12T11:45:00.002Z</time></trkpt><trkpt lat="42.74838767172737" lon="11.662642641821149"><ele>930.4000000000001</ele><time>2026-04-12T11:45:01.002Z</time></trkpt><trkpt lat="42.74848642088252" lon="11.66261439859798"><ele>929.5999999999999</ele><time>2026-04-12T11:45:02.002Z</time></trkpt><trkpt lat="42.74858569291902" lon="11.66261779379089"><ele>928.8</ele><time>2026-04-12T11:45:03.002Z</time></trkpt><trkpt lat="42.748652561632106" lon="11.662619974564354"><ele>928.0</ele><time>2026-04-12T11:45:04.002Z</time></trkpt><trkpt lat="42.748754904210784" lon="11.662658087225445"><ele>926.6666666666666</ele><time>2026-04-12T11:45:06.002Z</time></trkpt><trkpt lat="42.74881901301541" lon="11.662775554914672"><ele>925.3333333333333</ele><time>2026-04-12T11:45:08.002Z</time></trkpt><trkpt lat="42.748844176669316" lon="11.662854782322512"><ele>924.0</ele><time>2026-04-12T11:45:09.002Z</time></trkpt><trkpt lat="42.748865407784024" lon="11.662949411110437"><ele>922.6666666666667</ele><time>2026-04-12T11:45:10.002Z</time></trkpt><trkpt lat="42.748884924257204" lon="11.663035236709197"><ele>921.3333333333334</ele><time>2026-04-12T11:45:11.002Z</time></trkpt><trkpt lat="42.74890695205894" lon="11.663142234716704"><ele>920.0</ele><time>2026-04-12T11:45:12.002Z</time></trkpt><trkpt lat="42.748919765256495" lon="11.66324068473802"><ele>920.0000000000001</ele><time>2026-04-12T11:45:13.002Z</time></trkpt><trkpt lat="42.74892593891111" lon="11.663360146462214"><ele>920.0</ele><time>2026-04-12T11:45:14.002Z</time></trkpt><trkpt lat="42.7489192783045" lon="11.66352641812231"><ele>920.0</ele><time>2026-04-12T11:45:16.002Z</time></trkpt><trkpt lat="42.74892482449008" lon="11.66365178800752"><ele>920.0</ele><time>2026-04-12T11:45:17.999Z</time></trkpt><trkpt lat="42.74897604068033" lon="11.663728009381547"><ele>920.0000000000001</ele><time>2026-04-12T11:45:19.999Z</time></trkpt><trkpt lat="42.7490383375325" lon="11.663711931816078"><ele>920.0</ele><time>2026-04-12T11:45:20.999Z</time></trkpt><trkpt lat="42.74913133767586" lon="11.663573702637118"><ele>920.0</ele><time>2026-04-12T11:45:22.999Z</time></trkpt><trkpt lat="42.74919391076148" lon="11.663486121235175"><ele>920.0</ele><time>2026-04-12T11:45:23.999Z</time></trkpt><trkpt lat="42.749259559087285" lon="11.663394393210137"><ele>920.0</ele><time>2026-04-12T11:45:24.999Z</time></trkpt><trkpt lat="42.7493065482322" lon="11.663319547222812"><ele>920.0</ele><time>2026-04-12T11:45:25.999Z</time></trkpt><trkpt lat="42.749394831846445" lon="11.663238406510953"><ele>920.0</ele><time>2026-04-12T11:45:27.999Z</time></trkpt><trkpt lat="42.74948469166537" lon="11.663180826990532"><ele>918.8333333333334</ele><time>2026-04-12T11:45:29.999Z</time></trkpt><trkpt lat="42.74956237481234" lon="11.663159419269578"><ele>917.6666666666667</ele><time>2026-04-12T11:45:31.999Z</time></trkpt><trkpt lat="42.7496481116104" lon="11.663163201596912"><ele>916.5</ele><time>2026-04-12T11:45:33.999Z</time></trkpt><trkpt lat="42.74973776587049" lon="11.663168198542946"><ele>915.3333333333333</ele><time>2026-04-12T11:45:35.999Z</time></trkpt><trkpt lat="42.749817473730104" lon="11.663182110060566"><ele>914.1666666666666</ele><time>2026-04-12T11:45:38Z</time></trkpt><trkpt lat="42.74991327329672" lon="11.663175690933503"><ele>913.0</ele><time>2026-04-12T11:45:40Z</time></trkpt><trkpt lat="42.749986077837505" lon="11.663229186690561"><ele>913.0</ele><time>2026-04-12T11:45:42Z</time></trkpt><trkpt lat="42.750048028452" lon="11.66326915969002"><ele>913.0</ele><time>2026-04-12T11:45:44Z</time></trkpt><trkpt lat="42.750109651564095" lon="11.663348180535072"><ele>913.0</ele><time>2026-04-12T11:45:47Z</time></trkpt><trkpt lat="42.75020613704996" lon="11.66344266847533"><ele>913.0</ele><time>2026-04-12T11:45:49Z</time></trkpt><trkpt lat="42.75028562278099" lon="11.663560900790626"><ele>913.0</ele><time>2026-04-12T11:45:51Z</time></trkpt><trkpt lat="42.750342581014266" lon="11.663685270139945"><ele>911.2</ele><time>2026-04-12T11:45:53Z</time></trkpt><trkpt lat="42.750407626102955" lon="11.66383323754284"><ele>909.4</ele><time>2026-04-12T11:45:55Z</time></trkpt><trkpt lat="42.7504613800065" lon="11.663902678206673"><ele>907.6000000000001</ele><time>2026-04-12T11:45:56Z</time></trkpt><trkpt lat="42.7505075723452" lon="11.663984944369926"><ele>905.8000000000001</ele><time>2026-04-12T11:45:57Z</time></trkpt><trkpt lat="42.75060485830329" lon="11.664079873895131"><ele>904.0</ele><time>2026-04-12T11:45:59Z</time></trkpt><trkpt lat="42.75071772817939" lon="11.664118319186654"><ele>904.0</ele><time>2026-04-12T11:46:01Z</time></trkpt><trkpt lat="42.75084777053899" lon="11.664105990508023"><ele>904.0000000000001</ele><time>2026-04-12T11:46:03Z</time></trkpt><trkpt lat="42.750912408380515" lon="11.664087114836876"><ele>904.0000000000001</ele><time>2026-04-12T11:46:04Z</time></trkpt><trkpt lat="42.751037277967725" lon="11.66399233175786"><ele>904.0</ele><time>2026-04-12T11:46:06Z</time></trkpt><trkpt lat="42.75111829440147" lon="11.663937054795134"><ele>904.0</ele><time>2026-04-12T11:46:07.001Z</time></trkpt><trkpt lat="42.751180518411495" lon="11.663894333099474"><ele>903.6</ele><time>2026-04-12T11:46:08.001Z</time></trkpt><trkpt lat="42.7512770127368" lon="11.66382225759644"><ele>903.2</ele><time>2026-04-12T11:46:10.001Z</time></trkpt><trkpt lat="42.75133079438231" lon="11.663748311019177"><ele>902.8000000000001</ele><time>2026-04-12T11:46:11.001Z</time></trkpt><trkpt lat="42.75137430220043" lon="11.663647677223627"><ele>902.4000000000001</ele><time>2026-04-12T11:46:12.001Z</time></trkpt><trkpt lat="42.75142052541766" lon="11.663528550221585"><ele>902.0</ele><time>2026-04-12T11:46:13.001Z</time></trkpt><trkpt lat="42.751458566889596" lon="11.663417702115973"><ele>902.0</ele><time>2026-04-12T11:46:14.001Z</time></trkpt><trkpt lat="42.75150722141023" lon="11.66332583816533"><ele>902.0</ele><time>2026-04-12T11:46:15.001Z</time></trkpt><trkpt lat="42.75157879273921" lon="11.663243361421575"><ele>902.0</ele><time>2026-04-12T11:46:16.001Z</time></trkpt><trkpt lat="42.751661391680294" lon="11.66315618561912"><ele>902.0</ele><time>2026-04-12T11:46:17.001Z</time></trkpt><trkpt lat="42.75173831858264" lon="11.66307068890279"><ele>902.0</ele><time>2026-04-12T11:46:18.001Z</time></trkpt><trkpt lat="42.75180798977679" lon="11.662962216610126"><ele>902.0000000000001</ele><time>2026-04-12T11:46:19.001Z</time></trkpt><trkpt lat="42.751861860437074" lon="11.66285780866162"><ele>902.0</ele><time>2026-04-12T11:46:20.001Z</time></trkpt><trkpt lat="42.75191629851124" lon="11.662746960780462"><ele>902.0</ele><time>2026-04-12T11:46:21.001Z</time></trkpt><trkpt lat="42.75195721303933" lon="11.66264946586587"><ele>902.0</ele><time>2026-04-12T11:46:22.001Z</time></trkpt><trkpt lat="42.75198849288805" lon="11.66255689129421"><ele>902.0000000000001</ele><time>2026-04-12T11:46:23.001Z</time></trkpt><trkpt lat="42.752034769349585" lon="11.662464281407903"><ele>902.0</ele><time>2026-04-12T11:46:24.001Z</time></trkpt><trkpt lat="42.75208856136219" lon="11.662374605077929"><ele>900.1666666666667</ele><time>2026-04-12T11:46:25.001Z</time></trkpt><trkpt lat="42.75215733381681" lon="11.6623073481994"><ele>898.3333333333334</ele><time>2026-04-12T11:46:26.001Z</time></trkpt><trkpt lat="42.75222176172232" lon="11.662249494040486"><ele>896.5</ele><time>2026-04-12T11:46:27.001Z</time></trkpt><trkpt lat="42.75229268902877" lon="11.662179642070344"><ele>894.6666666666667</ele><time>2026-04-12T11:46:28.001Z</time></trkpt><trkpt lat="42.75236417940043" lon="11.662159620250469"><ele>892.8333333333334</ele><time>2026-04-12T11:46:29.001Z</time></trkpt><trkpt lat="42.75245109845649" lon="11.662153965310003"><ele>891.0</ele><time>2026-04-12T11:46:30.001Z</time></trkpt><trkpt lat="42.752551968797974" lon="11.66217340157557"><ele>891.0</ele><time>2026-04-12T11:46:31.001Z</time></trkpt><trkpt lat="42.75264807476244" lon="11.662182881724691"><ele>891.0</ele><time>2026-04-12T11:46:32.001Z</time></trkpt><trkpt lat="42.7527289840996" lon="11.662204944021065"><ele>891.0</ele><time>2026-04-12T11:46:33.001Z</time></trkpt><trkpt lat="42.75282471392468" lon="11.662187802780764"><ele>891.0</ele><time>2026-04-12T11:46:35.001Z</time></trkpt><trkpt lat="42.75287898660786" lon="11.662130419439467"><ele>891.0</ele><time>2026-04-12T11:46:36.001Z</time></trkpt><trkpt lat="42.75291712446542" lon="11.662039662714232"><ele>891.0</ele><time>2026-04-12T11:46:37.001Z</time></trkpt><trkpt lat="42.75293505353404" lon="11.661936916604972"><ele>887.1999999999999</ele><time>2026-04-12T11:46:38.001Z</time></trkpt><trkpt lat="42.75293249415804" lon="11.661829619848982"><ele>883.3999999999999</ele><time>2026-04-12T11:46:39.001Z</time></trkpt><trkpt lat="42.752914906337715" lon="11.661691414090662"><ele>879.6</ele><time>2026-04-12T11:46:40.001Z</time></trkpt><trkpt lat="42.752890971289354" lon="11.661543059163968"><ele>875.8</ele><time>2026-04-12T11:46:41.001Z</time></trkpt><trkpt lat="42.75288354855271" lon="11.661375692965208"><ele>872.0</ele><time>2026-04-12T11:46:42.001Z</time></trkpt><trkpt lat="42.75287801488823" lon="11.661227780938159"><ele>872.0</ele><time>2026-04-12T11:46:43.001Z</time></trkpt><trkpt lat="42.75288005690086" lon="11.66109837500162"><ele>872.0</ele><time>2026-04-12T11:46:44.001Z</time></trkpt><trkpt lat="42.752868944524906" lon="11.660973186469617"><ele>872.0</ele><time>2026-04-12T11:46:45.002Z</time></trkpt><trkpt lat="42.75286566265036" lon="11.660845421871505"><ele>872.0</ele><time>2026-04-12T11:46:46.002Z</time></trkpt><trkpt lat="42.75285649785734" lon="11.660703082565629"><ele>872.0</ele><time>2026-04-12T11:46:47.002Z</time></trkpt><trkpt lat="42.75284653469801" lon="11.660589963361863"><ele>872.0000000000001</ele><time>2026-04-12T11:46:48.002Z</time></trkpt><trkpt lat="42.75283348239795" lon="11.660491507527485"><ele>872.0</ele><time>2026-04-12T11:46:49.002Z</time></trkpt><trkpt lat="42.752820761424616" lon="11.66038456333498"><ele>872.0</ele><time>2026-04-12T11:46:50.002Z</time></trkpt><trkpt lat="42.75283199111384" lon="11.660260382045067"><ele>872.0</ele><time>2026-04-12T11:46:51.002Z</time></trkpt><trkpt lat="42.752836628921145" lon="11.660163368742932"><ele>872.0000000000001</ele><time>2026-04-12T11:46:52.002Z</time></trkpt><trkpt lat="42.75283140473555" lon="11.660050429006537"><ele>872.0</ele><time>2026-04-12T11:46:53.002Z</time></trkpt><trkpt lat="42.75282756720248" lon="11.659946291650511"><ele>871.1666666666667</ele><time>2026-04-12T11:46:54.002Z</time></trkpt><trkpt lat="42.75283533071959" lon="11.659835279925034"><ele>870.3333333333334</ele><time>2026-04-12T11:46:55.002Z</time></trkpt><trkpt lat="42.75286700950261" lon="11.659720756715174"><ele>869.5</ele><time>2026-04-12T11:46:56.002Z</time></trkpt><trkpt lat="42.752909286558506" lon="11.659641482967364"><ele>868.6666666666667</ele><time>2026-04-12T11:46:57.002Z</time></trkpt><trkpt lat="42.75295836590233" lon="11.659565482244748"><ele>867.8333333333334</ele><time>2026-04-12T11:46:58.002Z</time></trkpt><trkpt lat="42.753022693038275" lon="11.65948365064155"><ele>867.0</ele><time>2026-04-12T11:46:59.002Z</time></trkpt><trkpt lat="42.753105375746095" lon="11.659409892698877"><ele>867.0</ele><time>2026-04-12T11:47:00.002Z</time></trkpt><trkpt lat="42.75320742574744" lon="11.659336048908884"><ele>867.0</ele><time>2026-04-12T11:47:01.002Z</time></trkpt><trkpt lat="42.75331957608762" lon="11.659263038541248"><ele>867.0</ele><time>2026-04-12T11:47:02.002Z</time></trkpt><trkpt lat="42.75341958115826" lon="11.659172319754827"><ele>867.0</ele><time>2026-04-12T11:47:03.002Z</time></trkpt><trkpt lat="42.753516947743094" lon="11.659099463384722"><ele>864.6</ele><time>2026-04-12T11:47:04.002Z</time></trkpt><trkpt lat="42.7535688156007" lon="11.659043892880954"><ele>862.2</ele><time>2026-04-12T11:47:05.002Z</time></trkpt><trkpt lat="42.75364702778684" lon="11.658943812296855"><ele>859.8</ele><time>2026-04-12T11:47:06.002Z</time></trkpt><trkpt lat="42.75371422885032" lon="11.658839364167314"><ele>857.4</ele><time>2026-04-12T11:47:07.002Z</time></trkpt><trkpt lat="42.75377272572708" lon="11.658743263192274"><ele>855.0</ele><time>2026-04-12T11:47:08.002Z</time></trkpt><trkpt lat="42.753830810209216" lon="11.658655835867114"><ele>856.6</ele><time>2026-04-12T11:47:09.002Z</time></trkpt><trkpt lat="42.75387376761281" lon="11.658566653684868"><ele>858.2</ele><time>2026-04-12T11:47:10.002Z</time></trkpt><trkpt lat="42.75390734461002" lon="11.65846005525982"><ele>859.8</ele><time>2026-04-12T11:47:11.002Z</time></trkpt><trkpt lat="42.75392577639318" lon="11.658330720171442"><ele>861.4</ele><time>2026-04-12T11:47:12.002Z</time></trkpt><trkpt lat="42.75392982550572" lon="11.658169108424657"><ele>863.0</ele><time>2026-04-12T11:47:13.002Z</time></trkpt><trkpt lat="42.75394462655146" lon="11.658003200319232"><ele>863.0</ele><time>2026-04-12T11:47:14.002Z</time></trkpt><trkpt lat="42.75396298629878" lon="11.65785226004136"><ele>863.0</ele><time>2026-04-12T11:47:15.002Z</time></trkpt><trkpt lat="42.7539914665045" lon="11.657728510947589"><ele>863.0</ele><time>2026-04-12T11:47:16.002Z</time></trkpt><trkpt lat="42.7540215905476" lon="11.657627653593504"><ele>863.0</ele><time>2026-04-12T11:47:17.002Z</time></trkpt><trkpt lat="42.754086957303755" lon="11.657510355555726"><ele>863.0</ele><time>2026-04-12T11:47:19.002Z</time></trkpt><trkpt lat="42.7541626155306" lon="11.657448372850812"><ele>863.3333333333334</ele><time>2026-04-12T11:47:21.002Z</time></trkpt><trkpt lat="42.75412969043768" lon="11.657348216568558"><ele>863.6666666666667</ele><time>2026-04-12T11:47:23.999Z</time></trkpt><trkpt lat="42.754075424403304" lon="11.657294629154705"><ele>864.0</ele><time>2026-04-12T11:47:25.999Z</time></trkpt><trkpt lat="42.753993056804404" lon="11.657217538513342"><ele>864.3333333333333</ele><time>2026-04-12T11:48:01Z</time></trkpt><trkpt lat="42.75390097438473" lon="11.65715007152437"><ele>864.6666666666666</ele><time>2026-04-12T11:48:03Z</time></trkpt><trkpt lat="42.75384116359641" lon="11.657099405590786"><ele>865.0</ele><time>2026-04-12T11:48:04Z</time></trkpt><trkpt lat="42.75377870196358" lon="11.657041831498345"><ele>865.0</ele><time>2026-04-12T11:48:05Z</time></trkpt><trkpt lat="42.75372187685804" lon="11.656990109216757"><ele>865.0</ele><time>2026-04-12T11:48:06Z</time></trkpt><trkpt lat="42.75365997668998" lon="11.65694487297983"><ele>865.0</ele><time>2026-04-12T11:48:07Z</time></trkpt><trkpt lat="42.75359416330489" lon="11.656886174807847"><ele>865.0</ele><time>2026-04-12T11:48:08Z</time></trkpt><trkpt lat="42.75352972696815" lon="11.656822551366085"><ele>865.0</ele><time>2026-04-12T11:48:09Z</time></trkpt><trkpt lat="42.75347332626944" lon="11.656764118177525"><ele>865.0</ele><time>2026-04-12T11:48:10.001Z</time></trkpt><trkpt lat="42.753419385366385" lon="11.65670953486723"><ele>865.0</ele><time>2026-04-12T11:48:11.001Z</time></trkpt><trkpt lat="42.75332069215356" lon="11.656633149743907"><ele>865.5</ele><time>2026-04-12T11:48:13.001Z</time></trkpt><trkpt lat="42.753246986227964" lon="11.656527275807752"><ele>866.0</ele><time>2026-04-12T11:48:15.001Z</time></trkpt><trkpt lat="42.75314743180748" lon="11.65648806900932"><ele>866.5</ele><time>2026-04-12T11:48:17.001Z</time></trkpt><trkpt lat="42.75302945977396" lon="11.656489757921868"><ele>867.0</ele><time>2026-04-12T11:48:19.001Z</time></trkpt><trkpt lat="42.75287794235355" lon="11.656559286275499"><ele>867.0</ele><time>2026-04-12T11:48:21.001Z</time></trkpt><trkpt lat="42.75278647716185" lon="11.656602929714715"><ele>867.0</ele><time>2026-04-12T11:48:22.001Z</time></trkpt><trkpt lat="42.7526895376768" lon="11.656661327780542"><ele>867.0</ele><time>2026-04-12T11:48:23.001Z</time></trkpt><trkpt lat="42.75260768361008" lon="11.656687268972412"><ele>867.0</ele><time>2026-04-12T11:48:24.001Z</time></trkpt><trkpt lat="42.75251151804116" lon="11.656692723829494"><ele>867.0</ele><time>2026-04-12T11:48:25.001Z</time></trkpt><trkpt lat="42.75241810493768" lon="11.65670654024933"><ele>865.8333333333334</ele><time>2026-04-12T11:48:26.001Z</time></trkpt><trkpt lat="42.75234205669633" lon="11.6567144288918"><ele>864.6666666666667</ele><time>2026-04-12T11:48:27.001Z</time></trkpt><trkpt lat="42.75227041573829" lon="11.656703382286382"><ele>863.5</ele><time>2026-04-12T11:48:28.001Z</time></trkpt><trkpt lat="42.75220668315579" lon="11.656672521519207"><ele>862.3333333333334</ele><time>2026-04-12T11:48:29.001Z</time></trkpt><trkpt lat="42.752137213499424" lon="11.656611761009529"><ele>861.1666666666667</ele><time>2026-04-12T11:48:30.001Z</time></trkpt><trkpt lat="42.752060213750525" lon="11.65653829035218"><ele>860.0</ele><time>2026-04-12T11:48:31.001Z</time></trkpt><trkpt lat="42.751973733412704" lon="11.656430617286262"><ele>860.0</ele><time>2026-04-12T11:48:32.001Z</time></trkpt><trkpt lat="42.7518668345761" lon="11.656327189114576"><ele>860.0</ele><time>2026-04-12T11:48:33.001Z</time></trkpt><trkpt lat="42.75175910943185" lon="11.656274733746892"><ele>860.0</ele><time>2026-04-12T11:48:34.001Z</time></trkpt><trkpt lat="42.75168797587893" lon="11.656242570108965"><ele>860.0</ele><time>2026-04-12T11:48:35.001Z</time></trkpt><trkpt lat="42.75160594479704" lon="11.656220340248591"><ele>860.0</ele><time>2026-04-12T11:48:36.001Z</time></trkpt><trkpt lat="42.75154815745338" lon="11.656151978626525"><ele>859.3333333333334</ele><time>2026-04-12T11:48:37.001Z</time></trkpt><trkpt lat="42.75147278806501" lon="11.656095929790295"><ele>858.6666666666667</ele><time>2026-04-12T11:48:38.001Z</time></trkpt><trkpt lat="42.75141295120524" lon="11.656066786511909"><ele>858.0</ele><time>2026-04-12T11:48:39.001Z</time></trkpt><trkpt lat="42.75138148236917" lon="11.655979671663731"><ele>857.3333333333333</ele><time>2026-04-12T11:48:40.001Z</time></trkpt><trkpt lat="42.751304539330974" lon="11.655934463891343"><ele>856.6666666666666</ele><time>2026-04-12T11:48:41.001Z</time></trkpt><trkpt lat="42.75123085330526" lon="11.65594840866114"><ele>856.0</ele><time>2026-04-12T11:48:42.001Z</time></trkpt><trkpt lat="42.75115570474427" lon="11.655948290651564"><ele>855.9999999999999</ele><time>2026-04-12T11:48:43.001Z</time></trkpt><trkpt lat="42.751078842335275" lon="11.655947645893848"><ele>856.0</ele><time>2026-04-12T11:48:44.002Z</time></trkpt><trkpt lat="42.751015827760256" lon="11.655952677299886"><ele>856.0</ele><time>2026-04-12T11:48:45.002Z</time></trkpt><trkpt lat="42.75091007816938" lon="11.655968534371693"><ele>856.0</ele><time>2026-04-12T11:48:47.002Z</time></trkpt><trkpt lat="42.7507998064129" lon="11.656002277303891"><ele>855.9999999999999</ele><time>2026-04-12T11:48:49.002Z</time></trkpt><trkpt lat="42.75072529089108" lon="11.656014863515479"><ele>856.0</ele><time>2026-04-12T11:48:50.002Z</time></trkpt><trkpt lat="42.75062500248902" lon="11.656047287151756"><ele>853.6666666666666</ele><time>2026-04-12T11:48:51.002Z</time></trkpt><trkpt lat="42.75056344820986" lon="11.656076884978285"><ele>851.3333333333333</ele><time>2026-04-12T11:48:52.002Z</time></trkpt><trkpt lat="42.75044549899208" lon="11.656020094735904"><ele>849.0</ele><time>2026-04-12T11:48:54.002Z</time></trkpt><trkpt lat="42.75038389808023" lon="11.655970618725297"><ele>846.6666666666667</ele><time>2026-04-12T11:48:55.002Z</time></trkpt><trkpt lat="42.750322018964965" lon="11.655911476703082"><ele>844.3333333333334</ele><time>2026-04-12T11:48:56.002Z</time></trkpt><trkpt lat="42.750259115939286" lon="11.655887569584937"><ele>842.0</ele><time>2026-04-12T11:48:57.002Z</time></trkpt><trkpt lat="42.75019399395233" lon="11.655823666058291"><ele>841.5000000000001</ele><time>2026-04-12T11:48:58.002Z</time></trkpt><trkpt lat="42.7500978866372" lon="11.655774929914278"><ele>841.0</ele><time>2026-04-12T11:48:59.002Z</time></trkpt><trkpt lat="42.750002932000896" lon="11.655759632045886"><ele>840.5</ele><time>2026-04-12T11:49:00.002Z</time></trkpt><trkpt lat="42.74992413764434" lon="11.655732082354966"><ele>840.0</ele><time>2026-04-12T11:49:01.002Z</time></trkpt><trkpt lat="42.74985440729417" lon="11.655726174207883"><ele>839.5000000000001</ele><time>2026-04-12T11:49:02.002Z</time></trkpt><trkpt lat="42.749762599004605" lon="11.655733906455369"><ele>839.0</ele><time>2026-04-12T11:49:03.002Z</time></trkpt><trkpt lat="42.74967405632923" lon="11.655744807919431"><ele>839.0000000000001</ele><time>2026-04-12T11:49:04.002Z</time></trkpt><trkpt lat="42.74959056046216" lon="11.655724058844033"><ele>839.0</ele><time>2026-04-12T11:49:05.002Z</time></trkpt><trkpt lat="42.74950543702739" lon="11.655725514013362"><ele>839.0</ele><time>2026-04-12T11:49:06.002Z</time></trkpt><trkpt lat="42.74940757534632" lon="11.655733402582863"><ele>839.0</ele><time>2026-04-12T11:49:07.002Z</time></trkpt><trkpt lat="42.74931686299714" lon="11.655733659294714"><ele>839.0000000000001</ele><time>2026-04-12T11:49:08.002Z</time></trkpt><trkpt lat="42.74923161185119" lon="11.655737880230376"><ele>839.0</ele><time>2026-04-12T11:49:09.002Z</time></trkpt><trkpt lat="42.74912070784055" lon="11.655775335659666"><ele>838.6</ele><time>2026-04-12T11:49:11.002Z</time></trkpt><trkpt lat="42.749027777034634" lon="11.655909894119873"><ele>838.2</ele><time>2026-04-12T11:49:13.002Z</time></trkpt><trkpt lat="42.74897706183971" lon="11.6560023220862"><ele>837.8000000000001</ele><time>2026-04-12T11:49:14.002Z</time></trkpt><trkpt lat="42.748935585601615" lon="11.656128352623346"><ele>837.4000000000001</ele><time>2026-04-12T11:49:15.002Z</time></trkpt><trkpt lat="42.74887434067314" lon="11.656256793817658"><ele>837.0</ele><time>2026-04-12T11:49:16.002Z</time></trkpt><trkpt lat="42.748825515807596" lon="11.656339359743848"><ele>837.0</ele><time>2026-04-12T11:49:17.002Z</time></trkpt><trkpt lat="42.748740811217225" lon="11.656443658715126"><ele>837.0</ele><time>2026-04-12T11:49:19.003Z</time></trkpt><trkpt lat="42.74863618183636" lon="11.656499824774363"><ele>837.0</ele><time>2026-04-12T11:49:21.003Z</time></trkpt><trkpt lat="42.748514716523076" lon="11.65646921424973"><ele>837.0</ele><time>2026-04-12T11:49:23.003Z</time></trkpt><trkpt lat="42.74844642805153" lon="11.656439166226363"><ele>837.0</ele><time>2026-04-12T11:49:24.003Z</time></trkpt><trkpt lat="42.7483722919101" lon="11.656455172168172"><ele>835.5</ele><time>2026-04-12T11:49:25.003Z</time></trkpt><trkpt lat="42.74830741925517" lon="11.656460449835848"><ele>834.0</ele><time>2026-04-12T11:49:26.003Z</time></trkpt><trkpt lat="42.74823990334674" lon="11.656455927641748"><ele>832.5</ele><time>2026-04-12T11:49:27.003Z</time></trkpt><trkpt lat="42.74816247333908" lon="11.65645510037498"><ele>831.0</ele><time>2026-04-12T11:49:28.003Z</time></trkpt><trkpt lat="42.748094700735976" lon="11.65647013612948"><ele>829.5</ele><time>2026-04-12T11:49:28.999Z</time></trkpt><trkpt lat="42.747983470626494" lon="11.656545775045243"><ele>828.0</ele><time>2026-04-12T11:49:30.999Z</time></trkpt><trkpt lat="42.74792654480598" lon="11.656594472510296"><ele>828.0</ele><time>2026-04-12T11:49:31.999Z</time></trkpt><trkpt lat="42.747832517582076" lon="11.65667645412373"><ele>828.0</ele><time>2026-04-12T11:49:33.999Z</time></trkpt><trkpt lat="42.74772581469762" lon="11.656739844897999"><ele>828.0</ele><time>2026-04-12T11:49:35.999Z</time></trkpt><trkpt lat="42.74766728202503" lon="11.656801437530554"><ele>828.0</ele><time>2026-04-12T11:49:36.999Z</time></trkpt><trkpt lat="42.7476112389152" lon="11.656848196663628"><ele>828.0</ele><time>2026-04-12T11:49:37.999Z</time></trkpt><trkpt lat="42.74752911906669" lon="11.656910502093233"><ele>830.4</ele><time>2026-04-12T11:49:39.999Z</time></trkpt><trkpt lat="42.74743008260555" lon="11.656940280818848"><ele>832.8</ele><time>2026-04-12T11:49:41.999Z</time></trkpt><trkpt lat="42.74732616234792" lon="11.656923662619535"><ele>835.2</ele><time>2026-04-12T11:49:43.999Z</time></trkpt><trkpt lat="42.74722373837361" lon="11.656806319084023"><ele>837.6</ele><time>2026-04-12T11:49:45.999Z</time></trkpt><trkpt lat="42.74713034126369" lon="11.656736708069674"><ele>840.0</ele><time>2026-04-12T11:49:48Z</time></trkpt><trkpt lat="42.74706872607673" lon="11.656711343032082"><ele>840.0</ele><time>2026-04-12T11:49:49Z</time></trkpt><trkpt lat="42.74695046176016" lon="11.65666715792045"><ele>840.0</ele><time>2026-04-12T11:49:51Z</time></trkpt><trkpt lat="42.746873742841785" lon="11.65667408352654"><ele>840.0</ele><time>2026-04-12T11:49:52Z</time></trkpt><trkpt lat="42.74681116449857" lon="11.65669246908003"><ele>840.0</ele><time>2026-04-12T11:49:53Z</time></trkpt><trkpt lat="42.74670120457087" lon="11.656692921684927"><ele>840.0</ele><time>2026-04-12T11:49:55Z</time></trkpt><trkpt lat="42.746652522834374" lon="11.656621713398755"><ele>840.0</ele><time>2026-04-12T11:49:57Z</time></trkpt><trkpt lat="42.74670990924221" lon="11.656533872719503"><ele>840.0</ele><time>2026-04-12T11:49:59Z</time></trkpt><trkpt lat="42.74677086207844" lon="11.656508296911547"><ele>840.0</ele><time>2026-04-12T11:50:00Z</time></trkpt><trkpt lat="42.74685956448341" lon="11.656482182945533"><ele>840.0</ele><time>2026-04-12T11:50:01Z</time></trkpt><trkpt lat="42.74693572056372" lon="11.656447958518731"><ele>840.0</ele><time>2026-04-12T11:50:02Z</time></trkpt><trkpt lat="42.746989043089606" lon="11.6563969398712"><ele>840.0</ele><time>2026-04-12T11:50:03Z</time></trkpt><trkpt lat="42.747078381532795" lon="11.656290367005093"><ele>840.0</ele><time>2026-04-12T11:50:05Z</time></trkpt><trkpt lat="42.74715726684056" lon="11.656154482619447"><ele>841.8</ele><time>2026-04-12T11:50:07Z</time></trkpt><trkpt lat="42.74723002522505" lon="11.656056692809841"><ele>843.6</ele><time>2026-04-12T11:50:08Z</time></trkpt><trkpt lat="42.74726495752909" lon="11.655961771553189"><ele>845.4000000000001</ele><time>2026-04-12T11:50:09Z</time></trkpt><trkpt lat="42.74733811499762" lon="11.655857945056857"><ele>847.2</ele><time>2026-04-12T11:50:11Z</time></trkpt><trkpt lat="42.74742760639729" lon="11.65584737461637"><ele>849.0</ele><time>2026-04-12T11:50:13Z</time></trkpt><trkpt lat="42.74752549878739" lon="11.655839270543924"><ele>849.0</ele><time>2026-04-12T11:50:15.001Z</time></trkpt><trkpt lat="42.74758852009052" lon="11.655811340276674"><ele>849.0</ele><time>2026-04-12T11:50:16.001Z</time></trkpt><trkpt lat="42.74764086484232" lon="11.655752135444349"><ele>849.0</ele><time>2026-04-12T11:50:17.001Z</time></trkpt><trkpt lat="42.74767198871228" lon="11.655615944128783"><ele>849.0</ele><time>2026-04-12T11:50:19.001Z</time></trkpt><trkpt lat="42.74763045427999" lon="11.655466207277403"><ele>849.0</ele><time>2026-04-12T11:50:21.001Z</time></trkpt><trkpt lat="42.74759243847855" lon="11.655389229916146"><ele>849.0</ele><time>2026-04-12T11:50:22.001Z</time></trkpt><trkpt lat="42.747501479359144" lon="11.655286209646556"><ele>849.4000000000001</ele><time>2026-04-12T11:50:24.001Z</time></trkpt><trkpt lat="42.74741846464973" lon="11.655195297482695"><ele>849.8</ele><time>2026-04-12T11:50:26.001Z</time></trkpt><trkpt lat="42.74733004713619" lon="11.655106309130074"><ele>850.2</ele><time>2026-04-12T11:50:28.001Z</time></trkpt><trkpt lat="42.74725884429936" lon="11.655079550906077"><ele>850.5999999999999</ele><time>2026-04-12T11:50:29.001Z</time></trkpt><trkpt lat="42.747180627260065" lon="11.655031369668695"><ele>851.0</ele><time>2026-04-12T11:50:30.001Z</time></trkpt><trkpt lat="42.747107095877496" lon="11.654971583715461"><ele>851.0</ele><time>2026-04-12T11:50:31.001Z</time></trkpt><trkpt lat="42.74704645888169" lon="11.654936454811951"><ele>851.0</ele><time>2026-04-12T11:50:32.001Z</time></trkpt><trkpt lat="42.74693327058212" lon="11.654901648505644"><ele>851.0</ele><time>2026-04-12T11:50:34.001Z</time></trkpt><trkpt lat="42.74682789632613" lon="11.654854090162319"><ele>851.0</ele><time>2026-04-12T11:50:36.001Z</time></trkpt><trkpt lat="42.74672084258735" lon="11.654818838310605"><ele>851.0</ele><time>2026-04-12T11:50:38.001Z</time></trkpt><trkpt lat="42.74662813255053" lon="11.654723489893843"><ele>853.4</ele><time>2026-04-12T11:50:40.001Z</time></trkpt><trkpt lat="42.74654090030137" lon="11.65462858862293"><ele>855.8</ele><time>2026-04-12T11:50:42.001Z</time></trkpt><trkpt lat="42.74646009427995" lon="11.654558860584574"><ele>858.1999999999999</ele><time>2026-04-12T11:50:44.001Z</time></trkpt><trkpt lat="42.746349266701245" lon="11.654519149540441"><ele>860.5999999999999</ele><time>2026-04-12T11:50:46.002Z</time></trkpt><trkpt lat="42.74628882275195" lon="11.654468619511187"><ele>863.0</ele><time>2026-04-12T11:50:47.002Z</time></trkpt><trkpt lat="42.746231545492314" lon="11.654427056895717"><ele>863.0000000000001</ele><time>2026-04-12T11:50:48.002Z</time></trkpt><trkpt lat="42.74613385354478" lon="11.654356966743201"><ele>863.0</ele><time>2026-04-12T11:50:50.002Z</time></trkpt><trkpt lat="42.746088480003365" lon="11.654280945299188"><ele>863.0</ele><time>2026-04-12T11:50:51.002Z</time></trkpt><trkpt lat="42.74605335030668" lon="11.654201451802026"><ele>863.0</ele><time>2026-04-12T11:50:52.002Z</time></trkpt><trkpt lat="42.746012085250875" lon="11.654110243290665"><ele>863.0000000000001</ele><time>2026-04-12T11:50:53.002Z</time></trkpt><trkpt lat="42.74599357544313" lon="11.654003766147309"><ele>863.0</ele><time>2026-04-12T11:50:54.002Z</time></trkpt><trkpt lat="42.74594695851179" lon="11.65387666112627"><ele>863.0</ele><time>2026-04-12T11:50:55.002Z</time></trkpt><trkpt lat="42.74591827278274" lon="11.653745381507772"><ele>863.0</ele><time>2026-04-12T11:50:56.002Z</time></trkpt><trkpt lat="42.74589673050731" lon="11.653633201194047"><ele>863.0</ele><time>2026-04-12T11:50:57.002Z</time></trkpt><trkpt lat="42.745875979133615" lon="11.653514776935033"><ele>863.0</ele><time>2026-04-12T11:50:58.002Z</time></trkpt><trkpt lat="42.74583738715171" lon="11.653397346927452"><ele>863.0</ele><time>2026-04-12T11:50:59.002Z</time></trkpt><trkpt lat="42.74581608572707" lon="11.65327569882821"><ele>863.0</ele><time>2026-04-12T11:51:00.002Z</time></trkpt><trkpt lat="42.74574373991461" lon="11.653113897286708"><ele>863.0</ele><time>2026-04-12T11:51:02.002Z</time></trkpt><trkpt lat="42.74568701438968" lon="11.653042702793329"><ele>863.0</ele><time>2026-04-12T11:51:03.002Z</time></trkpt><trkpt lat="42.745620157076914" lon="11.652983728406157"><ele>863.0</ele><time>2026-04-12T11:51:04.002Z</time></trkpt><trkpt lat="42.74553275303447" lon="11.652917112033371"><ele>863.0</ele><time>2026-04-12T11:51:05.002Z</time></trkpt><trkpt lat="42.74542968434705" lon="11.652857631495255"><ele>863.0</ele><time>2026-04-12T11:51:06.002Z</time></trkpt><trkpt lat="42.745320047158344" lon="11.652790416268676"><ele>863.0</ele><time>2026-04-12T11:51:07.002Z</time></trkpt><trkpt lat="42.74522569684684" lon="11.65272820704251"><ele>863.0</ele><time>2026-04-12T11:51:08.002Z</time></trkpt><trkpt lat="42.745127539458494" lon="11.652645870794393"><ele>863.0</ele><time>2026-04-12T11:51:09.002Z</time></trkpt><trkpt lat="42.745033609128186" lon="11.652579555565339"><ele>863.0</ele><time>2026-04-12T11:51:10.002Z</time></trkpt><trkpt lat="42.7449460138789" lon="11.652513101868536"><ele>862.0000000000001</ele><time>2026-04-12T11:51:11.002Z</time></trkpt><trkpt lat="42.74486474014119" lon="11.652454289738317"><ele>861.0</ele><time>2026-04-12T11:51:12.002Z</time></trkpt><trkpt lat="42.74479455697996" lon="11.652403584240318"><ele>860.0</ele><time>2026-04-12T11:51:13.002Z</time></trkpt><trkpt lat="42.74470869712237" lon="11.652358728371333"><ele>859.0</ele><time>2026-04-12T11:51:14.002Z</time></trkpt><trkpt lat="42.744624731745546" lon="11.652322623292408"><ele>858.0000000000001</ele><time>2026-04-12T11:51:15.002Z</time></trkpt><trkpt lat="42.74454217126851" lon="11.652287531852851"><ele>857.0</ele><time>2026-04-12T11:51:16.002Z</time></trkpt><trkpt lat="42.744448252618135" lon="11.652256564274383"><ele>857.0</ele><time>2026-04-12T11:51:17.002Z</time></trkpt><trkpt lat="42.74433817812951" lon="11.652236699739726"><ele>857.0</ele><time>2026-04-12T11:51:18.002Z</time></trkpt><trkpt lat="42.7442351915269" lon="11.652204942758292"><ele>857.0</ele><time>2026-04-12T11:51:19.003Z</time></trkpt><trkpt lat="42.74414651662558" lon="11.652189111895893"><ele>857.0</ele><time>2026-04-12T11:51:20.003Z</time></trkpt><trkpt lat="42.74405014012719" lon="11.652172179274837"><ele>857.0</ele><time>2026-04-12T11:51:21.003Z</time></trkpt><trkpt lat="42.743952997579875" lon="11.652170091666651"><ele>857.0</ele><time>2026-04-12T11:51:22.003Z</time></trkpt><trkpt lat="42.743843760670266" lon="11.652168861299037"><ele>857.0</ele><time>2026-04-12T11:51:23.003Z</time></trkpt><trkpt lat="42.74372242122185" lon="11.652182803936393"><ele>857.0</ele><time>2026-04-12T11:51:24.003Z</time></trkpt><trkpt lat="42.74360355551563" lon="11.652205075418916"><ele>857.0</ele><time>2026-04-12T11:51:25.003Z</time></trkpt><trkpt lat="42.74348990521558" lon="11.652224342120846"><ele>855.8</ele><time>2026-04-12T11:51:26.003Z</time></trkpt><trkpt lat="42.74337676513752" lon="11.65223357039659"><ele>854.6</ele><time>2026-04-12T11:51:27.003Z</time></trkpt><trkpt lat="42.743281877871546" lon="11.652225929498574"><ele>853.4</ele><time>2026-04-12T11:51:28.003Z</time></trkpt><trkpt lat="42.74316154177479" lon="11.652212075600161"><ele>852.1999999999999</ele><time>2026-04-12T11:51:29.003Z</time></trkpt><trkpt lat="42.74304610280325" lon="11.652177271665998"><ele>851.0</ele><time>2026-04-12T11:51:30.003Z</time></trkpt><trkpt lat="42.7429746973247" lon="11.652135592927742"><ele>851.0</ele><time>2026-04-12T11:51:31.003Z</time></trkpt><trkpt lat="42.74291411527329" lon="11.652096719315757"><ele>851.0</ele><time>2026-04-12T11:51:32.003Z</time></trkpt><trkpt lat="42.742862311587174" lon="11.65203485622507"><ele>851.0</ele><time>2026-04-12T11:51:33.003Z</time></trkpt><trkpt lat="42.74281446500132" lon="11.651943440980117"><ele>851.0</ele><time>2026-04-12T11:51:34.999Z</time></trkpt><trkpt lat="42.74281322932929" lon="11.651848548747335"><ele>851.0</ele><time>2026-04-12T11:51:36.999Z</time></trkpt><trkpt lat="42.7428776436655" lon="11.65180037357925"><ele>851.0</ele><time>2026-04-12T11:51:44.999Z</time></trkpt><trkpt lat="42.74294393241597" lon="11.651843106357358"><ele>851.0</ele><time>2026-04-12T11:51:56Z</time></trkpt><trkpt lat="42.74303553337861" lon="11.651890856047599"><ele>848.5999999999999</ele><time>2026-04-12T11:51:58Z</time></trkpt><trkpt lat="42.743137897980134" lon="11.651934544617845"><ele>846.2</ele><time>2026-04-12T11:52:00Z</time></trkpt><trkpt lat="42.743212441763326" lon="11.6519380316772"><ele>843.8</ele><time>2026-04-12T11:52:01Z</time></trkpt><trkpt lat="42.743310146731176" lon="11.651933962257877"><ele>841.4000000000001</ele><time>2026-04-12T11:52:02Z</time></trkpt><trkpt lat="42.74341163411711" lon="11.651908263659333"><ele>839.0</ele><time>2026-04-12T11:52:03Z</time></trkpt><trkpt lat="42.743510161520184" lon="11.651871142993922"><ele>838.6</ele><time>2026-04-12T11:52:04Z</time></trkpt><trkpt lat="42.743613098987716" lon="11.651832762593052"><ele>838.2</ele><time>2026-04-12T11:52:05Z</time></trkpt><trkpt lat="42.743700778001184" lon="11.65178289950568"><ele>837.8000000000001</ele><time>2026-04-12T11:52:06Z</time></trkpt><trkpt lat="42.743789926005476" lon="11.651732615771854"><ele>837.4000000000001</ele><time>2026-04-12T11:52:07Z</time></trkpt><trkpt lat="42.74387867725422" lon="11.651674377653414"><ele>837.0</ele><time>2026-04-12T11:52:08Z</time></trkpt><trkpt lat="42.74395324048691" lon="11.651631279264528"><ele>837.0</ele><time>2026-04-12T11:52:09Z</time></trkpt><trkpt lat="42.7440492101277" lon="11.65158594905648"><ele>837.0</ele><time>2026-04-12T11:52:10Z</time></trkpt><trkpt lat="42.744154919375205" lon="11.651538556191326"><ele>837.0</ele><time>2026-04-12T11:52:11Z</time></trkpt><trkpt lat="42.74425336646631" lon="11.65149849099403"><ele>837.0</ele><time>2026-04-12T11:52:12.001Z</time></trkpt><trkpt lat="42.74433525050112" lon="11.651474709421331"><ele>837.0</ele><time>2026-04-12T11:52:13.001Z</time></trkpt><trkpt lat="42.744419708377066" lon="11.651450603603626"><ele>837.6666666666666</ele><time>2026-04-12T11:52:14.001Z</time></trkpt><trkpt lat="42.74448949274885" lon="11.65144667861502"><ele>838.3333333333333</ele><time>2026-04-12T11:52:15.001Z</time></trkpt><trkpt lat="42.74459554356195" lon="11.651386497607799"><ele>839.0</ele><time>2026-04-12T11:52:17.001Z</time></trkpt><trkpt lat="42.744628588656845" lon="11.651310190873987"><ele>839.6666666666666</ele><time>2026-04-12T11:52:18.001Z</time></trkpt><trkpt lat="42.7446571643015" lon="11.65122750432948"><ele>840.3333333333333</ele><time>2026-04-12T11:52:19.001Z</time></trkpt><trkpt lat="42.744672264709585" lon="11.651125370617947"><ele>841.0</ele><time>2026-04-12T11:52:20.001Z</time></trkpt><trkpt lat="42.74468241483564" lon="11.651030145218282"><ele>838.6666666666666</ele><time>2026-04-12T11:52:21.001Z</time></trkpt><trkpt lat="42.744702003100976" lon="11.650933570509842"><ele>836.3333333333333</ele><time>2026-04-12T11:52:22.001Z</time></trkpt><trkpt lat="42.74471343063848" lon="11.650825969832603"><ele>834.0</ele><time>2026-04-12T11:52:23.001Z</time></trkpt><trkpt lat="42.74471447607779" lon="11.650703030254366"><ele>831.6666666666667</ele><time>2026-04-12T11:52:24.001Z</time></trkpt><trkpt lat="42.74472952164534" lon="11.650572402105782"><ele>829.3333333333334</ele><time>2026-04-12T11:52:25.001Z</time></trkpt><trkpt lat="42.74473168327781" lon="11.650429839667893"><ele>827.0</ele><time>2026-04-12T11:52:26.001Z</time></trkpt><trkpt lat="42.74472725867831" lon="11.650292022032586"><ele>825.2</ele><time>2026-04-12T11:52:27.001Z</time></trkpt><trkpt lat="42.744717442748055" lon="11.650145471699071"><ele>823.4000000000001</ele><time>2026-04-12T11:52:28.001Z</time></trkpt><trkpt lat="42.7447077630112" lon="11.650002522185485"><ele>821.5999999999999</ele><time>2026-04-12T11:52:29.001Z</time></trkpt><trkpt lat="42.74471606764217" lon="11.649848821805737"><ele>819.8</ele><time>2026-04-12T11:52:30.001Z</time></trkpt><trkpt lat="42.7447192280624" lon="11.649707993472951"><ele>818.0</ele><time>2026-04-12T11:52:31.001Z</time></trkpt><trkpt lat="42.744718213615265" lon="11.649582173312544"><ele>818.0000000000001</ele><time>2026-04-12T11:52:32.001Z</time></trkpt><trkpt lat="42.74471934251531" lon="11.649469842299636"><ele>818.0</ele><time>2026-04-12T11:52:33.001Z</time></trkpt><trkpt lat="42.74471922705185" lon="11.649341224684106"><ele>818.0</ele><time>2026-04-12T11:52:34.001Z</time></trkpt><trkpt lat="42.744720433354374" lon="11.649230365325874"><ele>818.0</ele><time>2026-04-12T11:52:35.001Z</time></trkpt><trkpt lat="42.74472439701128" lon="11.649119306758907"><ele>818.0000000000001</ele><time>2026-04-12T11:52:36.001Z</time></trkpt><trkpt lat="42.7447271751329" lon="11.649013080958458"><ele>818.0</ele><time>2026-04-12T11:52:37.001Z</time></trkpt><trkpt lat="42.74471881008073" lon="11.648855856235924"><ele>817.1666666666667</ele><time>2026-04-12T11:52:39.001Z</time></trkpt><trkpt lat="42.74472769938829" lon="11.648741590604898"><ele>816.3333333333334</ele><time>2026-04-12T11:52:41.001Z</time></trkpt><trkpt lat="42.74468549750999" lon="11.648591758396526"><ele>815.5</ele><time>2026-04-12T11:52:43.002Z</time></trkpt><trkpt lat="42.7446342226373" lon="11.64852451245562"><ele>814.6666666666667</ele><time>2026-04-12T11:52:44.002Z</time></trkpt><trkpt lat="42.74452256513254" lon="11.648506868265757"><ele>813.8333333333334</ele><time>2026-04-12T11:52:46.002Z</time></trkpt><trkpt lat="42.74446545176884" lon="11.648543638635322"><ele>813.0</ele><time>2026-04-12T11:52:47.002Z</time></trkpt><trkpt lat="42.74441294807482" lon="11.648607340260918"><ele>809.5999999999999</ele><time>2026-04-12T11:52:48.002Z</time></trkpt><trkpt lat="42.744363617605494" lon="11.648700280166207"><ele>806.1999999999999</ele><time>2026-04-12T11:52:49.002Z</time></trkpt><trkpt lat="42.744332179373544" lon="11.64880796604044"><ele>802.8</ele><time>2026-04-12T11:52:50.002Z</time></trkpt><trkpt lat="42.744305472805856" lon="11.648946254713403"><ele>799.4</ele><time>2026-04-12T11:52:51.002Z</time></trkpt><trkpt lat="42.74428550313616" lon="11.64910734091166"><ele>796.0</ele><time>2026-04-12T11:52:52.002Z</time></trkpt><trkpt lat="42.74426832215309" lon="11.649254787353108"><ele>795.9999999999999</ele><time>2026-04-12T11:52:53.002Z</time></trkpt><trkpt lat="42.74425369920831" lon="11.649373774498782"><ele>796.0</ele><time>2026-04-12T11:52:54.002Z</time></trkpt><trkpt lat="42.74424994118621" lon="11.649488303590603"><ele>796.0</ele><time>2026-04-12T11:52:55.002Z</time></trkpt><trkpt lat="42.744238889831024" lon="11.649579840804734"><ele>796.0</ele><time>2026-04-12T11:52:56.002Z</time></trkpt><trkpt lat="42.74421584893009" lon="11.649745891338398"><ele>795.9999999999999</ele><time>2026-04-12T11:52:58.002Z</time></trkpt><trkpt lat="42.74422300523603" lon="11.649847342929169"><ele>796.0</ele><time>2026-04-12T11:52:59.002Z</time></trkpt><trkpt lat="42.7442389078779" lon="11.649962747585963"><ele>796.9999999999999</ele><time>2026-04-12T11:53:00.002Z</time></trkpt><trkpt lat="42.744241945480354" lon="11.650083473109731"><ele>798.0</ele><time>2026-04-12T11:53:01.002Z</time></trkpt><trkpt lat="42.74423361021518" lon="11.650176905834591"><ele>799.0</ele><time>2026-04-12T11:53:02.002Z</time></trkpt><trkpt lat="42.744213612395264" lon="11.650270543810832"><ele>800.0</ele><time>2026-04-12T11:53:03.002Z</time></trkpt><trkpt lat="42.744179506698295" lon="11.650364449333912"><ele>800.9999999999999</ele><time>2026-04-12T11:53:04.002Z</time></trkpt><trkpt lat="42.74413803681407" lon="11.650430800527873"><ele>802.0</ele><time>2026-04-12T11:53:05.002Z</time></trkpt><trkpt lat="42.74400093097216" lon="11.650478067431456"><ele>801.9999999999999</ele><time>2026-04-12T11:53:07.002Z</time></trkpt><trkpt lat="42.74393300994602" lon="11.650486032861537"><ele>802.0</ele><time>2026-04-12T11:53:08.002Z</time></trkpt><trkpt lat="42.743872290800006" lon="11.650458701791607"><ele>802.0</ele><time>2026-04-12T11:53:09.002Z</time></trkpt><trkpt lat="42.74382262653299" lon="11.650387060059295"><ele>802.0</ele><time>2026-04-12T11:53:10.002Z</time></trkpt><trkpt lat="42.74378891619836" lon="11.650276542740226"><ele>801.9999999999999</ele><time>2026-04-12T11:53:11.002Z</time></trkpt><trkpt lat="42.7437685158968" lon="11.650167403075367"><ele>802.0</ele><time>2026-04-12T11:53:12.002Z</time></trkpt><trkpt lat="42.743747759918115" lon="11.650043351241933"><ele>802.0</ele><time>2026-04-12T11:53:13.002Z</time></trkpt><trkpt lat="42.74372612321403" lon="11.649950274224322"><ele>802.0</ele><time>2026-04-12T11:53:14.002Z</time></trkpt><trkpt lat="42.743669112626435" lon="11.649791351673827"><ele>802.0</ele><time>2026-04-12T11:53:16.003Z</time></trkpt><trkpt lat="42.743635685577125" lon="11.649718515393339"><ele>802.0</ele><time>2026-04-12T11:53:17.003Z</time></trkpt><trkpt lat="42.743580423228984" lon="11.649596408739768"><ele>802.0</ele><time>2026-04-12T11:53:19.003Z</time></trkpt><trkpt lat="42.743522170482244" lon="11.649493789134347"><ele>798.8</ele><time>2026-04-12T11:53:21.003Z</time></trkpt><trkpt lat="42.74344862459329" lon="11.649380827502009"><ele>795.6</ele><time>2026-04-12T11:53:23.003Z</time></trkpt><trkpt lat="42.74339908451533" lon="11.64929594094684"><ele>792.4</ele><time>2026-04-12T11:53:24.003Z</time></trkpt><trkpt lat="42.743364994383214" lon="11.649221610669526"><ele>789.1999999999999</ele><time>2026-04-12T11:53:25.003Z</time></trkpt><trkpt lat="42.74332409946686" lon="11.649081545230722"><ele>786.0</ele><time>2026-04-12T11:53:27.003Z</time></trkpt><trkpt lat="42.743252845953165" lon="11.648999964118696"><ele>786.0</ele><time>2026-04-12T11:53:28.003Z</time></trkpt><trkpt lat="42.74320097079232" lon="11.648933757569184"><ele>786.0</ele><time>2026-04-12T11:53:29.003Z</time></trkpt><trkpt lat="42.743134171519635" lon="11.648866737329415"><ele>786.0</ele><time>2026-04-12T11:53:30.003Z</time></trkpt><trkpt lat="42.74307467152404" lon="11.648804422246045"><ele>786.0</ele><time>2026-04-12T11:53:31.003Z</time></trkpt><trkpt lat="42.74302572555075" lon="11.64873978682903"><ele>786.0</ele><time>2026-04-12T11:53:32.003Z</time></trkpt><trkpt lat="42.742959938972554" lon="11.648678254462512"><ele>786.0</ele><time>2026-04-12T11:53:33.003Z</time></trkpt><trkpt lat="42.74284999644566" lon="11.648563529821317"><ele>784.5</ele><time>2026-04-12T11:53:35.003Z</time></trkpt><trkpt lat="42.74278554688281" lon="11.648496932850673"><ele>783.0</ele><time>2026-04-12T11:53:36.003Z</time></trkpt><trkpt lat="42.74272323130534" lon="11.648442268216478"><ele>781.5</ele><time>2026-04-12T11:53:37.003Z</time></trkpt><trkpt lat="42.742654938205455" lon="11.648387297879975"><ele>780.0</ele><time>2026-04-12T11:53:38.003Z</time></trkpt><trkpt lat="42.74258055464312" lon="11.648334466975381"><ele>778.5</ele><time>2026-04-12T11:53:39.003Z</time></trkpt><trkpt lat="42.742509278576634" lon="11.648269851149468"><ele>777.0</ele><time>2026-04-12T11:53:40.003Z</time></trkpt><trkpt lat="42.742439468572655" lon="11.648210190093899"><ele>776.3333333333334</ele><time>2026-04-12T11:53:40.999Z</time></trkpt><trkpt lat="42.74236521890995" lon="11.648141269572672"><ele>775.6666666666667</ele><time>2026-04-12T11:53:41.999Z</time></trkpt><trkpt lat="42.742288459602115" lon="11.648077509863327"><ele>775.0</ele><time>2026-04-12T11:53:42.999Z</time></trkpt><trkpt lat="42.74221763129098" lon="11.648024154375266"><ele>774.3333333333334</ele><time>2026-04-12T11:53:43.999Z</time></trkpt><trkpt lat="42.742143588432405" lon="11.64796922391055"><ele>773.6666666666667</ele><time>2026-04-12T11:53:44.999Z</time></trkpt><trkpt lat="42.74208682909504" lon="11.647915787788316"><ele>773.0</ele><time>2026-04-12T11:53:45.999Z</time></trkpt><trkpt lat="42.74199269691336" lon="11.647811418903705"><ele>770.1666666666667</ele><time>2026-04-12T11:53:47.999Z</time></trkpt><trkpt lat="42.74192128610199" lon="11.647747824856184"><ele>767.3333333333334</ele><time>2026-04-12T11:53:49.999Z</time></trkpt><trkpt lat="42.741861896155314" lon="11.647687381766671"><ele>764.5</ele><time>2026-04-12T11:53:52Z</time></trkpt><trkpt lat="42.741788019984604" lon="11.647621022598235"><ele>761.6666666666667</ele><time>2026-04-12T11:53:54Z</time></trkpt><trkpt lat="42.74172664088983" lon="11.647575545855792"><ele>758.8333333333334</ele><time>2026-04-12T11:53:56Z</time></trkpt><trkpt lat="42.74163252632642" lon="11.64750198976544"><ele>756.0</ele><time>2026-04-12T11:53:58Z</time></trkpt><trkpt lat="42.741551462451135" lon="11.64744311338674"><ele>755.0</ele><time>2026-04-12T11:54:00Z</time></trkpt><trkpt lat="42.741473430491396" lon="11.647400909299591"><ele>754.0</ele><time>2026-04-12T11:54:02Z</time></trkpt><trkpt lat="42.741421132309355" lon="11.647344992947339"><ele>753.0</ele><time>2026-04-12T11:54:03Z</time></trkpt><trkpt lat="42.74135105893628" lon="11.647236508358304"><ele>752.0</ele><time>2026-04-12T11:54:05Z</time></trkpt><trkpt lat="42.74128500450411" lon="11.64716228652352"><ele>751.0</ele><time>2026-04-12T11:54:07Z</time></trkpt><trkpt lat="42.74120561626786" lon="11.647075417978037"><ele>750.0</ele><time>2026-04-12T11:54:09Z</time></trkpt><trkpt lat="42.741136567008986" lon="11.646978659135065"><ele>746.2</ele><time>2026-04-12T11:54:11Z</time></trkpt><trkpt lat="42.74105990835744" lon="11.64686255507096"><ele>742.4</ele><time>2026-04-12T11:54:13Z</time></trkpt><trkpt lat="42.74099313379958" lon="11.646761226442031"><ele>738.5999999999999</ele><time>2026-04-12T11:54:15.001Z</time></trkpt><trkpt lat="42.740925504411464" lon="11.646666015139301"><ele>734.8</ele><time>2026-04-12T11:54:17.001Z</time></trkpt><trkpt lat="42.74085051342186" lon="11.6465413546987"><ele>731.0</ele><time>2026-04-12T11:54:19.001Z</time></trkpt><trkpt lat="42.74079782619957" lon="11.64645884584989"><ele>730.8333333333333</ele><time>2026-04-12T11:54:21.001Z</time></trkpt><trkpt lat="42.740726147208115" lon="11.646357992223507"><ele>730.6666666666666</ele><time>2026-04-12T11:54:23.001Z</time></trkpt><trkpt lat="42.74066357217644" lon="11.64631065018623"><ele>730.5</ele><time>2026-04-12T11:54:24.001Z</time></trkpt><trkpt lat="42.740584903879125" lon="11.64626434091518"><ele>730.3333333333334</ele><time>2026-04-12T11:54:26.001Z</time></trkpt><trkpt lat="42.74048855557383" lon="11.64622051504734"><ele>730.1666666666667</ele><time>2026-04-12T11:54:28.001Z</time></trkpt><trkpt lat="42.7404329257444" lon="11.646172459457658"><ele>730.0</ele><time>2026-04-12T11:54:29.001Z</time></trkpt><trkpt lat="42.74035639589851" lon="11.646145784809624"><ele>730.0</ele><time>2026-04-12T11:54:30.001Z</time></trkpt><trkpt lat="42.74028898263482" lon="11.646147049755918"><ele>730.0</ele><time>2026-04-12T11:54:31.001Z</time></trkpt><trkpt lat="42.74018089724068" lon="11.646104235662126"><ele>730.0</ele><time>2026-04-12T11:54:33.001Z</time></trkpt><trkpt lat="42.74007528804054" lon="11.646061566743567"><ele>730.0</ele><time>2026-04-12T11:54:35.001Z</time></trkpt><trkpt lat="42.7399741884243" lon="11.6460569001546"><ele>730.0</ele><time>2026-04-12T11:54:37.001Z</time></trkpt><trkpt lat="42.73986369735824" lon="11.646018373484386"><ele>725.8571428571429</ele><time>2026-04-12T11:54:39.001Z</time></trkpt><trkpt lat="42.73978493633259" lon="11.64601685937135"><ele>721.7142857142858</ele><time>2026-04-12T11:54:41.001Z</time></trkpt><trkpt lat="42.73971447630563" lon="11.646022406474536"><ele>717.5714285714287</ele><time>2026-04-12T11:54:43.001Z</time></trkpt><trkpt lat="42.73964722857567" lon="11.646022051281667"><ele>713.4285714285714</ele><time>2026-04-12T11:54:47.002Z</time></trkpt><trkpt lat="42.73957691263494" lon="11.646029941556117"><ele>709.2857142857142</ele><time>2026-04-12T11:54:51.002Z</time></trkpt><trkpt lat="42.73949647482381" lon="11.646047175926663"><ele>705.1428571428572</ele><time>2026-04-12T11:54:54.002Z</time></trkpt><trkpt lat="42.739419346513486" lon="11.64603804882542"><ele>701.0</ele><time>2026-04-12T11:54:59.002Z</time></trkpt><trkpt lat="42.73934161571067" lon="11.646071692056676"><ele>701.8333333333333</ele><time>2026-04-12T11:55:01.002Z</time></trkpt><trkpt lat="42.73925721869571" lon="11.646092391141808"><ele>702.6666666666666</ele><time>2026-04-12T11:55:03.002Z</time></trkpt><trkpt lat="42.739172206381426" lon="11.646120241712453"><ele>703.5</ele><time>2026-04-12T11:55:06.002Z</time></trkpt><trkpt lat="42.739086528927494" lon="11.646152541889137"><ele>704.3333333333334</ele><time>2026-04-12T11:55:08.002Z</time></trkpt><trkpt lat="42.73899527416991" lon="11.646186532468745"><ele>705.1666666666667</ele><time>2026-04-12T11:55:10.002Z</time></trkpt><trkpt lat="42.7389206370509" lon="11.646243414340638"><ele>706.0</ele><time>2026-04-12T11:55:12.002Z</time></trkpt><trkpt lat="42.73884329669807" lon="11.646333058471976"><ele>706.0</ele><time>2026-04-12T11:55:14.002Z</time></trkpt><trkpt lat="42.738801203833255" lon="11.646397657394258"><ele>706.0</ele><time>2026-04-12T11:55:15.002Z</time></trkpt><trkpt lat="42.73873735948181" lon="11.646528355426028"><ele>706.0</ele><time>2026-04-12T11:55:17.002Z</time></trkpt><trkpt lat="42.73865405284541" lon="11.646615147002423"><ele>706.0</ele><time>2026-04-12T11:55:19.003Z</time></trkpt><trkpt lat="42.738548142738445" lon="11.646659312160976"><ele>706.0</ele><time>2026-04-12T11:55:21.003Z</time></trkpt><trkpt lat="42.738468820326595" lon="11.646644993655762"><ele>701.0</ele><time>2026-04-12T11:55:22.003Z</time></trkpt><trkpt lat="42.73839456955711" lon="11.64665516584523"><ele>696.0</ele><time>2026-04-12T11:55:23.003Z</time></trkpt><trkpt lat="42.73828305633098" lon="11.64675110342004"><ele>691.0</ele><time>2026-04-12T11:55:25.003Z</time></trkpt><trkpt lat="42.73821534754912" lon="11.646837953379615"><ele>686.0</ele><time>2026-04-12T11:55:27.003Z</time></trkpt><trkpt lat="42.73813655645277" lon="11.646838919290563"><ele>681.0</ele><time>2026-04-12T11:55:29.003Z</time></trkpt><trkpt lat="42.738095160010964" lon="11.646684767650424"><ele>681.0000000000001</ele><time>2026-04-12T11:55:31.003Z</time></trkpt><trkpt lat="42.73809348707002" lon="11.646596339991264"><ele>681.0</ele><time>2026-04-12T11:55:32.003Z</time></trkpt><trkpt lat="42.738096401575945" lon="11.646490036467464"><ele>681.0</ele><time>2026-04-12T11:55:33.003Z</time></trkpt><trkpt lat="42.73809238308667" lon="11.646395687940961"><ele>681.0</ele><time>2026-04-12T11:55:34.003Z</time></trkpt><trkpt lat="42.738083810024136" lon="11.646309337618248"><ele>681.0</ele><time>2026-04-12T11:55:35.003Z</time></trkpt><trkpt lat="42.73809973692049" lon="11.646161328001352"><ele>681.0000000000001</ele><time>2026-04-12T11:55:37.003Z</time></trkpt><trkpt lat="42.738143452191856" lon="11.646099416486235"><ele>681.0</ele><time>2026-04-12T11:55:38.003Z</time></trkpt><trkpt lat="42.738210884338045" lon="11.646063221725722"><ele>678.0</ele><time>2026-04-12T11:55:39.003Z</time></trkpt><trkpt lat="42.73827478095634" lon="11.646026680409209"><ele>675.0</ele><time>2026-04-12T11:55:40.003Z</time></trkpt><trkpt lat="42.73836759280612" lon="11.64594149437414"><ele>672.0</ele><time>2026-04-12T11:55:42.003Z</time></trkpt><trkpt lat="42.73832134928526" lon="11.645786893788113"><ele>669.0</ele><time>2026-04-12T11:55:44.003Z</time></trkpt><trkpt lat="42.738262111493135" lon="11.645727683187266"><ele>666.0</ele><time>2026-04-12T11:55:45.003Z</time></trkpt><trkpt lat="42.7381976987961" lon="11.645688408570907"><ele>663.0</ele><time>2026-04-12T11:55:46.003Z</time></trkpt><trkpt lat="42.738101703255964" lon="11.645641556335312"><ele>663.0</ele><time>2026-04-12T11:55:47.999Z</time></trkpt><trkpt lat="42.73808011211355" lon="11.645547107351218"><ele>663.0</ele><time>2026-04-12T11:56:04Z</time></trkpt><trkpt lat="42.73814991881543" lon="11.64550592381396"><ele>663.0</ele><time>2026-04-12T11:56:06Z</time></trkpt><trkpt lat="42.73825951617982" lon="11.645469914588213"><ele>663.0</ele><time>2026-04-12T11:56:08Z</time></trkpt><trkpt lat="42.73832551582746" lon="11.645425891833108"><ele>663.0</ele><time>2026-04-12T11:56:09Z</time></trkpt><trkpt lat="42.73841074907801" lon="11.645384053646843"><ele>663.0</ele><time>2026-04-12T11:56:10Z</time></trkpt><trkpt lat="42.73849272709293" lon="11.645298043215933"><ele>661.75</ele><time>2026-04-12T11:56:11Z</time></trkpt><trkpt lat="42.73857815467138" lon="11.645200257729677"><ele>660.5</ele><time>2026-04-12T11:56:12Z</time></trkpt><trkpt lat="42.73866482831572" lon="11.645098234989042"><ele>659.25</ele><time>2026-04-12T11:56:13Z</time></trkpt><trkpt lat="42.738753237585456" lon="11.644991041999301"><ele>658.0</ele><time>2026-04-12T11:56:14Z</time></trkpt><trkpt lat="42.73884426635329" lon="11.64488335580475"><ele>658.0</ele><time>2026-04-12T11:56:15Z</time></trkpt><trkpt lat="42.73893545309267" lon="11.64478301750521"><ele>658.0</ele><time>2026-04-12T11:56:16Z</time></trkpt><trkpt lat="42.73902898818086" lon="11.644703559783322"><ele>658.0</ele><time>2026-04-12T11:56:17Z</time></trkpt><trkpt lat="42.739125744656015" lon="11.644643137859838"><ele>658.0</ele><time>2026-04-12T11:56:18Z</time></trkpt><trkpt lat="42.73921453565714" lon="11.644565441258353"><ele>658.0</ele><time>2026-04-12T11:56:19Z</time></trkpt><trkpt lat="42.73930974351228" lon="11.64450040687512"><ele>656.75</ele><time>2026-04-12T11:56:20Z</time></trkpt><trkpt lat="42.73940179569881" lon="11.644411570549781"><ele>655.5</ele><time>2026-04-12T11:56:21Z</time></trkpt><trkpt lat="42.73951056015988" lon="11.644324263035774"><ele>654.25</ele><time>2026-04-12T11:56:22.001Z</time></trkpt><trkpt lat="42.739599211405505" lon="11.644179392092823"><ele>653.0</ele><time>2026-04-12T11:56:23.001Z</time></trkpt><trkpt lat="42.73969452156486" lon="11.644060729310446"><ele>653.0</ele><time>2026-04-12T11:56:24.001Z</time></trkpt><trkpt lat="42.73978125101073" lon="11.643945783070276"><ele>653.0</ele><time>2026-04-12T11:56:25.001Z</time></trkpt><trkpt lat="42.73985552407344" lon="11.643825198306896"><ele>653.0</ele><time>2026-04-12T11:56:26.001Z</time></trkpt><trkpt lat="42.739914138301835" lon="11.643703499256906"><ele>653.0</ele><time>2026-04-12T11:56:27.001Z</time></trkpt><trkpt lat="42.739977294559495" lon="11.643608338824206"><ele>653.0</ele><time>2026-04-12T11:56:28.001Z</time></trkpt><trkpt lat="42.740029669303404" lon="11.64351440356617"><ele>651.8</ele><time>2026-04-12T11:56:29.001Z</time></trkpt><trkpt lat="42.740072238879556" lon="11.643417787034188"><ele>650.5999999999999</ele><time>2026-04-12T11:56:30.001Z</time></trkpt><trkpt lat="42.74014865314962" lon="11.643354352269883"><ele>649.4000000000001</ele><time>2026-04-12T11:56:31.001Z</time></trkpt><trkpt lat="42.74024689055431" lon="11.643300727079705"><ele>648.2</ele><time>2026-04-12T11:56:32.001Z</time></trkpt><trkpt lat="42.74035015035253" lon="11.64326177729666"><ele>647.0</ele><time>2026-04-12T11:56:33.001Z</time></trkpt><trkpt lat="42.740428751699916" lon="11.64321115519808"><ele>647.0</ele><time>2026-04-12T11:56:34.001Z</time></trkpt><trkpt lat="42.740491802108664" lon="11.643144553337079"><ele>647.0</ele><time>2026-04-12T11:56:35.001Z</time></trkpt><trkpt lat="42.740540553818626" lon="11.643064235789856"><ele>647.0</ele><time>2026-04-12T11:56:36.001Z</time></trkpt><trkpt lat="42.74060295386932" lon="11.642970125383668"><ele>647.0</ele><time>2026-04-12T11:56:37.001Z</time></trkpt><trkpt lat="42.74068896849982" lon="11.642932315915727"><ele>647.0</ele><time>2026-04-12T11:56:38.001Z</time></trkpt><trkpt lat="42.74078834943852" lon="11.64287747080696"><ele>647.0</ele><time>2026-04-12T11:56:39.001Z</time></trkpt><trkpt lat="42.74090867611247" lon="11.642825410581917"><ele>643.3333333333333</ele><time>2026-04-12T11:56:40.001Z</time></trkpt><trkpt lat="42.74104452976258" lon="11.642760309046142"><ele>639.6666666666666</ele><time>2026-04-12T11:56:41.001Z</time></trkpt><trkpt lat="42.74119719947453" lon="11.642717953632468"><ele>636.0</ele><time>2026-04-12T11:56:42.001Z</time></trkpt><trkpt lat="42.74136481838764" lon="11.642669235779064"><ele>636.0</ele><time>2026-04-12T11:56:43.001Z</time></trkpt><trkpt lat="42.74154763584545" lon="11.642593090442077"><ele>636.0</ele><time>2026-04-12T11:56:44.001Z</time></trkpt><trkpt lat="42.74172754128939" lon="11.6425177054852"><ele>636.0</ele><time>2026-04-12T11:56:45.001Z</time></trkpt><trkpt lat="42.74190892588867" lon="11.642418612854602"><ele>640.0</ele><time>2026-04-12T11:56:46.001Z</time></trkpt><trkpt lat="42.74208040608085" lon="11.642311460953527"><ele>644.0</ele><time>2026-04-12T11:56:47.001Z</time></trkpt><trkpt lat="42.74222498743608" lon="11.642233515555402"><ele>648.0</ele><time>2026-04-12T11:56:48.001Z</time></trkpt><trkpt lat="42.74236098352831" lon="11.642160529361368"><ele>648.0</ele><time>2026-04-12T11:56:49.001Z</time></trkpt><trkpt lat="42.742488576216715" lon="11.642078484701486"><ele>648.0</ele><time>2026-04-12T11:56:50.001Z</time></trkpt><trkpt lat="42.74260134076645" lon="11.64197470282641"><ele>648.0</ele><time>2026-04-12T11:56:51.001Z</time></trkpt><trkpt lat="42.742697514646885" lon="11.6418298191682"><ele>648.0</ele><time>2026-04-12T11:56:52.002Z</time></trkpt><trkpt lat="42.742774238518884" lon="11.641644062043932"><ele>648.25</ele><time>2026-04-12T11:56:53.002Z</time></trkpt><trkpt lat="42.7428168262699" lon="11.6414565627658"><ele>648.5</ele><time>2026-04-12T11:56:54.002Z</time></trkpt><trkpt lat="42.74283235323897" lon="11.641254638377452"><ele>648.75</ele><time>2026-04-12T11:56:55.002Z</time></trkpt><trkpt lat="42.74282010590887" lon="11.641067902423863"><ele>649.0</ele><time>2026-04-12T11:56:56.002Z</time></trkpt><trkpt lat="42.74279347909682" lon="11.640896744302436"><ele>645.75</ele><time>2026-04-12T11:56:57.002Z</time></trkpt><trkpt lat="42.742774437631255" lon="11.640733199398513"><ele>642.5</ele><time>2026-04-12T11:56:58.002Z</time></trkpt><trkpt lat="42.742781932799836" lon="11.640583421519295"><ele>639.25</ele><time>2026-04-12T11:56:59.002Z</time></trkpt><trkpt lat="42.74281804243598" lon="11.64043250016853"><ele>636.0</ele><time>2026-04-12T11:57:00.002Z</time></trkpt><trkpt lat="42.74289626153829" lon="11.640281958919596"><ele>633.0</ele><time>2026-04-12T11:57:01.002Z</time></trkpt><trkpt lat="42.7429972248096" lon="11.640126686040922"><ele>630.0</ele><time>2026-04-12T11:57:02.002Z</time></trkpt><trkpt lat="42.74310477621104" lon="11.63996600390385"><ele>627.0</ele><time>2026-04-12T11:57:03.002Z</time></trkpt><trkpt lat="42.74320601121303" lon="11.639817498046764"><ele>627.0</ele><time>2026-04-12T11:57:04.002Z</time></trkpt><trkpt lat="42.743309317529075" lon="11.639666503050426"><ele>627.0</ele><time>2026-04-12T11:57:05.002Z</time></trkpt><trkpt lat="42.7434173156411" lon="11.639508030457177"><ele>627.0</ele><time>2026-04-12T11:57:06.002Z</time></trkpt><trkpt lat="42.743528373764825" lon="11.639347283513898"><ele>626.3333333333334</ele><time>2026-04-12T11:57:07.002Z</time></trkpt><trkpt lat="42.74363930422603" lon="11.639181767262109"><ele>625.6666666666667</ele><time>2026-04-12T11:57:08.002Z</time></trkpt><trkpt lat="42.74375171158344" lon="11.63901838445652"><ele>625.0</ele><time>2026-04-12T11:57:09.002Z</time></trkpt><trkpt lat="42.743860987979396" lon="11.63885415226357"><ele>625.0</ele><time>2026-04-12T11:57:10.002Z</time></trkpt><trkpt lat="42.743969180752" lon="11.638693571328748"><ele>625.0</ele><time>2026-04-12T11:57:11.002Z</time></trkpt><trkpt lat="42.744078457736975" lon="11.638536044593188"><ele>625.0</ele><time>2026-04-12T11:57:12.002Z</time></trkpt><trkpt lat="42.74418070236269" lon="11.638391894709274"><ele>624.25</ele><time>2026-04-12T11:57:13.002Z</time></trkpt><trkpt lat="42.74428009198252" lon="11.638255839654565"><ele>623.5</ele><time>2026-04-12T11:57:14.002Z</time></trkpt><trkpt lat="42.74439612318394" lon="11.63815065350817"><ele>622.75</ele><time>2026-04-12T11:57:15.002Z</time></trkpt><trkpt lat="42.74453039760328" lon="11.638100556483687"><ele>622.0</ele><time>2026-04-12T11:57:16.002Z</time></trkpt><trkpt lat="42.744690927094275" lon="11.638075033228157"><ele>622.0</ele><time>2026-04-12T11:57:17.002Z</time></trkpt><trkpt lat="42.74487302648345" lon="11.638056314471756"><ele>622.0</ele><time>2026-04-12T11:57:18.002Z</time></trkpt><trkpt lat="42.74504367209479" lon="11.6380240014165"><ele>622.0</ele><time>2026-04-12T11:57:19.002Z</time></trkpt><trkpt lat="42.745222084841004" lon="11.63800544344487"><ele>622.3333333333334</ele><time>2026-04-12T11:57:20.002Z</time></trkpt><trkpt lat="42.74540028739748" lon="11.637990360415747"><ele>622.6666666666666</ele><time>2026-04-12T11:57:21.002Z</time></trkpt><trkpt lat="42.74558229057944" lon="11.637993301173209"><ele>623.0</ele><time>2026-04-12T11:57:22.002Z</time></trkpt><trkpt lat="42.74576164107991" lon="11.63805411874953"><ele>623.0</ele><time>2026-04-12T11:57:23.002Z</time></trkpt><trkpt lat="42.7459525971843" lon="11.638117634376016"><ele>623.0</ele><time>2026-04-12T11:57:24.002Z</time></trkpt><trkpt lat="42.746145112361454" lon="11.63816214610669"><ele>623.0</ele><time>2026-04-12T11:57:25.003Z</time></trkpt><trkpt lat="42.74633843290503" lon="11.638194947979152"><ele>621.6666666666666</ele><time>2026-04-12T11:57:26.003Z</time></trkpt><trkpt lat="42.746522997893194" lon="11.638203982579643"><ele>620.3333333333334</ele><time>2026-04-12T11:57:27.003Z</time></trkpt><trkpt lat="42.74669948724742" lon="11.638195023254811"><ele>619.0</ele><time>2026-04-12T11:57:28.003Z</time></trkpt><trkpt lat="42.74686608841349" lon="11.63819152626079"><ele>619.0</ele><time>2026-04-12T11:57:29.003Z</time></trkpt><trkpt lat="42.747025624664545" lon="11.638191397025947"><ele>619.0</ele><time>2026-04-12T11:57:30.003Z</time></trkpt><trkpt lat="42.747190797507706" lon="11.638185980986286"><ele>619.0</ele><time>2026-04-12T11:57:31.003Z</time></trkpt><trkpt lat="42.747357711627586" lon="11.638194877335872"><ele>619.0</ele><time>2026-04-12T11:57:32.003Z</time></trkpt><trkpt lat="42.74753292912113" lon="11.638244416807495"><ele>619.0</ele><time>2026-04-12T11:57:33.003Z</time></trkpt><trkpt lat="42.74770271110788" lon="11.638262050729058"><ele>619.0</ele><time>2026-04-12T11:57:34.003Z</time></trkpt><trkpt lat="42.7478678138587" lon="11.63829374118909"><ele>617.3333333333334</ele><time>2026-04-12T11:57:35.003Z</time></trkpt><trkpt lat="42.74801739341436" lon="11.638346377251281"><ele>615.6666666666666</ele><time>2026-04-12T11:57:36.003Z</time></trkpt><trkpt lat="42.748181245775555" lon="11.638364415553685"><ele>614.0</ele><time>2026-04-12T11:57:37.003Z</time></trkpt><trkpt lat="42.74834732457927" lon="11.638414184641725"><ele>614.0</ele><time>2026-04-12T11:57:38.003Z</time></trkpt><trkpt lat="42.74852102447992" lon="11.638421892187894"><ele>614.0</ele><time>2026-04-12T11:57:39.003Z</time></trkpt><trkpt lat="42.74871605333478" lon="11.638366195914871"><ele>614.0</ele><time>2026-04-12T11:57:40.003Z</time></trkpt><trkpt lat="42.748914084607414" lon="11.6382746001591"><ele>613.3333333333333</ele><time>2026-04-12T11:57:41.003Z</time></trkpt><trkpt lat="42.74910873446053" lon="11.63815479369169"><ele>612.6666666666666</ele><time>2026-04-12T11:57:42.003Z</time></trkpt><trkpt lat="42.74928195641917" lon="11.638090321134907"><ele>612.0</ele><time>2026-04-12T11:57:43.003Z</time></trkpt><trkpt lat="42.749435005665966" lon="11.63799433524072"><ele>612.0</ele><time>2026-04-12T11:57:44.003Z</time></trkpt><trkpt lat="42.749589771526296" lon="11.637931105044997"><ele>612.0</ele><time>2026-04-12T11:57:45.003Z</time></trkpt><trkpt lat="42.7497478994771" lon="11.637914492926525"><ele>612.0</ele><time>2026-04-12T11:57:46.003Z</time></trkpt><trkpt lat="42.749885481359854" lon="11.637923078375964"><ele>612.0</ele><time>2026-04-12T11:57:47.003Z</time></trkpt><trkpt lat="42.7500129763984" lon="11.638001382636414"><ele>612.0</ele><time>2026-04-12T11:57:48.003Z</time></trkpt><trkpt lat="42.75016392235899" lon="11.638105019541982"><ele>612.0</ele><time>2026-04-12T11:57:49.003Z</time></trkpt><trkpt lat="42.750308762302204" lon="11.638204540186887"><ele>612.25</ele><time>2026-04-12T11:57:50.003Z</time></trkpt><trkpt lat="42.75043410716841" lon="11.63827961473992"><ele>612.5</ele><time>2026-04-12T11:57:51.003Z</time></trkpt><trkpt lat="42.750556179739256" lon="11.638317004512217"><ele>612.75</ele><time>2026-04-12T11:57:52.003Z</time></trkpt><trkpt lat="42.75067643677258" lon="11.638312145173499"><ele>613.0</ele><time>2026-04-12T11:57:52.998Z</time></trkpt><trkpt lat="42.75077120027158" lon="11.638257101310833"><ele>613.0</ele><time>2026-04-12T11:57:53.998Z</time></trkpt><trkpt lat="42.750849685548424" lon="11.63817584809211"><ele>613.0</ele><time>2026-04-12T11:57:54.998Z</time></trkpt><trkpt lat="42.7509348624714" lon="11.638054154043932"><ele>613.0</ele><time>2026-04-12T11:57:55.998Z</time></trkpt><trkpt lat="42.751028002588974" lon="11.637913764565548"><ele>613.0</ele><time>2026-04-12T11:57:56.998Z</time></trkpt><trkpt lat="42.75112581354321" lon="11.63775597351335"><ele>610.0</ele><time>2026-04-12T11:57:57.999Z</time></trkpt><trkpt lat="42.75123083793112" lon="11.637595183351198"><ele>607.0</ele><time>2026-04-12T11:57:58.999Z</time></trkpt><trkpt lat="42.75132788585717" lon="11.637420629063092"><ele>604.0</ele><time>2026-04-12T11:57:59.999Z</time></trkpt><trkpt lat="42.75139820605826" lon="11.637214147684842"><ele>604.0</ele><time>2026-04-12T11:58:00.999Z</time></trkpt><trkpt lat="42.751441928696366" lon="11.636970578195164"><ele>604.0</ele><time>2026-04-12T11:58:01.999Z</time></trkpt><trkpt lat="42.75145652433746" lon="11.636762456358742"><ele>604.0</ele><time>2026-04-12T11:58:02.999Z</time></trkpt><trkpt lat="42.751468082461145" lon="11.636624709302286"><ele>604.0</ele><time>2026-04-12T11:58:03.999Z</time></trkpt><trkpt lat="42.75151368279053" lon="11.636449671198537"><ele>603.0</ele><time>2026-04-12T11:58:04.999Z</time></trkpt><trkpt lat="42.75158895123134" lon="11.636283907060818"><ele>602.0</ele><time>2026-04-12T11:58:05.999Z</time></trkpt><trkpt lat="42.75171869162844" lon="11.63621447437714"><ele>601.0</ele><time>2026-04-12T11:58:06.999Z</time></trkpt><trkpt lat="42.75183355180043" lon="11.636185190078821"><ele>600.0</ele><time>2026-04-12T11:58:07.999Z</time></trkpt><trkpt lat="42.751953878227866" lon="11.636198209701943"><ele>597.0</ele><time>2026-04-12T11:58:08.999Z</time></trkpt><trkpt lat="42.75205717611381" lon="11.636294003619147"><ele>594.0</ele><time>2026-04-12T11:58:09.999Z</time></trkpt><trkpt lat="42.75217300320533" lon="11.636379695351021"><ele>591.0</ele><time>2026-04-12T11:58:10.999Z</time></trkpt><trkpt lat="42.752283814322006" lon="11.636470269782974"><ele>588.0</ele><time>2026-04-12T11:58:12Z</time></trkpt><trkpt lat="42.752403954386175" lon="11.63655913578412"><ele>588.0</ele><time>2026-04-12T11:58:13Z</time></trkpt><trkpt lat="42.75252743845579" lon="11.636659925056458"><ele>588.0</ele><time>2026-04-12T11:58:14Z</time></trkpt><trkpt lat="42.75265273899628" lon="11.636773443225152"><ele>588.0</ele><time>2026-04-12T11:58:15Z</time></trkpt><trkpt lat="42.75279054980706" lon="11.636885813973525"><ele>584.3333333333334</ele><time>2026-04-12T11:58:16Z</time></trkpt><trkpt lat="42.75291752598723" lon="11.63702106195005"><ele>580.6666666666667</ele><time>2026-04-12T11:58:17Z</time></trkpt><trkpt lat="42.75305571343461" lon="11.637140824338683"><ele>577.0</ele><time>2026-04-12T11:58:18Z</time></trkpt><trkpt lat="42.75316456094227" lon="11.637302010002447"><ele>577.0</ele><time>2026-04-12T11:58:19Z</time></trkpt><trkpt lat="42.75329593159501" lon="11.637418471926727"><ele>577.0</ele><time>2026-04-12T11:58:20Z</time></trkpt><trkpt lat="42.75342895615573" lon="11.637531656799283"><ele>577.0</ele><time>2026-04-12T11:58:21Z</time></trkpt><trkpt lat="42.7535771144842" lon="11.637626554560077"><ele>577.0</ele><time>2026-04-12T11:58:22Z</time></trkpt><trkpt lat="42.75373856882728" lon="11.637704776771578"><ele>577.0</ele><time>2026-04-12T11:58:23Z</time></trkpt><trkpt lat="42.75390836723325" lon="11.637782258273663"><ele>577.0</ele><time>2026-04-12T11:58:24Z</time></trkpt><trkpt lat="42.754081734795626" lon="11.637860891575324"><ele>577.0</ele><time>2026-04-12T11:58:25Z</time></trkpt><trkpt lat="42.75425748768223" lon="11.637937355846725"><ele>577.0</ele><time>2026-04-12T11:58:26Z</time></trkpt><trkpt lat="42.7544156478288" lon="11.638029301129507"><ele>577.0</ele><time>2026-04-12T11:58:27Z</time></trkpt><trkpt lat="42.75456597298987" lon="11.63810348105108"><ele>574.0</ele><time>2026-04-12T11:58:28Z</time></trkpt><trkpt lat="42.75469597624209" lon="11.638198222185787"><ele>571.0</ele><time>2026-04-12T11:58:29Z</time></trkpt><trkpt lat="42.754827614700616" lon="11.638315881921203"><ele>568.0</ele><time>2026-04-12T11:58:30.001Z</time></trkpt><trkpt lat="42.754933935089475" lon="11.638493173816405"><ele>569.6666666666667</ele><time>2026-04-12T11:58:31.001Z</time></trkpt><trkpt lat="42.75505972904376" lon="11.638650737903403"><ele>571.3333333333334</ele><time>2026-04-12T11:58:32.001Z</time></trkpt><trkpt lat="42.75516984246783" lon="11.638829669450804"><ele>573.0</ele><time>2026-04-12T11:58:33.001Z</time></trkpt><trkpt lat="42.75527644839813" lon="11.638991354718877"><ele>569.3333333333334</ele><time>2026-04-12T11:58:34.001Z</time></trkpt><trkpt lat="42.755384157139005" lon="11.6391489747759"><ele>565.6666666666667</ele><time>2026-04-12T11:58:35.001Z</time></trkpt><trkpt lat="42.755488788681575" lon="11.639303294053217"><ele>562.0</ele><time>2026-04-12T11:58:36.001Z</time></trkpt><trkpt lat="42.75558856040746" lon="11.639454764521242"><ele>563.0</ele><time>2026-04-12T11:58:37.001Z</time></trkpt><trkpt lat="42.755684228573344" lon="11.639601164990882"><ele>564.0</ele><time>2026-04-12T11:58:38.001Z</time></trkpt><trkpt lat="42.75578425049734" lon="11.6397361724608"><ele>565.0</ele><time>2026-04-12T11:58:39.001Z</time></trkpt><trkpt lat="42.755900010115305" lon="11.639827860483523"><ele>566.0</ele><time>2026-04-12T11:58:40.001Z</time></trkpt><trkpt lat="42.756027493072004" lon="11.639871414771516"><ele>565.0</ele><time>2026-04-12T11:58:41.001Z</time></trkpt><trkpt lat="42.756162063768066" lon="11.639858474888118"><ele>564.0</ele><time>2026-04-12T11:58:42.001Z</time></trkpt><trkpt lat="42.75628598892222" lon="11.639800779741297"><ele>563.0</ele><time>2026-04-12T11:58:43.001Z</time></trkpt><trkpt lat="42.75641713248128" lon="11.63971778417159"><ele>562.0</ele><time>2026-04-12T11:58:44.001Z</time></trkpt><trkpt lat="42.75655484730952" lon="11.63961509507035"><ele>562.0</ele><time>2026-04-12T11:58:45.001Z</time></trkpt><trkpt lat="42.75669798988854" lon="11.639534778842354"><ele>562.0</ele><time>2026-04-12T11:58:46.001Z</time></trkpt><trkpt lat="42.75683226436426" lon="11.639464018133317"><ele>562.0</ele><time>2026-04-12T11:58:47.001Z</time></trkpt><trkpt lat="42.75697204587004" lon="11.639421788992207"><ele>562.0</ele><time>2026-04-12T11:58:48.001Z</time></trkpt><trkpt lat="42.757128949600265" lon="11.639436360378603"><ele>559.6666666666667</ele><time>2026-04-12T11:58:49.001Z</time></trkpt><trkpt lat="42.757294877246586" lon="11.639485689291613"><ele>557.3333333333334</ele><time>2026-04-12T11:58:50.001Z</time></trkpt><trkpt lat="42.75746533093253" lon="11.639543878527064"><ele>555.0</ele><time>2026-04-12T11:58:51.001Z</time></trkpt><trkpt lat="42.757635068976555" lon="11.639580519862566"><ele>555.0</ele><time>2026-04-12T11:58:52.001Z</time></trkpt><trkpt lat="42.75780782719935" lon="11.639649250704842"><ele>555.0</ele><time>2026-04-12T11:58:53.001Z</time></trkpt><trkpt lat="42.75797920705087" lon="11.63971387367577"><ele>555.0</ele><time>2026-04-12T11:58:54.001Z</time></trkpt><trkpt lat="42.75813935007248" lon="11.639771349542162"><ele>555.0</ele><time>2026-04-12T11:58:55.001Z</time></trkpt><trkpt lat="42.75829086124086" lon="11.63982457286465"><ele>555.0</ele><time>2026-04-12T11:58:56.001Z</time></trkpt><trkpt lat="42.758432464653154" lon="11.639878545401029"><ele>555.0</ele><time>2026-04-12T11:58:57.002Z</time></trkpt><trkpt lat="42.75856151746073" lon="11.639934528402545"><ele>555.0</ele><time>2026-04-12T11:58:58.002Z</time></trkpt><trkpt lat="42.758672072913306" lon="11.639979315665627"><ele>555.8</ele><time>2026-04-12T11:58:59.002Z</time></trkpt><trkpt lat="42.75878224147772" lon="11.640015655529922"><ele>556.6</ele><time>2026-04-12T11:59:00.002Z</time></trkpt><trkpt lat="42.75888119645347" lon="11.640005838725331"><ele>557.4</ele><time>2026-04-12T11:59:01.002Z</time></trkpt><trkpt lat="42.75897684042418" lon="11.639935176229834"><ele>558.2</ele><time>2026-04-12T11:59:02.002Z</time></trkpt><trkpt lat="42.7590429558168" lon="11.639814421720855"><ele>559.0</ele><time>2026-04-12T11:59:03.002Z</time></trkpt><trkpt lat="42.75908867692545" lon="11.639668948215979"><ele>559.0</ele><time>2026-04-12T11:59:04.002Z</time></trkpt><trkpt lat="42.75914559059314" lon="11.639523195982317"><ele>559.0</ele><time>2026-04-12T11:59:05.002Z</time></trkpt><trkpt lat="42.75921898905814" lon="11.639363594296073"><ele>559.0</ele><time>2026-04-12T11:59:06.002Z</time></trkpt><trkpt lat="42.759281887179974" lon="11.63919787175118"><ele>559.0</ele><time>2026-04-12T11:59:07.002Z</time></trkpt><trkpt lat="42.75932270601231" lon="11.639021529702864"><ele>557.75</ele><time>2026-04-12T11:59:08.002Z</time></trkpt><trkpt lat="42.75932373984375" lon="11.63882270512199"><ele>556.5</ele><time>2026-04-12T11:59:09.002Z</time></trkpt><trkpt lat="42.75930091648488" lon="11.638629491921156"><ele>555.25</ele><time>2026-04-12T11:59:10.002Z</time></trkpt><trkpt lat="42.759288969555314" lon="11.638419431332448"><ele>554.0</ele><time>2026-04-12T11:59:11.002Z</time></trkpt><trkpt lat="42.759268272971674" lon="11.638200863121774"><ele>553.3333333333333</ele><time>2026-04-12T11:59:12.002Z</time></trkpt><trkpt lat="42.75924762403521" lon="11.637976870447199"><ele>552.6666666666666</ele><time>2026-04-12T11:59:13.002Z</time></trkpt><trkpt lat="42.75923232908663" lon="11.637740487090841"><ele>552.0</ele><time>2026-04-12T11:59:14.002Z</time></trkpt><trkpt lat="42.75922902876307" lon="11.63754086569307"><ele>551.75</ele><time>2026-04-12T11:59:15.002Z</time></trkpt><trkpt lat="42.75925660332655" lon="11.637377582894342"><ele>551.5</ele><time>2026-04-12T11:59:16.002Z</time></trkpt><trkpt lat="42.75930981641385" lon="11.637207260327699"><ele>551.25</ele><time>2026-04-12T11:59:17.002Z</time></trkpt><trkpt lat="42.759376043038834" lon="11.637046820318552"><ele>551.0</ele><time>2026-04-12T11:59:18.002Z</time></trkpt><trkpt lat="42.7594513430293" lon="11.636888515000912"><ele>553.25</ele><time>2026-04-12T11:59:19.002Z</time></trkpt><trkpt lat="42.759534437682824" lon="11.63671608908811"><ele>555.5</ele><time>2026-04-12T11:59:20.002Z</time></trkpt><trkpt lat="42.75960265910038" lon="11.63653426317986"><ele>557.75</ele><time>2026-04-12T11:59:21.002Z</time></trkpt><trkpt lat="42.7596943353047" lon="11.63638648308284"><ele>560.0</ele><time>2026-04-12T11:59:22.002Z</time></trkpt><trkpt lat="42.75977283500271" lon="11.636224891971201"><ele>560.5</ele><time>2026-04-12T11:59:23.002Z</time></trkpt><trkpt lat="42.75985278900785" lon="11.636063177751355"><ele>561.0</ele><time>2026-04-12T11:59:24.002Z</time></trkpt><trkpt lat="42.75992030600096" lon="11.635893810967952"><ele>561.5</ele><time>2026-04-12T11:59:25.002Z</time></trkpt><trkpt lat="42.76001053937337" lon="11.635732872702796"><ele>562.0</ele><time>2026-04-12T11:59:26.002Z</time></trkpt><trkpt lat="42.760093629821704" lon="11.635575648744563"><ele>562.0</ele><time>2026-04-12T11:59:27.002Z</time></trkpt><trkpt lat="42.76017569073204" lon="11.635428023756658"><ele>562.0</ele><time>2026-04-12T11:59:28.002Z</time></trkpt><trkpt lat="42.760254189977275" lon="11.63528215748537"><ele>562.0</ele><time>2026-04-12T11:59:29.003Z</time></trkpt><trkpt lat="42.76033274148935" lon="11.63513402826004"><ele>562.0</ele><time>2026-04-12T11:59:30.003Z</time></trkpt><trkpt lat="42.76041327881603" lon="11.634980004369"><ele>566.3333333333334</ele><time>2026-04-12T11:59:31.003Z</time></trkpt><trkpt lat="42.76051543810301" lon="11.634828415891826"><ele>570.6666666666666</ele><time>2026-04-12T11:59:32.003Z</time></trkpt><trkpt lat="42.76059868347516" lon="11.634650228292212"><ele>575.0</ele><time>2026-04-12T11:59:33.003Z</time></trkpt><trkpt lat="42.76069315901981" lon="11.634493938664807"><ele>575.6666666666666</ele><time>2026-04-12T11:59:34.003Z</time></trkpt><trkpt lat="42.76076529096094" lon="11.634395495109342"><ele>576.3333333333333</ele><time>2026-04-12T11:59:35.003Z</time></trkpt><trkpt lat="42.76083870801446" lon="11.634320324192046"><ele>577.0</ele><time>2026-04-12T11:59:36.003Z</time></trkpt><trkpt lat="42.760905714906855" lon="11.63427184900649"><ele>577.6666666666666</ele><time>2026-04-12T11:59:37.003Z</time></trkpt><trkpt lat="42.76096543470661" lon="11.634235576855179"><ele>578.3333333333334</ele><time>2026-04-12T11:59:38.003Z</time></trkpt><trkpt lat="42.76104998374901" lon="11.634239145226156"><ele>579.0</ele><time>2026-04-12T11:59:40.003Z</time></trkpt><trkpt lat="42.761016009559825" lon="11.633967177281585"><ele>579.0</ele><time>2026-04-12T11:59:44.003Z</time></trkpt><trkpt lat="42.76101346713054" lon="11.633859225234584"><ele>579.0</ele><time>2026-04-12T11:59:45.003Z</time></trkpt><trkpt lat="42.761000793424934" lon="11.633741470570348"><ele>579.0</ele><time>2026-04-12T11:59:46.003Z</time></trkpt><trkpt lat="42.76102944541017" lon="11.633597692400537"><ele>579.0</ele><time>2026-04-12T11:59:47.003Z</time></trkpt><trkpt lat="42.76106273044178" lon="11.63344966088794"><ele>579.0</ele><time>2026-04-12T11:59:48.003Z</time></trkpt><trkpt lat="42.76108935098533" lon="11.633303056998328"><ele>579.0</ele><time>2026-04-12T11:59:49.003Z</time></trkpt><trkpt lat="42.76111918364333" lon="11.633157174982403"><ele>579.0</ele><time>2026-04-12T11:59:50.003Z</time></trkpt><trkpt lat="42.76114715613585" lon="11.633024835420038"><ele>579.0</ele><time>2026-04-12T11:59:51.003Z</time></trkpt><trkpt lat="42.761177072175805" lon="11.632898079558375"><ele>579.0</ele><time>2026-04-12T11:59:52.003Z</time></trkpt><trkpt lat="42.761207919458066" lon="11.632765921094673"><ele>579.0</ele><time>2026-04-12T11:59:53.003Z</time></trkpt><trkpt lat="42.761239976099446" lon="11.632626714220626"><ele>579.0</ele><time>2026-04-12T11:59:54.003Z</time></trkpt><trkpt lat="42.761272278296076" lon="11.632474091777112"><ele>579.0</ele><time>2026-04-12T11:59:55.003Z</time></trkpt><trkpt lat="42.76130342333073" lon="11.632331158365314"><ele>579.0</ele><time>2026-04-12T11:59:56.003Z</time></trkpt><trkpt lat="42.76132963753661" lon="11.632202406011167"><ele>579.0</ele><time>2026-04-12T11:59:57.003Z</time></trkpt><trkpt lat="42.761340617317096" lon="11.632071372327554"><ele>579.0</ele><time>2026-04-12T11:59:58.003Z</time></trkpt><trkpt lat="42.76132795769168" lon="11.631937254237023"><ele>576.5</ele><time>2026-04-12T11:59:58.999Z</time></trkpt><trkpt lat="42.76129358233839" lon="11.631802571114122"><ele>574.0</ele><time>2026-04-12T11:59:59.999Z</time></trkpt><trkpt lat="42.76123001240195" lon="11.631673395633086"><ele>571.5</ele><time>2026-04-12T12:00:00.999Z</time></trkpt><trkpt lat="42.761143160403336" lon="11.631552095488354"><ele>569.0</ele><time>2026-04-12T12:00:01.999Z</time></trkpt><trkpt lat="42.76105073954506" lon="11.631438522583391"><ele>567.5</ele><time>2026-04-12T12:00:02.999Z</time></trkpt><trkpt lat="42.76094747727021" lon="11.63131613356215"><ele>566.0</ele><time>2026-04-12T12:00:03.999Z</time></trkpt><trkpt lat="42.760846853760995" lon="11.631196775257552"><ele>564.5</ele><time>2026-04-12T12:00:04.999Z</time></trkpt><trkpt lat="42.760757018493514" lon="11.631086588617249"><ele>563.0</ele><time>2026-04-12T12:00:05.999Z</time></trkpt><trkpt lat="42.76067144216953" lon="11.63098330215897"><ele>561.75</ele><time>2026-04-12T12:00:06.999Z</time></trkpt><trkpt lat="42.76058806109947" lon="11.63087883375382"><ele>560.5</ele><time>2026-04-12T12:00:07.999Z</time></trkpt><trkpt lat="42.760506161233415" lon="11.63076831694777"><ele>559.25</ele><time>2026-04-12T12:00:08.999Z</time></trkpt><trkpt lat="42.76043073577825" lon="11.630642216220057"><ele>558.0</ele><time>2026-04-12T12:00:09.999Z</time></trkpt><trkpt lat="42.760354526440054" lon="11.630509720812107"><ele>558.0</ele><time>2026-04-12T12:00:10.999Z</time></trkpt><trkpt lat="42.760279159228446" lon="11.630374513597243"><ele>558.0</ele><time>2026-04-12T12:00:11.999Z</time></trkpt><trkpt lat="42.7602060784603" lon="11.630225697436206"><ele>558.0</ele><time>2026-04-12T12:00:12.999Z</time></trkpt><trkpt lat="42.76013102293521" lon="11.630076411018065"><ele>558.0</ele><time>2026-04-12T12:00:13.999Z</time></trkpt><trkpt lat="42.760049019938556" lon="11.629908570770143"><ele>556.6666666666666</ele><time>2026-04-12T12:00:15Z</time></trkpt><trkpt lat="42.75996232695734" lon="11.629732258004692"><ele>555.3333333333333</ele><time>2026-04-12T12:00:16Z</time></trkpt><trkpt lat="42.759874683939024" lon="11.62955261796745"><ele>554.0</ele><time>2026-04-12T12:00:17Z</time></trkpt><trkpt lat="42.759799628583764" lon="11.629391173546505"><ele>553.5</ele><time>2026-04-12T12:00:18Z</time></trkpt><trkpt lat="42.75975880957865" lon="11.629220645821276"><ele>553.0</ele><time>2026-04-12T12:00:19Z</time></trkpt><trkpt lat="42.759740217003554" lon="11.629057302757115"><ele>552.5</ele><time>2026-04-12T12:00:20Z</time></trkpt><trkpt lat="42.759719754770245" lon="11.628893474395815"><ele>552.0</ele><time>2026-04-12T12:00:21Z</time></trkpt><trkpt lat="42.75967350983515" lon="11.62875359939269"><ele>550.75</ele><time>2026-04-12T12:00:22Z</time></trkpt><trkpt lat="42.75961131215407" lon="11.628590318795837"><ele>549.5</ele><time>2026-04-12T12:00:23Z</time></trkpt><trkpt lat="42.75952763281195" lon="11.628432437371005"><ele>548.25</ele><time>2026-04-12T12:00:24Z</time></trkpt><trkpt lat="42.75947289552269" lon="11.628255516382476"><ele>547.0</ele><time>2026-04-12T12:00:25Z</time></trkpt><trkpt lat="42.75941542097218" lon="11.62807743482182"><ele>547.0</ele><time>2026-04-12T12:00:26Z</time></trkpt><trkpt lat="42.75937895017474" lon="11.627872459795379"><ele>547.0</ele><time>2026-04-12T12:00:27Z</time></trkpt><trkpt lat="42.759351920424166" lon="11.627667610891852"><ele>547.0</ele><time>2026-04-12T12:00:28Z</time></trkpt><trkpt lat="42.759326475626345" lon="11.627472502944958"><ele>546.5</ele><time>2026-04-12T12:00:29Z</time></trkpt><trkpt lat="42.75930387425199" lon="11.627280334808063"><ele>546.0</ele><time>2026-04-12T12:00:30Z</time></trkpt><trkpt lat="42.75928360903301" lon="11.627082326729726"><ele>545.5</ele><time>2026-04-12T12:00:31Z</time></trkpt><trkpt lat="42.75926203901464" lon="11.626867016005198"><ele>545.0</ele><time>2026-04-12T12:00:32Z</time></trkpt><trkpt lat="42.759236237905036" lon="11.626640176729845"><ele>545.0</ele><time>2026-04-12T12:00:33Z</time></trkpt><trkpt lat="42.75920008118125" lon="11.626411288039352"><ele>545.0</ele><time>2026-04-12T12:00:34.001Z</time></trkpt><trkpt lat="42.75918375725449" lon="11.626199420010648"><ele>545.0</ele><time>2026-04-12T12:00:35.001Z</time></trkpt><trkpt lat="42.75916035679823" lon="11.626021912591296"><ele>545.0</ele><time>2026-04-12T12:00:36.001Z</time></trkpt><trkpt lat="42.75912596523314" lon="11.62584007922722"><ele>545.0</ele><time>2026-04-12T12:00:37.001Z</time></trkpt><trkpt lat="42.75906470635065" lon="11.625639940773256"><ele>545.0</ele><time>2026-04-12T12:00:38.001Z</time></trkpt><trkpt lat="42.75899159269751" lon="11.625439585288145"><ele>542.0</ele><time>2026-04-12T12:00:39.001Z</time></trkpt><trkpt lat="42.758914691367714" lon="11.625249440856111"><ele>539.0</ele><time>2026-04-12T12:00:40.001Z</time></trkpt><trkpt lat="42.758826870423654" lon="11.6250829905778"><ele>536.0</ele><time>2026-04-12T12:00:41.001Z</time></trkpt><trkpt lat="42.75875591018147" lon="11.624909590779096"><ele>536.0</ele><time>2026-04-12T12:00:42.001Z</time></trkpt><trkpt lat="42.758677869438756" lon="11.62474782612572"><ele>536.0</ele><time>2026-04-12T12:00:43.001Z</time></trkpt><trkpt lat="42.75858664954543" lon="11.624611003562414"><ele>536.0</ele><time>2026-04-12T12:00:44.001Z</time></trkpt><trkpt lat="42.7584783528308" lon="11.6244868607287"><ele>536.0</ele><time>2026-04-12T12:00:45.001Z</time></trkpt><trkpt lat="42.75836740371854" lon="11.624351975972784"><ele>534.25</ele><time>2026-04-12T12:00:46.001Z</time></trkpt><trkpt lat="42.75825878040745" lon="11.624225446839771"><ele>532.5</ele><time>2026-04-12T12:00:47.001Z</time></trkpt><trkpt lat="42.75816341109972" lon="11.624081181627862"><ele>530.75</ele><time>2026-04-12T12:00:48.001Z</time></trkpt><trkpt lat="42.75803939886472" lon="11.623980939842339"><ele>529.0</ele><time>2026-04-12T12:00:49.001Z</time></trkpt><trkpt lat="42.75792720270759" lon="11.623867235506031"><ele>529.0</ele><time>2026-04-12T12:00:50.001Z</time></trkpt><trkpt lat="42.757807138399976" lon="11.623772903462083"><ele>529.0</ele><time>2026-04-12T12:00:51.001Z</time></trkpt><trkpt lat="42.757701869071454" lon="11.62365247903721"><ele>529.0</ele><time>2026-04-12T12:00:52.001Z</time></trkpt><trkpt lat="42.75759875682685" lon="11.623546421553995"><ele>529.0</ele><time>2026-04-12T12:00:53.001Z</time></trkpt><trkpt lat="42.75750523151087" lon="11.6234032463079"><ele>526.25</ele><time>2026-04-12T12:00:54.001Z</time></trkpt><trkpt lat="42.757417822018766" lon="11.623229410984285"><ele>523.5</ele><time>2026-04-12T12:00:55.001Z</time></trkpt><trkpt lat="42.757341447965565" lon="11.623046897635644"><ele>520.75</ele><time>2026-04-12T12:00:56.001Z</time></trkpt><trkpt lat="42.75729593458372" lon="11.622870191871296"><ele>518.0</ele><time>2026-04-12T12:00:57.001Z</time></trkpt><trkpt lat="42.757271804330344" lon="11.622684541631862"><ele>516.3333333333333</ele><time>2026-04-12T12:00:58.001Z</time></trkpt><trkpt lat="42.757252800901014" lon="11.622485904974203"><ele>514.6666666666666</ele><time>2026-04-12T12:00:59.001Z</time></trkpt><trkpt lat="42.75723677371992" lon="11.62228052886664"><ele>513.0</ele><time>2026-04-12T12:01:00.001Z</time></trkpt><trkpt lat="42.75722048536278" lon="11.62205294216281"><ele>512.0</ele><time>2026-04-12T12:01:01.001Z</time></trkpt><trkpt lat="42.75720900802363" lon="11.621825652631227"><ele>511.0</ele><time>2026-04-12T12:01:02.002Z</time></trkpt><trkpt lat="42.757212319172844" lon="11.621606519789486"><ele>510.0</ele><time>2026-04-12T12:01:03.002Z</time></trkpt><trkpt lat="42.75721564009921" lon="11.621395961665772"><ele>510.0</ele><time>2026-04-12T12:01:04.002Z</time></trkpt><trkpt lat="42.75719984815923" lon="11.621201150921099"><ele>510.0</ele><time>2026-04-12T12:01:05.002Z</time></trkpt><trkpt lat="42.757165158262886" lon="11.621015286126386"><ele>510.0</ele><time>2026-04-12T12:01:06.002Z</time></trkpt><trkpt lat="42.757140460622985" lon="11.620839941337339"><ele>510.0</ele><time>2026-04-12T12:01:07.002Z</time></trkpt><trkpt lat="42.75713231456671" lon="11.620710632339799"><ele>510.0</ele><time>2026-04-12T12:01:08.002Z</time></trkpt><trkpt lat="42.757140099413384" lon="11.620588252344806"><ele>510.0</ele><time>2026-04-12T12:01:09.002Z</time></trkpt><trkpt lat="42.75717754947993" lon="11.62043641506796"><ele>510.0</ele><time>2026-04-12T12:01:10.002Z</time></trkpt><trkpt lat="42.75723105692182" lon="11.620252619256892"><ele>510.0</ele><time>2026-04-12T12:01:11.002Z</time></trkpt><trkpt lat="42.757297752058555" lon="11.620042631555751"><ele>509.75</ele><time>2026-04-12T12:01:12.002Z</time></trkpt><trkpt lat="42.757359816084474" lon="11.61985136906764"><ele>509.5</ele><time>2026-04-12T12:01:13.002Z</time></trkpt><trkpt lat="42.757413476859966" lon="11.619692871233214"><ele>509.25</ele><time>2026-04-12T12:01:14.002Z</time></trkpt><trkpt lat="42.7574528541126" lon="11.619544357002402"><ele>509.0</ele><time>2026-04-12T12:01:15.002Z</time></trkpt><trkpt lat="42.757513223234696" lon="11.619396726894818"><ele>508.0</ele><time>2026-04-12T12:01:16.002Z</time></trkpt><trkpt lat="42.75754207834196" lon="11.619227480311556"><ele>507.0</ele><time>2026-04-12T12:01:17.002Z</time></trkpt><trkpt lat="42.75757260776206" lon="11.619054886029364"><ele>506.0</ele><time>2026-04-12T12:01:18.002Z</time></trkpt><trkpt lat="42.75757248627336" lon="11.618859943445957"><ele>505.0</ele><time>2026-04-12T12:01:19.002Z</time></trkpt><trkpt lat="42.757550767029535" lon="11.61867070008314"><ele>502.75</ele><time>2026-04-12T12:01:20.002Z</time></trkpt><trkpt lat="42.757520150802286" lon="11.61848850423492"><ele>500.5</ele><time>2026-04-12T12:01:21.002Z</time></trkpt><trkpt lat="42.75746940874889" lon="11.61831728133492"><ele>498.25</ele><time>2026-04-12T12:01:22.002Z</time></trkpt><trkpt lat="42.75740965268219" lon="11.618146699031563"><ele>496.0</ele><time>2026-04-12T12:01:23.002Z</time></trkpt><trkpt lat="42.75734215077052" lon="11.61798914189778"><ele>496.0</ele><time>2026-04-12T12:01:24.002Z</time></trkpt><trkpt lat="42.75729588150031" lon="11.617829251175856"><ele>496.0</ele><time>2026-04-12T12:01:25.002Z</time></trkpt><trkpt lat="42.75727383913226" lon="11.617650054884658"><ele>496.0</ele><time>2026-04-12T12:01:26.002Z</time></trkpt><trkpt lat="42.75727718950139" lon="11.61744053983247"><ele>496.0</ele><time>2026-04-12T12:01:27.002Z</time></trkpt><trkpt lat="42.75729354092287" lon="11.617211556988583"><ele>493.5</ele><time>2026-04-12T12:01:28.002Z</time></trkpt><trkpt lat="42.757312849209576" lon="11.616995343264461"><ele>491.0</ele><time>2026-04-12T12:01:29.002Z</time></trkpt><trkpt lat="42.757318293612016" lon="11.616796932811553"><ele>488.5</ele><time>2026-04-12T12:01:30.002Z</time></trkpt><trkpt lat="42.75734873736689" lon="11.616616115909686"><ele>486.0</ele><time>2026-04-12T12:01:31.002Z</time></trkpt><trkpt lat="42.757364848824245" lon="11.616448736909778"><ele>485.4</ele><time>2026-04-12T12:01:32.002Z</time></trkpt><trkpt lat="42.75737635000951" lon="11.616300669955336"><ele>484.8</ele><time>2026-04-12T12:01:33.002Z</time></trkpt><trkpt lat="42.7573819672759" lon="11.616161740422285"><ele>484.19999999999993</ele><time>2026-04-12T12:01:34.002Z</time></trkpt><trkpt lat="42.75734640456191" lon="11.616018649507565"><ele>483.59999999999997</ele><time>2026-04-12T12:01:35.003Z</time></trkpt><trkpt lat="42.75729914450928" lon="11.61585817493931"><ele>483.0</ele><time>2026-04-12T12:01:36.003Z</time></trkpt><trkpt lat="42.757226902378655" lon="11.615687166768714"><ele>480.75</ele><time>2026-04-12T12:01:37.003Z</time></trkpt><trkpt lat="42.75714574135225" lon="11.615519891793882"><ele>478.5</ele><time>2026-04-12T12:01:38.003Z</time></trkpt><trkpt lat="42.757085173324654" lon="11.615363926701884"><ele>476.25</ele><time>2026-04-12T12:01:39.003Z</time></trkpt><trkpt lat="42.757018937437834" lon="11.61522287439996"><ele>474.0</ele><time>2026-04-12T12:01:40.003Z</time></trkpt><trkpt lat="42.75694609229703" lon="11.615077133226123"><ele>473.25</ele><time>2026-04-12T12:01:41.003Z</time></trkpt><trkpt lat="42.75685315799322" lon="11.614958396293577"><ele>472.5</ele><time>2026-04-12T12:01:42.003Z</time></trkpt><trkpt lat="42.75674945990317" lon="11.614844819769965"><ele>471.75</ele><time>2026-04-12T12:01:43.003Z</time></trkpt><trkpt lat="42.75665595790002" lon="11.614703199707227"><ele>471.0</ele><time>2026-04-12T12:01:44.003Z</time></trkpt><trkpt lat="42.75655749298122" lon="11.614569757289825"><ele>469.0</ele><time>2026-04-12T12:01:45.003Z</time></trkpt><trkpt lat="42.75647190991866" lon="11.614438072139349"><ele>467.0</ele><time>2026-04-12T12:01:46.003Z</time></trkpt><trkpt lat="42.756382819616604" lon="11.614323442653578"><ele>465.0</ele><time>2026-04-12T12:01:47.003Z</time></trkpt><trkpt lat="42.756300085781355" lon="11.614191833532542"><ele>463.0</ele><time>2026-04-12T12:01:48.003Z</time></trkpt><trkpt lat="42.75622270240734" lon="11.614064159318623"><ele>463.0</ele><time>2026-04-12T12:01:49.003Z</time></trkpt><trkpt lat="42.75614586448322" lon="11.6139403987723"><ele>463.0</ele><time>2026-04-12T12:01:50.003Z</time></trkpt><trkpt lat="42.75608442706599" lon="11.613805651518321"><ele>463.0</ele><time>2026-04-12T12:01:51.003Z</time></trkpt><trkpt lat="42.75600591170759" lon="11.613692356436976"><ele>463.0</ele><time>2026-04-12T12:01:52.003Z</time></trkpt><trkpt lat="42.75595108270078" lon="11.613558360826913"><ele>461.79999999999995</ele><time>2026-04-12T12:01:53.003Z</time></trkpt><trkpt lat="42.75587350990749" lon="11.613449206303057"><ele>460.59999999999997</ele><time>2026-04-12T12:01:54.003Z</time></trkpt><trkpt lat="42.75580940156653" lon="11.613322115607728"><ele>459.40000000000003</ele><time>2026-04-12T12:01:55.003Z</time></trkpt><trkpt lat="42.75573165368251" lon="11.613205612377737"><ele>458.20000000000005</ele><time>2026-04-12T12:01:56.003Z</time></trkpt><trkpt lat="42.755661980786115" lon="11.61310893527106"><ele>457.0</ele><time>2026-04-12T12:01:57.003Z</time></trkpt><trkpt lat="42.7556076279252" lon="11.613027923586634"><ele>457.00000000000006</ele><time>2026-04-12T12:01:58.003Z</time></trkpt><trkpt lat="42.75556559266071" lon="11.612945894729288"><ele>457.0</ele><time>2026-04-12T12:01:59.003Z</time></trkpt><trkpt lat="42.75554512176071" lon="11.612850845687364"><ele>457.0</ele><time>2026-04-12T12:02:00.003Z</time></trkpt><trkpt lat="42.75556820333487" lon="11.612734138529007"><ele>457.0</ele><time>2026-04-12T12:02:01.003Z</time></trkpt><trkpt lat="42.7556416522039" lon="11.612638252196719"><ele>457.00000000000006</ele><time>2026-04-12T12:02:02.003Z</time></trkpt><trkpt lat="42.75571852170498" lon="11.61255727204174"><ele>457.0</ele><time>2026-04-12T12:02:03.003Z</time></trkpt><trkpt lat="42.75582696119055" lon="11.612497836321523"><ele>453.5</ele><time>2026-04-12T12:02:04.003Z</time></trkpt><trkpt lat="42.75593621323354" lon="11.61241195970501"><ele>450.0</ele><time>2026-04-12T12:02:04.999Z</time></trkpt><trkpt lat="42.75603203552809" lon="11.612289403663485"><ele>446.5</ele><time>2026-04-12T12:02:05.999Z</time></trkpt><trkpt lat="42.75611666618672" lon="11.61219951990533"><ele>443.0</ele><time>2026-04-12T12:02:06.999Z</time></trkpt><trkpt lat="42.75618613031082" lon="11.612120266091786"><ele>441.8333333333333</ele><time>2026-04-12T12:02:07.999Z</time></trkpt><trkpt lat="42.75625175888774" lon="11.612056514755285"><ele>440.66666666666663</ele><time>2026-04-12T12:02:08.999Z</time></trkpt><trkpt lat="42.75631380116743" lon="11.612021120201444"><ele>439.5</ele><time>2026-04-12T12:02:09.999Z</time></trkpt><trkpt lat="42.75637757881465" lon="11.612001340341862"><ele>438.33333333333337</ele><time>2026-04-12T12:02:10.999Z</time></trkpt><trkpt lat="42.75645862340963" lon="11.612041801634707"><ele>437.1666666666667</ele><time>2026-04-12T12:02:11.999Z</time></trkpt><trkpt lat="42.75654346746984" lon="11.612104486369255"><ele>436.0</ele><time>2026-04-12T12:02:12.999Z</time></trkpt><trkpt lat="42.75662065528402" lon="11.612155654807024"><ele>436.00000000000006</ele><time>2026-04-12T12:02:13.999Z</time></trkpt><trkpt lat="42.75669929234478" lon="11.612190122167435"><ele>436.0</ele><time>2026-04-12T12:02:14.999Z</time></trkpt><trkpt lat="42.756767082645744" lon="11.61219528072267"><ele>436.0</ele><time>2026-04-12T12:02:15.999Z</time></trkpt><trkpt lat="42.756825852333876" lon="11.612163826507793"><ele>436.0</ele><time>2026-04-12T12:02:16.999Z</time></trkpt><trkpt lat="42.756865139515796" lon="11.612075264166778"><ele>436.00000000000006</ele><time>2026-04-12T12:02:17.999Z</time></trkpt><trkpt lat="42.75686165988357" lon="11.611960368920334"><ele>436.0</ele><time>2026-04-12T12:02:18.999Z</time></trkpt><trkpt lat="42.75681965710711" lon="11.611872150071864"><ele>433.20000000000005</ele><time>2026-04-12T12:02:20Z</time></trkpt><trkpt lat="42.75675956400961" lon="11.611756078862664"><ele>430.40000000000003</ele><time>2026-04-12T12:02:21Z</time></trkpt><trkpt lat="42.756711552524706" lon="11.611616888792836"><ele>427.6</ele><time>2026-04-12T12:02:22Z</time></trkpt><trkpt lat="42.756667066076496" lon="11.61147459089554"><ele>424.8</ele><time>2026-04-12T12:02:23Z</time></trkpt><trkpt lat="42.75663974547067" lon="11.611328636859765"><ele>422.0</ele><time>2026-04-12T12:02:24Z</time></trkpt><trkpt lat="42.75664935086613" lon="11.611194059185403"><ele>421.0</ele><time>2026-04-12T12:02:25Z</time></trkpt><trkpt lat="42.75666752570897" lon="11.611042178293621"><ele>420.0</ele><time>2026-04-12T12:02:26Z</time></trkpt><trkpt lat="42.75678220067796" lon="11.610933786116433"><ele>419.0</ele><time>2026-04-12T12:02:27Z</time></trkpt><trkpt lat="42.756894988029444" lon="11.610807549294682"><ele>418.0</ele><time>2026-04-12T12:02:28Z</time></trkpt><trkpt lat="42.75696817462219" lon="11.610694641321878"><ele>414.4</ele><time>2026-04-12T12:02:29Z</time></trkpt><trkpt lat="42.75704085583516" lon="11.610610325744307"><ele>410.79999999999995</ele><time>2026-04-12T12:02:30Z</time></trkpt><trkpt lat="42.75711206231216" lon="11.61052722396322"><ele>407.2</ele><time>2026-04-12T12:02:31Z</time></trkpt><trkpt lat="42.75720064123107" lon="11.61045653965015"><ele>403.6</ele><time>2026-04-12T12:02:32Z</time></trkpt><trkpt lat="42.757327979942055" lon="11.61044851112155"><ele>400.0</ele><time>2026-04-12T12:02:33Z</time></trkpt><trkpt lat="42.7574464424989" lon="11.610427430838717"><ele>400.0</ele><time>2026-04-12T12:02:34Z</time></trkpt><trkpt lat="42.75754562447921" lon="11.610408127209155"><ele>400.0</ele><time>2026-04-12T12:02:35Z</time></trkpt><trkpt lat="42.757623338363025" lon="11.610394219597357"><ele>400.0</ele><time>2026-04-12T12:02:36Z</time></trkpt><trkpt lat="42.75774489691125" lon="11.610391833763243"><ele>400.0</ele><time>2026-04-12T12:02:38Z</time></trkpt><trkpt lat="42.757838542488486" lon="11.610566912806618"><ele>397.2</ele><time>2026-04-12T12:02:40Z</time></trkpt><trkpt lat="42.75783375124644" lon="11.610707256853587"><ele>394.4</ele><time>2026-04-12T12:02:41.001Z</time></trkpt><trkpt lat="42.757832789614035" lon="11.61083443739471"><ele>391.6</ele><time>2026-04-12T12:02:42.001Z</time></trkpt><trkpt lat="42.75783661870193" lon="11.610932970218055"><ele>388.8</ele><time>2026-04-12T12:02:43.001Z</time></trkpt><trkpt lat="42.75787229482574" lon="11.611088773231593"><ele>386.0</ele><time>2026-04-12T12:02:45.001Z</time></trkpt><trkpt lat="42.757950695726414" lon="11.611118352338185"><ele>386.0</ele><time>2026-04-12T12:02:46.001Z</time></trkpt><trkpt lat="42.75804308361318" lon="11.611116321582404"><ele>386.0</ele><time>2026-04-12T12:02:47.001Z</time></trkpt><trkpt lat="42.75816523915214" lon="11.611054374377815"><ele>386.0</ele><time>2026-04-12T12:02:48.001Z</time></trkpt><trkpt lat="42.75827396691515" lon="11.610968867966054"><ele>386.0</ele><time>2026-04-12T12:02:49.001Z</time></trkpt><trkpt lat="42.7583519912094" lon="11.610880238834133"><ele>386.0</ele><time>2026-04-12T12:02:50.001Z</time></trkpt><trkpt lat="42.75839844117806" lon="11.610776573388948"><ele>386.0</ele><time>2026-04-12T12:02:51.001Z</time></trkpt><trkpt lat="42.7584468577485" lon="11.610659555311114"><ele>386.0</ele><time>2026-04-12T12:02:52.001Z</time></trkpt><trkpt lat="42.758430596004374" lon="11.610478528973108"><ele>386.0</ele><time>2026-04-12T12:02:53.001Z</time></trkpt><trkpt lat="42.758417222596506" lon="11.610278898108927"><ele>384.0</ele><time>2026-04-12T12:02:54.001Z</time></trkpt><trkpt lat="42.7584133110739" lon="11.610068164816562"><ele>382.0</ele><time>2026-04-12T12:02:55.001Z</time></trkpt><trkpt lat="42.758399151351746" lon="11.609871026589197"><ele>380.0</ele><time>2026-04-12T12:02:56.001Z</time></trkpt><trkpt lat="42.75839445801272" lon="11.609688695936914"><ele>378.0</ele><time>2026-04-12T12:02:57.001Z</time></trkpt><trkpt lat="42.75839312049462" lon="11.609512719452292"><ele>377.2</ele><time>2026-04-12T12:02:58.001Z</time></trkpt><trkpt lat="42.75838759473723" lon="11.609344229215571"><ele>376.4</ele><time>2026-04-12T12:02:59.001Z</time></trkpt><trkpt lat="42.75837899230893" lon="11.609204692660903"><ele>375.59999999999997</ele><time>2026-04-12T12:03:00.001Z</time></trkpt><trkpt lat="42.75836567235045" lon="11.609073613758161"><ele>374.79999999999995</ele><time>2026-04-12T12:03:01.001Z</time></trkpt><trkpt lat="42.75836246416176" lon="11.60897908845617"><ele>374.0</ele><time>2026-04-12T12:03:02.001Z</time></trkpt><trkpt lat="42.758379271905866" lon="11.608878062958388"><ele>374.0</ele><time>2026-04-12T12:03:03.001Z</time></trkpt><trkpt lat="42.758438579337515" lon="11.608782882122288"><ele>374.0</ele><time>2026-04-12T12:03:04.001Z</time></trkpt><trkpt lat="42.75852653523619" lon="11.608724325350675"><ele>374.0</ele><time>2026-04-12T12:03:05.001Z</time></trkpt><trkpt lat="42.75862578248613" lon="11.608728665051306"><ele>374.0</ele><time>2026-04-12T12:03:06.001Z</time></trkpt><trkpt lat="42.758716785232146" lon="11.608719015710452"><ele>374.0</ele><time>2026-04-12T12:03:07.001Z</time></trkpt><trkpt lat="42.758783778081195" lon="11.608689583020219"><ele>370.4</ele><time>2026-04-12T12:03:08.001Z</time></trkpt><trkpt lat="42.7588471048957" lon="11.608612803416188"><ele>366.79999999999995</ele><time>2026-04-12T12:03:09.001Z</time></trkpt><trkpt lat="42.75886421034188" lon="11.608509588030175"><ele>363.20000000000005</ele><time>2026-04-12T12:03:10.002Z</time></trkpt><trkpt lat="42.75885705430283" lon="11.608413159540257"><ele>359.6</ele><time>2026-04-12T12:03:11.002Z</time></trkpt><trkpt lat="42.75876297445848" lon="11.60833640253686"><ele>356.0</ele><time>2026-04-12T12:03:12.002Z</time></trkpt><trkpt lat="42.75865315254008" lon="11.608289273597567"><ele>356.0</ele><time>2026-04-12T12:03:13.002Z</time></trkpt><trkpt lat="42.75854938373595" lon="11.6082219898649"><ele>356.0</ele><time>2026-04-12T12:03:14.002Z</time></trkpt><trkpt lat="42.758452047725235" lon="11.608172643860508"><ele>356.0</ele><time>2026-04-12T12:03:15.002Z</time></trkpt><trkpt lat="42.75837308939481" lon="11.608112315704451"><ele>356.0</ele><time>2026-04-12T12:03:16.002Z</time></trkpt><trkpt lat="42.75828989432859" lon="11.608044148488409"><ele>356.0</ele><time>2026-04-12T12:03:17.002Z</time></trkpt><trkpt lat="42.75823866151949" lon="11.607888535093748"><ele>355.0</ele><time>2026-04-12T12:03:18.002Z</time></trkpt><trkpt lat="42.75824218153672" lon="11.60771025831227"><ele>354.0</ele><time>2026-04-12T12:03:19.002Z</time></trkpt><trkpt lat="42.75827822826863" lon="11.607539094517636"><ele>353.0</ele><time>2026-04-12T12:03:20.002Z</time></trkpt><trkpt lat="42.75834555642847" lon="11.607362376249295"><ele>352.0</ele><time>2026-04-12T12:03:21.002Z</time></trkpt><trkpt lat="42.75840354878306" lon="11.607167199953459"><ele>352.66666666666663</ele><time>2026-04-12T12:03:22.002Z</time></trkpt><trkpt lat="42.75848666283224" lon="11.606970424321462"><ele>353.3333333333333</ele><time>2026-04-12T12:03:23.002Z</time></trkpt><trkpt lat="42.75856690820131" lon="11.60675143216488"><ele>354.0</ele><time>2026-04-12T12:03:24.002Z</time></trkpt><trkpt lat="42.758641546430034" lon="11.60653188485904"><ele>354.0</ele><time>2026-04-12T12:03:25.002Z</time></trkpt><trkpt lat="42.75870433179778" lon="11.606332873827132"><ele>354.0</ele><time>2026-04-12T12:03:26.002Z</time></trkpt><trkpt lat="42.75875114678095" lon="11.60612322118908"><ele>354.0</ele><time>2026-04-12T12:03:27.002Z</time></trkpt><trkpt lat="42.75878919685514" lon="11.605901038659708"><ele>355.3333333333333</ele><time>2026-04-12T12:03:28.002Z</time></trkpt><trkpt lat="42.758818303502046" lon="11.605672563151549"><ele>356.66666666666663</ele><time>2026-04-12T12:03:29.002Z</time></trkpt><trkpt lat="42.7588383858039" lon="11.605464953551886"><ele>358.0</ele><time>2026-04-12T12:03:30.002Z</time></trkpt><trkpt lat="42.758864008844135" lon="11.605274512984495"><ele>358.5</ele><time>2026-04-12T12:03:31.002Z</time></trkpt><trkpt lat="42.75889053879245" lon="11.60508571518194"><ele>359.0</ele><time>2026-04-12T12:03:32.002Z</time></trkpt><trkpt lat="42.75890932678074" lon="11.604878751559118"><ele>359.5</ele><time>2026-04-12T12:03:33.002Z</time></trkpt><trkpt lat="42.758943317847226" lon="11.604683832422973"><ele>360.0</ele><time>2026-04-12T12:03:34.002Z</time></trkpt><trkpt lat="42.75896475628953" lon="11.60452018398594"><ele>359.0</ele><time>2026-04-12T12:03:35.002Z</time></trkpt><trkpt lat="42.75898723908682" lon="11.60436469783147"><ele>358.0</ele><time>2026-04-12T12:03:36.002Z</time></trkpt><trkpt lat="42.75900269203333" lon="11.604199591921157"><ele>357.0</ele><time>2026-04-12T12:03:37.002Z</time></trkpt><trkpt lat="42.759056516885664" lon="11.604028057957578"><ele>356.0</ele><time>2026-04-12T12:03:38.002Z</time></trkpt><trkpt lat="42.75912540611581" lon="11.603846670503106"><ele>356.0</ele><time>2026-04-12T12:03:39.002Z</time></trkpt><trkpt lat="42.75919208011588" lon="11.603678463822057"><ele>356.0</ele><time>2026-04-12T12:03:40.002Z</time></trkpt><trkpt lat="42.759248765832055" lon="11.603536926971772"><ele>356.0</ele><time>2026-04-12T12:03:41.002Z</time></trkpt><trkpt lat="42.75929059575734" lon="11.603413948172507"><ele>356.0</ele><time>2026-04-12T12:03:42.002Z</time></trkpt><trkpt lat="42.7593143119195" lon="11.603308472486992"><ele>356.0</ele><time>2026-04-12T12:03:43.003Z</time></trkpt><trkpt lat="42.75932704959115" lon="11.603211677779784"><ele>355.0</ele><time>2026-04-12T12:03:44.003Z</time></trkpt><trkpt lat="42.75932660442483" lon="11.603125170154417"><ele>354.0</ele><time>2026-04-12T12:03:45.003Z</time></trkpt><trkpt lat="42.75932500843398" lon="11.603018195748096"><ele>353.0</ele><time>2026-04-12T12:03:47.003Z</time></trkpt><trkpt lat="42.759349048555116" lon="11.602932546999659"><ele>352.0</ele><time>2026-04-12T12:03:50.003Z</time></trkpt><trkpt lat="42.75931958938862" lon="11.602855378723358"><ele>351.0</ele><time>2026-04-12T12:05:54.003Z</time></trkpt><trkpt lat="42.759286607473726" lon="11.602767929341928"><ele>350.0</ele><time>2026-04-12T12:05:56.003Z</time></trkpt><trkpt lat="42.75920710834777" lon="11.602631179666036"><ele>349.2</ele><time>2026-04-12T12:05:58.003Z</time></trkpt><trkpt lat="42.759164204223886" lon="11.602558727076826"><ele>348.4</ele><time>2026-04-12T12:05:59.003Z</time></trkpt><trkpt lat="42.75911768461592" lon="11.60248364170206"><ele>347.6</ele><time>2026-04-12T12:06:00.003Z</time></trkpt><trkpt lat="42.759059634515054" lon="11.602393310345468"><ele>346.8</ele><time>2026-04-12T12:06:01.003Z</time></trkpt><trkpt lat="42.75898339306388" lon="11.6022779339788"><ele>346.0</ele><time>2026-04-12T12:06:02.003Z</time></trkpt><trkpt lat="42.758897459864336" lon="11.602149153915432"><ele>346.0</ele><time>2026-04-12T12:06:03.003Z</time></trkpt><trkpt lat="42.75878925875963" lon="11.602017206994391"><ele>346.0</ele><time>2026-04-12T12:06:04.003Z</time></trkpt><trkpt lat="42.758694690799295" lon="11.601872105194506"><ele>346.0</ele><time>2026-04-12T12:06:05.003Z</time></trkpt><trkpt lat="42.758593185647584" lon="11.601721911626415"><ele>346.0</ele><time>2026-04-12T12:06:06.003Z</time></trkpt><trkpt lat="42.75848312530426" lon="11.601555555479903"><ele>346.0</ele><time>2026-04-12T12:06:07.003Z</time></trkpt><trkpt lat="42.75836581059818" lon="11.6013768661206"><ele>346.0</ele><time>2026-04-12T12:06:08.003Z</time></trkpt><trkpt lat="42.758243533765096" lon="11.60119006317401"><ele>346.0</ele><time>2026-04-12T12:06:09.003Z</time></trkpt><trkpt lat="42.758126860300536" lon="11.601014289877652"><ele>346.0</ele><time>2026-04-12T12:06:10.003Z</time></trkpt><trkpt lat="42.75803067617904" lon="11.600838947684355"><ele>346.0</ele><time>2026-04-12T12:06:11.003Z</time></trkpt><trkpt lat="42.75792365936902" lon="11.600677938080258"><ele>346.0</ele><time>2026-04-12T12:06:12.003Z</time></trkpt><trkpt lat="42.75779961562041" lon="11.600517645604544"><ele>345.0</ele><time>2026-04-12T12:06:13.003Z</time></trkpt><trkpt lat="42.757688809024216" lon="11.60034520429745"><ele>344.0</ele><time>2026-04-12T12:06:14.003Z</time></trkpt><trkpt lat="42.757589415838126" lon="11.600191620592746"><ele>343.0</ele><time>2026-04-12T12:06:15.003Z</time></trkpt><trkpt lat="42.75749371448512" lon="11.600035012976257"><ele>345.25</ele><time>2026-04-12T12:06:16.003Z</time></trkpt><trkpt lat="42.757398045884145" lon="11.599905179059109"><ele>347.5</ele><time>2026-04-12T12:06:17Z</time></trkpt><trkpt lat="42.75728846041978" lon="11.599797632998579"><ele>349.75</ele><time>2026-04-12T12:06:18Z</time></trkpt><trkpt lat="42.757168785047966" lon="11.599734067675124"><ele>352.0</ele><time>2026-04-12T12:06:19Z</time></trkpt><trkpt lat="42.75704782049199" lon="11.59971306347295"><ele>352.0</ele><time>2026-04-12T12:06:20Z</time></trkpt><trkpt lat="42.75692075148826" lon="11.599723386626987"><ele>352.0</ele><time>2026-04-12T12:06:21Z</time></trkpt><trkpt lat="42.756783238889355" lon="11.599741513358916"><ele>352.0</ele><time>2026-04-12T12:06:22Z</time></trkpt><trkpt lat="42.756635344568274" lon="11.599750865910146"><ele>352.0</ele><time>2026-04-12T12:06:23Z</time></trkpt><trkpt lat="42.75648446798837" lon="11.59976291661192"><ele>353.3333333333333</ele><time>2026-04-12T12:06:24Z</time></trkpt><trkpt lat="42.75632622496152" lon="11.599786922830518"><ele>354.6666666666667</ele><time>2026-04-12T12:06:25Z</time></trkpt><trkpt lat="42.75616032085873" lon="11.599787448600212"><ele>356.0</ele><time>2026-04-12T12:06:26Z</time></trkpt><trkpt lat="42.755996432763155" lon="11.599821325808634"><ele>357.33333333333337</ele><time>2026-04-12T12:06:27Z</time></trkpt><trkpt lat="42.755835911848045" lon="11.599792485475522"><ele>358.6666666666667</ele><time>2026-04-12T12:06:28Z</time></trkpt><trkpt lat="42.75566498070667" lon="11.599746538019462"><ele>360.0</ele><time>2026-04-12T12:06:29Z</time></trkpt><trkpt lat="42.75548849878079" lon="11.599689238703668"><ele>360.0</ele><time>2026-04-12T12:06:30Z</time></trkpt><trkpt lat="42.75530118082447" lon="11.599628421036071"><ele>360.0</ele><time>2026-04-12T12:06:31Z</time></trkpt><trkpt lat="42.75512196268936" lon="11.599571419781114"><ele>360.0</ele><time>2026-04-12T12:06:32Z</time></trkpt><trkpt lat="42.75494260700557" lon="11.599519497712121"><ele>364.6666666666667</ele><time>2026-04-12T12:06:33Z</time></trkpt><trkpt lat="42.75476685743224" lon="11.599469217357985"><ele>369.33333333333337</ele><time>2026-04-12T12:06:34Z</time></trkpt><trkpt lat="42.75461864181116" lon="11.599418260008436"><ele>374.0</ele><time>2026-04-12T12:06:35Z</time></trkpt><trkpt lat="42.754493583375144" lon="11.599361893496951"><ele>374.0</ele><time>2026-04-12T12:06:36Z</time></trkpt><trkpt lat="42.754374191938915" lon="11.599277633698474"><ele>374.0</ele><time>2026-04-12T12:06:37Z</time></trkpt><trkpt lat="42.75427072528916" lon="11.599151396513504"><ele>374.0</ele><time>2026-04-12T12:06:38Z</time></trkpt><trkpt lat="42.75419716074943" lon="11.598997571962046"><ele>374.0</ele><time>2026-04-12T12:06:39Z</time></trkpt><trkpt lat="42.754127280000496" lon="11.598830501935794"><ele>376.75</ele><time>2026-04-12T12:06:40Z</time></trkpt><trkpt lat="42.75405590143254" lon="11.598651742429324"><ele>379.5</ele><time>2026-04-12T12:06:41Z</time></trkpt><trkpt lat="42.75396860764858" lon="11.598476457315956"><ele>382.25</ele><time>2026-04-12T12:06:42Z</time></trkpt><trkpt lat="42.753891973009864" lon="11.598318048475681"><ele>385.0</ele><time>2026-04-12T12:06:43Z</time></trkpt><trkpt lat="42.75379752407055" lon="11.598214435880926"><ele>385.0</ele><time>2026-04-12T12:06:44Z</time></trkpt><trkpt lat="42.75368720108116" lon="11.598130767839285"><ele>385.0</ele><time>2026-04-12T12:06:45Z</time></trkpt><trkpt lat="42.75356093378497" lon="11.598082114765628"><ele>385.0</ele><time>2026-04-12T12:06:46Z</time></trkpt><trkpt lat="42.75342487308238" lon="11.598051563290408"><ele>385.0</ele><time>2026-04-12T12:06:47Z</time></trkpt><trkpt lat="42.75328191647203" lon="11.598031845689745"><ele>383.25</ele><time>2026-04-12T12:06:48Z</time></trkpt><trkpt lat="42.75314815223714" lon="11.59803173929921"><ele>381.5</ele><time>2026-04-12T12:06:49Z</time></trkpt><trkpt lat="42.753013215346705" lon="11.598081106712316"><ele>379.75</ele><time>2026-04-12T12:06:50.001Z</time></trkpt><trkpt lat="42.75286756412207" lon="11.598151755042567"><ele>378.0</ele><time>2026-04-12T12:06:51.001Z</time></trkpt><trkpt lat="42.752730609418265" lon="11.59823708662452"><ele>379.4</ele><time>2026-04-12T12:06:52.001Z</time></trkpt><trkpt lat="42.75260617980713" lon="11.598270661486572"><ele>380.79999999999995</ele><time>2026-04-12T12:06:53.001Z</time></trkpt><trkpt lat="42.75250968894403" lon="11.598299384613876"><ele>382.2</ele><time>2026-04-12T12:06:54.001Z</time></trkpt><trkpt lat="42.75244035079685" lon="11.598332239350407"><ele>383.6</ele><time>2026-04-12T12:06:55.001Z</time></trkpt><trkpt lat="42.75238153012028" lon="11.598298240207097"><ele>385.0</ele><time>2026-04-12T12:06:56.001Z</time></trkpt><trkpt lat="42.75232352265176" lon="11.598166748065452"><ele>385.00000000000006</ele><time>2026-04-12T12:06:58.001Z</time></trkpt><trkpt lat="42.752341552445536" lon="11.59801845111683"><ele>385.0</ele><time>2026-04-12T12:07:00.001Z</time></trkpt><trkpt lat="42.75236562283464" lon="11.597882509319504"><ele>385.0</ele><time>2026-04-12T12:07:02.001Z</time></trkpt><trkpt lat="42.75241741370866" lon="11.597817618813261"><ele>385.0</ele><time>2026-04-12T12:07:03.001Z</time></trkpt><trkpt lat="42.75246160693254" lon="11.597753676256927"><ele>385.00000000000006</ele><time>2026-04-12T12:07:04.001Z</time></trkpt><trkpt lat="42.75251824853646" lon="11.597714766374866"><ele>385.0</ele><time>2026-04-12T12:07:05.001Z</time></trkpt><trkpt lat="42.752623743500536" lon="11.59764219105641"><ele>385.8</ele><time>2026-04-12T12:07:07.001Z</time></trkpt><trkpt lat="42.75268992176228" lon="11.597606264300367"><ele>386.6</ele><time>2026-04-12T12:07:08.001Z</time></trkpt><trkpt lat="42.75276418495092" lon="11.597565882070922"><ele>387.4</ele><time>2026-04-12T12:07:09.001Z</time></trkpt><trkpt lat="42.752848379876745" lon="11.59752009948955"><ele>388.2</ele><time>2026-04-12T12:07:10.001Z</time></trkpt><trkpt lat="42.75293664412586" lon="11.597452847027853"><ele>389.0</ele><time>2026-04-12T12:07:11.001Z</time></trkpt><trkpt lat="42.75306027037138" lon="11.597388854000089"><ele>391.66666666666663</ele><time>2026-04-12T12:07:12.001Z</time></trkpt><trkpt lat="42.75320289999348" lon="11.597331251364432"><ele>394.33333333333337</ele><time>2026-04-12T12:07:13.001Z</time></trkpt><trkpt lat="42.75334920307997" lon="11.59725398181742"><ele>397.0</ele><time>2026-04-12T12:07:14.001Z</time></trkpt><trkpt lat="42.753503306280784" lon="11.597178526871245"><ele>397.6666666666667</ele><time>2026-04-12T12:07:15.001Z</time></trkpt><trkpt lat="42.75366858618523" lon="11.597119809068849"><ele>398.33333333333337</ele><time>2026-04-12T12:07:16.001Z</time></trkpt><trkpt lat="42.7538229177432" lon="11.597076559876111"><ele>399.0</ele><time>2026-04-12T12:07:17.001Z</time></trkpt><trkpt lat="42.75395599153065" lon="11.59704619250295"><ele>399.0</ele><time>2026-04-12T12:07:18.001Z</time></trkpt><trkpt lat="42.75411071907875" lon="11.59702200651845"><ele>399.0</ele><time>2026-04-12T12:07:19.001Z</time></trkpt><trkpt lat="42.754275295903206" lon="11.597006938698463"><ele>399.0</ele><time>2026-04-12T12:07:20.001Z</time></trkpt><trkpt lat="42.7544159533974" lon="11.596998704913638"><ele>403.75</ele><time>2026-04-12T12:07:21.002Z</time></trkpt><trkpt lat="42.75453310796162" lon="11.59699184694513"><ele>408.5</ele><time>2026-04-12T12:07:22.002Z</time></trkpt><trkpt lat="42.754640286856684" lon="11.596985572935653"><ele>413.25</ele><time>2026-04-12T12:07:23.002Z</time></trkpt><trkpt lat="42.754761444915346" lon="11.596972855670932"><ele>418.0</ele><time>2026-04-12T12:07:24.002Z</time></trkpt><trkpt lat="42.754889565555324" lon="11.59694702304215"><ele>418.0</ele><time>2026-04-12T12:07:25.002Z</time></trkpt><trkpt lat="42.7550214021723" lon="11.596885795813888"><ele>418.0</ele><time>2026-04-12T12:07:26.002Z</time></trkpt><trkpt lat="42.75514774995936" lon="11.596772334083044"><ele>418.0</ele><time>2026-04-12T12:07:27.002Z</time></trkpt><trkpt lat="42.755276036641966" lon="11.596645533078823"><ele>418.0</ele><time>2026-04-12T12:07:28.002Z</time></trkpt><trkpt lat="42.75540417930175" lon="11.596531056152289"><ele>416.79999999999995</ele><time>2026-04-12T12:07:29.002Z</time></trkpt><trkpt lat="42.75550101412125" lon="11.596434616896028"><ele>415.6</ele><time>2026-04-12T12:07:30.002Z</time></trkpt><trkpt lat="42.75559573037413" lon="11.596366239956097"><ele>414.4</ele><time>2026-04-12T12:07:31.002Z</time></trkpt><trkpt lat="42.75568851924364" lon="11.596318894848979"><ele>413.20000000000005</ele><time>2026-04-12T12:07:32.002Z</time></trkpt><trkpt lat="42.75579376281295" lon="11.5962663100344"><ele>412.0</ele><time>2026-04-12T12:07:33.002Z</time></trkpt><trkpt lat="42.7558818650773" lon="11.596196918942908"><ele>414.20000000000005</ele><time>2026-04-12T12:07:34.002Z</time></trkpt><trkpt lat="42.75594247368052" lon="11.59609937821246"><ele>416.4</ele><time>2026-04-12T12:07:35.002Z</time></trkpt><trkpt lat="42.755976158869906" lon="11.59599280013072"><ele>418.6</ele><time>2026-04-12T12:07:36.002Z</time></trkpt><trkpt lat="42.75594635396023" lon="11.59587111188519"><ele>420.79999999999995</ele><time>2026-04-12T12:07:37.002Z</time></trkpt><trkpt lat="42.75587571773079" lon="11.595772569072714"><ele>423.0</ele><time>2026-04-12T12:07:38.002Z</time></trkpt><trkpt lat="42.755757264024005" lon="11.595769475614484"><ele>423.0</ele><time>2026-04-12T12:07:39.002Z</time></trkpt><trkpt lat="42.755657104358775" lon="11.595819203529976"><ele>423.0</ele><time>2026-04-12T12:07:40.002Z</time></trkpt><trkpt lat="42.75555489045389" lon="11.595920624074804"><ele>423.0</ele><time>2026-04-12T12:07:41.002Z</time></trkpt><trkpt lat="42.75544252322343" lon="11.596022950154621"><ele>423.0</ele><time>2026-04-12T12:07:42.002Z</time></trkpt><trkpt lat="42.7553242266765" lon="11.596093416338586"><ele>421.33333333333337</ele><time>2026-04-12T12:07:43.002Z</time></trkpt><trkpt lat="42.75518646410337" lon="11.59617809241841"><ele>419.6666666666667</ele><time>2026-04-12T12:07:44.002Z</time></trkpt><trkpt lat="42.75502832632051" lon="11.596209636424426"><ele>418.0</ele><time>2026-04-12T12:07:45.002Z</time></trkpt><trkpt lat="42.754888872614345" lon="11.596253241057719"><ele>418.00000000000006</ele><time>2026-04-12T12:07:46.002Z</time></trkpt><trkpt lat="42.754791932976005" lon="11.596273272486098"><ele>418.0</ele><time>2026-04-12T12:07:47.002Z</time></trkpt><trkpt lat="42.75470918129401" lon="11.596280420700316"><ele>418.0</ele><time>2026-04-12T12:07:48.002Z</time></trkpt><trkpt lat="42.7546429972364" lon="11.596231988565004"><ele>418.0</ele><time>2026-04-12T12:07:49.002Z</time></trkpt><trkpt lat="42.75458305220281" lon="11.596149674222092"><ele>418.00000000000006</ele><time>2026-04-12T12:07:50.002Z</time></trkpt><trkpt lat="42.754562912407394" lon="11.596037092451793"><ele>418.0</ele><time>2026-04-12T12:07:51.002Z</time></trkpt><trkpt lat="42.75458705235312" lon="11.59590983179835"><ele>421.25</ele><time>2026-04-12T12:07:52.002Z</time></trkpt><trkpt lat="42.75465466606534" lon="11.59580348191691"><ele>424.5</ele><time>2026-04-12T12:07:53.002Z</time></trkpt><trkpt lat="42.75474505316267" lon="11.595732992051666"><ele>427.75</ele><time>2026-04-12T12:07:54.003Z</time></trkpt><trkpt lat="42.754866197878016" lon="11.595692007413474"><ele>431.0</ele><time>2026-04-12T12:07:55.003Z</time></trkpt><trkpt lat="42.7550085622103" lon="11.595650074183489"><ele>431.0</ele><time>2026-04-12T12:07:56.003Z</time></trkpt><trkpt lat="42.75516364147162" lon="11.595583190961431"><ele>431.0</ele><time>2026-04-12T12:07:57.003Z</time></trkpt><trkpt lat="42.75531581346016" lon="11.595505154672049"><ele>431.0</ele><time>2026-04-12T12:07:58.003Z</time></trkpt><trkpt lat="42.75543768763331" lon="11.595421567192302"><ele>431.8</ele><time>2026-04-12T12:07:59.003Z</time></trkpt><trkpt lat="42.755519456878474" lon="11.59534073572327"><ele>432.6</ele><time>2026-04-12T12:08:00.003Z</time></trkpt><trkpt lat="42.755593325855465" lon="11.59525732589841"><ele>433.4</ele><time>2026-04-12T12:08:01.003Z</time></trkpt><trkpt lat="42.75561298347813" lon="11.595112616615348"><ele>434.2</ele><time>2026-04-12T12:08:02.003Z</time></trkpt><trkpt lat="42.75560655479012" lon="11.59497591648152"><ele>435.0</ele><time>2026-04-12T12:08:03.003Z</time></trkpt><trkpt lat="42.755547977852665" lon="11.594855006703405"><ele>435.0</ele><time>2026-04-12T12:08:04.003Z</time></trkpt><trkpt lat="42.75544621443213" lon="11.594790472304553"><ele>435.0</ele><time>2026-04-12T12:08:05.003Z</time></trkpt><trkpt lat="42.75532971496442" lon="11.594765402327344"><ele>435.0</ele><time>2026-04-12T12:08:06.003Z</time></trkpt><trkpt lat="42.75520451830521" lon="11.594764035068312"><ele>435.0</ele><time>2026-04-12T12:08:07.003Z</time></trkpt><trkpt lat="42.75507376360342" lon="11.59478149898495"><ele>436.5</ele><time>2026-04-12T12:08:08.003Z</time></trkpt><trkpt lat="42.75493263564774" lon="11.594802348088097"><ele>438.0</ele><time>2026-04-12T12:08:09.003Z</time></trkpt><trkpt lat="42.75479276452129" lon="11.594825152393346"><ele>439.5</ele><time>2026-04-12T12:08:10.003Z</time></trkpt><trkpt lat="42.754686533488844" lon="11.594858578986587"><ele>441.0</ele><time>2026-04-12T12:08:11.003Z</time></trkpt><trkpt lat="42.75460346859157" lon="11.594839943323038"><ele>441.0</ele><time>2026-04-12T12:08:12.003Z</time></trkpt><trkpt lat="42.75452966033984" lon="11.594824385691561"><ele>441.0</ele><time>2026-04-12T12:08:13.003Z</time></trkpt><trkpt lat="42.75446290395353" lon="11.59481661533777"><ele>441.0</ele><time>2026-04-12T12:08:14.003Z</time></trkpt><trkpt lat="42.754412461077266" lon="11.594683187477079"><ele>441.0</ele><time>2026-04-12T12:08:16.003Z</time></trkpt><trkpt lat="42.75438263226039" lon="11.594533190149384"><ele>441.0</ele><time>2026-04-12T12:08:18.003Z</time></trkpt><trkpt lat="42.754451643549025" lon="11.59441770086177"><ele>443.0</ele><time>2026-04-12T12:08:20.003Z</time></trkpt><trkpt lat="42.75454321391298" lon="11.594349092319549"><ele>445.0</ele><time>2026-04-12T12:08:22.003Z</time></trkpt><trkpt lat="42.75460933103111" lon="11.594308779106397"><ele>447.0</ele><time>2026-04-12T12:08:22.998Z</time></trkpt><trkpt lat="42.754686236323316" lon="11.594283416535712"><ele>449.0</ele><time>2026-04-12T12:08:23.998Z</time></trkpt><trkpt lat="42.75475344656398" lon="11.59425775550269"><ele>451.0</ele><time>2026-04-12T12:08:24.998Z</time></trkpt><trkpt lat="42.75485928750293" lon="11.594197910931513"><ele>453.0</ele><time>2026-04-12T12:08:25.998Z</time></trkpt><trkpt lat="42.75497515352354" lon="11.594167330452326"><ele>453.0</ele><time>2026-04-12T12:08:26.999Z</time></trkpt><trkpt lat="42.75510849308334" lon="11.5941474654584"><ele>453.0</ele><time>2026-04-12T12:08:27.999Z</time></trkpt><trkpt lat="42.755227435256124" lon="11.594116982810535"><ele>453.0</ele><time>2026-04-12T12:08:28.999Z</time></trkpt><trkpt lat="42.755332541631475" lon="11.594068783351398"><ele>453.0</ele><time>2026-04-12T12:08:29.999Z</time></trkpt><trkpt lat="42.755426433250484" lon="11.594011920796468"><ele>453.5</ele><time>2026-04-12T12:08:30.999Z</time></trkpt><trkpt lat="42.75549893901161" lon="11.593909715376359"><ele>454.0</ele><time>2026-04-12T12:08:31.999Z</time></trkpt><trkpt lat="42.755550509677484" lon="11.593762801076561"><ele>454.5</ele><time>2026-04-12T12:08:32.999Z</time></trkpt><trkpt lat="42.75558299824297" lon="11.593598926079832"><ele>455.0</ele><time>2026-04-12T12:08:33.999Z</time></trkpt><trkpt lat="42.755600855386376" lon="11.593419613193522"><ele>455.0</ele><time>2026-04-12T12:08:34.999Z</time></trkpt><trkpt lat="42.75561539797597" lon="11.593240741442274"><ele>455.0</ele><time>2026-04-12T12:08:35.999Z</time></trkpt><trkpt lat="42.755631032697984" lon="11.59305701510713"><ele>455.0</ele><time>2026-04-12T12:08:36.999Z</time></trkpt><trkpt lat="42.75564708348756" lon="11.592871097388862"><ele>455.0</ele><time>2026-04-12T12:08:37.999Z</time></trkpt><trkpt lat="42.755662494207996" lon="11.59267713674857"><ele>457.0</ele><time>2026-04-12T12:08:38.999Z</time></trkpt><trkpt lat="42.75567763642976" lon="11.592469084987753"><ele>459.0</ele><time>2026-04-12T12:08:39.999Z</time></trkpt><trkpt lat="42.75569401334524" lon="11.59225645955758"><ele>461.0</ele><time>2026-04-12T12:08:40.999Z</time></trkpt><trkpt lat="42.755713054938944" lon="11.592053264988024"><ele>462.5</ele><time>2026-04-12T12:08:42Z</time></trkpt><trkpt lat="42.75572668891339" lon="11.59187871974222"><ele>464.0</ele><time>2026-04-12T12:08:43Z</time></trkpt><trkpt lat="42.75578383110173" lon="11.59172204383277"><ele>465.5</ele><time>2026-04-12T12:08:44Z</time></trkpt><trkpt lat="42.75587589054409" lon="11.59157127881583"><ele>467.0</ele><time>2026-04-12T12:08:45Z</time></trkpt><trkpt lat="42.75599243340639" lon="11.591438233866771"><ele>466.0</ele><time>2026-04-12T12:08:46Z</time></trkpt><trkpt lat="42.7561162037135" lon="11.59131254511989"><ele>465.0</ele><time>2026-04-12T12:08:47Z</time></trkpt><trkpt lat="42.75623890033916" lon="11.591198333362174"><ele>464.0</ele><time>2026-04-12T12:08:48Z</time></trkpt><trkpt lat="42.756345006148116" lon="11.591082513749159"><ele>463.0</ele><time>2026-04-12T12:08:49Z</time></trkpt><trkpt lat="42.7564357631133" lon="11.590933265990396"><ele>465.0</ele><time>2026-04-12T12:08:50Z</time></trkpt><trkpt lat="42.7565050060548" lon="11.590765943601175"><ele>467.0</ele><time>2026-04-12T12:08:51Z</time></trkpt><trkpt lat="42.75652415597637" lon="11.59060570942123"><ele>469.0</ele><time>2026-04-12T12:08:52Z</time></trkpt><trkpt lat="42.756496910425234" lon="11.590465300605057"><ele>471.0</ele><time>2026-04-12T12:08:53Z</time></trkpt><trkpt lat="42.756462274917915" lon="11.59032119614459"><ele>472.20000000000005</ele><time>2026-04-12T12:08:54Z</time></trkpt><trkpt lat="42.75643725104305" lon="11.590158714797797"><ele>473.40000000000003</ele><time>2026-04-12T12:08:55Z</time></trkpt><trkpt lat="42.75641989288914" lon="11.589996312176371"><ele>474.6</ele><time>2026-04-12T12:08:56Z</time></trkpt><trkpt lat="42.756422592189274" lon="11.589871279250756"><ele>475.8</ele><time>2026-04-12T12:08:57Z</time></trkpt><trkpt lat="42.7564405648595" lon="11.589735611029065"><ele>477.0</ele><time>2026-04-12T12:08:58Z</time></trkpt><trkpt lat="42.75647667498935" lon="11.589620804123385"><ele>479.8</ele><time>2026-04-12T12:08:59Z</time></trkpt><trkpt lat="42.756519085138514" lon="11.58950654263575"><ele>482.6</ele><time>2026-04-12T12:09:00Z</time></trkpt><trkpt lat="42.75657794989349" lon="11.589399232112982"><ele>485.40000000000003</ele><time>2026-04-12T12:09:01Z</time></trkpt><trkpt lat="42.75664932928112" lon="11.589305029291584"><ele>488.20000000000005</ele><time>2026-04-12T12:09:02.001Z</time></trkpt><trkpt lat="42.756732941071384" lon="11.589226764505023"><ele>491.0</ele><time>2026-04-12T12:09:03.001Z</time></trkpt><trkpt lat="42.75681843276748" lon="11.58918244611804"><ele>489.4</ele><time>2026-04-12T12:09:04.001Z</time></trkpt><trkpt lat="42.756909081003684" lon="11.58913958044603"><ele>487.8</ele><time>2026-04-12T12:09:05.001Z</time></trkpt><trkpt lat="42.75698857421489" lon="11.589097971046884"><ele>486.19999999999993</ele><time>2026-04-12T12:09:06.001Z</time></trkpt><trkpt lat="42.757056340964006" lon="11.589034296025096"><ele>484.59999999999997</ele><time>2026-04-12T12:09:07.001Z</time></trkpt><trkpt lat="42.75713438512219" lon="11.588956182650401"><ele>483.0</ele><time>2026-04-12T12:09:08.001Z</time></trkpt><trkpt lat="42.75719986098885" lon="11.588845709636866"><ele>483.0</ele><time>2026-04-12T12:09:09.001Z</time></trkpt><trkpt lat="42.75724908124004" lon="11.58873191404867"><ele>482.99999999999994</ele><time>2026-04-12T12:09:10.001Z</time></trkpt><trkpt lat="42.757331083862795" lon="11.588645896420683"><ele>482.99999999999994</ele><time>2026-04-12T12:09:11.001Z</time></trkpt><trkpt lat="42.757410650043944" lon="11.58858360153768"><ele>483.0</ele><time>2026-04-12T12:09:12.001Z</time></trkpt><trkpt lat="42.75750375102283" lon="11.588544940555156"><ele>483.0</ele><time>2026-04-12T12:09:13.001Z</time></trkpt><trkpt lat="42.757597871208056" lon="11.58852060071995"><ele>486.25</ele><time>2026-04-12T12:09:14.001Z</time></trkpt><trkpt lat="42.75769058753062" lon="11.588454555424283"><ele>489.5</ele><time>2026-04-12T12:09:15.001Z</time></trkpt><trkpt lat="42.75777954479566" lon="11.58837236457559"><ele>492.75</ele><time>2026-04-12T12:09:16.001Z</time></trkpt><trkpt lat="42.75786256037804" lon="11.58822927199555"><ele>496.0</ele><time>2026-04-12T12:09:17.001Z</time></trkpt><trkpt lat="42.75794720963761" lon="11.588065579933975"><ele>496.0</ele><time>2026-04-12T12:09:18.001Z</time></trkpt><trkpt lat="42.75805126748013" lon="11.58797277434756"><ele>496.0</ele><time>2026-04-12T12:09:19.001Z</time></trkpt><trkpt lat="42.758166673036264" lon="11.587926980658375"><ele>496.0</ele><time>2026-04-12T12:09:20.001Z</time></trkpt><trkpt lat="42.75831504884855" lon="11.587893735008599"><ele>496.0</ele><time>2026-04-12T12:09:21.001Z</time></trkpt><trkpt lat="42.75846858498684" lon="11.587863940403059"><ele>501.5</ele><time>2026-04-12T12:09:22.001Z</time></trkpt><trkpt lat="42.75863250503468" lon="11.587837188066073"><ele>507.0</ele><time>2026-04-12T12:09:23.001Z</time></trkpt><trkpt lat="42.758772438092855" lon="11.587817322622538"><ele>512.5</ele><time>2026-04-12T12:09:24.001Z</time></trkpt><trkpt lat="42.758892643184744" lon="11.587809506068682"><ele>518.0</ele><time>2026-04-12T12:09:25.001Z</time></trkpt><trkpt lat="42.759014617875835" lon="11.587824399157604"><ele>516.4</ele><time>2026-04-12T12:09:26.001Z</time></trkpt><trkpt lat="42.75911289337134" lon="11.587867871936906"><ele>514.8</ele><time>2026-04-12T12:09:27.001Z</time></trkpt><trkpt lat="42.7591859537039" lon="11.587891794885705"><ele>513.2</ele><time>2026-04-12T12:09:28.001Z</time></trkpt><trkpt lat="42.75927047932148" lon="11.588014867401476"><ele>511.6</ele><time>2026-04-12T12:09:30.001Z</time></trkpt><trkpt lat="42.7593034495444" lon="11.588123669473953"><ele>510.0</ele><time>2026-04-12T12:09:31.002Z</time></trkpt><trkpt lat="42.75934532602672" lon="11.588223494944792"><ele>513.0</ele><time>2026-04-12T12:09:32.002Z</time></trkpt><trkpt lat="42.7594008279709" lon="11.588319212298748"><ele>516.0</ele><time>2026-04-12T12:09:33.002Z</time></trkpt><trkpt lat="42.75944847305772" lon="11.588426553267427"><ele>519.0</ele><time>2026-04-12T12:09:34.002Z</time></trkpt><trkpt lat="42.75951056611558" lon="11.58852080281929"><ele>522.0</ele><time>2026-04-12T12:09:35.002Z</time></trkpt><trkpt lat="42.759586096889954" lon="11.588598236757024"><ele>525.0</ele><time>2026-04-12T12:09:36.002Z</time></trkpt><trkpt lat="42.759675691428484" lon="11.588665544917314"><ele>522.4</ele><time>2026-04-12T12:09:37.002Z</time></trkpt><trkpt lat="42.75977132430453" lon="11.588739802232757"><ele>519.8</ele><time>2026-04-12T12:09:38.002Z</time></trkpt><trkpt lat="42.759875871285075" lon="11.588831335286633"><ele>517.2</ele><time>2026-04-12T12:09:39.002Z</time></trkpt><trkpt lat="42.759972910598655" lon="11.58890966811482"><ele>514.6</ele><time>2026-04-12T12:09:40.002Z</time></trkpt><trkpt lat="42.76004568845936" lon="11.588957944488115"><ele>512.0</ele><time>2026-04-12T12:09:41.002Z</time></trkpt><trkpt lat="42.760117615548204" lon="11.588986867475517"><ele>510.0</ele><time>2026-04-12T12:09:42.002Z</time></trkpt><trkpt lat="42.76020860101931" lon="11.588979436815999"><ele>508.00000000000006</ele><time>2026-04-12T12:09:43.002Z</time></trkpt><trkpt lat="42.76028181687816" lon="11.588923680764237"><ele>506.00000000000006</ele><time>2026-04-12T12:09:44.002Z</time></trkpt><trkpt lat="42.76034492070915" lon="11.588818081328364"><ele>504.0</ele><time>2026-04-12T12:09:45.002Z</time></trkpt><trkpt lat="42.760358865432536" lon="11.588674657911211"><ele>502.0</ele><time>2026-04-12T12:09:46.002Z</time></trkpt><trkpt lat="42.76034127225321" lon="11.588524183584415"><ele>502.0</ele><time>2026-04-12T12:09:47.002Z</time></trkpt><trkpt lat="42.76027567866526" lon="11.588360495083164"><ele>502.0</ele><time>2026-04-12T12:09:48.002Z</time></trkpt><trkpt lat="42.76019573497291" lon="11.588195513056284"><ele>502.0</ele><time>2026-04-12T12:09:49.002Z</time></trkpt><trkpt lat="42.76013965041227" lon="11.588001530681845"><ele>502.0</ele><time>2026-04-12T12:09:50.002Z</time></trkpt><trkpt lat="42.76007123334251" lon="11.587832377129413"><ele>506.5</ele><time>2026-04-12T12:09:51.002Z</time></trkpt><trkpt lat="42.76000551586731" lon="11.587692650958802"><ele>511.0</ele><time>2026-04-12T12:09:52.002Z</time></trkpt><trkpt lat="42.759890710733764" lon="11.587592890509802"><ele>515.5</ele><time>2026-04-12T12:09:53.002Z</time></trkpt><trkpt lat="42.7597555584326" lon="11.587523077960212"><ele>520.0</ele><time>2026-04-12T12:09:54.002Z</time></trkpt><trkpt lat="42.759636557079226" lon="11.587421101400631"><ele>520.0</ele><time>2026-04-12T12:09:55.002Z</time></trkpt><trkpt lat="42.75955234042324" lon="11.587322921941707"><ele>520.0</ele><time>2026-04-12T12:09:56.002Z</time></trkpt><trkpt lat="42.75947657124476" lon="11.587189266066424"><ele>520.0</ele><time>2026-04-12T12:09:57.002Z</time></trkpt><trkpt lat="42.75941466533386" lon="11.587024431832708"><ele>520.0</ele><time>2026-04-12T12:09:58.002Z</time></trkpt><trkpt lat="42.75935464152355" lon="11.586837777893756"><ele>521.6666666666667</ele><time>2026-04-12T12:09:59.002Z</time></trkpt><trkpt lat="42.75929373354144" lon="11.586644010396126"><ele>523.3333333333334</ele><time>2026-04-12T12:10:00.002Z</time></trkpt><trkpt lat="42.75923336703379" lon="11.586451965568983"><ele>525.0</ele><time>2026-04-12T12:10:01.002Z</time></trkpt><trkpt lat="42.759170121151506" lon="11.586250760597638"><ele>526.6666666666666</ele><time>2026-04-12T12:10:02.002Z</time></trkpt><trkpt lat="42.75910342493488" lon="11.586043585978999"><ele>528.3333333333333</ele><time>2026-04-12T12:10:03.002Z</time></trkpt><trkpt lat="42.75903374372411" lon="11.585840843844933"><ele>530.0</ele><time>2026-04-12T12:10:04.003Z</time></trkpt><trkpt lat="42.75895496944647" lon="11.585636742429458"><ele>530.0</ele><time>2026-04-12T12:10:05.003Z</time></trkpt><trkpt lat="42.75887770755209" lon="11.58543450075233"><ele>530.0</ele><time>2026-04-12T12:10:06.003Z</time></trkpt><trkpt lat="42.75882244727154" lon="11.58524230641194"><ele>530.0</ele><time>2026-04-12T12:10:07.003Z</time></trkpt><trkpt lat="42.75878974619626" lon="11.585064913388473"><ele>530.75</ele><time>2026-04-12T12:10:08.003Z</time></trkpt><trkpt lat="42.75878945559605" lon="11.584894680743126"><ele>531.5</ele><time>2026-04-12T12:10:09.003Z</time></trkpt><trkpt lat="42.75883208048789" lon="11.584732483718444"><ele>532.25</ele><time>2026-04-12T12:10:10.003Z</time></trkpt><trkpt lat="42.758886432571366" lon="11.584540424827292"><ele>533.0</ele><time>2026-04-12T12:10:11.003Z</time></trkpt><trkpt lat="42.75892861628265" lon="11.584322022352412"><ele>536.3333333333333</ele><time>2026-04-12T12:10:12.003Z</time></trkpt><trkpt lat="42.75898570595675" lon="11.584098344883369"><ele>539.6666666666666</ele><time>2026-04-12T12:10:13.003Z</time></trkpt><trkpt lat="42.75903330215417" lon="11.583856646649611"><ele>543.0</ele><time>2026-04-12T12:10:14.003Z</time></trkpt><trkpt lat="42.75905618807099" lon="11.583618014918443"><ele>544.5</ele><time>2026-04-12T12:10:15.003Z</time></trkpt><trkpt lat="42.759056777542995" lon="11.583406325219435"><ele>546.0</ele><time>2026-04-12T12:10:16.003Z</time></trkpt><trkpt lat="42.75903882163593" lon="11.583212488420182"><ele>547.5</ele><time>2026-04-12T12:10:17.003Z</time></trkpt><trkpt lat="42.75903392426959" lon="11.583035068860289"><ele>549.0</ele><time>2026-04-12T12:10:18.003Z</time></trkpt><trkpt lat="42.75901502321902" lon="11.582877852976425"><ele>550.0</ele><time>2026-04-12T12:10:19.003Z</time></trkpt><trkpt lat="42.758992140691056" lon="11.582749583389388"><ele>551.0</ele><time>2026-04-12T12:10:20.003Z</time></trkpt><trkpt lat="42.75895860398465" lon="11.582622503435688"><ele>552.0</ele><time>2026-04-12T12:10:21.003Z</time></trkpt><trkpt lat="42.758876995299296" lon="11.58250470575441"><ele>553.0</ele><time>2026-04-12T12:10:22.003Z</time></trkpt><trkpt lat="42.758819632605885" lon="11.582358832437137"><ele>554.0</ele><time>2026-04-12T12:10:23.003Z</time></trkpt><trkpt lat="42.75878154127301" lon="11.582240192315787"><ele>554.0</ele><time>2026-04-12T12:10:24.003Z</time></trkpt><trkpt lat="42.758793141997074" lon="11.582134690882512"><ele>554.0</ele><time>2026-04-12T12:10:25.003Z</time></trkpt><trkpt lat="42.75882205949449" lon="11.581999084478918"><ele>554.0</ele><time>2026-04-12T12:10:26.003Z</time></trkpt><trkpt lat="42.75889700305238" lon="11.581888045921716"><ele>554.0</ele><time>2026-04-12T12:10:27.003Z</time></trkpt><trkpt lat="42.75898676517303" lon="11.581797660669215"><ele>554.0</ele><time>2026-04-12T12:10:28.003Z</time></trkpt><trkpt lat="42.7590935170554" lon="11.581748525349104"><ele>552.5</ele><time>2026-04-12T12:10:28.998Z</time></trkpt><trkpt lat="42.75920674601664" lon="11.581661673712786"><ele>551.0</ele><time>2026-04-12T12:10:29.998Z</time></trkpt><trkpt lat="42.759309389551795" lon="11.581577209884511"><ele>549.5</ele><time>2026-04-12T12:10:30.998Z</time></trkpt><trkpt lat="42.75938883731602" lon="11.581454931750947"><ele>548.0</ele><time>2026-04-12T12:10:31.998Z</time></trkpt><trkpt lat="42.75943440600601" lon="11.581289014732732"><ele>549.5</ele><time>2026-04-12T12:10:32.998Z</time></trkpt><trkpt lat="42.75944041093657" lon="11.581118994280901"><ele>551.0</ele><time>2026-04-12T12:10:33.998Z</time></trkpt><trkpt lat="42.7594292259293" lon="11.58097698019527"><ele>552.5</ele><time>2026-04-12T12:10:34.999Z</time></trkpt><trkpt lat="42.759410490276856" lon="11.580830859879672"><ele>554.0</ele><time>2026-04-12T12:10:35.999Z</time></trkpt><trkpt lat="42.75940355427219" lon="11.580669579327227"><ele>554.0</ele><time>2026-04-12T12:10:36.999Z</time></trkpt><trkpt lat="42.75940631795612" lon="11.580507533329152"><ele>554.0</ele><time>2026-04-12T12:10:37.999Z</time></trkpt><trkpt lat="42.7594013559317" lon="11.580365736749838"><ele>554.0</ele><time>2026-04-12T12:10:38.999Z</time></trkpt><trkpt lat="42.75939985196169" lon="11.580228709131646"><ele>554.0</ele><time>2026-04-12T12:10:39.999Z</time></trkpt><trkpt lat="42.75938709708168" lon="11.580092521455171"><ele>554.0</ele><time>2026-04-12T12:10:40.999Z</time></trkpt><trkpt lat="42.75939250610121" lon="11.57995738166947"><ele>555.2</ele><time>2026-04-12T12:10:41.999Z</time></trkpt><trkpt lat="42.75940134149866" lon="11.5798167839959"><ele>556.4</ele><time>2026-04-12T12:10:42.999Z</time></trkpt><trkpt lat="42.759411149057165" lon="11.579671676086805"><ele>557.6</ele><time>2026-04-12T12:10:43.999Z</time></trkpt><trkpt lat="42.75942857438787" lon="11.579539310164467"><ele>558.8</ele><time>2026-04-12T12:10:44.999Z</time></trkpt><trkpt lat="42.759472123685" lon="11.579410902499598"><ele>560.0</ele><time>2026-04-12T12:10:45.999Z</time></trkpt><trkpt lat="42.75951074142853" lon="11.57927837925561"><ele>562.2</ele><time>2026-04-12T12:10:46.999Z</time></trkpt><trkpt lat="42.75954943942818" lon="11.579138029748679"><ele>564.4</ele><time>2026-04-12T12:10:47.999Z</time></trkpt><trkpt lat="42.759602013784594" lon="11.578994636801836"><ele>566.6</ele><time>2026-04-12T12:10:49Z</time></trkpt><trkpt lat="42.759647613375456" lon="11.578860656020614"><ele>568.8</ele><time>2026-04-12T12:10:50Z</time></trkpt><trkpt lat="42.759682182434666" lon="11.57872722565588"><ele>571.0</ele><time>2026-04-12T12:10:51Z</time></trkpt><trkpt lat="42.759706769143754" lon="11.578584880724199"><ele>572.5</ele><time>2026-04-12T12:10:52Z</time></trkpt><trkpt lat="42.75971680264393" lon="11.578434434056186"><ele>574.0</ele><time>2026-04-12T12:10:53Z</time></trkpt><trkpt lat="42.75970794260662" lon="11.578266118539183"><ele>575.5</ele><time>2026-04-12T12:10:54Z</time></trkpt><trkpt lat="42.75968999683825" lon="11.578086498248018"><ele>577.0</ele><time>2026-04-12T12:10:55Z</time></trkpt><trkpt lat="42.7596708648359" lon="11.577904864841305"><ele>577.0</ele><time>2026-04-12T12:10:56Z</time></trkpt><trkpt lat="42.75964229727475" lon="11.57771033219907"><ele>577.0</ele><time>2026-04-12T12:10:57Z</time></trkpt><trkpt lat="42.75960817531003" lon="11.577502659398318"><ele>577.0</ele><time>2026-04-12T12:10:58Z</time></trkpt><trkpt lat="42.75957312290922" lon="11.577286180312273"><ele>577.0</ele><time>2026-04-12T12:10:59Z</time></trkpt><trkpt lat="42.759544175386594" lon="11.577063602276182"><ele>577.0</ele><time>2026-04-12T12:11:00Z</time></trkpt><trkpt lat="42.75950873958215" lon="11.576836771706388"><ele>577.0</ele><time>2026-04-12T12:11:01Z</time></trkpt><trkpt lat="42.75946722755163" lon="11.576604550051805"><ele>578.0</ele><time>2026-04-12T12:11:02Z</time></trkpt><trkpt lat="42.75943186026573" lon="11.576390825856882"><ele>579.0</ele><time>2026-04-12T12:11:03Z</time></trkpt><trkpt lat="42.75941527477297" lon="11.576237701284413"><ele>580.0</ele><time>2026-04-12T12:11:04Z</time></trkpt><trkpt lat="42.759438639590144" lon="11.576089065572429"><ele>581.0</ele><time>2026-04-12T12:11:05Z</time></trkpt><trkpt lat="42.75951999036443" lon="11.575971769091739"><ele>584.0</ele><time>2026-04-12T12:11:06.001Z</time></trkpt><trkpt lat="42.75961378428307" lon="11.57587531899293"><ele>587.0</ele><time>2026-04-12T12:11:07.001Z</time></trkpt><trkpt lat="42.75972306361346" lon="11.575772060471255"><ele>590.0</ele><time>2026-04-12T12:11:08.001Z</time></trkpt><trkpt lat="42.75984738854222" lon="11.57570133546765"><ele>593.0</ele><time>2026-04-12T12:11:09.001Z</time></trkpt><trkpt lat="42.759946688651816" lon="11.575601581882387"><ele>593.0</ele><time>2026-04-12T12:11:10.001Z</time></trkpt><trkpt lat="42.76000750047" lon="11.575479340533537"><ele>593.0</ele><time>2026-04-12T12:11:11.001Z</time></trkpt><trkpt lat="42.760044146854895" lon="11.575334973531053"><ele>593.0</ele><time>2026-04-12T12:11:12.001Z</time></trkpt><trkpt lat="42.760057131387725" lon="11.57516699279358"><ele>593.0</ele><time>2026-04-12T12:11:13.001Z</time></trkpt><trkpt lat="42.76007882241507" lon="11.57499523673511"><ele>595.0</ele><time>2026-04-12T12:11:14.001Z</time></trkpt><trkpt lat="42.76010254925885" lon="11.5748135874597"><ele>597.0</ele><time>2026-04-12T12:11:15.001Z</time></trkpt><trkpt lat="42.760140702172905" lon="11.57463688097369"><ele>599.0</ele><time>2026-04-12T12:11:16.001Z</time></trkpt><trkpt lat="42.760177597067766" lon="11.574450693153508"><ele>601.0</ele><time>2026-04-12T12:11:17.001Z</time></trkpt><trkpt lat="42.76022567032731" lon="11.574276828942494"><ele>601.0</ele><time>2026-04-12T12:11:18.001Z</time></trkpt><trkpt lat="42.760280621161314" lon="11.574151683419057"><ele>601.0</ele><time>2026-04-12T12:11:19.001Z</time></trkpt><trkpt lat="42.76033716664715" lon="11.574043418261725"><ele>601.0</ele><time>2026-04-12T12:11:20.001Z</time></trkpt><trkpt lat="42.76040819479966" lon="11.573934364082994"><ele>601.0</ele><time>2026-04-12T12:11:21.001Z</time></trkpt><trkpt lat="42.76049850731323" lon="11.57383279917628"><ele>601.0</ele><time>2026-04-12T12:11:22.001Z</time></trkpt><trkpt lat="42.76058334383005" lon="11.573753700590583"><ele>603.0</ele><time>2026-04-12T12:11:23.001Z</time></trkpt><trkpt lat="42.76067483949139" lon="11.57367065060672"><ele>605.0</ele><time>2026-04-12T12:11:24.001Z</time></trkpt><trkpt lat="42.760767610770216" lon="11.573561519369084"><ele>607.0</ele><time>2026-04-12T12:11:25.001Z</time></trkpt><trkpt lat="42.76086979700832" lon="11.573469533004117"><ele>609.0</ele><time>2026-04-12T12:11:26.001Z</time></trkpt><trkpt lat="42.760959322001774" lon="11.573384001199633"><ele>609.0</ele><time>2026-04-12T12:11:27.001Z</time></trkpt><trkpt lat="42.7610357521888" lon="11.573290479616107"><ele>609.0</ele><time>2026-04-12T12:11:28.001Z</time></trkpt><trkpt lat="42.76109156407894" lon="11.573167689017986"><ele>609.0</ele><time>2026-04-12T12:11:29.001Z</time></trkpt><trkpt lat="42.76112253294467" lon="11.573023513346392"><ele>609.0</ele><time>2026-04-12T12:11:30.001Z</time></trkpt><trkpt lat="42.76112372954944" lon="11.572861986359316"><ele>609.0</ele><time>2026-04-12T12:11:31.001Z</time></trkpt><trkpt lat="42.761123057540395" lon="11.572704676474183"><ele>609.0</ele><time>2026-04-12T12:11:32.001Z</time></trkpt><trkpt lat="42.76113820946179" lon="11.572573780137736"><ele>609.0</ele><time>2026-04-12T12:11:33.002Z</time></trkpt><trkpt lat="42.76115740939865" lon="11.572469942620423"><ele>609.0</ele><time>2026-04-12T12:11:34.002Z</time></trkpt><trkpt lat="42.761179758563145" lon="11.572382721677037"><ele>609.0</ele><time>2026-04-12T12:11:35.002Z</time></trkpt><trkpt lat="42.761205565966556" lon="11.572234371626699"><ele>609.0</ele><time>2026-04-12T12:11:37.002Z</time></trkpt><trkpt lat="42.76126861301889" lon="11.57208651464751"><ele>610.8333333333334</ele><time>2026-04-12T12:11:39.002Z</time></trkpt><trkpt lat="42.76131028948268" lon="11.57200888414761"><ele>612.6666666666666</ele><time>2026-04-12T12:11:40.002Z</time></trkpt><trkpt lat="42.76139118166037" lon="11.571882534014247"><ele>614.5</ele><time>2026-04-12T12:11:42.002Z</time></trkpt><trkpt lat="42.76145258532424" lon="11.571842790906384"><ele>616.3333333333333</ele><time>2026-04-12T12:11:43.002Z</time></trkpt><trkpt lat="42.76150795185875" lon="11.571789023149435"><ele>618.1666666666666</ele><time>2026-04-12T12:11:44.002Z</time></trkpt><trkpt lat="42.76156273988288" lon="11.571735429731527"><ele>620.0</ele><time>2026-04-12T12:11:45.002Z</time></trkpt><trkpt lat="42.76161855733926" lon="11.571683465748459"><ele>620.0</ele><time>2026-04-12T12:11:46.002Z</time></trkpt><trkpt lat="42.7616813235692" lon="11.571631072200152"><ele>620.0</ele><time>2026-04-12T12:11:47.002Z</time></trkpt><trkpt lat="42.76174320827568" lon="11.571593070557347"><ele>620.0</ele><time>2026-04-12T12:11:48.002Z</time></trkpt><trkpt lat="42.761864574769376" lon="11.571580231362097"><ele>620.0</ele><time>2026-04-12T12:11:50.002Z</time></trkpt><trkpt lat="42.76194650218096" lon="11.571609194350719"><ele>620.0</ele><time>2026-04-12T12:11:51.002Z</time></trkpt><trkpt lat="42.76202081787975" lon="11.571653950746605"><ele>620.0</ele><time>2026-04-12T12:11:52.002Z</time></trkpt><trkpt lat="42.76208837441228" lon="11.571711935489587"><ele>621.1428571428571</ele><time>2026-04-12T12:11:53.002Z</time></trkpt><trkpt lat="42.762143342889374" lon="11.571758446133703"><ele>622.2857142857142</ele><time>2026-04-12T12:11:54.002Z</time></trkpt><trkpt lat="42.76220773630041" lon="11.571797892858553"><ele>623.4285714285713</ele><time>2026-04-12T12:11:55.002Z</time></trkpt><trkpt lat="42.76227879246038" lon="11.57183224406091"><ele>624.5714285714286</ele><time>2026-04-12T12:11:56.002Z</time></trkpt><trkpt lat="42.76236066915325" lon="11.571858770669385"><ele>625.7142857142857</ele><time>2026-04-12T12:11:57.002Z</time></trkpt><trkpt lat="42.762429452757004" lon="11.571867902004474"><ele>626.8571428571428</ele><time>2026-04-12T12:11:58.002Z</time></trkpt><trkpt lat="42.76249611965836" lon="11.57187367589812"><ele>628.0</ele><time>2026-04-12T12:11:59.002Z</time></trkpt><trkpt lat="42.76258134086208" lon="11.571888099810069"><ele>628.0</ele><time>2026-04-12T12:12:00.002Z</time></trkpt><trkpt lat="42.76264930365793" lon="11.57190813896422"><ele>628.0</ele><time>2026-04-12T12:12:01.002Z</time></trkpt><trkpt lat="42.76272055450677" lon="11.571934961628672"><ele>628.0</ele><time>2026-04-12T12:12:04.002Z</time></trkpt><trkpt lat="42.76282782234372" lon="11.571945931301759"><ele>628.0</ele><time>2026-04-12T12:12:28.003Z</time></trkpt><trkpt lat="42.76295969369085" lon="11.571999798335176"><ele>628.0</ele><time>2026-04-12T12:12:30.003Z</time></trkpt><trkpt lat="42.763031601182" lon="11.572043457964641"><ele>627.0</ele><time>2026-04-12T12:12:31.003Z</time></trkpt><trkpt lat="42.763100476373964" lon="11.572087745455327"><ele>626.0</ele><time>2026-04-12T12:12:32.003Z</time></trkpt><trkpt lat="42.76316623323403" lon="11.572136879624622"><ele>625.0</ele><time>2026-04-12T12:12:33.003Z</time></trkpt><trkpt lat="42.763244229201334" lon="11.572169016999263"><ele>624.0</ele><time>2026-04-12T12:12:34.003Z</time></trkpt><trkpt lat="42.76333116117013" lon="11.572183241439351"><ele>623.0</ele><time>2026-04-12T12:12:34.999Z</time></trkpt><trkpt lat="42.76343017456548" lon="11.572184451443151"><ele>622.0</ele><time>2026-04-12T12:12:35.999Z</time></trkpt><trkpt lat="42.763529376482566" lon="11.572176805960105"><ele>622.0</ele><time>2026-04-12T12:12:36.999Z</time></trkpt><trkpt lat="42.76361448685471" lon="11.572161180289521"><ele>622.0</ele><time>2026-04-12T12:12:37.999Z</time></trkpt><trkpt lat="42.76368769971433" lon="11.572128416822606"><ele>622.0</ele><time>2026-04-12T12:12:38.999Z</time></trkpt><trkpt lat="42.763753140020206" lon="11.572069954852886"><ele>622.0</ele><time>2026-04-12T12:12:39.999Z</time></trkpt><trkpt lat="42.763801072920714" lon="11.571987804980985"><ele>622.0</ele><time>2026-04-12T12:12:40.999Z</time></trkpt><trkpt lat="42.76382978883275" lon="11.571889130981246"><ele>622.0</ele><time>2026-04-12T12:12:41.999Z</time></trkpt><trkpt lat="42.76384144631134" lon="11.571781627528217"><ele>623.6</ele><time>2026-04-12T12:12:42.999Z</time></trkpt><trkpt lat="42.763846850664976" lon="11.571650043404178"><ele>625.2</ele><time>2026-04-12T12:12:43.999Z</time></trkpt><trkpt lat="42.76387950267444" lon="11.57151327381226"><ele>626.8</ele><time>2026-04-12T12:12:44.999Z</time></trkpt><trkpt lat="42.76390956035698" lon="11.571402691953713"><ele>628.4</ele><time>2026-04-12T12:12:45.999Z</time></trkpt><trkpt lat="42.76395356788047" lon="11.57130717602641"><ele>630.0</ele><time>2026-04-12T12:12:46.999Z</time></trkpt><trkpt lat="42.76401736323858" lon="11.571216243715426"><ele>631.4</ele><time>2026-04-12T12:12:47.999Z</time></trkpt><trkpt lat="42.76408633942776" lon="11.571134590888414"><ele>632.8</ele><time>2026-04-12T12:12:48.999Z</time></trkpt><trkpt lat="42.76417111979746" lon="11.571020554565846"><ele>634.2</ele><time>2026-04-12T12:12:49.999Z</time></trkpt><trkpt lat="42.76426087986791" lon="11.570917094436602"><ele>635.6</ele><time>2026-04-12T12:12:50.999Z</time></trkpt><trkpt lat="42.76435270916408" lon="11.570814581466609"><ele>637.0</ele><time>2026-04-12T12:12:52Z</time></trkpt><trkpt lat="42.764441407871416" lon="11.570701444798106"><ele>637.0</ele><time>2026-04-12T12:12:53Z</time></trkpt><trkpt lat="42.76453480260633" lon="11.570576911179156"><ele>637.0</ele><time>2026-04-12T12:12:54Z</time></trkpt><trkpt lat="42.76463055800572" lon="11.570470730219638"><ele>637.0</ele><time>2026-04-12T12:12:55Z</time></trkpt><trkpt lat="42.764725401424606" lon="11.570408732298366"><ele>637.0</ele><time>2026-04-12T12:12:56Z</time></trkpt><trkpt lat="42.764810126720846" lon="11.57033685001709"><ele>639.0</ele><time>2026-04-12T12:12:57Z</time></trkpt><trkpt lat="42.764909749695136" lon="11.570297166551322"><ele>641.0</ele><time>2026-04-12T12:12:58Z</time></trkpt><trkpt lat="42.765011015192506" lon="11.5702656577262"><ele>643.0</ele><time>2026-04-12T12:12:59Z</time></trkpt><trkpt lat="42.76511821925739" lon="11.5702441169019"><ele>645.0</ele><time>2026-04-12T12:13:00Z</time></trkpt><trkpt lat="42.76522770006937" lon="11.570210474706325"><ele>647.0</ele><time>2026-04-12T12:13:01Z</time></trkpt><trkpt lat="42.76532186077412" lon="11.570155982992748"><ele>647.0</ele><time>2026-04-12T12:13:02Z</time></trkpt><trkpt lat="42.765400140599596" lon="11.570084698982885"><ele>647.0</ele><time>2026-04-12T12:13:03Z</time></trkpt><trkpt lat="42.765457891518125" lon="11.569983619320405"><ele>647.0</ele><time>2026-04-12T12:13:04Z</time></trkpt><trkpt lat="42.76547774977641" lon="11.569858166164776"><ele>647.0</ele><time>2026-04-12T12:13:05Z</time></trkpt><trkpt lat="42.76545611307965" lon="11.569723500620793"><ele>647.0</ele><time>2026-04-12T12:13:06Z</time></trkpt><trkpt lat="42.765393074411755" lon="11.56961068128884"><ele>649.5</ele><time>2026-04-12T12:13:07Z</time></trkpt><trkpt lat="42.765296710300774" lon="11.569521255934559"><ele>652.0</ele><time>2026-04-12T12:13:08Z</time></trkpt><trkpt lat="42.765175253750186" lon="11.569448093125033"><ele>654.5</ele><time>2026-04-12T12:13:09Z</time></trkpt><trkpt lat="42.76505417416467" lon="11.569391406454992"><ele>657.0</ele><time>2026-04-12T12:13:10Z</time></trkpt><trkpt lat="42.764949016335144" lon="11.569344677128287"><ele>657.0</ele><time>2026-04-12T12:13:11.001Z</time></trkpt><trkpt lat="42.764836935314314" lon="11.569323020862894"><ele>657.0</ele><time>2026-04-12T12:13:12.001Z</time></trkpt><trkpt lat="42.76471311191108" lon="11.569322494215008"><ele>657.0</ele><time>2026-04-12T12:13:13.001Z</time></trkpt><trkpt lat="42.76458813090014" lon="11.569323110971224"><ele>657.0</ele><time>2026-04-12T12:13:14.001Z</time></trkpt><trkpt lat="42.76446006858126" lon="11.569327048582107"><ele>657.75</ele><time>2026-04-12T12:13:15.001Z</time></trkpt><trkpt lat="42.764320461215135" lon="11.56933410608387"><ele>658.5</ele><time>2026-04-12T12:13:16.001Z</time></trkpt><trkpt lat="42.76418103424828" lon="11.569344912852534"><ele>659.25</ele><time>2026-04-12T12:13:17.001Z</time></trkpt><trkpt lat="42.764036621059624" lon="11.569385612817205"><ele>660.0</ele><time>2026-04-12T12:13:18.001Z</time></trkpt><trkpt lat="42.76387878982609" lon="11.56942628430456"><ele>660.0</ele><time>2026-04-12T12:13:19.001Z</time></trkpt><trkpt lat="42.763718527242645" lon="11.56948336803764"><ele>660.0</ele><time>2026-04-12T12:13:20.001Z</time></trkpt><trkpt lat="42.763553942958595" lon="11.56956457468338"><ele>660.0</ele><time>2026-04-12T12:13:21.001Z</time></trkpt><trkpt lat="42.763387193907455" lon="11.569631841134875"><ele>660.0</ele><time>2026-04-12T12:13:22.001Z</time></trkpt><trkpt lat="42.76323507273382" lon="11.569707861546801"><ele>660.0</ele><time>2026-04-12T12:13:23.001Z</time></trkpt><trkpt lat="42.763097063454246" lon="11.569767828822807"><ele>660.0</ele><time>2026-04-12T12:13:24.001Z</time></trkpt><trkpt lat="42.76296960799261" lon="11.569820675957462"><ele>660.0</ele><time>2026-04-12T12:13:25.001Z</time></trkpt><trkpt lat="42.76283506722526" lon="11.569838229597948"><ele>660.5</ele><time>2026-04-12T12:13:26.001Z</time></trkpt><trkpt lat="42.762695332929894" lon="11.569808541929802"><ele>661.0</ele><time>2026-04-12T12:13:27.001Z</time></trkpt><trkpt lat="42.76255507118882" lon="11.569742164445234"><ele>661.5</ele><time>2026-04-12T12:13:28.001Z</time></trkpt><trkpt lat="42.76240978217008" lon="11.569657580712681"><ele>662.0</ele><time>2026-04-12T12:13:29.001Z</time></trkpt><trkpt lat="42.76225336453905" lon="11.569567363535786"><ele>665.6666666666666</ele><time>2026-04-12T12:13:30.001Z</time></trkpt><trkpt lat="42.76208762951512" lon="11.569477679067402"><ele>669.3333333333334</ele><time>2026-04-12T12:13:31.001Z</time></trkpt><trkpt lat="42.761912551952655" lon="11.569387401749527"><ele>673.0</ele><time>2026-04-12T12:13:32.001Z</time></trkpt><trkpt lat="42.76173304843659" lon="11.56929484231751"><ele>673.0</ele><time>2026-04-12T12:13:33.001Z</time></trkpt><trkpt lat="42.76155402338426" lon="11.569201877589892"><ele>673.0</ele><time>2026-04-12T12:13:34.001Z</time></trkpt><trkpt lat="42.76137127239421" lon="11.569135527999098"><ele>673.0</ele><time>2026-04-12T12:13:35.001Z</time></trkpt><trkpt lat="42.76119731975" lon="11.569034412576347"><ele>673.0</ele><time>2026-04-12T12:13:36.001Z</time></trkpt><trkpt lat="42.76103777991294" lon="11.568894739467018"><ele>673.0</ele><time>2026-04-12T12:13:37.001Z</time></trkpt><trkpt lat="42.76086874161163" lon="11.568762669096449"><ele>673.0</ele><time>2026-04-12T12:13:38.001Z</time></trkpt><trkpt lat="42.76069309134827" lon="11.56864251427382"><ele>675.0</ele><time>2026-04-12T12:13:39.002Z</time></trkpt><trkpt lat="42.760549118625775" lon="11.568512548081328"><ele>677.0</ele><time>2026-04-12T12:13:40.002Z</time></trkpt><trkpt lat="42.76041634416451" lon="11.568400843324037"><ele>679.0</ele><time>2026-04-12T12:13:41.002Z</time></trkpt><trkpt lat="42.76028331391609" lon="11.568298356006757"><ele>680.0</ele><time>2026-04-12T12:13:42.002Z</time></trkpt><trkpt lat="42.76015939585432" lon="11.568191169119544"><ele>681.0</ele><time>2026-04-12T12:13:43.002Z</time></trkpt><trkpt lat="42.76003583752009" lon="11.56813688604014"><ele>682.0</ele><time>2026-04-12T12:13:44.002Z</time></trkpt><trkpt lat="42.75990979999815" lon="11.568130544047708"><ele>683.0</ele><time>2026-04-12T12:13:45.002Z</time></trkpt><trkpt lat="42.75978380950568" lon="11.568184062998814"><ele>683.0</ele><time>2026-04-12T12:13:46.002Z</time></trkpt><trkpt lat="42.75967659948888" lon="11.56822263864948"><ele>683.0</ele><time>2026-04-12T12:13:47.002Z</time></trkpt><trkpt lat="42.75958392317803" lon="11.568217686488405"><ele>683.0</ele><time>2026-04-12T12:13:48.002Z</time></trkpt><trkpt lat="42.75949137894263" lon="11.568228636940999"><ele>683.0</ele><time>2026-04-12T12:13:49.002Z</time></trkpt><trkpt lat="42.75939726843994" lon="11.56824722381611"><ele>683.0</ele><time>2026-04-12T12:13:50.002Z</time></trkpt><trkpt lat="42.759313552665176" lon="11.568204719493533"><ele>684.1666666666666</ele><time>2026-04-12T12:13:51.002Z</time></trkpt><trkpt lat="42.75923824883142" lon="11.56817974896269"><ele>685.3333333333333</ele><time>2026-04-12T12:13:52.002Z</time></trkpt><trkpt lat="42.75917580251587" lon="11.568143227435662"><ele>686.5</ele><time>2026-04-12T12:13:53.002Z</time></trkpt><trkpt lat="42.759075943182935" lon="11.56808285093316"><ele>687.6666666666666</ele><time>2026-04-12T12:13:55.002Z</time></trkpt><trkpt lat="42.759009387132906" lon="11.568038418814085"><ele>688.8333333333334</ele><time>2026-04-12T12:13:58.002Z</time></trkpt><trkpt lat="42.75907764647611" lon="11.567932729811258"><ele>690.0</ele><time>2026-04-12T12:14:02.002Z</time></trkpt><trkpt lat="42.75913456268587" lon="11.567889588805134"><ele>690.3333333333334</ele><time>2026-04-12T12:14:03.002Z</time></trkpt><trkpt lat="42.7591959884849" lon="11.56783827043639"><ele>690.6666666666666</ele><time>2026-04-12T12:14:04.002Z</time></trkpt><trkpt lat="42.75925761882117" lon="11.567759087284985"><ele>691.0</ele><time>2026-04-12T12:14:05.002Z</time></trkpt><trkpt lat="42.75931282951685" lon="11.567658477676629"><ele>691.3333333333333</ele><time>2026-04-12T12:14:06.002Z</time></trkpt><trkpt lat="42.75936876127058" lon="11.567563358953311"><ele>691.6666666666666</ele><time>2026-04-12T12:14:07.002Z</time></trkpt><trkpt lat="42.75944375285085" lon="11.567470421005181"><ele>692.0</ele><time>2026-04-12T12:14:08.002Z</time></trkpt><trkpt lat="42.75954446606675" lon="11.567398921791094"><ele>692.0</ele><time>2026-04-12T12:14:09.002Z</time></trkpt><trkpt lat="42.759654457376975" lon="11.567338493973065"><ele>692.0</ele><time>2026-04-12T12:14:10.002Z</time></trkpt><trkpt lat="42.759773786001375" lon="11.567317567893433"><ele>692.0</ele><time>2026-04-12T12:14:11.002Z</time></trkpt><trkpt lat="42.75988610093261" lon="11.567253914881697"><ele>692.0</ele><time>2026-04-12T12:14:12.003Z</time></trkpt><trkpt lat="42.76001360252351" lon="11.567208065604817"><ele>692.0</ele><time>2026-04-12T12:14:13.003Z</time></trkpt><trkpt lat="42.760137452852234" lon="11.567152563978068"><ele>692.0</ele><time>2026-04-12T12:14:14.003Z</time></trkpt><trkpt lat="42.760263223424545" lon="11.567094477837038"><ele>692.0</ele><time>2026-04-12T12:14:15.003Z</time></trkpt><trkpt lat="42.7603908614015" lon="11.567034939970611"><ele>692.0</ele><time>2026-04-12T12:14:16.003Z</time></trkpt><trkpt lat="42.76051920951264" lon="11.566974092383571"><ele>694.0</ele><time>2026-04-12T12:14:17.003Z</time></trkpt><trkpt lat="42.760650622587" lon="11.56692894380262"><ele>696.0</ele><time>2026-04-12T12:14:18.003Z</time></trkpt><trkpt lat="42.76077948320902" lon="11.566884691000686"><ele>698.0</ele><time>2026-04-12T12:14:19.003Z</time></trkpt><trkpt lat="42.76091519763445" lon="11.566857249891124"><ele>700.0</ele><time>2026-04-12T12:14:20.003Z</time></trkpt><trkpt lat="42.76105165527421" lon="11.56685395594549"><ele>700.8</ele><time>2026-04-12T12:14:21.003Z</time></trkpt><trkpt lat="42.76116819880017" lon="11.566854808739485"><ele>701.6</ele><time>2026-04-12T12:14:22.003Z</time></trkpt><trkpt lat="42.76127053157435" lon="11.566854907203547"><ele>702.4000000000001</ele><time>2026-04-12T12:14:23.003Z</time></trkpt><trkpt lat="42.7613641308894" lon="11.566854724377047"><ele>703.2</ele><time>2026-04-12T12:14:24.003Z</time></trkpt><trkpt lat="42.76146389805483" lon="11.566857649979504"><ele>704.0</ele><time>2026-04-12T12:14:25.003Z</time></trkpt><trkpt lat="42.76156633560556" lon="11.56686534251176"><ele>704.0</ele><time>2026-04-12T12:14:26.003Z</time></trkpt><trkpt lat="42.76166975942074" lon="11.566869529936511"><ele>704.0</ele><time>2026-04-12T12:14:27.003Z</time></trkpt><trkpt lat="42.761778019295015" lon="11.56687505524206"><ele>704.0</ele><time>2026-04-12T12:14:28.003Z</time></trkpt><trkpt lat="42.76188567166185" lon="11.566886635317488"><ele>704.0</ele><time>2026-04-12T12:14:29.003Z</time></trkpt><trkpt lat="42.76199559334035" lon="11.5669022598181"><ele>704.0</ele><time>2026-04-12T12:14:30.003Z</time></trkpt><trkpt lat="42.762110301209766" lon="11.566913621596752"><ele>704.0</ele><time>2026-04-12T12:14:31.003Z</time></trkpt><trkpt lat="42.762227539025815" lon="11.566914060829507"><ele>704.0</ele><time>2026-04-12T12:14:32.003Z</time></trkpt><trkpt lat="42.76235112027474" lon="11.566897586702979"><ele>704.0</ele><time>2026-04-12T12:14:33.003Z</time></trkpt><trkpt lat="42.762476240801014" lon="11.566862814244736"><ele>704.0</ele><time>2026-04-12T12:14:34.003Z</time></trkpt><trkpt lat="42.762604107925306" lon="11.56681751063364"><ele>703.0</ele><time>2026-04-12T12:14:35.003Z</time></trkpt><trkpt lat="42.76273816129298" lon="11.566772840730037"><ele>702.0</ele><time>2026-04-12T12:14:36.003Z</time></trkpt><trkpt lat="42.76287591056081" lon="11.56673172513479"><ele>701.0</ele><time>2026-04-12T12:14:37.003Z</time></trkpt><trkpt lat="42.76301612257745" lon="11.566705025259484"><ele>700.0</ele><time>2026-04-12T12:14:38.003Z</time></trkpt><trkpt lat="42.76316120130921" lon="11.566691396450416"><ele>700.0</ele><time>2026-04-12T12:14:39.003Z</time></trkpt><trkpt lat="42.76330672436594" lon="11.566678700819223"><ele>700.0</ele><time>2026-04-12T12:14:40.003Z</time></trkpt><trkpt lat="42.763450428055805" lon="11.5666614378852"><ele>700.0</ele><time>2026-04-12T12:14:40.998Z</time></trkpt><trkpt lat="42.76358054808337" lon="11.566643417248915"><ele>700.0</ele><time>2026-04-12T12:14:41.998Z</time></trkpt><trkpt lat="42.763699207752516" lon="11.566627833206862"><ele>700.0</ele><time>2026-04-12T12:14:42.999Z</time></trkpt><trkpt lat="42.76382144495697" lon="11.566607645181337"><ele>700.0</ele><time>2026-04-12T12:14:43.999Z</time></trkpt><trkpt lat="42.76394299052282" lon="11.566567629343616"><ele>700.0</ele><time>2026-04-12T12:14:44.999Z</time></trkpt><trkpt lat="42.76405550352941" lon="11.566470961943281"><ele>700.0</ele><time>2026-04-12T12:14:45.999Z</time></trkpt><trkpt lat="42.764161943395244" lon="11.566329184182841"><ele>700.3333333333334</ele><time>2026-04-12T12:14:46.999Z</time></trkpt><trkpt lat="42.76427592913468" lon="11.566191736105363"><ele>700.6666666666666</ele><time>2026-04-12T12:14:47.999Z</time></trkpt><trkpt lat="42.764408199786956" lon="11.566076308835665"><ele>701.0</ele><time>2026-04-12T12:14:48.999Z</time></trkpt><trkpt lat="42.764550888266136" lon="11.565967400549733"><ele>701.0</ele><time>2026-04-12T12:14:49.999Z</time></trkpt><trkpt lat="42.764698329618085" lon="11.565859471402987"><ele>701.0</ele><time>2026-04-12T12:14:50.999Z</time></trkpt><trkpt lat="42.764849181527154" lon="11.565754632072077"><ele>701.0</ele><time>2026-04-12T12:14:51.999Z</time></trkpt><trkpt lat="42.76500222380615" lon="11.565650926979767"><ele>701.0</ele><time>2026-04-12T12:14:52.999Z</time></trkpt><trkpt lat="42.76514027066199" lon="11.56555548197526"><ele>701.0</ele><time>2026-04-12T12:14:53.999Z</time></trkpt><trkpt lat="42.76525625948734" lon="11.565463458445198"><ele>701.0</ele><time>2026-04-12T12:14:54.999Z</time></trkpt><trkpt lat="42.765342803076386" lon="11.56533888291509"><ele>701.0</ele><time>2026-04-12T12:14:55.999Z</time></trkpt><trkpt lat="42.76540301858073" lon="11.565165991131794"><ele>699.6666666666666</ele><time>2026-04-12T12:14:56.999Z</time></trkpt><trkpt lat="42.7654437653862" lon="11.564956585806275"><ele>698.3333333333334</ele><time>2026-04-12T12:14:57.999Z</time></trkpt><trkpt lat="42.76548249695299" lon="11.564730824118023"><ele>697.0</ele><time>2026-04-12T12:14:59Z</time></trkpt><trkpt lat="42.76551806397778" lon="11.564494547127184"><ele>697.0</ele><time>2026-04-12T12:15:00Z</time></trkpt><trkpt lat="42.76555980842744" lon="11.564267605374619"><ele>697.0</ele><time>2026-04-12T12:15:01Z</time></trkpt><trkpt lat="42.76561547022564" lon="11.564067135357432"><ele>697.0</ele><time>2026-04-12T12:15:02Z</time></trkpt><trkpt lat="42.765692540125265" lon="11.563891377252943"><ele>697.0</ele><time>2026-04-12T12:15:03Z</time></trkpt><trkpt lat="42.76578480529993" lon="11.563719040444036"><ele>697.0</ele><time>2026-04-12T12:15:04Z</time></trkpt><trkpt lat="42.76590901047862" lon="11.563578208771519"><ele>697.0</ele><time>2026-04-12T12:15:05Z</time></trkpt><trkpt lat="42.766035827576424" lon="11.563445064238502"><ele>697.6666666666667</ele><time>2026-04-12T12:15:06Z</time></trkpt><trkpt lat="42.7661627503784" lon="11.563305184100155"><ele>698.3333333333334</ele><time>2026-04-12T12:15:07Z</time></trkpt><trkpt lat="42.766293970862364" lon="11.563160563871717"><ele>699.0</ele><time>2026-04-12T12:15:08Z</time></trkpt><trkpt lat="42.76643432528673" lon="11.563024219920576"><ele>699.0</ele><time>2026-04-12T12:15:09Z</time></trkpt><trkpt lat="42.766587140366035" lon="11.562910866586767"><ele>699.0</ele><time>2026-04-12T12:15:10Z</time></trkpt><trkpt lat="42.766748200515764" lon="11.56282754624018"><ele>699.0</ele><time>2026-04-12T12:15:11Z</time></trkpt><trkpt lat="42.76691151133457" lon="11.562764962787643"><ele>703.3333333333334</ele><time>2026-04-12T12:15:12Z</time></trkpt><trkpt lat="42.767081872134106" lon="11.562712361185621"><ele>707.6666666666667</ele><time>2026-04-12T12:15:13Z</time></trkpt><trkpt lat="42.76725350104109" lon="11.562664837956083"><ele>712.0</ele><time>2026-04-12T12:15:14Z</time></trkpt><trkpt lat="42.76742243210946" lon="11.56261025299624"><ele>712.0</ele><time>2026-04-12T12:15:15Z</time></trkpt><trkpt lat="42.76758844023007" lon="11.562550156895263"><ele>712.0</ele><time>2026-04-12T12:15:16Z</time></trkpt><trkpt lat="42.76775149286086" lon="11.562494004205465"><ele>712.0</ele><time>2026-04-12T12:15:17Z</time></trkpt><trkpt lat="42.767915280444704" lon="11.562443636500165"><ele>711.3333333333334</ele><time>2026-04-12T12:15:18.001Z</time></trkpt><trkpt lat="42.76807616390163" lon="11.562395193088529"><ele>710.6666666666666</ele><time>2026-04-12T12:15:19.001Z</time></trkpt><trkpt lat="42.76822167494852" lon="11.56234557774661"><ele>710.0</ele><time>2026-04-12T12:15:20.001Z</time></trkpt><trkpt lat="42.76835850391392" lon="11.562295247903128"><ele>710.0</ele><time>2026-04-12T12:15:21.001Z</time></trkpt><trkpt lat="42.76849110231923" lon="11.562245949591315"><ele>710.0</ele><time>2026-04-12T12:15:22.001Z</time></trkpt><trkpt lat="42.76862217290529" lon="11.562200326803385"><ele>710.0</ele><time>2026-04-12T12:15:23.001Z</time></trkpt><trkpt lat="42.76874711604612" lon="11.562143545590098"><ele>710.0</ele><time>2026-04-12T12:15:24.001Z</time></trkpt><trkpt lat="42.768861718600704" lon="11.562052001279646"><ele>712.0</ele><time>2026-04-12T12:15:25.001Z</time></trkpt><trkpt lat="42.7689678959635" lon="11.561925124063148"><ele>714.0</ele><time>2026-04-12T12:15:26.001Z</time></trkpt><trkpt lat="42.769067824489035" lon="11.561773022132988"><ele>716.0</ele><time>2026-04-12T12:15:27.001Z</time></trkpt><trkpt lat="42.76916793235638" lon="11.561609017433627"><ele>718.0</ele><time>2026-04-12T12:15:28.001Z</time></trkpt><trkpt lat="42.76927190892702" lon="11.561449020856227"><ele>717.6666666666667</ele><time>2026-04-12T12:15:29.001Z</time></trkpt><trkpt lat="42.76938459928796" lon="11.561290393838439"><ele>717.3333333333334</ele><time>2026-04-12T12:15:30.001Z</time></trkpt><trkpt lat="42.76949617611474" lon="11.561130195536958"><ele>717.0</ele><time>2026-04-12T12:15:31.001Z</time></trkpt><trkpt lat="42.769607645046506" lon="11.560964178708359"><ele>717.0</ele><time>2026-04-12T12:15:32.001Z</time></trkpt><trkpt lat="42.76972036358025" lon="11.560793393480356"><ele>717.0</ele><time>2026-04-12T12:15:33.001Z</time></trkpt><trkpt lat="42.769830266359534" lon="11.560614659920708"><ele>717.0</ele><time>2026-04-12T12:15:34.001Z</time></trkpt><trkpt lat="42.76993521951313" lon="11.560426276631784"><ele>716.0</ele><time>2026-04-12T12:15:35.001Z</time></trkpt><trkpt lat="42.770038850952815" lon="11.56022770897693"><ele>715.0</ele><time>2026-04-12T12:15:36.001Z</time></trkpt><trkpt lat="42.7701450727744" lon="11.560028570143611"><ele>714.0</ele><time>2026-04-12T12:15:37.001Z</time></trkpt><trkpt lat="42.77025431424152" lon="11.559830644835607"><ele>714.0</ele><time>2026-04-12T12:15:38.001Z</time></trkpt><trkpt lat="42.77036235382103" lon="11.559631305135815"><ele>714.0</ele><time>2026-04-12T12:15:39.001Z</time></trkpt><trkpt lat="42.77046895580847" lon="11.559433066978038"><ele>714.0</ele><time>2026-04-12T12:15:40.001Z</time></trkpt><trkpt lat="42.770577437155495" lon="11.55923452160748"><ele>717.0</ele><time>2026-04-12T12:15:41.001Z</time></trkpt><trkpt lat="42.77068123823927" lon="11.559033440555652"><ele>720.0</ele><time>2026-04-12T12:15:42.001Z</time></trkpt><trkpt lat="42.77076820553435" lon="11.558826382265803"><ele>723.0</ele><time>2026-04-12T12:15:43.001Z</time></trkpt><trkpt lat="42.770827616059194" lon="11.558633839741448"><ele>725.75</ele><time>2026-04-12T12:15:44.001Z</time></trkpt><trkpt lat="42.77087003617307" lon="11.558453881278021"><ele>728.5</ele><time>2026-04-12T12:15:45.001Z</time></trkpt><trkpt lat="42.770912638584456" lon="11.558277571021684"><ele>731.25</ele><time>2026-04-12T12:15:46.001Z</time></trkpt><trkpt lat="42.77095736883704" lon="11.558092066558366"><ele>734.0</ele><time>2026-04-12T12:15:47.002Z</time></trkpt><trkpt lat="42.77100561115618" lon="11.557894338712837"><ele>731.3333333333333</ele><time>2026-04-12T12:15:48.002Z</time></trkpt><trkpt lat="42.771058639472905" lon="11.557695928042897"><ele>728.6666666666666</ele><time>2026-04-12T12:15:49.002Z</time></trkpt><trkpt lat="42.77111842037091" lon="11.557489310253983"><ele>726.0</ele><time>2026-04-12T12:15:50.002Z</time></trkpt><trkpt lat="42.771170934091884" lon="11.557284154052391"><ele>726.0</ele><time>2026-04-12T12:15:51.002Z</time></trkpt><trkpt lat="42.771221025260196" lon="11.55709207816523"><ele>726.0</ele><time>2026-04-12T12:15:52.002Z</time></trkpt><trkpt lat="42.77125954868382" lon="11.556922298280176"><ele>726.0</ele><time>2026-04-12T12:15:53.002Z</time></trkpt><trkpt lat="42.77130219652079" lon="11.556748564241252"><ele>726.0</ele><time>2026-04-12T12:15:54.002Z</time></trkpt><trkpt lat="42.77134598771378" lon="11.556582127645852"><ele>728.0</ele><time>2026-04-12T12:15:55.002Z</time></trkpt><trkpt lat="42.77137638687526" lon="11.55644140174624"><ele>730.0</ele><time>2026-04-12T12:15:56.002Z</time></trkpt><trkpt lat="42.771399413095864" lon="11.556326531571944"><ele>732.0</ele><time>2026-04-12T12:15:57.002Z</time></trkpt><trkpt lat="42.7714255230438" lon="11.556230311741512"><ele>734.0</ele><time>2026-04-12T12:15:58.002Z</time></trkpt><trkpt lat="42.77147035574189" lon="11.556140303578278"><ele>736.0</ele><time>2026-04-12T12:15:59.002Z</time></trkpt><trkpt lat="42.77153265758664" lon="11.556076719007029"><ele>738.0</ele><time>2026-04-12T12:16:00.002Z</time></trkpt><trkpt lat="42.77168935770731" lon="11.556056282469715"><ele>738.0</ele><time>2026-04-12T12:16:02.002Z</time></trkpt><trkpt lat="42.77178243276622" lon="11.556064430168407"><ele>738.0</ele><time>2026-04-12T12:16:03.002Z</time></trkpt><trkpt lat="42.771871854278366" lon="11.556173176541737"><ele>738.0</ele><time>2026-04-12T12:16:04.002Z</time></trkpt><trkpt lat="42.771973646879054" lon="11.5562631391812"><ele>738.0</ele><time>2026-04-12T12:16:05.002Z</time></trkpt><trkpt lat="42.77209421217325" lon="11.556359347648037"><ele>738.0</ele><time>2026-04-12T12:16:06.002Z</time></trkpt><trkpt lat="42.772236720762514" lon="11.556433516448598"><ele>738.0</ele><time>2026-04-12T12:16:07.002Z</time></trkpt><trkpt lat="42.772399717391394" lon="11.556459333907954"><ele>738.0</ele><time>2026-04-12T12:16:08.002Z</time></trkpt><trkpt lat="42.77258205375044" lon="11.556461479351132"><ele>738.3333333333334</ele><time>2026-04-12T12:16:09.002Z</time></trkpt><trkpt lat="42.77277364530636" lon="11.556456363504331"><ele>738.6666666666667</ele><time>2026-04-12T12:16:10.002Z</time></trkpt><trkpt lat="42.77296264300252" lon="11.556459130010628"><ele>739.0</ele><time>2026-04-12T12:16:11.002Z</time></trkpt><trkpt lat="42.77315132935228" lon="11.55646913248931"><ele>739.0</ele><time>2026-04-12T12:16:12.002Z</time></trkpt><trkpt lat="42.77334268018372" lon="11.556479572819054"><ele>739.0</ele><time>2026-04-12T12:16:13.002Z</time></trkpt><trkpt lat="42.773538774801345" lon="11.556487214486708"><ele>739.0</ele><time>2026-04-12T12:16:14.002Z</time></trkpt><trkpt lat="42.773735689810906" lon="11.55649046253064"><ele>740.3333333333334</ele><time>2026-04-12T12:16:15.002Z</time></trkpt><trkpt lat="42.77393602794574" lon="11.556469683436735"><ele>741.6666666666666</ele><time>2026-04-12T12:16:16.002Z</time></trkpt><trkpt lat="42.77412760084174" lon="11.556404073712766"><ele>743.0</ele><time>2026-04-12T12:16:17.002Z</time></trkpt><trkpt lat="42.7743136314443" lon="11.556314577926882"><ele>742.0</ele><time>2026-04-12T12:16:18.002Z</time></trkpt><trkpt lat="42.7744900078124" lon="11.55622193281669"><ele>741.0</ele><time>2026-04-12T12:16:19.003Z</time></trkpt><trkpt lat="42.77466317032341" lon="11.55611831138803"><ele>740.0</ele><time>2026-04-12T12:16:20.003Z</time></trkpt><trkpt lat="42.77483458475319" lon="11.556007517997546"><ele>740.6666666666666</ele><time>2026-04-12T12:16:21.003Z</time></trkpt><trkpt lat="42.77501013608162" lon="11.555900761928752"><ele>741.3333333333334</ele><time>2026-04-12T12:16:22.003Z</time></trkpt><trkpt lat="42.77518727836317" lon="11.555797683312404"><ele>742.0</ele><time>2026-04-12T12:16:23.003Z</time></trkpt><trkpt lat="42.77536467162823" lon="11.555701930105474"><ele>742.0</ele><time>2026-04-12T12:16:24.003Z</time></trkpt><trkpt lat="42.77553583033301" lon="11.555629585232941"><ele>742.0</ele><time>2026-04-12T12:16:25.003Z</time></trkpt><trkpt lat="42.77569062267949" lon="11.555594688668615"><ele>742.0</ele><time>2026-04-12T12:16:26.003Z</time></trkpt><trkpt lat="42.77582825016343" lon="11.55557367786647"><ele>742.0</ele><time>2026-04-12T12:16:27.003Z</time></trkpt><trkpt lat="42.77594980360848" lon="11.555550619306219"><ele>742.0</ele><time>2026-04-12T12:16:28.003Z</time></trkpt><trkpt lat="42.77606123493998" lon="11.555526114461086"><ele>742.0</ele><time>2026-04-12T12:16:29.003Z</time></trkpt><trkpt lat="42.77616531101507" lon="11.555503443505295"><ele>742.0</ele><time>2026-04-12T12:16:30.003Z</time></trkpt><trkpt lat="42.77625727115414" lon="11.555476858184738"><ele>742.0</ele><time>2026-04-12T12:16:31.003Z</time></trkpt><trkpt lat="42.776348869933514" lon="11.55543475062681"><ele>742.6</ele><time>2026-04-12T12:16:32.003Z</time></trkpt><trkpt lat="42.7764297315808" lon="11.555371995559833"><ele>743.2</ele><time>2026-04-12T12:16:33.003Z</time></trkpt><trkpt lat="42.77650514807509" lon="11.555295158752438"><ele>743.8</ele><time>2026-04-12T12:16:34.003Z</time></trkpt><trkpt lat="42.77657839566804" lon="11.555210133768066"><ele>744.4</ele><time>2026-04-12T12:16:35.003Z</time></trkpt><trkpt lat="42.77664566806028" lon="11.555124644290576"><ele>745.0</ele><time>2026-04-12T12:16:36.003Z</time></trkpt><trkpt lat="42.77671332008742" lon="11.555054718573173"><ele>745.0</ele><time>2026-04-12T12:16:37.003Z</time></trkpt><trkpt lat="42.77678365651966" lon="11.555005167306135"><ele>745.0</ele><time>2026-04-12T12:16:38.003Z</time></trkpt><trkpt lat="42.77685356494479" lon="11.554965198450711"><ele>745.0</ele><time>2026-04-12T12:16:39.003Z</time></trkpt><trkpt lat="42.77691925638452" lon="11.554931099055665"><ele>745.0</ele><time>2026-04-12T12:16:40.003Z</time></trkpt><trkpt lat="42.77698175056627" lon="11.554903107981719"><ele>745.0</ele><time>2026-04-12T12:16:41.003Z</time></trkpt><trkpt lat="42.77705888199719" lon="11.554867256809775"><ele>745.0</ele><time>2026-04-12T12:16:43.003Z</time></trkpt><trkpt lat="42.77709740679281" lon="11.55476176553216"><ele>744.6</ele><time>2026-04-12T12:16:46.003Z</time></trkpt><trkpt lat="42.77707874871432" lon="11.55462821439411"><ele>744.2</ele><time>2026-04-12T12:16:47.998Z</time></trkpt><trkpt lat="42.7770274824415" lon="11.554482307743143"><ele>743.8</ele><time>2026-04-12T12:16:49.998Z</time></trkpt><trkpt lat="42.77700264783469" lon="11.554360986174812"><ele>743.4</ele><time>2026-04-12T12:16:50.998Z</time></trkpt><trkpt lat="42.77694950863394" lon="11.554248902066323"><ele>743.0</ele><time>2026-04-12T12:16:51.999Z</time></trkpt><trkpt lat="42.77688640175287" lon="11.554133676395187"><ele>743.8</ele><time>2026-04-12T12:16:52.999Z</time></trkpt><trkpt lat="42.776820769134936" lon="11.554028427764766"><ele>744.5999999999999</ele><time>2026-04-12T12:16:53.999Z</time></trkpt><trkpt lat="42.776732672158445" lon="11.55395304144243"><ele>745.4000000000001</ele><time>2026-04-12T12:16:54.999Z</time></trkpt><trkpt lat="42.77666675382762" lon="11.553845922420324"><ele>746.2</ele><time>2026-04-12T12:16:55.999Z</time></trkpt><trkpt lat="42.776603230624616" lon="11.553751649218418"><ele>747.0</ele><time>2026-04-12T12:16:56.999Z</time></trkpt><trkpt lat="42.77652472036831" lon="11.553659397423312"><ele>747.0</ele><time>2026-04-12T12:16:57.999Z</time></trkpt><trkpt lat="42.776460697418585" lon="11.55353715107112"><ele>747.0</ele><time>2026-04-12T12:16:58.999Z</time></trkpt><trkpt lat="42.77637435868645" lon="11.55342850110538"><ele>747.0</ele><time>2026-04-12T12:16:59.999Z</time></trkpt><trkpt lat="42.776282575272276" lon="11.553341774558286"><ele>747.0</ele><time>2026-04-12T12:17:00.999Z</time></trkpt><trkpt lat="42.77620696355094" lon="11.553259666628218"><ele>747.0</ele><time>2026-04-12T12:17:01.999Z</time></trkpt><trkpt lat="42.77611836321691" lon="11.553190017304201"><ele>747.0</ele><time>2026-04-12T12:17:02.999Z</time></trkpt><trkpt lat="42.7760409141458" lon="11.55311829247276"><ele>747.0</ele><time>2026-04-12T12:17:03.999Z</time></trkpt><trkpt lat="42.775980868665535" lon="11.553048574147661"><ele>747.0</ele><time>2026-04-12T12:17:04.999Z</time></trkpt><trkpt lat="42.775920140875364" lon="11.552910053766434"><ele>747.0</ele><time>2026-04-12T12:17:06.999Z</time></trkpt><trkpt lat="42.77592133470351" lon="11.552819123244719"><ele>747.0</ele><time>2026-04-12T12:17:08Z</time></trkpt><trkpt lat="42.775919324216105" lon="11.552699770500128"><ele>747.0</ele><time>2026-04-12T12:17:09Z</time></trkpt><trkpt lat="42.77591352014166" lon="11.552590191688344"><ele>747.4000000000001</ele><time>2026-04-12T12:17:10Z</time></trkpt><trkpt lat="42.775895482916866" lon="11.55246496398907"><ele>747.8000000000001</ele><time>2026-04-12T12:17:11Z</time></trkpt><trkpt lat="42.77588925452368" lon="11.552340231238603"><ele>748.2</ele><time>2026-04-12T12:17:12Z</time></trkpt><trkpt lat="42.775863033552056" lon="11.552204969476739"><ele>748.6</ele><time>2026-04-12T12:17:13Z</time></trkpt><trkpt lat="42.77583167641811" lon="11.552059889830762"><ele>749.0</ele><time>2026-04-12T12:17:14Z</time></trkpt><trkpt lat="42.77582304152581" lon="11.55192075752693"><ele>747.6</ele><time>2026-04-12T12:17:15Z</time></trkpt><trkpt lat="42.775791028126875" lon="11.551780667843827"><ele>746.2</ele><time>2026-04-12T12:17:16Z</time></trkpt><trkpt lat="42.775762304808794" lon="11.551637911667408"><ele>744.8000000000001</ele><time>2026-04-12T12:17:17Z</time></trkpt><trkpt lat="42.775746441491485" lon="11.55149800703938"><ele>743.4000000000001</ele><time>2026-04-12T12:17:18Z</time></trkpt><trkpt lat="42.77574342937826" lon="11.551341925378775"><ele>742.0</ele><time>2026-04-12T12:17:19Z</time></trkpt><trkpt lat="42.77574236301013" lon="11.551195352562058"><ele>741.3333333333334</ele><time>2026-04-12T12:17:20Z</time></trkpt><trkpt lat="42.77572802332896" lon="11.551074328700595"><ele>740.6666666666667</ele><time>2026-04-12T12:17:21Z</time></trkpt><trkpt lat="42.77573079919604" lon="11.550960253163467"><ele>740.0</ele><time>2026-04-12T12:17:22Z</time></trkpt><trkpt lat="42.77572212915548" lon="11.550855150272147"><ele>739.3333333333334</ele><time>2026-04-12T12:17:23Z</time></trkpt><trkpt lat="42.77569488842385" lon="11.55075296062551"><ele>738.6666666666666</ele><time>2026-04-12T12:17:24Z</time></trkpt><trkpt lat="42.77563956301365" lon="11.550646666876778"><ele>738.0</ele><time>2026-04-12T12:17:25Z</time></trkpt><trkpt lat="42.7755917582314" lon="11.550512495692228"><ele>738.0</ele><time>2026-04-12T12:17:26Z</time></trkpt><trkpt lat="42.77552664549662" lon="11.550384559123358"><ele>738.0</ele><time>2026-04-12T12:17:27.001Z</time></trkpt><trkpt lat="42.77545869711602" lon="11.550251051325537"><ele>738.0</ele><time>2026-04-12T12:17:28.001Z</time></trkpt><trkpt lat="42.77539290378269" lon="11.55012313968878"><ele>738.0</ele><time>2026-04-12T12:17:29.001Z</time></trkpt><trkpt lat="42.77531373450155" lon="11.55001323029949"><ele>738.0</ele><time>2026-04-12T12:17:30.001Z</time></trkpt><trkpt lat="42.775255058855684" lon="11.549898395476504"><ele>738.0</ele><time>2026-04-12T12:17:31.001Z</time></trkpt><trkpt lat="42.77519596683561" lon="11.549777789160508"><ele>738.0</ele><time>2026-04-12T12:17:32.001Z</time></trkpt><trkpt lat="42.77513663537418" lon="11.549679884058323"><ele>738.0</ele><time>2026-04-12T12:17:33.001Z</time></trkpt><trkpt lat="42.77510201217494" lon="11.549576136674183"><ele>738.0</ele><time>2026-04-12T12:17:34.001Z</time></trkpt><trkpt lat="42.77506714665459" lon="11.54947424059767"><ele>735.4</ele><time>2026-04-12T12:17:35.001Z</time></trkpt><trkpt lat="42.77503853350257" lon="11.549369085100897"><ele>732.8</ele><time>2026-04-12T12:17:36.001Z</time></trkpt><trkpt lat="42.7750619924388" lon="11.549228740467932"><ele>730.2</ele><time>2026-04-12T12:17:37.001Z</time></trkpt><trkpt lat="42.775071270155216" lon="11.549090272905985"><ele>727.6</ele><time>2026-04-12T12:17:38.001Z</time></trkpt><trkpt lat="42.77508774082815" lon="11.54894404152049"><ele>725.0</ele><time>2026-04-12T12:17:39.001Z</time></trkpt><trkpt lat="42.77510222550957" lon="11.548794186921882"><ele>723.6</ele><time>2026-04-12T12:17:40.001Z</time></trkpt><trkpt lat="42.775107885513926" lon="11.548651807729742"><ele>722.2</ele><time>2026-04-12T12:17:41.001Z</time></trkpt><trkpt lat="42.775108626288414" lon="11.548500685647246"><ele>720.8</ele><time>2026-04-12T12:17:42.001Z</time></trkpt><trkpt lat="42.77511743908241" lon="11.548346958369487"><ele>719.4</ele><time>2026-04-12T12:17:43.001Z</time></trkpt><trkpt lat="42.775123056290575" lon="11.548207875053235"><ele>718.0</ele><time>2026-04-12T12:17:44.001Z</time></trkpt><trkpt lat="42.77515624763372" lon="11.548078116702913"><ele>715.0</ele><time>2026-04-12T12:17:45.001Z</time></trkpt><trkpt lat="42.77519237837394" lon="11.54794305592223"><ele>712.0</ele><time>2026-04-12T12:17:46.001Z</time></trkpt><trkpt lat="42.775225821034795" lon="11.547789166325881"><ele>709.0</ele><time>2026-04-12T12:17:47.001Z</time></trkpt><trkpt lat="42.77527505171826" lon="11.547639536481688"><ele>706.0</ele><time>2026-04-12T12:17:48.001Z</time></trkpt><trkpt lat="42.77531219142108" lon="11.54748567151794"><ele>704.4</ele><time>2026-04-12T12:17:49.001Z</time></trkpt><trkpt lat="42.77533450110978" lon="11.547342628820626"><ele>702.8</ele><time>2026-04-12T12:17:50.001Z</time></trkpt><trkpt lat="42.77537454272219" lon="11.54721535726274"><ele>701.1999999999999</ele><time>2026-04-12T12:17:51.001Z</time></trkpt><trkpt lat="42.775379763717744" lon="11.547085608922048"><ele>699.5999999999999</ele><time>2026-04-12T12:17:52.001Z</time></trkpt><trkpt lat="42.77539829393048" lon="11.546964475095697"><ele>698.0</ele><time>2026-04-12T12:17:53.001Z</time></trkpt><trkpt lat="42.775401462024625" lon="11.546863255423027"><ele>696.8</ele><time>2026-04-12T12:17:54.001Z</time></trkpt><trkpt lat="42.77537739814684" lon="11.546753938274103"><ele>695.5999999999999</ele><time>2026-04-12T12:17:55.002Z</time></trkpt><trkpt lat="42.77532377832321" lon="11.546641950665174"><ele>694.4000000000001</ele><time>2026-04-12T12:17:56.002Z</time></trkpt><trkpt lat="42.77526599379944" lon="11.54650734777923"><ele>693.2</ele><time>2026-04-12T12:17:57.002Z</time></trkpt><trkpt lat="42.77518796149566" lon="11.546388603656562"><ele>692.0</ele><time>2026-04-12T12:17:58.002Z</time></trkpt><trkpt lat="42.775117914817805" lon="11.546286125491513"><ele>692.25</ele><time>2026-04-12T12:17:59.002Z</time></trkpt><trkpt lat="42.77503203613242" lon="11.546196890949734"><ele>692.5</ele><time>2026-04-12T12:18:00.002Z</time></trkpt><trkpt lat="42.77496401902511" lon="11.546078144851254"><ele>692.75</ele><time>2026-04-12T12:18:01.002Z</time></trkpt><trkpt lat="42.77488741432636" lon="11.5459496320604"><ele>693.0</ele><time>2026-04-12T12:18:02.002Z</time></trkpt><trkpt lat="42.7748063414875" lon="11.54583250107937"><ele>693.0</ele><time>2026-04-12T12:18:03.002Z</time></trkpt><trkpt lat="42.774766682517495" lon="11.54567774058241"><ele>693.0</ele><time>2026-04-12T12:18:04.002Z</time></trkpt><trkpt lat="42.77472620209158" lon="11.545533155354102"><ele>693.0</ele><time>2026-04-12T12:18:05.002Z</time></trkpt><trkpt lat="42.77469777910089" lon="11.545376470180262"><ele>693.0</ele><time>2026-04-12T12:18:06.002Z</time></trkpt><trkpt lat="42.77467002603223" lon="11.545198212500646"><ele>691.2</ele><time>2026-04-12T12:18:07.002Z</time></trkpt><trkpt lat="42.77463765920492" lon="11.54503443646137"><ele>689.4</ele><time>2026-04-12T12:18:08.002Z</time></trkpt><trkpt lat="42.77459600560225" lon="11.544912862030703"><ele>687.6</ele><time>2026-04-12T12:18:09.002Z</time></trkpt><trkpt lat="42.77457927539499" lon="11.54480921694422"><ele>685.8000000000001</ele><time>2026-04-12T12:18:10.002Z</time></trkpt><trkpt lat="42.77454981800808" lon="11.544714848324096"><ele>684.0</ele><time>2026-04-12T12:18:11.002Z</time></trkpt><trkpt lat="42.77455421881451" lon="11.544554941891102"><ele>683.0</ele><time>2026-04-12T12:18:13.002Z</time></trkpt><trkpt lat="42.77463835186783" lon="11.544446073837664"><ele>682.0</ele><time>2026-04-12T12:18:15.002Z</time></trkpt><trkpt lat="42.77471267472145" lon="11.544404830377715"><ele>681.0</ele><time>2026-04-12T12:18:16.002Z</time></trkpt><trkpt lat="42.774798313474356" lon="11.5443507309768"><ele>680.0</ele><time>2026-04-12T12:18:17.002Z</time></trkpt><trkpt lat="42.77488916935728" lon="11.544295288225987"><ele>679.0</ele><time>2026-04-12T12:18:18.002Z</time></trkpt><trkpt lat="42.774962804202694" lon="11.544212756457188"><ele>679.0</ele><time>2026-04-12T12:18:19.002Z</time></trkpt><trkpt lat="42.77499523300245" lon="11.54407698827346"><ele>679.0</ele><time>2026-04-12T12:18:20.002Z</time></trkpt><trkpt lat="42.7750426055409" lon="11.543947597629318"><ele>679.0</ele><time>2026-04-12T12:18:21.002Z</time></trkpt><trkpt lat="42.77508436909156" lon="11.543799112401114"><ele>679.0</ele><time>2026-04-12T12:18:22.002Z</time></trkpt><trkpt lat="42.775123152681736" lon="11.543642002265399"><ele>679.0</ele><time>2026-04-12T12:18:23.002Z</time></trkpt><trkpt lat="42.77514826813197" lon="11.543478759605646"><ele>680.75</ele><time>2026-04-12T12:18:24.002Z</time></trkpt><trkpt lat="42.775187299036226" lon="11.543310288350654"><ele>682.5</ele><time>2026-04-12T12:18:25.002Z</time></trkpt><trkpt lat="42.77520600561167" lon="11.543127029410607"><ele>684.25</ele><time>2026-04-12T12:18:26.002Z</time></trkpt><trkpt lat="42.77519769793327" lon="11.542966977461766"><ele>686.0</ele><time>2026-04-12T12:18:27.002Z</time></trkpt><trkpt lat="42.775213074175035" lon="11.542801522379884"><ele>684.75</ele><time>2026-04-12T12:18:28.003Z</time></trkpt><trkpt lat="42.775195847923335" lon="11.542608942827593"><ele>683.5</ele><time>2026-04-12T12:18:29.003Z</time></trkpt><trkpt lat="42.77517863755648" lon="11.542422920055609"><ele>682.25</ele><time>2026-04-12T12:18:30.003Z</time></trkpt><trkpt lat="42.77515919153246" lon="11.542272177198823"><ele>681.0</ele><time>2026-04-12T12:18:31.003Z</time></trkpt><trkpt lat="42.77512956826273" lon="11.542163188290305"><ele>681.0</ele><time>2026-04-12T12:18:32.003Z</time></trkpt><trkpt lat="42.77512774866895" lon="11.542074736239089"><ele>681.0</ele><time>2026-04-12T12:18:33.003Z</time></trkpt><trkpt lat="42.77509692859942" lon="11.54199426157819"><ele>681.0</ele><time>2026-04-12T12:18:34.003Z</time></trkpt><trkpt lat="42.77503563339025" lon="11.541933209948056"><ele>681.0</ele><time>2026-04-12T12:18:35.003Z</time></trkpt><trkpt lat="42.77494444277733" lon="11.541896033060532"><ele>681.0</ele><time>2026-04-12T12:18:36.003Z</time></trkpt><trkpt lat="42.774850157426265" lon="11.54185435009623"><ele>681.0</ele><time>2026-04-12T12:18:37.003Z</time></trkpt><trkpt lat="42.77473436185023" lon="11.541823852461361"><ele>680.1999999999999</ele><time>2026-04-12T12:18:38.003Z</time></trkpt><trkpt lat="42.77462908187211" lon="11.541783473126365"><ele>679.4</ele><time>2026-04-12T12:18:39.003Z</time></trkpt><trkpt lat="42.77454955480399" lon="11.541709756385755"><ele>678.6</ele><time>2026-04-12T12:18:40.003Z</time></trkpt><trkpt lat="42.77447503584258" lon="11.541633577521281"><ele>677.8</ele><time>2026-04-12T12:18:41.003Z</time></trkpt><trkpt lat="42.774402503054986" lon="11.541552537565135"><ele>677.0</ele><time>2026-04-12T12:18:42.003Z</time></trkpt><trkpt lat="42.77431091443561" lon="11.54145979773102"><ele>677.0</ele><time>2026-04-12T12:18:43.003Z</time></trkpt><trkpt lat="42.77423133658838" lon="11.541354150118574"><ele>677.0</ele><time>2026-04-12T12:18:44.003Z</time></trkpt><trkpt lat="42.7741686022788" lon="11.541253287162872"><ele>677.0</ele><time>2026-04-12T12:18:45.003Z</time></trkpt><trkpt lat="42.774122742194734" lon="11.541153168794676"><ele>677.0</ele><time>2026-04-12T12:18:46.003Z</time></trkpt><trkpt lat="42.774072522216585" lon="11.54107696718521"><ele>677.0</ele><time>2026-04-12T12:18:47.003Z</time></trkpt><trkpt lat="42.774020262913965" lon="11.541007384093014"><ele>677.0</ele><time>2026-04-12T12:18:48.003Z</time></trkpt><trkpt lat="42.77394888389129" lon="11.540962885712055"><ele>674.6</ele><time>2026-04-12T12:18:49.003Z</time></trkpt><trkpt lat="42.77387742662685" lon="11.540925424772075"><ele>672.2</ele><time>2026-04-12T12:18:50.003Z</time></trkpt><trkpt lat="42.77379763544616" lon="11.540926805930654"><ele>669.8</ele><time>2026-04-12T12:18:51.003Z</time></trkpt><trkpt lat="42.77370438213612" lon="11.54096179470631"><ele>667.4</ele><time>2026-04-12T12:18:52.003Z</time></trkpt><trkpt lat="42.77359601457123" lon="11.5409601428642"><ele>665.0</ele><time>2026-04-12T12:18:52.998Z</time></trkpt><trkpt lat="42.773502138546036" lon="11.540973665371025"><ele>665.0</ele><time>2026-04-12T12:18:53.998Z</time></trkpt><trkpt lat="42.77341389674509" lon="11.54098029606514"><ele>665.0</ele><time>2026-04-12T12:18:54.999Z</time></trkpt><trkpt lat="42.77333532822102" lon="11.540964690734768"><ele>665.0</ele><time>2026-04-12T12:18:55.999Z</time></trkpt><trkpt lat="42.773284820143225" lon="11.540911841398605"><ele>665.0</ele><time>2026-04-12T12:18:56.999Z</time></trkpt><trkpt lat="42.773228391484004" lon="11.540827147694715"><ele>665.0</ele><time>2026-04-12T12:18:57.999Z</time></trkpt><trkpt lat="42.77318200225786" lon="11.540699601123505"><ele>665.0</ele><time>2026-04-12T12:18:58.999Z</time></trkpt><trkpt lat="42.77311951074538" lon="11.540566348624717"><ele>665.0</ele><time>2026-04-12T12:18:59.999Z</time></trkpt><trkpt lat="42.773070097953685" lon="11.540476115635204"><ele>665.0</ele><time>2026-04-12T12:19:00.999Z</time></trkpt><trkpt lat="42.77300705234467" lon="11.540395620591765"><ele>665.0</ele><time>2026-04-12T12:19:01.999Z</time></trkpt><trkpt lat="42.77292766025124" lon="11.540366475624998"><ele>665.0</ele><time>2026-04-12T12:19:02.999Z</time></trkpt><trkpt lat="42.77285690777083" lon="11.540347893301501"><ele>665.0</ele><time>2026-04-12T12:19:03.999Z</time></trkpt><trkpt lat="42.77276837914815" lon="11.540360562059927"><ele>665.0</ele><time>2026-04-12T12:19:04.999Z</time></trkpt><trkpt lat="42.7726712905689" lon="11.540399800886847"><ele>665.8333333333333</ele><time>2026-04-12T12:19:05.999Z</time></trkpt><trkpt lat="42.77257583935507" lon="11.5404143138402"><ele>666.6666666666666</ele><time>2026-04-12T12:19:06.999Z</time></trkpt><trkpt lat="42.77249993543083" lon="11.540424007491131"><ele>667.5</ele><time>2026-04-12T12:19:07.999Z</time></trkpt><trkpt lat="42.77242224612503" lon="11.540417473561098"><ele>668.3333333333334</ele><time>2026-04-12T12:19:08.999Z</time></trkpt><trkpt lat="42.77236872944922" lon="11.540355747052155"><ele>669.1666666666667</ele><time>2026-04-12T12:19:09.999Z</time></trkpt><trkpt lat="42.77229883039428" lon="11.540278100933861"><ele>670.0</ele><time>2026-04-12T12:19:11Z</time></trkpt><trkpt lat="42.77222204876427" lon="11.54017612047652"><ele>666.4</ele><time>2026-04-12T12:19:12Z</time></trkpt><trkpt lat="42.77216430913918" lon="11.540069678714012"><ele>662.8</ele><time>2026-04-12T12:19:13Z</time></trkpt><trkpt lat="42.77210920049956" lon="11.539968721029867"><ele>659.2</ele><time>2026-04-12T12:19:14Z</time></trkpt><trkpt lat="42.772076083593525" lon="11.539877071802147"><ele>655.6</ele><time>2026-04-12T12:19:15Z</time></trkpt><trkpt lat="42.77207765972677" lon="11.539740547280008"><ele>652.0</ele><time>2026-04-12T12:19:16Z</time></trkpt><trkpt lat="42.77209461445737" lon="11.53958871833264"><ele>649.8333333333334</ele><time>2026-04-12T12:19:17Z</time></trkpt><trkpt lat="42.772104508567296" lon="11.539460120032864"><ele>647.6666666666667</ele><time>2026-04-12T12:19:18Z</time></trkpt><trkpt lat="42.77209567447041" lon="11.539355143122506"><ele>645.5</ele><time>2026-04-12T12:19:19Z</time></trkpt><trkpt lat="42.77206745065518" lon="11.539262289810841"><ele>643.3333333333334</ele><time>2026-04-12T12:19:20Z</time></trkpt><trkpt lat="42.77200511180699" lon="11.539184098972704"><ele>641.1666666666666</ele><time>2026-04-12T12:19:21Z</time></trkpt><trkpt lat="42.77194542471178" lon="11.539103644131607"><ele>639.0</ele><time>2026-04-12T12:19:22Z</time></trkpt><trkpt lat="42.77188208800975" lon="11.53900940603708"><ele>639.3333333333334</ele><time>2026-04-12T12:19:23Z</time></trkpt><trkpt lat="42.77181629220568" lon="11.538907873630187"><ele>639.6666666666666</ele><time>2026-04-12T12:19:24Z</time></trkpt><trkpt lat="42.77175073189524" lon="11.538802785003622"><ele>640.0</ele><time>2026-04-12T12:19:25Z</time></trkpt><trkpt lat="42.771703227533436" lon="11.538713576314677"><ele>640.3333333333333</ele><time>2026-04-12T12:19:26Z</time></trkpt><trkpt lat="42.77165687250998" lon="11.53862474645178"><ele>640.6666666666666</ele><time>2026-04-12T12:19:27Z</time></trkpt><trkpt lat="42.77161265505877" lon="11.53853184141362"><ele>641.0</ele><time>2026-04-12T12:19:28Z</time></trkpt><trkpt lat="42.77158373487315" lon="11.538438658007701"><ele>641.0</ele><time>2026-04-12T12:19:29Z</time></trkpt><trkpt lat="42.77156224855555" lon="11.538331284926564"><ele>641.0</ele><time>2026-04-12T12:19:30.001Z</time></trkpt><trkpt lat="42.771559553076855" lon="11.538228558265269"><ele>641.0</ele><time>2026-04-12T12:19:31.001Z</time></trkpt><trkpt lat="42.77155774526912" lon="11.538109491187567"><ele>641.0</ele><time>2026-04-12T12:19:32.001Z</time></trkpt><trkpt lat="42.77155345408162" lon="11.537976996791926"><ele>641.0</ele><time>2026-04-12T12:19:33.001Z</time></trkpt><trkpt lat="42.77153574127417" lon="11.537842372464317"><ele>641.0</ele><time>2026-04-12T12:19:34.001Z</time></trkpt><trkpt lat="42.77150715484394" lon="11.537713252850478"><ele>639.25</ele><time>2026-04-12T12:19:35.001Z</time></trkpt><trkpt lat="42.771476742153645" lon="11.537602378825882"><ele>637.5</ele><time>2026-04-12T12:19:36.001Z</time></trkpt><trkpt lat="42.77143069947464" lon="11.537470382253234"><ele>635.75</ele><time>2026-04-12T12:19:37.001Z</time></trkpt><trkpt lat="42.77135917142158" lon="11.537321014966126"><ele>634.0</ele><time>2026-04-12T12:19:38.001Z</time></trkpt><trkpt lat="42.77127216045129" lon="11.537196045711466"><ele>634.0</ele><time>2026-04-12T12:19:39.001Z</time></trkpt><trkpt lat="42.771216407583175" lon="11.53707827479909"><ele>634.0</ele><time>2026-04-12T12:19:40.001Z</time></trkpt><trkpt lat="42.77120014736264" lon="11.536967493436139"><ele>634.0</ele><time>2026-04-12T12:19:41.001Z</time></trkpt><trkpt lat="42.77118623754633" lon="11.53685414911208"><ele>634.0</ele><time>2026-04-12T12:19:42.001Z</time></trkpt><trkpt lat="42.771183549864915" lon="11.536714130151982"><ele>634.0</ele><time>2026-04-12T12:19:43.001Z</time></trkpt><trkpt lat="42.77118670969878" lon="11.536549630727942"><ele>633.25</ele><time>2026-04-12T12:19:44.001Z</time></trkpt><trkpt lat="42.77119569796032" lon="11.536376724432344"><ele>632.5</ele><time>2026-04-12T12:19:45.001Z</time></trkpt><trkpt lat="42.77120551436012" lon="11.536234231675326"><ele>631.75</ele><time>2026-04-12T12:19:46.001Z</time></trkpt><trkpt lat="42.77121817612168" lon="11.536091576471222"><ele>631.0</ele><time>2026-04-12T12:19:47.001Z</time></trkpt><trkpt lat="42.77122540214128" lon="11.53592993195636"><ele>630.6666666666667</ele><time>2026-04-12T12:19:48.001Z</time></trkpt><trkpt lat="42.77129286941764" lon="11.53578405471531"><ele>630.3333333333334</ele><time>2026-04-12T12:19:49.001Z</time></trkpt><trkpt lat="42.77132530159178" lon="11.535652058894694"><ele>630.0</ele><time>2026-04-12T12:19:50.001Z</time></trkpt><trkpt lat="42.77134563735432" lon="11.535556398637826"><ele>629.6666666666666</ele><time>2026-04-12T12:19:51.001Z</time></trkpt><trkpt lat="42.77135617123981" lon="11.535471137941334"><ele>629.3333333333333</ele><time>2026-04-12T12:19:52.001Z</time></trkpt><trkpt lat="42.771336028669126" lon="11.535364185659004"><ele>629.0</ele><time>2026-04-12T12:19:53.001Z</time></trkpt><trkpt lat="42.77127976226773" lon="11.535269753229958"><ele>627.8</ele><time>2026-04-12T12:19:54.001Z</time></trkpt><trkpt lat="42.77120213428274" lon="11.535173628750737"><ele>626.5999999999999</ele><time>2026-04-12T12:19:55.001Z</time></trkpt><trkpt lat="42.771104309874744" lon="11.535078627664738"><ele>625.4</ele><time>2026-04-12T12:19:56.001Z</time></trkpt><trkpt lat="42.771023083877076" lon="11.534978735631636"><ele>624.1999999999999</ele><time>2026-04-12T12:19:57.001Z</time></trkpt><trkpt lat="42.77095457555735" lon="11.534870173777476"><ele>623.0</ele><time>2026-04-12T12:19:58.001Z</time></trkpt><trkpt lat="42.77090526692793" lon="11.534774522045343"><ele>623.3333333333333</ele><time>2026-04-12T12:19:59.002Z</time></trkpt><trkpt lat="42.77087050776616" lon="11.534663753789586"><ele>623.6666666666666</ele><time>2026-04-12T12:20:00.002Z</time></trkpt><trkpt lat="42.77084737804118" lon="11.534554830913496"><ele>624.0</ele><time>2026-04-12T12:20:01.002Z</time></trkpt><trkpt lat="42.77081660658535" lon="11.534464705458076"><ele>624.3333333333334</ele><time>2026-04-12T12:20:02.002Z</time></trkpt><trkpt lat="42.7707796162682" lon="11.53437776993445"><ele>624.6666666666667</ele><time>2026-04-12T12:20:03.002Z</time></trkpt><trkpt lat="42.770720610743716" lon="11.534320395275952"><ele>625.0</ele><time>2026-04-12T12:20:04.002Z</time></trkpt><trkpt lat="42.77066576622922" lon="11.534249669434764"><ele>625.0</ele><time>2026-04-12T12:20:05.002Z</time></trkpt><trkpt lat="42.770606694776845" lon="11.534167015901138"><ele>625.0</ele><time>2026-04-12T12:20:06.002Z</time></trkpt><trkpt lat="42.770545384387" lon="11.534109833561455"><ele>625.0</ele><time>2026-04-12T12:20:07.002Z</time></trkpt><trkpt lat="42.770481157817414" lon="11.53405653561314"><ele>625.0</ele><time>2026-04-12T12:20:08.002Z</time></trkpt><trkpt lat="42.77040679882288" lon="11.533999370056616"><ele>625.0</ele><time>2026-04-12T12:20:09.002Z</time></trkpt><trkpt lat="42.77033729242195" lon="11.533959850172486"><ele>625.0</ele><time>2026-04-12T12:20:10.002Z</time></trkpt><trkpt lat="42.77021244679339" lon="11.533887565238159"><ele>626.4</ele><time>2026-04-12T12:20:12.002Z</time></trkpt><trkpt lat="42.770114335264" lon="11.533934329189998"><ele>627.8</ele><time>2026-04-12T12:20:13.002Z</time></trkpt><trkpt lat="42.77001360385714" lon="11.533954751309405"><ele>629.2</ele><time>2026-04-12T12:20:14.002Z</time></trkpt><trkpt lat="42.76992040596517" lon="11.533964995294813"><ele>630.6</ele><time>2026-04-12T12:20:15.002Z</time></trkpt><trkpt lat="42.769839610707606" lon="11.533949222611975"><ele>632.0</ele><time>2026-04-12T12:20:16.002Z</time></trkpt><trkpt lat="42.76978176987133" lon="11.533881533523173"><ele>632.0</ele><time>2026-04-12T12:20:17.002Z</time></trkpt><trkpt lat="42.76970135285448" lon="11.533805933866242"><ele>632.0</ele><time>2026-04-12T12:20:18.002Z</time></trkpt><trkpt lat="42.7696155760002" lon="11.533712552697398"><ele>632.0</ele><time>2026-04-12T12:20:19.002Z</time></trkpt><trkpt lat="42.76953368567948" lon="11.533600772201975"><ele>632.0</ele><time>2026-04-12T12:20:20.002Z</time></trkpt><trkpt lat="42.76945440637691" lon="11.533487721238714"><ele>632.0</ele><time>2026-04-12T12:20:21.002Z</time></trkpt><trkpt lat="42.769366555172084" lon="11.533363764969835"><ele>629.5</ele><time>2026-04-12T12:20:22.002Z</time></trkpt><trkpt lat="42.769269480631905" lon="11.533256132857032"><ele>627.0</ele><time>2026-04-12T12:20:23.002Z</time></trkpt><trkpt lat="42.769183428655154" lon="11.53313363380042"><ele>624.5</ele><time>2026-04-12T12:20:24.002Z</time></trkpt><trkpt lat="42.76908566788597" lon="11.533014287098931"><ele>622.0</ele><time>2026-04-12T12:20:25.002Z</time></trkpt><trkpt lat="42.76897716858337" lon="11.532887543448293"><ele>619.5</ele><time>2026-04-12T12:20:26.002Z</time></trkpt><trkpt lat="42.768863803414504" lon="11.532749690829384"><ele>617.0</ele><time>2026-04-12T12:20:27.002Z</time></trkpt><trkpt lat="42.76875937711198" lon="11.53263349968669"><ele>614.5</ele><time>2026-04-12T12:20:28.002Z</time></trkpt><trkpt lat="42.76869257096885" lon="11.532527267009701"><ele>612.0</ele><time>2026-04-12T12:20:29.002Z</time></trkpt><trkpt lat="42.76862954202454" lon="11.532445961127193"><ele>612.0</ele><time>2026-04-12T12:20:30.002Z</time></trkpt><trkpt lat="42.768585739766976" lon="11.53237322058497"><ele>612.0</ele><time>2026-04-12T12:20:31.002Z</time></trkpt><trkpt lat="42.768548242817396" lon="11.53227913665446"><ele>612.0</ele><time>2026-04-12T12:20:32.003Z</time></trkpt><trkpt lat="42.768538284933776" lon="11.532170748398357"><ele>612.0</ele><time>2026-04-12T12:20:33.003Z</time></trkpt><trkpt lat="42.768540472398826" lon="11.532060227037126"><ele>612.0</ele><time>2026-04-12T12:20:34.003Z</time></trkpt><trkpt lat="42.76853216561303" lon="11.531918764988248"><ele>612.0</ele><time>2026-04-12T12:20:35.003Z</time></trkpt><trkpt lat="42.76854239796316" lon="11.531752922897304"><ele>611.8000000000001</ele><time>2026-04-12T12:20:36.003Z</time></trkpt><trkpt lat="42.76854340146494" lon="11.531591878565013"><ele>611.6</ele><time>2026-04-12T12:20:37.003Z</time></trkpt><trkpt lat="42.768543575784335" lon="11.531444252899131"><ele>611.4000000000001</ele><time>2026-04-12T12:20:38.003Z</time></trkpt><trkpt lat="42.76856386540969" lon="11.531313543893521"><ele>611.2</ele><time>2026-04-12T12:20:39.003Z</time></trkpt><trkpt lat="42.76855402066955" lon="11.531181704315216"><ele>611.0</ele><time>2026-04-12T12:20:40.003Z</time></trkpt><trkpt lat="42.76851358237256" lon="11.531039373789287"><ele>613.8</ele><time>2026-04-12T12:20:41.003Z</time></trkpt><trkpt lat="42.768440535358" lon="11.530930077748208"><ele>616.6</ele><time>2026-04-12T12:20:42.003Z</time></trkpt><trkpt lat="42.768375868254225" lon="11.530821868295584"><ele>619.4</ele><time>2026-04-12T12:20:43.003Z</time></trkpt><trkpt lat="42.768299589447636" lon="11.530724588917643"><ele>622.2</ele><time>2026-04-12T12:20:44.003Z</time></trkpt><trkpt lat="42.76823193604581" lon="11.530593799499176"><ele>625.0</ele><time>2026-04-12T12:20:45.003Z</time></trkpt><trkpt lat="42.768145288659376" lon="11.530479629283633"><ele>623.4</ele><time>2026-04-12T12:20:46.003Z</time></trkpt><trkpt lat="42.76805904329067" lon="11.530367578291264"><ele>621.8</ele><time>2026-04-12T12:20:47.003Z</time></trkpt><trkpt lat="42.767981086198084" lon="11.530256900687798"><ele>620.2</ele><time>2026-04-12T12:20:48.003Z</time></trkpt><trkpt lat="42.767910601229566" lon="11.53014568497344"><ele>618.6</ele><time>2026-04-12T12:20:49.003Z</time></trkpt><trkpt lat="42.767843222742364" lon="11.530032530861924"><ele>617.0</ele><time>2026-04-12T12:20:50.003Z</time></trkpt><trkpt lat="42.767782034271164" lon="11.52992168800658"><ele>617.0</ele><time>2026-04-12T12:20:51.003Z</time></trkpt><trkpt lat="42.767720866997564" lon="11.529794200033544"><ele>617.0</ele><time>2026-04-12T12:20:52.003Z</time></trkpt><trkpt lat="42.767669191883826" lon="11.529669699634871"><ele>617.0</ele><time>2026-04-12T12:20:53.003Z</time></trkpt><trkpt lat="42.76761464113466" lon="11.529535002231896"><ele>617.0</ele><time>2026-04-12T12:20:54.003Z</time></trkpt><trkpt lat="42.76756042532235" lon="11.529411350432003"><ele>617.0</ele><time>2026-04-12T12:20:55.003Z</time></trkpt><trkpt lat="42.767528520329975" lon="11.52931198867071"><ele>618.2</ele><time>2026-04-12T12:20:56.003Z</time></trkpt><trkpt lat="42.76751957075316" lon="11.529212235628593"><ele>619.4000000000001</ele><time>2026-04-12T12:20:57.003Z</time></trkpt><trkpt lat="42.767531063707075" lon="11.529103791725854"><ele>620.5999999999999</ele><time>2026-04-12T12:20:58.003Z</time></trkpt><trkpt lat="42.76755089783209" lon="11.528977207726667"><ele>621.8</ele><time>2026-04-12T12:20:58.999Z</time></trkpt><trkpt lat="42.767584322795656" lon="11.528853418392808"><ele>623.0</ele><time>2026-04-12T12:20:59.999Z</time></trkpt><trkpt lat="42.76762145511537" lon="11.528707700676723"><ele>623.0</ele><time>2026-04-12T12:21:00.999Z</time></trkpt><trkpt lat="42.76764435993863" lon="11.528582321007274"><ele>623.0</ele><time>2026-04-12T12:21:01.999Z</time></trkpt><trkpt lat="42.76766061075743" lon="11.528482867277567"><ele>623.0</ele><time>2026-04-12T12:21:02.999Z</time></trkpt><trkpt lat="42.76765655177985" lon="11.528377439140082"><ele>623.0</ele><time>2026-04-12T12:21:03.999Z</time></trkpt><trkpt lat="42.76757770545719" lon="11.528237321137958"><ele>623.0</ele><time>2026-04-12T12:21:05.999Z</time></trkpt><trkpt lat="42.767526237062725" lon="11.528181854438497"><ele>623.0</ele><time>2026-04-12T12:21:06.999Z</time></trkpt><trkpt lat="42.76745825814673" lon="11.52813134453491"><ele>623.0</ele><time>2026-04-12T12:21:07.999Z</time></trkpt><trkpt lat="42.76736260966651" lon="11.528091835813235"><ele>623.0</ele><time>2026-04-12T12:21:08.999Z</time></trkpt><trkpt lat="42.76724255411976" lon="11.528047013580082"><ele>623.0</ele><time>2026-04-12T12:21:09.999Z</time></trkpt><trkpt lat="42.767118111600915" lon="11.528003980861042"><ele>623.0</ele><time>2026-04-12T12:21:10.999Z</time></trkpt><trkpt lat="42.76700629243422" lon="11.527978008050738"><ele>623.0</ele><time>2026-04-12T12:21:11.999Z</time></trkpt><trkpt lat="42.766922130205586" lon="11.527917644238864"><ele>623.0</ele><time>2026-04-12T12:21:13Z</time></trkpt><trkpt lat="42.76683330429005" lon="11.527866773627007"><ele>623.0</ele><time>2026-04-12T12:21:14Z</time></trkpt><trkpt lat="42.76673759561655" lon="11.527785057253151"><ele>623.0</ele><time>2026-04-12T12:21:15Z</time></trkpt><trkpt lat="42.766649388498436" lon="11.527694425798812"><ele>623.0</ele><time>2026-04-12T12:21:16Z</time></trkpt><trkpt lat="42.766579656675646" lon="11.527616101742735"><ele>622.0</ele><time>2026-04-12T12:21:17Z</time></trkpt><trkpt lat="42.766511587198764" lon="11.52753686774503"><ele>621.0</ele><time>2026-04-12T12:21:18Z</time></trkpt><trkpt lat="42.76645607853796" lon="11.527458447927103"><ele>620.0</ele><time>2026-04-12T12:21:19Z</time></trkpt><trkpt lat="42.766413533890315" lon="11.527369904347895"><ele>619.0</ele><time>2026-04-12T12:21:20Z</time></trkpt><trkpt lat="42.76636786056441" lon="11.527263967911624"><ele>618.0</ele><time>2026-04-12T12:21:21Z</time></trkpt><trkpt lat="42.76636009092786" lon="11.527165422379761"><ele>617.0</ele><time>2026-04-12T12:21:22Z</time></trkpt><trkpt lat="42.766322918073925" lon="11.527069441000467"><ele>615.4</ele><time>2026-04-12T12:21:23Z</time></trkpt><trkpt lat="42.766336155108334" lon="11.526955964607009"><ele>613.8000000000001</ele><time>2026-04-12T12:21:24Z</time></trkpt><trkpt lat="42.76635787341076" lon="11.526831224207529"><ele>612.2</ele><time>2026-04-12T12:21:25Z</time></trkpt><trkpt lat="42.76639493223601" lon="11.526702389382228"><ele>610.6</ele><time>2026-04-12T12:21:26Z</time></trkpt><trkpt lat="42.76645047243807" lon="11.52658727992005"><ele>609.0</ele><time>2026-04-12T12:21:27Z</time></trkpt><trkpt lat="42.76647901394303" lon="11.52646449436446"><ele>609.0</ele><time>2026-04-12T12:21:28Z</time></trkpt><trkpt lat="42.766496524648154" lon="11.52633248002109"><ele>609.0</ele><time>2026-04-12T12:21:29Z</time></trkpt><trkpt lat="42.766524121998074" lon="11.526206222164765"><ele>609.0</ele><time>2026-04-12T12:21:30Z</time></trkpt><trkpt lat="42.76656104285831" lon="11.526092701270809"><ele>609.0</ele><time>2026-04-12T12:21:31Z</time></trkpt><trkpt lat="42.766578472163125" lon="11.525979024052841"><ele>609.0</ele><time>2026-04-12T12:21:32Z</time></trkpt><trkpt lat="42.76658035184329" lon="11.5258662157173"><ele>606.5</ele><time>2026-04-12T12:21:33Z</time></trkpt><trkpt lat="42.76653586675206" lon="11.525736358276278"><ele>604.0</ele><time>2026-04-12T12:21:34.001Z</time></trkpt><trkpt lat="42.766472905804854" lon="11.5256053103463"><ele>601.5</ele><time>2026-04-12T12:21:35.001Z</time></trkpt><trkpt lat="42.76640561529248" lon="11.525467081576492"><ele>599.0</ele><time>2026-04-12T12:21:36.001Z</time></trkpt><trkpt lat="42.76633970485746" lon="11.525335625849323"><ele>598.4</ele><time>2026-04-12T12:21:37.001Z</time></trkpt><trkpt lat="42.766267625876054" lon="11.525188654054585"><ele>597.8</ele><time>2026-04-12T12:21:38.001Z</time></trkpt><trkpt lat="42.76619845870629" lon="11.525053759874913"><ele>597.2</ele><time>2026-04-12T12:21:39.001Z</time></trkpt><trkpt lat="42.76612749806719" lon="11.524960572064483"><ele>596.6</ele><time>2026-04-12T12:21:40.001Z</time></trkpt><trkpt lat="42.766063539822106" lon="11.524867831255621"><ele>596.0</ele><time>2026-04-12T12:21:41.001Z</time></trkpt><trkpt lat="42.765991586833714" lon="11.524801618542659"><ele>596.0</ele><time>2026-04-12T12:21:42.001Z</time></trkpt><trkpt lat="42.76590308028122" lon="11.524765213374792"><ele>596.0</ele><time>2026-04-12T12:21:43.001Z</time></trkpt><trkpt lat="42.765801816456765" lon="11.524747332777112"><ele>596.0</ele><time>2026-04-12T12:21:44.001Z</time></trkpt><trkpt lat="42.765712076739476" lon="11.524758757309256"><ele>596.0</ele><time>2026-04-12T12:21:45.001Z</time></trkpt><trkpt lat="42.765638891663805" lon="11.524781055404661"><ele>596.0</ele><time>2026-04-12T12:21:46.001Z</time></trkpt><trkpt lat="42.76557428693292" lon="11.524811844620396"><ele>596.0</ele><time>2026-04-12T12:21:47.001Z</time></trkpt><trkpt lat="42.76547347821695" lon="11.524810814857899"><ele>596.0</ele><time>2026-04-12T12:21:49.001Z</time></trkpt><trkpt lat="42.76539286422393" lon="11.52482410367636"><ele>596.0</ele><time>2026-04-12T12:21:52.001Z</time></trkpt><trkpt lat="42.76546361301484" lon="11.524755914649873"><ele>596.0</ele><time>2026-04-12T12:22:00.001Z</time></trkpt><trkpt lat="42.765537320816684" lon="11.524665743326105"><ele>596.0</ele><time>2026-04-12T12:22:02.001Z</time></trkpt><trkpt lat="42.765594706190384" lon="11.524514462920799"><ele>596.0</ele><time>2026-04-12T12:22:04.002Z</time></trkpt><trkpt lat="42.765617929391986" lon="11.524428375587433"><ele>594.5</ele><time>2026-04-12T12:22:05.002Z</time></trkpt><trkpt lat="42.76564512355943" lon="11.524319850556981"><ele>593.0</ele><time>2026-04-12T12:22:06.002Z</time></trkpt><trkpt lat="42.76567024403997" lon="11.524223855758258"><ele>591.5</ele><time>2026-04-12T12:22:07.002Z</time></trkpt><trkpt lat="42.765701581010305" lon="11.524115213633234"><ele>590.0</ele><time>2026-04-12T12:22:08.002Z</time></trkpt><trkpt lat="42.76574082925775" lon="11.523996476506307"><ele>588.5</ele><time>2026-04-12T12:22:09.002Z</time></trkpt><trkpt lat="42.7657766930653" lon="11.523877246084979"><ele>587.0</ele><time>2026-04-12T12:22:10.002Z</time></trkpt><trkpt lat="42.76580212883694" lon="11.523771305404605"><ele>584.6666666666666</ele><time>2026-04-12T12:22:11.002Z</time></trkpt><trkpt lat="42.76584003227158" lon="11.523658164568653"><ele>582.3333333333333</ele><time>2026-04-12T12:22:12.002Z</time></trkpt><trkpt lat="42.76587441841194" lon="11.523549928698808"><ele>580.0</ele><time>2026-04-12T12:22:13.002Z</time></trkpt><trkpt lat="42.765896515425894" lon="11.523437998354556"><ele>577.6666666666666</ele><time>2026-04-12T12:22:14.002Z</time></trkpt><trkpt lat="42.76592943827586" lon="11.523340262923949"><ele>575.3333333333334</ele><time>2026-04-12T12:22:15.002Z</time></trkpt><trkpt lat="42.76596302899661" lon="11.523238677918904"><ele>573.0</ele><time>2026-04-12T12:22:16.002Z</time></trkpt><trkpt lat="42.76599376571224" lon="11.523142076286975"><ele>573.0</ele><time>2026-04-12T12:22:17.002Z</time></trkpt><trkpt lat="42.76602618634138" lon="11.523044471592685"><ele>573.0</ele><time>2026-04-12T12:22:18.002Z</time></trkpt><trkpt lat="42.76605812961248" lon="11.522946668135019"><ele>573.0</ele><time>2026-04-12T12:22:19.002Z</time></trkpt><trkpt lat="42.7661128124944" lon="11.522875823684195"><ele>573.0</ele><time>2026-04-12T12:22:20.002Z</time></trkpt><trkpt lat="42.766152413264656" lon="11.522806115703903"><ele>573.0</ele><time>2026-04-12T12:22:21.002Z</time></trkpt><trkpt lat="42.766223901872536" lon="11.52276327051181"><ele>573.0</ele><time>2026-04-12T12:22:22.002Z</time></trkpt><trkpt lat="42.766311131294756" lon="11.522729552403375"><ele>571.5</ele><time>2026-04-12T12:22:23.002Z</time></trkpt><trkpt lat="42.766400586651855" lon="11.522725011746344"><ele>570.0</ele><time>2026-04-12T12:22:24.002Z</time></trkpt><trkpt lat="42.76648027429386" lon="11.522733871701798"><ele>568.5</ele><time>2026-04-12T12:22:25.002Z</time></trkpt><trkpt lat="42.76655731067965" lon="11.522760767740742"><ele>567.0</ele><time>2026-04-12T12:22:26.002Z</time></trkpt><trkpt lat="42.766634708530475" lon="11.522795148810033"><ele>565.5</ele><time>2026-04-12T12:22:27.002Z</time></trkpt><trkpt lat="42.76670838570923" lon="11.522830473961541"><ele>564.0</ele><time>2026-04-12T12:22:28.002Z</time></trkpt><trkpt lat="42.76677728304522" lon="11.522873810202213"><ele>563.4</ele><time>2026-04-12T12:22:29.002Z</time></trkpt><trkpt lat="42.76684560465363" lon="11.522930669251796"><ele>562.8</ele><time>2026-04-12T12:22:30.002Z</time></trkpt><trkpt lat="42.7669238489052" lon="11.522980720424728"><ele>562.2</ele><time>2026-04-12T12:22:31.002Z</time></trkpt><trkpt lat="42.76701060654762" lon="11.523025399336461"><ele>561.6</ele><time>2026-04-12T12:22:32.002Z</time></trkpt><trkpt lat="42.76710845942373" lon="11.523065939331907"><ele>561.0</ele><time>2026-04-12T12:22:33.002Z</time></trkpt><trkpt lat="42.76719428511599" lon="11.523105686092528"><ele>561.0</ele><time>2026-04-12T12:22:34.002Z</time></trkpt><trkpt lat="42.76727353911584" lon="11.523153640792323"><ele>561.0</ele><time>2026-04-12T12:22:35.002Z</time></trkpt><trkpt lat="42.767349957699814" lon="11.523198547258346"><ele>561.0</ele><time>2026-04-12T12:22:36.002Z</time></trkpt><trkpt lat="42.767443411377954" lon="11.523243480954045"><ele>561.0</ele><time>2026-04-12T12:22:37.003Z</time></trkpt><trkpt lat="42.76754251418347" lon="11.523272900754069"><ele>561.0</ele><time>2026-04-12T12:22:38.003Z</time></trkpt><trkpt lat="42.76765830559481" lon="11.523290217064087"><ele>560.6</ele><time>2026-04-12T12:22:39.003Z</time></trkpt><trkpt lat="42.76776252106317" lon="11.52331825458693"><ele>560.2</ele><time>2026-04-12T12:22:40.003Z</time></trkpt><trkpt lat="42.767855104842084" lon="11.523352217568648"><ele>559.8</ele><time>2026-04-12T12:22:41.003Z</time></trkpt><trkpt lat="42.7679327001809" lon="11.523391132629301"><ele>559.4</ele><time>2026-04-12T12:22:42.003Z</time></trkpt><trkpt lat="42.768010754339855" lon="11.523431609182639"><ele>559.0</ele><time>2026-04-12T12:22:43.003Z</time></trkpt><trkpt lat="42.768099659303246" lon="11.523456958855585"><ele>559.0</ele><time>2026-04-12T12:22:44.003Z</time></trkpt><trkpt lat="42.76817795152787" lon="11.523459230521098"><ele>559.0</ele><time>2026-04-12T12:22:45.003Z</time></trkpt><trkpt lat="42.768251010610186" lon="11.523444332839244"><ele>559.0</ele><time>2026-04-12T12:22:46.003Z</time></trkpt><trkpt lat="42.76833041155831" lon="11.523394044582423"><ele>559.0</ele><time>2026-04-12T12:22:47.003Z</time></trkpt><trkpt lat="42.768420996620996" lon="11.523313568194823"><ele>559.0</ele><time>2026-04-12T12:22:48.003Z</time></trkpt><trkpt lat="42.76850592386992" lon="11.523213168335634"><ele>558.4</ele><time>2026-04-12T12:22:49.003Z</time></trkpt><trkpt lat="42.76859192484057" lon="11.523127762056241"><ele>557.8</ele><time>2026-04-12T12:22:50.003Z</time></trkpt><trkpt lat="42.76867999040361" lon="11.523060657179984"><ele>557.2</ele><time>2026-04-12T12:22:51.003Z</time></trkpt><trkpt lat="42.76877062814536" lon="11.522994058760966"><ele>556.6</ele><time>2026-04-12T12:22:52.003Z</time></trkpt><trkpt lat="42.76886703473879" lon="11.52291292555877"><ele>556.0</ele><time>2026-04-12T12:22:53.003Z</time></trkpt><trkpt lat="42.768955195633545" lon="11.522823154147645"><ele>554.8</ele><time>2026-04-12T12:22:54.003Z</time></trkpt><trkpt lat="42.76903741614127" lon="11.522744436385636"><ele>553.6</ele><time>2026-04-12T12:22:55.003Z</time></trkpt><trkpt lat="42.76912102171227" lon="11.522680856864332"><ele>552.4</ele><time>2026-04-12T12:22:56.003Z</time></trkpt><trkpt lat="42.76920221378131" lon="11.522626465285146"><ele>551.2</ele><time>2026-04-12T12:22:57.003Z</time></trkpt><trkpt lat="42.769277682621784" lon="11.522609280451174"><ele>550.0</ele><time>2026-04-12T12:22:58.003Z</time></trkpt><trkpt lat="42.769391087763886" lon="11.522572199233553"><ele>548.2</ele><time>2026-04-12T12:23:00.003Z</time></trkpt><trkpt lat="42.76949646360824" lon="11.522603355236214"><ele>546.4</ele><time>2026-04-12T12:23:02.003Z</time></trkpt><trkpt lat="42.76959849416435" lon="11.522669626498859"><ele>544.6</ele><time>2026-04-12T12:23:04.003Z</time></trkpt><trkpt lat="42.76968421274954" lon="11.52270431244275"><ele>542.8</ele><time>2026-04-12T12:23:05.999Z</time></trkpt><trkpt lat="42.769782325451715" lon="11.522680496749794"><ele>541.0</ele><time>2026-04-12T12:23:07.999Z</time></trkpt><trkpt lat="42.7698323050841" lon="11.522612084471703"><ele>541.0</ele><time>2026-04-12T12:23:08.999Z</time></trkpt><trkpt lat="42.76987685698988" lon="11.522526607516747"><ele>541.0</ele><time>2026-04-12T12:23:09.999Z</time></trkpt><trkpt lat="42.76991941991516" lon="11.52242785379089"><ele>541.0</ele><time>2026-04-12T12:23:10.999Z</time></trkpt><trkpt lat="42.769966287813986" lon="11.522337023875789"><ele>541.0</ele><time>2026-04-12T12:23:11.999Z</time></trkpt><trkpt lat="42.77001177569505" lon="11.522259412758256"><ele>541.0</ele><time>2026-04-12T12:23:13Z</time></trkpt><trkpt lat="42.77006608925138" lon="11.522184618737727"><ele>541.0</ele><time>2026-04-12T12:23:14Z</time></trkpt><trkpt lat="42.770114786431286" lon="11.522117165441273"><ele>541.3333333333334</ele><time>2026-04-12T12:23:15Z</time></trkpt><trkpt lat="42.77016230662639" lon="11.522038482486634"><ele>541.6666666666667</ele><time>2026-04-12T12:23:16Z</time></trkpt><trkpt lat="42.7702070218643" lon="11.521952988711536"><ele>542.0</ele><time>2026-04-12T12:23:17Z</time></trkpt><trkpt lat="42.7702771719551" lon="11.52187266424454"><ele>542.3333333333334</ele><time>2026-04-12T12:23:18Z</time></trkpt><trkpt lat="42.77033305040568" lon="11.52176112779732"><ele>542.6666666666666</ele><time>2026-04-12T12:23:19Z</time></trkpt><trkpt lat="42.7704033058718" lon="11.521667982064557"><ele>543.0</ele><time>2026-04-12T12:23:20Z</time></trkpt><trkpt lat="42.77047379345949" lon="11.521593162836561"><ele>543.0</ele><time>2026-04-12T12:23:21Z</time></trkpt><trkpt lat="42.77054960552361" lon="11.521527128222505"><ele>543.0</ele><time>2026-04-12T12:23:22Z</time></trkpt><trkpt lat="42.7706379273751" lon="11.521483639372734"><ele>543.0</ele><time>2026-04-12T12:23:23Z</time></trkpt><trkpt lat="42.770732353352436" lon="11.521466988649905"><ele>543.0</ele><time>2026-04-12T12:23:24Z</time></trkpt><trkpt lat="42.77081342283291" lon="11.521466067141926"><ele>543.0</ele><time>2026-04-12T12:23:25Z</time></trkpt><trkpt lat="42.77089139216043" lon="11.521516263162354"><ele>543.0</ele><time>2026-04-12T12:23:26Z</time></trkpt><trkpt lat="42.77097762496442" lon="11.521556387406024"><ele>544.0</ele><time>2026-04-12T12:23:27Z</time></trkpt><trkpt lat="42.77106369364472" lon="11.521589129569897"><ele>545.0</ele><time>2026-04-12T12:23:28Z</time></trkpt><trkpt lat="42.771156145503085" lon="11.521646641033053"><ele>546.0</ele><time>2026-04-12T12:23:29Z</time></trkpt><trkpt lat="42.77125659702352" lon="11.521716871793625"><ele>547.0</ele><time>2026-04-12T12:23:30Z</time></trkpt><trkpt lat="42.77134903747538" lon="11.521763267945062"><ele>548.0</ele><time>2026-04-12T12:23:31Z</time></trkpt><trkpt lat="42.77141764706624" lon="11.521777611047122"><ele>548.0000000000001</ele><time>2026-04-12T12:23:32Z</time></trkpt><trkpt lat="42.77148778479061" lon="11.521785348479687"><ele>548.0</ele><time>2026-04-12T12:23:33Z</time></trkpt><trkpt lat="42.771563063959555" lon="11.521805776684456"><ele>548.0</ele><time>2026-04-12T12:23:34Z</time></trkpt><trkpt lat="42.77162574259997" lon="11.521831900894659"><ele>548.0</ele><time>2026-04-12T12:23:35Z</time></trkpt><trkpt lat="42.77168694285038" lon="11.521867452688124"><ele>548.0</ele><time>2026-04-12T12:23:36Z</time></trkpt><trkpt lat="42.77174853069894" lon="11.521909347853198"><ele>548.0000000000001</ele><time>2026-04-12T12:23:37Z</time></trkpt><trkpt lat="42.77182614954471" lon="11.521930654534756"><ele>548.0</ele><time>2026-04-12T12:23:38Z</time></trkpt><trkpt lat="42.77190525000953" lon="11.521934930064718"><ele>547.1666666666666</ele><time>2026-04-12T12:23:39.001Z</time></trkpt><trkpt lat="42.77198489536008" lon="11.521929503304662"><ele>546.3333333333333</ele><time>2026-04-12T12:23:40.001Z</time></trkpt><trkpt lat="42.77206377282253" lon="11.521921714392182"><ele>545.5</ele><time>2026-04-12T12:23:41.001Z</time></trkpt><trkpt lat="42.77214717582026" lon="11.52190701923367"><ele>544.6666666666666</ele><time>2026-04-12T12:23:42.001Z</time></trkpt><trkpt lat="42.77226614422162" lon="11.521921553293584"><ele>543.8333333333334</ele><time>2026-04-12T12:23:44.001Z</time></trkpt><trkpt lat="42.772329413683174" lon="11.521953151414126"><ele>543.0</ele><time>2026-04-12T12:23:45.001Z</time></trkpt><trkpt lat="42.77238067924064" lon="11.522004097913772"><ele>539.8</ele><time>2026-04-12T12:23:46.001Z</time></trkpt><trkpt lat="42.77243673348525" lon="11.522137447221631"><ele>536.5999999999999</ele><time>2026-04-12T12:23:48.001Z</time></trkpt><trkpt lat="42.77249603667629" lon="11.522246608894"><ele>533.4000000000001</ele><time>2026-04-12T12:23:50.001Z</time></trkpt><trkpt lat="42.77258776235245" lon="11.522304113991291"><ele>530.2</ele><time>2026-04-12T12:23:52.001Z</time></trkpt><trkpt lat="42.77270557354213" lon="11.52231216154788"><ele>527.0</ele><time>2026-04-12T12:23:54.001Z</time></trkpt><trkpt lat="42.77277294736167" lon="11.522312022356303"><ele>524.3333333333333</ele><time>2026-04-12T12:23:55.001Z</time></trkpt><trkpt lat="42.77284010114066" lon="11.522308394592772"><ele>521.6666666666666</ele><time>2026-04-12T12:23:56.001Z</time></trkpt><trkpt lat="42.772961644910666" lon="11.522311691015796"><ele>519.0</ele><time>2026-04-12T12:23:58.001Z</time></trkpt><trkpt lat="42.77303016438313" lon="11.52231486849686"><ele>516.3333333333334</ele><time>2026-04-12T12:23:59.001Z</time></trkpt><trkpt lat="42.77314041789024" lon="11.522382198702072"><ele>513.6666666666667</ele><time>2026-04-12T12:24:01.001Z</time></trkpt><trkpt lat="42.77319203334338" lon="11.522440845934979"><ele>511.0</ele><time>2026-04-12T12:24:02.001Z</time></trkpt><trkpt lat="42.773239134712775" lon="11.52251737360314"><ele>511.0</ele><time>2026-04-12T12:24:03.001Z</time></trkpt><trkpt lat="42.77327541115521" lon="11.5225903738499"><ele>511.0</ele><time>2026-04-12T12:24:04.001Z</time></trkpt><trkpt lat="42.773351398448774" lon="11.5226828518685"><ele>511.0</ele><time>2026-04-12T12:24:06.001Z</time></trkpt><trkpt lat="42.77349110184542" lon="11.522731298491832"><ele>511.0</ele><time>2026-04-12T12:24:08.001Z</time></trkpt><trkpt lat="42.77358375911939" lon="11.522734732789317"><ele>511.0</ele><time>2026-04-12T12:24:09.001Z</time></trkpt><trkpt lat="42.773665112721545" lon="11.522736437313807"><ele>508.33333333333337</ele><time>2026-04-12T12:24:10.002Z</time></trkpt><trkpt lat="42.77374564821006" lon="11.52273548540037"><ele>505.6666666666667</ele><time>2026-04-12T12:24:11.002Z</time></trkpt><trkpt lat="42.7738174749875" lon="11.52276676800731"><ele>503.0</ele><time>2026-04-12T12:24:12.002Z</time></trkpt><trkpt lat="42.77388851413952" lon="11.522817443724028"><ele>500.33333333333337</ele><time>2026-04-12T12:24:13.002Z</time></trkpt><trkpt lat="42.77394808073569" lon="11.522868549904985"><ele>497.6666666666667</ele><time>2026-04-12T12:24:14.002Z</time></trkpt><trkpt lat="42.77404093599465" lon="11.522949295072264"><ele>495.0</ele><time>2026-04-12T12:24:16.002Z</time></trkpt><trkpt lat="42.774094345601895" lon="11.522997756868454"><ele>495.0</ele><time>2026-04-12T12:24:17.002Z</time></trkpt><trkpt lat="42.77414811362073" lon="11.52305663731228"><ele>495.0</ele><time>2026-04-12T12:24:18.002Z</time></trkpt><trkpt lat="42.774197877555174" lon="11.52312595930533"><ele>495.0</ele><time>2026-04-12T12:24:19.002Z</time></trkpt><trkpt lat="42.7742423437633" lon="11.523218729379748"><ele>495.0</ele><time>2026-04-12T12:24:20.002Z</time></trkpt><trkpt lat="42.774301076885756" lon="11.523325897300047"><ele>495.0</ele><time>2026-04-12T12:24:21.002Z</time></trkpt><trkpt lat="42.774352577196595" lon="11.52341444290301"><ele>495.0</ele><time>2026-04-12T12:24:22.002Z</time></trkpt><trkpt lat="42.774406344533546" lon="11.523493271511608"><ele>492.6666666666667</ele><time>2026-04-12T12:24:23.002Z</time></trkpt><trkpt lat="42.774464740505266" lon="11.523568166035043"><ele>490.33333333333337</ele><time>2026-04-12T12:24:24.002Z</time></trkpt><trkpt lat="42.77452728058299" lon="11.523628837885857"><ele>488.0</ele><time>2026-04-12T12:24:25.002Z</time></trkpt><trkpt lat="42.77459768628567" lon="11.523664558957071"><ele>485.6666666666667</ele><time>2026-04-12T12:24:26.002Z</time></trkpt><trkpt lat="42.77467730278037" lon="11.523674284724464"><ele>483.33333333333337</ele><time>2026-04-12T12:24:27.002Z</time></trkpt><trkpt lat="42.77476322849676" lon="11.523676320958185"><ele>481.0</ele><time>2026-04-12T12:24:28.002Z</time></trkpt><trkpt lat="42.77486682714901" lon="11.523697060457708"><ele>481.00000000000006</ele><time>2026-04-12T12:24:29.002Z</time></trkpt><trkpt lat="42.774954557365966" lon="11.523711204489524"><ele>481.0</ele><time>2026-04-12T12:24:30.002Z</time></trkpt><trkpt lat="42.77504211015392" lon="11.523739525293948"><ele>481.0</ele><time>2026-04-12T12:24:31.002Z</time></trkpt><trkpt lat="42.77510999553885" lon="11.523740512895598"><ele>481.0</ele><time>2026-04-12T12:24:32.002Z</time></trkpt><trkpt lat="42.77519842131801" lon="11.523768535825223"><ele>481.00000000000006</ele><time>2026-04-12T12:24:33.002Z</time></trkpt><trkpt lat="42.7752892864164" lon="11.523799823836296"><ele>481.0</ele><time>2026-04-12T12:24:34.002Z</time></trkpt><trkpt lat="42.775370273923784" lon="11.523842827476122"><ele>480.4</ele><time>2026-04-12T12:24:35.002Z</time></trkpt><trkpt lat="42.77547374590417" lon="11.523901293486096"><ele>479.8</ele><time>2026-04-12T12:24:36.002Z</time></trkpt><trkpt lat="42.77556264300026" lon="11.523960159016497"><ele>479.19999999999993</ele><time>2026-04-12T12:24:37.002Z</time></trkpt><trkpt lat="42.775649114059256" lon="11.524006472553772"><ele>478.59999999999997</ele><time>2026-04-12T12:24:38.002Z</time></trkpt><trkpt lat="42.77572893622622" lon="11.52405900421437"><ele>478.0</ele><time>2026-04-12T12:24:39.002Z</time></trkpt><trkpt lat="42.77580626735721" lon="11.524118659834398"><ele>478.00000000000006</ele><time>2026-04-12T12:24:40.002Z</time></trkpt><trkpt lat="42.775881679219175" lon="11.524188325513736"><ele>478.0</ele><time>2026-04-12T12:24:41.002Z</time></trkpt><trkpt lat="42.77594362130226" lon="11.524254861078141"><ele>478.0</ele><time>2026-04-12T12:24:42.002Z</time></trkpt><trkpt lat="42.77599910048017" lon="11.524314526028775"><ele>478.0</ele><time>2026-04-12T12:24:43.003Z</time></trkpt><trkpt lat="42.776062905936364" lon="11.524374204101887"><ele>478.00000000000006</ele><time>2026-04-12T12:24:44.003Z</time></trkpt><trkpt lat="42.77612652503686" lon="11.524445772105622"><ele>478.0</ele><time>2026-04-12T12:24:45.003Z</time></trkpt><trkpt lat="42.776195773612706" lon="11.52446217375588"><ele>475.6666666666667</ele><time>2026-04-12T12:24:46.003Z</time></trkpt><trkpt lat="42.776266981516635" lon="11.524486048941652"><ele>473.33333333333337</ele><time>2026-04-12T12:24:47.003Z</time></trkpt><trkpt lat="42.77633870081092" lon="11.524515525505933"><ele>471.0</ele><time>2026-04-12T12:24:48.003Z</time></trkpt><trkpt lat="42.77642161560411" lon="11.524499080001181"><ele>468.66666666666663</ele><time>2026-04-12T12:24:49.003Z</time></trkpt><trkpt lat="42.776506597545264" lon="11.524469723031808"><ele>466.3333333333333</ele><time>2026-04-12T12:24:50.003Z</time></trkpt><trkpt lat="42.77658465434481" lon="11.524451619342223"><ele>464.0</ele><time>2026-04-12T12:24:51.003Z</time></trkpt><trkpt lat="42.776668476580255" lon="11.524450845378116"><ele>464.0</ele><time>2026-04-12T12:24:52.003Z</time></trkpt><trkpt lat="42.77674317024933" lon="11.524458190637581"><ele>464.0</ele><time>2026-04-12T12:24:53.003Z</time></trkpt><trkpt lat="42.7768566060724" lon="11.524513749307948"><ele>464.0</ele><time>2026-04-12T12:24:55.003Z</time></trkpt><trkpt lat="42.77692582351222" lon="11.52457848530739"><ele>464.0</ele><time>2026-04-12T12:24:56.003Z</time></trkpt><trkpt lat="42.776994357809436" lon="11.524660472100084"><ele>464.0</ele><time>2026-04-12T12:24:57.003Z</time></trkpt><trkpt lat="42.77706598739421" lon="11.524757723226392"><ele>464.3333333333333</ele><time>2026-04-12T12:24:58.003Z</time></trkpt><trkpt lat="42.77713637547203" lon="11.52487265686718"><ele>464.66666666666663</ele><time>2026-04-12T12:24:59.003Z</time></trkpt><trkpt lat="42.7771928395888" lon="11.524963748064948"><ele>465.0</ele><time>2026-04-12T12:25:00.003Z</time></trkpt><trkpt lat="42.77724695701132" lon="11.525036722451203"><ele>465.33333333333337</ele><time>2026-04-12T12:25:01.003Z</time></trkpt><trkpt lat="42.777302371720204" lon="11.525081007156373"><ele>465.6666666666667</ele><time>2026-04-12T12:25:02.003Z</time></trkpt><trkpt lat="42.77738818069726" lon="11.52512477551422"><ele>466.0</ele><time>2026-04-12T12:25:04.003Z</time></trkpt><trkpt lat="42.77746412697383" lon="11.525142112818239"><ele>466.00000000000006</ele><time>2026-04-12T12:25:06.003Z</time></trkpt><trkpt lat="42.77755941047486" lon="11.525130207983233"><ele>466.0</ele><time>2026-04-12T12:25:09.003Z</time></trkpt><trkpt lat="42.77761712031459" lon="11.525076930924826"><ele>466.0</ele><time>2026-04-12T12:25:10.999Z</time></trkpt><trkpt lat="42.777662933596694" lon="11.525015722669583"><ele>466.0</ele><time>2026-04-12T12:25:20.999Z</time></trkpt><trkpt lat="42.77769776025678" lon="11.524941962834369"><ele>466.00000000000006</ele><time>2026-04-12T12:39:32.003Z</time></trkpt><trkpt lat="42.77767721478138" lon="11.524810952259905"><ele>466.0</ele><time>2026-04-12T12:39:34.003Z</time></trkpt><trkpt lat="42.77765504190171" lon="11.524662734218397"><ele>468.50000000000006</ele><time>2026-04-12T12:39:36.003Z</time></trkpt><trkpt lat="42.77768836186061" lon="11.524533548231444"><ele>471.0</ele><time>2026-04-12T12:39:38.003Z</time></trkpt><trkpt lat="42.777733600384636" lon="11.524449114884174"><ele>473.5</ele><time>2026-04-12T12:39:40.003Z</time></trkpt><trkpt lat="42.77779280044706" lon="11.524411610820385"><ele>476.0</ele><time>2026-04-12T12:39:42.003Z</time></trkpt><trkpt lat="42.777879485120216" lon="11.524389747049746"><ele>478.50000000000006</ele><time>2026-04-12T12:39:44.003Z</time></trkpt><trkpt lat="42.77798823105945" lon="11.524375264906443"><ele>481.0</ele><time>2026-04-12T12:39:46.003Z</time></trkpt><trkpt lat="42.77804820659035" lon="11.524348611949177"><ele>481.00000000000006</ele><time>2026-04-12T12:39:47.003Z</time></trkpt><trkpt lat="42.77817390707754" lon="11.524303575693157"><ele>481.0</ele><time>2026-04-12T12:39:49.003Z</time></trkpt><trkpt lat="42.77824513258485" lon="11.524256742035366"><ele>481.0</ele><time>2026-04-12T12:39:50.003Z</time></trkpt><trkpt lat="42.77830860967965" lon="11.524207981410932"><ele>481.0</ele><time>2026-04-12T12:39:51.003Z</time></trkpt><trkpt lat="42.77837618923374" lon="11.524151461666657"><ele>481.00000000000006</ele><time>2026-04-12T12:39:52.003Z</time></trkpt><trkpt lat="42.77843962010274" lon="11.524092449498232"><ele>481.0</ele><time>2026-04-12T12:39:52.999Z</time></trkpt><trkpt lat="42.77850519439513" lon="11.524023832637791"><ele>482.8</ele><time>2026-04-12T12:39:53.999Z</time></trkpt><trkpt lat="42.7785807663655" lon="11.52399343149953"><ele>484.6</ele><time>2026-04-12T12:39:54.999Z</time></trkpt><trkpt lat="42.77864854534531" lon="11.52396574796265"><ele>486.4</ele><time>2026-04-12T12:39:55.999Z</time></trkpt><trkpt lat="42.77875780986261" lon="11.523915518276963"><ele>488.2</ele><time>2026-04-12T12:39:57.999Z</time></trkpt><trkpt lat="42.778878024514086" lon="11.523918286156507"><ele>490.0</ele><time>2026-04-12T12:39:59.999Z</time></trkpt><trkpt lat="42.77898975561446" lon="11.523939813003276"><ele>490.0</ele><time>2026-04-12T12:40:01.999Z</time></trkpt><trkpt lat="42.77908529143269" lon="11.52397137281089"><ele>490.0</ele><time>2026-04-12T12:40:03.999Z</time></trkpt><trkpt lat="42.77919170518379" lon="11.524050103596439"><ele>490.0</ele><time>2026-04-12T12:40:05.999Z</time></trkpt><trkpt lat="42.77929539179676" lon="11.524111025150606"><ele>490.0</ele><time>2026-04-12T12:40:07.999Z</time></trkpt><trkpt lat="42.77940523719076" lon="11.524151893904664"><ele>490.0</ele><time>2026-04-12T12:40:10Z</time></trkpt><trkpt lat="42.77951980275634" lon="11.524108856146109"><ele>492.00000000000006</ele><time>2026-04-12T12:40:12Z</time></trkpt><trkpt lat="42.77958030519948" lon="11.52408337219053"><ele>494.0</ele><time>2026-04-12T12:40:13Z</time></trkpt><trkpt lat="42.77970593732007" lon="11.524036652035027"><ele>496.0</ele><time>2026-04-12T12:40:15Z</time></trkpt><trkpt lat="42.779779834979465" lon="11.524023738590444"><ele>498.0</ele><time>2026-04-12T12:40:16Z</time></trkpt><trkpt lat="42.77986022656715" lon="11.524012040687166"><ele>500.00000000000006</ele><time>2026-04-12T12:40:17Z</time></trkpt><trkpt lat="42.77994976693821" lon="11.523992853637482"><ele>502.0</ele><time>2026-04-12T12:40:18Z</time></trkpt><trkpt lat="42.78003748045532" lon="11.523971550507973"><ele>502.0</ele><time>2026-04-12T12:40:19Z</time></trkpt><trkpt lat="42.78012917927446" lon="11.523935727408517"><ele>502.00000000000006</ele><time>2026-04-12T12:40:20Z</time></trkpt><trkpt lat="42.78022063762048" lon="11.523890651554641"><ele>502.00000000000006</ele><time>2026-04-12T12:40:21Z</time></trkpt><trkpt lat="42.78031365084149" lon="11.523837394156152"><ele>502.0</ele><time>2026-04-12T12:40:22Z</time></trkpt><trkpt lat="42.780408220153966" lon="11.523791991987041"><ele>502.0</ele><time>2026-04-12T12:40:23Z</time></trkpt><trkpt lat="42.78049709912801" lon="11.523747188571758"><ele>504.1666666666667</ele><time>2026-04-12T12:40:24Z</time></trkpt><trkpt lat="42.780587403175396" lon="11.52369735681493"><ele>506.33333333333337</ele><time>2026-04-12T12:40:25Z</time></trkpt><trkpt lat="42.78066673805166" lon="11.523646717577918"><ele>508.5</ele><time>2026-04-12T12:40:26Z</time></trkpt><trkpt lat="42.780739064258235" lon="11.523594667722438"><ele>510.66666666666663</ele><time>2026-04-12T12:40:27Z</time></trkpt><trkpt lat="42.780809936154" lon="11.523553306111301"><ele>512.8333333333333</ele><time>2026-04-12T12:40:28Z</time></trkpt><trkpt lat="42.780894028486834" lon="11.523531820548438"><ele>515.0</ele><time>2026-04-12T12:40:29.001Z</time></trkpt><trkpt lat="42.78096310836106" lon="11.523517214013998"><ele>517.5</ele><time>2026-04-12T12:40:30.001Z</time></trkpt><trkpt lat="42.78105955031095" lon="11.523498512764219"><ele>520.0</ele><time>2026-04-12T12:40:31.001Z</time></trkpt><trkpt lat="42.78113599316738" lon="11.52348275327818"><ele>522.5</ele><time>2026-04-12T12:40:32.001Z</time></trkpt><trkpt lat="42.78119782918277" lon="11.523461526119906"><ele>525.0</ele><time>2026-04-12T12:40:33.001Z</time></trkpt><trkpt lat="42.78127684991827" lon="11.523433769473984"><ele>527.5</ele><time>2026-04-12T12:40:34.001Z</time></trkpt><trkpt lat="42.78135203816044" lon="11.523417516910671"><ele>530.0</ele><time>2026-04-12T12:40:35.001Z</time></trkpt><trkpt lat="42.78142810251434" lon="11.523436068824845"><ele>530.0</ele><time>2026-04-12T12:40:36.001Z</time></trkpt><trkpt lat="42.781498120056305" lon="11.523422181665136"><ele>530.0</ele><time>2026-04-12T12:40:37.001Z</time></trkpt><trkpt lat="42.781571832449636" lon="11.523413220032356"><ele>530.0</ele><time>2026-04-12T12:40:38.001Z</time></trkpt><trkpt lat="42.78163744439455" lon="11.523392222737384"><ele>530.0</ele><time>2026-04-12T12:40:39.001Z</time></trkpt><trkpt lat="42.78170616505956" lon="11.52336082464771"><ele>530.0</ele><time>2026-04-12T12:40:40.001Z</time></trkpt><trkpt lat="42.78176067850918" lon="11.523314781324379"><ele>530.0</ele><time>2026-04-12T12:40:41.001Z</time></trkpt><trkpt lat="42.78184864521741" lon="11.52318186346284"><ele>532.2</ele><time>2026-04-12T12:40:43.001Z</time></trkpt><trkpt lat="42.781870573986" lon="11.523080583064491"><ele>534.4</ele><time>2026-04-12T12:40:44.001Z</time></trkpt><trkpt lat="42.78187877605112" lon="11.522969490099216"><ele>536.6</ele><time>2026-04-12T12:40:45.001Z</time></trkpt><trkpt lat="42.78188896405403" lon="11.52283569042801"><ele>538.8</ele><time>2026-04-12T12:40:46.001Z</time></trkpt><trkpt lat="42.781898880108514" lon="11.522668193540783"><ele>541.0</ele><time>2026-04-12T12:40:47.001Z</time></trkpt><trkpt lat="42.78190737537462" lon="11.522505389208005"><ele>541.6</ele><time>2026-04-12T12:40:48.001Z</time></trkpt><trkpt lat="42.78192070424281" lon="11.522363849006043"><ele>542.2</ele><time>2026-04-12T12:40:49.001Z</time></trkpt><trkpt lat="42.78194135676688" lon="11.522228711316195"><ele>542.8</ele><time>2026-04-12T12:40:50.001Z</time></trkpt><trkpt lat="42.781964077419644" lon="11.522110275438077"><ele>543.4</ele><time>2026-04-12T12:40:51.001Z</time></trkpt><trkpt lat="42.781988225591675" lon="11.521986777034183"><ele>544.0</ele><time>2026-04-12T12:40:52.001Z</time></trkpt><trkpt lat="42.78201477480248" lon="11.521866797155862"><ele>545.6666666666667</ele><time>2026-04-12T12:40:53.001Z</time></trkpt><trkpt lat="42.78204064545528" lon="11.52175308675628"><ele>547.3333333333334</ele><time>2026-04-12T12:40:54.001Z</time></trkpt><trkpt lat="42.78204902797646" lon="11.521642133092948"><ele>549.0</ele><time>2026-04-12T12:40:55.001Z</time></trkpt><trkpt lat="42.78206179942902" lon="11.521547325989603"><ele>550.6666666666666</ele><time>2026-04-12T12:40:56.001Z</time></trkpt><trkpt lat="42.78205243454953" lon="11.52139018434408"><ele>552.3333333333333</ele><time>2026-04-12T12:40:58.002Z</time></trkpt><trkpt lat="42.78204664693328" lon="11.521300172283985"><ele>554.0</ele><time>2026-04-12T12:40:59.002Z</time></trkpt><trkpt lat="42.781994020094544" lon="11.521211593638842"><ele>554.1666666666666</ele><time>2026-04-12T12:41:00.002Z</time></trkpt><trkpt lat="42.78194677701931" lon="11.521140240403946"><ele>554.3333333333333</ele><time>2026-04-12T12:41:01.002Z</time></trkpt><trkpt lat="42.781879777533675" lon="11.521051722466364"><ele>554.5</ele><time>2026-04-12T12:41:02.002Z</time></trkpt><trkpt lat="42.7818297841747" lon="11.52094662613496"><ele>554.6666666666666</ele><time>2026-04-12T12:41:03.002Z</time></trkpt><trkpt lat="42.781773546772655" lon="11.52084980399394"><ele>554.8333333333334</ele><time>2026-04-12T12:41:05.002Z</time></trkpt><trkpt lat="42.78179334198883" lon="11.520762961524383"><ele>555.0</ele><time>2026-04-12T12:41:07.002Z</time></trkpt><trkpt lat="42.78181021105757" lon="11.520626675348282"><ele>559.5</ele><time>2026-04-12T12:41:08.002Z</time></trkpt><trkpt lat="42.78186580997564" lon="11.520408125127942"><ele>564.0</ele><time>2026-04-12T12:41:10.002Z</time></trkpt><trkpt lat="42.78189771905731" lon="11.520276316049781"><ele>568.5</ele><time>2026-04-12T12:41:11.002Z</time></trkpt><trkpt lat="42.78193126708043" lon="11.52012651276476"><ele>573.0</ele><time>2026-04-12T12:41:12.002Z</time></trkpt><trkpt lat="42.78194763581182" lon="11.51997178062423"><ele>574.1999999999999</ele><time>2026-04-12T12:41:13.002Z</time></trkpt><trkpt lat="42.78197363228685" lon="11.519844837475587"><ele>575.4</ele><time>2026-04-12T12:41:14.002Z</time></trkpt><trkpt lat="42.782000393507374" lon="11.519721360744516"><ele>576.5999999999999</ele><time>2026-04-12T12:41:15.002Z</time></trkpt><trkpt lat="42.78200932738925" lon="11.519627675512996"><ele>577.8</ele><time>2026-04-12T12:41:16.002Z</time></trkpt><trkpt lat="42.78202745126861" lon="11.519466487510748"><ele>579.0</ele><time>2026-04-12T12:41:18.002Z</time></trkpt><trkpt lat="42.782053017542594" lon="11.519342312140413"><ele>579.0</ele><time>2026-04-12T12:41:20.002Z</time></trkpt><trkpt lat="42.78210731924105" lon="11.519295280612274"><ele>579.0</ele><time>2026-04-12T12:41:33.003Z</time></trkpt><trkpt lat="42.782168220883754" lon="11.519576054210415"><ele>579.0</ele><time>2026-04-12T12:41:44.003Z</time></trkpt><trkpt lat="42.782198293915016" lon="11.519712570436115"><ele>579.0</ele><time>2026-04-12T12:41:45.003Z</time></trkpt><trkpt lat="42.78223396193565" lon="11.519859643828724"><ele>579.0</ele><time>2026-04-12T12:41:46.003Z</time></trkpt><trkpt lat="42.78226031537334" lon="11.520037116992516"><ele>579.0</ele><time>2026-04-12T12:41:47.003Z</time></trkpt><trkpt lat="42.78228157344091" lon="11.520210487388145"><ele>579.0</ele><time>2026-04-12T12:41:48.003Z</time></trkpt><trkpt lat="42.782301745256675" lon="11.520361958831545"><ele>579.0</ele><time>2026-04-12T12:41:49.003Z</time></trkpt><trkpt lat="42.782348350002955" lon="11.520513604780785"><ele>578.2</ele><time>2026-04-12T12:41:50.003Z</time></trkpt><trkpt lat="42.782416888854804" lon="11.520632422416506"><ele>577.4</ele><time>2026-04-12T12:41:51.003Z</time></trkpt><trkpt lat="42.782499149681904" lon="11.520703402027644"><ele>576.6</ele><time>2026-04-12T12:41:52.003Z</time></trkpt><trkpt lat="42.78260252467343" lon="11.52074208023208"><ele>575.8</ele><time>2026-04-12T12:41:53.003Z</time></trkpt><trkpt lat="42.782728776114844" lon="11.520737017901201"><ele>575.0</ele><time>2026-04-12T12:41:54.003Z</time></trkpt><trkpt lat="42.78285248003832" lon="11.520701879472117"><ele>575.0</ele><time>2026-04-12T12:41:55.003Z</time></trkpt><trkpt lat="42.78298541242766" lon="11.520646157348835"><ele>575.0</ele><time>2026-04-12T12:41:56.003Z</time></trkpt><trkpt lat="42.7831184125909" lon="11.520563331903345"><ele>575.0</ele><time>2026-04-12T12:41:57.003Z</time></trkpt><trkpt lat="42.783250710331814" lon="11.520441583006544"><ele>575.0</ele><time>2026-04-12T12:41:58.003Z</time></trkpt><trkpt lat="42.78338503157652" lon="11.520308362909018"><ele>578.3333333333333</ele><time>2026-04-12T12:41:58.997Z</time></trkpt><trkpt lat="42.783516516358986" lon="11.520165621817139"><ele>581.6666666666666</ele><time>2026-04-12T12:41:59.998Z</time></trkpt><trkpt lat="42.783635058845014" lon="11.520019853750826"><ele>585.0</ele><time>2026-04-12T12:42:00.998Z</time></trkpt><trkpt lat="42.78372171720611" lon="11.519867464733391"><ele>585.0</ele><time>2026-04-12T12:42:01.998Z</time></trkpt><trkpt lat="42.783788350522144" lon="11.519686534830534"><ele>585.0</ele><time>2026-04-12T12:42:02.998Z</time></trkpt><trkpt lat="42.78385766509771" lon="11.519500762564117"><ele>585.0</ele><time>2026-04-12T12:42:03.998Z</time></trkpt><trkpt lat="42.78394949753694" lon="11.51933480628341"><ele>587.6666666666666</ele><time>2026-04-12T12:42:04.998Z</time></trkpt><trkpt lat="42.78406876444295" lon="11.519207049557398"><ele>590.3333333333333</ele><time>2026-04-12T12:42:05.998Z</time></trkpt><trkpt lat="42.784212541030605" lon="11.519126218309571"><ele>593.0</ele><time>2026-04-12T12:42:06.998Z</time></trkpt><trkpt lat="42.78436427301854" lon="11.519090413612416"><ele>594.75</ele><time>2026-04-12T12:42:07.998Z</time></trkpt><trkpt lat="42.78451377796535" lon="11.519091514863986"><ele>596.5</ele><time>2026-04-12T12:42:08.998Z</time></trkpt><trkpt lat="42.78465916137596" lon="11.519130314198359"><ele>598.25</ele><time>2026-04-12T12:42:09.999Z</time></trkpt><trkpt lat="42.784788203365814" lon="11.519209572847485"><ele>600.0</ele><time>2026-04-12T12:42:10.999Z</time></trkpt><trkpt lat="42.784912845335256" lon="11.519306035444387"><ele>600.0</ele><time>2026-04-12T12:42:11.999Z</time></trkpt><trkpt lat="42.78503911244574" lon="11.519408332550114"><ele>600.0</ele><time>2026-04-12T12:42:12.999Z</time></trkpt><trkpt lat="42.78517096853077" lon="11.519514212305154"><ele>600.0</ele><time>2026-04-12T12:42:13.999Z</time></trkpt><trkpt lat="42.78530018745496" lon="11.519597039383482"><ele>600.0</ele><time>2026-04-12T12:42:14.999Z</time></trkpt><trkpt lat="42.78544254562547" lon="11.519633020976112"><ele>599.75</ele><time>2026-04-12T12:42:15.999Z</time></trkpt><trkpt lat="42.78559470568238" lon="11.519633311652125"><ele>599.5</ele><time>2026-04-12T12:42:16.999Z</time></trkpt><trkpt lat="42.78574675395828" lon="11.519602582786767"><ele>599.25</ele><time>2026-04-12T12:42:17.999Z</time></trkpt><trkpt lat="42.78587798040241" lon="11.519558677959601"><ele>599.0</ele><time>2026-04-12T12:42:18.999Z</time></trkpt><trkpt lat="42.78599111814289" lon="11.519555962970939"><ele>602.75</ele><time>2026-04-12T12:42:19.999Z</time></trkpt><trkpt lat="42.78610273774818" lon="11.519613615431817"><ele>606.5</ele><time>2026-04-12T12:42:20.999Z</time></trkpt><trkpt lat="42.78618996327809" lon="11.519734336433716"><ele>610.25</ele><time>2026-04-12T12:42:22Z</time></trkpt><trkpt lat="42.786266497468894" lon="11.519875167925086"><ele>614.0</ele><time>2026-04-12T12:42:23Z</time></trkpt><trkpt lat="42.786345272317995" lon="11.519968036068347"><ele>614.0</ele><time>2026-04-12T12:42:24Z</time></trkpt><trkpt lat="42.786419811816366" lon="11.520067529120164"><ele>614.0</ele><time>2026-04-12T12:42:25Z</time></trkpt><trkpt lat="42.786280652747074" lon="11.520547263357763"><ele>614.0</ele><time>2026-04-12T12:42:26Z</time></trkpt><trkpt lat="42.786310120624016" lon="11.520771168199028"><ele>614.0</ele><time>2026-04-12T12:42:27Z</time></trkpt><trkpt lat="42.78636396198074" lon="11.520979845323573"><ele>614.0</ele><time>2026-04-12T12:42:28Z</time></trkpt><trkpt lat="42.78646288675947" lon="11.521162474105633"><ele>612.3333333333333</ele><time>2026-04-12T12:42:29Z</time></trkpt><trkpt lat="42.786570647588675" lon="11.521340121430597"><ele>610.6666666666666</ele><time>2026-04-12T12:42:30Z</time></trkpt><trkpt lat="42.78665785054636" lon="11.521531750654379"><ele>609.0</ele><time>2026-04-12T12:42:31Z</time></trkpt><trkpt lat="42.78671265114405" lon="11.521747806375814"><ele>609.0</ele><time>2026-04-12T12:42:32Z</time></trkpt><trkpt lat="42.78675844969512" lon="11.521963903594573"><ele>609.0</ele><time>2026-04-12T12:42:33Z</time></trkpt><trkpt lat="42.78680101885339" lon="11.522171224351357"><ele>609.0</ele><time>2026-04-12T12:42:34Z</time></trkpt><trkpt lat="42.786854143538896" lon="11.522379689037306"><ele>612.0</ele><time>2026-04-12T12:42:35Z</time></trkpt><trkpt lat="42.786916929029076" lon="11.522608218478723"><ele>615.0</ele><time>2026-04-12T12:42:36Z</time></trkpt><trkpt lat="42.78697978127944" lon="11.522821428533746"><ele>618.0</ele><time>2026-04-12T12:42:37Z</time></trkpt><trkpt lat="42.787041619041034" lon="11.52300653831215"><ele>618.0</ele><time>2026-04-12T12:42:38Z</time></trkpt><trkpt lat="42.787100469947305" lon="11.523171544062887"><ele>618.0</ele><time>2026-04-12T12:42:39.001Z</time></trkpt><trkpt lat="42.787144120813" lon="11.52332498411927"><ele>618.0</ele><time>2026-04-12T12:42:40.001Z</time></trkpt><trkpt lat="42.78715123909541" lon="11.523500173642555"><ele>618.0</ele><time>2026-04-12T12:42:41.001Z</time></trkpt><trkpt lat="42.78710549078411" lon="11.523683267634569"><ele>617.0</ele><time>2026-04-12T12:42:42.001Z</time></trkpt><trkpt lat="42.78704082009791" lon="11.523833077602795"><ele>616.0</ele><time>2026-04-12T12:42:43.001Z</time></trkpt><trkpt lat="42.78700916767747" lon="11.52399028382461"><ele>615.0</ele><time>2026-04-12T12:42:44.001Z</time></trkpt><trkpt lat="42.7870156258312" lon="11.524167291518603"><ele>614.0</ele><time>2026-04-12T12:42:45.001Z</time></trkpt><trkpt lat="42.787068054330526" lon="11.524336004448639"><ele>614.0</ele><time>2026-04-12T12:42:46.001Z</time></trkpt><trkpt lat="42.787164209468536" lon="11.524482371753269"><ele>614.0</ele><time>2026-04-12T12:42:47.001Z</time></trkpt><trkpt lat="42.787286222536565" lon="11.524599226393951"><ele>614.0</ele><time>2026-04-12T12:42:48.001Z</time></trkpt><trkpt lat="42.787400804891206" lon="11.524695214324904"><ele>614.0</ele><time>2026-04-12T12:42:49.001Z</time></trkpt><trkpt lat="42.787502140993325" lon="11.52478949887596"><ele>613.6</ele><time>2026-04-12T12:42:50.001Z</time></trkpt><trkpt lat="42.78759638035085" lon="11.524876320680159"><ele>613.2</ele><time>2026-04-12T12:42:51.001Z</time></trkpt><trkpt lat="42.78767864396746" lon="11.524951684514887"><ele>612.8000000000001</ele><time>2026-04-12T12:42:52.001Z</time></trkpt><trkpt lat="42.78774380459924" lon="11.525004495150293"><ele>612.4</ele><time>2026-04-12T12:42:53.001Z</time></trkpt><trkpt lat="42.787800791946644" lon="11.525047832720636"><ele>612.0</ele><time>2026-04-12T12:42:54.001Z</time></trkpt><trkpt lat="42.78788893688642" lon="11.52511168487032"><ele>612.8000000000001</ele><time>2026-04-12T12:42:56.001Z</time></trkpt><trkpt lat="42.78795812661054" lon="11.525101606054793"><ele>613.6</ele><time>2026-04-12T12:42:58.001Z</time></trkpt><trkpt lat="42.78803079214128" lon="11.525028854559672"><ele>614.4000000000001</ele><time>2026-04-12T12:43:00.001Z</time></trkpt><trkpt lat="42.78809564664469" lon="11.524889124409345"><ele>615.2</ele><time>2026-04-12T12:43:02.001Z</time></trkpt><trkpt lat="42.7881511760119" lon="11.524801744793516"><ele>616.0</ele><time>2026-04-12T12:43:03.001Z</time></trkpt><trkpt lat="42.78820791504938" lon="11.52471285519338"><ele>616.0</ele><time>2026-04-12T12:43:04.001Z</time></trkpt><trkpt lat="42.788266899680565" lon="11.524622258855745"><ele>616.0</ele><time>2026-04-12T12:43:05.001Z</time></trkpt><trkpt lat="42.7883232166892" lon="11.524542751970024"><ele>616.0</ele><time>2026-04-12T12:43:06.002Z</time></trkpt><trkpt lat="42.78837141387549" lon="11.52447653681099"><ele>616.0</ele><time>2026-04-12T12:43:07.002Z</time></trkpt><trkpt lat="42.78842188262149" lon="11.524402357047341"><ele>616.0</ele><time>2026-04-12T12:43:08.002Z</time></trkpt><trkpt lat="42.788473636116976" lon="11.524325299649616"><ele>616.0</ele><time>2026-04-12T12:43:09.002Z</time></trkpt><trkpt lat="42.78851515630912" lon="11.524256350162768"><ele>619.6</ele><time>2026-04-12T12:43:10.002Z</time></trkpt><trkpt lat="42.78856947605792" lon="11.524112053733543"><ele>623.2</ele><time>2026-04-12T12:43:12.002Z</time></trkpt><trkpt lat="42.788594704233276" lon="11.524033398885356"><ele>626.8</ele><time>2026-04-12T12:43:13.002Z</time></trkpt><trkpt lat="42.78861768511637" lon="11.523872527003254"><ele>630.4</ele><time>2026-04-12T12:43:15.002Z</time></trkpt><trkpt lat="42.788614095884945" lon="11.523709960586121"><ele>634.0</ele><time>2026-04-12T12:43:17.002Z</time></trkpt><trkpt lat="42.78858831729151" lon="11.523627900534835"><ele>633.0</ele><time>2026-04-12T12:43:18.002Z</time></trkpt><trkpt lat="42.78855541837837" lon="11.523534752557355"><ele>632.0</ele><time>2026-04-12T12:43:19.002Z</time></trkpt><trkpt lat="42.788519710845826" lon="11.523437490812142"><ele>631.0</ele><time>2026-04-12T12:43:20.002Z</time></trkpt><trkpt lat="42.78848632931662" lon="11.523349157309402"><ele>630.0</ele><time>2026-04-12T12:43:21.002Z</time></trkpt><trkpt lat="42.788454816718556" lon="11.523255854262185"><ele>629.0</ele><time>2026-04-12T12:43:22.002Z</time></trkpt><trkpt lat="42.78841883405986" lon="11.523160742296119"><ele>628.0</ele><time>2026-04-12T12:43:23.002Z</time></trkpt><trkpt lat="42.788391476743044" lon="11.523059710846788"><ele>627.9999999999999</ele><time>2026-04-12T12:43:24.002Z</time></trkpt><trkpt lat="42.78835591603011" lon="11.522953995473808"><ele>628.0</ele><time>2026-04-12T12:43:25.002Z</time></trkpt><trkpt lat="42.7883315903883" lon="11.522867775536593"><ele>628.0</ele><time>2026-04-12T12:43:26.002Z</time></trkpt><trkpt lat="42.788319236809905" lon="11.52277354079424"><ele>628.0</ele><time>2026-04-12T12:43:27.002Z</time></trkpt><trkpt lat="42.78831536536769" lon="11.522679850263607"><ele>628.0</ele><time>2026-04-12T12:43:28.002Z</time></trkpt><trkpt lat="42.7883264865634" lon="11.522588462483741"><ele>627.9999999999999</ele><time>2026-04-12T12:43:29.002Z</time></trkpt><trkpt lat="42.78834252488049" lon="11.52248223165389"><ele>628.0</ele><time>2026-04-12T12:43:30.002Z</time></trkpt><trkpt lat="42.78833950057202" lon="11.522383210754024"><ele>628.5714285714286</ele><time>2026-04-12T12:43:31.002Z</time></trkpt><trkpt lat="42.78833584203128" lon="11.522284079739672"><ele>629.1428571428571</ele><time>2026-04-12T12:43:32.002Z</time></trkpt><trkpt lat="42.78834169089364" lon="11.522188429890441"><ele>629.7142857142858</ele><time>2026-04-12T12:43:33.002Z</time></trkpt><trkpt lat="42.78835376636503" lon="11.522098923796944"><ele>630.2857142857142</ele><time>2026-04-12T12:43:34.002Z</time></trkpt><trkpt lat="42.788355432684774" lon="11.522001441978091"><ele>630.8571428571429</ele><time>2026-04-12T12:43:35.002Z</time></trkpt><trkpt lat="42.788359314451526" lon="11.521913139601228"><ele>631.4285714285714</ele><time>2026-04-12T12:43:36.002Z</time></trkpt><trkpt lat="42.78836652287253" lon="11.521817505574456"><ele>632.0</ele><time>2026-04-12T12:43:37.002Z</time></trkpt><trkpt lat="42.788371874146165" lon="11.521727829029178"><ele>632.6666666666666</ele><time>2026-04-12T12:43:38.003Z</time></trkpt><trkpt lat="42.78836730593494" lon="11.5216300353639"><ele>633.3333333333333</ele><time>2026-04-12T12:43:39.003Z</time></trkpt><trkpt lat="42.788362364134414" lon="11.521527020922322"><ele>634.0</ele><time>2026-04-12T12:43:40.003Z</time></trkpt><trkpt lat="42.78837094081447" lon="11.521430403031033"><ele>634.6666666666666</ele><time>2026-04-12T12:43:41.003Z</time></trkpt><trkpt lat="42.78839298555236" lon="11.52133241204129"><ele>635.3333333333334</ele><time>2026-04-12T12:43:42.003Z</time></trkpt><trkpt lat="42.78840573594679" lon="11.521222969020402"><ele>636.0</ele><time>2026-04-12T12:43:43.003Z</time></trkpt><trkpt lat="42.78840344579079" lon="11.521114252269335"><ele>636.5</ele><time>2026-04-12T12:43:44.003Z</time></trkpt><trkpt lat="42.78839643592166" lon="11.521004450055482"><ele>637.0</ele><time>2026-04-12T12:43:45.003Z</time></trkpt><trkpt lat="42.78840017610436" lon="11.520897768834148"><ele>637.5</ele><time>2026-04-12T12:43:46.003Z</time></trkpt><trkpt lat="42.78842089452819" lon="11.520784039380663"><ele>638.0</ele><time>2026-04-12T12:43:47.003Z</time></trkpt><trkpt lat="42.7884292496892" lon="11.520669515854705"><ele>638.5</ele><time>2026-04-12T12:43:48.003Z</time></trkpt><trkpt lat="42.788427693471704" lon="11.52056557436454"><ele>639.0</ele><time>2026-04-12T12:43:49.003Z</time></trkpt><trkpt lat="42.78843686921789" lon="11.520459275636847"><ele>639.0</ele><time>2026-04-12T12:43:50.003Z</time></trkpt><trkpt lat="42.78845936667594" lon="11.520373106435626"><ele>639.0</ele><time>2026-04-12T12:43:51.003Z</time></trkpt><trkpt lat="42.788493868580304" lon="11.52030127859176"><ele>639.0</ele><time>2026-04-12T12:43:52.003Z</time></trkpt><trkpt lat="42.78853472515951" lon="11.520208499453881"><ele>639.0</ele><time>2026-04-12T12:43:53.003Z</time></trkpt><trkpt lat="42.78861901756681" lon="11.520089774123349"><ele>639.0</ele><time>2026-04-12T12:43:55.003Z</time></trkpt><trkpt lat="42.78868298093966" lon="11.5200382293884"><ele>639.0</ele><time>2026-04-12T12:43:56.003Z</time></trkpt><trkpt lat="42.788746945592074" lon="11.51999520889749"><ele>641.5</ele><time>2026-04-12T12:43:57.003Z</time></trkpt><trkpt lat="42.78882072947265" lon="11.519962618151022"><ele>644.0</ele><time>2026-04-12T12:43:58.003Z</time></trkpt><trkpt lat="42.788898263662084" lon="11.519943785103177"><ele>646.5</ele><time>2026-04-12T12:43:59.003Z</time></trkpt><trkpt lat="42.78897581311583" lon="11.519931275224165"><ele>649.0</ele><time>2026-04-12T12:44:00.003Z</time></trkpt><trkpt lat="42.78905572320515" lon="11.519946385687321"><ele>651.5</ele><time>2026-04-12T12:44:01.003Z</time></trkpt><trkpt lat="42.78913231470282" lon="11.519973044735435"><ele>654.0</ele><time>2026-04-12T12:44:02.003Z</time></trkpt><trkpt lat="42.789209537429215" lon="11.520007122921518"><ele>654.0</ele><time>2026-04-12T12:44:03.003Z</time></trkpt><trkpt lat="42.78927638291731" lon="11.520056520825854"><ele>654.0</ele><time>2026-04-12T12:44:04.003Z</time></trkpt><trkpt lat="42.78934350817182" lon="11.520127363831955"><ele>654.0</ele><time>2026-04-12T12:44:04.997Z</time></trkpt><trkpt lat="42.789405492152646" lon="11.520212648769048"><ele>654.0</ele><time>2026-04-12T12:44:05.997Z</time></trkpt><trkpt lat="42.78948035271065" lon="11.520294237883595"><ele>654.0</ele><time>2026-04-12T12:44:06.997Z</time></trkpt><trkpt lat="42.78956170161177" lon="11.520366372397005"><ele>654.0</ele><time>2026-04-12T12:44:07.997Z</time></trkpt><trkpt lat="42.789642743756836" lon="11.520435215425092"><ele>655.2</ele><time>2026-04-12T12:44:08.998Z</time></trkpt><trkpt lat="42.78971607525018" lon="11.520497042218311"><ele>656.4000000000001</ele><time>2026-04-12T12:44:09.998Z</time></trkpt><trkpt lat="42.78980054528424" lon="11.520552200971343"><ele>657.6</ele><time>2026-04-12T12:44:10.998Z</time></trkpt><trkpt lat="42.78988341550909" lon="11.520588964662577"><ele>658.8</ele><time>2026-04-12T12:44:11.998Z</time></trkpt><trkpt lat="42.78997595109116" lon="11.520613819673635"><ele>660.0</ele><time>2026-04-12T12:44:12.998Z</time></trkpt><trkpt lat="42.79007685529852" lon="11.52063625026813"><ele>662.0</ele><time>2026-04-12T12:44:13.998Z</time></trkpt><trkpt lat="42.790178136574994" lon="11.520653735345986"><ele>664.0</ele><time>2026-04-12T12:44:14.998Z</time></trkpt><trkpt lat="42.79028113452989" lon="11.52067922477512"><ele>666.0</ele><time>2026-04-12T12:44:15.998Z</time></trkpt><trkpt lat="42.79037782619836" lon="11.520707734715334"><ele>668.0</ele><time>2026-04-12T12:44:16.998Z</time></trkpt><trkpt lat="42.79046907711879" lon="11.52074038313037"><ele>670.0</ele><time>2026-04-12T12:44:17.998Z</time></trkpt><trkpt lat="42.79056667225349" lon="11.520764453269496"><ele>670.0</ele><time>2026-04-12T12:44:18.999Z</time></trkpt><trkpt lat="42.79066609243827" lon="11.520785149930699"><ele>670.0</ele><time>2026-04-12T12:44:19.999Z</time></trkpt><trkpt lat="42.790770109746035" lon="11.52080719049813"><ele>670.0</ele><time>2026-04-12T12:44:20.999Z</time></trkpt><trkpt lat="42.790871633040574" lon="11.520836028964442"><ele>670.0</ele><time>2026-04-12T12:44:21.999Z</time></trkpt><trkpt lat="42.79095917029549" lon="11.520864895910329"><ele>670.0</ele><time>2026-04-12T12:44:22.999Z</time></trkpt><trkpt lat="42.79104839808362" lon="11.520893349134093"><ele>672.8</ele><time>2026-04-12T12:44:23.999Z</time></trkpt><trkpt lat="42.79113589537656" lon="11.5209202395244"><ele>675.6</ele><time>2026-04-12T12:44:24.999Z</time></trkpt><trkpt lat="42.79123601453805" lon="11.520946192198648"><ele>678.4000000000001</ele><time>2026-04-12T12:44:25.999Z</time></trkpt><trkpt lat="42.79132805137947" lon="11.52096974112905"><ele>681.2</ele><time>2026-04-12T12:44:26.999Z</time></trkpt><trkpt lat="42.79141526919233" lon="11.52099419283626"><ele>684.0</ele><time>2026-04-12T12:44:27.999Z</time></trkpt><trkpt lat="42.79150393949967" lon="11.521028555813132"><ele>684.0</ele><time>2026-04-12T12:44:29Z</time></trkpt><trkpt lat="42.79157548274704" lon="11.521048295944551"><ele>684.0</ele><time>2026-04-12T12:44:30Z</time></trkpt><trkpt lat="42.79169003134974" lon="11.521027956506087"><ele>684.0</ele><time>2026-04-12T12:44:32Z</time></trkpt><trkpt lat="42.79178266194275" lon="11.520927854190388"><ele>684.0</ele><time>2026-04-12T12:44:34Z</time></trkpt><trkpt lat="42.791836886739524" lon="11.520789654392056"><ele>684.0</ele><time>2026-04-12T12:44:36Z</time></trkpt><trkpt lat="42.791850413200656" lon="11.520614656597138"><ele>684.6666666666666</ele><time>2026-04-12T12:44:38Z</time></trkpt><trkpt lat="42.791849028713955" lon="11.520518297927282"><ele>685.3333333333334</ele><time>2026-04-12T12:44:39Z</time></trkpt><trkpt lat="42.79184382389852" lon="11.520418720218988"><ele>686.0</ele><time>2026-04-12T12:44:40Z</time></trkpt><trkpt lat="42.79184269888914" lon="11.52028964514732"><ele>686.6666666666667</ele><time>2026-04-12T12:44:41Z</time></trkpt><trkpt lat="42.79183464444786" lon="11.520154616605696"><ele>687.3333333333334</ele><time>2026-04-12T12:44:42Z</time></trkpt><trkpt lat="42.791831016977234" lon="11.520029926483948"><ele>688.0</ele><time>2026-04-12T12:44:43Z</time></trkpt><trkpt lat="42.79183659550303" lon="11.519901337212561"><ele>690.3333333333334</ele><time>2026-04-12T12:44:44Z</time></trkpt><trkpt lat="42.791847213991105" lon="11.519796614761633"><ele>692.6666666666667</ele><time>2026-04-12T12:44:45Z</time></trkpt><trkpt lat="42.79186572800765" lon="11.519693065366656"><ele>695.0</ele><time>2026-04-12T12:44:46.001Z</time></trkpt><trkpt lat="42.79189719451733" lon="11.519595857426086"><ele>697.3333333333334</ele><time>2026-04-12T12:44:47.001Z</time></trkpt><trkpt lat="42.791943610065495" lon="11.51952119459621"><ele>699.6666666666666</ele><time>2026-04-12T12:44:48.001Z</time></trkpt><trkpt lat="42.79200152840092" lon="11.519451489911193"><ele>702.0</ele><time>2026-04-12T12:44:49.001Z</time></trkpt><trkpt lat="42.79206279007386" lon="11.519408687048871"><ele>703.1666666666666</ele><time>2026-04-12T12:44:50.001Z</time></trkpt><trkpt lat="42.79213474855022" lon="11.519395401760203"><ele>704.3333333333334</ele><time>2026-04-12T12:44:51.001Z</time></trkpt><trkpt lat="42.79222250470936" lon="11.519381074080854"><ele>705.5</ele><time>2026-04-12T12:44:52.001Z</time></trkpt><trkpt lat="42.79230873618716" lon="11.519380390027418"><ele>706.6666666666667</ele><time>2026-04-12T12:44:53.001Z</time></trkpt><trkpt lat="42.792409523348944" lon="11.51939086671908"><ele>707.8333333333334</ele><time>2026-04-12T12:44:54.001Z</time></trkpt><trkpt lat="42.79250637968679" lon="11.519409871776139"><ele>709.0</ele><time>2026-04-12T12:44:55.001Z</time></trkpt><trkpt lat="42.79260402304107" lon="11.519435474536987"><ele>711.8333333333334</ele><time>2026-04-12T12:44:56.001Z</time></trkpt><trkpt lat="42.79268023859097" lon="11.519459822002123"><ele>714.6666666666667</ele><time>2026-04-12T12:44:57.001Z</time></trkpt><trkpt lat="42.792745952458105" lon="11.51950489603023"><ele>717.5</ele><time>2026-04-12T12:44:58.001Z</time></trkpt><trkpt lat="42.79279551184057" lon="11.519561970719344"><ele>720.3333333333334</ele><time>2026-04-12T12:44:59.001Z</time></trkpt><trkpt lat="42.79286789178969" lon="11.519722786510206"><ele>723.1666666666666</ele><time>2026-04-12T12:45:01.001Z</time></trkpt><trkpt lat="42.79287338380687" lon="11.51981823633505"><ele>726.0</ele><time>2026-04-12T12:45:02.001Z</time></trkpt><trkpt lat="42.79286796107702" lon="11.5199310641282"><ele>726.0</ele><time>2026-04-12T12:45:03.001Z</time></trkpt><trkpt lat="42.7928632797861" lon="11.5200286354546"><ele>726.0</ele><time>2026-04-12T12:45:04.001Z</time></trkpt><trkpt lat="42.792849658242794" lon="11.52013159296178"><ele>726.0</ele><time>2026-04-12T12:45:05.001Z</time></trkpt><trkpt lat="42.792831296306005" lon="11.520246742725954"><ele>726.0</ele><time>2026-04-12T12:45:06.001Z</time></trkpt><trkpt lat="42.79281115738028" lon="11.520378690574196"><ele>726.0</ele><time>2026-04-12T12:45:07.001Z</time></trkpt><trkpt lat="42.79279534939921" lon="11.52050019346636"><ele>726.0</ele><time>2026-04-12T12:45:08.001Z</time></trkpt><trkpt lat="42.79277723857958" lon="11.520631229559545"><ele>726.3333333333334</ele><time>2026-04-12T12:45:09.001Z</time></trkpt><trkpt lat="42.792760632891984" lon="11.520760215271329"><ele>726.6666666666666</ele><time>2026-04-12T12:45:10.001Z</time></trkpt><trkpt lat="42.79275189046839" lon="11.520882259170136"><ele>727.0</ele><time>2026-04-12T12:45:11.001Z</time></trkpt><trkpt lat="42.792753341312626" lon="11.521000094724327"><ele>727.3333333333333</ele><time>2026-04-12T12:45:12.002Z</time></trkpt><trkpt lat="42.79276995485461" lon="11.521096244372902"><ele>727.6666666666666</ele><time>2026-04-12T12:45:13.002Z</time></trkpt><trkpt lat="42.79279587374922" lon="11.521185244621572"><ele>728.0</ele><time>2026-04-12T12:45:14.002Z</time></trkpt><trkpt lat="42.79283856795672" lon="11.521271542185122"><ele>727.0</ele><time>2026-04-12T12:45:15.002Z</time></trkpt><trkpt lat="42.792900041250306" lon="11.521342016949024"><ele>726.0</ele><time>2026-04-12T12:45:16.002Z</time></trkpt><trkpt lat="42.79297405052656" lon="11.52139251898002"><ele>725.0</ele><time>2026-04-12T12:45:17.002Z</time></trkpt><trkpt lat="42.79304853173186" lon="11.521424666507292"><ele>724.0</ele><time>2026-04-12T12:45:18.002Z</time></trkpt><trkpt lat="42.793122424660766" lon="11.521434488254373"><ele>723.0</ele><time>2026-04-12T12:45:19.002Z</time></trkpt><trkpt lat="42.793198728476064" lon="11.521415940729183"><ele>722.0</ele><time>2026-04-12T12:45:20.002Z</time></trkpt><trkpt lat="42.79327429637281" lon="11.52138882894196"><ele>722.0</ele><time>2026-04-12T12:45:21.002Z</time></trkpt><trkpt lat="42.793346256874344" lon="11.521341678477288"><ele>722.0</ele><time>2026-04-12T12:45:22.002Z</time></trkpt><trkpt lat="42.79341490684113" lon="11.521279542981148"><ele>722.0</ele><time>2026-04-12T12:45:23.002Z</time></trkpt><trkpt lat="42.79348227103484" lon="11.521218973284917"><ele>722.0</ele><time>2026-04-12T12:45:24.002Z</time></trkpt><trkpt lat="42.79355372690052" lon="11.521160707551651"><ele>722.0</ele><time>2026-04-12T12:45:25.002Z</time></trkpt><trkpt lat="42.79362571697175" lon="11.521091912785593"><ele>722.0</ele><time>2026-04-12T12:45:26.002Z</time></trkpt><trkpt lat="42.79370821708278" lon="11.521010896665453"><ele>725.0</ele><time>2026-04-12T12:45:27.002Z</time></trkpt><trkpt lat="42.79378848544277" lon="11.520935948181855"><ele>728.0</ele><time>2026-04-12T12:45:28.002Z</time></trkpt><trkpt lat="42.79387442443048" lon="11.520866304971767"><ele>731.0</ele><time>2026-04-12T12:45:29.002Z</time></trkpt><trkpt lat="42.793960848356484" lon="11.52080074477506"><ele>734.0</ele><time>2026-04-12T12:45:30.002Z</time></trkpt><trkpt lat="42.794042821952964" lon="11.52073760262306"><ele>737.0</ele><time>2026-04-12T12:45:31.002Z</time></trkpt><trkpt lat="42.79412632624626" lon="11.520681744140246"><ele>737.0</ele><time>2026-04-12T12:45:32.002Z</time></trkpt><trkpt lat="42.79420697191926" lon="11.520623334414491"><ele>737.0</ele><time>2026-04-12T12:45:33.002Z</time></trkpt><trkpt lat="42.794283032903316" lon="11.520561048125819"><ele>737.0</ele><time>2026-04-12T12:45:34.002Z</time></trkpt><trkpt lat="42.79435938036001" lon="11.520498519939773"><ele>737.0</ele><time>2026-04-12T12:45:35.002Z</time></trkpt><trkpt lat="42.79443751959562" lon="11.520432509521626"><ele>737.0</ele><time>2026-04-12T12:45:36.002Z</time></trkpt><trkpt lat="42.79451484197505" lon="11.52036322948235"><ele>740.0</ele><time>2026-04-12T12:45:37.002Z</time></trkpt><trkpt lat="42.79459493906704" lon="11.520296261698482"><ele>743.0</ele><time>2026-04-12T12:45:38.002Z</time></trkpt><trkpt lat="42.794679948223354" lon="11.520227183856864"><ele>746.0</ele><time>2026-04-12T12:45:39.002Z</time></trkpt><trkpt lat="42.79475528963266" lon="11.520179657564848"><ele>749.0</ele><time>2026-04-12T12:45:40.002Z</time></trkpt><trkpt lat="42.79482721759942" lon="11.52014687848216"><ele>752.0</ele><time>2026-04-12T12:45:41.002Z</time></trkpt><trkpt lat="42.79490883709145" lon="11.520136039281345"><ele>755.0</ele><time>2026-04-12T12:45:42.002Z</time></trkpt><trkpt lat="42.794990582235876" lon="11.520138422747063"><ele>755.0</ele><time>2026-04-12T12:45:43.002Z</time></trkpt><trkpt lat="42.79507504852101" lon="11.520138928633955"><ele>755.0</ele><time>2026-04-12T12:45:44.003Z</time></trkpt><trkpt lat="42.79515010475695" lon="11.520151740106499"><ele>755.0</ele><time>2026-04-12T12:45:45.003Z</time></trkpt><trkpt lat="42.795243290013204" lon="11.52017701513598"><ele>755.0</ele><time>2026-04-12T12:45:46.003Z</time></trkpt><trkpt lat="42.79532898553815" lon="11.520201279218975"><ele>755.0</ele><time>2026-04-12T12:45:47.003Z</time></trkpt><trkpt lat="42.79541147403382" lon="11.520231262589823"><ele>755.0</ele><time>2026-04-12T12:45:48.003Z</time></trkpt><trkpt lat="42.79548614101286" lon="11.520251111359382"><ele>755.1666666666666</ele><time>2026-04-12T12:45:49.003Z</time></trkpt><trkpt lat="42.79557651587679" lon="11.520262580342559"><ele>755.3333333333333</ele><time>2026-04-12T12:45:50.003Z</time></trkpt><trkpt lat="42.79566396634645" lon="11.52028052015217"><ele>755.5</ele><time>2026-04-12T12:45:51.003Z</time></trkpt><trkpt lat="42.79573790895826" lon="11.520305503961676"><ele>755.6666666666666</ele><time>2026-04-12T12:45:52.003Z</time></trkpt><trkpt lat="42.79580799274023" lon="11.520336347235478"><ele>755.8333333333334</ele><time>2026-04-12T12:45:53.003Z</time></trkpt><trkpt lat="42.79587188086834" lon="11.520379397589332"><ele>756.0</ele><time>2026-04-12T12:45:54.003Z</time></trkpt><trkpt lat="42.79593918826704" lon="11.520430891232165"><ele>755.3333333333334</ele><time>2026-04-12T12:45:55.003Z</time></trkpt><trkpt lat="42.79598943082338" lon="11.520491911457132"><ele>754.6666666666666</ele><time>2026-04-12T12:45:56.003Z</time></trkpt><trkpt lat="42.79604155717206" lon="11.520622407159022"><ele>754.0</ele><time>2026-04-12T12:45:58.003Z</time></trkpt><trkpt lat="42.796053899274725" lon="11.520719341179095"><ele>753.3333333333333</ele><time>2026-04-12T12:45:59.003Z</time></trkpt><trkpt lat="42.79606050132976" lon="11.520831270592566"><ele>752.6666666666666</ele><time>2026-04-12T12:46:00.003Z</time></trkpt><trkpt lat="42.79606012172654" lon="11.520956376783843"><ele>752.0</ele><time>2026-04-12T12:46:01.003Z</time></trkpt><trkpt lat="42.79605191148381" lon="11.521081674839998"><ele>752.4000000000001</ele><time>2026-04-12T12:46:02.003Z</time></trkpt><trkpt lat="42.796030022103125" lon="11.521207983309182"><ele>752.8000000000001</ele><time>2026-04-12T12:46:03.003Z</time></trkpt><trkpt lat="42.796004195224874" lon="11.521335899858457"><ele>753.2</ele><time>2026-04-12T12:46:04.003Z</time></trkpt><trkpt lat="42.795977664451115" lon="11.521465545898328"><ele>753.6</ele><time>2026-04-12T12:46:05.003Z</time></trkpt><trkpt lat="42.79596024602651" lon="11.52160289714159"><ele>754.0</ele><time>2026-04-12T12:46:06.003Z</time></trkpt><trkpt lat="42.79594832606593" lon="11.521744851321246"><ele>754.0</ele><time>2026-04-12T12:46:07.003Z</time></trkpt><trkpt lat="42.795941918593485" lon="11.521890613536835"><ele>754.0</ele><time>2026-04-12T12:46:08.003Z</time></trkpt><trkpt lat="42.79594377520696" lon="11.522022636092917"><ele>754.0</ele><time>2026-04-12T12:46:09.003Z</time></trkpt><trkpt lat="42.795954327952565" lon="11.52214533273754"><ele>754.0</ele><time>2026-04-12T12:46:10.003Z</time></trkpt><trkpt lat="42.795978271727684" lon="11.522281698730897"><ele>754.0</ele><time>2026-04-12T12:46:10.997Z</time></trkpt><trkpt lat="42.79600162406452" lon="11.522419996502213"><ele>758.5</ele><time>2026-04-12T12:46:11.997Z</time></trkpt><trkpt lat="42.79602373316477" lon="11.522553791008141"><ele>763.0</ele><time>2026-04-12T12:46:12.998Z</time></trkpt><trkpt lat="42.79604103298016" lon="11.522683386224152"><ele>767.5</ele><time>2026-04-12T12:46:13.998Z</time></trkpt><trkpt lat="42.79605060122825" lon="11.522802900189877"><ele>772.0</ele><time>2026-04-12T12:46:14.998Z</time></trkpt><trkpt lat="42.79606180574717" lon="11.522895817526766"><ele>776.4999999999999</ele><time>2026-04-12T12:46:15.998Z</time></trkpt><trkpt lat="42.79608331287594" lon="11.522989450538214"><ele>781.0</ele><time>2026-04-12T12:46:16.998Z</time></trkpt><trkpt lat="42.7960958361168" lon="11.523079504998435"><ele>781.6666666666666</ele><time>2026-04-12T12:46:17.998Z</time></trkpt><trkpt lat="42.79610846319772" lon="11.523180126342641"><ele>782.3333333333333</ele><time>2026-04-12T12:46:18.998Z</time></trkpt><trkpt lat="42.796128338062005" lon="11.523284528848912"><ele>783.0</ele><time>2026-04-12T12:46:19.998Z</time></trkpt><trkpt lat="42.79614249618715" lon="11.523386663001217"><ele>783.6666666666667</ele><time>2026-04-12T12:46:20.998Z</time></trkpt><trkpt lat="42.79616284882313" lon="11.52349847579649"><ele>784.3333333333334</ele><time>2026-04-12T12:46:21.998Z</time></trkpt><trkpt lat="42.796181874704715" lon="11.52360179409645"><ele>785.0</ele><time>2026-04-12T12:46:22.998Z</time></trkpt><trkpt lat="42.79619241579796" lon="11.523721961032509"><ele>785.3333333333334</ele><time>2026-04-12T12:46:23.998Z</time></trkpt><trkpt lat="42.796194498398414" lon="11.523842614524158"><ele>785.6666666666667</ele><time>2026-04-12T12:46:24.999Z</time></trkpt><trkpt lat="42.79617659209679" lon="11.523953484794033"><ele>786.0</ele><time>2026-04-12T12:46:25.999Z</time></trkpt><trkpt lat="42.79614272152196" lon="11.524056369036346"><ele>786.3333333333333</ele><time>2026-04-12T12:46:26.999Z</time></trkpt><trkpt lat="42.796103879943225" lon="11.524164580583962"><ele>786.6666666666666</ele><time>2026-04-12T12:46:27.999Z</time></trkpt><trkpt lat="42.79605587370337" lon="11.524262679817703"><ele>787.0</ele><time>2026-04-12T12:46:28.999Z</time></trkpt><trkpt lat="42.79600042346328" lon="11.524346832396684"><ele>788.0</ele><time>2026-04-12T12:46:29.999Z</time></trkpt><trkpt lat="42.79593450695443" lon="11.524418903281697"><ele>789.0</ele><time>2026-04-12T12:46:30.999Z</time></trkpt><trkpt lat="42.79585763069821" lon="11.524491840807384"><ele>790.0</ele><time>2026-04-12T12:46:31.999Z</time></trkpt><trkpt lat="42.79576952506933" lon="11.524555570094426"><ele>791.0</ele><time>2026-04-12T12:46:32.999Z</time></trkpt><trkpt lat="42.79568436120541" lon="11.524595330469298"><ele>792.0</ele><time>2026-04-12T12:46:33.999Z</time></trkpt><trkpt lat="42.79559912288464" lon="11.524618759150213"><ele>792.0</ele><time>2026-04-12T12:46:35Z</time></trkpt><trkpt lat="42.79550208869297" lon="11.524634641664035"><ele>792.0</ele><time>2026-04-12T12:46:36Z</time></trkpt><trkpt lat="42.795402150818276" lon="11.524640634599383"><ele>792.0</ele><time>2026-04-12T12:46:37Z</time></trkpt><trkpt lat="42.795305377326976" lon="11.52464974182441"><ele>792.0</ele><time>2026-04-12T12:46:38Z</time></trkpt><trkpt lat="42.795225616954234" lon="11.524657268505242"><ele>792.0</ele><time>2026-04-12T12:46:39Z</time></trkpt><trkpt lat="42.79510476008372" lon="11.524711886767497"><ele>790.0</ele><time>2026-04-12T12:46:41Z</time></trkpt><trkpt lat="42.795013534833984" lon="11.524846207882256"><ele>788.0</ele><time>2026-04-12T12:46:43Z</time></trkpt><trkpt lat="42.794987317088896" lon="11.524952302050693"><ele>786.0</ele><time>2026-04-12T12:46:44Z</time></trkpt><trkpt lat="42.79497103843714" lon="11.525066089222301"><ele>784.0</ele><time>2026-04-12T12:46:45Z</time></trkpt><trkpt lat="42.79496983004834" lon="11.525194494665731"><ele>782.0</ele><time>2026-04-12T12:46:46Z</time></trkpt><trkpt lat="42.79497206084423" lon="11.525327028020257"><ele>783.3333333333334</ele><time>2026-04-12T12:46:47Z</time></trkpt><trkpt lat="42.79496691232581" lon="11.525441491416478"><ele>784.6666666666667</ele><time>2026-04-12T12:46:48Z</time></trkpt><trkpt lat="42.79496284748171" lon="11.525557668079024"><ele>786.0</ele><time>2026-04-12T12:46:49Z</time></trkpt><trkpt lat="42.79497702840029" lon="11.525650619943033"><ele>787.3333333333333</ele><time>2026-04-12T12:46:50Z</time></trkpt><trkpt lat="42.79505533887675" lon="11.525779620838081"><ele>788.6666666666666</ele><time>2026-04-12T12:46:52.001Z</time></trkpt><trkpt lat="42.795102181030494" lon="11.525840396033605"><ele>790.0</ele><time>2026-04-12T12:46:53.001Z</time></trkpt><trkpt lat="42.79516064848737" lon="11.52588406938324"><ele>791.6</ele><time>2026-04-12T12:46:54.001Z</time></trkpt><trkpt lat="42.79529188841014" lon="11.52592671173589"><ele>793.2</ele><time>2026-04-12T12:46:56.001Z</time></trkpt><trkpt lat="42.795377627321095" lon="11.525926848602818"><ele>794.8</ele><time>2026-04-12T12:46:57.001Z</time></trkpt><trkpt lat="42.79546792215903" lon="11.525911469298423"><ele>796.4</ele><time>2026-04-12T12:46:58.001Z</time></trkpt><trkpt lat="42.79556459999255" lon="11.525893476973973"><ele>798.0</ele><time>2026-04-12T12:46:59.001Z</time></trkpt><trkpt lat="42.79566019950537" lon="11.525881126115765"><ele>798.0</ele><time>2026-04-12T12:47:00.001Z</time></trkpt><trkpt lat="42.79575053041216" lon="11.525874741443175"><ele>798.0</ele><time>2026-04-12T12:47:01.001Z</time></trkpt><trkpt lat="42.79584810800224" lon="11.525863955610673"><ele>798.0</ele><time>2026-04-12T12:47:02.001Z</time></trkpt><trkpt lat="42.795939974896626" lon="11.525848542054995"><ele>798.0</ele><time>2026-04-12T12:47:03.001Z</time></trkpt><trkpt lat="42.79602792824634" lon="11.525835828484325"><ele>798.0</ele><time>2026-04-12T12:47:04.001Z</time></trkpt><trkpt lat="42.796110749690556" lon="11.525816975696033"><ele>799.8333333333334</ele><time>2026-04-12T12:47:05.001Z</time></trkpt><trkpt lat="42.79619914401907" lon="11.52578134866439"><ele>801.6666666666667</ele><time>2026-04-12T12:47:06.001Z</time></trkpt><trkpt lat="42.79626974721328" lon="11.525749112258481"><ele>803.5</ele><time>2026-04-12T12:47:07.001Z</time></trkpt><trkpt lat="42.796336427752564" lon="11.525732345822636"><ele>805.3333333333334</ele><time>2026-04-12T12:47:08.001Z</time></trkpt><trkpt lat="42.79641251260301" lon="11.525728053066748"><ele>807.1666666666667</ele><time>2026-04-12T12:47:09.001Z</time></trkpt><trkpt lat="42.79649861974096" lon="11.5257269077142"><ele>809.0</ele><time>2026-04-12T12:47:10.001Z</time></trkpt><trkpt lat="42.79657436418361" lon="11.525725976107086"><ele>809.0</ele><time>2026-04-12T12:47:11.001Z</time></trkpt><trkpt lat="42.79668496164663" lon="11.525737195910022"><ele>809.0</ele><time>2026-04-12T12:47:13.001Z</time></trkpt><trkpt lat="42.79675663765879" lon="11.52574708607413"><ele>809.0</ele><time>2026-04-12T12:47:14.001Z</time></trkpt><trkpt lat="42.79682325690579" lon="11.525765113331534"><ele>809.0</ele><time>2026-04-12T12:47:15.001Z</time></trkpt><trkpt lat="42.79689665037985" lon="11.525789689976952"><ele>809.0</ele><time>2026-04-12T12:47:16.001Z</time></trkpt><trkpt lat="42.797015874603055" lon="11.525841265730367"><ele>809.5714285714286</ele><time>2026-04-12T12:47:18.002Z</time></trkpt><trkpt lat="42.797083615005214" lon="11.52584387084025"><ele>810.1428571428571</ele><time>2026-04-12T12:47:19.002Z</time></trkpt><trkpt lat="42.79714656218537" lon="11.525823957007615"><ele>810.7142857142858</ele><time>2026-04-12T12:47:20.002Z</time></trkpt><trkpt lat="42.797218069891194" lon="11.525798687668694"><ele>811.2857142857142</ele><time>2026-04-12T12:47:21.002Z</time></trkpt><trkpt lat="42.797293959007675" lon="11.52577771791859"><ele>811.8571428571428</ele><time>2026-04-12T12:47:22.002Z</time></trkpt><trkpt lat="42.79737135184716" lon="11.525775039326126"><ele>812.4285714285714</ele><time>2026-04-12T12:47:23.002Z</time></trkpt><trkpt lat="42.797445797402666" lon="11.525796243437837"><ele>813.0</ele><time>2026-04-12T12:47:24.002Z</time></trkpt><trkpt lat="42.797523228132974" lon="11.525834384456564"><ele>813.0</ele><time>2026-04-12T12:47:25.002Z</time></trkpt><trkpt lat="42.79759957120165" lon="11.52587636899354"><ele>813.0</ele><time>2026-04-12T12:47:26.002Z</time></trkpt><trkpt lat="42.797680533162854" lon="11.525924074114924"><ele>813.0</ele><time>2026-04-12T12:47:27.002Z</time></trkpt><trkpt lat="42.79775881155374" lon="11.525973693669833"><ele>813.0</ele><time>2026-04-12T12:47:28.002Z</time></trkpt><trkpt lat="42.79787488510669" lon="11.526005591928861"><ele>813.0</ele><time>2026-04-12T12:47:30.002Z</time></trkpt><trkpt lat="42.79800290345468" lon="11.52595991625584"><ele>815.0</ele><time>2026-04-12T12:47:32.002Z</time></trkpt><trkpt lat="42.7980707182439" lon="11.525942373268245"><ele>817.0</ele><time>2026-04-12T12:47:33.002Z</time></trkpt><trkpt lat="42.79815743122005" lon="11.525920933039536"><ele>819.0</ele><time>2026-04-12T12:47:34.002Z</time></trkpt><trkpt lat="42.79822186984268" lon="11.52589371158509"><ele>821.0</ele><time>2026-04-12T12:47:35.002Z</time></trkpt><trkpt lat="42.79828257399429" lon="11.525858630424871"><ele>823.0</ele><time>2026-04-12T12:47:36.002Z</time></trkpt><trkpt lat="42.79834653235793" lon="11.525813552283939"><ele>825.0</ele><time>2026-04-12T12:47:37.002Z</time></trkpt><trkpt lat="42.79840701368184" lon="11.525759020689193"><ele>827.0</ele><time>2026-04-12T12:47:38.002Z</time></trkpt><trkpt lat="42.79846809971014" lon="11.525695852516112"><ele>828.8333333333334</ele><time>2026-04-12T12:47:39.002Z</time></trkpt><trkpt lat="42.798539567260896" lon="11.525621196478767"><ele>830.6666666666667</ele><time>2026-04-12T12:47:40.002Z</time></trkpt><trkpt lat="42.79861079642007" lon="11.52555331620324"><ele>832.5</ele><time>2026-04-12T12:47:41.002Z</time></trkpt><trkpt lat="42.7986847650821" lon="11.525480894046002"><ele>834.3333333333333</ele><time>2026-04-12T12:47:42.002Z</time></trkpt><trkpt lat="42.79874196041987" lon="11.525417774751446"><ele>836.1666666666666</ele><time>2026-04-12T12:47:43.002Z</time></trkpt><trkpt lat="42.798800235232186" lon="11.525340072843745"><ele>838.0</ele><time>2026-04-12T12:47:44.002Z</time></trkpt><trkpt lat="42.798848708240264" lon="11.525270588609393"><ele>838.0</ele><time>2026-04-12T12:47:45.002Z</time></trkpt><trkpt lat="42.79894313436339" lon="11.525154511661452"><ele>838.0</ele><time>2026-04-12T12:47:47.002Z</time></trkpt><trkpt lat="42.798999545220944" lon="11.52508834948808"><ele>838.0</ele><time>2026-04-12T12:47:48.002Z</time></trkpt><trkpt lat="42.79905827672552" lon="11.525034056714844"><ele>838.0</ele><time>2026-04-12T12:47:49.003Z</time></trkpt><trkpt lat="42.79916591656033" lon="11.52497270365726"><ele>838.0</ele><time>2026-04-12T12:47:51.003Z</time></trkpt><trkpt lat="42.79925508073215" lon="11.524973694028894"><ele>841.2</ele><time>2026-04-12T12:47:53.003Z</time></trkpt><trkpt lat="42.79934389529633" lon="11.525024361134578"><ele>844.4</ele><time>2026-04-12T12:48:04.003Z</time></trkpt><trkpt lat="42.79941460930856" lon="11.525096833100239"><ele>847.6000000000001</ele><time>2026-04-12T12:48:06.003Z</time></trkpt><trkpt lat="42.799496821784345" lon="11.525173849923346"><ele>850.8000000000001</ele><time>2026-04-12T12:48:08.003Z</time></trkpt><trkpt lat="42.79956912263964" lon="11.525296553205179"><ele>854.0</ele><time>2026-04-12T12:48:10.003Z</time></trkpt><trkpt lat="42.79961228123757" lon="11.525368365520498"><ele>854.0000000000001</ele><time>2026-04-12T12:48:11.003Z</time></trkpt><trkpt lat="42.79965532546814" lon="11.525442270175473"><ele>854.0</ele><time>2026-04-12T12:48:12.003Z</time></trkpt><trkpt lat="42.799697399066126" lon="11.525506426332369"><ele>854.0</ele><time>2026-04-12T12:48:13.003Z</time></trkpt><trkpt lat="42.79977944926637" lon="11.525603987809092"><ele>854.0</ele><time>2026-04-12T12:48:15.003Z</time></trkpt><trkpt lat="42.79988388843753" lon="11.525713783880486"><ele>854.0000000000001</ele><time>2026-04-12T12:48:16.998Z</time></trkpt><trkpt lat="42.799942778364105" lon="11.525767365773136"><ele>854.0</ele><time>2026-04-12T12:48:17.998Z</time></trkpt><trkpt lat="42.800007711391856" lon="11.52580359341637"><ele>854.0000000000001</ele><time>2026-04-12T12:48:18.998Z</time></trkpt><trkpt lat="42.800075128611134" lon="11.525829074385134"><ele>854.0</ele><time>2026-04-12T12:48:19.998Z</time></trkpt><trkpt lat="42.80014308173105" lon="11.525845386772534"><ele>854.0</ele><time>2026-04-12T12:48:20.998Z</time></trkpt><trkpt lat="42.80020976371959" lon="11.52585264600682"><ele>854.0</ele><time>2026-04-12T12:48:21.998Z</time></trkpt><trkpt lat="42.80029282474539" lon="11.525851333016636"><ele>854.0000000000001</ele><time>2026-04-12T12:48:22.998Z</time></trkpt><trkpt lat="42.800373036057486" lon="11.525847781705394"><ele>854.0</ele><time>2026-04-12T12:48:23.998Z</time></trkpt><trkpt lat="42.80045538642734" lon="11.525852736573682"><ele>855.2</ele><time>2026-04-12T12:48:24.998Z</time></trkpt><trkpt lat="42.80054136955328" lon="11.525831748818504"><ele>856.4000000000001</ele><time>2026-04-12T12:48:25.999Z</time></trkpt><trkpt lat="42.80063628367234" lon="11.525821176577338"><ele>857.6</ele><time>2026-04-12T12:48:26.999Z</time></trkpt><trkpt lat="42.800730498205304" lon="11.525804796617797"><ele>858.8</ele><time>2026-04-12T12:48:27.999Z</time></trkpt><trkpt lat="42.80082274996999" lon="11.52579254722914"><ele>860.0</ele><time>2026-04-12T12:48:28.999Z</time></trkpt><trkpt lat="42.80091605076637" lon="11.5258006917883"><ele>860.4</ele><time>2026-04-12T12:48:29.999Z</time></trkpt><trkpt lat="42.801000994865156" lon="11.525812433528799"><ele>860.8</ele><time>2026-04-12T12:48:30.999Z</time></trkpt><trkpt lat="42.80109225058576" lon="11.525814771017693"><ele>861.2</ele><time>2026-04-12T12:48:31.999Z</time></trkpt><trkpt lat="42.80118246444539" lon="11.525809406186363"><ele>861.6</ele><time>2026-04-12T12:48:32.999Z</time></trkpt><trkpt lat="42.80128308419705" lon="11.525787737725151"><ele>862.0</ele><time>2026-04-12T12:48:33.999Z</time></trkpt><trkpt lat="42.80138543233346" lon="11.525762650870663"><ele>862.0</ele><time>2026-04-12T12:48:34.999Z</time></trkpt><trkpt lat="42.801491994690764" lon="11.525736782140802"><ele>862.0</ele><time>2026-04-12T12:48:35.999Z</time></trkpt><trkpt lat="42.80160720407338" lon="11.525708516322316"><ele>862.0</ele><time>2026-04-12T12:48:36.999Z</time></trkpt><trkpt lat="42.80171722288884" lon="11.525686119797754"><ele>862.0</ele><time>2026-04-12T12:48:37.999Z</time></trkpt><trkpt lat="42.801821484013075" lon="11.52566434684447"><ele>862.0</ele><time>2026-04-12T12:48:39Z</time></trkpt><trkpt lat="42.801933085506604" lon="11.525642432526322"><ele>862.6</ele><time>2026-04-12T12:48:40Z</time></trkpt><trkpt lat="42.80204487914569" lon="11.525619581327398"><ele>863.2</ele><time>2026-04-12T12:48:41Z</time></trkpt><trkpt lat="42.80215765566097" lon="11.525597372238773"><ele>863.8</ele><time>2026-04-12T12:48:42Z</time></trkpt><trkpt lat="42.80225998695564" lon="11.525592510829483"><ele>864.4</ele><time>2026-04-12T12:48:43Z</time></trkpt><trkpt lat="42.80235275054451" lon="11.525591944989616"><ele>865.0</ele><time>2026-04-12T12:48:44Z</time></trkpt><trkpt lat="42.80244069204609" lon="11.525606744299093"><ele>865.0</ele><time>2026-04-12T12:48:45Z</time></trkpt><trkpt lat="42.802528640688585" lon="11.525630119350808"><ele>865.0</ele><time>2026-04-12T12:48:46Z</time></trkpt><trkpt lat="42.802617954073206" lon="11.525663126362657"><ele>865.0</ele><time>2026-04-12T12:48:47Z</time></trkpt><trkpt lat="42.80271024994117" lon="11.52570266247927"><ele>865.0</ele><time>2026-04-12T12:48:48Z</time></trkpt><trkpt lat="42.80280355370142" lon="11.525744920851189"><ele>865.0</ele><time>2026-04-12T12:48:49Z</time></trkpt><trkpt lat="42.80289128676818" lon="11.525782805571069"><ele>866.3333333333333</ele><time>2026-04-12T12:48:50Z</time></trkpt><trkpt lat="42.802987772494035" lon="11.52581630220237"><ele>867.6666666666666</ele><time>2026-04-12T12:48:51Z</time></trkpt><trkpt lat="42.80308244969684" lon="11.525851807572302"><ele>869.0</ele><time>2026-04-12T12:48:52Z</time></trkpt><trkpt lat="42.803179235898526" lon="11.525888834534049"><ele>870.3333333333333</ele><time>2026-04-12T12:48:53Z</time></trkpt><trkpt lat="42.80325507805068" lon="11.52591817243422"><ele>871.6666666666666</ele><time>2026-04-12T12:48:54Z</time></trkpt><trkpt lat="42.80332418054596" lon="11.525947106349841"><ele>873.0</ele><time>2026-04-12T12:48:55Z</time></trkpt><trkpt lat="42.80339189677816" lon="11.525971121709404"><ele>873.0</ele><time>2026-04-12T12:48:56.001Z</time></trkpt><trkpt lat="42.803472486509726" lon="11.526007747159213"><ele>873.0</ele><time>2026-04-12T12:48:57.001Z</time></trkpt><trkpt lat="42.803545756784175" lon="11.52602600482796"><ele>873.0</ele><time>2026-04-12T12:48:58.001Z</time></trkpt><trkpt lat="42.80362171961829" lon="11.526036108678927"><ele>873.0</ele><time>2026-04-12T12:48:59.001Z</time></trkpt><trkpt lat="42.80371208493899" lon="11.526046098628854"><ele>873.0</ele><time>2026-04-12T12:49:00.001Z</time></trkpt><trkpt lat="42.803796377266245" lon="11.526056029780305"><ele>873.0</ele><time>2026-04-12T12:49:01.001Z</time></trkpt><trkpt lat="42.80388094940548" lon="11.526060921696756"><ele>873.5</ele><time>2026-04-12T12:49:02.001Z</time></trkpt><trkpt lat="42.80396349450277" lon="11.526063598484424"><ele>874.0</ele><time>2026-04-12T12:49:03.001Z</time></trkpt><trkpt lat="42.804048830872716" lon="11.526070092707151"><ele>874.5</ele><time>2026-04-12T12:49:04.001Z</time></trkpt><trkpt lat="42.80413961744507" lon="11.526072099756416"><ele>875.0</ele><time>2026-04-12T12:49:05.001Z</time></trkpt><trkpt lat="42.80420549633395" lon="11.526072404278823"><ele>875.5</ele><time>2026-04-12T12:49:06.001Z</time></trkpt><trkpt lat="42.80427946928544" lon="11.52607849230556"><ele>876.0</ele><time>2026-04-12T12:49:07.001Z</time></trkpt><trkpt lat="42.80435486987471" lon="11.526104874799472"><ele>876.6666666666666</ele><time>2026-04-12T12:49:08.001Z</time></trkpt><trkpt lat="42.80441564459971" lon="11.526138822022842"><ele>877.3333333333333</ele><time>2026-04-12T12:49:09.001Z</time></trkpt><trkpt lat="42.804489882233256" lon="11.52619103873507"><ele>878.0</ele><time>2026-04-12T12:49:10.001Z</time></trkpt><trkpt lat="42.804563947390264" lon="11.526235321843897"><ele>878.6666666666666</ele><time>2026-04-12T12:49:11.001Z</time></trkpt><trkpt lat="42.8046287727478" lon="11.526273215290797"><ele>879.3333333333333</ele><time>2026-04-12T12:49:12.001Z</time></trkpt><trkpt lat="42.804707975800184" lon="11.526315503316868"><ele>880.0</ele><time>2026-04-12T12:49:13.001Z</time></trkpt><trkpt lat="42.804783499899365" lon="11.526365844917443"><ele>880.9999999999999</ele><time>2026-04-12T12:49:14.001Z</time></trkpt><trkpt lat="42.80486103724167" lon="11.526437957639057"><ele>882.0</ele><time>2026-04-12T12:49:15.001Z</time></trkpt><trkpt lat="42.804928413955246" lon="11.526496801460203"><ele>883.0</ele><time>2026-04-12T12:49:16.001Z</time></trkpt><trkpt lat="42.80500539810501" lon="11.526541598448935"><ele>884.0</ele><time>2026-04-12T12:49:17.001Z</time></trkpt><trkpt lat="42.80509542892989" lon="11.52657680040661"><ele>884.9999999999999</ele><time>2026-04-12T12:49:18.001Z</time></trkpt><trkpt lat="42.805185963823845" lon="11.526603275175372"><ele>886.0</ele><time>2026-04-12T12:49:19.001Z</time></trkpt><trkpt lat="42.80527325803359" lon="11.526640770122492"><ele>887.4999999999999</ele><time>2026-04-12T12:49:20.001Z</time></trkpt><trkpt lat="42.805364193896125" lon="11.526675671294967"><ele>889.0</ele><time>2026-04-12T12:49:21.001Z</time></trkpt><trkpt lat="42.8054521748821" lon="11.52669271804323"><ele>890.5</ele><time>2026-04-12T12:49:22.001Z</time></trkpt><trkpt lat="42.805547187817794" lon="11.526699108661209"><ele>892.0</ele><time>2026-04-12T12:49:23.002Z</time></trkpt><trkpt lat="42.80563598687264" lon="11.526697548655717"><ele>893.4999999999999</ele><time>2026-04-12T12:49:24.002Z</time></trkpt><trkpt lat="42.8057157268036" lon="11.526690523514128"><ele>895.0</ele><time>2026-04-12T12:49:25.002Z</time></trkpt><trkpt lat="42.80580080022166" lon="11.526688594118118"><ele>895.0</ele><time>2026-04-12T12:49:26.002Z</time></trkpt><trkpt lat="42.80589414989451" lon="11.526686875094153"><ele>895.0</ele><time>2026-04-12T12:49:27.002Z</time></trkpt><trkpt lat="42.805991013623284" lon="11.52668208172933"><ele>895.0</ele><time>2026-04-12T12:49:28.002Z</time></trkpt><trkpt lat="42.80607609436832" lon="11.526677132763647"><ele>895.0</ele><time>2026-04-12T12:49:29.002Z</time></trkpt><trkpt lat="42.80616615619577" lon="11.526682353653488"><ele>895.0</ele><time>2026-04-12T12:49:30.002Z</time></trkpt><trkpt lat="42.80625209096195" lon="11.526698255589778"><ele>897.2</ele><time>2026-04-12T12:49:31.002Z</time></trkpt><trkpt lat="42.80635625332551" lon="11.526703852677684"><ele>899.4</ele><time>2026-04-12T12:49:32.002Z</time></trkpt><trkpt lat="42.80646813339942" lon="11.526710466123625"><ele>901.5999999999999</ele><time>2026-04-12T12:49:33.002Z</time></trkpt><trkpt lat="42.806580961492635" lon="11.526722818097436"><ele>903.8</ele><time>2026-04-12T12:49:34.002Z</time></trkpt><trkpt lat="42.80669133068225" lon="11.52673496312164"><ele>906.0</ele><time>2026-04-12T12:49:35.002Z</time></trkpt><trkpt lat="42.80679170977476" lon="11.526743500714915"><ele>908.3333333333334</ele><time>2026-04-12T12:49:36.002Z</time></trkpt><trkpt lat="42.80687312844906" lon="11.52674829908093"><ele>910.6666666666667</ele><time>2026-04-12T12:49:37.002Z</time></trkpt><trkpt lat="42.80696594196114" lon="11.526742505599941"><ele>913.0</ele><time>2026-04-12T12:49:38.002Z</time></trkpt><trkpt lat="42.807048052630755" lon="11.526718775512064"><ele>915.3333333333334</ele><time>2026-04-12T12:49:39.002Z</time></trkpt><trkpt lat="42.8071245704094" lon="11.526663653167923"><ele>917.6666666666667</ele><time>2026-04-12T12:49:40.002Z</time></trkpt><trkpt lat="42.80719318511961" lon="11.526581933808686"><ele>920.0</ele><time>2026-04-12T12:49:41.002Z</time></trkpt><trkpt lat="42.80726256266298" lon="11.526500083802702"><ele>920.0000000000001</ele><time>2026-04-12T12:49:42.002Z</time></trkpt><trkpt lat="42.807337194614185" lon="11.5264202878926"><ele>920.0</ele><time>2026-04-12T12:49:43.002Z</time></trkpt><trkpt lat="42.80739064015995" lon="11.526365292446464"><ele>920.0</ele><time>2026-04-12T12:49:44.002Z</time></trkpt><trkpt lat="42.80745426416312" lon="11.5263084795468"><ele>920.0</ele><time>2026-04-12T12:49:45.002Z</time></trkpt><trkpt lat="42.80752194436666" lon="11.526247085777488"><ele>920.0000000000001</ele><time>2026-04-12T12:49:46.002Z</time></trkpt><trkpt lat="42.80757944535704" lon="11.52619007282308"><ele>920.0</ele><time>2026-04-12T12:49:47.002Z</time></trkpt><trkpt lat="42.8076816674583" lon="11.526080076377488"><ele>921.1666666666667</ele><time>2026-04-12T12:49:49.002Z</time></trkpt><trkpt lat="42.807739723840264" lon="11.526029847560086"><ele>922.3333333333334</ele><time>2026-04-12T12:49:50.002Z</time></trkpt><trkpt lat="42.80779674674236" lon="11.525971451027512"><ele>923.5</ele><time>2026-04-12T12:49:51.002Z</time></trkpt><trkpt lat="42.80784935406855" lon="11.525919991918906"><ele>924.6666666666667</ele><time>2026-04-12T12:49:52.002Z</time></trkpt><trkpt lat="42.80792669616822" lon="11.525836793339458"><ele>925.8333333333334</ele><time>2026-04-12T12:49:54.002Z</time></trkpt><trkpt lat="42.80802293797341" lon="11.525761785743361"><ele>927.0</ele><time>2026-04-12T12:49:56.003Z</time></trkpt><trkpt lat="42.808095142487204" lon="11.525726828019769"><ele>926.9999999999999</ele><time>2026-04-12T12:49:57.003Z</time></trkpt><trkpt lat="42.808155959624074" lon="11.5256944202912"><ele>927.0</ele><time>2026-04-12T12:49:58.003Z</time></trkpt><trkpt lat="42.80824979849077" lon="11.525705982791587"><ele>926.9999999999999</ele><time>2026-04-12T12:50:00.003Z</time></trkpt><trkpt lat="42.80831874990627" lon="11.5257627444753"><ele>926.9999999999999</ele><time>2026-04-12T12:50:02.003Z</time></trkpt><trkpt lat="42.80837121876918" lon="11.525825051609985"><ele>927.0</ele><time>2026-04-12T12:50:03.003Z</time></trkpt><trkpt lat="42.80841726487014" lon="11.525892260609382"><ele>926.9999999999999</ele><time>2026-04-12T12:50:04.003Z</time></trkpt><trkpt lat="42.808455464861154" lon="11.525960750130354"><ele>926.9999999999999</ele><time>2026-04-12T12:50:05.003Z</time></trkpt><trkpt lat="42.808509382357634" lon="11.526040382402332"><ele>928.6666666666666</ele><time>2026-04-12T12:50:07.003Z</time></trkpt><trkpt lat="42.80857421016125" lon="11.52608965740244"><ele>930.3333333333333</ele><time>2026-04-12T12:50:09.003Z</time></trkpt><trkpt lat="42.808677410098745" lon="11.526128057844298"><ele>932.0</ele><time>2026-04-12T12:50:11.003Z</time></trkpt><trkpt lat="42.808751604665744" lon="11.52613274312001"><ele>933.6666666666666</ele><time>2026-04-12T12:50:12.003Z</time></trkpt><trkpt lat="42.80882612627993" lon="11.52613213496259"><ele>935.3333333333333</ele><time>2026-04-12T12:50:13.003Z</time></trkpt><trkpt lat="42.808909615060564" lon="11.52611104370187"><ele>937.0</ele><time>2026-04-12T12:50:14.003Z</time></trkpt><trkpt lat="42.80898350042076" lon="11.526098056514574"><ele>936.9999999999999</ele><time>2026-04-12T12:50:15.003Z</time></trkpt><trkpt lat="42.80904973773177" lon="11.52608899799426"><ele>937.0</ele><time>2026-04-12T12:50:16.003Z</time></trkpt><trkpt lat="42.80917364199204" lon="11.526079232597949"><ele>937.0</ele><time>2026-04-12T12:50:18.003Z</time></trkpt><trkpt lat="42.8092517435113" lon="11.526065074263409"><ele>937.0</ele><time>2026-04-12T12:50:19.003Z</time></trkpt><trkpt lat="42.80932958949826" lon="11.526045020969722"><ele>936.9999999999999</ele><time>2026-04-12T12:50:20.003Z</time></trkpt><trkpt lat="42.8094121224741" lon="11.526020655645599"><ele>937.0</ele><time>2026-04-12T12:50:21.003Z</time></trkpt><trkpt lat="42.80949338796123" lon="11.526005794074196"><ele>938.4999999999999</ele><time>2026-04-12T12:50:22.003Z</time></trkpt><trkpt lat="42.809572396537476" lon="11.525994853667761"><ele>940.0</ele><time>2026-04-12T12:50:22.998Z</time></trkpt><trkpt lat="42.80965959919377" lon="11.5259856190113"><ele>941.5</ele><time>2026-04-12T12:50:23.998Z</time></trkpt><trkpt lat="42.80974350581358" lon="11.525972259583462"><ele>943.0</ele><time>2026-04-12T12:50:24.998Z</time></trkpt><trkpt lat="42.809835720930316" lon="11.525949411332784"><ele>944.4999999999999</ele><time>2026-04-12T12:50:25.998Z</time></trkpt><trkpt lat="42.80992985804507" lon="11.525931307239745"><ele>946.0</ele><time>2026-04-12T12:50:26.998Z</time></trkpt><trkpt lat="42.8100206807876" lon="11.525917065963311"><ele>945.9999999999999</ele><time>2026-04-12T12:50:27.998Z</time></trkpt><trkpt lat="42.81010883740909" lon="11.52590393336279"><ele>946.0</ele><time>2026-04-12T12:50:28.998Z</time></trkpt><trkpt lat="42.8101907853695" lon="11.525887025398314"><ele>946.0</ele><time>2026-04-12T12:50:29.998Z</time></trkpt><trkpt lat="42.81028260930432" lon="11.525868637914032"><ele>946.0</ele><time>2026-04-12T12:50:30.999Z</time></trkpt><trkpt lat="42.81036373650854" lon="11.525853039774299"><ele>945.9999999999999</ele><time>2026-04-12T12:50:31.999Z</time></trkpt><trkpt lat="42.81044870008533" lon="11.525833514747257"><ele>946.0</ele><time>2026-04-12T12:50:32.999Z</time></trkpt><trkpt lat="42.81054585940603" lon="11.525813824634875"><ele>948.4</ele><time>2026-04-12T12:50:33.999Z</time></trkpt><trkpt lat="42.81064178039452" lon="11.525793075529089"><ele>950.8</ele><time>2026-04-12T12:50:34.999Z</time></trkpt><trkpt lat="42.81074312769324" lon="11.525778694692711"><ele>953.1999999999999</ele><time>2026-04-12T12:50:35.999Z</time></trkpt><trkpt lat="42.81084263810801" lon="11.525760442828314"><ele>955.5999999999999</ele><time>2026-04-12T12:50:36.999Z</time></trkpt><trkpt lat="42.81094872820798" lon="11.525738487808248"><ele>958.0</ele><time>2026-04-12T12:50:37.999Z</time></trkpt><trkpt lat="42.81105400082624" lon="11.525717909205447"><ele>960.4</ele><time>2026-04-12T12:50:38.999Z</time></trkpt><trkpt lat="42.81116247565497" lon="11.525695361001095"><ele>962.8</ele><time>2026-04-12T12:50:39.999Z</time></trkpt><trkpt lat="42.81127199352124" lon="11.525670462393753"><ele>965.2</ele><time>2026-04-12T12:50:40.999Z</time></trkpt><trkpt lat="42.811373346321375" lon="11.525641272973683"><ele>967.6</ele><time>2026-04-12T12:50:41.999Z</time></trkpt><trkpt lat="42.81148485986232" lon="11.525616671584304"><ele>970.0</ele><time>2026-04-12T12:50:42.999Z</time></trkpt><trkpt lat="42.811597104142415" lon="11.525593677477078"><ele>970.0</ele><time>2026-04-12T12:50:44Z</time></trkpt><trkpt lat="42.8117117053424" lon="11.525576527277941"><ele>970.0</ele><time>2026-04-12T12:50:45Z</time></trkpt><trkpt lat="42.811828101903735" lon="11.525556585988065"><ele>970.0</ele><time>2026-04-12T12:50:46Z</time></trkpt><trkpt lat="42.811934277218114" lon="11.525534760715557"><ele>970.0</ele><time>2026-04-12T12:50:47Z</time></trkpt><trkpt lat="42.812037838469514" lon="11.525518003966852"><ele>970.0</ele><time>2026-04-12T12:50:48Z</time></trkpt><trkpt lat="42.812139515945255" lon="11.525501426930967"><ele>972.8333333333333</ele><time>2026-04-12T12:50:49Z</time></trkpt><trkpt lat="42.812237502249715" lon="11.525483226487104"><ele>975.6666666666666</ele><time>2026-04-12T12:50:50Z</time></trkpt><trkpt lat="42.812316955048736" lon="11.525479940508271"><ele>978.5</ele><time>2026-04-12T12:50:51Z</time></trkpt><trkpt lat="42.81238957527638" lon="11.525477834183016"><ele>981.3333333333333</ele><time>2026-04-12T12:50:52Z</time></trkpt><trkpt lat="42.81247609226938" lon="11.525451061531758"><ele>984.1666666666666</ele><time>2026-04-12T12:50:54Z</time></trkpt><trkpt lat="42.81253257929906" lon="11.525411638498205"><ele>987.0</ele><time>2026-04-12T12:50:56Z</time></trkpt><trkpt lat="42.81261296433416" lon="11.52543210425141"><ele>987.8333333333334</ele><time>2026-04-12T12:50:59Z</time></trkpt><trkpt lat="42.81267742106867" lon="11.52548409883798"><ele>988.6666666666667</ele><time>2026-04-12T12:52:53Z</time></trkpt><trkpt lat="42.812758992458754" lon="11.525568664870812"><ele>989.5</ele><time>2026-04-12T12:52:56Z</time></trkpt><trkpt lat="42.8128313187909" lon="11.525646407783343"><ele>990.3333333333334</ele><time>2026-04-12T12:52:58Z</time></trkpt><trkpt lat="42.812914900744225" lon="11.525718454820437"><ele>991.1666666666667</ele><time>2026-04-12T12:53:00Z</time></trkpt><trkpt lat="42.81297105860239" lon="11.525771734822785"><ele>992.0</ele><time>2026-04-12T12:53:01Z</time></trkpt><trkpt lat="42.81303565166567" lon="11.525832244357831"><ele>992.0000000000001</ele><time>2026-04-12T12:53:02Z</time></trkpt><trkpt lat="42.813104017699416" lon="11.525894114809635"><ele>992.0</ele><time>2026-04-12T12:53:03Z</time></trkpt><trkpt lat="42.81316516946334" lon="11.525952600594895"><ele>992.0</ele><time>2026-04-12T12:53:04Z</time></trkpt><trkpt lat="42.81323150763434" lon="11.526023303702598"><ele>992.0</ele><time>2026-04-12T12:53:05Z</time></trkpt><trkpt lat="42.81329942839486" lon="11.526101835821505"><ele>992.0000000000001</ele><time>2026-04-12T12:53:06.001Z</time></trkpt><trkpt lat="42.81336992924504" lon="11.526175675977735"><ele>992.0</ele><time>2026-04-12T12:53:07.001Z</time></trkpt><trkpt lat="42.81344287203494" lon="11.526238145012858"><ele>994.5000000000001</ele><time>2026-04-12T12:53:08.001Z</time></trkpt><trkpt lat="42.81350893156305" lon="11.526293370594205"><ele>997.0</ele><time>2026-04-12T12:53:09.001Z</time></trkpt><trkpt lat="42.81358061772136" lon="11.526350271577503"><ele>999.5</ele><time>2026-04-12T12:53:10.001Z</time></trkpt><trkpt lat="42.81365302382073" lon="11.526413120333949"><ele>1002.0</ele><time>2026-04-12T12:53:11.001Z</time></trkpt><trkpt lat="42.813717670162724" lon="11.52648074795964"><ele>1004.5000000000001</ele><time>2026-04-12T12:53:12.001Z</time></trkpt><trkpt lat="42.81378315618922" lon="11.526546549221077"><ele>1007.0</ele><time>2026-04-12T12:53:13.001Z</time></trkpt><trkpt lat="42.813843454897714" lon="11.526610082712732"><ele>1007.0000000000001</ele><time>2026-04-12T12:53:14.001Z</time></trkpt><trkpt lat="42.813912011194844" lon="11.526677916251229"><ele>1007.0</ele><time>2026-04-12T12:53:15.001Z</time></trkpt><trkpt lat="42.81397550592971" lon="11.526750723993063"><ele>1007.0</ele><time>2026-04-12T12:53:16.001Z</time></trkpt><trkpt lat="42.81403743312796" lon="11.526814679666344"><ele>1007.0</ele><time>2026-04-12T12:53:17.001Z</time></trkpt><trkpt lat="42.81410166710224" lon="11.52687482519994"><ele>1007.0000000000001</ele><time>2026-04-12T12:53:18.001Z</time></trkpt><trkpt lat="42.81416250409224" lon="11.526936206184134"><ele>1007.0</ele><time>2026-04-12T12:53:19.001Z</time></trkpt><trkpt lat="42.81422518903304" lon="11.527009589557423"><ele>1008.1666666666667</ele><time>2026-04-12T12:53:20.001Z</time></trkpt><trkpt lat="42.814275007507455" lon="11.52708908085248"><ele>1009.3333333333334</ele><time>2026-04-12T12:53:21.001Z</time></trkpt><trkpt lat="42.81432181450784" lon="11.52718703973488"><ele>1010.5</ele><time>2026-04-12T12:53:22.001Z</time></trkpt><trkpt lat="42.81434422849813" lon="11.52727882940732"><ele>1011.6666666666667</ele><time>2026-04-12T12:53:23.001Z</time></trkpt><trkpt lat="42.81436607161261" lon="11.527397723449765"><ele>1012.8333333333334</ele><time>2026-04-12T12:53:24.001Z</time></trkpt><trkpt lat="42.81438623668068" lon="11.52749919836852"><ele>1014.0</ele><time>2026-04-12T12:53:25.001Z</time></trkpt><trkpt lat="42.81440776077118" lon="11.52758171620577"><ele>1015.0</ele><time>2026-04-12T12:53:26.001Z</time></trkpt><trkpt lat="42.81442882985616" lon="11.527675626022488"><ele>1016.0</ele><time>2026-04-12T12:53:27.001Z</time></trkpt><trkpt lat="42.81444900485114" lon="11.527772163684102"><ele>1017.0</ele><time>2026-04-12T12:53:28.001Z</time></trkpt><trkpt lat="42.81446647285111" lon="11.527862189277037"><ele>1018.0</ele><time>2026-04-12T12:53:29.001Z</time></trkpt><trkpt lat="42.81448883997068" lon="11.527957001702235"><ele>1019.0</ele><time>2026-04-12T12:53:30.001Z</time></trkpt><trkpt lat="42.814518688890786" lon="11.528048248509869"><ele>1020.0</ele><time>2026-04-12T12:53:31.001Z</time></trkpt><trkpt lat="42.81455154852544" lon="11.528138164313358"><ele>1021.0</ele><time>2026-04-12T12:53:32.001Z</time></trkpt><trkpt lat="42.814581466073285" lon="11.528227083044548"><ele>1022.3333333333333</ele><time>2026-04-12T12:53:33.002Z</time></trkpt><trkpt lat="42.81461285068944" lon="11.52830541840606"><ele>1023.6666666666666</ele><time>2026-04-12T12:53:34.002Z</time></trkpt><trkpt lat="42.81464794106979" lon="11.528403773676422"><ele>1025.0</ele><time>2026-04-12T12:53:36.002Z</time></trkpt><trkpt lat="42.8147178891992" lon="11.528500025069956"><ele>1026.3333333333333</ele><time>2026-04-12T13:04:54.003Z</time></trkpt><trkpt lat="42.81476066536568" lon="11.528625477342121"><ele>1027.6666666666667</ele><time>2026-04-12T13:04:56.003Z</time></trkpt><trkpt lat="42.81481642995834" lon="11.52872946902472"><ele>1029.0</ele><time>2026-04-12T13:04:58.003Z</time></trkpt><trkpt lat="42.8147667437972" lon="11.528673051717112"><ele>1029.0</ele><time>2026-04-12T13:06:42.002Z</time></trkpt><trkpt lat="42.81472808593835" lon="11.528584511929699"><ele>1029.0</ele><time>2026-04-12T13:06:45.002Z</time></trkpt><trkpt lat="42.81469219245814" lon="11.52848589984877"><ele>1029.0</ele><time>2026-04-12T13:06:47.002Z</time></trkpt><trkpt lat="42.8146583585326" lon="11.528385481856443"><ele>1029.0</ele><time>2026-04-12T13:06:49.002Z</time></trkpt><trkpt lat="42.814616860544696" lon="11.528275916998886"><ele>1029.0</ele><time>2026-04-12T13:06:51.002Z</time></trkpt><trkpt lat="42.814571687721646" lon="11.528163346154729"><ele>1029.0</ele><time>2026-04-12T13:06:53.002Z</time></trkpt><trkpt lat="42.814525151400396" lon="11.528050140936541"><ele>1029.0</ele><time>2026-04-12T13:06:55.002Z</time></trkpt><trkpt lat="42.81448811842754" lon="11.527929977693914"><ele>1029.0</ele><time>2026-04-12T13:06:57.002Z</time></trkpt><trkpt lat="42.814460762055674" lon="11.52781808414226"><ele>1029.0</ele><time>2026-04-12T13:06:59.002Z</time></trkpt><trkpt lat="42.814437859289235" lon="11.527709995740494"><ele>1029.0</ele><time>2026-04-12T13:07:01.002Z</time></trkpt><trkpt lat="42.81440735567068" lon="11.527611136758082"><ele>1029.0</ele><time>2026-04-12T13:07:03.002Z</time></trkpt><trkpt lat="42.81437970449477" lon="11.527488900981545"><ele>1029.0</ele><time>2026-04-12T13:07:05.002Z</time></trkpt><trkpt lat="42.81434911719391" lon="11.527379198404034"><ele>1027.6666666666667</ele><time>2026-04-12T13:07:07.002Z</time></trkpt><trkpt lat="42.81432903243012" lon="11.52726869932906"><ele>1026.3333333333333</ele><time>2026-04-12T13:07:09.002Z</time></trkpt><trkpt lat="42.81429759940003" lon="11.527153588860903"><ele>1025.0</ele><time>2026-04-12T13:07:10.998Z</time></trkpt><trkpt lat="42.814257963461465" lon="11.527059362287744"><ele>1023.6666666666666</ele><time>2026-04-12T13:07:12.998Z</time></trkpt><trkpt lat="42.81419917037295" lon="11.526965059675595"><ele>1022.3333333333333</ele><time>2026-04-12T13:07:14.998Z</time></trkpt><trkpt lat="42.81411685906834" lon="11.526885970033147"><ele>1021.0</ele><time>2026-04-12T13:07:16.999Z</time></trkpt><trkpt lat="42.81403990390895" lon="11.526800599516179"><ele>1018.1999999999999</ele><time>2026-04-12T13:07:18.999Z</time></trkpt><trkpt lat="42.81396170373407" lon="11.526721588053807"><ele>1015.3999999999999</ele><time>2026-04-12T13:07:20.999Z</time></trkpt><trkpt lat="42.81388244753453" lon="11.52663721371565"><ele>1012.6</ele><time>2026-04-12T13:07:22.999Z</time></trkpt><trkpt lat="42.813795800931814" lon="11.526552984293444"><ele>1009.8</ele><time>2026-04-12T13:07:24.999Z</time></trkpt><trkpt lat="42.81370942553636" lon="11.526467546427378"><ele>1007.0</ele><time>2026-04-12T13:07:26.999Z</time></trkpt><trkpt lat="42.81362418698494" lon="11.526377965166006"><ele>1007.0</ele><time>2026-04-12T13:07:28.999Z</time></trkpt><trkpt lat="42.813533846478" lon="11.526294887133671"><ele>1007.0</ele><time>2026-04-12T13:07:31Z</time></trkpt><trkpt lat="42.813437369627366" lon="11.5262193953782"><ele>1007.0</ele><time>2026-04-12T13:07:33Z</time></trkpt><trkpt lat="42.813345558189255" lon="11.52613873567877"><ele>1007.0</ele><time>2026-04-12T13:07:35Z</time></trkpt><trkpt lat="42.81326214613365" lon="11.526049360692125"><ele>1007.0</ele><time>2026-04-12T13:07:37Z</time></trkpt><trkpt lat="42.81317483332942" lon="11.525957725770073"><ele>1004.0</ele><time>2026-04-12T13:07:39Z</time></trkpt><trkpt lat="42.81308721046311" lon="11.52587232243992"><ele>1001.0</ele><time>2026-04-12T13:07:41Z</time></trkpt><trkpt lat="42.813001253462524" lon="11.525800776173154"><ele>998.0</ele><time>2026-04-12T13:07:43Z</time></trkpt><trkpt lat="42.812919433995596" lon="11.525731309829805"><ele>995.0</ele><time>2026-04-12T13:07:45Z</time></trkpt><trkpt lat="42.812830211602034" lon="11.525643374900122"><ele>992.0</ele><time>2026-04-12T13:07:47Z</time></trkpt><trkpt lat="42.81273907281135" lon="11.52555785528389"><ele>992.0000000000001</ele><time>2026-04-12T13:07:49.001Z</time></trkpt><trkpt lat="42.812663389429986" lon="11.525477388446008"><ele>992.0</ele><time>2026-04-12T13:07:51.001Z</time></trkpt><trkpt lat="42.81259287006674" lon="11.525421563623071"><ele>992.0</ele><time>2026-04-12T13:07:53.001Z</time></trkpt><trkpt lat="42.81250745222458" lon="11.525413626218228"><ele>992.0</ele><time>2026-04-12T13:07:55.001Z</time></trkpt><trkpt lat="42.81243851916008" lon="11.525436931247736"><ele>992.0000000000001</ele><time>2026-04-12T13:07:57.001Z</time></trkpt><trkpt lat="42.81236637413582" lon="11.525469832526287"><ele>992.0</ele><time>2026-04-12T13:07:59.001Z</time></trkpt><trkpt lat="42.81227995934416" lon="11.525480429249964"><ele>991.0</ele><time>2026-04-12T13:08:01.001Z</time></trkpt><trkpt lat="42.81219331518743" lon="11.52548202772616"><ele>990.0</ele><time>2026-04-12T13:08:03.001Z</time></trkpt><trkpt lat="42.81210609922178" lon="11.52548839333025"><ele>989.0</ele><time>2026-04-12T13:08:05.001Z</time></trkpt><trkpt lat="42.812015914249066" lon="11.525510116265554"><ele>988.0</ele><time>2026-04-12T13:08:07.001Z</time></trkpt><trkpt lat="42.81192510334246" lon="11.525530971756108"><ele>987.0</ele><time>2026-04-12T13:08:09.001Z</time></trkpt><trkpt lat="42.81183116434048" lon="11.525548573816925"><ele>983.6</ele><time>2026-04-12T13:08:11.001Z</time></trkpt><trkpt lat="42.81173074702356" lon="11.525561929000256"><ele>980.2</ele><time>2026-04-12T13:08:13.001Z</time></trkpt><trkpt lat="42.81163111214099" lon="11.525579600494632"><ele>976.8</ele><time>2026-04-12T13:08:15.001Z</time></trkpt><trkpt lat="42.8115441122112" lon="11.525598777531417"><ele>973.4</ele><time>2026-04-12T13:08:17.002Z</time></trkpt><trkpt lat="42.81145074431119" lon="11.525615159393869"><ele>970.0</ele><time>2026-04-12T13:08:19.002Z</time></trkpt><trkpt lat="42.81136524872655" lon="11.52563495167615"><ele>970.0</ele><time>2026-04-12T13:08:21.002Z</time></trkpt><trkpt lat="42.81128020259913" lon="11.525663375461926"><ele>970.0</ele><time>2026-04-12T13:08:23.002Z</time></trkpt><trkpt lat="42.8111872387553" lon="11.525684513760545"><ele>970.0</ele><time>2026-04-12T13:08:25.002Z</time></trkpt><trkpt lat="42.8111013043427" lon="11.52570797940599"><ele>970.0</ele><time>2026-04-12T13:08:27.002Z</time></trkpt><trkpt lat="42.811007305925564" lon="11.52572168633239"><ele>970.0</ele><time>2026-04-12T13:08:29.002Z</time></trkpt><trkpt lat="42.81091559329632" lon="11.525735188790588"><ele>967.6</ele><time>2026-04-12T13:08:31.002Z</time></trkpt><trkpt lat="42.81081564255306" lon="11.525754686987378"><ele>965.2</ele><time>2026-04-12T13:08:33.002Z</time></trkpt><trkpt lat="42.810709922735896" lon="11.525774131588815"><ele>962.8</ele><time>2026-04-12T13:08:35.002Z</time></trkpt><trkpt lat="42.81061146116999" lon="11.525795786179918"><ele>960.4</ele><time>2026-04-12T13:08:37.002Z</time></trkpt><trkpt lat="42.810509363846094" lon="11.525811729404051"><ele>958.0</ele><time>2026-04-12T13:08:39.002Z</time></trkpt><trkpt lat="42.81041454496631" lon="11.525830478681327"><ele>958.0</ele><time>2026-04-12T13:08:41.002Z</time></trkpt><trkpt lat="42.810315678667386" lon="11.525855841237313"><ele>958.0</ele><time>2026-04-12T13:08:43.002Z</time></trkpt><trkpt lat="42.810213756568494" lon="11.525872226896608"><ele>958.0</ele><time>2026-04-12T13:08:45.002Z</time></trkpt><trkpt lat="42.81011152275043" lon="11.525893335322838"><ele>958.0</ele><time>2026-04-12T13:08:47.002Z</time></trkpt><trkpt lat="42.81001568217137" lon="11.525912173076042"><ele>958.0</ele><time>2026-04-12T13:08:49.003Z</time></trkpt><trkpt lat="42.80990909338113" lon="11.525929290875817"><ele>955.5999999999999</ele><time>2026-04-12T13:08:51.003Z</time></trkpt><trkpt lat="42.80980535061089" lon="11.52594295160341"><ele>953.1999999999999</ele><time>2026-04-12T13:08:53.003Z</time></trkpt><trkpt lat="42.80971004419777" lon="11.525967520122778"><ele>950.8</ele><time>2026-04-12T13:08:55.003Z</time></trkpt><trkpt lat="42.8096162044809" lon="11.52598660337402"><ele>948.4</ele><time>2026-04-12T13:08:57.003Z</time></trkpt><trkpt lat="42.80952088489293" lon="11.525997572806157"><ele>946.0</ele><time>2026-04-12T13:08:59.003Z</time></trkpt><trkpt lat="42.809423805061996" lon="11.526007608353154"><ele>945.9999999999999</ele><time>2026-04-12T13:09:01.003Z</time></trkpt><trkpt lat="42.80933263089284" lon="11.526025923909504"><ele>946.0</ele><time>2026-04-12T13:09:03.003Z</time></trkpt><trkpt lat="42.809242401398244" lon="11.526046706426854"><ele>946.0</ele><time>2026-04-12T13:09:05.003Z</time></trkpt><trkpt lat="42.80915726502803" lon="11.526073034889947"><ele>946.0</ele><time>2026-04-12T13:09:07.003Z</time></trkpt><trkpt lat="42.80907458748682" lon="11.526081738012916"><ele>945.9999999999999</ele><time>2026-04-12T13:09:09.003Z</time></trkpt><trkpt lat="42.809001056755754" lon="11.526088450650485"><ele>946.0</ele><time>2026-04-12T13:09:11.003Z</time></trkpt><trkpt lat="42.80892314584129" lon="11.526105988421202"><ele>944.7142857142858</ele><time>2026-04-12T13:09:13.003Z</time></trkpt><trkpt lat="42.80885148883694" lon="11.526113753122086"><ele>943.4285714285713</ele><time>2026-04-12T13:09:15.003Z</time></trkpt><trkpt lat="42.808787794783726" lon="11.526129195044481"><ele>942.1428571428571</ele><time>2026-04-12T13:09:16.999Z</time></trkpt><trkpt lat="42.80871832236901" lon="11.526129708831794"><ele>940.8571428571429</ele><time>2026-04-12T13:09:18.999Z</time></trkpt><trkpt lat="42.808627329318945" lon="11.52609752486699"><ele>939.5714285714287</ele><time>2026-04-12T13:09:21.999Z</time></trkpt><trkpt lat="42.808557004852226" lon="11.526063331553468"><ele>938.2857142857142</ele><time>2026-04-12T13:09:24.999Z</time></trkpt><trkpt lat="42.808497536876885" lon="11.526006286269851"><ele>937.0</ele><time>2026-04-12T13:09:28Z</time></trkpt><trkpt lat="42.808450498686334" lon="11.525940173430767"><ele>935.3333333333333</ele><time>2026-04-12T13:09:31Z</time></trkpt><trkpt lat="42.80840100953494" lon="11.525852530864345"><ele>933.6666666666666</ele><time>2026-04-12T13:09:34Z</time></trkpt><trkpt lat="42.80834891524999" lon="11.525770368659254"><ele>932.0</ele><time>2026-04-12T13:09:37Z</time></trkpt><trkpt lat="42.808280073866335" lon="11.52571619995674"><ele>930.3333333333333</ele><time>2026-04-12T13:09:40Z</time></trkpt><trkpt lat="42.80820864365518" lon="11.525671905763673"><ele>928.6666666666666</ele><time>2026-04-12T13:09:43Z</time></trkpt><trkpt lat="42.80812097219157" lon="11.52567760120128"><ele>927.0</ele><time>2026-04-12T13:09:46Z</time></trkpt><trkpt lat="42.808047007318535" lon="11.525725511091068"><ele>926.9999999999999</ele><time>2026-04-12T13:09:49Z</time></trkpt><trkpt lat="42.80799697281232" lon="11.525779185815846"><ele>927.0</ele><time>2026-04-12T13:10:19.001Z</time></trkpt><trkpt lat="42.80793839718037" lon="11.525818347242437"><ele>926.9999999999999</ele><time>2026-04-12T13:10:23.001Z</time></trkpt><trkpt lat="42.807888380324" lon="11.52587990088047"><ele>926.9999999999999</ele><time>2026-04-12T13:10:27.002Z</time></trkpt><trkpt lat="42.80783246112282" lon="11.525942840565772"><ele>927.0</ele><time>2026-04-12T13:10:31.002Z</time></trkpt><trkpt lat="42.80776901933997" lon="11.526009547499932"><ele>926.9999999999999</ele><time>2026-04-12T13:10:35.002Z</time></trkpt><trkpt lat="42.807695223095266" lon="11.526077003046574"><ele>926.9999999999999</ele><time>2026-04-12T13:10:39.002Z</time></trkpt><trkpt lat="42.8076304094725" lon="11.52613742414433"><ele>925.8333333333334</ele><time>2026-04-12T13:10:42.002Z</time></trkpt><trkpt lat="42.807567456665986" lon="11.526202391765048"><ele>924.6666666666667</ele><time>2026-04-12T13:10:45.002Z</time></trkpt><trkpt lat="42.80750386179116" lon="11.526269300242674"><ele>923.5</ele><time>2026-04-12T13:10:48.002Z</time></trkpt><trkpt lat="42.80744135532858" lon="11.526327318990367"><ele>922.3333333333334</ele><time>2026-04-12T13:10:51.002Z</time></trkpt><trkpt lat="42.80736816325691" lon="11.526384982941158"><ele>921.1666666666667</ele><time>2026-04-12T13:10:54.002Z</time></trkpt><trkpt lat="42.80731640081403" lon="11.52644367820516"><ele>920.0</ele><time>2026-04-12T13:10:56.002Z</time></trkpt><trkpt lat="42.807243414828875" lon="11.526510253075292"><ele>919.9999999999999</ele><time>2026-04-12T13:10:59.003Z</time></trkpt><trkpt lat="42.80719070092136" lon="11.526574217375192"><ele>920.0</ele><time>2026-04-12T13:11:01.003Z</time></trkpt><trkpt lat="42.807135070254375" lon="11.526624713505337"><ele>919.9999999999999</ele><time>2026-04-12T13:11:03.003Z</time></trkpt><trkpt lat="42.807081052382514" lon="11.526677505606816"><ele>919.9999999999999</ele><time>2026-04-12T13:11:05.003Z</time></trkpt><trkpt lat="42.80699681885194" lon="11.52672474481422"><ele>920.0</ele><time>2026-04-12T13:11:08.003Z</time></trkpt><trkpt lat="42.806932213805325" lon="11.526741870413845"><ele>919.9999999999999</ele><time>2026-04-12T13:11:10.003Z</time></trkpt><trkpt lat="42.806854721254" lon="11.526743941558566"><ele>919.9999999999999</ele><time>2026-04-12T13:11:13.003Z</time></trkpt><trkpt lat="42.80676046585327" lon="11.526741425963642"><ele>917.2</ele><time>2026-04-12T13:12:13.001Z</time></trkpt><trkpt lat="42.806686025520094" lon="11.526728741058552"><ele>914.4</ele><time>2026-04-12T13:12:15.001Z</time></trkpt><trkpt lat="42.80660122666405" lon="11.526713847840405"><ele>911.5999999999999</ele><time>2026-04-12T13:12:17.001Z</time></trkpt><trkpt lat="42.80650656711949" lon="11.526703806346147"><ele>908.8</ele><time>2026-04-12T13:12:19.001Z</time></trkpt><trkpt lat="42.8064086045887" lon="11.52670011816312"><ele>906.0</ele><time>2026-04-12T13:12:21.001Z</time></trkpt><trkpt lat="42.80629321734787" lon="11.526693732678437"><ele>906.0</ele><time>2026-04-12T13:12:23.001Z</time></trkpt><trkpt lat="42.80618180786182" lon="11.526683972840583"><ele>905.9999999999999</ele><time>2026-04-12T13:12:25.001Z</time></trkpt><trkpt lat="42.8060677596195" lon="11.526679787584236"><ele>905.9999999999999</ele><time>2026-04-12T13:12:27.001Z</time></trkpt><trkpt lat="42.80596624641019" lon="11.526676786533914"><ele>906.0</ele><time>2026-04-12T13:12:29.001Z</time></trkpt><trkpt lat="42.80585816471065" lon="11.526685457073393"><ele>906.0</ele><time>2026-04-12T13:12:31.002Z</time></trkpt><trkpt lat="42.805758825757174" lon="11.526691492638328"><ele>903.8</ele><time>2026-04-12T13:12:33.002Z</time></trkpt><trkpt lat="42.80565229571186" lon="11.52669270995147"><ele>901.5999999999999</ele><time>2026-04-12T13:12:35.002Z</time></trkpt><trkpt lat="42.805542576606285" lon="11.526697658011797"><ele>899.4</ele><time>2026-04-12T13:12:37.002Z</time></trkpt><trkpt lat="42.805446448270494" lon="11.52669561794561"><ele>897.2</ele><time>2026-04-12T13:12:39.002Z</time></trkpt><trkpt lat="42.80534962452383" lon="11.526669454005518"><ele>895.0</ele><time>2026-04-12T13:12:41.002Z</time></trkpt><trkpt lat="42.805255192746806" lon="11.526628600654142"><ele>893.2</ele><time>2026-04-12T13:12:43.002Z</time></trkpt><trkpt lat="42.80515768777334" lon="11.526582253087183"><ele>891.4</ele><time>2026-04-12T13:12:45.002Z</time></trkpt><trkpt lat="42.80505835187218" lon="11.526551825633124"><ele>889.5999999999999</ele><time>2026-04-12T13:12:47.002Z</time></trkpt><trkpt lat="42.80496927778864" lon="11.52651431572149"><ele>887.8</ele><time>2026-04-12T13:12:49.002Z</time></trkpt><trkpt lat="42.80487757985588" lon="11.52645115606324"><ele>886.0</ele><time>2026-04-12T13:12:51.002Z</time></trkpt><trkpt lat="42.80479131695199" lon="11.526380675232714"><ele>885.9999999999999</ele><time>2026-04-12T13:12:53.002Z</time></trkpt><trkpt lat="42.804704767814165" lon="11.526305461671038"><ele>886.0</ele><time>2026-04-12T13:12:55.002Z</time></trkpt><trkpt lat="42.80462942949159" lon="11.52625011380894"><ele>886.0</ele><time>2026-04-12T13:12:57.002Z</time></trkpt><trkpt lat="42.80456884302524" lon="11.526215814524356"><ele>886.0</ele><time>2026-04-12T13:12:59.002Z</time></trkpt><trkpt lat="42.80450764237135" lon="11.526181850752396"><ele>885.9999999999999</ele><time>2026-04-12T13:13:01.002Z</time></trkpt><trkpt lat="42.80442619711092" lon="11.52614647204235"><ele>886.0</ele><time>2026-04-12T13:13:03.003Z</time></trkpt><trkpt lat="42.8043414692557" lon="11.526097667793191"><ele>884.0</ele><time>2026-04-12T13:13:05.003Z</time></trkpt><trkpt lat="42.804244962782775" lon="11.526052524042573"><ele>881.9999999999999</ele><time>2026-04-12T13:13:07.003Z</time></trkpt><trkpt lat="42.80415461936371" lon="11.52605114065665"><ele>879.9999999999999</ele><time>2026-04-12T13:13:09.003Z</time></trkpt><trkpt lat="42.804072436177215" lon="11.526072996791314"><ele>878.0</ele><time>2026-04-12T13:13:11.003Z</time></trkpt><trkpt lat="42.80398103576607" lon="11.52607482467823"><ele>876.0</ele><time>2026-04-12T13:13:13.003Z</time></trkpt><trkpt lat="42.80388518827006" lon="11.526065258532675"><ele>876.0</ele><time>2026-04-12T13:13:15.003Z</time></trkpt><trkpt lat="42.80379332706662" lon="11.52605534510614"><ele>875.9999999999999</ele><time>2026-04-12T13:13:17.003Z</time></trkpt><trkpt lat="42.80369551455298" lon="11.526038125685124"><ele>875.9999999999999</ele><time>2026-04-12T13:13:19.003Z</time></trkpt><trkpt lat="42.80359838308658" lon="11.526030541450483"><ele>876.0</ele><time>2026-04-12T13:13:21.003Z</time></trkpt><trkpt lat="42.80350724162466" lon="11.5260226618299"><ele>876.0</ele><time>2026-04-12T13:13:23.003Z</time></trkpt><trkpt lat="42.80341754440753" lon="11.525995597658829"><ele>875.4</ele><time>2026-04-12T13:13:25.003Z</time></trkpt><trkpt lat="42.80332378299097" lon="11.52595529452922"><ele>874.8</ele><time>2026-04-12T13:13:27.003Z</time></trkpt><trkpt lat="42.803226257053176" lon="11.525911821363719"><ele>874.1999999999999</ele><time>2026-04-12T13:13:28.999Z</time></trkpt><trkpt lat="42.80313450292294" lon="11.525851243633975"><ele>873.5999999999999</ele><time>2026-04-12T13:13:30.999Z</time></trkpt><trkpt lat="42.803041377564554" lon="11.525816485400707"><ele>873.0</ele><time>2026-04-12T13:13:32.999Z</time></trkpt><trkpt lat="42.80295454463212" lon="11.525782869032994"><ele>873.0</ele><time>2026-04-12T13:13:34.999Z</time></trkpt><trkpt lat="42.802863032747894" lon="11.525748593623252"><ele>873.0</ele><time>2026-04-12T13:13:37Z</time></trkpt><trkpt lat="42.80277405687782" lon="11.525720374756338"><ele>873.0</ele><time>2026-04-12T13:13:39Z</time></trkpt><trkpt lat="42.8026841134578" lon="11.525679011108608"><ele>873.0</ele><time>2026-04-12T13:13:41Z</time></trkpt><trkpt lat="42.80259492194135" lon="11.525643847403995"><ele>873.0</ele><time>2026-04-12T13:13:43Z</time></trkpt><trkpt lat="42.80251092251273" lon="11.525609721242057"><ele>871.4</ele><time>2026-04-12T13:13:45Z</time></trkpt><trkpt lat="42.802422483199" lon="11.525588752079653"><ele>869.8</ele><time>2026-04-12T13:13:47Z</time></trkpt><trkpt lat="42.802326322933915" lon="11.525577734204038"><ele>868.2</ele><time>2026-04-12T13:13:49Z</time></trkpt><trkpt lat="42.80222504005864" lon="11.52558284579035"><ele>866.6</ele><time>2026-04-12T13:13:51Z</time></trkpt><trkpt lat="42.802120124434985" lon="11.52559593467106"><ele>865.0</ele><time>2026-04-12T13:13:53Z</time></trkpt><trkpt lat="42.80201685228367" lon="11.52560899149338"><ele>865.0</ele><time>2026-04-12T13:13:55Z</time></trkpt><trkpt lat="42.80189320096908" lon="11.525635819846807"><ele>865.0</ele><time>2026-04-12T13:13:57Z</time></trkpt><trkpt lat="42.80177834856371" lon="11.525660125223967"><ele>865.0</ele><time>2026-04-12T13:13:59Z</time></trkpt><trkpt lat="42.80167403260368" lon="11.525676427565314"><ele>865.0</ele><time>2026-04-12T13:14:01Z</time></trkpt><trkpt lat="42.801569680326786" lon="11.525697299208131"><ele>864.4999999999999</ele><time>2026-04-12T13:14:03.001Z</time></trkpt><trkpt lat="42.80145495474495" lon="11.525724133334036"><ele>864.0</ele><time>2026-04-12T13:14:05.001Z</time></trkpt><trkpt lat="42.801336332159636" lon="11.525752364635776"><ele>863.5</ele><time>2026-04-12T13:14:07.001Z</time></trkpt><trkpt lat="42.80127215128882" lon="11.525774082808491"><ele>863.0</ele><time>2026-04-12T13:14:08.001Z</time></trkpt><trkpt lat="42.80120322699345" lon="11.525785001485993"><ele>862.4999999999999</ele><time>2026-04-12T13:14:09.001Z</time></trkpt><trkpt lat="42.801134740881075" lon="11.52579377003522"><ele>862.0</ele><time>2026-04-12T13:14:10.001Z</time></trkpt><trkpt lat="42.80106777616354" lon="11.525797627370682"><ele>861.6666666666666</ele><time>2026-04-12T13:14:11.001Z</time></trkpt><trkpt lat="42.800999162500275" lon="11.525801467879303"><ele>861.3333333333333</ele><time>2026-04-12T13:14:12.001Z</time></trkpt><trkpt lat="42.800881132696034" lon="11.525801995912976"><ele>861.0</ele><time>2026-04-12T13:14:14.001Z</time></trkpt><trkpt lat="42.80076761458845" lon="11.52579827597773"><ele>860.6666666666667</ele><time>2026-04-12T13:14:16.001Z</time></trkpt><trkpt lat="42.800703950111" lon="11.525799353103002"><ele>860.3333333333334</ele><time>2026-04-12T13:14:17.001Z</time></trkpt><trkpt lat="42.80063655205961" lon="11.525805527447236"><ele>860.0</ele><time>2026-04-12T13:14:18.001Z</time></trkpt><trkpt lat="42.800519673626624" lon="11.52583285498558"><ele>860.0</ele><time>2026-04-12T13:14:20.001Z</time></trkpt><trkpt lat="42.800413063443166" lon="11.52584648170803"><ele>860.0</ele><time>2026-04-12T13:14:22.001Z</time></trkpt><trkpt lat="42.80030703547048" lon="11.525842449736212"><ele>860.0</ele><time>2026-04-12T13:14:24.001Z</time></trkpt><trkpt lat="42.80019039431238" lon="11.525838436846552"><ele>860.0</ele><time>2026-04-12T13:14:26.001Z</time></trkpt><trkpt lat="42.80007011658137" lon="11.525812714798437"><ele>858.8</ele><time>2026-04-12T13:14:28.001Z</time></trkpt><trkpt lat="42.79996564985654" lon="11.525775654241565"><ele>857.6</ele><time>2026-04-12T13:14:30.001Z</time></trkpt><trkpt lat="42.79987488364477" lon="11.525701214349375"><ele>856.4000000000001</ele><time>2026-04-12T13:14:32.002Z</time></trkpt><trkpt lat="42.79979041197254" lon="11.525597004256586"><ele>855.2</ele><time>2026-04-12T13:14:34.002Z</time></trkpt><trkpt lat="42.799710343389684" lon="11.525489843933375"><ele>854.0</ele><time>2026-04-12T13:14:36.002Z</time></trkpt><trkpt lat="42.799636027285814" lon="11.52537293417649"><ele>854.0</ele><time>2026-04-12T13:14:38.002Z</time></trkpt><trkpt lat="42.79956393428718" lon="11.525257433301379"><ele>854.0000000000001</ele><time>2026-04-12T13:14:40.002Z</time></trkpt><trkpt lat="42.79948920081208" lon="11.525148498095698"><ele>854.0000000000001</ele><time>2026-04-12T13:14:42.002Z</time></trkpt><trkpt lat="42.7993982144359" lon="11.525061554692172"><ele>854.0</ele><time>2026-04-12T13:14:44.002Z</time></trkpt><trkpt lat="42.79930646537617" lon="11.524987890196465"><ele>854.0</ele><time>2026-04-12T13:14:46.002Z</time></trkpt><trkpt lat="42.7992170513674" lon="11.524954761402736"><ele>851.3333333333334</ele><time>2026-04-12T13:14:48.002Z</time></trkpt><trkpt lat="42.79914967631516" lon="11.524966440083487"><ele>848.6666666666667</ele><time>2026-04-12T13:14:50.002Z</time></trkpt><trkpt lat="42.79906595559136" lon="11.525022087053213"><ele>846.0</ele><time>2026-04-12T13:14:53.002Z</time></trkpt><trkpt lat="42.799013004270954" lon="11.525076979713411"><ele>843.3333333333333</ele><time>2026-04-12T13:14:55.002Z</time></trkpt><trkpt lat="42.79896347524072" lon="11.52514619245086"><ele>840.6666666666666</ele><time>2026-04-12T13:14:57.002Z</time></trkpt><trkpt lat="42.79889423822346" lon="11.525229353770102"><ele>838.0</ele><time>2026-04-12T13:15:00.002Z</time></trkpt><trkpt lat="42.79884143785491" lon="11.525280088534723"><ele>837.9999999999999</ele><time>2026-04-12T13:15:02.002Z</time></trkpt><trkpt lat="42.798788601532884" lon="11.525337069127247"><ele>838.0</ele><time>2026-04-12T13:15:04.003Z</time></trkpt><trkpt lat="42.79873001511751" lon="11.525405292649054"><ele>838.0</ele><time>2026-04-12T13:15:06.003Z</time></trkpt><trkpt lat="42.79866518583686" lon="11.525477316732921"><ele>838.0</ele><time>2026-04-12T13:15:08.003Z</time></trkpt><trkpt lat="42.798593821395" lon="11.52555457970247"><ele>837.9999999999999</ele><time>2026-04-12T13:15:10.003Z</time></trkpt><trkpt lat="42.79851754061073" lon="11.525640466569337"><ele>838.0</ele><time>2026-04-12T13:15:12.003Z</time></trkpt><trkpt lat="42.79844259308132" lon="11.525722000546404"><ele>836.4285714285713</ele><time>2026-04-12T13:15:14.003Z</time></trkpt><trkpt lat="42.79839121575321" lon="11.525776156482658"><ele>834.8571428571429</ele><time>2026-04-12T13:15:16.003Z</time></trkpt><trkpt lat="42.798335782466545" lon="11.5258223588662"><ele>833.2857142857142</ele><time>2026-04-12T13:15:18.003Z</time></trkpt><trkpt lat="42.7982749570721" lon="11.525859158009075"><ele>831.7142857142857</ele><time>2026-04-12T13:15:20.003Z</time></trkpt><trkpt lat="42.79818983711311" lon="11.525904647790012"><ele>830.1428571428571</ele><time>2026-04-12T13:15:23.003Z</time></trkpt><trkpt lat="42.79811966830911" lon="11.525925771681887"><ele>828.5714285714286</ele><time>2026-04-12T13:15:25.003Z</time></trkpt><trkpt lat="42.79804153374929" lon="11.525947961760094"><ele>827.0</ele><time>2026-04-12T13:15:27.003Z</time></trkpt><trkpt lat="42.79797770266092" lon="11.525959479298667"><ele>827.0000000000001</ele><time>2026-04-12T13:15:29.003Z</time></trkpt><trkpt lat="42.797911320292116" lon="11.525971683204062"><ele>827.0</ele><time>2026-04-12T13:15:31.003Z</time></trkpt><trkpt lat="42.79784438513501" lon="11.52598686963996"><ele>827.0</ele><time>2026-04-12T13:15:33.003Z</time></trkpt><trkpt lat="42.797775405186385" lon="11.52597447906121"><ele>827.0</ele><time>2026-04-12T13:15:34.999Z</time></trkpt><trkpt lat="42.79770541803069" lon="11.525939414189867"><ele>827.0000000000001</ele><time>2026-04-12T13:15:36.999Z</time></trkpt><trkpt lat="42.79762127250608" lon="11.525875704371728"><ele>827.0</ele><time>2026-04-12T13:15:38.999Z</time></trkpt><trkpt lat="42.79752467259546" lon="11.525826651367698"><ele>824.2</ele><time>2026-04-12T13:15:40.999Z</time></trkpt><trkpt lat="42.79741991759131" lon="11.525783221945959"><ele>821.4000000000001</ele><time>2026-04-12T13:15:42.999Z</time></trkpt><trkpt lat="42.79731706559973" lon="11.525770079013176"><ele>818.5999999999999</ele><time>2026-04-12T13:15:44.999Z</time></trkpt><trkpt lat="42.797219693512616" lon="11.52577491200668"><ele>815.8</ele><time>2026-04-12T13:15:46.999Z</time></trkpt><trkpt lat="42.79712385249004" lon="11.52581621350734"><ele>813.0</ele><time>2026-04-12T13:15:48.999Z</time></trkpt><trkpt lat="42.79704856472291" lon="11.525832077856052"><ele>813.0</ele><time>2026-04-12T13:15:51Z</time></trkpt><trkpt lat="42.79696650768078" lon="11.5258150965477"><ele>813.0</ele><time>2026-04-12T13:15:53Z</time></trkpt><trkpt lat="42.796895906067974" lon="11.525775476041698"><ele>813.0</ele><time>2026-04-12T13:15:55Z</time></trkpt><trkpt lat="42.79681597121654" lon="11.525745414010132"><ele>813.0</ele><time>2026-04-12T13:15:57Z</time></trkpt><trkpt lat="42.79673454091356" lon="11.525723253314617"><ele>813.0</ele><time>2026-04-12T13:15:59Z</time></trkpt><trkpt lat="42.7966535595912" lon="11.525702536301756"><ele>813.0</ele><time>2026-04-12T13:16:01Z</time></trkpt><trkpt lat="42.79656934425994" lon="11.52569400168535"><ele>812.3333333333334</ele><time>2026-04-12T13:16:03Z</time></trkpt><trkpt lat="42.79647797363106" lon="11.525704235734572"><ele>811.6666666666667</ele><time>2026-04-12T13:16:05Z</time></trkpt><trkpt lat="42.79639448234938" lon="11.525721589139902"><ele>811.0</ele><time>2026-04-12T13:16:07Z</time></trkpt><trkpt lat="42.79630994356947" lon="11.525733713979252"><ele>810.3333333333334</ele><time>2026-04-12T13:16:09Z</time></trkpt><trkpt lat="42.79623020747409" lon="11.525755839190564"><ele>809.6666666666667</ele><time>2026-04-12T13:16:11.001Z</time></trkpt><trkpt lat="42.79615211696767" lon="11.525788295385906"><ele>809.0</ele><time>2026-04-12T13:16:13.001Z</time></trkpt><trkpt lat="42.796078579869636" lon="11.525825210436095"><ele>809.0</ele><time>2026-04-12T13:16:15.001Z</time></trkpt><trkpt lat="42.79600449944459" lon="11.525845341977206"><ele>809.0</ele><time>2026-04-12T13:16:17.001Z</time></trkpt><trkpt lat="42.79592229652736" lon="11.525851412129464"><ele>809.0</ele><time>2026-04-12T13:16:19.001Z</time></trkpt><trkpt lat="42.795834158852855" lon="11.52586259675214"><ele>809.0</ele><time>2026-04-12T13:16:21.001Z</time></trkpt><trkpt lat="42.79573455678864" lon="11.525878225558904"><ele>809.0</ele><time>2026-04-12T13:16:23.001Z</time></trkpt><trkpt lat="42.79562886011447" lon="11.525890352710464"><ele>806.8000000000001</ele><time>2026-04-12T13:16:25.001Z</time></trkpt><trkpt lat="42.79552255536327" lon="11.525903493397676"><ele>804.6</ele><time>2026-04-12T13:16:27.001Z</time></trkpt><trkpt lat="42.79542359932468" lon="11.525919234889978"><ele>802.4</ele><time>2026-04-12T13:16:29.001Z</time></trkpt><trkpt lat="42.79531808798155" lon="11.525918203477904"><ele>800.2</ele><time>2026-04-12T13:16:31.001Z</time></trkpt><trkpt lat="42.79522874588307" lon="11.525902595507205"><ele>798.0</ele><time>2026-04-12T13:16:33.001Z</time></trkpt><trkpt lat="42.795152181158166" lon="11.525876225283408"><ele>796.8571428571429</ele><time>2026-04-12T13:16:35.001Z</time></trkpt><trkpt lat="42.79509129763181" lon="11.525828731859194"><ele>795.7142857142858</ele><time>2026-04-12T13:16:37.001Z</time></trkpt><trkpt lat="42.79503441963137" lon="11.5257685935332"><ele>794.5714285714286</ele><time>2026-04-12T13:16:39.002Z</time></trkpt><trkpt lat="42.79500729853983" lon="11.525685635207859"><ele>793.4285714285714</ele><time>2026-04-12T13:16:41.002Z</time></trkpt><trkpt lat="42.794981230088524" lon="11.525594034594455"><ele>792.2857142857143</ele><time>2026-04-12T13:16:43.002Z</time></trkpt><trkpt lat="42.79496282985863" lon="11.52549352066788"><ele>791.1428571428571</ele><time>2026-04-12T13:16:45.002Z</time></trkpt><trkpt lat="42.794976558462515" lon="11.52537862552487"><ele>790.0</ele><time>2026-04-12T13:16:47.002Z</time></trkpt><trkpt lat="42.79498741696286" lon="11.525268889223536"><ele>788.6666666666666</ele><time>2026-04-12T13:16:49.002Z</time></trkpt><trkpt lat="42.79498812809892" lon="11.525148941383357"><ele>787.3333333333333</ele><time>2026-04-12T13:16:51.002Z</time></trkpt><trkpt lat="42.79499199130056" lon="11.525041093761269"><ele>786.0</ele><time>2026-04-12T13:16:53.002Z</time></trkpt><trkpt lat="42.79500545234059" lon="11.524928791667575"><ele>784.6666666666667</ele><time>2026-04-12T13:16:55.002Z</time></trkpt><trkpt lat="42.79503884872048" lon="11.524826788370289"><ele>783.3333333333334</ele><time>2026-04-12T13:16:57.002Z</time></trkpt><trkpt lat="42.795090618318625" lon="11.524747278522936"><ele>782.0</ele><time>2026-04-12T13:16:59.002Z</time></trkpt><trkpt lat="42.79514956594342" lon="11.524689548989851"><ele>783.4285714285713</ele><time>2026-04-12T13:17:01.002Z</time></trkpt><trkpt lat="42.79521705820845" lon="11.52465920820281"><ele>784.8571428571429</ele><time>2026-04-12T13:17:03.002Z</time></trkpt><trkpt lat="42.79528176175112" lon="11.524644011279232"><ele>786.2857142857142</ele><time>2026-04-12T13:17:05.002Z</time></trkpt><trkpt lat="42.79535327893304" lon="11.524640258472187"><ele>787.7142857142857</ele><time>2026-04-12T13:17:07.002Z</time></trkpt><trkpt lat="42.79542859749217" lon="11.524640342693532"><ele>789.1428571428571</ele><time>2026-04-12T13:17:09.002Z</time></trkpt><trkpt lat="42.79550367861542" lon="11.524634179193743"><ele>790.5714285714286</ele><time>2026-04-12T13:17:11.003Z</time></trkpt><trkpt lat="42.7955884805271" lon="11.52461823360233"><ele>792.0</ele><time>2026-04-12T13:17:13.003Z</time></trkpt><trkpt lat="42.795692674262085" lon="11.524592432131332"><ele>791.0</ele><time>2026-04-12T13:17:15.003Z</time></trkpt><trkpt lat="42.79579388196105" lon="11.524541229364432"><ele>790.0</ele><time>2026-04-12T13:17:17.003Z</time></trkpt><trkpt lat="42.79588714581918" lon="11.524474158457247"><ele>789.0</ele><time>2026-04-12T13:17:19.003Z</time></trkpt><trkpt lat="42.795969773357655" lon="11.524379970884013"><ele>788.0</ele><time>2026-04-12T13:17:21.003Z</time></trkpt><trkpt lat="42.796033693740554" lon="11.524294343811668"><ele>787.0</ele><time>2026-04-12T13:17:23.003Z</time></trkpt><trkpt lat="42.79608878645346" lon="11.52419478327739"><ele>787.0</ele><time>2026-04-12T13:17:25.003Z</time></trkpt><trkpt lat="42.796138337129044" lon="11.524067979216367"><ele>787.0</ele><time>2026-04-12T13:17:27.003Z</time></trkpt><trkpt lat="42.796176261042255" lon="11.523935560201"><ele>787.0</ele><time>2026-04-12T13:17:29.003Z</time></trkpt><trkpt lat="42.79619374213676" lon="11.523789199486108"><ele>787.0</ele><time>2026-04-12T13:17:31.003Z</time></trkpt><trkpt lat="42.79618923903948" lon="11.523644385953046"><ele>787.0</ele><time>2026-04-12T13:17:33.003Z</time></trkpt><trkpt lat="42.79616999735576" lon="11.52350530751138"><ele>786.6</ele><time>2026-04-12T13:17:35.003Z</time></trkpt><trkpt lat="42.796140631279336" lon="11.52337391813042"><ele>786.2</ele><time>2026-04-12T13:17:37.003Z</time></trkpt><trkpt lat="42.79613072801473" lon="11.523238478328677"><ele>785.8</ele><time>2026-04-12T13:17:39.003Z</time></trkpt><trkpt lat="42.7961145299494" lon="11.523107116964427"><ele>785.4</ele><time>2026-04-12T13:17:40.999Z</time></trkpt><trkpt lat="42.79609859904902" lon="11.522980712558784"><ele>785.0</ele><time>2026-04-12T13:17:42.999Z</time></trkpt><trkpt lat="42.79608062149704" lon="11.522839017517223"><ele>784.2</ele><time>2026-04-12T13:17:44.999Z</time></trkpt><trkpt lat="42.796063372020676" lon="11.522696252521751"><ele>783.4</ele><time>2026-04-12T13:17:46.999Z</time></trkpt><trkpt lat="42.79604833546303" lon="11.52254802011257"><ele>782.5999999999999</ele><time>2026-04-12T13:17:48.999Z</time></trkpt><trkpt lat="42.79602628901781" lon="11.522407425322543"><ele>781.8</ele><time>2026-04-12T13:17:50.999Z</time></trkpt><trkpt lat="42.796005931331166" lon="11.522270340641787"><ele>781.0</ele><time>2026-04-12T13:17:52.999Z</time></trkpt><trkpt lat="42.79598850936795" lon="11.522135764530198"><ele>775.5999999999999</ele><time>2026-04-12T13:17:55Z</time></trkpt><trkpt lat="42.79596885726396" lon="11.52200198330851"><ele>770.2</ele><time>2026-04-12T13:17:57Z</time></trkpt><trkpt lat="42.79596631079462" lon="11.521872346331854"><ele>764.8</ele><time>2026-04-12T13:17:59Z</time></trkpt><trkpt lat="42.795971634259026" lon="11.521727247231047"><ele>759.4000000000001</ele><time>2026-04-12T13:18:01Z</time></trkpt><trkpt lat="42.795985608512815" lon="11.521592384366683"><ele>754.0</ele><time>2026-04-12T13:18:03Z</time></trkpt><trkpt lat="42.79599931331926" lon="11.521465450857102"><ele>756.4000000000001</ele><time>2026-04-12T13:18:05Z</time></trkpt><trkpt lat="42.79601584698765" lon="11.521329727089219"><ele>758.8</ele><time>2026-04-12T13:18:07Z</time></trkpt><trkpt lat="42.79604327473279" lon="11.521212768429415"><ele>761.2</ele><time>2026-04-12T13:18:09Z</time></trkpt><trkpt lat="42.79606634640414" lon="11.521074684038439"><ele>763.5999999999999</ele><time>2026-04-12T13:18:11Z</time></trkpt><trkpt lat="42.796077976243154" lon="11.520950449382044"><ele>766.0</ele><time>2026-04-12T13:18:13Z</time></trkpt><trkpt lat="42.79607592374672" lon="11.520815569355316"><ele>766.0</ele><time>2026-04-12T13:18:15Z</time></trkpt><trkpt lat="42.79607109056861" lon="11.520699328516379"><ele>766.0</ele><time>2026-04-12T13:18:17.001Z</time></trkpt><trkpt lat="42.79604396843854" lon="11.520575239107979"><ele>766.0</ele><time>2026-04-12T13:18:19.001Z</time></trkpt><trkpt lat="42.79599748300211" lon="11.520473069470409"><ele>766.0</ele><time>2026-04-12T13:18:21.001Z</time></trkpt><trkpt lat="42.795919774510466" lon="11.520393167900934"><ele>766.0</ele><time>2026-04-12T13:18:23.001Z</time></trkpt><trkpt lat="42.795838992271484" lon="11.52034169530419"><ele>764.0</ele><time>2026-04-12T13:18:25.001Z</time></trkpt><trkpt lat="42.795753747567865" lon="11.520309432464042"><ele>762.0</ele><time>2026-04-12T13:18:27.001Z</time></trkpt><trkpt lat="42.795663535712094" lon="11.520283623278976"><ele>760.0</ele><time>2026-04-12T13:18:29.001Z</time></trkpt><trkpt lat="42.79556778952841" lon="11.520253142193353"><ele>758.0</ele><time>2026-04-12T13:18:31.001Z</time></trkpt><trkpt lat="42.795480982445085" lon="11.520237156693524"><ele>756.0</ele><time>2026-04-12T13:18:33.001Z</time></trkpt><trkpt lat="42.79539130447313" lon="11.520210955427485"><ele>756.0</ele><time>2026-04-12T13:18:35.001Z</time></trkpt><trkpt lat="42.79530249645306" lon="11.52017677319066"><ele>756.0</ele><time>2026-04-12T13:18:37.001Z</time></trkpt><trkpt lat="42.79520402201968" lon="11.520163693011227"><ele>756.0</ele><time>2026-04-12T13:18:39.001Z</time></trkpt><trkpt lat="42.795113912435255" lon="11.520140158395325"><ele>756.0</ele><time>2026-04-12T13:18:41.001Z</time></trkpt><trkpt lat="42.79501921819306" lon="11.520137456538977"><ele>756.0</ele><time>2026-04-12T13:18:43.001Z</time></trkpt><trkpt lat="42.79491462681777" lon="11.520133245778958"><ele>755.8</ele><time>2026-04-12T13:18:45.001Z</time></trkpt><trkpt lat="42.794807749880185" lon="11.520164043060994"><ele>755.5999999999999</ele><time>2026-04-12T13:18:47.002Z</time></trkpt><trkpt lat="42.794698002696656" lon="11.520211224556883"><ele>755.4</ele><time>2026-04-12T13:18:49.002Z</time></trkpt><trkpt lat="42.79458899338391" lon="11.520293201719282"><ele>755.2</ele><time>2026-04-12T13:18:51.002Z</time></trkpt><trkpt lat="42.794533877658196" lon="11.520344784732696"><ele>755.0</ele><time>2026-04-12T13:18:52.002Z</time></trkpt><trkpt lat="42.79443200473233" lon="11.520433521267718"><ele>752.0</ele><time>2026-04-12T13:18:54.002Z</time></trkpt><trkpt lat="42.79432832067099" lon="11.520516446408998"><ele>749.0</ele><time>2026-04-12T13:18:56.002Z</time></trkpt><trkpt lat="42.79427459227743" lon="11.520563384175388"><ele>746.0</ele><time>2026-04-12T13:18:57.002Z</time></trkpt><trkpt lat="42.79421927326986" lon="11.520608786844349"><ele>743.0</ele><time>2026-04-12T13:18:58.002Z</time></trkpt><trkpt lat="42.794163330793936" lon="11.52065149242718"><ele>740.0</ele><time>2026-04-12T13:18:59.002Z</time></trkpt><trkpt lat="42.79405799627929" lon="11.52073600244518"><ele>737.0</ele><time>2026-04-12T13:19:01.002Z</time></trkpt><trkpt lat="42.79400227998859" lon="11.520782408071959"><ele>737.0</ele><time>2026-04-12T13:19:02.002Z</time></trkpt><trkpt lat="42.79393175876362" lon="11.520833045313049"><ele>737.0</ele><time>2026-04-12T13:19:03.002Z</time></trkpt><trkpt lat="42.793866141594066" lon="11.52088837433033"><ele>737.0</ele><time>2026-04-12T13:19:04.002Z</time></trkpt><trkpt lat="42.793804578286206" lon="11.520936340030033"><ele>737.0</ele><time>2026-04-12T13:19:05.002Z</time></trkpt><trkpt lat="42.79369862779162" lon="11.521017329022609"><ele>737.0</ele><time>2026-04-12T13:19:07.002Z</time></trkpt><trkpt lat="42.79360344586869" lon="11.521100421999906"><ele>737.0</ele><time>2026-04-12T13:19:09.002Z</time></trkpt><trkpt lat="42.79350864870599" lon="11.521189969704249"><ele>737.0</ele><time>2026-04-12T13:19:11.002Z</time></trkpt><trkpt lat="42.79341729335759" lon="11.521260558725276"><ele>737.0</ele><time>2026-04-12T13:19:13.002Z</time></trkpt><trkpt lat="42.79332775086213" lon="11.52132856098957"><ele>737.0</ele><time>2026-04-12T13:19:15.002Z</time></trkpt><trkpt lat="42.79322524550621" lon="11.521386982032896"><ele>737.0</ele><time>2026-04-12T13:19:17.002Z</time></trkpt><trkpt lat="42.79312700322511" lon="11.521404428419945"><ele>735.5</ele><time>2026-04-12T13:19:19.003Z</time></trkpt><trkpt lat="42.79302253406412" lon="11.521378132823974"><ele>734.0</ele><time>2026-04-12T13:19:21.003Z</time></trkpt><trkpt lat="42.79293466221564" lon="11.521331623747402"><ele>732.5</ele><time>2026-04-12T13:19:23.003Z</time></trkpt><trkpt lat="42.79288164046127" lon="11.521274833083446"><ele>731.0</ele><time>2026-04-12T13:19:25.003Z</time></trkpt><trkpt lat="42.792819319637104" lon="11.52117926929048"><ele>729.5</ele><time>2026-04-12T13:19:27.003Z</time></trkpt><trkpt lat="42.792786083924916" lon="11.521069668609238"><ele>728.0</ele><time>2026-04-12T13:19:29.003Z</time></trkpt><trkpt lat="42.79277082168159" lon="11.520959116402434"><ele>728.0</ele><time>2026-04-12T13:19:31.003Z</time></trkpt><trkpt lat="42.792772010463665" lon="11.520839377058268"><ele>728.0</ele><time>2026-04-12T13:19:33.003Z</time></trkpt><trkpt lat="42.79278527824714" lon="11.520708607489963"><ele>728.0</ele><time>2026-04-12T13:19:35.003Z</time></trkpt><trkpt lat="42.79280141887469" lon="11.520571743872447"><ele>728.0</ele><time>2026-04-12T13:19:37.003Z</time></trkpt><trkpt lat="42.79281386482081" lon="11.520446082631912"><ele>728.0</ele><time>2026-04-12T13:19:39.003Z</time></trkpt><trkpt lat="42.79283221575309" lon="11.52030373310717"><ele>727.5999999999999</ele><time>2026-04-12T13:19:41.003Z</time></trkpt><trkpt lat="42.792855273261615" lon="11.52016351277287"><ele>727.1999999999999</ele><time>2026-04-12T13:19:43.003Z</time></trkpt><trkpt lat="42.792870919705656" lon="11.520022585367137"><ele>726.8</ele><time>2026-04-12T13:19:45.003Z</time></trkpt><trkpt lat="42.79288072555596" lon="11.519881328272124"><ele>726.4</ele><time>2026-04-12T13:19:46.999Z</time></trkpt><trkpt lat="42.792870267064146" lon="11.519749477695212"><ele>726.0</ele><time>2026-04-12T13:19:48.999Z</time></trkpt><trkpt lat="42.79282844873279" lon="11.519628960536066"><ele>726.0</ele><time>2026-04-12T13:19:50.999Z</time></trkpt><trkpt lat="42.792780164453276" lon="11.519525003597721"><ele>726.0</ele><time>2026-04-12T13:19:52.999Z</time></trkpt><trkpt lat="42.79268660269375" lon="11.519455278645744"><ele>726.0</ele><time>2026-04-12T13:19:54.999Z</time></trkpt><trkpt lat="42.79258016950308" lon="11.51942203540397"><ele>726.0</ele><time>2026-04-12T13:19:56.999Z</time></trkpt><trkpt lat="42.79246699074625" lon="11.519395560733155"><ele>726.0</ele><time>2026-04-12T13:19:58.999Z</time></trkpt><trkpt lat="42.79235979802401" lon="11.519378480690541"><ele>722.5999999999999</ele><time>2026-04-12T13:20:00.999Z</time></trkpt><trkpt lat="42.792249385836804" lon="11.519391516046001"><ele>719.2</ele><time>2026-04-12T13:20:02.999Z</time></trkpt><trkpt lat="42.792141264221385" lon="11.51939984374872"><ele>715.8</ele><time>2026-04-12T13:20:05Z</time></trkpt><trkpt lat="42.79204773355094" lon="11.519438849222716"><ele>712.4000000000001</ele><time>2026-04-12T13:20:07Z</time></trkpt><trkpt lat="42.79196500115034" lon="11.519502671164767"><ele>709.0</ele><time>2026-04-12T13:20:09Z</time></trkpt><trkpt lat="42.791903214804826" lon="11.519619855356472"><ele>707.6</ele><time>2026-04-12T13:20:11Z</time></trkpt><trkpt lat="42.79186454560529" lon="11.51975414673846"><ele>706.2</ele><time>2026-04-12T13:20:13Z</time></trkpt><trkpt lat="42.7918464645734" lon="11.519898456645572"><ele>704.8000000000001</ele><time>2026-04-12T13:20:15Z</time></trkpt><trkpt lat="42.791843147556726" lon="11.520055864507814"><ele>703.4000000000001</ele><time>2026-04-12T13:20:17Z</time></trkpt><trkpt lat="42.79184475868879" lon="11.520203875616154"><ele>702.0</ele><time>2026-04-12T13:20:19Z</time></trkpt><trkpt lat="42.791851677874064" lon="11.520343583515695"><ele>702.8</ele><time>2026-04-12T13:20:21Z</time></trkpt><trkpt lat="42.79185212892605" lon="11.520467951735814"><ele>703.6</ele><time>2026-04-12T13:20:23Z</time></trkpt><trkpt lat="42.791854862978774" lon="11.520588992535679"><ele>704.4</ele><time>2026-04-12T13:20:25.001Z</time></trkpt><trkpt lat="42.791846085090704" lon="11.520720190864072"><ele>705.1999999999999</ele><time>2026-04-12T13:20:27.001Z</time></trkpt><trkpt lat="42.79181974986023" lon="11.520840245766511"><ele>706.0</ele><time>2026-04-12T13:20:29.001Z</time></trkpt><trkpt lat="42.79176582643759" lon="11.520930661659502"><ele>701.5999999999999</ele><time>2026-04-12T13:20:31.001Z</time></trkpt><trkpt lat="42.79169262658526" lon="11.520989311992839"><ele>697.2</ele><time>2026-04-12T13:20:33.001Z</time></trkpt><trkpt lat="42.791597432074326" lon="11.52102169032897"><ele>692.8</ele><time>2026-04-12T13:20:35.001Z</time></trkpt><trkpt lat="42.79149250359535" lon="11.521010720455697"><ele>688.4000000000001</ele><time>2026-04-12T13:20:37.001Z</time></trkpt><trkpt lat="42.7913827732438" lon="11.520972007699873"><ele>684.0</ele><time>2026-04-12T13:20:39.001Z</time></trkpt><trkpt lat="42.79127589070604" lon="11.52093810913091"><ele>684.0</ele><time>2026-04-12T13:20:41.001Z</time></trkpt><trkpt lat="42.79116601405638" lon="11.520910713433612"><ele>684.0</ele><time>2026-04-12T13:20:43.001Z</time></trkpt><trkpt lat="42.79105231473952" lon="11.520881507769753"><ele>684.0</ele><time>2026-04-12T13:20:45.001Z</time></trkpt><trkpt lat="42.79093247170029" lon="11.520840217458563"><ele>684.0</ele><time>2026-04-12T13:20:47.001Z</time></trkpt><trkpt lat="42.79086571363497" lon="11.520826705729736"><ele>684.0</ele><time>2026-04-12T13:20:48.001Z</time></trkpt><trkpt lat="42.79080163376421" lon="11.520806662846386"><ele>681.6666666666666</ele><time>2026-04-12T13:20:49.001Z</time></trkpt><trkpt lat="42.79073887425634" lon="11.52078493426042"><ele>679.3333333333334</ele><time>2026-04-12T13:20:50.001Z</time></trkpt><trkpt lat="42.79067440182896" lon="11.520770944580072"><ele>677.0</ele><time>2026-04-12T13:20:51.001Z</time></trkpt><trkpt lat="42.79061144518807" lon="11.520754531570766"><ele>674.6666666666667</ele><time>2026-04-12T13:20:52.002Z</time></trkpt><trkpt lat="42.79048563565829" lon="11.520723304435863"><ele>672.3333333333334</ele><time>2026-04-12T13:20:54.002Z</time></trkpt><trkpt lat="42.79041909845138" lon="11.520707156719553"><ele>670.0</ele><time>2026-04-12T13:20:55.002Z</time></trkpt><trkpt lat="42.79035575190322" lon="11.52068942296856"><ele>670.0</ele><time>2026-04-12T13:20:56.002Z</time></trkpt><trkpt lat="42.79024285844629" lon="11.520659163297584"><ele>670.0</ele><time>2026-04-12T13:20:58.002Z</time></trkpt><trkpt lat="42.79014020556123" lon="11.520626574958934"><ele>670.0</ele><time>2026-04-12T13:21:00.002Z</time></trkpt><trkpt lat="42.79003498182965" lon="11.52060666218957"><ele>670.0</ele><time>2026-04-12T13:21:02.002Z</time></trkpt><trkpt lat="42.78992348938676" lon="11.520577900478992"><ele>670.0</ele><time>2026-04-12T13:21:04.002Z</time></trkpt><trkpt lat="42.789812818440566" lon="11.520538215213255"><ele>669.4</ele><time>2026-04-12T13:21:06.002Z</time></trkpt><trkpt lat="42.78970666107051" lon="11.520472849786607"><ele>668.8</ele><time>2026-04-12T13:21:08.002Z</time></trkpt><trkpt lat="42.78961206891819" lon="11.52039718097857"><ele>668.2</ele><time>2026-04-12T13:21:10.002Z</time></trkpt><trkpt lat="42.78951827945224" lon="11.52031346246764"><ele>667.6</ele><time>2026-04-12T13:21:12.002Z</time></trkpt><trkpt lat="42.78943065641554" lon="11.52022057372312"><ele>667.0</ele><time>2026-04-12T13:21:14.002Z</time></trkpt><trkpt lat="42.78935207346305" lon="11.520138665524112"><ele>664.4000000000001</ele><time>2026-04-12T13:21:16.002Z</time></trkpt><trkpt lat="42.789275705824366" lon="11.520057894374919"><ele>661.8000000000001</ele><time>2026-04-12T13:21:18.002Z</time></trkpt><trkpt lat="42.78919831777766" lon="11.519983595240856"><ele>659.2</ele><time>2026-04-12T13:21:20.002Z</time></trkpt><trkpt lat="42.78909961498948" lon="11.519932032621389"><ele>656.6</ele><time>2026-04-12T13:21:22.002Z</time></trkpt><trkpt lat="42.78899682893119" lon="11.519916323422967"><ele>654.0</ele><time>2026-04-12T13:21:24.002Z</time></trkpt><trkpt lat="42.78890469716968" lon="11.519923186823249"><ele>654.0</ele><time>2026-04-12T13:21:26.003Z</time></trkpt><trkpt lat="42.788815119129794" lon="11.51995607249111"><ele>654.0</ele><time>2026-04-12T13:21:28.003Z</time></trkpt><trkpt lat="42.78872781989277" lon="11.519993188039765"><ele>654.0</ele><time>2026-04-12T13:21:30.003Z</time></trkpt><trkpt lat="42.78865078062865" lon="11.520050837938102"><ele>654.0</ele><time>2026-04-12T13:21:32.003Z</time></trkpt><trkpt lat="42.78858696401545" lon="11.520129386616222"><ele>654.0</ele><time>2026-04-12T13:21:34.003Z</time></trkpt><trkpt lat="42.78852868827207" lon="11.52021678660311"><ele>654.0</ele><time>2026-04-12T13:21:36.003Z</time></trkpt><trkpt lat="42.788493052229846" lon="11.520311183635275"><ele>651.5</ele><time>2026-04-12T13:21:38.003Z</time></trkpt><trkpt lat="42.78846084116543" lon="11.5203923519599"><ele>649.0</ele><time>2026-04-12T13:21:40.003Z</time></trkpt><trkpt lat="42.788434914988976" lon="11.520470887723002"><ele>646.5</ele><time>2026-04-12T13:21:42.003Z</time></trkpt><trkpt lat="42.78842335358211" lon="11.520581534919144"><ele>644.0</ele><time>2026-04-12T13:21:45.003Z</time></trkpt><trkpt lat="42.78841790237081" lon="11.520698763428712"><ele>641.5</ele><time>2026-04-12T13:21:47.003Z</time></trkpt><trkpt lat="42.78841922355043" lon="11.520844462498745"><ele>639.0</ele><time>2026-04-12T13:21:49.003Z</time></trkpt><trkpt lat="42.788399773722894" lon="11.520969379853819"><ele>639.0</ele><time>2026-04-12T13:21:51.003Z</time></trkpt><trkpt lat="42.788395585050935" lon="11.521104100694178"><ele>639.0</ele><time>2026-04-12T13:21:52.998Z</time></trkpt><trkpt lat="42.78840394724614" lon="11.521246349202038"><ele>639.0</ele><time>2026-04-12T13:21:54.999Z</time></trkpt><trkpt lat="42.78839178095307" lon="11.52137055474744"><ele>639.0</ele><time>2026-04-12T13:21:56.999Z</time></trkpt><trkpt lat="42.788368946380835" lon="11.521522010172273"><ele>639.0</ele><time>2026-04-12T13:21:58.999Z</time></trkpt><trkpt lat="42.78835929836497" lon="11.521673023722053"><ele>638.4</ele><time>2026-04-12T13:22:00.999Z</time></trkpt><trkpt lat="42.788368387384445" lon="11.521830073680874"><ele>637.8</ele><time>2026-04-12T13:22:02.999Z</time></trkpt><trkpt lat="42.78836046169234" lon="11.52198293821029"><ele>637.2</ele><time>2026-04-12T13:22:04.999Z</time></trkpt><trkpt lat="42.78834846468888" lon="11.522128099741991"><ele>636.6</ele><time>2026-04-12T13:22:06.999Z</time></trkpt><trkpt lat="42.788341413897996" lon="11.522268078657122"><ele>636.0</ele><time>2026-04-12T13:22:08.999Z</time></trkpt><trkpt lat="42.788334960107775" lon="11.522413781093581"><ele>635.2</ele><time>2026-04-12T13:22:11Z</time></trkpt><trkpt lat="42.78833798289433" lon="11.522564402570575"><ele>634.4000000000001</ele><time>2026-04-12T13:22:13Z</time></trkpt><trkpt lat="42.78831891183527" lon="11.522696512846762"><ele>633.6</ele><time>2026-04-12T13:22:15Z</time></trkpt><trkpt lat="42.78832475699707" lon="11.522821096588531"><ele>632.8000000000001</ele><time>2026-04-12T13:22:17Z</time></trkpt><trkpt lat="42.78836023451685" lon="11.522952088249331"><ele>632.0</ele><time>2026-04-12T13:22:19Z</time></trkpt><trkpt lat="42.78840509703424" lon="11.523103425006362"><ele>632.4</ele><time>2026-04-12T13:22:21Z</time></trkpt><trkpt lat="42.78844869309543" lon="11.523259760898972"><ele>632.8000000000001</ele><time>2026-04-12T13:22:23Z</time></trkpt><trkpt lat="42.788470568708206" lon="11.523342879635663"><ele>633.2</ele><time>2026-04-12T13:22:24Z</time></trkpt><trkpt lat="42.78852800960497" lon="11.523472172540863"><ele>633.6</ele><time>2026-04-12T13:22:26Z</time></trkpt><trkpt lat="42.78857487581525" lon="11.523605965789988"><ele>634.0</ele><time>2026-04-12T13:22:28Z</time></trkpt><trkpt lat="42.788612149757164" lon="11.523741811482932"><ele>634.0</ele><time>2026-04-12T13:22:30.001Z</time></trkpt><trkpt lat="42.78862814433482" lon="11.523860657253618"><ele>634.0</ele><time>2026-04-12T13:22:32.001Z</time></trkpt><trkpt lat="42.78859938794999" lon="11.524017693198413"><ele>634.0</ele><time>2026-04-12T13:22:34.001Z</time></trkpt><trkpt lat="42.78855903178483" lon="11.524160076004105"><ele>634.0</ele><time>2026-04-12T13:22:36.001Z</time></trkpt><trkpt lat="42.78850144003064" lon="11.524295010713105"><ele>634.0</ele><time>2026-04-12T13:22:38.001Z</time></trkpt><trkpt lat="42.78843087502701" lon="11.524410265125734"><ele>631.0</ele><time>2026-04-12T13:22:40.001Z</time></trkpt><trkpt lat="42.788351694914766" lon="11.524522614872296"><ele>628.0</ele><time>2026-04-12T13:22:42.001Z</time></trkpt><trkpt lat="42.78827842073186" lon="11.524638521687645"><ele>625.0</ele><time>2026-04-12T13:22:44.001Z</time></trkpt><trkpt lat="42.788209999079506" lon="11.52474738059872"><ele>622.0</ele><time>2026-04-12T13:22:46.001Z</time></trkpt><trkpt lat="42.78814229631461" lon="11.52486003752634"><ele>619.0</ele><time>2026-04-12T13:22:48.001Z</time></trkpt><trkpt lat="42.78807334456032" lon="11.524966666706193"><ele>618.6666666666667</ele><time>2026-04-12T13:22:50.001Z</time></trkpt><trkpt lat="42.78802932624695" lon="11.525051257176663"><ele>618.3333333333334</ele><time>2026-04-12T13:22:52.001Z</time></trkpt><trkpt lat="42.78803795469577" lon="11.525142152509824"><ele>618.0</ele><time>2026-04-12T13:22:55.001Z</time></trkpt><trkpt lat="42.788053161061725" lon="11.525246490690938"><ele>617.6666666666666</ele><time>2026-04-12T13:41:25.001Z</time></trkpt><trkpt lat="42.78807196249923" lon="11.52540272690668"><ele>617.3333333333333</ele><time>2026-04-12T13:41:28.001Z</time></trkpt><trkpt lat="42.78811635157322" lon="11.525507806578426"><ele>617.0</ele><time>2026-04-12T13:41:29.001Z</time></trkpt><trkpt lat="42.788174776513266" lon="11.525606357848806"><ele>617.0</ele><time>2026-04-12T13:41:30.001Z</time></trkpt><trkpt lat="42.78823047387405" lon="11.525722646419464"><ele>617.0</ele><time>2026-04-12T13:41:31.001Z</time></trkpt><trkpt lat="42.78828195766482" lon="11.52588456849988"><ele>617.0</ele><time>2026-04-12T13:41:32.001Z</time></trkpt><trkpt lat="42.7883289186342" lon="11.526072790494315"><ele>617.0</ele><time>2026-04-12T13:41:33.001Z</time></trkpt><trkpt lat="42.78837158150352" lon="11.526284455493709"><ele>616.75</ele><time>2026-04-12T13:41:34.001Z</time></trkpt><trkpt lat="42.78839943696152" lon="11.526510790599689"><ele>616.5</ele><time>2026-04-12T13:41:35.001Z</time></trkpt><trkpt lat="42.78841305184306" lon="11.526697391452911"><ele>616.25</ele><time>2026-04-12T13:41:36.001Z</time></trkpt><trkpt lat="42.788432547534036" lon="11.52686342275984"><ele>616.0</ele><time>2026-04-12T13:41:37.001Z</time></trkpt><trkpt lat="42.78846933377781" lon="11.52704267459473"><ele>619.75</ele><time>2026-04-12T13:41:38.001Z</time></trkpt><trkpt lat="42.7885302484175" lon="11.527193105135781"><ele>623.5</ele><time>2026-04-12T13:41:39.001Z</time></trkpt><trkpt lat="42.78860444280266" lon="11.527326991147135"><ele>627.25</ele><time>2026-04-12T13:41:40.001Z</time></trkpt><trkpt lat="42.788680883890834" lon="11.527470989262925"><ele>631.0</ele><time>2026-04-12T13:41:41.001Z</time></trkpt><trkpt lat="42.78875667477503" lon="11.527612806649294"><ele>631.0</ele><time>2026-04-12T13:41:42.001Z</time></trkpt><trkpt lat="42.78882983566147" lon="11.52775096342528"><ele>631.0</ele><time>2026-04-12T13:41:43.001Z</time></trkpt><trkpt lat="42.78890512835205" lon="11.52788686814231"><ele>631.0</ele><time>2026-04-12T13:41:44.001Z</time></trkpt><trkpt lat="42.788991354093014" lon="11.528010882101313"><ele>631.0</ele><time>2026-04-12T13:41:45.001Z</time></trkpt><trkpt lat="42.78909088221288" lon="11.528123391065723"><ele>632.75</ele><time>2026-04-12T13:41:46.001Z</time></trkpt><trkpt lat="42.789200987438115" lon="11.528222451878287"><ele>634.5</ele><time>2026-04-12T13:41:47.001Z</time></trkpt><trkpt lat="42.78931797263339" lon="11.528312326182377"><ele>636.25</ele><time>2026-04-12T13:41:48.001Z</time></trkpt><trkpt lat="42.78943598308221" lon="11.52840177322382"><ele>638.0</ele><time>2026-04-12T13:41:49.002Z</time></trkpt><trkpt lat="42.789548368656725" lon="11.528490454330479"><ele>638.0</ele><time>2026-04-12T13:41:50.002Z</time></trkpt><trkpt lat="42.789644752578724" lon="11.528571096644093"><ele>638.0</ele><time>2026-04-12T13:41:51.002Z</time></trkpt><trkpt lat="42.78973539644095" lon="11.528648724898348"><ele>638.0</ele><time>2026-04-12T13:41:52.002Z</time></trkpt><trkpt lat="42.78982393774941" lon="11.528720850730219"><ele>638.0</ele><time>2026-04-12T13:41:53.002Z</time></trkpt><trkpt lat="42.78991132774709" lon="11.528791077952452"><ele>638.0</ele><time>2026-04-12T13:41:54.002Z</time></trkpt><trkpt lat="42.790002344266135" lon="11.528866803986512"><ele>637.6</ele><time>2026-04-12T13:41:55.002Z</time></trkpt><trkpt lat="42.79008951746077" lon="11.528943222868719"><ele>637.1999999999999</ele><time>2026-04-12T13:41:56.002Z</time></trkpt><trkpt lat="42.790184989247166" lon="11.529017218600492"><ele>636.8</ele><time>2026-04-12T13:41:57.002Z</time></trkpt><trkpt lat="42.79027601260789" lon="11.529086930411998"><ele>636.4</ele><time>2026-04-12T13:41:58.002Z</time></trkpt><trkpt lat="42.79035514395644" lon="11.52915775036616"><ele>636.0</ele><time>2026-04-12T13:41:59.002Z</time></trkpt><trkpt lat="42.79042282004911" lon="11.529212895248445"><ele>636.0</ele><time>2026-04-12T13:42:00.002Z</time></trkpt><trkpt lat="42.79048316976426" lon="11.529257263077945"><ele>636.0</ele><time>2026-04-12T13:42:01.002Z</time></trkpt><trkpt lat="42.79055723310227" lon="11.52931353374321"><ele>636.0</ele><time>2026-04-12T13:42:03.002Z</time></trkpt><trkpt lat="42.79061483717557" lon="11.529365423863943"><ele>636.0</ele><time>2026-04-12T13:42:06.002Z</time></trkpt><trkpt lat="42.79068261260343" lon="11.52942512685222"><ele>636.0</ele><time>2026-04-12T13:42:44.003Z</time></trkpt><trkpt lat="42.79077107083347" lon="11.529484760526376"><ele>636.0</ele><time>2026-04-12T13:43:27.001Z</time></trkpt><trkpt lat="42.79086427527288" lon="11.52956883368861"><ele>636.2</ele><time>2026-04-12T13:43:29.001Z</time></trkpt><trkpt lat="42.79093665988164" lon="11.52969880867108"><ele>636.4000000000001</ele><time>2026-04-12T13:43:31.001Z</time></trkpt><trkpt lat="42.7910282370639" lon="11.529757313328101"><ele>636.6</ele><time>2026-04-12T13:43:33.001Z</time></trkpt><trkpt lat="42.79112389711515" lon="11.529842933952539"><ele>636.8000000000001</ele><time>2026-04-12T13:43:35.001Z</time></trkpt><trkpt lat="42.79121360606708" lon="11.5299310347132"><ele>637.0</ele><time>2026-04-12T13:43:37.001Z</time></trkpt><trkpt lat="42.791315629092225" lon="11.530005135442602"><ele>637.0</ele><time>2026-04-12T13:43:39.001Z</time></trkpt><trkpt lat="42.79141023049279" lon="11.530133760924326"><ele>637.0</ele><time>2026-04-12T13:43:41.001Z</time></trkpt><trkpt lat="42.79148077245472" lon="11.530225802499357"><ele>637.0</ele><time>2026-04-12T13:43:42.001Z</time></trkpt><trkpt lat="42.79155815951454" lon="11.53035464183844"><ele>637.0</ele><time>2026-04-12T13:43:43.001Z</time></trkpt><trkpt lat="42.79165155248466" lon="11.530487488389422"><ele>636.0</ele><time>2026-04-12T13:43:44.001Z</time></trkpt><trkpt lat="42.79174382515238" lon="11.530624627103522"><ele>635.0</ele><time>2026-04-12T13:43:45.001Z</time></trkpt><trkpt lat="42.79182003364055" lon="11.530754727563234"><ele>634.0</ele><time>2026-04-12T13:43:46.001Z</time></trkpt><trkpt lat="42.791851383506035" lon="11.530898100637751"><ele>633.0</ele><time>2026-04-12T13:43:47.001Z</time></trkpt><trkpt lat="42.79188461288652" lon="11.531026475250833"><ele>633.0</ele><time>2026-04-12T13:43:48.001Z</time></trkpt><trkpt lat="42.79191030044503" lon="11.531129553520532"><ele>633.0</ele><time>2026-04-12T13:43:49.001Z</time></trkpt><trkpt lat="42.791919042776094" lon="11.531214983646867"><ele>633.0</ele><time>2026-04-12T13:43:50.001Z</time></trkpt><trkpt lat="42.79185790263655" lon="11.531352061869466"><ele>633.0</ele><time>2026-04-12T13:43:52.001Z</time></trkpt><trkpt lat="42.79175742157613" lon="11.531317222642398"><ele>633.0</ele><time>2026-04-12T13:43:53.001Z</time></trkpt><trkpt lat="42.79164051016034" lon="11.531308422683303"><ele>631.3333333333334</ele><time>2026-04-12T13:43:54.001Z</time></trkpt><trkpt lat="42.79150609671747" lon="11.53130081994647"><ele>629.6666666666667</ele><time>2026-04-12T13:43:55.001Z</time></trkpt><trkpt lat="42.7913514894423" lon="11.53131745936536"><ele>628.0</ele><time>2026-04-12T13:43:56.002Z</time></trkpt><trkpt lat="42.79118546032768" lon="11.531288709057554"><ele>628.0</ele><time>2026-04-12T13:43:57.002Z</time></trkpt><trkpt lat="42.791019399717904" lon="11.531281574035253"><ele>628.0</ele><time>2026-04-12T13:43:58.002Z</time></trkpt><trkpt lat="42.7908365660823" lon="11.531272661427264"><ele>628.0</ele><time>2026-04-12T13:43:59.002Z</time></trkpt><trkpt lat="42.790656355029114" lon="11.531285932248613"><ele>627.6666666666667</ele><time>2026-04-12T13:44:00.002Z</time></trkpt><trkpt lat="42.79048339745239" lon="11.531278639588596"><ele>627.3333333333334</ele><time>2026-04-12T13:44:01.002Z</time></trkpt><trkpt lat="42.79032431918558" lon="11.531266437495995"><ele>627.0</ele><time>2026-04-12T13:44:02.002Z</time></trkpt><trkpt lat="42.79016906943959" lon="11.531230987245692"><ele>623.3333333333334</ele><time>2026-04-12T13:44:03.002Z</time></trkpt><trkpt lat="42.7900049541327" lon="11.531184351815659"><ele>619.6666666666667</ele><time>2026-04-12T13:44:04.002Z</time></trkpt><trkpt lat="42.78983953098876" lon="11.531130872363114"><ele>616.0</ele><time>2026-04-12T13:44:05.002Z</time></trkpt><trkpt lat="42.789670771754906" lon="11.53109370302334"><ele>616.0</ele><time>2026-04-12T13:44:06.002Z</time></trkpt><trkpt lat="42.78950649893126" lon="11.531033185589806"><ele>616.0</ele><time>2026-04-12T13:44:07.002Z</time></trkpt><trkpt lat="42.78933943805759" lon="11.53096035396644"><ele>616.0</ele><time>2026-04-12T13:44:08.002Z</time></trkpt><trkpt lat="42.789196107870644" lon="11.530865131420747"><ele>619.5</ele><time>2026-04-12T13:44:09.002Z</time></trkpt><trkpt lat="42.78907928753969" lon="11.530772287370802"><ele>623.0</ele><time>2026-04-12T13:44:10.002Z</time></trkpt><trkpt lat="42.78896649567169" lon="11.53070698602512"><ele>626.5</ele><time>2026-04-12T13:44:11.002Z</time></trkpt><trkpt lat="42.788853476636675" lon="11.530692530898982"><ele>630.0</ele><time>2026-04-12T13:44:12.002Z</time></trkpt><trkpt lat="42.788743950681216" lon="11.53072331404367"><ele>630.0</ele><time>2026-04-12T13:44:13.002Z</time></trkpt><trkpt lat="42.788657285153924" lon="11.530792528958083"><ele>630.0</ele><time>2026-04-12T13:44:14.002Z</time></trkpt><trkpt lat="42.78858071388088" lon="11.53090933660631"><ele>630.0</ele><time>2026-04-12T13:44:15.002Z</time></trkpt><trkpt lat="42.78852515676208" lon="11.53107527265907"><ele>630.0</ele><time>2026-04-12T13:44:16.002Z</time></trkpt><trkpt lat="42.788502123814915" lon="11.531252833616236"><ele>629.5</ele><time>2026-04-12T13:44:17.002Z</time></trkpt><trkpt lat="42.788502643778244" lon="11.531431026003986"><ele>629.0</ele><time>2026-04-12T13:44:18.002Z</time></trkpt><trkpt lat="42.78851316325354" lon="11.531638814127707"><ele>628.5</ele><time>2026-04-12T13:44:19.002Z</time></trkpt><trkpt lat="42.788532415252135" lon="11.531843105202999"><ele>628.0</ele><time>2026-04-12T13:44:20.002Z</time></trkpt><trkpt lat="42.788568607678535" lon="11.532052477074146"><ele>639.3333333333334</ele><time>2026-04-12T13:44:21.002Z</time></trkpt><trkpt lat="42.78857091347109" lon="11.532272310896568"><ele>650.6666666666666</ele><time>2026-04-12T13:44:22.002Z</time></trkpt><trkpt lat="42.78857700321744" lon="11.532503347256643"><ele>662.0</ele><time>2026-04-12T13:44:23.002Z</time></trkpt><trkpt lat="42.78857684831925" lon="11.532728861663259"><ele>662.0</ele><time>2026-04-12T13:44:24.002Z</time></trkpt><trkpt lat="42.78857820095021" lon="11.53296689945353"><ele>662.0</ele><time>2026-04-12T13:44:25.002Z</time></trkpt><trkpt lat="42.78857963626415" lon="11.533192823869799"><ele>662.0</ele><time>2026-04-12T13:44:26.002Z</time></trkpt><trkpt lat="42.78857423764303" lon="11.533388214308346"><ele>662.0</ele><time>2026-04-12T13:44:27.002Z</time></trkpt><trkpt lat="42.78853715449428" lon="11.533571152758455"><ele>662.0</ele><time>2026-04-12T13:44:28.002Z</time></trkpt><trkpt lat="42.788474599292705" lon="11.533776576668282"><ele>662.0</ele><time>2026-04-12T13:44:29.002Z</time></trkpt><trkpt lat="42.788405935682086" lon="11.533975257760902"><ele>658.25</ele><time>2026-04-12T13:44:30.002Z</time></trkpt><trkpt lat="42.78832707159508" lon="11.53415960603603"><ele>654.5</ele><time>2026-04-12T13:44:31.002Z</time></trkpt><trkpt lat="42.78822678582579" lon="11.53427859567427"><ele>650.75</ele><time>2026-04-12T13:44:32.002Z</time></trkpt><trkpt lat="42.78810880814749" lon="11.534395585351868"><ele>647.0</ele><time>2026-04-12T13:44:33.002Z</time></trkpt><trkpt lat="42.787969609711276" lon="11.534497018046736"><ele>652.0</ele><time>2026-04-12T13:44:34.003Z</time></trkpt><trkpt lat="42.78781270392992" lon="11.534598657450038"><ele>657.0</ele><time>2026-04-12T13:44:35.003Z</time></trkpt><trkpt lat="42.787645298313215" lon="11.534702782981272"><ele>662.0</ele><time>2026-04-12T13:44:36.003Z</time></trkpt><trkpt lat="42.7874989092682" lon="11.53479654641622"><ele>662.0</ele><time>2026-04-12T13:44:37.003Z</time></trkpt><trkpt lat="42.78737652832522" lon="11.53485837014379"><ele>662.0</ele><time>2026-04-12T13:44:38.003Z</time></trkpt><trkpt lat="42.787267913131195" lon="11.534865061541298"><ele>662.0</ele><time>2026-04-12T13:44:39.003Z</time></trkpt><trkpt lat="42.78715954738308" lon="11.534820339046277"><ele>662.0</ele><time>2026-04-12T13:44:40.003Z</time></trkpt><trkpt lat="42.787061565838265" lon="11.534712806437787"><ele>662.0</ele><time>2026-04-12T13:44:41.003Z</time></trkpt><trkpt lat="42.78695304015426" lon="11.534609390394602"><ele>662.0</ele><time>2026-04-12T13:44:42.003Z</time></trkpt><trkpt lat="42.78685740030136" lon="11.534544703924585"><ele>662.0</ele><time>2026-04-12T13:44:43.003Z</time></trkpt><trkpt lat="42.78675450632402" lon="11.534545282022632"><ele>662.0</ele><time>2026-04-12T13:44:44.003Z</time></trkpt><trkpt lat="42.78665140322585" lon="11.534606129628944"><ele>661.5</ele><time>2026-04-12T13:44:45.003Z</time></trkpt><trkpt lat="42.78656783590075" lon="11.534710775675151"><ele>661.0</ele><time>2026-04-12T13:44:46.003Z</time></trkpt><trkpt lat="42.786532405017866" lon="11.534874443632441"><ele>660.5</ele><time>2026-04-12T13:44:47.003Z</time></trkpt><trkpt lat="42.78653619101565" lon="11.535043685035175"><ele>660.0</ele><time>2026-04-12T13:44:48.003Z</time></trkpt><trkpt lat="42.786582118688976" lon="11.535213207108429"><ele>660.0</ele><time>2026-04-12T13:44:49.003Z</time></trkpt><trkpt lat="42.78667023476123" lon="11.535366088910788"><ele>660.0</ele><time>2026-04-12T13:44:50.003Z</time></trkpt><trkpt lat="42.78672749319059" lon="11.535547358408541"><ele>660.0</ele><time>2026-04-12T13:44:51.003Z</time></trkpt><trkpt lat="42.7867770963609" lon="11.535748233335811"><ele>660.0</ele><time>2026-04-12T13:44:52.003Z</time></trkpt><trkpt lat="42.78682048889606" lon="11.53595194192981"><ele>663.5</ele><time>2026-04-12T13:44:53.003Z</time></trkpt><trkpt lat="42.786864534784335" lon="11.53614892010454"><ele>667.0</ele><time>2026-04-12T13:44:54.003Z</time></trkpt><trkpt lat="42.78691054766553" lon="11.536316303979936"><ele>670.5</ele><time>2026-04-12T13:44:55.003Z</time></trkpt><trkpt lat="42.78693257966437" lon="11.536464098376124"><ele>674.0</ele><time>2026-04-12T13:44:56.003Z</time></trkpt><trkpt lat="42.78692165390764" lon="11.53660698093174"><ele>672.8000000000001</ele><time>2026-04-12T13:44:57.003Z</time></trkpt><trkpt lat="42.786879698770605" lon="11.536734333982775"><ele>671.6</ele><time>2026-04-12T13:44:58.003Z</time></trkpt><trkpt lat="42.78681046335088" lon="11.5368241519817"><ele>670.4</ele><time>2026-04-12T13:44:59Z</time></trkpt><trkpt lat="42.78671027242939" lon="11.536878036412972"><ele>669.2</ele><time>2026-04-12T13:45:00Z</time></trkpt><trkpt lat="42.78657851704247" lon="11.536954923758984"><ele>668.0</ele><time>2026-04-12T13:45:01Z</time></trkpt><trkpt lat="42.78644512471447" lon="11.537052469549415"><ele>672.3333333333333</ele><time>2026-04-12T13:45:02Z</time></trkpt><trkpt lat="42.78629577083543" lon="11.537134876640536"><ele>676.6666666666666</ele><time>2026-04-12T13:45:03Z</time></trkpt><trkpt lat="42.786139727297986" lon="11.537228475702499"><ele>681.0</ele><time>2026-04-12T13:45:04Z</time></trkpt><trkpt lat="42.78598243522716" lon="11.53730729856054"><ele>681.0</ele><time>2026-04-12T13:45:05Z</time></trkpt><trkpt lat="42.78583220126018" lon="11.537418137643307"><ele>681.0</ele><time>2026-04-12T13:45:06Z</time></trkpt><trkpt lat="42.78567221084933" lon="11.537503935769484"><ele>681.0</ele><time>2026-04-12T13:45:07Z</time></trkpt><trkpt lat="42.785527999337326" lon="11.537584415682701"><ele>681.0</ele><time>2026-04-12T13:45:08Z</time></trkpt><trkpt lat="42.78540265414856" lon="11.53765692141797"><ele>681.0</ele><time>2026-04-12T13:45:09Z</time></trkpt><trkpt lat="42.78530439133878" lon="11.537768062490407"><ele>681.0</ele><time>2026-04-12T13:45:10Z</time></trkpt><trkpt lat="42.785235083148116" lon="11.537933517355164"><ele>681.0</ele><time>2026-04-12T13:45:11Z</time></trkpt><trkpt lat="42.785196205495886" lon="11.53814456299079"><ele>678.6666666666666</ele><time>2026-04-12T13:45:12Z</time></trkpt><trkpt lat="42.785191092406556" lon="11.538377472215767"><ele>676.3333333333333</ele><time>2026-04-12T13:45:13Z</time></trkpt><trkpt lat="42.7851492057025" lon="11.538598006611274"><ele>674.0</ele><time>2026-04-12T13:45:14Z</time></trkpt><trkpt lat="42.78510082950871" lon="11.538777039623447"><ele>678.75</ele><time>2026-04-12T13:45:15Z</time></trkpt><trkpt lat="42.785037328406595" lon="11.538910299806338"><ele>683.5</ele><time>2026-04-12T13:45:16Z</time></trkpt><trkpt lat="42.784947388862136" lon="11.539022768562774"><ele>688.25</ele><time>2026-04-12T13:45:17Z</time></trkpt><trkpt lat="42.784820081686085" lon="11.53905499582146"><ele>693.0</ele><time>2026-04-12T13:45:18Z</time></trkpt><trkpt lat="42.784689746507006" lon="11.539113753164628"><ele>693.0</ele><time>2026-04-12T13:45:19Z</time></trkpt><trkpt lat="42.784588588139904" lon="11.539201523762628"><ele>693.0</ele><time>2026-04-12T13:45:20Z</time></trkpt><trkpt lat="42.784501536307346" lon="11.539338639041125"><ele>693.0</ele><time>2026-04-12T13:45:21Z</time></trkpt><trkpt lat="42.784458030184986" lon="11.539519058825107"><ele>693.0</ele><time>2026-04-12T13:45:22Z</time></trkpt><trkpt lat="42.78444819494402" lon="11.539723359793022"><ele>693.25</ele><time>2026-04-12T13:45:23Z</time></trkpt><trkpt lat="42.784436202471746" lon="11.539933266554948"><ele>693.5</ele><time>2026-04-12T13:45:24Z</time></trkpt><trkpt lat="42.78444278189894" lon="11.540130376161853"><ele>693.75</ele><time>2026-04-12T13:45:25Z</time></trkpt><trkpt lat="42.78448791161467" lon="11.540315274288233"><ele>694.0</ele><time>2026-04-12T13:45:26Z</time></trkpt><trkpt lat="42.78457698254564" lon="11.540464771847049"><ele>694.0</ele><time>2026-04-12T13:45:27.001Z</time></trkpt><trkpt lat="42.78469637508413" lon="11.54056634944674"><ele>694.0</ele><time>2026-04-12T13:45:28.001Z</time></trkpt><trkpt lat="42.78484432032542" lon="11.540620947870718"><ele>694.0</ele><time>2026-04-12T13:45:29.001Z</time></trkpt><trkpt lat="42.78496992938981" lon="11.540735513200623"><ele>694.0</ele><time>2026-04-12T13:45:30.001Z</time></trkpt><trkpt lat="42.785049966284824" lon="11.540912523142783"><ele>694.0</ele><time>2026-04-12T13:45:31.001Z</time></trkpt><trkpt lat="42.78513435955972" lon="11.541084434703015"><ele>694.0</ele><time>2026-04-12T13:45:32.001Z</time></trkpt><trkpt lat="42.78523419981995" lon="11.54121399964662"><ele>694.0</ele><time>2026-04-12T13:45:33.001Z</time></trkpt><trkpt lat="42.78536612756854" lon="11.541298516181923"><ele>694.0</ele><time>2026-04-12T13:45:34.001Z</time></trkpt><trkpt lat="42.785530418951005" lon="11.541344692348883"><ele>696.0</ele><time>2026-04-12T13:45:35.001Z</time></trkpt><trkpt lat="42.78570984272477" lon="11.54137110544402"><ele>698.0</ele><time>2026-04-12T13:45:36.001Z</time></trkpt><trkpt lat="42.785878635965325" lon="11.54147966427969"><ele>700.0</ele><time>2026-04-12T13:45:37.001Z</time></trkpt><trkpt lat="42.786050727885424" lon="11.541563978298727"><ele>703.0</ele><time>2026-04-12T13:45:38.001Z</time></trkpt><trkpt lat="42.786205354999744" lon="11.541669282925756"><ele>706.0</ele><time>2026-04-12T13:45:39.001Z</time></trkpt><trkpt lat="42.786367345388015" lon="11.541776337969756"><ele>709.0</ele><time>2026-04-12T13:45:40.001Z</time></trkpt><trkpt lat="42.78652563696213" lon="11.541875738289502"><ele>709.0</ele><time>2026-04-12T13:45:41.001Z</time></trkpt><trkpt lat="42.786677109332494" lon="11.541970247326171"><ele>709.0</ele><time>2026-04-12T13:45:42.001Z</time></trkpt><trkpt lat="42.78682657649167" lon="11.542076592119226"><ele>709.0</ele><time>2026-04-12T13:45:43.001Z</time></trkpt><trkpt lat="42.78696310905076" lon="11.542217962885871"><ele>711.3333333333334</ele><time>2026-04-12T13:45:44.001Z</time></trkpt><trkpt lat="42.7870909133183" lon="11.542368402326241"><ele>713.6666666666666</ele><time>2026-04-12T13:45:45.001Z</time></trkpt><trkpt lat="42.78720379202369" lon="11.542547987081397"><ele>716.0</ele><time>2026-04-12T13:45:46.001Z</time></trkpt><trkpt lat="42.78731448297913" lon="11.542736628422459"><ele>714.3333333333333</ele><time>2026-04-12T13:45:47.001Z</time></trkpt><trkpt lat="42.78743514572334" lon="11.54292207686852"><ele>712.6666666666666</ele><time>2026-04-12T13:45:48.001Z</time></trkpt><trkpt lat="42.787544971377386" lon="11.543112245179993"><ele>711.0</ele><time>2026-04-12T13:45:49.001Z</time></trkpt><trkpt lat="42.78764859002282" lon="11.543291683207292"><ele>714.6666666666666</ele><time>2026-04-12T13:45:50.001Z</time></trkpt><trkpt lat="42.787750591302434" lon="11.543464322777831"><ele>718.3333333333333</ele><time>2026-04-12T13:45:51.001Z</time></trkpt><trkpt lat="42.78784960746535" lon="11.543638762350042"><ele>722.0</ele><time>2026-04-12T13:45:52.001Z</time></trkpt><trkpt lat="42.787951186007035" lon="11.543813280403985"><ele>722.0</ele><time>2026-04-12T13:45:53.001Z</time></trkpt><trkpt lat="42.788050712528396" lon="11.543989170620844"><ele>722.0</ele><time>2026-04-12T13:45:54.001Z</time></trkpt><trkpt lat="42.78815645449842" lon="11.544159188496502"><ele>722.0</ele><time>2026-04-12T13:45:55.001Z</time></trkpt><trkpt lat="42.7882630584793" lon="11.544339949263016"><ele>722.0</ele><time>2026-04-12T13:45:56.001Z</time></trkpt><trkpt lat="42.788367461081975" lon="11.5445201116002"><ele>722.0</ele><time>2026-04-12T13:45:57.001Z</time></trkpt><trkpt lat="42.7884696752384" lon="11.544696819763884"><ele>722.0</ele><time>2026-04-12T13:45:58.001Z</time></trkpt><trkpt lat="42.78857387539289" lon="11.544873010858606"><ele>726.0</ele><time>2026-04-12T13:45:59.001Z</time></trkpt><trkpt lat="42.7886706619563" lon="11.545043429439136"><ele>730.0</ele><time>2026-04-12T13:46:00.001Z</time></trkpt><trkpt lat="42.78877232616571" lon="11.54522047626075"><ele>734.0</ele><time>2026-04-12T13:46:01.001Z</time></trkpt><trkpt lat="42.788870138535046" lon="11.54538387331782"><ele>734.0</ele><time>2026-04-12T13:46:02.001Z</time></trkpt><trkpt lat="42.788963948544506" lon="11.545540321937107"><ele>734.0</ele><time>2026-04-12T13:46:03.001Z</time></trkpt><trkpt lat="42.78903761934575" lon="11.54570901058687"><ele>734.0</ele><time>2026-04-12T13:46:04.001Z</time></trkpt><trkpt lat="42.78911159063163" lon="11.545881830210435"><ele>734.0</ele><time>2026-04-12T13:46:05.001Z</time></trkpt><trkpt lat="42.78915266851144" lon="11.546056483429059"><ele>734.25</ele><time>2026-04-12T13:46:06.001Z</time></trkpt><trkpt lat="42.789173739188726" lon="11.546233742252449"><ele>734.5</ele><time>2026-04-12T13:46:07.001Z</time></trkpt><trkpt lat="42.789191699187576" lon="11.546438231977543"><ele>734.75</ele><time>2026-04-12T13:46:08.001Z</time></trkpt><trkpt lat="42.78922621440017" lon="11.54663621254715"><ele>735.0</ele><time>2026-04-12T13:46:09.001Z</time></trkpt><trkpt lat="42.789289670748914" lon="11.546826845510601"><ele>741.0</ele><time>2026-04-12T13:46:10.002Z</time></trkpt><trkpt lat="42.789398435133165" lon="11.546985958740041"><ele>747.0</ele><time>2026-04-12T13:46:11.002Z</time></trkpt><trkpt lat="42.78952612380594" lon="11.547114768421602"><ele>753.0</ele><time>2026-04-12T13:46:12.002Z</time></trkpt><trkpt lat="42.78966490657821" lon="11.547218241471521"><ele>753.0</ele><time>2026-04-12T13:46:13.002Z</time></trkpt><trkpt lat="42.78978660259811" lon="11.547308412385458"><ele>753.0</ele><time>2026-04-12T13:46:14.002Z</time></trkpt><trkpt lat="42.789866306481095" lon="11.547443641893981"><ele>753.0</ele><time>2026-04-12T13:46:15.002Z</time></trkpt><trkpt lat="42.78990868268892" lon="11.547593536090634"><ele>753.0</ele><time>2026-04-12T13:46:16.002Z</time></trkpt><trkpt lat="42.789923152099526" lon="11.547768314448787"><ele>754.25</ele><time>2026-04-12T13:46:17.002Z</time></trkpt><trkpt lat="42.78988592073097" lon="11.547938387666257"><ele>755.5</ele><time>2026-04-12T13:46:18.002Z</time></trkpt><trkpt lat="42.78980328936066" lon="11.548087857733458"><ele>756.75</ele><time>2026-04-12T13:46:19.002Z</time></trkpt><trkpt lat="42.78972309904808" lon="11.548265259611519"><ele>758.0</ele><time>2026-04-12T13:46:20.002Z</time></trkpt><trkpt lat="42.789638415945184" lon="11.548447334406392"><ele>758.0</ele><time>2026-04-12T13:46:21.002Z</time></trkpt><trkpt lat="42.78954565432649" lon="11.548643564558562"><ele>758.0</ele><time>2026-04-12T13:46:22.002Z</time></trkpt><trkpt lat="42.78945000475024" lon="11.548848639924461"><ele>758.0</ele><time>2026-04-12T13:46:23.002Z</time></trkpt><trkpt lat="42.789363897699204" lon="11.549037827701282"><ele>756.75</ele><time>2026-04-12T13:46:24.002Z</time></trkpt><trkpt lat="42.78928732293033" lon="11.549207680374149"><ele>755.5</ele><time>2026-04-12T13:46:25.002Z</time></trkpt><trkpt lat="42.7892160717462" lon="11.549362315212255"><ele>754.25</ele><time>2026-04-12T13:46:26.002Z</time></trkpt><trkpt lat="42.789160817706104" lon="11.549524014615551"><ele>753.0</ele><time>2026-04-12T13:46:27.002Z</time></trkpt><trkpt lat="42.78909074073161" lon="11.549662615299003"><ele>753.0</ele><time>2026-04-12T13:46:28.002Z</time></trkpt><trkpt lat="42.78900665056581" lon="11.549799644131562"><ele>753.0</ele><time>2026-04-12T13:46:29.002Z</time></trkpt><trkpt lat="42.78894034194049" lon="11.549954288214257"><ele>753.0</ele><time>2026-04-12T13:46:30.002Z</time></trkpt><trkpt lat="42.78888115124701" lon="11.550091856279273"><ele>753.0</ele><time>2026-04-12T13:46:31.002Z</time></trkpt><trkpt lat="42.788841741982566" lon="11.550215313689787"><ele>753.0</ele><time>2026-04-12T13:46:32.002Z</time></trkpt><trkpt lat="42.788836454449495" lon="11.550357905651712"><ele>753.0</ele><time>2026-04-12T13:46:33.002Z</time></trkpt><trkpt lat="42.788878957284545" lon="11.550501333161257"><ele>753.0</ele><time>2026-04-12T13:46:34.002Z</time></trkpt><trkpt lat="42.78894596853187" lon="11.55059293402135"><ele>753.0</ele><time>2026-04-12T13:46:35.002Z</time></trkpt><trkpt lat="42.789013963304505" lon="11.55064009820123"><ele>753.0</ele><time>2026-04-12T13:46:36.002Z</time></trkpt><trkpt lat="42.78910384109037" lon="11.55074308507164"><ele>754.75</ele><time>2026-04-12T13:46:38.002Z</time></trkpt><trkpt lat="42.78906086055941" lon="11.550868410333928"><ele>756.5</ele><time>2026-04-12T13:46:39.002Z</time></trkpt><trkpt lat="42.789028349718194" lon="11.551002449315405"><ele>758.25</ele><time>2026-04-12T13:46:40.002Z</time></trkpt><trkpt lat="42.7889867651486" lon="11.551153787272472"><ele>760.0</ele><time>2026-04-12T13:46:41.002Z</time></trkpt><trkpt lat="42.788925878086474" lon="11.551318454623232"><ele>761.3333333333334</ele><time>2026-04-12T13:46:42.002Z</time></trkpt><trkpt lat="42.788837832813904" lon="11.551488785867118"><ele>762.6666666666666</ele><time>2026-04-12T13:46:43.002Z</time></trkpt><trkpt lat="42.788728877303186" lon="11.551667701434665"><ele>764.0</ele><time>2026-04-12T13:46:44.002Z</time></trkpt><trkpt lat="42.78864575773157" lon="11.551845392173693"><ele>764.0</ele><time>2026-04-12T13:46:45.002Z</time></trkpt><trkpt lat="42.78857569107588" lon="11.552011268596685"><ele>764.0</ele><time>2026-04-12T13:46:46.002Z</time></trkpt><trkpt lat="42.788540975332" lon="11.552182189183252"><ele>764.0</ele><time>2026-04-12T13:46:47.002Z</time></trkpt><trkpt lat="42.78855677466235" lon="11.55234387158771"><ele>764.0</ele><time>2026-04-12T13:46:48.002Z</time></trkpt><trkpt lat="42.788623952969" lon="11.552492157808958"><ele>765.5</ele><time>2026-04-12T13:46:49.003Z</time></trkpt><trkpt lat="42.78872256554396" lon="11.552602944314462"><ele>767.0</ele><time>2026-04-12T13:46:50.003Z</time></trkpt><trkpt lat="42.78877000785081" lon="11.552724017978099"><ele>768.5</ele><time>2026-04-12T13:46:51.003Z</time></trkpt><trkpt lat="42.788730216361365" lon="11.552868663501613"><ele>770.0</ele><time>2026-04-12T13:46:52.003Z</time></trkpt><trkpt lat="42.78871384330555" lon="11.553025804851234"><ele>770.4</ele><time>2026-04-12T13:46:53.003Z</time></trkpt><trkpt lat="42.78869566115172" lon="11.553187181173143"><ele>770.8</ele><time>2026-04-12T13:46:54.003Z</time></trkpt><trkpt lat="42.788681395190274" lon="11.553293392542802"><ele>771.2</ele><time>2026-04-12T13:46:55.003Z</time></trkpt><trkpt lat="42.78861527552841" lon="11.553457981105456"><ele>771.6</ele><time>2026-04-12T13:46:57.003Z</time></trkpt><trkpt lat="42.78851284505908" lon="11.553441797187942"><ele>772.0</ele><time>2026-04-12T13:46:58.003Z</time></trkpt><trkpt lat="42.78839757862911" lon="11.553422628686008"><ele>768.75</ele><time>2026-04-12T13:46:59.003Z</time></trkpt><trkpt lat="42.788263979923514" lon="11.553381390636225"><ele>765.5</ele><time>2026-04-12T13:47:00.003Z</time></trkpt><trkpt lat="42.78812151130637" lon="11.553382011770337"><ele>762.25</ele><time>2026-04-12T13:47:01.003Z</time></trkpt><trkpt lat="42.78796318557837" lon="11.55339027054592"><ele>759.0</ele><time>2026-04-12T13:47:02.003Z</time></trkpt><trkpt lat="42.787838526156634" lon="11.553436238157602"><ele>759.0</ele><time>2026-04-12T13:47:03.003Z</time></trkpt><trkpt lat="42.78771655677814" lon="11.55355372801176"><ele>759.0</ele><time>2026-04-12T13:47:04.003Z</time></trkpt><trkpt lat="42.78758980750115" lon="11.553704258712733"><ele>759.0</ele><time>2026-04-12T13:47:05Z</time></trkpt><trkpt lat="42.787470040672225" lon="11.553873018336018"><ele>759.0</ele><time>2026-04-12T13:47:06Z</time></trkpt><trkpt lat="42.78735607892573" lon="11.554017528527403"><ele>759.0</ele><time>2026-04-12T13:47:07Z</time></trkpt><trkpt lat="42.78727204204474" lon="11.554161467308278"><ele>759.0</ele><time>2026-04-12T13:47:08Z</time></trkpt><trkpt lat="42.78719731970095" lon="11.554305552703246"><ele>759.0</ele><time>2026-04-12T13:47:09Z</time></trkpt><trkpt lat="42.787115408693126" lon="11.554451456599788"><ele>758.75</ele><time>2026-04-12T13:47:10Z</time></trkpt><trkpt lat="42.78703210747854" lon="11.554572811701185"><ele>758.5</ele><time>2026-04-12T13:47:11Z</time></trkpt><trkpt lat="42.786930108007944" lon="11.55466658269848"><ele>758.25</ele><time>2026-04-12T13:47:12Z</time></trkpt><trkpt lat="42.78682487400872" lon="11.554752803449103"><ele>758.0</ele><time>2026-04-12T13:47:13Z</time></trkpt><trkpt lat="42.78671188066385" lon="11.554833717383373"><ele>758.0</ele><time>2026-04-12T13:47:14Z</time></trkpt><trkpt lat="42.786596991167116" lon="11.554940987775439"><ele>758.0</ele><time>2026-04-12T13:47:15Z</time></trkpt><trkpt lat="42.786489797533854" lon="11.555086154149926"><ele>758.0</ele><time>2026-04-12T13:47:16Z</time></trkpt><trkpt lat="42.7863551550836" lon="11.555203125590708"><ele>758.0</ele><time>2026-04-12T13:47:17Z</time></trkpt><trkpt lat="42.78623767548643" lon="11.55532148092642"><ele>758.0</ele><time>2026-04-12T13:47:18Z</time></trkpt><trkpt lat="42.786126743281756" lon="11.555427507089757"><ele>758.0</ele><time>2026-04-12T13:47:19Z</time></trkpt><trkpt lat="42.786029042737134" lon="11.555511374721547"><ele>758.0</ele><time>2026-04-12T13:47:20Z</time></trkpt><trkpt lat="42.78592875859659" lon="11.555555210990965"><ele>759.25</ele><time>2026-04-12T13:47:21Z</time></trkpt><trkpt lat="42.78580446941835" lon="11.555528707170026"><ele>760.5</ele><time>2026-04-12T13:47:22Z</time></trkpt><trkpt lat="42.78566107270266" lon="11.555490869384219"><ele>761.75</ele><time>2026-04-12T13:47:23Z</time></trkpt><trkpt lat="42.78552279236674" lon="11.555493417829817"><ele>763.0</ele><time>2026-04-12T13:47:24Z</time></trkpt><trkpt lat="42.78539636041575" lon="11.555561001042612"><ele>763.0</ele><time>2026-04-12T13:47:25Z</time></trkpt><trkpt lat="42.78527496396246" lon="11.555589924450434"><ele>763.0</ele><time>2026-04-12T13:47:26Z</time></trkpt><trkpt lat="42.785155121888096" lon="11.555593392957906"><ele>763.0</ele><time>2026-04-12T13:47:27Z</time></trkpt><trkpt lat="42.78503763546584" lon="11.555535646475768"><ele>763.0</ele><time>2026-04-12T13:47:28Z</time></trkpt><trkpt lat="42.78490011001322" lon="11.555458156998498"><ele>759.6666666666667</ele><time>2026-04-12T13:47:29Z</time></trkpt><trkpt lat="42.78474906470547" lon="11.555365738770945"><ele>756.3333333333334</ele><time>2026-04-12T13:47:30Z</time></trkpt><trkpt lat="42.7846025569342" lon="11.555262447283392"><ele>753.0</ele><time>2026-04-12T13:47:31Z</time></trkpt><trkpt lat="42.78445962552055" lon="11.555189584951464"><ele>754.0</ele><time>2026-04-12T13:47:32Z</time></trkpt><trkpt lat="42.78433867402527" lon="11.555091023079394"><ele>755.0</ele><time>2026-04-12T13:47:33Z</time></trkpt><trkpt lat="42.784221293261645" lon="11.554989254779848"><ele>756.0</ele><time>2026-04-12T13:47:34Z</time></trkpt><trkpt lat="42.784140701305446" lon="11.554858118317469"><ele>757.0</ele><time>2026-04-12T13:47:35Z</time></trkpt><trkpt lat="42.78407127307205" lon="11.55469409804366"><ele>755.25</ele><time>2026-04-12T13:47:36Z</time></trkpt><trkpt lat="42.784026513418745" lon="11.55450201657048"><ele>753.5</ele><time>2026-04-12T13:47:37Z</time></trkpt><trkpt lat="42.783965308537574" lon="11.554367540368336"><ele>751.75</ele><time>2026-04-12T13:47:38Z</time></trkpt><trkpt lat="42.783880648841055" lon="11.554278580088207"><ele>750.0</ele><time>2026-04-12T13:47:39Z</time></trkpt><trkpt lat="42.783778220958844" lon="11.55425794045026"><ele>750.0</ele><time>2026-04-12T13:47:40.001Z</time></trkpt><trkpt lat="42.78366426304469" lon="11.554313557117368"><ele>750.0</ele><time>2026-04-12T13:47:41.001Z</time></trkpt><trkpt lat="42.78355343047362" lon="11.554448719485924"><ele>750.0</ele><time>2026-04-12T13:47:42.001Z</time></trkpt><trkpt lat="42.783432627167045" lon="11.554575638407709"><ele>750.0</ele><time>2026-04-12T13:47:43.001Z</time></trkpt><trkpt lat="42.78331759683781" lon="11.554682539369361"><ele>752.0</ele><time>2026-04-12T13:47:44.001Z</time></trkpt><trkpt lat="42.78320623375623" lon="11.554761273033112"><ele>754.0</ele><time>2026-04-12T13:47:45.001Z</time></trkpt><trkpt lat="42.78307756331367" lon="11.554801890250523"><ele>756.0</ele><time>2026-04-12T13:47:46.001Z</time></trkpt><trkpt lat="42.782918725298266" lon="11.554801103925538"><ele>758.0</ele><time>2026-04-12T13:47:47.001Z</time></trkpt><trkpt lat="42.78274984502133" lon="11.554768664059914"><ele>757.3333333333333</ele><time>2026-04-12T13:47:48.001Z</time></trkpt><trkpt lat="42.782581161392365" lon="11.554719747050658"><ele>756.6666666666666</ele><time>2026-04-12T13:47:49.001Z</time></trkpt><trkpt lat="42.78243086634871" lon="11.55467623522968"><ele>756.0</ele><time>2026-04-12T13:47:50.001Z</time></trkpt><trkpt lat="42.782277783418344" lon="11.554650334705677"><ele>756.0</ele><time>2026-04-12T13:47:51.001Z</time></trkpt><trkpt lat="42.78212695293218" lon="11.554602571926747"><ele>756.0</ele><time>2026-04-12T13:47:52.001Z</time></trkpt><trkpt lat="42.78198263755716" lon="11.554565449344496"><ele>756.0</ele><time>2026-04-12T13:47:53.001Z</time></trkpt><trkpt lat="42.78183754290033" lon="11.554545574185944"><ele>756.0</ele><time>2026-04-12T13:47:54.001Z</time></trkpt><trkpt lat="42.781687088994005" lon="11.554572663682746"><ele>756.3333333333334</ele><time>2026-04-12T13:47:55.001Z</time></trkpt><trkpt lat="42.78153996513491" lon="11.554668109945878"><ele>756.6666666666667</ele><time>2026-04-12T13:47:56.001Z</time></trkpt><trkpt lat="42.781400731222206" lon="11.554801282563975"><ele>757.0</ele><time>2026-04-12T13:47:57.001Z</time></trkpt><trkpt lat="42.78124788206543" lon="11.554863441342235"><ele>757.0</ele><time>2026-04-12T13:47:58.001Z</time></trkpt><trkpt lat="42.78111225465569" lon="11.554897166207649"><ele>757.0</ele><time>2026-04-12T13:47:59.001Z</time></trkpt><trkpt lat="42.78099114568119" lon="11.554859865991968"><ele>757.0</ele><time>2026-04-12T13:48:00.001Z</time></trkpt><trkpt lat="42.78090345752519" lon="11.554735571374197"><ele>757.0</ele><time>2026-04-12T13:48:01.001Z</time></trkpt><trkpt lat="42.78080713315704" lon="11.554677832683447"><ele>755.75</ele><time>2026-04-12T13:48:02.001Z</time></trkpt><trkpt lat="42.78072064043099" lon="11.554673271091563"><ele>754.5</ele><time>2026-04-12T13:48:03.001Z</time></trkpt><trkpt lat="42.780619338332684" lon="11.554754191455862"><ele>753.25</ele><time>2026-04-12T13:48:04.001Z</time></trkpt><trkpt lat="42.78053062873298" lon="11.55489590076284"><ele>752.0</ele><time>2026-04-12T13:48:05.001Z</time></trkpt><trkpt lat="42.780456277122475" lon="11.555066701802536"><ele>752.0</ele><time>2026-04-12T13:48:06.001Z</time></trkpt><trkpt lat="42.78042216747492" lon="11.555247553896299"><ele>752.0</ele><time>2026-04-12T13:48:07.001Z</time></trkpt><trkpt lat="42.78039575892932" lon="11.555395702892927"><ele>752.0</ele><time>2026-04-12T13:48:08.001Z</time></trkpt><trkpt lat="42.78036773140725" lon="11.555505431225862"><ele>752.0</ele><time>2026-04-12T13:48:09.001Z</time></trkpt><trkpt lat="42.78032891017105" lon="11.555594415140392"><ele>752.0</ele><time>2026-04-12T13:48:10.001Z</time></trkpt><trkpt lat="42.78022894668548" lon="11.555601974255561"><ele>750.75</ele><time>2026-04-12T13:48:11.001Z</time></trkpt><trkpt lat="42.78011420334797" lon="11.555522415707236"><ele>749.5</ele><time>2026-04-12T13:48:12.001Z</time></trkpt><trkpt lat="42.78005322545656" lon="11.55533389817463"><ele>748.25</ele><time>2026-04-12T13:48:13.001Z</time></trkpt><trkpt lat="42.779987856804475" lon="11.5551316124797"><ele>747.0</ele><time>2026-04-12T13:48:14.001Z</time></trkpt><trkpt lat="42.779913536003754" lon="11.55492440133096"><ele>746.3333333333334</ele><time>2026-04-12T13:48:15.001Z</time></trkpt><trkpt lat="42.779833430078526" lon="11.55471705335249"><ele>745.6666666666667</ele><time>2026-04-12T13:48:16.001Z</time></trkpt><trkpt lat="42.779722951486164" lon="11.554536759777184"><ele>745.0</ele><time>2026-04-12T13:48:17.002Z</time></trkpt><trkpt lat="42.77961511660181" lon="11.554382441637038"><ele>744.5</ele><time>2026-04-12T13:48:18.002Z</time></trkpt><trkpt lat="42.77951845596569" lon="11.554253891054117"><ele>744.0</ele><time>2026-04-12T13:48:19.002Z</time></trkpt><trkpt lat="42.77942620689145" lon="11.55413997869503"><ele>743.5</ele><time>2026-04-12T13:48:20.002Z</time></trkpt><trkpt lat="42.77932115965067" lon="11.554068711009561"><ele>743.0</ele><time>2026-04-12T13:48:21.002Z</time></trkpt><trkpt lat="42.77919161024757" lon="11.554054498035661"><ele>743.0</ele><time>2026-04-12T13:48:22.002Z</time></trkpt><trkpt lat="42.77903939429254" lon="11.554095219938006"><ele>743.0</ele><time>2026-04-12T13:48:23.002Z</time></trkpt><trkpt lat="42.778884038870956" lon="11.554188127811457"><ele>743.0</ele><time>2026-04-12T13:48:24.002Z</time></trkpt><trkpt lat="42.77872673184137" lon="11.554308655236577"><ele>743.0</ele><time>2026-04-12T13:48:25.002Z</time></trkpt><trkpt lat="42.778570410505736" lon="11.554466011157212"><ele>743.0</ele><time>2026-04-12T13:48:26.002Z</time></trkpt><trkpt lat="42.778385549226144" lon="11.554560166908654"><ele>743.0</ele><time>2026-04-12T13:48:27.002Z</time></trkpt><trkpt lat="42.77820992960655" lon="11.554582766762925"><ele>741.6666666666666</ele><time>2026-04-12T13:48:28.002Z</time></trkpt><trkpt lat="42.77802124271692" lon="11.554611425423131"><ele>740.3333333333334</ele><time>2026-04-12T13:48:29.002Z</time></trkpt><trkpt lat="42.77784426866408" lon="11.554666717946299"><ele>739.0</ele><time>2026-04-12T13:48:30.002Z</time></trkpt><trkpt lat="42.777669377847225" lon="11.554699313974861"><ele>739.0</ele><time>2026-04-12T13:48:31.002Z</time></trkpt><trkpt lat="42.77749003266092" lon="11.554714356338998"><ele>739.0</ele><time>2026-04-12T13:48:32.002Z</time></trkpt><trkpt lat="42.77731725467605" lon="11.554788147865505"><ele>739.0</ele><time>2026-04-12T13:48:33.002Z</time></trkpt><trkpt lat="42.77714402069992" lon="11.554831307878734"><ele>739.0</ele><time>2026-04-12T13:48:34.002Z</time></trkpt><trkpt lat="42.77698567317226" lon="11.55487166851503"><ele>739.0</ele><time>2026-04-12T13:48:35.002Z</time></trkpt><trkpt lat="42.77683880960261" lon="11.554931739575308"><ele>739.0</ele><time>2026-04-12T13:48:36.002Z</time></trkpt><trkpt lat="42.77670005782351" lon="11.555035462214704"><ele>741.0</ele><time>2026-04-12T13:48:37.002Z</time></trkpt><trkpt lat="42.77656218093947" lon="11.555182207876381"><ele>743.0</ele><time>2026-04-12T13:48:38.002Z</time></trkpt><trkpt lat="42.77641441200793" lon="11.55532053234175"><ele>745.0</ele><time>2026-04-12T13:48:39.002Z</time></trkpt><trkpt lat="42.77627553664458" lon="11.555411807291092"><ele>744.0</ele><time>2026-04-12T13:48:40.002Z</time></trkpt><trkpt lat="42.77612214004723" lon="11.555463393038856"><ele>743.0</ele><time>2026-04-12T13:48:41.002Z</time></trkpt><trkpt lat="42.77594993664697" lon="11.55549965227987"><ele>742.0</ele><time>2026-04-12T13:48:42.002Z</time></trkpt><trkpt lat="42.77576862190987" lon="11.555537557103797"><ele>742.0</ele><time>2026-04-12T13:48:43.002Z</time></trkpt><trkpt lat="42.77558731929508" lon="11.555580703688234"><ele>742.0</ele><time>2026-04-12T13:48:44.002Z</time></trkpt><trkpt lat="42.77540268548404" lon="11.555636488604046"><ele>742.0</ele><time>2026-04-12T13:48:45.002Z</time></trkpt><trkpt lat="42.77522134231771" lon="11.555752484681877"><ele>744.0</ele><time>2026-04-12T13:48:46.002Z</time></trkpt><trkpt lat="42.77504547443708" lon="11.555834336549204"><ele>746.0</ele><time>2026-04-12T13:48:47.002Z</time></trkpt><trkpt lat="42.77488474719893" lon="11.555930898466476"><ele>748.0</ele><time>2026-04-12T13:48:48.002Z</time></trkpt><trkpt lat="42.77473196898495" lon="11.556022684732788"><ele>748.0</ele><time>2026-04-12T13:48:49.002Z</time></trkpt><trkpt lat="42.77456960017941" lon="11.556119532177329"><ele>748.0</ele><time>2026-04-12T13:48:50.002Z</time></trkpt><trkpt lat="42.774400546166866" lon="11.556216925807375"><ele>748.0</ele><time>2026-04-12T13:48:51.002Z</time></trkpt><trkpt lat="42.774220345398234" lon="11.556309936430893"><ele>746.3333333333334</ele><time>2026-04-12T13:48:52.002Z</time></trkpt><trkpt lat="42.77403717922969" lon="11.556376711918064"><ele>744.6666666666666</ele><time>2026-04-12T13:48:53.002Z</time></trkpt><trkpt lat="42.773855659474485" lon="11.556426253099659"><ele>743.0</ele><time>2026-04-12T13:48:54.002Z</time></trkpt><trkpt lat="42.77367007795184" lon="11.556436840895977"><ele>741.6666666666666</ele><time>2026-04-12T13:48:55.003Z</time></trkpt><trkpt lat="42.77348172427076" lon="11.55643358048212"><ele>740.3333333333334</ele><time>2026-04-12T13:48:56.003Z</time></trkpt><trkpt lat="42.773296947392566" lon="11.556427557956582"><ele>739.0</ele><time>2026-04-12T13:48:57.003Z</time></trkpt><trkpt lat="42.773117696063395" lon="11.556422071119412"><ele>739.0</ele><time>2026-04-12T13:48:58.003Z</time></trkpt><trkpt lat="42.7729404704007" lon="11.556417183590918"><ele>739.0</ele><time>2026-04-12T13:48:59.003Z</time></trkpt><trkpt lat="42.7727622800727" lon="11.556412269472926"><ele>739.0</ele><time>2026-04-12T13:49:00.003Z</time></trkpt><trkpt lat="42.77257966390367" lon="11.556408896390007"><ele>738.6666666666667</ele><time>2026-04-12T13:49:01.003Z</time></trkpt><trkpt lat="42.77241501274999" lon="11.556406012895836"><ele>738.3333333333334</ele><time>2026-04-12T13:49:02.003Z</time></trkpt><trkpt lat="42.77225727823429" lon="11.5563837294316"><ele>738.0</ele><time>2026-04-12T13:49:03.003Z</time></trkpt><trkpt lat="42.772105763110666" lon="11.556318417355296"><ele>739.3333333333334</ele><time>2026-04-12T13:49:04.003Z</time></trkpt><trkpt lat="42.771943488710974" lon="11.556202994698086"><ele>740.6666666666667</ele><time>2026-04-12T13:49:05.003Z</time></trkpt><trkpt lat="42.77177568936022" lon="11.55606280167906"><ele>742.0</ele><time>2026-04-12T13:49:06.003Z</time></trkpt><trkpt lat="42.77160323106956" lon="11.55594369932317"><ele>743.0</ele><time>2026-04-12T13:49:07.003Z</time></trkpt><trkpt lat="42.77145375456949" lon="11.555815666275995"><ele>744.0</ele><time>2026-04-12T13:49:08.003Z</time></trkpt><trkpt lat="42.77132137206395" lon="11.555706675407222"><ele>745.0</ele><time>2026-04-12T13:49:09.003Z</time></trkpt><trkpt lat="42.77120744160513" lon="11.555595172758142"><ele>745.0</ele><time>2026-04-12T13:49:10.003Z</time></trkpt><trkpt lat="42.7711043254418" lon="11.555478702527246"><ele>745.0</ele><time>2026-04-12T13:49:11Z</time></trkpt><trkpt lat="42.77103983232403" lon="11.555297405037246"><ele>745.0</ele><time>2026-04-12T13:49:12Z</time></trkpt><trkpt lat="42.77101806714105" lon="11.555077564185328"><ele>745.0</ele><time>2026-04-12T13:49:13Z</time></trkpt><trkpt lat="42.770980332687756" lon="11.554865327622812"><ele>746.3333333333334</ele><time>2026-04-12T13:49:14Z</time></trkpt><trkpt lat="42.770920844281704" lon="11.554657933739069"><ele>747.6666666666666</ele><time>2026-04-12T13:49:15Z</time></trkpt><trkpt lat="42.770821291081646" lon="11.554468717710254"><ele>749.0</ele><time>2026-04-12T13:49:16Z</time></trkpt><trkpt lat="42.770708470125385" lon="11.554291590641151"><ele>749.0</ele><time>2026-04-12T13:49:17Z</time></trkpt><trkpt lat="42.770583793971895" lon="11.55413876401777"><ele>749.0</ele><time>2026-04-12T13:49:18Z</time></trkpt><trkpt lat="42.77043133188314" lon="11.554023338007738"><ele>749.0</ele><time>2026-04-12T13:49:19Z</time></trkpt><trkpt lat="42.770252169158184" lon="11.553932621342495"><ele>749.3333333333333</ele><time>2026-04-12T13:49:20Z</time></trkpt><trkpt lat="42.77007433076569" lon="11.553875819854614"><ele>749.6666666666666</ele><time>2026-04-12T13:49:21Z</time></trkpt><trkpt lat="42.76991102850442" lon="11.553849204954039"><ele>750.0</ele><time>2026-04-12T13:49:22Z</time></trkpt><trkpt lat="42.76974398996007" lon="11.553853721079912"><ele>750.0</ele><time>2026-04-12T13:49:23Z</time></trkpt><trkpt lat="42.76959359029489" lon="11.553917488822023"><ele>750.0</ele><time>2026-04-12T13:49:24Z</time></trkpt><trkpt lat="42.76945163423724" lon="11.554034311135444"><ele>750.0</ele><time>2026-04-12T13:49:25Z</time></trkpt><trkpt lat="42.76930918521265" lon="11.554044385918148"><ele>751.0</ele><time>2026-04-12T13:49:26Z</time></trkpt><trkpt lat="42.769171154048145" lon="11.553999472317805"><ele>752.0</ele><time>2026-04-12T13:49:27Z</time></trkpt><trkpt lat="42.76902049374795" lon="11.553915408946837"><ele>753.0</ele><time>2026-04-12T13:49:28Z</time></trkpt><trkpt lat="42.76886973499702" lon="11.553842184761285"><ele>753.0</ele><time>2026-04-12T13:49:29Z</time></trkpt><trkpt lat="42.76873019349926" lon="11.553788187335696"><ele>753.0</ele><time>2026-04-12T13:49:30Z</time></trkpt><trkpt lat="42.768590464934746" lon="11.553769398911502"><ele>753.0</ele><time>2026-04-12T13:49:31Z</time></trkpt><trkpt lat="42.76846481507333" lon="11.553799624720376"><ele>753.0</ele><time>2026-04-12T13:49:32Z</time></trkpt><trkpt lat="42.768353528249236" lon="11.55390114261079"><ele>752.75</ele><time>2026-04-12T13:49:33Z</time></trkpt><trkpt lat="42.76825141711213" lon="11.554078770445765"><ele>752.5</ele><time>2026-04-12T13:49:34Z</time></trkpt><trkpt lat="42.7681333619602" lon="11.55418715664802"><ele>752.25</ele><time>2026-04-12T13:49:35Z</time></trkpt><trkpt lat="42.76799693802916" lon="11.554229458611237"><ele>752.0</ele><time>2026-04-12T13:49:36Z</time></trkpt><trkpt lat="42.76783028344852" lon="11.5542792114851"><ele>751.3333333333333</ele><time>2026-04-12T13:49:37Z</time></trkpt><trkpt lat="42.76766305509698" lon="11.554334223119321"><ele>750.6666666666666</ele><time>2026-04-12T13:49:38Z</time></trkpt><trkpt lat="42.76748801995567" lon="11.554380447811788"><ele>750.0</ele><time>2026-04-12T13:49:39Z</time></trkpt><trkpt lat="42.76731518846875" lon="11.554434078634747"><ele>750.0</ele><time>2026-04-12T13:49:40Z</time></trkpt><trkpt lat="42.7671310138882" lon="11.55449239456384"><ele>750.0</ele><time>2026-04-12T13:49:41Z</time></trkpt><trkpt lat="42.76696085832596" lon="11.55454981334975"><ele>750.0</ele><time>2026-04-12T13:49:42.001Z</time></trkpt><trkpt lat="42.76678541281315" lon="11.554574936750583"><ele>752.0</ele><time>2026-04-12T13:49:43.001Z</time></trkpt><trkpt lat="42.766617069401406" lon="11.55465120739685"><ele>754.0</ele><time>2026-04-12T13:49:44.001Z</time></trkpt><trkpt lat="42.76644957042578" lon="11.554698439633816"><ele>756.0</ele><time>2026-04-12T13:49:45.001Z</time></trkpt><trkpt lat="42.76628703244306" lon="11.55471648715161"><ele>756.0</ele><time>2026-04-12T13:49:46.001Z</time></trkpt><trkpt lat="42.76612920366399" lon="11.554724299991058"><ele>756.0</ele><time>2026-04-12T13:49:47.001Z</time></trkpt><trkpt lat="42.76598309875902" lon="11.55465226209035"><ele>756.0</ele><time>2026-04-12T13:49:48.001Z</time></trkpt><trkpt lat="42.765866063824255" lon="11.55453540044654"><ele>753.75</ele><time>2026-04-12T13:49:49.001Z</time></trkpt><trkpt lat="42.765742954549054" lon="11.554436354150976"><ele>751.5</ele><time>2026-04-12T13:49:50.001Z</time></trkpt><trkpt lat="42.765625571132674" lon="11.554337689645013"><ele>749.25</ele><time>2026-04-12T13:49:51.001Z</time></trkpt><trkpt lat="42.76547911650151" lon="11.554289571812836"><ele>747.0</ele><time>2026-04-12T13:49:52.001Z</time></trkpt><trkpt lat="42.76532504872242" lon="11.554292836690017"><ele>748.25</ele><time>2026-04-12T13:49:53.001Z</time></trkpt><trkpt lat="42.76518663293713" lon="11.554311343498371"><ele>749.5</ele><time>2026-04-12T13:49:54.001Z</time></trkpt><trkpt lat="42.765063726408364" lon="11.554323586534714"><ele>750.75</ele><time>2026-04-12T13:49:55.001Z</time></trkpt><trkpt lat="42.76494482912957" lon="11.554322392888798"><ele>752.0</ele><time>2026-04-12T13:49:56.001Z</time></trkpt><trkpt lat="42.76483095557076" lon="11.554322574158299"><ele>752.0</ele><time>2026-04-12T13:49:57.001Z</time></trkpt><trkpt lat="42.764718513859584" lon="11.554311099497482"><ele>752.0</ele><time>2026-04-12T13:49:58.001Z</time></trkpt><trkpt lat="42.76460892754946" lon="11.55423555270774"><ele>752.0</ele><time>2026-04-12T13:49:59.001Z</time></trkpt><trkpt lat="42.76446865169452" lon="11.55417404504087"><ele>752.0</ele><time>2026-04-12T13:50:00.001Z</time></trkpt><trkpt lat="42.7643355452615" lon="11.554095752087644"><ele>753.25</ele><time>2026-04-12T13:50:01.001Z</time></trkpt><trkpt lat="42.76420692317896" lon="11.554014232951427"><ele>754.5</ele><time>2026-04-12T13:50:02.001Z</time></trkpt><trkpt lat="42.764078787498846" lon="11.553932731593283"><ele>755.75</ele><time>2026-04-12T13:50:03.001Z</time></trkpt><trkpt lat="42.76396370413848" lon="11.553857295506196"><ele>757.0</ele><time>2026-04-12T13:50:04.001Z</time></trkpt><trkpt lat="42.763854161335566" lon="11.553791867239227"><ele>757.0</ele><time>2026-04-12T13:50:05.001Z</time></trkpt><trkpt lat="42.76375143439691" lon="11.553742237125018"><ele>757.0</ele><time>2026-04-12T13:50:06.001Z</time></trkpt><trkpt lat="42.76363330806806" lon="11.55374277210214"><ele>757.0</ele><time>2026-04-12T13:50:07.001Z</time></trkpt><trkpt lat="42.763511839178406" lon="11.553810649254112"><ele>757.0</ele><time>2026-04-12T13:50:08.001Z</time></trkpt><trkpt lat="42.76338344948972" lon="11.553817600001246"><ele>757.75</ele><time>2026-04-12T13:50:09.001Z</time></trkpt><trkpt lat="42.763269758331674" lon="11.5537766439111"><ele>758.5</ele><time>2026-04-12T13:50:10.001Z</time></trkpt><trkpt lat="42.763149956921396" lon="11.55373412592637"><ele>759.25</ele><time>2026-04-12T13:50:11.001Z</time></trkpt><trkpt lat="42.76305372214778" lon="11.55363542392953"><ele>760.0</ele><time>2026-04-12T13:50:12.001Z</time></trkpt><trkpt lat="42.762962350904274" lon="11.553576803255007"><ele>757.75</ele><time>2026-04-12T13:50:13.001Z</time></trkpt><trkpt lat="42.762872693559366" lon="11.553500133818872"><ele>755.5</ele><time>2026-04-12T13:50:14.001Z</time></trkpt><trkpt lat="42.76275986879181" lon="11.553441934063883"><ele>753.25</ele><time>2026-04-12T13:50:15.001Z</time></trkpt><trkpt lat="42.762635749654315" lon="11.5534145343866"><ele>751.0</ele><time>2026-04-12T13:50:16.001Z</time></trkpt><trkpt lat="42.76251137627826" lon="11.553409112705406"><ele>751.0</ele><time>2026-04-12T13:50:17.001Z</time></trkpt><trkpt lat="42.762388939813995" lon="11.553410660391888"><ele>751.0</ele><time>2026-04-12T13:50:18.001Z</time></trkpt><trkpt lat="42.76226364080384" lon="11.55343145719486"><ele>751.0</ele><time>2026-04-12T13:50:19.001Z</time></trkpt><trkpt lat="42.762144696495206" lon="11.553473265133915"><ele>751.0</ele><time>2026-04-12T13:50:20.001Z</time></trkpt><trkpt lat="42.76202723872215" lon="11.553539104348813"><ele>751.0</ele><time>2026-04-12T13:50:21.002Z</time></trkpt><trkpt lat="42.7619210188007" lon="11.553613975444186"><ele>751.0</ele><time>2026-04-12T13:50:22.002Z</time></trkpt><trkpt lat="42.76183036545793" lon="11.55369953239668"><ele>751.0</ele><time>2026-04-12T13:50:23.002Z</time></trkpt><trkpt lat="42.7617395457186" lon="11.553774103890337"><ele>751.0</ele><time>2026-04-12T13:50:24.002Z</time></trkpt><trkpt lat="42.7616776014373" lon="11.553883477765016"><ele>751.0</ele><time>2026-04-12T13:50:25.002Z</time></trkpt><trkpt lat="42.761629149265204" lon="11.553984893377557"><ele>752.3333333333334</ele><time>2026-04-12T13:50:26.002Z</time></trkpt><trkpt lat="42.76157943815618" lon="11.554071467180457"><ele>753.6666666666667</ele><time>2026-04-12T13:50:27.002Z</time></trkpt><trkpt lat="42.76151711879203" lon="11.55414283703458"><ele>755.0</ele><time>2026-04-12T13:50:28.002Z</time></trkpt><trkpt lat="42.76141661022009" lon="11.554124821901837"><ele>756.3333333333334</ele><time>2026-04-12T13:50:29.002Z</time></trkpt><trkpt lat="42.7613360899216" lon="11.554067777648608"><ele>757.6666666666666</ele><time>2026-04-12T13:50:30.002Z</time></trkpt><trkpt lat="42.7612743284761" lon="11.55401480357728"><ele>759.0</ele><time>2026-04-12T13:50:31.002Z</time></trkpt><trkpt lat="42.76121434807577" lon="11.553967827188368"><ele>759.0</ele><time>2026-04-12T13:50:32.002Z</time></trkpt><trkpt lat="42.76116105647857" lon="11.553921773219676"><ele>759.0</ele><time>2026-04-12T13:50:33.002Z</time></trkpt><trkpt lat="42.76110661074" lon="11.553876452574338"><ele>759.0</ele><time>2026-04-12T13:50:34.002Z</time></trkpt><trkpt lat="42.76105093996569" lon="11.553833181277987"><ele>759.0</ele><time>2026-04-12T13:50:35.002Z</time></trkpt><trkpt lat="42.76099150365727" lon="11.553787689511578"><ele>759.0</ele><time>2026-04-12T13:50:36.002Z</time></trkpt><trkpt lat="42.76093329285283" lon="11.553739557129738"><ele>759.0</ele><time>2026-04-12T13:50:37.002Z</time></trkpt><trkpt lat="42.76085463486104" lon="11.553709986206234"><ele>759.0</ele><time>2026-04-12T13:50:38.002Z</time></trkpt><trkpt lat="42.76075732154709" lon="11.553726438486276"><ele>759.0</ele><time>2026-04-12T13:50:39.002Z</time></trkpt><trkpt lat="42.76064733094369" lon="11.5537900194132"><ele>759.0</ele><time>2026-04-12T13:50:40.002Z</time></trkpt><trkpt lat="42.76058483585776" lon="11.553966200837516"><ele>759.0</ele><time>2026-04-12T13:50:41.002Z</time></trkpt><trkpt lat="42.76056364445054" lon="11.55415905066475"><ele>759.0</ele><time>2026-04-12T13:50:42.002Z</time></trkpt><trkpt lat="42.76060582795783" lon="11.554357645469967"><ele>759.0</ele><time>2026-04-12T13:50:43.002Z</time></trkpt><trkpt lat="42.76064719996737" lon="11.55451695511606"><ele>759.0</ele><time>2026-04-12T13:50:44.002Z</time></trkpt><trkpt lat="42.76067471746539" lon="11.554652650253832"><ele>759.0</ele><time>2026-04-12T13:50:45.002Z</time></trkpt><trkpt lat="42.760637501822316" lon="11.554803492882199"><ele>759.0</ele><time>2026-04-12T13:50:46.002Z</time></trkpt><trkpt lat="42.76057487399675" lon="11.554942622998647"><ele>759.8000000000001</ele><time>2026-04-12T13:50:47.002Z</time></trkpt><trkpt lat="42.760508306085576" lon="11.555057623452909"><ele>760.6</ele><time>2026-04-12T13:50:48.002Z</time></trkpt><trkpt lat="42.76045616092054" lon="11.55515006916202"><ele>761.4</ele><time>2026-04-12T13:50:49.002Z</time></trkpt><trkpt lat="42.7604003400353" lon="11.55526327716381"><ele>762.2</ele><time>2026-04-12T13:50:50.002Z</time></trkpt><trkpt lat="42.76033605856195" lon="11.555406122110906"><ele>763.0</ele><time>2026-04-12T13:50:51.002Z</time></trkpt><trkpt lat="42.760288984719146" lon="11.555574793694632"><ele>763.75</ele><time>2026-04-12T13:50:52.002Z</time></trkpt><trkpt lat="42.76026405041416" lon="11.555763480833953"><ele>764.5</ele><time>2026-04-12T13:50:53.002Z</time></trkpt><trkpt lat="42.76026121665898" lon="11.555961422224176"><ele>765.25</ele><time>2026-04-12T13:50:54.002Z</time></trkpt><trkpt lat="42.760256849178575" lon="11.556128163194192"><ele>766.0</ele><time>2026-04-12T13:50:55.002Z</time></trkpt><trkpt lat="42.760216876762804" lon="11.556256691154505"><ele>764.75</ele><time>2026-04-12T13:50:56.002Z</time></trkpt><trkpt lat="42.76017421600916" lon="11.55637561514657"><ele>763.5</ele><time>2026-04-12T13:50:57.002Z</time></trkpt><trkpt lat="42.76006763673624" lon="11.55640955921402"><ele>762.25</ele><time>2026-04-12T13:50:58.002Z</time></trkpt><trkpt lat="42.75994971933714" lon="11.556421927792032"><ele>761.0</ele><time>2026-04-12T13:50:59.003Z</time></trkpt><trkpt lat="42.759823158163705" lon="11.556324835123586"><ele>761.0</ele><time>2026-04-12T13:51:00.003Z</time></trkpt><trkpt lat="42.75967073168595" lon="11.556263919707442"><ele>761.0</ele><time>2026-04-12T13:51:01.003Z</time></trkpt><trkpt lat="42.7595139811757" lon="11.556190048563293"><ele>761.0</ele><time>2026-04-12T13:51:02.003Z</time></trkpt><trkpt lat="42.759354627180095" lon="11.556161368099067"><ele>756.75</ele><time>2026-04-12T13:51:03.003Z</time></trkpt><trkpt lat="42.759207185111244" lon="11.556141295457907"><ele>752.5</ele><time>2026-04-12T13:51:04.003Z</time></trkpt><trkpt lat="42.75906439033276" lon="11.556092512318257"><ele>748.25</ele><time>2026-04-12T13:51:05.003Z</time></trkpt><trkpt lat="42.758924547355356" lon="11.556100931791622"><ele>744.0</ele><time>2026-04-12T13:51:06.003Z</time></trkpt><trkpt lat="42.75878020799714" lon="11.556092334864532"><ele>744.0</ele><time>2026-04-12T13:51:07.003Z</time></trkpt><trkpt lat="42.75862370135256" lon="11.556112309409073"><ele>744.0</ele><time>2026-04-12T13:51:08.003Z</time></trkpt><trkpt lat="42.758476794364235" lon="11.55610345797986"><ele>744.0</ele><time>2026-04-12T13:51:09.003Z</time></trkpt><trkpt lat="42.75834289324547" lon="11.556117045756652"><ele>744.0</ele><time>2026-04-12T13:51:10.003Z</time></trkpt><trkpt lat="42.7582165437852" lon="11.556151043477572"><ele>744.25</ele><time>2026-04-12T13:51:11.003Z</time></trkpt><trkpt lat="42.75809206584113" lon="11.55614023867149"><ele>744.5</ele><time>2026-04-12T13:51:12.003Z</time></trkpt><trkpt lat="42.75797760856151" lon="11.556147818236596"><ele>744.75</ele><time>2026-04-12T13:51:13.003Z</time></trkpt><trkpt lat="42.75786658818101" lon="11.556150855010623"><ele>745.0</ele><time>2026-04-12T13:51:14.003Z</time></trkpt><trkpt lat="42.757758255794336" lon="11.556150347367458"><ele>744.6</ele><time>2026-04-12T13:51:15.003Z</time></trkpt><trkpt lat="42.75765313511526" lon="11.556142853378468"><ele>744.2</ele><time>2026-04-12T13:51:16.003Z</time></trkpt><trkpt lat="42.75755530866583" lon="11.556130161841413"><ele>743.8</ele><time>2026-04-12T13:51:17.001Z</time></trkpt><trkpt lat="42.75745961684957" lon="11.556148494724445"><ele>743.4</ele><time>2026-04-12T13:51:18.001Z</time></trkpt><trkpt lat="42.757367218894835" lon="11.556186046212217"><ele>743.0</ele><time>2026-04-12T13:51:19.001Z</time></trkpt><trkpt lat="42.757289986513214" lon="11.556295354443474"><ele>744.75</ele><time>2026-04-12T13:51:20.001Z</time></trkpt><trkpt lat="42.757242909659354" lon="11.556473998817001"><ele>746.5</ele><time>2026-04-12T13:51:21.001Z</time></trkpt><trkpt lat="42.75720323954319" lon="11.556671025245326"><ele>748.25</ele><time>2026-04-12T13:51:22.001Z</time></trkpt><trkpt lat="42.75712023245082" lon="11.556804675166706"><ele>750.0</ele><time>2026-04-12T13:51:23.001Z</time></trkpt><trkpt lat="42.7570600292781" lon="11.556871607552768"><ele>750.0</ele><time>2026-04-12T13:51:24.001Z</time></trkpt><trkpt lat="42.756987650627366" lon="11.556908707059272"><ele>750.0</ele><time>2026-04-12T13:51:25.001Z</time></trkpt><trkpt lat="42.75689836058118" lon="11.556866492398242"><ele>750.0</ele><time>2026-04-12T13:51:26.001Z</time></trkpt><trkpt lat="42.756821113309286" lon="11.556806085090571"><ele>750.0</ele><time>2026-04-12T13:51:27.001Z</time></trkpt><trkpt lat="42.75674574983963" lon="11.556821093061192"><ele>750.0</ele><time>2026-04-12T13:51:28.001Z</time></trkpt><trkpt lat="42.75668858580001" lon="11.556896867035146"><ele>750.0</ele><time>2026-04-12T13:51:29.001Z</time></trkpt><trkpt lat="42.75664882726486" lon="11.557024056237065"><ele>749.25</ele><time>2026-04-12T13:51:30.001Z</time></trkpt><trkpt lat="42.75664573894566" lon="11.557180478741756"><ele>748.5</ele><time>2026-04-12T13:51:31.001Z</time></trkpt><trkpt lat="42.75665189953944" lon="11.557329511156293"><ele>747.75</ele><time>2026-04-12T13:51:32.001Z</time></trkpt><trkpt lat="42.756630447851634" lon="11.55748729522339"><ele>747.0</ele><time>2026-04-12T13:51:33.001Z</time></trkpt><trkpt lat="42.75658916792826" lon="11.557632608867788"><ele>747.0</ele><time>2026-04-12T13:51:34.001Z</time></trkpt><trkpt lat="42.756504839137634" lon="11.557724947127848"><ele>747.0</ele><time>2026-04-12T13:51:35.001Z</time></trkpt><trkpt lat="42.7564331903" lon="11.557825278923607"><ele>747.0</ele><time>2026-04-12T13:51:36.001Z</time></trkpt><trkpt lat="42.756349202837264" lon="11.557919440846925"><ele>747.0</ele><time>2026-04-12T13:51:37.001Z</time></trkpt><trkpt lat="42.75624922947154" lon="11.558007295261259"><ele>747.0</ele><time>2026-04-12T13:51:38.001Z</time></trkpt><trkpt lat="42.756139202527265" lon="11.558073897771276"><ele>746.5</ele><time>2026-04-12T13:51:39.001Z</time></trkpt><trkpt lat="42.75601207084148" lon="11.558139749097302"><ele>746.0</ele><time>2026-04-12T13:51:40.001Z</time></trkpt><trkpt lat="42.755880312852675" lon="11.55819251691248"><ele>745.5</ele><time>2026-04-12T13:51:41.001Z</time></trkpt><trkpt lat="42.7557495736908" lon="11.558234529730619"><ele>745.0</ele><time>2026-04-12T13:51:42.001Z</time></trkpt><trkpt lat="42.75562754160837" lon="11.558264588413861"><ele>745.0</ele><time>2026-04-12T13:51:43.001Z</time></trkpt><trkpt lat="42.755512468066705" lon="11.558281814822882"><ele>745.0</ele><time>2026-04-12T13:51:44.001Z</time></trkpt><trkpt lat="42.75540004766379" lon="11.55826730980241"><ele>745.0</ele><time>2026-04-12T13:51:45.001Z</time></trkpt><trkpt lat="42.75528021344166" lon="11.55823914245466"><ele>745.0</ele><time>2026-04-12T13:51:46.001Z</time></trkpt><trkpt lat="42.75515618682115" lon="11.558208612000211"><ele>745.0</ele><time>2026-04-12T13:51:47.001Z</time></trkpt><trkpt lat="42.755036951703076" lon="11.558179309686684"><ele>745.0</ele><time>2026-04-12T13:51:48.001Z</time></trkpt><trkpt lat="42.75491373280711" lon="11.558149109837379"><ele>745.0</ele><time>2026-04-12T13:51:49.001Z</time></trkpt><trkpt lat="42.754784981345594" lon="11.558143345635468"><ele>745.0</ele><time>2026-04-12T13:51:50.001Z</time></trkpt><trkpt lat="42.754650407831285" lon="11.558138596119413"><ele>745.0</ele><time>2026-04-12T13:51:51.001Z</time></trkpt><trkpt lat="42.75449205279944" lon="11.558140035073256"><ele>745.0</ele><time>2026-04-12T13:51:52.001Z</time></trkpt><trkpt lat="42.754337237601376" lon="11.558162356741189"><ele>745.0</ele><time>2026-04-12T13:51:53.001Z</time></trkpt><trkpt lat="42.7541927633733" lon="11.55818469791196"><ele>742.5</ele><time>2026-04-12T13:51:54.001Z</time></trkpt><trkpt lat="42.75407423596277" lon="11.558230091379745"><ele>740.0</ele><time>2026-04-12T13:51:55.001Z</time></trkpt><trkpt lat="42.75395076614505" lon="11.558268974424255"><ele>737.5</ele><time>2026-04-12T13:51:56.001Z</time></trkpt><trkpt lat="42.753835096003044" lon="11.558319141776597"><ele>735.0</ele><time>2026-04-12T13:51:57.001Z</time></trkpt><trkpt lat="42.753749520781376" lon="11.55844918286958"><ele>735.0</ele><time>2026-04-12T13:51:58.001Z</time></trkpt><trkpt lat="42.753691462374576" lon="11.55859764971636"><ele>735.0</ele><time>2026-04-12T13:51:59.001Z</time></trkpt><trkpt lat="42.75367947538078" lon="11.558758528388632"><ele>735.0</ele><time>2026-04-12T13:52:00.001Z</time></trkpt><trkpt lat="42.753687017916896" lon="11.55892775043822"><ele>735.0</ele><time>2026-04-12T13:52:01.001Z</time></trkpt><trkpt lat="42.75371998374377" lon="11.559119035561313"><ele>735.6666666666666</ele><time>2026-04-12T13:52:02.001Z</time></trkpt><trkpt lat="42.75374672404984" lon="11.559325408695592"><ele>736.3333333333333</ele><time>2026-04-12T13:52:03.001Z</time></trkpt><trkpt lat="42.75377896434151" lon="11.559541967074285"><ele>737.0</ele><time>2026-04-12T13:52:04.001Z</time></trkpt><trkpt lat="42.75380285135683" lon="11.55975911549334"><ele>737.0</ele><time>2026-04-12T13:52:05.001Z</time></trkpt><trkpt lat="42.75378971672821" lon="11.559935470732619"><ele>737.0</ele><time>2026-04-12T13:52:06.001Z</time></trkpt><trkpt lat="42.75376480462916" lon="11.560102658936893"><ele>737.0</ele><time>2026-04-12T13:52:07.001Z</time></trkpt><trkpt lat="42.75368333043121" lon="11.560244840050455"><ele>737.0</ele><time>2026-04-12T13:52:08.001Z</time></trkpt><trkpt lat="42.75359499599409" lon="11.560402315589915"><ele>733.5</ele><time>2026-04-12T13:52:09.001Z</time></trkpt><trkpt lat="42.75351770812896" lon="11.560539515627516"><ele>730.0</ele><time>2026-04-12T13:52:10.001Z</time></trkpt><trkpt lat="42.753469576634146" lon="11.56066980106496"><ele>726.5</ele><time>2026-04-12T13:52:11.001Z</time></trkpt><trkpt lat="42.75342460976941" lon="11.560800272235387"><ele>723.0</ele><time>2026-04-12T13:52:12.001Z</time></trkpt><trkpt lat="42.75338431783823" lon="11.560951588490166"><ele>723.0</ele><time>2026-04-12T13:52:13.001Z</time></trkpt><trkpt lat="42.75332776490505" lon="11.561102156791831"><ele>723.0</ele><time>2026-04-12T13:52:14.002Z</time></trkpt><trkpt lat="42.7532833219626" lon="11.561253642057792"><ele>723.0</ele><time>2026-04-12T13:52:15.002Z</time></trkpt><trkpt lat="42.75323088996595" lon="11.56138527720782"><ele>723.0</ele><time>2026-04-12T13:52:16.002Z</time></trkpt><trkpt lat="42.75315715759794" lon="11.56150299488441"><ele>723.5</ele><time>2026-04-12T13:52:17.002Z</time></trkpt><trkpt lat="42.753057347781606" lon="11.561613553434897"><ele>724.0</ele><time>2026-04-12T13:52:18.002Z</time></trkpt><trkpt lat="42.75295744255286" lon="11.561750460512389"><ele>724.5</ele><time>2026-04-12T13:52:19.002Z</time></trkpt><trkpt lat="42.75284803232127" lon="11.561877368389974"><ele>725.0</ele><time>2026-04-12T13:52:20.002Z</time></trkpt><trkpt lat="42.752754519894964" lon="11.56204360000899"><ele>722.25</ele><time>2026-04-12T13:52:21.002Z</time></trkpt><trkpt lat="42.752687749212285" lon="11.562247602943344"><ele>719.5</ele><time>2026-04-12T13:52:22.002Z</time></trkpt><trkpt lat="42.75262387254288" lon="11.562419941673124"><ele>716.75</ele><time>2026-04-12T13:52:23.002Z</time></trkpt><trkpt lat="42.75255883938072" lon="11.562558821155895"><ele>714.0</ele><time>2026-04-12T13:52:24.002Z</time></trkpt><trkpt lat="42.75243002528387" lon="11.562635458293531"><ele>714.0</ele><time>2026-04-12T13:52:25.002Z</time></trkpt><trkpt lat="42.75227168311671" lon="11.56273078606853"><ele>714.0</ele><time>2026-04-12T13:52:26.002Z</time></trkpt><trkpt lat="42.7521066571014" lon="11.562837741655478"><ele>714.0</ele><time>2026-04-12T13:52:27.002Z</time></trkpt><trkpt lat="42.7519405082035" lon="11.562943899213735"><ele>711.0</ele><time>2026-04-12T13:52:28.002Z</time></trkpt><trkpt lat="42.751789931220664" lon="11.563053146452136"><ele>708.0</ele><time>2026-04-12T13:52:29.002Z</time></trkpt><trkpt lat="42.751652837422384" lon="11.563151533077361"><ele>705.0</ele><time>2026-04-12T13:52:30.002Z</time></trkpt><trkpt lat="42.75154470987626" lon="11.56323636517879"><ele>705.0</ele><time>2026-04-12T13:52:31.002Z</time></trkpt><trkpt lat="42.75143757131617" lon="11.563273514783479"><ele>705.0</ele><time>2026-04-12T13:52:32.002Z</time></trkpt><trkpt lat="42.75133029486189" lon="11.563303571033158"><ele>705.0</ele><time>2026-04-12T13:52:33.002Z</time></trkpt><trkpt lat="42.75122137917969" lon="11.563239901450608"><ele>705.0</ele><time>2026-04-12T13:52:34.002Z</time></trkpt><trkpt lat="42.751106429127226" lon="11.563166521421246"><ele>704.75</ele><time>2026-04-12T13:52:35.002Z</time></trkpt><trkpt lat="42.75100229973012" lon="11.563057305196901"><ele>704.5</ele><time>2026-04-12T13:52:36.002Z</time></trkpt><trkpt lat="42.75091573836972" lon="11.562918018068606"><ele>704.25</ele><time>2026-04-12T13:52:37.002Z</time></trkpt><trkpt lat="42.75082401866107" lon="11.562788965807773"><ele>704.0</ele><time>2026-04-12T13:52:38.002Z</time></trkpt><trkpt lat="42.75075703852144" lon="11.562667168540827"><ele>701.75</ele><time>2026-04-12T13:52:39.002Z</time></trkpt><trkpt lat="42.75066572791524" lon="11.562622672962657"><ele>699.5</ele><time>2026-04-12T13:52:40.002Z</time></trkpt><trkpt lat="42.75054809554248" lon="11.562625370622813"><ele>697.25</ele><time>2026-04-12T13:52:41.002Z</time></trkpt><trkpt lat="42.75042134487335" lon="11.56267538495731"><ele>695.0</ele><time>2026-04-12T13:52:42.002Z</time></trkpt><trkpt lat="42.7502764399914" lon="11.562764504330953"><ele>695.0</ele><time>2026-04-12T13:52:43.002Z</time></trkpt><trkpt lat="42.75013131435845" lon="11.562886852083771"><ele>695.0</ele><time>2026-04-12T13:52:44.002Z</time></trkpt><trkpt lat="42.750005594295146" lon="11.563044573439067"><ele>695.0</ele><time>2026-04-12T13:52:45.002Z</time></trkpt><trkpt lat="42.749896615944635" lon="11.563246896827641"><ele>695.0</ele><time>2026-04-12T13:52:46.002Z</time></trkpt><trkpt lat="42.749786684992856" lon="11.563442018351376"><ele>695.0</ele><time>2026-04-12T13:52:47.002Z</time></trkpt><trkpt lat="42.749705410358345" lon="11.563591709229772"><ele>695.0</ele><time>2026-04-12T13:52:48.002Z</time></trkpt><trkpt lat="42.74964384867947" lon="11.563696615448396"><ele>695.0</ele><time>2026-04-12T13:52:49.002Z</time></trkpt><trkpt lat="42.749539979994175" lon="11.56379258269133"><ele>695.0</ele><time>2026-04-12T13:52:51.002Z</time></trkpt><trkpt lat="42.749458471870696" lon="11.56374411698662"><ele>695.0</ele><time>2026-04-12T13:52:52.002Z</time></trkpt><trkpt lat="42.74939165428796" lon="11.563630747863378"><ele>695.0</ele><time>2026-04-12T13:52:53.002Z</time></trkpt><trkpt lat="42.749367531433535" lon="11.563458166163326"><ele>695.0</ele><time>2026-04-12T13:52:54.002Z</time></trkpt><trkpt lat="42.74931744108163" lon="11.563280564031942"><ele>692.6666666666666</ele><time>2026-04-12T13:52:55.002Z</time></trkpt><trkpt lat="42.74925368734903" lon="11.563101063720683"><ele>690.3333333333334</ele><time>2026-04-12T13:52:56.002Z</time></trkpt><trkpt lat="42.74915529665768" lon="11.562922042772728"><ele>688.0</ele><time>2026-04-12T13:52:57.002Z</time></trkpt><trkpt lat="42.74905258998358" lon="11.562752461643138"><ele>685.3333333333334</ele><time>2026-04-12T13:52:58.003Z</time></trkpt><trkpt lat="42.748949596075796" lon="11.562550379696185"><ele>682.6666666666666</ele><time>2026-04-12T13:52:59.003Z</time></trkpt><trkpt lat="42.748851165313816" lon="11.56233371270728"><ele>680.0</ele><time>2026-04-12T13:53:00.003Z</time></trkpt><trkpt lat="42.748768383042474" lon="11.56216901131921"><ele>680.0</ele><time>2026-04-12T13:53:01.003Z</time></trkpt><trkpt lat="42.74868830842472" lon="11.56205264754819"><ele>680.0</ele><time>2026-04-12T13:53:02.003Z</time></trkpt><trkpt lat="42.74859920777591" lon="11.561976414386889"><ele>680.0</ele><time>2026-04-12T13:53:03.003Z</time></trkpt><trkpt lat="42.74848851518876" lon="11.561944346875162"><ele>680.0</ele><time>2026-04-12T13:53:04.003Z</time></trkpt><trkpt lat="42.74834826522769" lon="11.561964371757673"><ele>679.0</ele><time>2026-04-12T13:53:05.003Z</time></trkpt><trkpt lat="42.7481883770426" lon="11.562025981631239"><ele>678.0</ele><time>2026-04-12T13:53:06.003Z</time></trkpt><trkpt lat="42.748032584999436" lon="11.562087700456322"><ele>677.0</ele><time>2026-04-12T13:53:07.003Z</time></trkpt><trkpt lat="42.74790746212568" lon="11.562124290325901"><ele>677.0</ele><time>2026-04-12T13:53:08.003Z</time></trkpt><trkpt lat="42.74781366459975" lon="11.562210065723157"><ele>677.0</ele><time>2026-04-12T13:53:09.003Z</time></trkpt><trkpt lat="42.74775074482595" lon="11.562363923579095"><ele>677.0</ele><time>2026-04-12T13:53:10.003Z</time></trkpt><trkpt lat="42.74770384399103" lon="11.562582004293443"><ele>677.0</ele><time>2026-04-12T13:53:11.003Z</time></trkpt><trkpt lat="42.74764339779887" lon="11.562799772888406"><ele>673.0</ele><time>2026-04-12T13:53:12.003Z</time></trkpt><trkpt lat="42.74759070976517" lon="11.563009331133332"><ele>669.0</ele><time>2026-04-12T13:53:13.003Z</time></trkpt><trkpt lat="42.74754760451965" lon="11.563206147494526"><ele>665.0</ele><time>2026-04-12T13:53:14.003Z</time></trkpt><trkpt lat="42.74748385089762" lon="11.563363342852718"><ele>661.0</ele><time>2026-04-12T13:53:15.003Z</time></trkpt><trkpt lat="42.74746018909399" lon="11.563508940892836"><ele>661.0</ele><time>2026-04-12T13:53:16.003Z</time></trkpt><trkpt lat="42.74741963079331" lon="11.563617837813581"><ele>661.0</ele><time>2026-04-12T13:53:17.003Z</time></trkpt><trkpt lat="42.747366983435235" lon="11.563701662421796"><ele>661.0</ele><time>2026-04-12T13:53:18.003Z</time></trkpt><trkpt lat="42.74727540193918" lon="11.563734707758995"><ele>661.0</ele><time>2026-04-12T13:53:19.003Z</time></trkpt><trkpt lat="42.7471765659772" lon="11.563696851854113"><ele>661.0</ele><time>2026-04-12T13:53:20.003Z</time></trkpt><trkpt lat="42.74710924007797" lon="11.563551599102295"><ele>661.0</ele><time>2026-04-12T13:53:21.003Z</time></trkpt><trkpt lat="42.74700784869484" lon="11.563413983344555"><ele>661.0</ele><time>2026-04-12T13:53:22.003Z</time></trkpt><trkpt lat="42.74693083774377" lon="11.56326939952865"><ele>661.0</ele><time>2026-04-12T13:53:23.001Z</time></trkpt><trkpt lat="42.74688626283681" lon="11.56314642652193"><ele>661.0</ele><time>2026-04-12T13:53:24.001Z</time></trkpt><trkpt lat="42.74689986167522" lon="11.563003468158957"><ele>661.0</ele><time>2026-04-12T13:53:25.001Z</time></trkpt><trkpt lat="42.746977456490576" lon="11.562864037671973"><ele>661.0</ele><time>2026-04-12T13:53:26.001Z</time></trkpt><trkpt lat="42.74705075019808" lon="11.56271406065285"><ele>661.0</ele><time>2026-04-12T13:53:27.001Z</time></trkpt><trkpt lat="42.74710537398391" lon="11.562594600007477"><ele>661.0</ele><time>2026-04-12T13:53:28.001Z</time></trkpt><trkpt lat="42.74710896643237" lon="11.56245828130088"><ele>661.0</ele><time>2026-04-12T13:53:29.001Z</time></trkpt><trkpt lat="42.747069465314596" lon="11.56233249302496"><ele>661.0</ele><time>2026-04-12T13:53:30.001Z</time></trkpt><trkpt lat="42.746986683637324" lon="11.562251162927872"><ele>661.0</ele><time>2026-04-12T13:53:31.001Z</time></trkpt><trkpt lat="42.74687701425957" lon="11.562215938827604"><ele>661.0</ele><time>2026-04-12T13:53:32.001Z</time></trkpt><trkpt lat="42.74674992265883" lon="11.562317591755237"><ele>656.5</ele><time>2026-04-12T13:53:33.001Z</time></trkpt><trkpt lat="42.74665214944264" lon="11.562524279322405"><ele>652.0</ele><time>2026-04-12T13:53:34.001Z</time></trkpt><trkpt lat="42.74658055597298" lon="11.562646090045192"><ele>647.5</ele><time>2026-04-12T13:53:35.001Z</time></trkpt><trkpt lat="42.74652290047147" lon="11.562728403615727"><ele>643.0</ele><time>2026-04-12T13:53:36.001Z</time></trkpt><trkpt lat="42.74645678802832" lon="11.562823543806001"><ele>643.0</ele><time>2026-04-12T13:53:37.001Z</time></trkpt><trkpt lat="42.74635081641094" lon="11.562839657366482"><ele>643.0</ele><time>2026-04-12T13:53:38.001Z</time></trkpt><trkpt lat="42.74624098166927" lon="11.562845358181631"><ele>643.0</ele><time>2026-04-12T13:53:39.001Z</time></trkpt><trkpt lat="42.74612546048614" lon="11.562770403267907"><ele>643.0</ele><time>2026-04-12T13:53:40.001Z</time></trkpt><trkpt lat="42.74602472104049" lon="11.562644250027413"><ele>639.3333333333334</ele><time>2026-04-12T13:53:41.001Z</time></trkpt><trkpt lat="42.7459656339266" lon="11.56246463750352"><ele>635.6666666666666</ele><time>2026-04-12T13:53:42.001Z</time></trkpt><trkpt lat="42.745911460722006" lon="11.562270872413201"><ele>632.0</ele><time>2026-04-12T13:53:43.001Z</time></trkpt><trkpt lat="42.745852483302485" lon="11.562069652897343"><ele>632.3333333333333</ele><time>2026-04-12T13:53:44.001Z</time></trkpt><trkpt lat="42.74580247043951" lon="11.561839741197927"><ele>632.6666666666666</ele><time>2026-04-12T13:53:45.001Z</time></trkpt><trkpt lat="42.74574491664451" lon="11.561619590098456"><ele>633.0</ele><time>2026-04-12T13:53:46.001Z</time></trkpt><trkpt lat="42.745698992300625" lon="11.561418765107554"><ele>633.0</ele><time>2026-04-12T13:53:47.001Z</time></trkpt><trkpt lat="42.745649689946376" lon="11.56123015334334"><ele>633.0</ele><time>2026-04-12T13:53:48.001Z</time></trkpt><trkpt lat="42.745583824365134" lon="11.561060283235028"><ele>633.0</ele><time>2026-04-12T13:53:49.001Z</time></trkpt><trkpt lat="42.74549988433266" lon="11.560921159694919"><ele>633.0</ele><time>2026-04-12T13:53:50.001Z</time></trkpt><trkpt lat="42.74539832445346" lon="11.560800137182545"><ele>632.75</ele><time>2026-04-12T13:53:51.001Z</time></trkpt><trkpt lat="42.74529457100105" lon="11.56069172257848"><ele>632.5</ele><time>2026-04-12T13:53:52.001Z</time></trkpt><trkpt lat="42.74519447560195" lon="11.56057984681287"><ele>632.25</ele><time>2026-04-12T13:53:53.001Z</time></trkpt><trkpt lat="42.74508490584803" lon="11.56046387567567"><ele>632.0</ele><time>2026-04-12T13:53:54.001Z</time></trkpt><trkpt lat="42.74496030556249" lon="11.560347997126133"><ele>633.0</ele><time>2026-04-12T13:53:55.001Z</time></trkpt><trkpt lat="42.74481763503376" lon="11.560254818494009"><ele>634.0</ele><time>2026-04-12T13:53:56.001Z</time></trkpt><trkpt lat="42.74464977328336" lon="11.560187784220515"><ele>635.0</ele><time>2026-04-12T13:53:57.001Z</time></trkpt><trkpt lat="42.74446487596417" lon="11.560140499557269"><ele>634.0</ele><time>2026-04-12T13:53:58.001Z</time></trkpt><trkpt lat="42.74425582240735" lon="11.560117362981044"><ele>633.0</ele><time>2026-04-12T13:53:59.001Z</time></trkpt><trkpt lat="42.744029682239606" lon="11.560063610962654"><ele>632.0</ele><time>2026-04-12T13:54:00.001Z</time></trkpt><trkpt lat="42.74382631862067" lon="11.560047355612273"><ele>632.0</ele><time>2026-04-12T13:54:01.001Z</time></trkpt><trkpt lat="42.743610418188965" lon="11.560038183544048"><ele>632.0</ele><time>2026-04-12T13:54:02.001Z</time></trkpt><trkpt lat="42.74339206599234" lon="11.560039878919818"><ele>632.0</ele><time>2026-04-12T13:54:03.001Z</time></trkpt><trkpt lat="42.74318995977517" lon="11.56004887790364"><ele>630.0</ele><time>2026-04-12T13:54:04.001Z</time></trkpt><trkpt lat="42.743011466014366" lon="11.560058835401271"><ele>628.0</ele><time>2026-04-12T13:54:05.001Z</time></trkpt><trkpt lat="42.74283898461757" lon="11.560076456713174"><ele>626.0</ele><time>2026-04-12T13:54:06.001Z</time></trkpt><trkpt lat="42.74266717220452" lon="11.560104379084986"><ele>626.0</ele><time>2026-04-12T13:54:07.001Z</time></trkpt><trkpt lat="42.74249100212074" lon="11.560130680130923"><ele>626.0</ele><time>2026-04-12T13:54:08.001Z</time></trkpt><trkpt lat="42.74231594571162" lon="11.560159250288178"><ele>626.0</ele><time>2026-04-12T13:54:09.001Z</time></trkpt><trkpt lat="42.74215003430261" lon="11.560211878221837"><ele>626.0</ele><time>2026-04-12T13:54:10.001Z</time></trkpt><trkpt lat="42.74198146777676" lon="11.560243754498948"><ele>626.0</ele><time>2026-04-12T13:54:11.001Z</time></trkpt><trkpt lat="42.7418122664481" lon="11.56027875443326"><ele>626.0</ele><time>2026-04-12T13:54:12.001Z</time></trkpt><trkpt lat="42.7416475368757" lon="11.560325794857288"><ele>623.3333333333333</ele><time>2026-04-12T13:54:13.001Z</time></trkpt><trkpt lat="42.74147579969088" lon="11.560405761227655"><ele>620.6666666666666</ele><time>2026-04-12T13:54:14.001Z</time></trkpt><trkpt lat="42.74130830488792" lon="11.56051091853157"><ele>618.0</ele><time>2026-04-12T13:54:15.001Z</time></trkpt><trkpt lat="42.74113567370496" lon="11.560584835477021"><ele>617.75</ele><time>2026-04-12T13:54:16.001Z</time></trkpt><trkpt lat="42.741001016073284" lon="11.560649714022658"><ele>617.5</ele><time>2026-04-12T13:54:17.001Z</time></trkpt><trkpt lat="42.7408755870132" lon="11.560682841223997"><ele>617.25</ele><time>2026-04-12T13:54:18.001Z</time></trkpt><trkpt lat="42.74074640255787" lon="11.560675052078686"><ele>617.0</ele><time>2026-04-12T13:54:19.001Z</time></trkpt><trkpt lat="42.74063144354344" lon="11.560628315435267"><ele>617.0</ele><time>2026-04-12T13:54:20.001Z</time></trkpt><trkpt lat="42.740535043792626" lon="11.560547793353903"><ele>617.0</ele><time>2026-04-12T13:54:21.002Z</time></trkpt><trkpt lat="42.74043975584978" lon="11.560453207247285"><ele>617.0</ele><time>2026-04-12T13:54:22.002Z</time></trkpt><trkpt lat="42.74038340946445" lon="11.560282936295941"><ele>617.0</ele><time>2026-04-12T13:54:23.002Z</time></trkpt><trkpt lat="42.740291877965284" lon="11.560122012679033"><ele>616.0</ele><time>2026-04-12T13:54:24.002Z</time></trkpt><trkpt lat="42.74019161702011" lon="11.559958913260816"><ele>615.0</ele><time>2026-04-12T13:54:25.002Z</time></trkpt><trkpt lat="42.740077312753414" lon="11.55979862800821"><ele>614.0</ele><time>2026-04-12T13:54:26.002Z</time></trkpt><trkpt lat="42.739973960792184" lon="11.559660099048983"><ele>614.0</ele><time>2026-04-12T13:54:27.002Z</time></trkpt><trkpt lat="42.73987553627557" lon="11.559538921832752"><ele>614.0</ele><time>2026-04-12T13:54:28.002Z</time></trkpt><trkpt lat="42.73977962767053" lon="11.559433670036782"><ele>614.0</ele><time>2026-04-12T13:54:29.002Z</time></trkpt><trkpt lat="42.739654042917095" lon="11.559377424256446"><ele>614.0</ele><time>2026-04-12T13:54:30.002Z</time></trkpt><trkpt lat="42.739509266982175" lon="11.559389834980626"><ele>615.5</ele><time>2026-04-12T13:54:31.002Z</time></trkpt><trkpt lat="42.73935423662024" lon="11.559456528458236"><ele>617.0</ele><time>2026-04-12T13:54:32.002Z</time></trkpt><trkpt lat="42.73921160519141" lon="11.559476104208857"><ele>618.5</ele><time>2026-04-12T13:54:33.002Z</time></trkpt><trkpt lat="42.73907794197921" lon="11.559470212724388"><ele>620.0</ele><time>2026-04-12T13:54:34.002Z</time></trkpt><trkpt lat="42.7389561396116" lon="11.559436619796006"><ele>620.0</ele><time>2026-04-12T13:54:35.002Z</time></trkpt><trkpt lat="42.73884271777984" lon="11.559340405250175"><ele>620.0</ele><time>2026-04-12T13:54:36.002Z</time></trkpt><trkpt lat="42.738710416130054" lon="11.559217730677444"><ele>620.0</ele><time>2026-04-12T13:54:37.002Z</time></trkpt><trkpt lat="42.738563360709236" lon="11.559090415978858"><ele>619.3333333333333</ele><time>2026-04-12T13:54:38.002Z</time></trkpt><trkpt lat="42.73840645570906" lon="11.558944149620267"><ele>618.6666666666666</ele><time>2026-04-12T13:54:39.002Z</time></trkpt><trkpt lat="42.73823072204616" lon="11.558800947033216"><ele>618.0</ele><time>2026-04-12T13:54:40.002Z</time></trkpt><trkpt lat="42.73806205486447" lon="11.558678786913864"><ele>618.0</ele><time>2026-04-12T13:54:41.002Z</time></trkpt><trkpt lat="42.737912104447425" lon="11.55854197210737"><ele>618.0</ele><time>2026-04-12T13:54:42.002Z</time></trkpt><trkpt lat="42.73774479499477" lon="11.55843595078434"><ele>618.0</ele><time>2026-04-12T13:54:43.002Z</time></trkpt><trkpt lat="42.73758292003896" lon="11.558302711185775"><ele>616.0</ele><time>2026-04-12T13:54:44.002Z</time></trkpt><trkpt lat="42.73740728490126" lon="11.558166105156646"><ele>614.0</ele><time>2026-04-12T13:54:45.002Z</time></trkpt><trkpt lat="42.73724403156633" lon="11.558014012910375"><ele>612.0</ele><time>2026-04-12T13:54:46.002Z</time></trkpt><trkpt lat="42.73707579229977" lon="11.557883694422545"><ele>611.3333333333334</ele><time>2026-04-12T13:54:47.002Z</time></trkpt><trkpt lat="42.7369044043416" lon="11.557773224366334"><ele>610.6666666666667</ele><time>2026-04-12T13:54:48.002Z</time></trkpt><trkpt lat="42.73674876352578" lon="11.557649986512716"><ele>610.0</ele><time>2026-04-12T13:54:49.002Z</time></trkpt><trkpt lat="42.73658696833618" lon="11.557521400214677"><ele>609.6666666666667</ele><time>2026-04-12T13:54:50.002Z</time></trkpt><trkpt lat="42.736423272125194" lon="11.557389461752079"><ele>609.3333333333334</ele><time>2026-04-12T13:54:51.002Z</time></trkpt><trkpt lat="42.736259406402006" lon="11.557263809531907"><ele>609.0</ele><time>2026-04-12T13:54:52.002Z</time></trkpt><trkpt lat="42.736097003871365" lon="11.557134814072686"><ele>609.0</ele><time>2026-04-12T13:54:53.002Z</time></trkpt><trkpt lat="42.7359510407593" lon="11.557017561679265"><ele>609.0</ele><time>2026-04-12T13:54:54.002Z</time></trkpt><trkpt lat="42.735811577874436" lon="11.556906150258769"><ele>609.0</ele><time>2026-04-12T13:54:55.002Z</time></trkpt><trkpt lat="42.735678630361114" lon="11.55678541255356"><ele>609.0</ele><time>2026-04-12T13:54:56.002Z</time></trkpt><trkpt lat="42.735554652947435" lon="11.556640268235022"><ele>609.0</ele><time>2026-04-12T13:54:57.002Z</time></trkpt><trkpt lat="42.73545720223749" lon="11.556450828809542"><ele>609.0</ele><time>2026-04-12T13:54:58.002Z</time></trkpt><trkpt lat="42.735347231230364" lon="11.55627044868361"><ele>609.6666666666666</ele><time>2026-04-12T13:54:59.002Z</time></trkpt><trkpt lat="42.73524081237188" lon="11.556084169728862"><ele>610.3333333333333</ele><time>2026-04-12T13:55:00.002Z</time></trkpt><trkpt lat="42.73510734353821" lon="11.555916068371456"><ele>611.0</ele><time>2026-04-12T13:55:01.002Z</time></trkpt><trkpt lat="42.73497178016476" lon="11.555773655267407"><ele>611.0</ele><time>2026-04-12T13:55:02.002Z</time></trkpt><trkpt lat="42.7348415535469" lon="11.55565944002945"><ele>611.0</ele><time>2026-04-12T13:55:03.002Z</time></trkpt><trkpt lat="42.734707507395804" lon="11.555564969644882"><ele>611.0</ele><time>2026-04-12T13:55:04.002Z</time></trkpt><trkpt lat="42.7345652155633" lon="11.555505317595053"><ele>611.0</ele><time>2026-04-12T13:55:05.002Z</time></trkpt><trkpt lat="42.73442384732685" lon="11.555488890269789"><ele>611.0</ele><time>2026-04-12T13:55:06.002Z</time></trkpt><trkpt lat="42.73429069304081" lon="11.555447764779649"><ele>611.0</ele><time>2026-04-12T13:55:07.002Z</time></trkpt><trkpt lat="42.734187640715135" lon="11.555335808408245"><ele>611.0</ele><time>2026-04-12T13:55:08.002Z</time></trkpt><trkpt lat="42.73408488791458" lon="11.555231449098887"><ele>611.5</ele><time>2026-04-12T13:55:09.002Z</time></trkpt><trkpt lat="42.73399703889" lon="11.555120404940517"><ele>612.0</ele><time>2026-04-12T13:55:10.002Z</time></trkpt><trkpt lat="42.73393248407316" lon="11.555002259017122"><ele>612.5</ele><time>2026-04-12T13:55:11.002Z</time></trkpt><trkpt lat="42.73387865763152" lon="11.55486226680464"><ele>613.0</ele><time>2026-04-12T13:55:12.002Z</time></trkpt><trkpt lat="42.733841968034795" lon="11.554683397729221"><ele>611.75</ele><time>2026-04-12T13:55:13.003Z</time></trkpt><trkpt lat="42.733812324564084" lon="11.554481096563661"><ele>610.5</ele><time>2026-04-12T13:55:14.003Z</time></trkpt><trkpt lat="42.73381679049932" lon="11.554301244888741"><ele>609.25</ele><time>2026-04-12T13:55:15.003Z</time></trkpt><trkpt lat="42.73378854951604" lon="11.55415176935326"><ele>608.0</ele><time>2026-04-12T13:55:16.003Z</time></trkpt><trkpt lat="42.73371978276931" lon="11.554047276190401"><ele>608.0</ele><time>2026-04-12T13:55:17.003Z</time></trkpt><trkpt lat="42.73360966059558" lon="11.553986420134486"><ele>608.0</ele><time>2026-04-12T13:55:18.003Z</time></trkpt><trkpt lat="42.73346211263563" lon="11.5539680486281"><ele>608.0</ele><time>2026-04-12T13:55:19.003Z</time></trkpt><trkpt lat="42.733297060774085" lon="11.553999554970297"><ele>608.0</ele><time>2026-04-12T13:55:20.003Z</time></trkpt><trkpt lat="42.73312900850904" lon="11.554073318814552"><ele>609.0</ele><time>2026-04-12T13:55:21.003Z</time></trkpt><trkpt lat="42.73296197817622" lon="11.554122120589204"><ele>610.0</ele><time>2026-04-12T13:55:22.003Z</time></trkpt><trkpt lat="42.73278473867123" lon="11.554152651040205"><ele>611.0</ele><time>2026-04-12T13:55:23.003Z</time></trkpt><trkpt lat="42.7326293438508" lon="11.554167169488004"><ele>611.25</ele><time>2026-04-12T13:55:24.003Z</time></trkpt><trkpt lat="42.7324924530447" lon="11.554171856919305"><ele>611.5</ele><time>2026-04-12T13:55:25.003Z</time></trkpt><trkpt lat="42.73236666290107" lon="11.554170242545316"><ele>611.75</ele><time>2026-04-12T13:55:26.003Z</time></trkpt><trkpt lat="42.73225025667652" lon="11.554151785211207"><ele>612.0</ele><time>2026-04-12T13:55:27.003Z</time></trkpt><trkpt lat="42.7321440255684" lon="11.554082678900409"><ele>612.0</ele><time>2026-04-12T13:55:28.003Z</time></trkpt><trkpt lat="42.73206694204451" lon="11.553944182760242"><ele>612.0</ele><time>2026-04-12T13:55:29.001Z</time></trkpt><trkpt lat="42.73202643535155" lon="11.553754540358065"><ele>612.0</ele><time>2026-04-12T13:55:30.001Z</time></trkpt><trkpt lat="42.731973756807974" lon="11.55353688885306"><ele>612.0</ele><time>2026-04-12T13:55:31.001Z</time></trkpt><trkpt lat="42.73194408186474" lon="11.553303683156111"><ele>611.3333333333334</ele><time>2026-04-12T13:55:32.001Z</time></trkpt><trkpt lat="42.73189316578509" lon="11.553073144150382"><ele>610.6666666666667</ele><time>2026-04-12T13:55:33.001Z</time></trkpt><trkpt lat="42.73185381014377" lon="11.552872520564232"><ele>610.0</ele><time>2026-04-12T13:55:34.001Z</time></trkpt><trkpt lat="42.73184332503699" lon="11.552698128483328"><ele>606.0</ele><time>2026-04-12T13:55:35.001Z</time></trkpt><trkpt lat="42.73189882536587" lon="11.552537130271842"><ele>602.0</ele><time>2026-04-12T13:55:36.001Z</time></trkpt><trkpt lat="42.73199226807793" lon="11.552408586290845"><ele>598.0</ele><time>2026-04-12T13:55:37.001Z</time></trkpt><trkpt lat="42.73209169959383" lon="11.552285208485781"><ele>594.0</ele><time>2026-04-12T13:55:38.001Z</time></trkpt><trkpt lat="42.7321952088812" lon="11.55220164419085"><ele>594.0</ele><time>2026-04-12T13:55:39.001Z</time></trkpt><trkpt lat="42.73225630775545" lon="11.55209805310617"><ele>594.0</ele><time>2026-04-12T13:55:40.001Z</time></trkpt><trkpt lat="42.7322685151817" lon="11.551963352573685"><ele>594.0</ele><time>2026-04-12T13:55:41.001Z</time></trkpt><trkpt lat="42.732224724693125" lon="11.55180403743291"><ele>594.0</ele><time>2026-04-12T13:55:42.001Z</time></trkpt><trkpt lat="42.73212411448802" lon="11.551649175963725"><ele>593.6666666666666</ele><time>2026-04-12T13:55:43.001Z</time></trkpt><trkpt lat="42.731994144646826" lon="11.551500985343075"><ele>593.3333333333333</ele><time>2026-04-12T13:55:44.001Z</time></trkpt><trkpt lat="42.73187046849144" lon="11.55131896983249"><ele>593.0</ele><time>2026-04-12T13:55:45.001Z</time></trkpt><trkpt lat="42.73175704600161" lon="11.551122240897211"><ele>593.0</ele><time>2026-04-12T13:55:46.001Z</time></trkpt><trkpt lat="42.73162255954426" lon="11.55093753451403"><ele>593.0</ele><time>2026-04-12T13:55:47.001Z</time></trkpt><trkpt lat="42.731479001316025" lon="11.550796900394007"><ele>593.0</ele><time>2026-04-12T13:55:48.001Z</time></trkpt><trkpt lat="42.7313423768848" lon="11.550700620568577"><ele>593.0</ele><time>2026-04-12T13:55:49.001Z</time></trkpt><trkpt lat="42.7312064463173" lon="11.550613595253072"><ele>593.0</ele><time>2026-04-12T13:55:50.001Z</time></trkpt><trkpt lat="42.73107948028351" lon="11.550539315510486"><ele>593.0</ele><time>2026-04-12T13:55:51.001Z</time></trkpt><trkpt lat="42.73094661917407" lon="11.550494777209487"><ele>593.0</ele><time>2026-04-12T13:55:52.001Z</time></trkpt><trkpt lat="42.73079473112554" lon="11.550492878779453"><ele>594.25</ele><time>2026-04-12T13:55:53.001Z</time></trkpt><trkpt lat="42.73063743863352" lon="11.55044952865384"><ele>595.5</ele><time>2026-04-12T13:55:54.001Z</time></trkpt><trkpt lat="42.73050532855453" lon="11.550382044352625"><ele>596.75</ele><time>2026-04-12T13:55:55.001Z</time></trkpt><trkpt lat="42.730382111989975" lon="11.550285999252372"><ele>598.0</ele><time>2026-04-12T13:55:56.001Z</time></trkpt><trkpt lat="42.7302525725137" lon="11.550202515706355"><ele>594.5</ele><time>2026-04-12T13:55:57.001Z</time></trkpt><trkpt lat="42.730127573997365" lon="11.5501546205262"><ele>591.0</ele><time>2026-04-12T13:55:58.001Z</time></trkpt><trkpt lat="42.72999497436555" lon="11.550157267155981"><ele>587.5</ele><time>2026-04-12T13:55:59.001Z</time></trkpt><trkpt lat="42.729854895154006" lon="11.550210930552836"><ele>584.0</ele><time>2026-04-12T13:56:00.001Z</time></trkpt><trkpt lat="42.72971180864605" lon="11.550311053839625"><ele>585.3333333333333</ele><time>2026-04-12T13:56:01.001Z</time></trkpt><trkpt lat="42.729570891032814" lon="11.550424160238698"><ele>586.6666666666666</ele><time>2026-04-12T13:56:02.001Z</time></trkpt><trkpt lat="42.72942280629953" lon="11.550533130062103"><ele>588.0</ele><time>2026-04-12T13:56:03.001Z</time></trkpt><trkpt lat="42.729271745816796" lon="11.550640551208724"><ele>588.0</ele><time>2026-04-12T13:56:04.001Z</time></trkpt><trkpt lat="42.729138216305444" lon="11.550735855516185"><ele>588.0</ele><time>2026-04-12T13:56:05.001Z</time></trkpt><trkpt lat="42.729014225076085" lon="11.55082717467195"><ele>588.0</ele><time>2026-04-12T13:56:06.001Z</time></trkpt><trkpt lat="42.728894266125955" lon="11.550915095759516"><ele>588.0</ele><time>2026-04-12T13:56:07.001Z</time></trkpt><trkpt lat="42.72878104596546" lon="11.551008932785546"><ele>588.0</ele><time>2026-04-12T13:56:08.001Z</time></trkpt><trkpt lat="42.72869460873609" lon="11.551126086394461"><ele>588.0</ele><time>2026-04-12T13:56:09.001Z</time></trkpt><trkpt lat="42.72863784941463" lon="11.551272075505416"><ele>588.0</ele><time>2026-04-12T13:56:10.001Z</time></trkpt><trkpt lat="42.72861101628014" lon="11.551426247396169"><ele>588.0</ele><time>2026-04-12T13:56:11.001Z</time></trkpt><trkpt lat="42.72861950020056" lon="11.551604790338448"><ele>588.6</ele><time>2026-04-12T13:56:12.001Z</time></trkpt><trkpt lat="42.728655842680375" lon="11.551777536759326"><ele>589.1999999999999</ele><time>2026-04-12T13:56:13.001Z</time></trkpt><trkpt lat="42.72863716623466" lon="11.55191962227668"><ele>589.8</ele><time>2026-04-12T13:56:14.001Z</time></trkpt><trkpt lat="42.728587869621215" lon="11.552043195254448"><ele>590.4</ele><time>2026-04-12T13:56:15.001Z</time></trkpt><trkpt lat="42.7285133549224" lon="11.55214435063846"><ele>591.0</ele><time>2026-04-12T13:56:16.001Z</time></trkpt><trkpt lat="42.728428653577964" lon="11.552237531935612"><ele>589.5</ele><time>2026-04-12T13:56:17.001Z</time></trkpt><trkpt lat="42.72830228478587" lon="11.55225727803676"><ele>588.0</ele><time>2026-04-12T13:56:18.001Z</time></trkpt><trkpt lat="42.728176956876084" lon="11.552221768722593"><ele>586.5</ele><time>2026-04-12T13:56:19.001Z</time></trkpt><trkpt lat="42.72806798563282" lon="11.552118141055725"><ele>585.0</ele><time>2026-04-12T13:56:20.001Z</time></trkpt><trkpt lat="42.72799515262097" lon="11.55193597032672"><ele>584.0</ele><time>2026-04-12T13:56:21.001Z</time></trkpt><trkpt lat="42.72790724068907" lon="11.551734568091057"><ele>583.0</ele><time>2026-04-12T13:56:22.001Z</time></trkpt><trkpt lat="42.72779694960796" lon="11.551546116956347"><ele>582.0</ele><time>2026-04-12T13:56:23.001Z</time></trkpt><trkpt lat="42.727698457461514" lon="11.55137117622415"><ele>578.75</ele><time>2026-04-12T13:56:24.001Z</time></trkpt><trkpt lat="42.72760863126006" lon="11.551203034201942"><ele>575.5</ele><time>2026-04-12T13:56:25.001Z</time></trkpt><trkpt lat="42.7275184606256" lon="11.551054841674684"><ele>572.25</ele><time>2026-04-12T13:56:26.001Z</time></trkpt><trkpt lat="42.72744200110875" lon="11.550935638969468"><ele>569.0</ele><time>2026-04-12T13:56:27.001Z</time></trkpt><trkpt lat="42.727340407542705" lon="11.550853989123523"><ele>569.0</ele><time>2026-04-12T13:56:28.001Z</time></trkpt><trkpt lat="42.72719757650765" lon="11.550835106638633"><ele>569.0</ele><time>2026-04-12T13:56:29.001Z</time></trkpt><trkpt lat="42.727042909674815" lon="11.550842672822618"><ele>569.0</ele><time>2026-04-12T13:56:30.001Z</time></trkpt><trkpt lat="42.7269008918994" lon="11.550853081927507"><ele>569.0</ele><time>2026-04-12T13:56:31.001Z</time></trkpt><trkpt lat="42.726777433327236" lon="11.550842336061084"><ele>569.2</ele><time>2026-04-12T13:56:32.001Z</time></trkpt><trkpt lat="42.726671267459025" lon="11.55081931838841"><ele>569.4</ele><time>2026-04-12T13:56:33.001Z</time></trkpt><trkpt lat="42.72660039101117" lon="11.550741475822834"><ele>569.6</ele><time>2026-04-12T13:56:34.001Z</time></trkpt><trkpt lat="42.72656929995384" lon="11.550594299019581"><ele>569.8</ele><time>2026-04-12T13:56:35.001Z</time></trkpt><trkpt lat="42.72658162935041" lon="11.55042382598495"><ele>570.0</ele><time>2026-04-12T13:56:36.001Z</time></trkpt><trkpt lat="42.72667702194308" lon="11.550278815082372"><ele>571.25</ele><time>2026-04-12T13:56:37.001Z</time></trkpt><trkpt lat="42.726776632758636" lon="11.550125153178715"><ele>572.5</ele><time>2026-04-12T13:56:38.001Z</time></trkpt><trkpt lat="42.72689954390344" lon="11.55000720700648"><ele>573.75</ele><time>2026-04-12T13:56:39.001Z</time></trkpt><trkpt lat="42.72701380840544" lon="11.549899211996888"><ele>575.0</ele><time>2026-04-12T13:56:40.001Z</time></trkpt><trkpt lat="42.72709869026217" lon="11.549779526901396"><ele>571.75</ele><time>2026-04-12T13:56:41.001Z</time></trkpt><trkpt lat="42.72715003437878" lon="11.54962440094124"><ele>568.5</ele><time>2026-04-12T13:56:42.001Z</time></trkpt><trkpt lat="42.727154894942935" lon="11.549414859936531"><ele>565.25</ele><time>2026-04-12T13:56:43.001Z</time></trkpt><trkpt lat="42.727125247255756" lon="11.549186724540386"><ele>562.0</ele><time>2026-04-12T13:56:44.002Z</time></trkpt><trkpt lat="42.727053050169395" lon="11.548969131603684"><ele>561.5</ele><time>2026-04-12T13:56:45.002Z</time></trkpt><trkpt lat="42.72697283583103" lon="11.548804594105288"><ele>561.0</ele><time>2026-04-12T13:56:46.002Z</time></trkpt><trkpt lat="42.726963074092076" lon="11.548640736736486"><ele>560.5</ele><time>2026-04-12T13:56:47.002Z</time></trkpt><trkpt lat="42.7269713708987" lon="11.548472628482685"><ele>560.0</ele><time>2026-04-12T13:56:48.002Z</time></trkpt><trkpt lat="42.72708186745032" lon="11.548308023652673"><ele>562.6666666666666</ele><time>2026-04-12T13:56:49.002Z</time></trkpt><trkpt lat="42.72719573959469" lon="11.548128566131483"><ele>565.3333333333334</ele><time>2026-04-12T13:56:50.002Z</time></trkpt><trkpt lat="42.72732330077469" lon="11.547981614870656"><ele>568.0</ele><time>2026-04-12T13:56:51.002Z</time></trkpt><trkpt lat="42.72741334818739" lon="11.547842316481235"><ele>569.75</ele><time>2026-04-12T13:56:52.002Z</time></trkpt><trkpt lat="42.727462472419006" lon="11.547706860124276"><ele>571.5</ele><time>2026-04-12T13:56:53.002Z</time></trkpt><trkpt lat="42.7274825334607" lon="11.547538969827505"><ele>573.25</ele><time>2026-04-12T13:56:54.002Z</time></trkpt><trkpt lat="42.72747343002318" lon="11.547338611672968"><ele>575.0</ele><time>2026-04-12T13:56:55.002Z</time></trkpt><trkpt lat="42.72742838536426" lon="11.547120011478198"><ele>574.3333333333333</ele><time>2026-04-12T13:56:56.002Z</time></trkpt><trkpt lat="42.727370788775325" lon="11.546909519160868"><ele>573.6666666666666</ele><time>2026-04-12T13:56:57.002Z</time></trkpt><trkpt lat="42.72737766525765" lon="11.546710786804399"><ele>573.0</ele><time>2026-04-12T13:56:58.002Z</time></trkpt><trkpt lat="42.72737168967485" lon="11.54651394477053"><ele>573.0</ele><time>2026-04-12T13:56:59.002Z</time></trkpt><trkpt lat="42.72741467409018" lon="11.546334967640377"><ele>573.0</ele><time>2026-04-12T13:57:00.002Z</time></trkpt><trkpt lat="42.72748820646846" lon="11.546155766884834"><ele>573.0</ele><time>2026-04-12T13:57:01.002Z</time></trkpt><trkpt lat="42.7275469471986" lon="11.545968318104904"><ele>573.0</ele><time>2026-04-12T13:57:02.002Z</time></trkpt><trkpt lat="42.727610710122796" lon="11.545809749412118"><ele>573.6</ele><time>2026-04-12T13:57:03.002Z</time></trkpt><trkpt lat="42.72765666624121" lon="11.545681386110573"><ele>574.1999999999999</ele><time>2026-04-12T13:57:04.002Z</time></trkpt><trkpt lat="42.7276986724881" lon="11.545560885852042"><ele>574.8</ele><time>2026-04-12T13:57:05.002Z</time></trkpt><trkpt lat="42.727759806920304" lon="11.545457725741102"><ele>575.4</ele><time>2026-04-12T13:57:06.002Z</time></trkpt><trkpt lat="42.72784228030359" lon="11.54535986114002"><ele>576.0</ele><time>2026-04-12T13:57:07.002Z</time></trkpt><trkpt lat="42.72794397081948" lon="11.54525950804121"><ele>577.3333333333334</ele><time>2026-04-12T13:57:08.002Z</time></trkpt><trkpt lat="42.72805137091103" lon="11.545144301664697"><ele>578.6666666666667</ele><time>2026-04-12T13:57:09.002Z</time></trkpt><trkpt lat="42.72817219160628" lon="11.545017843907319"><ele>580.0</ele><time>2026-04-12T13:57:10.002Z</time></trkpt><trkpt lat="42.72831499616108" lon="11.544885392162506"><ele>580.0</ele><time>2026-04-12T13:57:11.002Z</time></trkpt><trkpt lat="42.728457319818226" lon="11.544757359763047"><ele>580.0</ele><time>2026-04-12T13:57:12.002Z</time></trkpt><trkpt lat="42.728604170686616" lon="11.544624243205044"><ele>580.0</ele><time>2026-04-12T13:57:13.002Z</time></trkpt><trkpt lat="42.72873754288744" lon="11.54449117112937"><ele>583.0</ele><time>2026-04-12T13:57:14.002Z</time></trkpt><trkpt lat="42.72886889675619" lon="11.5443770927777"><ele>586.0</ele><time>2026-04-12T13:57:15.002Z</time></trkpt><trkpt lat="42.729030386735126" lon="11.544295137745966"><ele>589.0</ele><time>2026-04-12T13:57:16.002Z</time></trkpt><trkpt lat="42.72918794442935" lon="11.544182952597444"><ele>589.0</ele><time>2026-04-12T13:57:17.002Z</time></trkpt><trkpt lat="42.729345361110056" lon="11.544087026061872"><ele>589.0</ele><time>2026-04-12T13:57:18.002Z</time></trkpt><trkpt lat="42.729474441676786" lon="11.543963212952432"><ele>589.0</ele><time>2026-04-12T13:57:19.002Z</time></trkpt><trkpt lat="42.7295835367802" lon="11.543844784652006"><ele>587.75</ele><time>2026-04-12T13:57:20.002Z</time></trkpt><trkpt lat="42.729684878688985" lon="11.54372447306997"><ele>586.5</ele><time>2026-04-12T13:57:21.002Z</time></trkpt><trkpt lat="42.729772367541976" lon="11.543585767992417"><ele>585.25</ele><time>2026-04-12T13:57:22.002Z</time></trkpt><trkpt lat="42.729846868550446" lon="11.543441858329238"><ele>584.0</ele><time>2026-04-12T13:57:23.002Z</time></trkpt><trkpt lat="42.72991086235262" lon="11.543294456572452"><ele>584.0</ele><time>2026-04-12T13:57:24.002Z</time></trkpt><trkpt lat="42.729978161321334" lon="11.543151477138995"><ele>584.0</ele><time>2026-04-12T13:57:25.002Z</time></trkpt><trkpt lat="42.73005353404974" lon="11.54300915407123"><ele>584.0</ele><time>2026-04-12T13:57:26.002Z</time></trkpt><trkpt lat="42.73012047232363" lon="11.542850924381032"><ele>584.0</ele><time>2026-04-12T13:57:27.002Z</time></trkpt><trkpt lat="42.73017879462761" lon="11.542683228970416"><ele>585.25</ele><time>2026-04-12T13:57:28.002Z</time></trkpt><trkpt lat="42.73022320779097" lon="11.542493737786355"><ele>586.5</ele><time>2026-04-12T13:57:29.002Z</time></trkpt><trkpt lat="42.7302500896801" lon="11.542320308546781"><ele>587.75</ele><time>2026-04-12T13:57:30.002Z</time></trkpt><trkpt lat="42.73025920041155" lon="11.542153926020424"><ele>589.0</ele><time>2026-04-12T13:57:31.002Z</time></trkpt><trkpt lat="42.730261651528096" lon="11.542000121584767"><ele>589.0</ele><time>2026-04-12T13:57:32.002Z</time></trkpt><trkpt lat="42.73024322904823" lon="11.541846716618181"><ele>589.0</ele><time>2026-04-12T13:57:33.002Z</time></trkpt><trkpt lat="42.73020037245802" lon="11.541698972509502"><ele>589.0</ele><time>2026-04-12T13:57:34.002Z</time></trkpt><trkpt lat="42.73014877280836" lon="11.541555744836133"><ele>589.0</ele><time>2026-04-12T13:57:35.001Z</time></trkpt><trkpt lat="42.73011345532939" lon="11.541398104234101"><ele>589.4</ele><time>2026-04-12T13:57:36.001Z</time></trkpt><trkpt lat="42.73008076387792" lon="11.541263350588665"><ele>589.8</ele><time>2026-04-12T13:57:37.001Z</time></trkpt><trkpt lat="42.730062602029115" lon="11.541132912816394"><ele>590.2</ele><time>2026-04-12T13:57:38.001Z</time></trkpt><trkpt lat="42.73005610295773" lon="11.54099842361679"><ele>590.6</ele><time>2026-04-12T13:57:39.001Z</time></trkpt><trkpt lat="42.73005618567608" lon="11.540878328165276"><ele>591.0</ele><time>2026-04-12T13:57:40.001Z</time></trkpt><trkpt lat="42.73005622024878" lon="11.540763648568738"><ele>591.0</ele><time>2026-04-12T13:57:41.001Z</time></trkpt><trkpt lat="42.730051307125564" lon="11.54067301918079"><ele>591.0</ele><time>2026-04-12T13:57:42.001Z</time></trkpt><trkpt lat="42.73006256460271" lon="11.540549298645216"><ele>591.0</ele><time>2026-04-12T13:57:44.001Z</time></trkpt><trkpt lat="42.73002414692387" lon="11.540456991325232"><ele>591.0</ele><time>2026-04-12T13:57:46.001Z</time></trkpt><trkpt lat="42.72991810348094" lon="11.540559222885525"><ele>591.0</ele><time>2026-04-12T13:57:48.001Z</time></trkpt><trkpt lat="42.7298727267782" lon="11.540687821546166"><ele>591.0</ele><time>2026-04-12T13:57:49.001Z</time></trkpt><trkpt lat="42.72982500936165" lon="11.540819695406457"><ele>591.0</ele><time>2026-04-12T13:57:50.001Z</time></trkpt><trkpt lat="42.729769484283274" lon="11.540943614560392"><ele>591.0</ele><time>2026-04-12T13:57:51.001Z</time></trkpt><trkpt lat="42.729701189600405" lon="11.541054718613479"><ele>591.0</ele><time>2026-04-12T13:57:52.001Z</time></trkpt><trkpt lat="42.72962620051085" lon="11.541140977601817"><ele>591.0</ele><time>2026-04-12T13:57:53.001Z</time></trkpt><trkpt lat="42.72955230255463" lon="11.541230506573148"><ele>591.2</ele><time>2026-04-12T13:57:54.001Z</time></trkpt><trkpt lat="42.729484047867594" lon="11.54130692653691"><ele>591.4000000000001</ele><time>2026-04-12T13:57:55.001Z</time></trkpt><trkpt lat="42.72941408455634" lon="11.541371704658097"><ele>591.6</ele><time>2026-04-12T13:57:56.001Z</time></trkpt><trkpt lat="42.729337995703894" lon="11.541429422625917"><ele>591.8000000000001</ele><time>2026-04-12T13:57:57.001Z</time></trkpt><trkpt lat="42.7292542217034" lon="11.541480114367035"><ele>592.0</ele><time>2026-04-12T13:57:58.001Z</time></trkpt><trkpt lat="42.72914892247342" lon="11.541540026759673"><ele>590.5</ele><time>2026-04-12T13:57:59.001Z</time></trkpt><trkpt lat="42.729030912738345" lon="11.541606439831922"><ele>589.0</ele><time>2026-04-12T13:58:00.001Z</time></trkpt><trkpt lat="42.728902392479874" lon="11.541675876704785"><ele>587.5</ele><time>2026-04-12T13:58:01.001Z</time></trkpt><trkpt lat="42.72877821672574" lon="11.541742966273967"><ele>586.0</ele><time>2026-04-12T13:58:02.001Z</time></trkpt><trkpt lat="42.728668044921456" lon="11.541802524285108"><ele>586.0</ele><time>2026-04-12T13:58:03.001Z</time></trkpt><trkpt lat="42.728583020429504" lon="11.541868696587462"><ele>586.0</ele><time>2026-04-12T13:58:04.001Z</time></trkpt><trkpt lat="42.728499871804075" lon="11.541909460325266"><ele>586.0</ele><time>2026-04-12T13:58:05.001Z</time></trkpt><trkpt lat="42.7284186058854" lon="11.541930433742785"><ele>586.0</ele><time>2026-04-12T13:58:06.001Z</time></trkpt><trkpt lat="42.72835032890023" lon="11.541973585695937"><ele>586.0</ele><time>2026-04-12T13:58:07.001Z</time></trkpt><trkpt lat="42.72827532092729" lon="11.54198011382557"><ele>586.0</ele><time>2026-04-12T13:58:08.001Z</time></trkpt><trkpt lat="42.72819795790973" lon="11.541945676647007"><ele>584.25</ele><time>2026-04-12T13:58:09.001Z</time></trkpt><trkpt lat="42.72809521068507" lon="11.541885022334707"><ele>582.5</ele><time>2026-04-12T13:58:10.001Z</time></trkpt><trkpt lat="42.72799782262077" lon="11.541831276059275"><ele>580.75</ele><time>2026-04-12T13:58:11.001Z</time></trkpt><trkpt lat="42.727884884984505" lon="11.541759633293212"><ele>579.0</ele><time>2026-04-12T13:58:12.001Z</time></trkpt><trkpt lat="42.727765919608906" lon="11.54169432826544"><ele>578.5</ele><time>2026-04-12T13:58:13.001Z</time></trkpt><trkpt lat="42.72764042485964" lon="11.54161885110496"><ele>578.0</ele><time>2026-04-12T13:58:14.001Z</time></trkpt><trkpt lat="42.7275250845219" lon="11.541532882335577"><ele>577.5</ele><time>2026-04-12T13:58:15.001Z</time></trkpt><trkpt lat="42.72739747741211" lon="11.541455821396074"><ele>577.0</ele><time>2026-04-12T13:58:16.001Z</time></trkpt><trkpt lat="42.727268855497776" lon="11.541394011944261"><ele>577.0</ele><time>2026-04-12T13:58:17.001Z</time></trkpt><trkpt lat="42.7271458172453" lon="11.541364149598172"><ele>577.0</ele><time>2026-04-12T13:58:18.001Z</time></trkpt><trkpt lat="42.727030082966856" lon="11.541365102812621"><ele>577.0</ele><time>2026-04-12T13:58:19.001Z</time></trkpt><trkpt lat="42.726911958819" lon="11.54140139168869"><ele>577.0</ele><time>2026-04-12T13:58:20.001Z</time></trkpt><trkpt lat="42.726790548263274" lon="11.541473659212665"><ele>575.75</ele><time>2026-04-12T13:58:21.001Z</time></trkpt><trkpt lat="42.72667483612175" lon="11.541563582811616"><ele>574.5</ele><time>2026-04-12T13:58:22.001Z</time></trkpt><trkpt lat="42.72655509826099" lon="11.541651521265656"><ele>573.25</ele><time>2026-04-12T13:58:23.001Z</time></trkpt><trkpt lat="42.72642491593602" lon="11.541724671420635"><ele>572.0</ele><time>2026-04-12T13:58:24.001Z</time></trkpt><trkpt lat="42.72629580646054" lon="11.54180359397028"><ele>572.0</ele><time>2026-04-12T13:58:25.001Z</time></trkpt><trkpt lat="42.726152857610735" lon="11.541879232514695"><ele>572.0</ele><time>2026-04-12T13:58:26.001Z</time></trkpt><trkpt lat="42.72601517043376" lon="11.541966947671304"><ele>572.0</ele><time>2026-04-12T13:58:27.001Z</time></trkpt><trkpt lat="42.72588826103913" lon="11.542064786273064"><ele>572.25</ele><time>2026-04-12T13:58:28.001Z</time></trkpt><trkpt lat="42.72576539218886" lon="11.542141639111048"><ele>572.5</ele><time>2026-04-12T13:58:29.001Z</time></trkpt><trkpt lat="42.72564296874881" lon="11.542169434596035"><ele>572.75</ele><time>2026-04-12T13:58:30.001Z</time></trkpt><trkpt lat="42.72553011969618" lon="11.542185752247253"><ele>573.0</ele><time>2026-04-12T13:58:31.001Z</time></trkpt><trkpt lat="42.72542239228053" lon="11.542153238399209"><ele>573.0</ele><time>2026-04-12T13:58:32.001Z</time></trkpt><trkpt lat="42.72530928749843" lon="11.542089461612697"><ele>573.0</ele><time>2026-04-12T13:58:33.001Z</time></trkpt><trkpt lat="42.72521975689124" lon="11.541917456797258"><ele>573.0</ele><time>2026-04-12T13:58:34.001Z</time></trkpt><trkpt lat="42.7251458432328" lon="11.541737984967728"><ele>573.0</ele><time>2026-04-12T13:58:35.001Z</time></trkpt><trkpt lat="42.72507834313971" lon="11.541584415346659"><ele>570.25</ele><time>2026-04-12T13:58:36.001Z</time></trkpt><trkpt lat="42.72500843390202" lon="11.541434821417742"><ele>567.5</ele><time>2026-04-12T13:58:37.001Z</time></trkpt><trkpt lat="42.72492768040858" lon="11.541316036793587"><ele>564.75</ele><time>2026-04-12T13:58:38.001Z</time></trkpt><trkpt lat="42.72482892420715" lon="11.541243486471771"><ele>562.0</ele><time>2026-04-12T13:58:39.001Z</time></trkpt><trkpt lat="42.72470509802096" lon="11.541196094905716"><ele>560.0</ele><time>2026-04-12T13:58:40.001Z</time></trkpt><trkpt lat="42.724567790357696" lon="11.541143824914183"><ele>558.0</ele><time>2026-04-12T13:58:41.001Z</time></trkpt><trkpt lat="42.72441316867685" lon="11.54109814053459"><ele>556.0</ele><time>2026-04-12T13:58:42.001Z</time></trkpt><trkpt lat="42.7242506094916" lon="11.541034035055254"><ele>555.3333333333334</ele><time>2026-04-12T13:58:43.001Z</time></trkpt><trkpt lat="42.72408279593984" lon="11.540965800697728"><ele>554.6666666666666</ele><time>2026-04-12T13:58:44.001Z</time></trkpt><trkpt lat="42.72391827763281" lon="11.540909360190415"><ele>554.0</ele><time>2026-04-12T13:58:45.001Z</time></trkpt><trkpt lat="42.72376238921115" lon="11.540856465403484"><ele>554.0</ele><time>2026-04-12T13:58:46.001Z</time></trkpt><trkpt lat="42.72361454058665" lon="11.540801144758259"><ele>554.0</ele><time>2026-04-12T13:58:47.001Z</time></trkpt><trkpt lat="42.7234749716736" lon="11.540745889133223"><ele>554.0</ele><time>2026-04-12T13:58:48.001Z</time></trkpt><trkpt lat="42.723349932188505" lon="11.540703817669716"><ele>554.0</ele><time>2026-04-12T13:58:49.001Z</time></trkpt><trkpt lat="42.723232016815935" lon="11.540672072160856"><ele>553.8</ele><time>2026-04-12T13:58:50.001Z</time></trkpt><trkpt lat="42.723124641572404" lon="11.540608019123502"><ele>553.5999999999999</ele><time>2026-04-12T13:58:51.001Z</time></trkpt><trkpt lat="42.7230176649833" lon="11.540580716250476"><ele>553.4</ele><time>2026-04-12T13:58:52.001Z</time></trkpt><trkpt lat="42.72292011760841" lon="11.540523673282799"><ele>553.1999999999999</ele><time>2026-04-12T13:58:53.001Z</time></trkpt><trkpt lat="42.72283728110336" lon="11.540466585983042"><ele>553.0</ele><time>2026-04-12T13:58:54.001Z</time></trkpt><trkpt lat="42.72278538686647" lon="11.540416003658947"><ele>553.0</ele><time>2026-04-12T13:58:55.001Z</time></trkpt><trkpt lat="42.72271578876162" lon="11.540340007942902"><ele>553.0</ele><time>2026-04-12T13:58:57.001Z</time></trkpt><trkpt lat="42.72271789254172" lon="11.540245510445665"><ele>553.0</ele><time>2026-04-12T13:58:59.001Z</time></trkpt><trkpt lat="42.722834700344606" lon="11.540237335894743"><ele>553.0</ele><time>2026-04-12T13:59:01.001Z</time></trkpt><trkpt lat="42.72289514933282" lon="11.540316790011385"><ele>553.0</ele><time>2026-04-12T13:59:02.001Z</time></trkpt><trkpt lat="42.72295274958067" lon="11.540386747320742"><ele>553.0</ele><time>2026-04-12T13:59:03.001Z</time></trkpt><trkpt lat="42.72301317495854" lon="11.540418323193828"><ele>552.0</ele><time>2026-04-12T13:59:04.001Z</time></trkpt><trkpt lat="42.72311299097907" lon="11.540327058239695"><ele>551.0</ele><time>2026-04-12T13:59:06.001Z</time></trkpt><trkpt lat="42.723123704090426" lon="11.540206937379788"><ele>550.0</ele><time>2026-04-12T13:59:07.002Z</time></trkpt><trkpt lat="42.72310100673759" lon="11.540072105072154"><ele>549.0</ele><time>2026-04-12T13:59:08.002Z</time></trkpt><trkpt lat="42.723072841694936" lon="11.539933397992506"><ele>548.0</ele><time>2026-04-12T13:59:09.002Z</time></trkpt><trkpt lat="42.723049345396056" lon="11.539794880881846"><ele>548.0</ele><time>2026-04-12T13:59:10.002Z</time></trkpt><trkpt lat="42.72300428428364" lon="11.53967008182059"><ele>548.0</ele><time>2026-04-12T13:59:11.002Z</time></trkpt><trkpt lat="42.72292597516428" lon="11.539568378655723"><ele>548.0</ele><time>2026-04-12T13:59:12.002Z</time></trkpt><trkpt lat="42.72281907169669" lon="11.539488931774015"><ele>548.0</ele><time>2026-04-12T13:59:13.002Z</time></trkpt><trkpt lat="42.72268248364752" lon="11.539427980355315"><ele>549.5</ele><time>2026-04-12T13:59:14.002Z</time></trkpt><trkpt lat="42.72252540739527" lon="11.53940735595447"><ele>551.0</ele><time>2026-04-12T13:59:15.002Z</time></trkpt><trkpt lat="42.72237994356175" lon="11.539368651978716"><ele>552.5</ele><time>2026-04-12T13:59:16.002Z</time></trkpt><trkpt lat="42.7222404598388" lon="11.539336371166558"><ele>554.0</ele><time>2026-04-12T13:59:17.002Z</time></trkpt><trkpt lat="42.72209263790408" lon="11.539309052863626"><ele>554.0</ele><time>2026-04-12T13:59:18.002Z</time></trkpt><trkpt lat="42.72195048280054" lon="11.539261347101794"><ele>554.0</ele><time>2026-04-12T13:59:19.002Z</time></trkpt><trkpt lat="42.7218090181577" lon="11.539221125413022"><ele>554.0</ele><time>2026-04-12T13:59:20.002Z</time></trkpt><trkpt lat="42.72167359430662" lon="11.539190697092087"><ele>554.0</ele><time>2026-04-12T13:59:21.002Z</time></trkpt><trkpt lat="42.72154212437151" lon="11.539172767959158"><ele>550.75</ele><time>2026-04-12T13:59:22.002Z</time></trkpt><trkpt lat="42.72141682350138" lon="11.539161375777256"><ele>547.5</ele><time>2026-04-12T13:59:23.002Z</time></trkpt><trkpt lat="42.72128643739744" lon="11.539142682895585"><ele>544.25</ele><time>2026-04-12T13:59:24.002Z</time></trkpt><trkpt lat="42.72116352727608" lon="11.539055781115723"><ele>541.0</ele><time>2026-04-12T13:59:25.002Z</time></trkpt><trkpt lat="42.721032837889496" lon="11.538974712159881"><ele>538.75</ele><time>2026-04-12T13:59:26.002Z</time></trkpt><trkpt lat="42.72090404630906" lon="11.538903479860746"><ele>536.5</ele><time>2026-04-12T13:59:27.002Z</time></trkpt><trkpt lat="42.720783506727585" lon="11.5388209853696"><ele>534.25</ele><time>2026-04-12T13:59:28.002Z</time></trkpt><trkpt lat="42.720663084434996" lon="11.538754937339927"><ele>532.0</ele><time>2026-04-12T13:59:29.002Z</time></trkpt><trkpt lat="42.720539405577306" lon="11.538722243513515"><ele>532.0</ele><time>2026-04-12T13:59:30.002Z</time></trkpt><trkpt lat="42.72040655836886" lon="11.538717964582755"><ele>532.0</ele><time>2026-04-12T13:59:31.002Z</time></trkpt><trkpt lat="42.72027462501693" lon="11.538818605886554"><ele>532.0</ele><time>2026-04-12T13:59:32.002Z</time></trkpt><trkpt lat="42.72014516573637" lon="11.538861675861336"><ele>532.0</ele><time>2026-04-12T13:59:33.002Z</time></trkpt><trkpt lat="42.72002557785451" lon="11.5388954651374"><ele>532.25</ele><time>2026-04-12T13:59:34.002Z</time></trkpt><trkpt lat="42.71990895450137" lon="11.538895098917987"><ele>532.5</ele><time>2026-04-12T13:59:35.002Z</time></trkpt><trkpt lat="42.719789467008994" lon="11.53886252836513"><ele>532.75</ele><time>2026-04-12T13:59:36.002Z</time></trkpt><trkpt lat="42.71967971312092" lon="11.538762326984157"><ele>533.0</ele><time>2026-04-12T13:59:37.002Z</time></trkpt><trkpt lat="42.71957244813504" lon="11.538642724681715"><ele>533.0</ele><time>2026-04-12T13:59:38.002Z</time></trkpt><trkpt lat="42.7194497388385" lon="11.53852476378964"><ele>533.0</ele><time>2026-04-12T13:59:39.002Z</time></trkpt><trkpt lat="42.71932274937632" lon="11.538390283028692"><ele>533.0</ele><time>2026-04-12T13:59:40.002Z</time></trkpt><trkpt lat="42.71918651222696" lon="11.538282327260761"><ele>530.75</ele><time>2026-04-12T13:59:41.001Z</time></trkpt><trkpt lat="42.71905527574526" lon="11.538205491190453"><ele>528.5</ele><time>2026-04-12T13:59:42.001Z</time></trkpt><trkpt lat="42.718931160789616" lon="11.53815075059037"><ele>526.25</ele><time>2026-04-12T13:59:43.001Z</time></trkpt><trkpt lat="42.71881746934827" lon="11.538070544886763"><ele>524.0</ele><time>2026-04-12T13:59:44.001Z</time></trkpt><trkpt lat="42.718753196582306" lon="11.537933849418643"><ele>524.0</ele><time>2026-04-12T13:59:45.001Z</time></trkpt><trkpt lat="42.71868954834154" lon="11.537816044308773"><ele>524.0</ele><time>2026-04-12T13:59:46.001Z</time></trkpt><trkpt lat="42.718640496860026" lon="11.537686286168189"><ele>524.0</ele><time>2026-04-12T13:59:47Z</time></trkpt><trkpt lat="42.71855784890323" lon="11.5375848661277"><ele>524.0</ele><time>2026-04-12T13:59:48Z</time></trkpt><trkpt lat="42.71844821417942" lon="11.537543953098988"><ele>524.0</ele><time>2026-04-12T13:59:49Z</time></trkpt><trkpt lat="42.718316403690885" lon="11.537554519173819"><ele>524.0</ele><time>2026-04-12T13:59:50Z</time></trkpt><trkpt lat="42.71817766511672" lon="11.5375665588246"><ele>524.0</ele><time>2026-04-12T13:59:51Z</time></trkpt><trkpt lat="42.718032460090996" lon="11.537557294106495"><ele>524.0</ele><time>2026-04-12T13:59:52Z</time></trkpt><trkpt lat="42.717880276529804" lon="11.53756161989406"><ele>524.0</ele><time>2026-04-12T13:59:53Z</time></trkpt><trkpt lat="42.71773027864025" lon="11.53756274304676"><ele>520.75</ele><time>2026-04-12T13:59:54Z</time></trkpt><trkpt lat="42.71759223770194" lon="11.537548926881929"><ele>517.5</ele><time>2026-04-12T13:59:55Z</time></trkpt><trkpt lat="42.717449952274904" lon="11.537530148701203"><ele>514.25</ele><time>2026-04-12T13:59:56Z</time></trkpt><trkpt lat="42.717312587192964" lon="11.537485454308586"><ele>511.0</ele><time>2026-04-12T13:59:57Z</time></trkpt><trkpt lat="42.717176002500814" lon="11.537457908406747"><ele>511.0</ele><time>2026-04-12T13:59:58Z</time></trkpt><trkpt lat="42.717033427225694" lon="11.537431521021194"><ele>511.0</ele><time>2026-04-12T13:59:59Z</time></trkpt><trkpt lat="42.716883909409525" lon="11.537412418114895"><ele>511.0</ele><time>2026-04-12T14:00:00Z</time></trkpt><trkpt lat="42.7167495200001" lon="11.537334878988363"><ele>511.0</ele><time>2026-04-12T14:00:01Z</time></trkpt><trkpt lat="42.71660990705418" lon="11.537284303111244"><ele>510.5</ele><time>2026-04-12T14:00:02Z</time></trkpt><trkpt lat="42.71648199461266" lon="11.537203882931482"><ele>510.0</ele><time>2026-04-12T14:00:03Z</time></trkpt><trkpt lat="42.7163592149107" lon="11.537124054630539"><ele>509.5</ele><time>2026-04-12T14:00:04Z</time></trkpt><trkpt lat="42.71623634165943" lon="11.537049836190057"><ele>509.0</ele><time>2026-04-12T14:00:05Z</time></trkpt><trkpt lat="42.71611147687717" lon="11.53697186552496"><ele>502.0</ele><time>2026-04-12T14:00:06Z</time></trkpt><trkpt lat="42.71599032630969" lon="11.53689136064854"><ele>495.0</ele><time>2026-04-12T14:00:07Z</time></trkpt><trkpt lat="42.71587185248294" lon="11.536809820297279"><ele>488.0</ele><time>2026-04-12T14:00:08Z</time></trkpt><trkpt lat="42.715757064020586" lon="11.536718771742834"><ele>481.0</ele><time>2026-04-12T14:00:09Z</time></trkpt><trkpt lat="42.715650145274736" lon="11.53661197956544"><ele>481.0</ele><time>2026-04-12T14:00:10Z</time></trkpt><trkpt lat="42.7155540132844" lon="11.53648619156597"><ele>481.0</ele><time>2026-04-12T14:00:11Z</time></trkpt><trkpt lat="42.71545899976189" lon="11.536342833528472"><ele>481.0</ele><time>2026-04-12T14:00:12Z</time></trkpt><trkpt lat="42.71537591335988" lon="11.536170076576767"><ele>481.0</ele><time>2026-04-12T14:00:13.001Z</time></trkpt><trkpt lat="42.71531592044126" lon="11.535989084636919"><ele>481.5</ele><time>2026-04-12T14:00:14.001Z</time></trkpt><trkpt lat="42.71525468209403" lon="11.53580714517859"><ele>482.0</ele><time>2026-04-12T14:00:15.001Z</time></trkpt><trkpt lat="42.715184015033955" lon="11.53563939542815"><ele>482.5</ele><time>2026-04-12T14:00:16.001Z</time></trkpt><trkpt lat="42.71510154650289" lon="11.535490986365277"><ele>483.0</ele><time>2026-04-12T14:00:17.001Z</time></trkpt><trkpt lat="42.71501071186743" lon="11.535364623182986"><ele>479.0</ele><time>2026-04-12T14:00:18.001Z</time></trkpt><trkpt lat="42.71488311027485" lon="11.535285146909132"><ele>475.0</ele><time>2026-04-12T14:00:19.001Z</time></trkpt><trkpt lat="42.7147293752683" lon="11.535266268666394"><ele>471.0</ele><time>2026-04-12T14:00:20.001Z</time></trkpt><trkpt lat="42.71456860734858" lon="11.535298477670702"><ele>471.0</ele><time>2026-04-12T14:00:21.001Z</time></trkpt><trkpt lat="42.71442467416771" lon="11.535355474850645"><ele>471.0</ele><time>2026-04-12T14:00:22.001Z</time></trkpt><trkpt lat="42.714297888385694" lon="11.535378917734178"><ele>471.0</ele><time>2026-04-12T14:00:23.001Z</time></trkpt><trkpt lat="42.71417734056544" lon="11.535326989753319"><ele>471.0</ele><time>2026-04-12T14:00:24.001Z</time></trkpt><trkpt lat="42.714066373220916" lon="11.535244823550752"><ele>468.33333333333337</ele><time>2026-04-12T14:00:25.001Z</time></trkpt><trkpt lat="42.71394485218939" lon="11.535127134680634"><ele>465.6666666666667</ele><time>2026-04-12T14:00:26.001Z</time></trkpt><trkpt lat="42.71381338339553" lon="11.534994330833788"><ele>463.0</ele><time>2026-04-12T14:00:27.001Z</time></trkpt><trkpt lat="42.71366971926411" lon="11.534895876969687"><ele>460.25</ele><time>2026-04-12T14:00:28.001Z</time></trkpt><trkpt lat="42.71354357336006" lon="11.534780138022283"><ele>457.5</ele><time>2026-04-12T14:00:29.001Z</time></trkpt><trkpt lat="42.71340829526635" lon="11.534681315375586"><ele>454.75</ele><time>2026-04-12T14:00:30.001Z</time></trkpt><trkpt lat="42.71328231621137" lon="11.534587994958596"><ele>452.0</ele><time>2026-04-12T14:00:31.001Z</time></trkpt><trkpt lat="42.713167668064415" lon="11.534500085361573"><ele>451.5</ele><time>2026-04-12T14:00:32.001Z</time></trkpt><trkpt lat="42.71305969899883" lon="11.534422699413636"><ele>451.0</ele><time>2026-04-12T14:00:33.001Z</time></trkpt><trkpt lat="42.712966177449665" lon="11.534305395791261"><ele>450.5</ele><time>2026-04-12T14:00:34.001Z</time></trkpt><trkpt lat="42.71286486387466" lon="11.5341864883716"><ele>450.0</ele><time>2026-04-12T14:00:35.001Z</time></trkpt><trkpt lat="42.71275942923844" lon="11.534060699459692"><ele>447.5</ele><time>2026-04-12T14:00:36.001Z</time></trkpt><trkpt lat="42.7126434256811" lon="11.533941487105073"><ele>445.0</ele><time>2026-04-12T14:00:37.001Z</time></trkpt><trkpt lat="42.71253932595123" lon="11.533804661677157"><ele>442.5</ele><time>2026-04-12T14:00:38.001Z</time></trkpt><trkpt lat="42.71243716817853" lon="11.533678615302978"><ele>440.0</ele><time>2026-04-12T14:00:39.001Z</time></trkpt><trkpt lat="42.71233001949477" lon="11.533557620262071"><ele>438.0</ele><time>2026-04-12T14:00:40.001Z</time></trkpt><trkpt lat="42.71221891631283" lon="11.533452228064222"><ele>436.0</ele><time>2026-04-12T14:00:41.001Z</time></trkpt><trkpt lat="42.712094789455136" lon="11.533373976727336"><ele>434.0</ele><time>2026-04-12T14:00:42.001Z</time></trkpt><trkpt lat="42.71197810409217" lon="11.53328141972888"><ele>432.0</ele><time>2026-04-12T14:00:43.001Z</time></trkpt><trkpt lat="42.711869370532995" lon="11.533180679169229"><ele>430.5</ele><time>2026-04-12T14:00:44.001Z</time></trkpt><trkpt lat="42.7117561003038" lon="11.533075115555334"><ele>429.0</ele><time>2026-04-12T14:00:45.001Z</time></trkpt><trkpt lat="42.71163313716766" lon="11.53297621752019"><ele>427.5</ele><time>2026-04-12T14:00:46.001Z</time></trkpt><trkpt lat="42.71151285038666" lon="11.532870897477398"><ele>426.0</ele><time>2026-04-12T14:00:47.001Z</time></trkpt><trkpt lat="42.71139102621296" lon="11.53276145907294"><ele>423.75</ele><time>2026-04-12T14:00:48.001Z</time></trkpt><trkpt lat="42.71127399481466" lon="11.532649355597322"><ele>421.5</ele><time>2026-04-12T14:00:49.001Z</time></trkpt><trkpt lat="42.711157987316675" lon="11.532543039724626"><ele>419.25</ele><time>2026-04-12T14:00:50.001Z</time></trkpt><trkpt lat="42.71103442222597" lon="11.53244098971452"><ele>417.0</ele><time>2026-04-12T14:00:51.001Z</time></trkpt><trkpt lat="42.710900721613704" lon="11.532345849725797"><ele>417.0</ele><time>2026-04-12T14:00:52.001Z</time></trkpt><trkpt lat="42.7107537024184" lon="11.53224926597154"><ele>417.0</ele><time>2026-04-12T14:00:53.001Z</time></trkpt><trkpt lat="42.710583676044024" lon="11.532176423028"><ele>417.0</ele><time>2026-04-12T14:00:54.001Z</time></trkpt><trkpt lat="42.710420324506636" lon="11.532102407900846"><ele>412.66666666666663</ele><time>2026-04-12T14:00:55.001Z</time></trkpt><trkpt lat="42.71025908991527" lon="11.53203072921808"><ele>408.3333333333333</ele><time>2026-04-12T14:00:56.001Z</time></trkpt><trkpt lat="42.71010158273674" lon="11.531961639316476"><ele>404.0</ele><time>2026-04-12T14:00:57.001Z</time></trkpt><trkpt lat="42.70994910028132" lon="11.531899682483788"><ele>402.3333333333333</ele><time>2026-04-12T14:00:58.001Z</time></trkpt><trkpt lat="42.70979675834324" lon="11.531842137302695"><ele>400.66666666666663</ele><time>2026-04-12T14:00:59.001Z</time></trkpt><trkpt lat="42.70964242289301" lon="11.531794346852024"><ele>399.0</ele><time>2026-04-12T14:01:00.001Z</time></trkpt><trkpt lat="42.70949000669097" lon="11.53174676594154"><ele>398.66666666666663</ele><time>2026-04-12T14:01:01.001Z</time></trkpt><trkpt lat="42.70934303989047" lon="11.531692045409638"><ele>398.3333333333333</ele><time>2026-04-12T14:01:02.001Z</time></trkpt><trkpt lat="42.70919764493429" lon="11.531645630547052"><ele>398.0</ele><time>2026-04-12T14:01:03.001Z</time></trkpt><trkpt lat="42.70904645908458" lon="11.531615214160299"><ele>398.0</ele><time>2026-04-12T14:01:04.001Z</time></trkpt><trkpt lat="42.7088862796522" lon="11.53159495589948"><ele>398.0</ele><time>2026-04-12T14:01:05.001Z</time></trkpt><trkpt lat="42.708721232119565" lon="11.531555916315984"><ele>398.0</ele><time>2026-04-12T14:01:06.001Z</time></trkpt><trkpt lat="42.708547068867254" lon="11.531552430732305"><ele>397.0</ele><time>2026-04-12T14:01:07.001Z</time></trkpt><trkpt lat="42.70837539502997" lon="11.531550590085898"><ele>396.0</ele><time>2026-04-12T14:01:08.001Z</time></trkpt><trkpt lat="42.708208805464764" lon="11.531565794172023"><ele>395.0</ele><time>2026-04-12T14:01:09.001Z</time></trkpt><trkpt lat="42.70804288360076" lon="11.531553771390548"><ele>395.0</ele><time>2026-04-12T14:01:10.001Z</time></trkpt><trkpt lat="42.70786242269916" lon="11.53153327520878"><ele>395.0</ele><time>2026-04-12T14:01:11.001Z</time></trkpt><trkpt lat="42.70767998921472" lon="11.53148453719802"><ele>395.0</ele><time>2026-04-12T14:01:12.001Z</time></trkpt><trkpt lat="42.70751385955638" lon="11.531431985450858"><ele>394.0</ele><time>2026-04-12T14:01:13.001Z</time></trkpt><trkpt lat="42.70734925739551" lon="11.531392813124889"><ele>393.0</ele><time>2026-04-12T14:01:14.001Z</time></trkpt><trkpt lat="42.70718225480703" lon="11.531381185812199"><ele>392.0</ele><time>2026-04-12T14:01:15.001Z</time></trkpt><trkpt lat="42.707022917619774" lon="11.53139557084653"><ele>390.0</ele><time>2026-04-12T14:01:16.001Z</time></trkpt><trkpt lat="42.70687463570453" lon="11.531424552364069"><ele>388.0</ele><time>2026-04-12T14:01:17.001Z</time></trkpt><trkpt lat="42.70674315253942" lon="11.531448995770937"><ele>386.0</ele><time>2026-04-12T14:01:18.001Z</time></trkpt><trkpt lat="42.70661715387491" lon="11.531493666137987"><ele>384.0</ele><time>2026-04-12T14:01:19.001Z</time></trkpt><trkpt lat="42.70648878499858" lon="11.531589796816943"><ele>384.0</ele><time>2026-04-12T14:01:20.001Z</time></trkpt><trkpt lat="42.70635749814915" lon="11.531710342067662"><ele>384.0</ele><time>2026-04-12T14:01:21.001Z</time></trkpt><trkpt lat="42.70623311850352" lon="11.531833557267099"><ele>384.0</ele><time>2026-04-12T14:01:22.001Z</time></trkpt><trkpt lat="42.70611398147015" lon="11.531937685882475"><ele>381.75</ele><time>2026-04-12T14:01:23.001Z</time></trkpt><trkpt lat="42.70600450862185" lon="11.532047825429718"><ele>379.5</ele><time>2026-04-12T14:01:24.001Z</time></trkpt><trkpt lat="42.70592494466442" lon="11.532193829884967"><ele>377.25</ele><time>2026-04-12T14:01:25.001Z</time></trkpt><trkpt lat="42.7058862801168" lon="11.532368492552674"><ele>375.0</ele><time>2026-04-12T14:01:26.001Z</time></trkpt><trkpt lat="42.70589044883904" lon="11.532554653514003"><ele>375.0</ele><time>2026-04-12T14:01:27.001Z</time></trkpt><trkpt lat="42.70587454015372" lon="11.532721074068375"><ele>375.0</ele><time>2026-04-12T14:01:28.001Z</time></trkpt><trkpt lat="42.7058346154042" lon="11.53286158523536"><ele>375.0</ele><time>2026-04-12T14:01:29.001Z</time></trkpt><trkpt lat="42.7057532212129" lon="11.532971671605244"><ele>375.0</ele><time>2026-04-12T14:01:30.001Z</time></trkpt><trkpt lat="42.70566198730526" lon="11.533105874537192"><ele>376.75</ele><time>2026-04-12T14:01:31.002Z</time></trkpt><trkpt lat="42.705568671997106" lon="11.533222016774953"><ele>378.5</ele><time>2026-04-12T14:01:32.002Z</time></trkpt><trkpt lat="42.705481840607376" lon="11.533339496066265"><ele>380.25</ele><time>2026-04-12T14:01:33.002Z</time></trkpt><trkpt lat="42.705359950834996" lon="11.533330487635832"><ele>382.0</ele><time>2026-04-12T14:01:34.002Z</time></trkpt><trkpt lat="42.705265370754965" lon="11.533401084856045"><ele>380.25</ele><time>2026-04-12T14:01:35.002Z</time></trkpt><trkpt lat="42.70516546325709" lon="11.53350139535304"><ele>378.5</ele><time>2026-04-12T14:01:36.002Z</time></trkpt><trkpt lat="42.70507419279681" lon="11.533668239423212"><ele>376.75</ele><time>2026-04-12T14:01:37.002Z</time></trkpt><trkpt lat="42.70498593927169" lon="11.53386507783992"><ele>375.0</ele><time>2026-04-12T14:01:38.002Z</time></trkpt><trkpt lat="42.704910883265065" lon="11.53405917187326"><ele>375.0</ele><time>2026-04-12T14:01:39.002Z</time></trkpt><trkpt lat="42.70484248470091" lon="11.534221236972618"><ele>375.0</ele><time>2026-04-12T14:01:40.002Z</time></trkpt><trkpt lat="42.70477899408377" lon="11.534356325590062"><ele>375.0</ele><time>2026-04-12T14:01:41.002Z</time></trkpt><trkpt lat="42.70470109208516" lon="11.534460841168027"><ele>375.0</ele><time>2026-04-12T14:01:42.002Z</time></trkpt><trkpt lat="42.70460289201961" lon="11.534532008390343"><ele>375.0</ele><time>2026-04-12T14:01:43.002Z</time></trkpt><trkpt lat="42.704489599986864" lon="11.534535633994773"><ele>375.0</ele><time>2026-04-12T14:01:44.002Z</time></trkpt><trkpt lat="42.70436689278294" lon="11.53453014877614"><ele>375.0</ele><time>2026-04-12T14:01:45.002Z</time></trkpt><trkpt lat="42.70423556041433" lon="11.534515452111014"><ele>375.0</ele><time>2026-04-12T14:01:46.002Z</time></trkpt><trkpt lat="42.704104754865526" lon="11.534458426612037"><ele>371.75</ele><time>2026-04-12T14:01:47Z</time></trkpt><trkpt lat="42.70396749707944" lon="11.534424627243338"><ele>368.5</ele><time>2026-04-12T14:01:48Z</time></trkpt><trkpt lat="42.70384309953954" lon="11.534438678049234"><ele>365.25</ele><time>2026-04-12T14:01:49Z</time></trkpt><trkpt lat="42.70373967287875" lon="11.53449026693893"><ele>362.0</ele><time>2026-04-12T14:01:50Z</time></trkpt><trkpt lat="42.70362532997903" lon="11.53447992362324"><ele>359.75</ele><time>2026-04-12T14:01:51Z</time></trkpt><trkpt lat="42.703499606792036" lon="11.53442762475089"><ele>357.5</ele><time>2026-04-12T14:01:52Z</time></trkpt><trkpt lat="42.703367494710626" lon="11.534358799325599"><ele>355.25</ele><time>2026-04-12T14:01:53Z</time></trkpt><trkpt lat="42.703229370889" lon="11.534289977667909"><ele>353.0</ele><time>2026-04-12T14:01:54Z</time></trkpt><trkpt lat="42.70310973037066" lon="11.534197024870322"><ele>353.0</ele><time>2026-04-12T14:01:55Z</time></trkpt><trkpt lat="42.70299845909639" lon="11.53410325147365"><ele>353.0</ele><time>2026-04-12T14:01:56Z</time></trkpt><trkpt lat="42.702887319862825" lon="11.534004961229323"><ele>353.0</ele><time>2026-04-12T14:01:57Z</time></trkpt><trkpt lat="42.70277586442996" lon="11.533904435099483"><ele>353.0</ele><time>2026-04-12T14:01:58Z</time></trkpt><trkpt lat="42.70268654676104" lon="11.533768197440637"><ele>349.75</ele><time>2026-04-12T14:01:59Z</time></trkpt><trkpt lat="42.70259509864739" lon="11.533643473166103"><ele>346.5</ele><time>2026-04-12T14:02:00Z</time></trkpt><trkpt lat="42.70250193490011" lon="11.533511370065707"><ele>343.25</ele><time>2026-04-12T14:02:01Z</time></trkpt><trkpt lat="42.70241669596008" lon="11.533360033341426"><ele>340.0</ele><time>2026-04-12T14:02:02Z</time></trkpt><trkpt lat="42.70231837118315" lon="11.53319768712411"><ele>340.0</ele><time>2026-04-12T14:02:03Z</time></trkpt><trkpt lat="42.70221574851202" lon="11.533021805425797"><ele>340.0</ele><time>2026-04-12T14:02:04Z</time></trkpt><trkpt lat="42.70211460478803" lon="11.532847018768175"><ele>340.0</ele><time>2026-04-12T14:02:05Z</time></trkpt><trkpt lat="42.70201431808145" lon="11.532681267342982"><ele>338.25</ele><time>2026-04-12T14:02:06Z</time></trkpt><trkpt lat="42.701919209059994" lon="11.532527461500566"><ele>336.5</ele><time>2026-04-12T14:02:07Z</time></trkpt><trkpt lat="42.70180497468231" lon="11.532387958173695"><ele>334.75</ele><time>2026-04-12T14:02:08Z</time></trkpt><trkpt lat="42.701698245250135" lon="11.532266274215539"><ele>333.0</ele><time>2026-04-12T14:02:09Z</time></trkpt><trkpt lat="42.70159102913146" lon="11.532153099856142"><ele>329.3333333333333</ele><time>2026-04-12T14:02:10Z</time></trkpt><trkpt lat="42.701473728297415" lon="11.532050352033101"><ele>325.66666666666663</ele><time>2026-04-12T14:02:11Z</time></trkpt><trkpt lat="42.70133416263577" lon="11.53196265435604"><ele>322.0</ele><time>2026-04-12T14:02:12Z</time></trkpt><trkpt lat="42.70117874230358" lon="11.531889810538079"><ele>320.66666666666663</ele><time>2026-04-12T14:02:13Z</time></trkpt><trkpt lat="42.701022365124054" lon="11.53181283058131"><ele>319.3333333333333</ele><time>2026-04-12T14:02:14Z</time></trkpt><trkpt lat="42.70087338742628" lon="11.531730353723345"><ele>318.0</ele><time>2026-04-12T14:02:15Z</time></trkpt><trkpt lat="42.70073199471038" lon="11.531648205632655"><ele>318.0</ele><time>2026-04-12T14:02:16Z</time></trkpt><trkpt lat="42.70059250435328" lon="11.531571422347964"><ele>318.0</ele><time>2026-04-12T14:02:17Z</time></trkpt><trkpt lat="42.7004533226129" lon="11.531521567520496"><ele>318.0</ele><time>2026-04-12T14:02:18Z</time></trkpt><trkpt lat="42.70031062734658" lon="11.531504870479615"><ele>318.0</ele><time>2026-04-12T14:02:19Z</time></trkpt><trkpt lat="42.70015821651624" lon="11.531508024984605"><ele>315.0</ele><time>2026-04-12T14:02:20Z</time></trkpt><trkpt lat="42.700004259397126" lon="11.531525293519913"><ele>312.0</ele><time>2026-04-12T14:02:21Z</time></trkpt><trkpt lat="42.69984177925046" lon="11.531560063220196"><ele>309.0</ele><time>2026-04-12T14:02:22Z</time></trkpt><trkpt lat="42.699668494271734" lon="11.531581573676585"><ele>309.0</ele><time>2026-04-12T14:02:23Z</time></trkpt><trkpt lat="42.69950133492451" lon="11.531609263901615"><ele>309.0</ele><time>2026-04-12T14:02:24Z</time></trkpt><trkpt lat="42.699338695679565" lon="11.531655618389564"><ele>309.0</ele><time>2026-04-12T14:02:25Z</time></trkpt><trkpt lat="42.69917703715771" lon="11.531679263267721"><ele>305.0</ele><time>2026-04-12T14:02:26Z</time></trkpt><trkpt lat="42.6990170693291" lon="11.531712424323926"><ele>301.0</ele><time>2026-04-12T14:02:27Z</time></trkpt><trkpt lat="42.69885823964567" lon="11.531764070243106"><ele>297.0</ele><time>2026-04-12T14:02:28Z</time></trkpt><trkpt lat="42.698702677618094" lon="11.531828207065322"><ele>294.3333333333333</ele><time>2026-04-12T14:02:29Z</time></trkpt><trkpt lat="42.69855242972316" lon="11.531894924511933"><ele>291.66666666666663</ele><time>2026-04-12T14:02:30Z</time></trkpt><trkpt lat="42.698392608044415" lon="11.531927518866814"><ele>289.0</ele><time>2026-04-12T14:02:31Z</time></trkpt><trkpt lat="42.698232575904214" lon="11.531964366109413"><ele>289.0</ele><time>2026-04-12T14:02:32Z</time></trkpt><trkpt lat="42.69806400324285" lon="11.532014770832543"><ele>289.0</ele><time>2026-04-12T14:02:33Z</time></trkpt><trkpt lat="42.697906246562766" lon="11.532022291015995"><ele>289.0</ele><time>2026-04-12T14:02:34Z</time></trkpt><trkpt lat="42.69775471603812" lon="11.53207171375061"><ele>288.66666666666663</ele><time>2026-04-12T14:02:35Z</time></trkpt><trkpt lat="42.69759576357155" lon="11.532098535199857"><ele>288.3333333333333</ele><time>2026-04-12T14:02:36Z</time></trkpt><trkpt lat="42.69743696062021" lon="11.532129775768869"><ele>288.0</ele><time>2026-04-12T14:02:37Z</time></trkpt><trkpt lat="42.69729366804824" lon="11.532162175666082"><ele>288.0</ele><time>2026-04-12T14:02:38Z</time></trkpt><trkpt lat="42.697151639350494" lon="11.532166573591033"><ele>288.0</ele><time>2026-04-12T14:02:39Z</time></trkpt><trkpt lat="42.697013399070755" lon="11.53219239802034"><ele>288.0</ele><time>2026-04-12T14:02:40Z</time></trkpt><trkpt lat="42.6968813023983" lon="11.53223759588588"><ele>288.0</ele><time>2026-04-12T14:02:41Z</time></trkpt><trkpt lat="42.6967528853972" lon="11.532239339893346"><ele>286.4</ele><time>2026-04-12T14:02:42.001Z</time></trkpt><trkpt lat="42.69663946552328" lon="11.532259075774803"><ele>284.8</ele><time>2026-04-12T14:02:43.001Z</time></trkpt><trkpt lat="42.69654256920842" lon="11.532272685835272"><ele>283.2</ele><time>2026-04-12T14:02:44.001Z</time></trkpt><trkpt lat="42.69645720495238" lon="11.532273840729681"><ele>281.6</ele><time>2026-04-12T14:02:45.001Z</time></trkpt><trkpt lat="42.69637113760864" lon="11.532248051981247"><ele>280.0</ele><time>2026-04-12T14:02:46.001Z</time></trkpt><trkpt lat="42.696290120492485" lon="11.532166960739644"><ele>280.0</ele><time>2026-04-12T14:02:47.001Z</time></trkpt><trkpt lat="42.69621668888538" lon="11.532061264762367"><ele>280.0</ele><time>2026-04-12T14:02:48.001Z</time></trkpt><trkpt lat="42.69612862265085" lon="11.531971414445856"><ele>280.0</ele><time>2026-04-12T14:02:49.001Z</time></trkpt><trkpt lat="42.69602661976725" lon="11.531888096775333"><ele>280.0</ele><time>2026-04-12T14:02:50.001Z</time></trkpt><trkpt lat="42.695904024215714" lon="11.53182287999422"><ele>276.75</ele><time>2026-04-12T14:02:51.001Z</time></trkpt><trkpt lat="42.69578406782233" lon="11.531783497772595"><ele>273.5</ele><time>2026-04-12T14:02:52.001Z</time></trkpt><trkpt lat="42.6956491240987" lon="11.531734847464106"><ele>270.25</ele><time>2026-04-12T14:02:53.001Z</time></trkpt><trkpt lat="42.69550665495115" lon="11.53169003917911"><ele>267.0</ele><time>2026-04-12T14:02:54.001Z</time></trkpt><trkpt lat="42.69537375087229" lon="11.53164064087018"><ele>265.25</ele><time>2026-04-12T14:02:55.001Z</time></trkpt><trkpt lat="42.695249478864106" lon="11.531590225119356"><ele>263.5</ele><time>2026-04-12T14:02:56.001Z</time></trkpt><trkpt lat="42.69513371410886" lon="11.531533980687673"><ele>261.75</ele><time>2026-04-12T14:02:57.001Z</time></trkpt><trkpt lat="42.695013172940335" lon="11.531444133783642"><ele>260.0</ele><time>2026-04-12T14:02:58.001Z</time></trkpt><trkpt lat="42.69489908550994" lon="11.53133432787062"><ele>258.5</ele><time>2026-04-12T14:02:59.001Z</time></trkpt><trkpt lat="42.694790304053626" lon="11.531219633583742"><ele>257.0</ele><time>2026-04-12T14:03:00.001Z</time></trkpt><trkpt lat="42.694676824407885" lon="11.531108856457331"><ele>255.5</ele><time>2026-04-12T14:03:01.001Z</time></trkpt><trkpt lat="42.69454832350084" lon="11.531012369256405"><ele>254.0</ele><time>2026-04-12T14:03:02.001Z</time></trkpt><trkpt lat="42.694418935538245" lon="11.530924029460193"><ele>253.6</ele><time>2026-04-12T14:03:03.001Z</time></trkpt><trkpt lat="42.69430912371515" lon="11.530845288271555"><ele>253.2</ele><time>2026-04-12T14:03:04.001Z</time></trkpt><trkpt lat="42.69422769808319" lon="11.530745859093994"><ele>252.79999999999998</ele><time>2026-04-12T14:03:05.001Z</time></trkpt><trkpt lat="42.694134906989305" lon="11.530672310156579"><ele>252.39999999999998</ele><time>2026-04-12T14:03:06.001Z</time></trkpt><trkpt lat="42.69406435347875" lon="11.530563356381986"><ele>252.0</ele><time>2026-04-12T14:03:07.001Z</time></trkpt><trkpt lat="42.69400373586512" lon="11.530447852331546"><ele>250.75</ele><time>2026-04-12T14:03:08.001Z</time></trkpt><trkpt lat="42.693948266653024" lon="11.53033180918134"><ele>249.5</ele><time>2026-04-12T14:03:09.001Z</time></trkpt><trkpt lat="42.693885891181345" lon="11.530210234419235"><ele>248.25</ele><time>2026-04-12T14:03:10.001Z</time></trkpt><trkpt lat="42.693816007426875" lon="11.530071411304633"><ele>247.0</ele><time>2026-04-12T14:03:11.001Z</time></trkpt><trkpt lat="42.69373724518318" lon="11.52991440194626"><ele>247.0</ele><time>2026-04-12T14:03:12.001Z</time></trkpt><trkpt lat="42.69365508673687" lon="11.529763827580092"><ele>247.0</ele><time>2026-04-12T14:03:13.001Z</time></trkpt><trkpt lat="42.69357407872945" lon="11.529610500039777"><ele>247.0</ele><time>2026-04-12T14:03:14.001Z</time></trkpt><trkpt lat="42.693471365860994" lon="11.529471489090506"><ele>247.0</ele><time>2026-04-12T14:03:15.001Z</time></trkpt><trkpt lat="42.69333049581401" lon="11.529349134930074"><ele>245.66666666666666</ele><time>2026-04-12T14:03:16.001Z</time></trkpt><trkpt lat="42.69317648763634" lon="11.529244639372886"><ele>244.33333333333331</ele><time>2026-04-12T14:03:17.001Z</time></trkpt><trkpt lat="42.69302350244733" lon="11.529157930259304"><ele>243.0</ele><time>2026-04-12T14:03:18.001Z</time></trkpt><trkpt lat="42.69287235782367" lon="11.52908548833664"><ele>240.66666666666669</ele><time>2026-04-12T14:03:19.001Z</time></trkpt><trkpt lat="42.69271664214017" lon="11.529020817769918"><ele>238.33333333333334</ele><time>2026-04-12T14:03:20.001Z</time></trkpt><trkpt lat="42.69255620518972" lon="11.528971997487847"><ele>236.0</ele><time>2026-04-12T14:03:21.001Z</time></trkpt><trkpt lat="42.692403986703646" lon="11.528896145972404"><ele>236.0</ele><time>2026-04-12T14:03:22.001Z</time></trkpt><trkpt lat="42.69224665894666" lon="11.528849331818174"><ele>236.0</ele><time>2026-04-12T14:03:23.001Z</time></trkpt><trkpt lat="42.692094006393056" lon="11.528802432751418"><ele>236.0</ele><time>2026-04-12T14:03:24.001Z</time></trkpt><trkpt lat="42.691941719684515" lon="11.528749400201807"><ele>234.0</ele><time>2026-04-12T14:03:25.001Z</time></trkpt><trkpt lat="42.691784185117946" lon="11.528688582404866"><ele>232.0</ele><time>2026-04-12T14:03:26.001Z</time></trkpt><trkpt lat="42.69164396649683" lon="11.528625366821167"><ele>230.0</ele><time>2026-04-12T14:03:27.001Z</time></trkpt><trkpt lat="42.69152450898643" lon="11.528558734727282"><ele>228.0</ele><time>2026-04-12T14:03:28.001Z</time></trkpt><trkpt lat="42.6914173296696" lon="11.528464353191426"><ele>228.0</ele><time>2026-04-12T14:03:29.001Z</time></trkpt><trkpt lat="42.69132515645477" lon="11.52831613905811"><ele>228.0</ele><time>2026-04-12T14:03:30.001Z</time></trkpt><trkpt lat="42.691230274922056" lon="11.52814919870894"><ele>228.0</ele><time>2026-04-12T14:03:31.001Z</time></trkpt><trkpt lat="42.6911524281106" lon="11.52798059241779"><ele>228.0</ele><time>2026-04-12T14:03:32.001Z</time></trkpt><trkpt lat="42.69106639910799" lon="11.527833191173864"><ele>226.0</ele><time>2026-04-12T14:03:33.001Z</time></trkpt><trkpt lat="42.69095638630498" lon="11.527701870551088"><ele>224.0</ele><time>2026-04-12T14:03:34.001Z</time></trkpt><trkpt lat="42.690825876721036" lon="11.527597313050592"><ele>222.0</ele><time>2026-04-12T14:03:35.001Z</time></trkpt><trkpt lat="42.6907032453316" lon="11.527500065786464"><ele>220.0</ele><time>2026-04-12T14:03:36.001Z</time></trkpt><trkpt lat="42.69059832778237" lon="11.52741791733735"><ele>220.0</ele><time>2026-04-12T14:03:37.001Z</time></trkpt><trkpt lat="42.69048525952273" lon="11.527363403382239"><ele>220.0</ele><time>2026-04-12T14:03:38.001Z</time></trkpt><trkpt lat="42.69035576528801" lon="11.527367800992053"><ele>220.0</ele><time>2026-04-12T14:03:39.001Z</time></trkpt><trkpt lat="42.690214172046694" lon="11.527411139970008"><ele>220.0</ele><time>2026-04-12T14:03:40.001Z</time></trkpt><trkpt lat="42.69007252664099" lon="11.527442946358157"><ele>219.25</ele><time>2026-04-12T14:03:41.001Z</time></trkpt><trkpt lat="42.68993583215363" lon="11.527498985043236"><ele>218.5</ele><time>2026-04-12T14:03:42.001Z</time></trkpt><trkpt lat="42.68979940672419" lon="11.527549123117236"><ele>217.75</ele><time>2026-04-12T14:03:43.001Z</time></trkpt><trkpt lat="42.689664236878414" lon="11.527575278782308"><ele>217.0</ele><time>2026-04-12T14:03:44.001Z</time></trkpt><trkpt lat="42.68952977503309" lon="11.527567720799297"><ele>217.66666666666666</ele><time>2026-04-12T14:03:45.001Z</time></trkpt><trkpt lat="42.6893885161426" lon="11.527540096923389"><ele>218.33333333333331</ele><time>2026-04-12T14:03:46.001Z</time></trkpt><trkpt lat="42.68922640259869" lon="11.527521124915127"><ele>219.0</ele><time>2026-04-12T14:03:47.001Z</time></trkpt><trkpt lat="42.689073967748676" lon="11.527477050892045"><ele>219.0</ele><time>2026-04-12T14:03:48.001Z</time></trkpt><trkpt lat="42.68891865809575" lon="11.52741875231574"><ele>219.0</ele><time>2026-04-12T14:03:49.001Z</time></trkpt><trkpt lat="42.688775633688564" lon="11.527376436883195"><ele>219.0</ele><time>2026-04-12T14:03:50.001Z</time></trkpt><trkpt lat="42.688674765913674" lon="11.527331579522064"><ele>219.0</ele><time>2026-04-12T14:03:51.001Z</time></trkpt><trkpt lat="42.68858039845569" lon="11.527295619946894"><ele>220.0</ele><time>2026-04-12T14:03:52.001Z</time></trkpt><trkpt lat="42.688498715747706" lon="11.527237529634034"><ele>221.0</ele><time>2026-04-12T14:03:53Z</time></trkpt><trkpt lat="42.68839888393358" lon="11.527177300305427"><ele>222.0</ele><time>2026-04-12T14:03:54Z</time></trkpt><trkpt lat="42.688268546659486" lon="11.527151309447323"><ele>223.0</ele><time>2026-04-12T14:03:55Z</time></trkpt><trkpt lat="42.688128530894794" lon="11.527138415860835"><ele>223.0</ele><time>2026-04-12T14:03:56Z</time></trkpt><trkpt lat="42.68798017361993" lon="11.527090568811474"><ele>223.0</ele><time>2026-04-12T14:03:57Z</time></trkpt><trkpt lat="42.68783161873653" lon="11.527075727681384"><ele>223.0</ele><time>2026-04-12T14:03:58Z</time></trkpt><trkpt lat="42.687690316467275" lon="11.52704743706832"><ele>223.0</ele><time>2026-04-12T14:03:59Z</time></trkpt><trkpt lat="42.68753689196908" lon="11.527014120782631"><ele>221.33333333333331</ele><time>2026-04-12T14:04:00Z</time></trkpt><trkpt lat="42.687379644097426" lon="11.526987706545459"><ele>219.66666666666669</ele><time>2026-04-12T14:04:01Z</time></trkpt><trkpt lat="42.687219602589025" lon="11.526980137172707"><ele>218.0</ele><time>2026-04-12T14:04:02Z</time></trkpt><trkpt lat="42.68707616656171" lon="11.52692841690115"><ele>218.0</ele><time>2026-04-12T14:04:03Z</time></trkpt><trkpt lat="42.68694463658196" lon="11.526878090602832"><ele>218.0</ele><time>2026-04-12T14:04:04Z</time></trkpt><trkpt lat="42.686806654495854" lon="11.52683849366671"><ele>218.0</ele><time>2026-04-12T14:04:05Z</time></trkpt><trkpt lat="42.68668641423735" lon="11.526747742609178"><ele>218.0</ele><time>2026-04-12T14:04:06Z</time></trkpt><trkpt lat="42.68656708823143" lon="11.526675960844752"><ele>217.25</ele><time>2026-04-12T14:04:07Z</time></trkpt><trkpt lat="42.686442854356415" lon="11.526619260415183"><ele>216.5</ele><time>2026-04-12T14:04:08Z</time></trkpt><trkpt lat="42.68633683440433" lon="11.526552754977834"><ele>215.75</ele><time>2026-04-12T14:04:09Z</time></trkpt><trkpt lat="42.68621736826545" lon="11.52652274805614"><ele>215.0</ele><time>2026-04-12T14:04:10Z</time></trkpt><trkpt lat="42.68609262966824" lon="11.526558304733122"><ele>214.75</ele><time>2026-04-12T14:04:11Z</time></trkpt><trkpt lat="42.68596968295183" lon="11.52662014973387"><ele>214.5</ele><time>2026-04-12T14:04:12Z</time></trkpt><trkpt lat="42.6858591043491" lon="11.526648359609286"><ele>214.25</ele><time>2026-04-12T14:04:13Z</time></trkpt><trkpt lat="42.68575484341789" lon="11.526638930432465"><ele>214.0</ele><time>2026-04-12T14:04:14Z</time></trkpt><trkpt lat="42.685663050375744" lon="11.526566900242372"><ele>214.0</ele><time>2026-04-12T14:04:15Z</time></trkpt><trkpt lat="42.68560699836406" lon="11.526468883051207"><ele>213.99999999999997</ele><time>2026-04-12T14:04:16Z</time></trkpt><trkpt lat="42.68555623787918" lon="11.526348168031351"><ele>213.99999999999997</ele><time>2026-04-12T14:04:17Z</time></trkpt><trkpt lat="42.68553614583151" lon="11.52619419581366"><ele>214.0</ele><time>2026-04-12T14:04:18Z</time></trkpt><trkpt lat="42.68551770476225" lon="11.526022061840587"><ele>214.0</ele><time>2026-04-12T14:04:19Z</time></trkpt><trkpt lat="42.685513687545" lon="11.525841929424432"><ele>213.25</ele><time>2026-04-12T14:04:20Z</time></trkpt><trkpt lat="42.68548696799702" lon="11.52568143458434"><ele>212.5</ele><time>2026-04-12T14:04:21Z</time></trkpt><trkpt lat="42.68542849823913" lon="11.5255346361724"><ele>211.75</ele><time>2026-04-12T14:04:22Z</time></trkpt><trkpt lat="42.685330445607846" lon="11.52538409756754"><ele>211.0</ele><time>2026-04-12T14:04:23Z</time></trkpt><trkpt lat="42.68521901208638" lon="11.525222683272906"><ele>209.66666666666666</ele><time>2026-04-12T14:04:24Z</time></trkpt><trkpt lat="42.68511008246764" lon="11.525048434042622"><ele>208.33333333333331</ele><time>2026-04-12T14:04:25Z</time></trkpt><trkpt lat="42.685011409636616" lon="11.524884774073731"><ele>207.0</ele><time>2026-04-12T14:04:26Z</time></trkpt><trkpt lat="42.6849123947317" lon="11.524729051023057"><ele>207.0</ele><time>2026-04-12T14:04:27Z</time></trkpt><trkpt lat="42.68481918960277" lon="11.524592669998832"><ele>207.0</ele><time>2026-04-12T14:04:28Z</time></trkpt><trkpt lat="42.68472261962063" lon="11.524475318672376"><ele>207.0</ele><time>2026-04-12T14:04:29Z</time></trkpt><trkpt lat="42.68461163790321" lon="11.524388828163682"><ele>207.0</ele><time>2026-04-12T14:04:30Z</time></trkpt><trkpt lat="42.68448149506181" lon="11.524342922683136"><ele>205.5</ele><time>2026-04-12T14:04:31Z</time></trkpt><trkpt lat="42.68435397493696" lon="11.524329418554947"><ele>204.0</ele><time>2026-04-12T14:04:32Z</time></trkpt><trkpt lat="42.6842432590761" lon="11.524361849500492"><ele>202.5</ele><time>2026-04-12T14:04:33Z</time></trkpt><trkpt lat="42.68414162518918" lon="11.52444452077305"><ele>201.0</ele><time>2026-04-12T14:04:34Z</time></trkpt><trkpt lat="42.68404614046976" lon="11.524545738099919"><ele>202.0</ele><time>2026-04-12T14:04:35Z</time></trkpt><trkpt lat="42.68395069785836" lon="11.52462886894707"><ele>203.0</ele><time>2026-04-12T14:04:36Z</time></trkpt><trkpt lat="42.68385478671991" lon="11.524667235547364"><ele>204.0</ele><time>2026-04-12T14:04:37Z</time></trkpt><trkpt lat="42.683748675280185" lon="11.524638914978498"><ele>205.0</ele><time>2026-04-12T14:04:38Z</time></trkpt><trkpt lat="42.683637672519964" lon="11.524577255865482"><ele>206.0</ele><time>2026-04-12T14:04:39Z</time></trkpt><trkpt lat="42.683523204323" lon="11.524499626494093"><ele>206.25</ele><time>2026-04-12T14:04:40Z</time></trkpt><trkpt lat="42.68341258352448" lon="11.524394578066897"><ele>206.5</ele><time>2026-04-12T14:04:41Z</time></trkpt><trkpt lat="42.68331072145563" lon="11.52425588709661"><ele>206.75</ele><time>2026-04-12T14:04:42Z</time></trkpt><trkpt lat="42.683203378539766" lon="11.524102739507722"><ele>207.0</ele><time>2026-04-12T14:04:43Z</time></trkpt><trkpt lat="42.683124621305716" lon="11.523938597969531"><ele>207.0</ele><time>2026-04-12T14:04:44Z</time></trkpt><trkpt lat="42.68304315253292" lon="11.52378035247859"><ele>207.0</ele><time>2026-04-12T14:04:45.001Z</time></trkpt><trkpt lat="42.68295144037323" lon="11.523627074607846"><ele>207.0</ele><time>2026-04-12T14:04:46.001Z</time></trkpt><trkpt lat="42.68284655362953" lon="11.523481620437227"><ele>207.0</ele><time>2026-04-12T14:04:47.001Z</time></trkpt><trkpt lat="42.68273119857287" lon="11.523374921703754"><ele>207.0</ele><time>2026-04-12T14:04:48.001Z</time></trkpt><trkpt lat="42.68261002135591" lon="11.523299794392226"><ele>207.0</ele><time>2026-04-12T14:04:49.001Z</time></trkpt><trkpt lat="42.68249439574616" lon="11.523243309004656"><ele>207.0</ele><time>2026-04-12T14:04:50.001Z</time></trkpt><trkpt lat="42.68238174868872" lon="11.523210982194687"><ele>207.0</ele><time>2026-04-12T14:04:51.001Z</time></trkpt><trkpt lat="42.682271791281785" lon="11.523182384737053"><ele>207.0</ele><time>2026-04-12T14:04:52.001Z</time></trkpt><trkpt lat="42.68215795265248" lon="11.523160355338339"><ele>207.0</ele><time>2026-04-12T14:04:53.001Z</time></trkpt><trkpt lat="42.68203081797799" lon="11.52314610518633"><ele>207.0</ele><time>2026-04-12T14:04:54.001Z</time></trkpt><trkpt lat="42.68189343379605" lon="11.52314435794892"><ele>207.0</ele><time>2026-04-12T14:04:55.001Z</time></trkpt><trkpt lat="42.68174555141887" lon="11.523156867927765"><ele>207.66666666666669</ele><time>2026-04-12T14:04:56.001Z</time></trkpt><trkpt lat="42.68159294503969" lon="11.523177714116425"><ele>208.33333333333334</ele><time>2026-04-12T14:04:57.001Z</time></trkpt><trkpt lat="42.681439066518" lon="11.523187763313569"><ele>209.0</ele><time>2026-04-12T14:04:58.001Z</time></trkpt><trkpt lat="42.68128587873868" lon="11.523189064991326"><ele>209.0</ele><time>2026-04-12T14:04:59.001Z</time></trkpt><trkpt lat="42.68113915701699" lon="11.52318283065375"><ele>209.0</ele><time>2026-04-12T14:05:00.001Z</time></trkpt><trkpt lat="42.68100758656169" lon="11.523187917893186"><ele>209.0</ele><time>2026-04-12T14:05:01.001Z</time></trkpt><trkpt lat="42.68088640134027" lon="11.523191508221517"><ele>209.0</ele><time>2026-04-12T14:05:02.001Z</time></trkpt><trkpt lat="42.68077521494525" lon="11.523192249620319"><ele>209.39999999999998</ele><time>2026-04-12T14:05:03.001Z</time></trkpt><trkpt lat="42.68065596132651" lon="11.523191102104306"><ele>209.8</ele><time>2026-04-12T14:05:04.001Z</time></trkpt><trkpt lat="42.68054071004793" lon="11.523220924251586"><ele>210.2</ele><time>2026-04-12T14:05:05.001Z</time></trkpt><trkpt lat="42.680441258659265" lon="11.52322941918541"><ele>210.60000000000002</ele><time>2026-04-12T14:05:06.001Z</time></trkpt><trkpt lat="42.68034533263153" lon="11.523260788424274"><ele>211.0</ele><time>2026-04-12T14:05:07.001Z</time></trkpt><trkpt lat="42.68023264549816" lon="11.523291908666112"><ele>211.5</ele><time>2026-04-12T14:05:08.001Z</time></trkpt><trkpt lat="42.68011634647307" lon="11.523324675808142"><ele>212.0</ele><time>2026-04-12T14:05:09.001Z</time></trkpt><trkpt lat="42.679984925135294" lon="11.523341320490976"><ele>212.5</ele><time>2026-04-12T14:05:10.001Z</time></trkpt><trkpt lat="42.679853363172946" lon="11.523314690524575"><ele>213.0</ele><time>2026-04-12T14:05:11.001Z</time></trkpt><trkpt lat="42.679721200231974" lon="11.523281234473554"><ele>213.0</ele><time>2026-04-12T14:05:12.001Z</time></trkpt><trkpt lat="42.67958140457655" lon="11.523232918365636"><ele>213.0</ele><time>2026-04-12T14:05:13.001Z</time></trkpt><trkpt lat="42.679454345379575" lon="11.523167991419186"><ele>213.0</ele><time>2026-04-12T14:05:14.001Z</time></trkpt><trkpt lat="42.679331581905" lon="11.52311942277823"><ele>213.0</ele><time>2026-04-12T14:05:15.001Z</time></trkpt><trkpt lat="42.679215473602525" lon="11.52308617776455"><ele>212.75</ele><time>2026-04-12T14:05:16.001Z</time></trkpt><trkpt lat="42.679099726309715" lon="11.523067685261026"><ele>212.5</ele><time>2026-04-12T14:05:17.001Z</time></trkpt><trkpt lat="42.678983112007074" lon="11.523073013656491"><ele>212.25</ele><time>2026-04-12T14:05:18.001Z</time></trkpt><trkpt lat="42.67887751512772" lon="11.523125886447131"><ele>212.0</ele><time>2026-04-12T14:05:19.001Z</time></trkpt><trkpt lat="42.67878018396984" lon="11.523227550670967"><ele>212.0</ele><time>2026-04-12T14:05:20.001Z</time></trkpt><trkpt lat="42.678706673452645" lon="11.523381715489716"><ele>212.0</ele><time>2026-04-12T14:05:21.001Z</time></trkpt><trkpt lat="42.6786447959778" lon="11.523532259871935"><ele>212.0</ele><time>2026-04-12T14:05:22.001Z</time></trkpt><trkpt lat="42.67857721148259" lon="11.52365695802604"><ele>212.0</ele><time>2026-04-12T14:05:23.001Z</time></trkpt><trkpt lat="42.67852039713428" lon="11.523779541634276"><ele>211.6</ele><time>2026-04-12T14:05:24.001Z</time></trkpt><trkpt lat="42.678457482447776" lon="11.52388886708195"><ele>211.2</ele><time>2026-04-12T14:05:25.001Z</time></trkpt><trkpt lat="42.678385819750076" lon="11.52397679627738"><ele>210.8</ele><time>2026-04-12T14:05:26.001Z</time></trkpt><trkpt lat="42.67829263266851" lon="11.52405827581149"><ele>210.4</ele><time>2026-04-12T14:05:27.001Z</time></trkpt><trkpt lat="42.67817469688196" lon="11.52406623442853"><ele>210.0</ele><time>2026-04-12T14:05:28.001Z</time></trkpt><trkpt lat="42.67804292244818" lon="11.524097661803065"><ele>210.0</ele><time>2026-04-12T14:05:29.001Z</time></trkpt><trkpt lat="42.67790819553011" lon="11.524140937438311"><ele>210.0</ele><time>2026-04-12T14:05:30.001Z</time></trkpt><trkpt lat="42.67777058063568" lon="11.524178123460294"><ele>210.0</ele><time>2026-04-12T14:05:31.001Z</time></trkpt><trkpt lat="42.677638600131274" lon="11.524206026977964"><ele>210.0</ele><time>2026-04-12T14:05:32.001Z</time></trkpt><trkpt lat="42.67751707289804" lon="11.524223775436294"><ele>209.75</ele><time>2026-04-12T14:05:33.001Z</time></trkpt><trkpt lat="42.677409357871596" lon="11.52424682552433"><ele>209.5</ele><time>2026-04-12T14:05:34.001Z</time></trkpt><trkpt lat="42.67729722347712" lon="11.52427472177601"><ele>209.25</ele><time>2026-04-12T14:05:35.001Z</time></trkpt><trkpt lat="42.67717920933198" lon="11.524297489018359"><ele>209.0</ele><time>2026-04-12T14:05:36.001Z</time></trkpt><trkpt lat="42.67704384399277" lon="11.52430964650784"><ele>208.75</ele><time>2026-04-12T14:05:37.001Z</time></trkpt><trkpt lat="42.67690222263061" lon="11.524309953766961"><ele>208.5</ele><time>2026-04-12T14:05:38.001Z</time></trkpt><trkpt lat="42.676759205124526" lon="11.524303291475627"><ele>208.25</ele><time>2026-04-12T14:05:39.001Z</time></trkpt><trkpt lat="42.676617500747156" lon="11.52429619682826"><ele>208.0</ele><time>2026-04-12T14:05:40.001Z</time></trkpt><trkpt lat="42.6764779100802" lon="11.524293111391337"><ele>208.0</ele><time>2026-04-12T14:05:41.001Z</time></trkpt><trkpt lat="42.67635062253027" lon="11.52427967645514"><ele>208.0</ele><time>2026-04-12T14:05:42.001Z</time></trkpt><trkpt lat="42.67621825209981" lon="11.524290576516727"><ele>208.0</ele><time>2026-04-12T14:05:43.001Z</time></trkpt><trkpt lat="42.676084921131675" lon="11.524296749930514"><ele>208.0</ele><time>2026-04-12T14:05:44.001Z</time></trkpt><trkpt lat="42.67594765673119" lon="11.524309629018232"><ele>207.5</ele><time>2026-04-12T14:05:45.001Z</time></trkpt><trkpt lat="42.675813966286235" lon="11.52433294644886"><ele>207.0</ele><time>2026-04-12T14:05:46.001Z</time></trkpt><trkpt lat="42.6756810623514" lon="11.524355023904683"><ele>206.5</ele><time>2026-04-12T14:05:47.001Z</time></trkpt><trkpt lat="42.67554255850614" lon="11.524375941068856"><ele>206.0</ele><time>2026-04-12T14:05:48.001Z</time></trkpt><trkpt lat="42.675402146827935" lon="11.524399583939623"><ele>205.75</ele><time>2026-04-12T14:05:49.001Z</time></trkpt><trkpt lat="42.67525244818131" lon="11.524431622834419"><ele>205.5</ele><time>2026-04-12T14:05:50.001Z</time></trkpt><trkpt lat="42.67510547265052" lon="11.524455698434833"><ele>205.25</ele><time>2026-04-12T14:05:51.001Z</time></trkpt><trkpt lat="42.67496038940017" lon="11.524470177248405"><ele>205.0</ele><time>2026-04-12T14:05:52.001Z</time></trkpt><trkpt lat="42.67481243694675" lon="11.524494155475358"><ele>205.0</ele><time>2026-04-12T14:05:53.001Z</time></trkpt><trkpt lat="42.67468043946885" lon="11.524506769082882"><ele>205.0</ele><time>2026-04-12T14:05:54.001Z</time></trkpt><trkpt lat="42.674557245372775" lon="11.524519496345091"><ele>205.0</ele><time>2026-04-12T14:05:55.001Z</time></trkpt><trkpt lat="42.67444103672754" lon="11.524533938944469"><ele>205.0</ele><time>2026-04-12T14:05:56.002Z</time></trkpt><trkpt lat="42.67432761867373" lon="11.524549240194743"><ele>205.0</ele><time>2026-04-12T14:05:57.002Z</time></trkpt><trkpt lat="42.67421638906065" lon="11.5245517305875"><ele>205.0</ele><time>2026-04-12T14:05:58.002Z</time></trkpt><trkpt lat="42.67410327825168" lon="11.52456453925265"><ele>205.0</ele><time>2026-04-12T14:05:59Z</time></trkpt><trkpt lat="42.673997075604156" lon="11.52454313152425"><ele>205.0</ele><time>2026-04-12T14:06:00Z</time></trkpt><trkpt lat="42.673897882344995" lon="11.524562512044067"><ele>205.0</ele><time>2026-04-12T14:06:01Z</time></trkpt><trkpt lat="42.67380373211928" lon="11.524549234064317"><ele>205.0</ele><time>2026-04-12T14:06:02Z</time></trkpt><trkpt lat="42.673711147108" lon="11.524542603163669"><ele>205.0</ele><time>2026-04-12T14:06:03Z</time></trkpt><trkpt lat="42.6736167279524" lon="11.524529156073095"><ele>205.0</ele><time>2026-04-12T14:06:04Z</time></trkpt><trkpt lat="42.67351699740128" lon="11.524516278877572"><ele>205.0</ele><time>2026-04-12T14:06:05Z</time></trkpt><trkpt lat="42.6734003888024" lon="11.52452819308429"><ele>205.0</ele><time>2026-04-12T14:06:06Z</time></trkpt><trkpt lat="42.673273483988616" lon="11.52451358925177"><ele>204.5</ele><time>2026-04-12T14:06:07Z</time></trkpt><trkpt lat="42.673140122489144" lon="11.524489106171158"><ele>204.0</ele><time>2026-04-12T14:06:08Z</time></trkpt><trkpt lat="42.67300542912403" lon="11.524469480322743"><ele>203.5</ele><time>2026-04-12T14:06:09Z</time></trkpt><trkpt lat="42.67287241148428" lon="11.524452990958277"><ele>203.0</ele><time>2026-04-12T14:06:10Z</time></trkpt><trkpt lat="42.67272949421174" lon="11.524433032271707"><ele>202.66666666666669</ele><time>2026-04-12T14:06:11Z</time></trkpt><trkpt lat="42.67257780142903" lon="11.524408578888204"><ele>202.33333333333331</ele><time>2026-04-12T14:06:12Z</time></trkpt><trkpt lat="42.672423836565386" lon="11.524383640290607"><ele>202.0</ele><time>2026-04-12T14:06:13Z</time></trkpt><trkpt lat="42.67226456100999" lon="11.524366348346156"><ele>202.0</ele><time>2026-04-12T14:06:14Z</time></trkpt><trkpt lat="42.67210780051682" lon="11.524338619036982"><ele>202.0</ele><time>2026-04-12T14:06:15Z</time></trkpt><trkpt lat="42.67195024390418" lon="11.524317962433075"><ele>202.0</ele><time>2026-04-12T14:06:16Z</time></trkpt><trkpt lat="42.671795801088315" lon="11.524296792639616"><ele>201.66666666666666</ele><time>2026-04-12T14:06:17Z</time></trkpt><trkpt lat="42.671639927002076" lon="11.524279287319713"><ele>201.33333333333331</ele><time>2026-04-12T14:06:18Z</time></trkpt><trkpt lat="42.671483858535794" lon="11.52426044884871"><ele>201.0</ele><time>2026-04-12T14:06:19Z</time></trkpt><trkpt lat="42.671320045166915" lon="11.524242799637369"><ele>201.0</ele><time>2026-04-12T14:06:20Z</time></trkpt><trkpt lat="42.67115468969479" lon="11.524222046924912"><ele>201.0</ele><time>2026-04-12T14:06:21Z</time></trkpt><trkpt lat="42.67099441747922" lon="11.52419357051647"><ele>201.0</ele><time>2026-04-12T14:06:22Z</time></trkpt><trkpt lat="42.67084992309037" lon="11.524120731226295"><ele>201.66666666666669</ele><time>2026-04-12T14:06:23Z</time></trkpt><trkpt lat="42.67069394877707" lon="11.524070651019219"><ele>202.33333333333334</ele><time>2026-04-12T14:06:24Z</time></trkpt><trkpt lat="42.670543950353256" lon="11.523991370858527"><ele>203.0</ele><time>2026-04-12T14:06:25Z</time></trkpt><trkpt lat="42.67038890165625" lon="11.523931284980478"><ele>204.5</ele><time>2026-04-12T14:06:26Z</time></trkpt><trkpt lat="42.67023792186941" lon="11.523873053948307"><ele>206.0</ele><time>2026-04-12T14:06:27Z</time></trkpt><trkpt lat="42.67009983497698" lon="11.523816612555821"><ele>207.5</ele><time>2026-04-12T14:06:28Z</time></trkpt><trkpt lat="42.66997555780685" lon="11.523765643789018"><ele>209.0</ele><time>2026-04-12T14:06:29Z</time></trkpt><trkpt lat="42.6698557319723" lon="11.523738174076493"><ele>209.0</ele><time>2026-04-12T14:06:30Z</time></trkpt><trkpt lat="42.669724777127044" lon="11.52375266857987"><ele>209.0</ele><time>2026-04-12T14:06:31Z</time></trkpt><trkpt lat="42.66958924326595" lon="11.523831954063922"><ele>209.0</ele><time>2026-04-12T14:06:32Z</time></trkpt><trkpt lat="42.669466550639285" lon="11.523936063609435"><ele>209.0</ele><time>2026-04-12T14:06:33Z</time></trkpt><trkpt lat="42.6693638122116" lon="11.52400070342799"><ele>210.6</ele><time>2026-04-12T14:06:34Z</time></trkpt><trkpt lat="42.66927569238533" lon="11.524020653443767"><ele>212.2</ele><time>2026-04-12T14:06:35Z</time></trkpt><trkpt lat="42.66918748958952" lon="11.52402239887058"><ele>213.79999999999998</ele><time>2026-04-12T14:06:36Z</time></trkpt><trkpt lat="42.66909168801816" lon="11.52398420371694"><ele>215.39999999999998</ele><time>2026-04-12T14:06:37Z</time></trkpt><trkpt lat="42.66903157021443" lon="11.523846963040064"><ele>217.0</ele><time>2026-04-12T14:06:38Z</time></trkpt><trkpt lat="42.66898330497796" lon="11.523722973682466"><ele>217.5</ele><time>2026-04-12T14:06:39Z</time></trkpt><trkpt lat="42.66896134799366" lon="11.523555472253507"><ele>218.0</ele><time>2026-04-12T14:06:40Z</time></trkpt><trkpt lat="42.668940478065714" lon="11.52337725294154"><ele>218.5</ele><time>2026-04-12T14:06:41Z</time></trkpt><trkpt lat="42.66893799693813" lon="11.523214894185907"><ele>219.0</ele><time>2026-04-12T14:06:42Z</time></trkpt><trkpt lat="42.668946771830626" lon="11.523067121116636"><ele>219.0</ele><time>2026-04-12T14:06:43Z</time></trkpt><trkpt lat="42.66896806021708" lon="11.522901605051137"><ele>219.0</ele><time>2026-04-12T14:06:44Z</time></trkpt><trkpt lat="42.66902902204445" lon="11.522737742711728"><ele>219.0</ele><time>2026-04-12T14:06:45Z</time></trkpt><trkpt lat="42.66910602343008" lon="11.52257306330764"><ele>219.0</ele><time>2026-04-12T14:06:46Z</time></trkpt><trkpt lat="42.66917515503727" lon="11.522410506506272"><ele>220.0</ele><time>2026-04-12T14:06:47Z</time></trkpt><trkpt lat="42.66923660592826" lon="11.522213964404152"><ele>221.0</ele><time>2026-04-12T14:06:48Z</time></trkpt><trkpt lat="42.669301575422864" lon="11.522015785271988"><ele>222.0</ele><time>2026-04-12T14:06:49.001Z</time></trkpt><trkpt lat="42.66936611854959" lon="11.521821398569585"><ele>222.5</ele><time>2026-04-12T14:06:50.001Z</time></trkpt><trkpt lat="42.66943026133568" lon="11.521632560976553"><ele>223.0</ele><time>2026-04-12T14:06:51.001Z</time></trkpt><trkpt lat="42.66949172149285" lon="11.521442418148855"><ele>223.5</ele><time>2026-04-12T14:06:52.001Z</time></trkpt><trkpt lat="42.669535163527684" lon="11.52126244347056"><ele>224.0</ele><time>2026-04-12T14:06:53.001Z</time></trkpt><trkpt lat="42.66955156980856" lon="11.521082110840176"><ele>224.0</ele><time>2026-04-12T14:06:54.001Z</time></trkpt><trkpt lat="42.66954714821275" lon="11.520881431656365"><ele>224.0</ele><time>2026-04-12T14:06:55.001Z</time></trkpt><trkpt lat="42.669522767307434" lon="11.520659274419383"><ele>224.0</ele><time>2026-04-12T14:06:56.001Z</time></trkpt><trkpt lat="42.66946938417175" lon="11.520448920641208"><ele>225.75</ele><time>2026-04-12T14:06:57.001Z</time></trkpt><trkpt lat="42.6694117238752" lon="11.520253910128595"><ele>227.5</ele><time>2026-04-12T14:06:58.001Z</time></trkpt><trkpt lat="42.66936283739362" lon="11.520062436904233"><ele>229.25</ele><time>2026-04-12T14:06:59.001Z</time></trkpt><trkpt lat="42.669305164282754" lon="11.519892224448487"><ele>231.0</ele><time>2026-04-12T14:07:00.001Z</time></trkpt><trkpt lat="42.66926135725628" lon="11.519723329864512"><ele>231.75</ele><time>2026-04-12T14:07:01.001Z</time></trkpt><trkpt lat="42.669226824667305" lon="11.519546042772136"><ele>232.5</ele><time>2026-04-12T14:07:02.001Z</time></trkpt><trkpt lat="42.669208127232416" lon="11.519357880023257"><ele>233.25</ele><time>2026-04-12T14:07:03.001Z</time></trkpt><trkpt lat="42.66919665536616" lon="11.519159269351713"><ele>234.0</ele><time>2026-04-12T14:07:04.001Z</time></trkpt><trkpt lat="42.66918990814038" lon="11.518966278246785"><ele>234.0</ele><time>2026-04-12T14:07:05.001Z</time></trkpt><trkpt lat="42.669180346598985" lon="11.518781027752219"><ele>234.0</ele><time>2026-04-12T14:07:06.001Z</time></trkpt><trkpt lat="42.669169691334446" lon="11.51860245561447"><ele>234.0</ele><time>2026-04-12T14:07:07.001Z</time></trkpt><trkpt lat="42.66915735935922" lon="11.51842248729995"><ele>234.0</ele><time>2026-04-12T14:07:08.001Z</time></trkpt><trkpt lat="42.66914797117494" lon="11.518242197926764"><ele>235.25</ele><time>2026-04-12T14:07:09.001Z</time></trkpt><trkpt lat="42.66913489979777" lon="11.518055783326817"><ele>236.5</ele><time>2026-04-12T14:07:10.001Z</time></trkpt><trkpt lat="42.669119828327524" lon="11.51787411320996"><ele>237.75</ele><time>2026-04-12T14:07:11.001Z</time></trkpt><trkpt lat="42.66910699648451" lon="11.517691654589115"><ele>239.0</ele><time>2026-04-12T14:07:12.001Z</time></trkpt><trkpt lat="42.66909807784753" lon="11.517520404550627"><ele>239.39999999999998</ele><time>2026-04-12T14:07:13.001Z</time></trkpt><trkpt lat="42.66908683505782" lon="11.517364040871014"><ele>239.79999999999998</ele><time>2026-04-12T14:07:14.001Z</time></trkpt><trkpt lat="42.669071158676836" lon="11.51721026385601"><ele>240.20000000000002</ele><time>2026-04-12T14:07:15.001Z</time></trkpt><trkpt lat="42.66906031543796" lon="11.517061161495844"><ele>240.60000000000002</ele><time>2026-04-12T14:07:16.001Z</time></trkpt><trkpt lat="42.669044469476844" lon="11.51692128960931"><ele>241.0</ele><time>2026-04-12T14:07:17.001Z</time></trkpt><trkpt lat="42.669040143394675" lon="11.516786448991763"><ele>241.0</ele><time>2026-04-12T14:07:18.001Z</time></trkpt><trkpt lat="42.66903424625912" lon="11.516638522706518"><ele>241.0</ele><time>2026-04-12T14:07:19.001Z</time></trkpt><trkpt lat="42.66902754845545" lon="11.516480049750312"><ele>241.0</ele><time>2026-04-12T14:07:20.001Z</time></trkpt><trkpt lat="42.669009975354264" lon="11.516305117611736"><ele>241.0</ele><time>2026-04-12T14:07:21.001Z</time></trkpt><trkpt lat="42.66899119970332" lon="11.516136686446721"><ele>241.25</ele><time>2026-04-12T14:07:22.001Z</time></trkpt><trkpt lat="42.66897505645876" lon="11.515961094912747"><ele>241.5</ele><time>2026-04-12T14:07:23.001Z</time></trkpt><trkpt lat="42.668966516325966" lon="11.515769078859673"><ele>241.75</ele><time>2026-04-12T14:07:24.001Z</time></trkpt><trkpt lat="42.66895377818618" lon="11.515575216345729"><ele>242.0</ele><time>2026-04-12T14:07:25.001Z</time></trkpt><trkpt lat="42.66893946113064" lon="11.515391052500096"><ele>242.25</ele><time>2026-04-12T14:07:26.001Z</time></trkpt><trkpt lat="42.66892901085821" lon="11.515224835876646"><ele>242.5</ele><time>2026-04-12T14:07:27.001Z</time></trkpt><trkpt lat="42.66891486484171" lon="11.515061757520634"><ele>242.75</ele><time>2026-04-12T14:07:28.001Z</time></trkpt><trkpt lat="42.6689039854169" lon="11.51488129269206"><ele>243.0</ele><time>2026-04-12T14:07:29.001Z</time></trkpt><trkpt lat="42.66889391730159" lon="11.514678730667564"><ele>243.66666666666669</ele><time>2026-04-12T14:07:30.001Z</time></trkpt><trkpt lat="42.66889180886655" lon="11.514460453529852"><ele>244.33333333333334</ele><time>2026-04-12T14:07:31.001Z</time></trkpt><trkpt lat="42.668887903136934" lon="11.5142293472208"><ele>245.0</ele><time>2026-04-12T14:07:32.001Z</time></trkpt><trkpt lat="42.66888413382031" lon="11.51399744141749"><ele>245.0</ele><time>2026-04-12T14:07:33.001Z</time></trkpt><trkpt lat="42.6688825098466" lon="11.513777376365985"><ele>245.0</ele><time>2026-04-12T14:07:34.001Z</time></trkpt><trkpt lat="42.668878893636496" lon="11.513568839714692"><ele>245.0</ele><time>2026-04-12T14:07:35.001Z</time></trkpt><trkpt lat="42.66887589620399" lon="11.513366041375479"><ele>245.66666666666669</ele><time>2026-04-12T14:07:36.001Z</time></trkpt><trkpt lat="42.66887569790974" lon="11.513172554024864"><ele>246.33333333333331</ele><time>2026-04-12T14:07:37.001Z</time></trkpt><trkpt lat="42.668875929396876" lon="11.512968427432828"><ele>247.0</ele><time>2026-04-12T14:07:38.001Z</time></trkpt><trkpt lat="42.668871178962405" lon="11.512749145778866"><ele>247.5</ele><time>2026-04-12T14:07:39.001Z</time></trkpt><trkpt lat="42.66886014208436" lon="11.512534659785404"><ele>248.0</ele><time>2026-04-12T14:07:40.001Z</time></trkpt><trkpt lat="42.668837363118385" lon="11.512342496227225"><ele>248.5</ele><time>2026-04-12T14:07:41.001Z</time></trkpt><trkpt lat="42.66881236934988" lon="11.512168191161555"><ele>249.0</ele><time>2026-04-12T14:07:42.001Z</time></trkpt><trkpt lat="42.66878877060224" lon="11.512003050578866"><ele>249.25</ele><time>2026-04-12T14:07:43.001Z</time></trkpt><trkpt lat="42.668767654919215" lon="11.511850798459408"><ele>249.5</ele><time>2026-04-12T14:07:44.001Z</time></trkpt><trkpt lat="42.66874165920389" lon="11.511703655056241"><ele>249.75</ele><time>2026-04-12T14:07:45.001Z</time></trkpt><trkpt lat="42.66868915618006" lon="11.51156583698308"><ele>250.0</ele><time>2026-04-12T14:07:46.001Z</time></trkpt><trkpt lat="42.66859430850454" lon="11.511446202273882"><ele>248.33333333333331</ele><time>2026-04-12T14:07:47.001Z</time></trkpt><trkpt lat="42.66847121155981" lon="11.511350588226966"><ele>246.66666666666669</ele><time>2026-04-12T14:07:48.001Z</time></trkpt><trkpt lat="42.668330998089345" lon="11.511268888096142"><ele>245.0</ele><time>2026-04-12T14:07:49.001Z</time></trkpt><trkpt lat="42.66818252897501" lon="11.511196316731494"><ele>245.0</ele><time>2026-04-12T14:07:50.001Z</time></trkpt><trkpt lat="42.66801815839569" lon="11.51117232939407"><ele>245.0</ele><time>2026-04-12T14:07:51.001Z</time></trkpt><trkpt lat="42.66784061937857" lon="11.511199030835092"><ele>245.0</ele><time>2026-04-12T14:07:52.001Z</time></trkpt><trkpt lat="42.66766476729424" lon="11.511236231020336"><ele>240.66666666666669</ele><time>2026-04-12T14:07:53.001Z</time></trkpt><trkpt lat="42.66750358861112" lon="11.511253787765055"><ele>236.33333333333331</ele><time>2026-04-12T14:07:54.001Z</time></trkpt><trkpt lat="42.66734339369748" lon="11.51127109584965"><ele>232.0</ele><time>2026-04-12T14:07:55.001Z</time></trkpt><trkpt lat="42.66717602112245" lon="11.511289137246068"><ele>232.0</ele><time>2026-04-12T14:07:56.001Z</time></trkpt><trkpt lat="42.66700257680203" lon="11.511304292432929"><ele>232.0</ele><time>2026-04-12T14:07:57.002Z</time></trkpt><trkpt lat="42.66682124571793" lon="11.511328326804577"><ele>232.0</ele><time>2026-04-12T14:07:58.002Z</time></trkpt><trkpt lat="42.666639274693786" lon="11.511354540408947"><ele>231.33333333333331</ele><time>2026-04-12T14:07:59.002Z</time></trkpt><trkpt lat="42.666454377944454" lon="11.511380274900883"><ele>230.66666666666669</ele><time>2026-04-12T14:08:00.002Z</time></trkpt><trkpt lat="42.66627135395954" lon="11.511404169221239"><ele>230.0</ele><time>2026-04-12T14:08:01.002Z</time></trkpt><trkpt lat="42.66609755439474" lon="11.511423909297823"><ele>229.66666666666669</ele><time>2026-04-12T14:08:02.002Z</time></trkpt><trkpt lat="42.665936273956895" lon="11.511442555230177"><ele>229.33333333333331</ele><time>2026-04-12T14:08:03.002Z</time></trkpt><trkpt lat="42.665778490101125" lon="11.511459631797555"><ele>229.0</ele><time>2026-04-12T14:08:04.002Z</time></trkpt><trkpt lat="42.665621996113465" lon="11.511471862420423"><ele>229.0</ele><time>2026-04-12T14:08:04.999Z</time></trkpt><trkpt lat="42.665465231818665" lon="11.51148182435163"><ele>229.0</ele><time>2026-04-12T14:08:05.999Z</time></trkpt><trkpt lat="42.66529978824821" lon="11.511498430010905"><ele>229.0</ele><time>2026-04-12T14:08:06.999Z</time></trkpt><trkpt lat="42.665136518368136" lon="11.511513063103147"><ele>227.33333333333331</ele><time>2026-04-12T14:08:07.999Z</time></trkpt><trkpt lat="42.66498113759704" lon="11.511517018813501"><ele>225.66666666666669</ele><time>2026-04-12T14:08:08.999Z</time></trkpt><trkpt lat="42.66481493461263" lon="11.511501623203502"><ele>224.0</ele><time>2026-04-12T14:08:09.999Z</time></trkpt><trkpt lat="42.66465374811576" lon="11.511476492173317"><ele>224.0</ele><time>2026-04-12T14:08:10.999Z</time></trkpt><trkpt lat="42.66449836263751" lon="11.511440007733185"><ele>224.0</ele><time>2026-04-12T14:08:11.999Z</time></trkpt><trkpt lat="42.66434977346065" lon="11.511386272645696"><ele>224.0</ele><time>2026-04-12T14:08:12.999Z</time></trkpt><trkpt lat="42.66420547339848" lon="11.511309974042694"><ele>223.0</ele><time>2026-04-12T14:08:13.999Z</time></trkpt><trkpt lat="42.66406129706931" lon="11.51121377762822"><ele>222.0</ele><time>2026-04-12T14:08:14.999Z</time></trkpt><trkpt lat="42.663923236921086" lon="11.511083215022273"><ele>221.0</ele><time>2026-04-12T14:08:16Z</time></trkpt><trkpt lat="42.66379100156607" lon="11.510946090680152"><ele>221.0</ele><time>2026-04-12T14:08:17Z</time></trkpt><trkpt lat="42.66365577675148" lon="11.510811172453877"><ele>221.0</ele><time>2026-04-12T14:08:18Z</time></trkpt><trkpt lat="42.66352797310525" lon="11.510679437800428"><ele>221.0</ele><time>2026-04-12T14:08:19Z</time></trkpt><trkpt lat="42.6634036249358" lon="11.51054864335057"><ele>219.33333333333334</ele><time>2026-04-12T14:08:20Z</time></trkpt><trkpt lat="42.663280094391716" lon="11.510424146562142"><ele>217.66666666666669</ele><time>2026-04-12T14:08:21Z</time></trkpt><trkpt lat="42.663156284630766" lon="11.510302653635007"><ele>216.0</ele><time>2026-04-12T14:08:22Z</time></trkpt><trkpt lat="42.66303183598934" lon="11.5101859729688"><ele>216.0</ele><time>2026-04-12T14:08:23Z</time></trkpt><trkpt lat="42.66290331461311" lon="11.510082179892438"><ele>216.0</ele><time>2026-04-12T14:08:24Z</time></trkpt><trkpt lat="42.662770749510756" lon="11.5100001290811"><ele>216.0</ele><time>2026-04-12T14:08:25Z</time></trkpt><trkpt lat="42.66262968086631" lon="11.509947065476332"><ele>216.0</ele><time>2026-04-12T14:08:26Z</time></trkpt><trkpt lat="42.66248253466335" lon="11.509924514711585"><ele>212.33333333333331</ele><time>2026-04-12T14:08:27Z</time></trkpt><trkpt lat="42.66232995369463" lon="11.509941663880905"><ele>208.66666666666666</ele><time>2026-04-12T14:08:28Z</time></trkpt><trkpt lat="42.662168832221596" lon="11.50998672508573"><ele>205.0</ele><time>2026-04-12T14:08:29Z</time></trkpt><trkpt lat="42.6620066387803" lon="11.510049975557866"><ele>204.33333333333331</ele><time>2026-04-12T14:08:30Z</time></trkpt><trkpt lat="42.66185523064067" lon="11.510120428368017"><ele>203.66666666666669</ele><time>2026-04-12T14:08:31Z</time></trkpt><trkpt lat="42.66171083066915" lon="11.510199362104835"><ele>203.0</ele><time>2026-04-12T14:08:32Z</time></trkpt><trkpt lat="42.66156871192854" lon="11.510276963606344"><ele>203.0</ele><time>2026-04-12T14:08:33Z</time></trkpt><trkpt lat="42.661428356570845" lon="11.510356935950512"><ele>203.0</ele><time>2026-04-12T14:08:34Z</time></trkpt><trkpt lat="42.66128756409964" lon="11.510441229196838"><ele>203.0</ele><time>2026-04-12T14:08:35Z</time></trkpt><trkpt lat="42.661147414731985" lon="11.510521749851248"><ele>198.66666666666669</ele><time>2026-04-12T14:08:36Z</time></trkpt><trkpt lat="42.66099629146585" lon="11.51057654949116"><ele>194.33333333333334</ele><time>2026-04-12T14:08:37Z</time></trkpt><trkpt lat="42.660855340910324" lon="11.510670179532761"><ele>190.0</ele><time>2026-04-12T14:08:38Z</time></trkpt><trkpt lat="42.66069799614826" lon="11.510715365170997"><ele>190.0</ele><time>2026-04-12T14:08:39Z</time></trkpt><trkpt lat="42.66055059120621" lon="11.51077240861703"><ele>190.0</ele><time>2026-04-12T14:08:40Z</time></trkpt><trkpt lat="42.66040805907981" lon="11.51082410935346"><ele>190.0</ele><time>2026-04-12T14:08:41Z</time></trkpt><trkpt lat="42.66027609422339" lon="11.51088589728877"><ele>190.0</ele><time>2026-04-12T14:08:42Z</time></trkpt><trkpt lat="42.66014608573306" lon="11.51089075702308"><ele>189.5</ele><time>2026-04-12T14:08:43Z</time></trkpt><trkpt lat="42.66002138857285" lon="11.510892431717805"><ele>189.0</ele><time>2026-04-12T14:08:44Z</time></trkpt><trkpt lat="42.65989954006819" lon="11.510872229275595"><ele>188.5</ele><time>2026-04-12T14:08:45Z</time></trkpt><trkpt lat="42.659776964518514" lon="11.510858027755225"><ele>188.0</ele><time>2026-04-12T14:08:46Z</time></trkpt><trkpt lat="42.65966688740179" lon="11.510786612370124"><ele>188.0</ele><time>2026-04-12T14:08:47Z</time></trkpt><trkpt lat="42.65955280992413" lon="11.510720203545834"><ele>188.0</ele><time>2026-04-12T14:08:48Z</time></trkpt><trkpt lat="42.65943711724587" lon="11.510632463657398"><ele>188.0</ele><time>2026-04-12T14:08:49Z</time></trkpt><trkpt lat="42.659315818762515" lon="11.510536080540883"><ele>188.0</ele><time>2026-04-12T14:08:50Z</time></trkpt><trkpt lat="42.65918274578872" lon="11.51044416720595"><ele>187.33333333333331</ele><time>2026-04-12T14:08:51Z</time></trkpt><trkpt lat="42.659046333639445" lon="11.510345586236435"><ele>186.66666666666666</ele><time>2026-04-12T14:08:52Z</time></trkpt><trkpt lat="42.65890622583619" lon="11.510238167845742"><ele>186.0</ele><time>2026-04-12T14:08:53Z</time></trkpt><trkpt lat="42.658761200170275" lon="11.510133383760154"><ele>186.0</ele><time>2026-04-12T14:08:54Z</time></trkpt><trkpt lat="42.65861800529602" lon="11.510035290843993"><ele>186.0</ele><time>2026-04-12T14:08:55Z</time></trkpt><trkpt lat="42.65848425585825" lon="11.509934377619622"><ele>186.0</ele><time>2026-04-12T14:08:56Z</time></trkpt><trkpt lat="42.658361380668644" lon="11.509839773734523"><ele>183.75</ele><time>2026-04-12T14:08:57Z</time></trkpt><trkpt lat="42.65824483694492" lon="11.509752740056928"><ele>181.5</ele><time>2026-04-12T14:08:58Z</time></trkpt><trkpt lat="42.65813416644059" lon="11.509682896654692"><ele>179.25</ele><time>2026-04-12T14:08:59Z</time></trkpt><trkpt lat="42.65802483709247" lon="11.509650382539858"><ele>177.0</ele><time>2026-04-12T14:09:00Z</time></trkpt><trkpt lat="42.65791042701365" lon="11.509675688463334"><ele>177.0</ele><time>2026-04-12T14:09:01Z</time></trkpt><trkpt lat="42.65779987059137" lon="11.509772459835588"><ele>177.0</ele><time>2026-04-12T14:09:02Z</time></trkpt><trkpt lat="42.65770949625582" lon="11.509921602673138"><ele>177.0</ele><time>2026-04-12T14:09:03.001Z</time></trkpt><trkpt lat="42.65765420385947" lon="11.51011819407359"><ele>177.0</ele><time>2026-04-12T14:09:04.001Z</time></trkpt><trkpt lat="42.65757630393911" lon="11.510292012457139"><ele>173.75</ele><time>2026-04-12T14:09:05.001Z</time></trkpt><trkpt lat="42.657512868404645" lon="11.510469039454433"><ele>170.5</ele><time>2026-04-12T14:09:06.001Z</time></trkpt><trkpt lat="42.657445228226784" lon="11.510637119749331"><ele>167.25</ele><time>2026-04-12T14:09:07.001Z</time></trkpt><trkpt lat="42.65736748044373" lon="11.510789889346668"><ele>164.0</ele><time>2026-04-12T14:09:08.001Z</time></trkpt><trkpt lat="42.65726827564919" lon="11.510930567627318"><ele>164.0</ele><time>2026-04-12T14:09:09.001Z</time></trkpt><trkpt lat="42.65715568477001" lon="11.511045439928361"><ele>164.0</ele><time>2026-04-12T14:09:10.001Z</time></trkpt><trkpt lat="42.65703224243687" lon="11.511132164135361"><ele>164.0</ele><time>2026-04-12T14:09:11.001Z</time></trkpt><trkpt lat="42.656898255945684" lon="11.511193515049229"><ele>164.0</ele><time>2026-04-12T14:09:12.001Z</time></trkpt><trkpt lat="42.65675355774343" lon="11.511244813118365"><ele>162.5</ele><time>2026-04-12T14:09:13.001Z</time></trkpt><trkpt lat="42.65661232485716" lon="11.511307343267406"><ele>161.0</ele><time>2026-04-12T14:09:14.001Z</time></trkpt><trkpt lat="42.656494585199304" lon="11.511330701545981"><ele>159.5</ele><time>2026-04-12T14:09:15.001Z</time></trkpt><trkpt lat="42.65639482484133" lon="11.51135450911842"><ele>158.0</ele><time>2026-04-12T14:09:16.001Z</time></trkpt><trkpt lat="42.656294151414755" lon="11.511375331805498"><ele>158.0</ele><time>2026-04-12T14:09:17.001Z</time></trkpt><trkpt lat="42.65618745939147" lon="11.511392059298535"><ele>158.0</ele><time>2026-04-12T14:09:18.001Z</time></trkpt><trkpt lat="42.6560701509166" lon="11.511410481290028"><ele>158.0</ele><time>2026-04-12T14:09:19.001Z</time></trkpt><trkpt lat="42.65594484473018" lon="11.51142528940237"><ele>158.0</ele><time>2026-04-12T14:09:20.001Z</time></trkpt><trkpt lat="42.6558126498659" lon="11.51144077590333"><ele>156.6</ele><time>2026-04-12T14:09:21.001Z</time></trkpt><trkpt lat="42.65568172722972" lon="11.511453409434607"><ele>155.20000000000002</ele><time>2026-04-12T14:09:22.001Z</time></trkpt><trkpt lat="42.65557055595021" lon="11.511455890448723"><ele>153.8</ele><time>2026-04-12T14:09:23.001Z</time></trkpt><trkpt lat="42.65547804053218" lon="11.511460450697806"><ele>152.4</ele><time>2026-04-12T14:09:24.001Z</time></trkpt><trkpt lat="42.655408402781106" lon="11.511460005950795"><ele>151.0</ele><time>2026-04-12T14:09:25.001Z</time></trkpt><trkpt lat="42.65530010150946" lon="11.511459128144777"><ele>150.71428571428572</ele><time>2026-04-12T14:09:27.001Z</time></trkpt><trkpt lat="42.65522140972438" lon="11.5114230285944"><ele>150.42857142857144</ele><time>2026-04-12T14:09:29.001Z</time></trkpt><trkpt lat="42.65517242237437" lon="11.511366780619651"><ele>150.14285714285714</ele><time>2026-04-12T14:09:31.001Z</time></trkpt><trkpt lat="42.65511759689655" lon="11.511315877674457"><ele>149.85714285714286</ele><time>2026-04-12T14:09:35.001Z</time></trkpt><trkpt lat="42.655052297803095" lon="11.511301544801224"><ele>149.57142857142856</ele><time>2026-04-12T14:11:44.001Z</time></trkpt><trkpt lat="42.655006256535444" lon="11.51136307311875"><ele>149.28571428571428</ele><time>2026-04-12T14:13:55.001Z</time></trkpt><trkpt lat="42.65494792695575" lon="11.511480018063034"><ele>149.0</ele><time>2026-04-12T14:13:58.002Z</time></trkpt><trkpt lat="42.65481896810803" lon="11.511496599079104"><ele>149.0</ele><time>2026-04-12T14:14:00.002Z</time></trkpt><trkpt lat="42.65474623998463" lon="11.511498976311536"><ele>149.0</ele><time>2026-04-12T14:14:01.002Z</time></trkpt><trkpt lat="42.65465484388077" lon="11.51150658696631"><ele>149.0</ele><time>2026-04-12T14:14:02.002Z</time></trkpt><trkpt lat="42.65453925202944" lon="11.511508264400904"><ele>149.0</ele><time>2026-04-12T14:14:03.002Z</time></trkpt><trkpt lat="42.65441644693614" lon="11.511517193507423"><ele>149.0</ele><time>2026-04-12T14:14:04.002Z</time></trkpt><trkpt lat="42.65430302107238" lon="11.5115238332539"><ele>149.0</ele><time>2026-04-12T14:14:05.002Z</time></trkpt><trkpt lat="42.65418698643835" lon="11.51153051248675"><ele>149.0</ele><time>2026-04-12T14:14:06.002Z</time></trkpt><trkpt lat="42.65407356716456" lon="11.511539939376435"><ele>149.0</ele><time>2026-04-12T14:14:07.002Z</time></trkpt><trkpt lat="42.65396288373412" lon="11.511550106699916"><ele>149.0</ele><time>2026-04-12T14:14:08.002Z</time></trkpt><trkpt lat="42.653853667840416" lon="11.511555950722997"><ele>149.0</ele><time>2026-04-12T14:14:09.002Z</time></trkpt><trkpt lat="42.65374918531515" lon="11.511559145875548"><ele>149.0</ele><time>2026-04-12T14:14:10.002Z</time></trkpt><trkpt lat="42.65364652854098" lon="11.511563656006118"><ele>149.0</ele><time>2026-04-12T14:14:11.002Z</time></trkpt><trkpt lat="42.65354608739748" lon="11.511567755454777"><ele>149.0</ele><time>2026-04-12T14:14:12.002Z</time></trkpt><trkpt lat="42.65344733614079" lon="11.511573317302059"><ele>149.0</ele><time>2026-04-12T14:14:13.002Z</time></trkpt><trkpt lat="42.653346857929336" lon="11.511579907202568"><ele>148.5</ele><time>2026-04-12T14:14:14.002Z</time></trkpt><trkpt lat="42.6532364713863" lon="11.511586602814402"><ele>148.0</ele><time>2026-04-12T14:14:15.002Z</time></trkpt><trkpt lat="42.65311565871169" lon="11.511591642853665"><ele>147.5</ele><time>2026-04-12T14:14:16.002Z</time></trkpt><trkpt lat="42.652981936832454" lon="11.511603734270944"><ele>147.0</ele><time>2026-04-12T14:14:17.002Z</time></trkpt><trkpt lat="42.652836734397546" lon="11.511594567834736"><ele>147.0</ele><time>2026-04-12T14:14:18.002Z</time></trkpt><trkpt lat="42.652685838531674" lon="11.51162362089497"><ele>147.0</ele><time>2026-04-12T14:14:19.002Z</time></trkpt><trkpt lat="42.65254417958671" lon="11.51162631564091"><ele>147.0</ele><time>2026-04-12T14:14:20.002Z</time></trkpt><trkpt lat="42.65240798873232" lon="11.511639107476023"><ele>147.0</ele><time>2026-04-12T14:14:21.002Z</time></trkpt><trkpt lat="42.65227320039648" lon="11.511645567840217"><ele>147.0</ele><time>2026-04-12T14:14:22.002Z</time></trkpt><trkpt lat="42.65214348160624" lon="11.511652755379647"><ele>147.0</ele><time>2026-04-12T14:14:23Z</time></trkpt><trkpt lat="42.6520228842758" lon="11.51165636660196"><ele>147.0</ele><time>2026-04-12T14:14:24Z</time></trkpt><trkpt lat="42.651902194675905" lon="11.511662488092592"><ele>147.0</ele><time>2026-04-12T14:14:25Z</time></trkpt><trkpt lat="42.6517782870855" lon="11.511670670575274"><ele>147.25</ele><time>2026-04-12T14:14:26Z</time></trkpt><trkpt lat="42.651649690721165" lon="11.511677546762465"><ele>147.5</ele><time>2026-04-12T14:14:27Z</time></trkpt><trkpt lat="42.65151457873784" lon="11.511685876659266"><ele>147.75</ele><time>2026-04-12T14:14:28Z</time></trkpt><trkpt lat="42.65137527527516" lon="11.51169362276216"><ele>148.0</ele><time>2026-04-12T14:14:29Z</time></trkpt><trkpt lat="42.65122501345868" lon="11.5117014670778"><ele>147.66666666666669</ele><time>2026-04-12T14:14:30Z</time></trkpt><trkpt lat="42.65107162335217" lon="11.511705787080823"><ele>147.33333333333334</ele><time>2026-04-12T14:14:31Z</time></trkpt><trkpt lat="42.65091889462093" lon="11.511713265915379"><ele>147.0</ele><time>2026-04-12T14:14:32Z</time></trkpt><trkpt lat="42.650767754244534" lon="11.511723740872338"><ele>147.0</ele><time>2026-04-12T14:14:33Z</time></trkpt><trkpt lat="42.65061037727498" lon="11.51173448356255"><ele>147.0</ele><time>2026-04-12T14:14:34Z</time></trkpt><trkpt lat="42.6504455703529" lon="11.511742367152811"><ele>147.0</ele><time>2026-04-12T14:14:35Z</time></trkpt><trkpt lat="42.65028026768816" lon="11.511748897147145"><ele>147.0</ele><time>2026-04-12T14:14:36Z</time></trkpt><trkpt lat="42.65013146183035" lon="11.511759567845544"><ele>147.0</ele><time>2026-04-12T14:14:37Z</time></trkpt><trkpt lat="42.649997085304" lon="11.51176807874731"><ele>147.0</ele><time>2026-04-12T14:14:38Z</time></trkpt><trkpt lat="42.64987142207361" lon="11.511778110955538"><ele>147.0</ele><time>2026-04-12T14:14:39Z</time></trkpt><trkpt lat="42.649753808603485" lon="11.511781411395665"><ele>147.0</ele><time>2026-04-12T14:14:40Z</time></trkpt><trkpt lat="42.64964842497463" lon="11.511782224319965"><ele>147.0</ele><time>2026-04-12T14:14:41Z</time></trkpt><trkpt lat="42.649553744463766" lon="11.511793054058172"><ele>147.0</ele><time>2026-04-12T14:14:42Z</time></trkpt><trkpt lat="42.64946043843454" lon="11.511843905359694"><ele>147.0</ele><time>2026-04-12T14:14:43Z</time></trkpt><trkpt lat="42.64935995718634" lon="11.51192780416836"><ele>147.0</ele><time>2026-04-12T14:14:44Z</time></trkpt><trkpt lat="42.64928261659731" lon="11.512052341649074"><ele>146.25</ele><time>2026-04-12T14:14:45Z</time></trkpt><trkpt lat="42.64921527698564" lon="11.512217601333703"><ele>145.5</ele><time>2026-04-12T14:14:46Z</time></trkpt><trkpt lat="42.64914777458346" lon="11.512397067992302"><ele>144.75</ele><time>2026-04-12T14:14:47Z</time></trkpt><trkpt lat="42.649074075030185" lon="11.51257780750596"><ele>144.0</ele><time>2026-04-12T14:14:48Z</time></trkpt><trkpt lat="42.649003355735815" lon="11.512776002149048"><ele>143.33333333333334</ele><time>2026-04-12T14:14:49Z</time></trkpt><trkpt lat="42.64893352309291" lon="11.512971351428344"><ele>142.66666666666669</ele><time>2026-04-12T14:14:50Z</time></trkpt><trkpt lat="42.64886342400515" lon="11.51315318491289"><ele>142.0</ele><time>2026-04-12T14:14:51Z</time></trkpt><trkpt lat="42.64879799354364" lon="11.513326783614326"><ele>142.0</ele><time>2026-04-12T14:14:52Z</time></trkpt><trkpt lat="42.648734033520064" lon="11.513495792801189"><ele>142.0</ele><time>2026-04-12T14:14:53Z</time></trkpt><trkpt lat="42.64866761307585" lon="11.513668129353022"><ele>142.0</ele><time>2026-04-12T14:14:54Z</time></trkpt><trkpt lat="42.64860621552069" lon="11.513845867278253"><ele>142.0</ele><time>2026-04-12T14:14:55Z</time></trkpt><trkpt lat="42.64854458635247" lon="11.514018777343134"><ele>141.25</ele><time>2026-04-12T14:14:56Z</time></trkpt><trkpt lat="42.64848007396147" lon="11.51419452173986"><ele>140.5</ele><time>2026-04-12T14:14:57Z</time></trkpt><trkpt lat="42.64841802109295" lon="11.514372999638038"><ele>139.75</ele><time>2026-04-12T14:14:58Z</time></trkpt><trkpt lat="42.6483531403577" lon="11.51457070577791"><ele>139.0</ele><time>2026-04-12T14:14:59Z</time></trkpt><trkpt lat="42.64828015631685" lon="11.51478392399817"><ele>139.0</ele><time>2026-04-12T14:15:00Z</time></trkpt><trkpt lat="42.64820812782855" lon="11.51501254095131"><ele>139.0</ele><time>2026-04-12T14:15:01Z</time></trkpt><trkpt lat="42.64812184140919" lon="11.51522523675276"><ele>139.0</ele><time>2026-04-12T14:15:02Z</time></trkpt><trkpt lat="42.64805339101348" lon="11.515434936246226"><ele>138.33333333333334</ele><time>2026-04-12T14:15:03Z</time></trkpt><trkpt lat="42.64798061774663" lon="11.515661563792285"><ele>137.66666666666666</ele><time>2026-04-12T14:15:04Z</time></trkpt><trkpt lat="42.647898041435404" lon="11.51592098793625"><ele>137.0</ele><time>2026-04-12T14:15:05Z</time></trkpt><trkpt lat="42.647815813404705" lon="11.516180070454814"><ele>137.66666666666666</ele><time>2026-04-12T14:15:06Z</time></trkpt><trkpt lat="42.64772734244536" lon="11.516458823045829"><ele>138.33333333333334</ele><time>2026-04-12T14:15:07Z</time></trkpt><trkpt lat="42.64765494904115" lon="11.516740362855442"><ele>139.0</ele><time>2026-04-12T14:15:08Z</time></trkpt><trkpt lat="42.647575677822545" lon="11.516989327661918"><ele>139.66666666666669</ele><time>2026-04-12T14:15:09Z</time></trkpt><trkpt lat="42.64748623108869" lon="11.517213623943164"><ele>140.33333333333334</ele><time>2026-04-12T14:15:10Z</time></trkpt><trkpt lat="42.64741256417456" lon="11.517429107644164"><ele>141.0</ele><time>2026-04-12T14:15:11.001Z</time></trkpt><trkpt lat="42.64734342399524" lon="11.517598646861758"><ele>141.0</ele><time>2026-04-12T14:15:12.001Z</time></trkpt><trkpt lat="42.647266418705236" lon="11.517733983793974"><ele>141.0</ele><time>2026-04-12T14:15:13.001Z</time></trkpt><trkpt lat="42.647181590908566" lon="11.517848533541"><ele>141.0</ele><time>2026-04-12T14:15:14.001Z</time></trkpt><trkpt lat="42.64708378944882" lon="11.51793543012716"><ele>141.0</ele><time>2026-04-12T14:15:15.001Z</time></trkpt><trkpt lat="42.646970361765675" lon="11.517995465465324"><ele>141.25</ele><time>2026-04-12T14:15:16.001Z</time></trkpt><trkpt lat="42.646835185421395" lon="11.518001830999436"><ele>141.5</ele><time>2026-04-12T14:15:17.001Z</time></trkpt><trkpt lat="42.646696502718534" lon="11.517954142501338"><ele>141.75</ele><time>2026-04-12T14:15:18.001Z</time></trkpt><trkpt lat="42.64656871941124" lon="11.517853356713289"><ele>142.0</ele><time>2026-04-12T14:15:19.001Z</time></trkpt><trkpt lat="42.64644882916036" lon="11.517717119260661"><ele>142.33333333333334</ele><time>2026-04-12T14:15:20.001Z</time></trkpt><trkpt lat="42.646325943994434" lon="11.517590387348497"><ele>142.66666666666666</ele><time>2026-04-12T14:15:21.001Z</time></trkpt><trkpt lat="42.64620087506168" lon="11.51746786395841"><ele>143.0</ele><time>2026-04-12T14:15:22.001Z</time></trkpt><trkpt lat="42.646078991706624" lon="11.517341604715359"><ele>143.0</ele><time>2026-04-12T14:15:23.001Z</time></trkpt><trkpt lat="42.64595937054239" lon="11.517217379372592"><ele>143.0</ele><time>2026-04-12T14:15:24.001Z</time></trkpt><trkpt lat="42.64584017732912" lon="11.517097000183044"><ele>143.0</ele><time>2026-04-12T14:15:25.001Z</time></trkpt><trkpt lat="42.64572941575708" lon="11.516978322932326"><ele>143.0</ele><time>2026-04-12T14:15:26.001Z</time></trkpt><trkpt lat="42.6456386130561" lon="11.516875037233913"><ele>143.0</ele><time>2026-04-12T14:15:27.001Z</time></trkpt><trkpt lat="42.645578351252865" lon="11.516765146390268"><ele>143.0</ele><time>2026-04-12T14:15:28.001Z</time></trkpt><trkpt lat="42.64554924446137" lon="11.516627226559187"><ele>143.0</ele><time>2026-04-12T14:15:29.001Z</time></trkpt><trkpt lat="42.645525419837284" lon="11.516473750915859"><ele>143.0</ele><time>2026-04-12T14:15:30.001Z</time></trkpt><trkpt lat="42.64549888011081" lon="11.516307356694162"><ele>143.0</ele><time>2026-04-12T14:15:31.001Z</time></trkpt><trkpt lat="42.64546647299514" lon="11.516147819731698"><ele>143.0</ele><time>2026-04-12T14:15:32.001Z</time></trkpt><trkpt lat="42.645430391643444" lon="11.516000630482223"><ele>143.0</ele><time>2026-04-12T14:15:33.001Z</time></trkpt><trkpt lat="42.64537556492521" lon="11.51587554024636"><ele>143.0</ele><time>2026-04-12T14:15:34.001Z</time></trkpt><trkpt lat="42.64528845340036" lon="11.515790826837698"><ele>143.0</ele><time>2026-04-12T14:15:35.001Z</time></trkpt><trkpt lat="42.64517503995623" lon="11.515739654391338"><ele>143.0</ele><time>2026-04-12T14:15:36.001Z</time></trkpt><trkpt lat="42.64504679071929" lon="11.515725631551613"><ele>144.4</ele><time>2026-04-12T14:15:37.001Z</time></trkpt><trkpt lat="42.644917160933666" lon="11.515719424268926"><ele>145.8</ele><time>2026-04-12T14:15:38.001Z</time></trkpt><trkpt lat="42.64480487533561" lon="11.515681503248835"><ele>147.2</ele><time>2026-04-12T14:15:39.001Z</time></trkpt><trkpt lat="42.64471506876287" lon="11.515615889179154"><ele>148.6</ele><time>2026-04-12T14:15:40.001Z</time></trkpt><trkpt lat="42.64464965288122" lon="11.51554193015148"><ele>150.0</ele><time>2026-04-12T14:15:41.001Z</time></trkpt><trkpt lat="42.64461043597233" lon="11.515458751368106"><ele>151.0</ele><time>2026-04-12T14:15:42.001Z</time></trkpt><trkpt lat="42.64459974561342" lon="11.515354313801655"><ele>152.0</ele><time>2026-04-12T14:15:43.001Z</time></trkpt><trkpt lat="42.64462172697223" lon="11.515242717214308"><ele>153.0</ele><time>2026-04-12T14:15:44.001Z</time></trkpt><trkpt lat="42.644691401603204" lon="11.515151022843297"><ele>154.0</ele><time>2026-04-12T14:15:45.001Z</time></trkpt><trkpt lat="42.64479133437506" lon="11.515091705903412"><ele>155.0</ele><time>2026-04-12T14:15:46.001Z</time></trkpt><trkpt lat="42.644906259644024" lon="11.515044248203973"><ele>155.0</ele><time>2026-04-12T14:15:47.001Z</time></trkpt><trkpt lat="42.64501516421051" lon="11.514976656046914"><ele>155.0</ele><time>2026-04-12T14:15:48.001Z</time></trkpt><trkpt lat="42.64509243802634" lon="11.514849500250241"><ele>155.0</ele><time>2026-04-12T14:15:49.001Z</time></trkpt><trkpt lat="42.645129983576126" lon="11.514674996188251"><ele>155.0</ele><time>2026-04-12T14:15:50.001Z</time></trkpt><trkpt lat="42.64513015090202" lon="11.51445997260054"><ele>158.33333333333331</ele><time>2026-04-12T14:15:51.001Z</time></trkpt><trkpt lat="42.64512002309965" lon="11.514220028610076"><ele>161.66666666666666</ele><time>2026-04-12T14:15:52.001Z</time></trkpt><trkpt lat="42.645110372611065" lon="11.51400453734743"><ele>165.0</ele><time>2026-04-12T14:15:53.001Z</time></trkpt><trkpt lat="42.64512084531046" lon="11.513828729501524"><ele>167.75</ele><time>2026-04-12T14:15:54.001Z</time></trkpt><trkpt lat="42.64514522614899" lon="11.513675876902372"><ele>170.5</ele><time>2026-04-12T14:15:55.001Z</time></trkpt><trkpt lat="42.645195258416805" lon="11.513542078713119"><ele>173.25</ele><time>2026-04-12T14:15:56.001Z</time></trkpt><trkpt lat="42.64527772995502" lon="11.513422962707278"><ele>176.0</ele><time>2026-04-12T14:15:57.001Z</time></trkpt><trkpt lat="42.64537777106837" lon="11.513309637353935"><ele>172.0</ele><time>2026-04-12T14:15:58.001Z</time></trkpt><trkpt lat="42.64547529965111" lon="11.513192525945733"><ele>168.0</ele><time>2026-04-12T14:15:59.001Z</time></trkpt><trkpt lat="42.64554814241849" lon="11.513061718863904"><ele>164.0</ele><time>2026-04-12T14:16:00.001Z</time></trkpt><trkpt lat="42.64560700379921" lon="11.512908373365347"><ele>160.0</ele><time>2026-04-12T14:16:01.001Z</time></trkpt><trkpt lat="42.64565268028521" lon="11.512761461106109"><ele>160.0</ele><time>2026-04-12T14:16:02.001Z</time></trkpt><trkpt lat="42.64565706608065" lon="11.512609735707395"><ele>160.0</ele><time>2026-04-12T14:16:03.001Z</time></trkpt><trkpt lat="42.64562684379309" lon="11.51248854999922"><ele>160.0</ele><time>2026-04-12T14:16:04.001Z</time></trkpt><trkpt lat="42.64555378921022" lon="11.512377143461999"><ele>160.0</ele><time>2026-04-12T14:16:05.001Z</time></trkpt><trkpt lat="42.64546424310738" lon="11.512279847598696"><ele>160.0</ele><time>2026-04-12T14:16:06.001Z</time></trkpt><trkpt lat="42.645372902582395" lon="11.512174597461655"><ele>166.0</ele><time>2026-04-12T14:16:07.001Z</time></trkpt><trkpt lat="42.64529033373821" lon="11.512076563937423"><ele>172.0</ele><time>2026-04-12T14:16:08.001Z</time></trkpt><trkpt lat="42.645216216809736" lon="11.51196714377955"><ele>178.0</ele><time>2026-04-12T14:16:09.001Z</time></trkpt><trkpt lat="42.6451715669738" lon="11.511817663597403"><ele>184.0</ele><time>2026-04-12T14:16:10.001Z</time></trkpt><trkpt lat="42.645116608651946" lon="11.511657219951463"><ele>184.0</ele><time>2026-04-12T14:16:11.001Z</time></trkpt><trkpt lat="42.645107746006126" lon="11.51146374466276"><ele>184.0</ele><time>2026-04-12T14:16:12.001Z</time></trkpt><trkpt lat="42.64511708889573" lon="11.511263335631611"><ele>184.0</ele><time>2026-04-12T14:16:13.001Z</time></trkpt><trkpt lat="42.64512957049565" lon="11.511078316060832"><ele>184.0</ele><time>2026-04-12T14:16:14.001Z</time></trkpt><trkpt lat="42.64511933306184" lon="11.510927787931086"><ele>184.75</ele><time>2026-04-12T14:16:15.001Z</time></trkpt><trkpt lat="42.64507521020839" lon="11.510807175123913"><ele>185.5</ele><time>2026-04-12T14:16:16.002Z</time></trkpt><trkpt lat="42.64499110947304" lon="11.510714389382063"><ele>186.25</ele><time>2026-04-12T14:16:17.002Z</time></trkpt><trkpt lat="42.64486744091962" lon="11.510668504231155"><ele>187.0</ele><time>2026-04-12T14:16:18.002Z</time></trkpt><trkpt lat="42.644718552608424" lon="11.510672344072024"><ele>187.0</ele><time>2026-04-12T14:16:19.002Z</time></trkpt><trkpt lat="42.6445723268001" lon="11.51066642632881"><ele>187.0</ele><time>2026-04-12T14:16:20.002Z</time></trkpt><trkpt lat="42.64443327946362" lon="11.510649680379773"><ele>187.0</ele><time>2026-04-12T14:16:21.002Z</time></trkpt><trkpt lat="42.64427972803994" lon="11.51061693983693"><ele>187.0</ele><time>2026-04-12T14:16:22.002Z</time></trkpt><trkpt lat="42.644130860325724" lon="11.510573364637422"><ele>188.66666666666669</ele><time>2026-04-12T14:16:23.002Z</time></trkpt><trkpt lat="42.643978670338804" lon="11.51052351546626"><ele>190.33333333333334</ele><time>2026-04-12T14:16:24.002Z</time></trkpt><trkpt lat="42.64381328915984" lon="11.510483580906634"><ele>192.0</ele><time>2026-04-12T14:16:25.002Z</time></trkpt><trkpt lat="42.64365247931828" lon="11.510406878289533"><ele>193.33333333333331</ele><time>2026-04-12T14:16:26.002Z</time></trkpt><trkpt lat="42.643506829268766" lon="11.51029151026069"><ele>194.66666666666666</ele><time>2026-04-12T14:16:27.002Z</time></trkpt><trkpt lat="42.64336077025267" lon="11.51017170395894"><ele>196.0</ele><time>2026-04-12T14:16:28.002Z</time></trkpt><trkpt lat="42.643203899959744" lon="11.510053834685133"><ele>196.0</ele><time>2026-04-12T14:16:28.999Z</time></trkpt><trkpt lat="42.64305048213411" lon="11.50990697876781"><ele>196.0</ele><time>2026-04-12T14:16:29.999Z</time></trkpt><trkpt lat="42.64289401532895" lon="11.50976115306198"><ele>196.0</ele><time>2026-04-12T14:16:30.999Z</time></trkpt><trkpt lat="42.64274237588314" lon="11.509616624512399"><ele>197.66666666666666</ele><time>2026-04-12T14:16:31.999Z</time></trkpt><trkpt lat="42.642587762649924" lon="11.509470954167414"><ele>199.33333333333331</ele><time>2026-04-12T14:16:32.999Z</time></trkpt><trkpt lat="42.642443211555715" lon="11.509323568623048"><ele>201.0</ele><time>2026-04-12T14:16:33.999Z</time></trkpt><trkpt lat="42.64229526024993" lon="11.509182013121242"><ele>201.0</ele><time>2026-04-12T14:16:34.999Z</time></trkpt><trkpt lat="42.64214765719214" lon="11.509043920988622"><ele>201.0</ele><time>2026-04-12T14:16:35.999Z</time></trkpt><trkpt lat="42.64199553041711" lon="11.50889945351288"><ele>201.0</ele><time>2026-04-12T14:16:36.999Z</time></trkpt><trkpt lat="42.6418417756259" lon="11.50875664177446"><ele>202.0</ele><time>2026-04-12T14:16:37.999Z</time></trkpt><trkpt lat="42.641689794359635" lon="11.508612417507756"><ele>203.0</ele><time>2026-04-12T14:16:38.999Z</time></trkpt><trkpt lat="42.64154008631449" lon="11.508469898666027"><ele>204.0</ele><time>2026-04-12T14:16:39.999Z</time></trkpt><trkpt lat="42.641391241780056" lon="11.508322705412839"><ele>204.0</ele><time>2026-04-12T14:16:40.999Z</time></trkpt><trkpt lat="42.64124058274126" lon="11.508176474024323"><ele>204.0</ele><time>2026-04-12T14:16:41.999Z</time></trkpt><trkpt lat="42.64108474613331" lon="11.508033052534481"><ele>204.0</ele><time>2026-04-12T14:16:42.999Z</time></trkpt><trkpt lat="42.64092066377437" lon="11.507890590018668"><ele>203.0</ele><time>2026-04-12T14:16:43.999Z</time></trkpt><trkpt lat="42.64075211496697" lon="11.507738631501798"><ele>202.0</ele><time>2026-04-12T14:16:44.999Z</time></trkpt><trkpt lat="42.64058537664095" lon="11.507583362400245"><ele>201.0</ele><time>2026-04-12T14:16:45.999Z</time></trkpt><trkpt lat="42.640417086698555" lon="11.507421913356534"><ele>201.33333333333331</ele><time>2026-04-12T14:16:46.999Z</time></trkpt><trkpt lat="42.640244366658" lon="11.507257311463324"><ele>201.66666666666666</ele><time>2026-04-12T14:16:48Z</time></trkpt><trkpt lat="42.64007200844929" lon="11.50709422709337"><ele>202.0</ele><time>2026-04-12T14:16:49Z</time></trkpt><trkpt lat="42.639896763191096" lon="11.50692844233249"><ele>202.33333333333331</ele><time>2026-04-12T14:16:50Z</time></trkpt><trkpt lat="42.63972624497535" lon="11.506767708030916"><ele>202.66666666666669</ele><time>2026-04-12T14:16:51Z</time></trkpt><trkpt lat="42.63955805966674" lon="11.506609854371709"><ele>203.0</ele><time>2026-04-12T14:16:52Z</time></trkpt><trkpt lat="42.63939378078064" lon="11.506460152851277"><ele>203.33333333333334</ele><time>2026-04-12T14:16:53Z</time></trkpt><trkpt lat="42.639236193618885" lon="11.506315549563752"><ele>203.66666666666669</ele><time>2026-04-12T14:16:54Z</time></trkpt><trkpt lat="42.639084939340854" lon="11.506173174739049"><ele>204.0</ele><time>2026-04-12T14:16:55Z</time></trkpt><trkpt lat="42.638936645378344" lon="11.506030466105228"><ele>204.33333333333331</ele><time>2026-04-12T14:16:56Z</time></trkpt><trkpt lat="42.63878492574906" lon="11.505886095753077"><ele>204.66666666666666</ele><time>2026-04-12T14:16:57Z</time></trkpt><trkpt lat="42.63863265088247" lon="11.505744196158219"><ele>205.0</ele><time>2026-04-12T14:16:58Z</time></trkpt><trkpt lat="42.63847608116804" lon="11.505593553969744"><ele>205.0</ele><time>2026-04-12T14:16:59Z</time></trkpt><trkpt lat="42.63832249837687" lon="11.505449073787819"><ele>205.0</ele><time>2026-04-12T14:17:00Z</time></trkpt><trkpt lat="42.63816724410234" lon="11.505305120015688"><ele>205.0</ele><time>2026-04-12T14:17:01Z</time></trkpt><trkpt lat="42.638011024953656" lon="11.505166868372735"><ele>205.0</ele><time>2026-04-12T14:17:02Z</time></trkpt><trkpt lat="42.637856860283094" lon="11.505026503865318"><ele>205.0</ele><time>2026-04-12T14:17:03Z</time></trkpt><trkpt lat="42.637697409358395" lon="11.504873926094042"><ele>205.0</ele><time>2026-04-12T14:17:04Z</time></trkpt><trkpt lat="42.63753585360227" lon="11.504721561043223"><ele>204.33333333333331</ele><time>2026-04-12T14:17:05Z</time></trkpt><trkpt lat="42.63737537014942" lon="11.504573939032188"><ele>203.66666666666669</ele><time>2026-04-12T14:17:06Z</time></trkpt><trkpt lat="42.63721709580505" lon="11.504427426329292"><ele>203.0</ele><time>2026-04-12T14:17:07Z</time></trkpt><trkpt lat="42.63705964894574" lon="11.504282562666257"><ele>204.0</ele><time>2026-04-12T14:17:08Z</time></trkpt><trkpt lat="42.63690277489726" lon="11.504134193129724"><ele>205.0</ele><time>2026-04-12T14:17:09Z</time></trkpt><trkpt lat="42.6367481247911" lon="11.50398868355504"><ele>206.0</ele><time>2026-04-12T14:17:10Z</time></trkpt><trkpt lat="42.63659603068076" lon="11.503843634804225"><ele>205.33333333333334</ele><time>2026-04-12T14:17:11Z</time></trkpt><trkpt lat="42.63644881255571" lon="11.503698879328216"><ele>204.66666666666669</ele><time>2026-04-12T14:17:12Z</time></trkpt><trkpt lat="42.63629826949766" lon="11.503550547253703"><ele>204.0</ele><time>2026-04-12T14:17:13Z</time></trkpt><trkpt lat="42.63615024976208" lon="11.503415280190984"><ele>204.66666666666669</ele><time>2026-04-12T14:17:14Z</time></trkpt><trkpt lat="42.63599420508477" lon="11.503271474682421"><ele>205.33333333333334</ele><time>2026-04-12T14:17:15Z</time></trkpt><trkpt lat="42.635838610429545" lon="11.503131502522933"><ele>206.0</ele><time>2026-04-12T14:17:16Z</time></trkpt><trkpt lat="42.635677350708264" lon="11.502984662639935"><ele>206.0</ele><time>2026-04-12T14:17:17Z</time></trkpt><trkpt lat="42.635522655520596" lon="11.502837779156021"><ele>206.0</ele><time>2026-04-12T14:17:18Z</time></trkpt><trkpt lat="42.63536981631034" lon="11.5026891925152"><ele>206.0</ele><time>2026-04-12T14:17:19Z</time></trkpt><trkpt lat="42.63521731737841" lon="11.502546245933376"><ele>206.66666666666669</ele><time>2026-04-12T14:17:20Z</time></trkpt><trkpt lat="42.63506400200245" lon="11.502404915714443"><ele>207.33333333333331</ele><time>2026-04-12T14:17:21Z</time></trkpt><trkpt lat="42.63490594955307" lon="11.50225819726649"><ele>208.0</ele><time>2026-04-12T14:17:22Z</time></trkpt><trkpt lat="42.63474714743106" lon="11.502110788176523"><ele>207.33333333333331</ele><time>2026-04-12T14:17:23Z</time></trkpt><trkpt lat="42.634584291060854" lon="11.501956553146096"><ele>206.66666666666669</ele><time>2026-04-12T14:17:24Z</time></trkpt><trkpt lat="42.63441701805872" lon="11.501805617873124"><ele>206.0</ele><time>2026-04-12T14:17:25Z</time></trkpt><trkpt lat="42.634252569243806" lon="11.501651959857288"><ele>207.0</ele><time>2026-04-12T14:17:26Z</time></trkpt><trkpt lat="42.634091575758966" lon="11.501503775234625"><ele>208.0</ele><time>2026-04-12T14:17:27Z</time></trkpt><trkpt lat="42.6339343209433" lon="11.50135634713103"><ele>209.0</ele><time>2026-04-12T14:17:28Z</time></trkpt><trkpt lat="42.633780024428496" lon="11.501209210902427"><ele>209.33333333333334</ele><time>2026-04-12T14:17:29Z</time></trkpt><trkpt lat="42.633627593796085" lon="11.501063213151495"><ele>209.66666666666669</ele><time>2026-04-12T14:17:30Z</time></trkpt><trkpt lat="42.633474669562354" lon="11.500922662359958"><ele>210.0</ele><time>2026-04-12T14:17:31Z</time></trkpt><trkpt lat="42.63331759387879" lon="11.500775656113227"><ele>210.0</ele><time>2026-04-12T14:17:32.001Z</time></trkpt><trkpt lat="42.63316828301308" lon="11.500634426398824"><ele>210.0</ele><time>2026-04-12T14:17:33.001Z</time></trkpt><trkpt lat="42.63301343108948" lon="11.500484252158781"><ele>210.0</ele><time>2026-04-12T14:17:34.001Z</time></trkpt><trkpt lat="42.632857655810525" lon="11.500334426504438"><ele>212.33333333333331</ele><time>2026-04-12T14:17:35.001Z</time></trkpt><trkpt lat="42.63268775830887" lon="11.500205899661323"><ele>214.66666666666666</ele><time>2026-04-12T14:17:36.001Z</time></trkpt><trkpt lat="42.63249726675816" lon="11.50012586648705"><ele>217.0</ele><time>2026-04-12T14:17:37.001Z</time></trkpt><trkpt lat="42.63229176241542" lon="11.500088619079843"><ele>217.0</ele><time>2026-04-12T14:17:38.001Z</time></trkpt><trkpt lat="42.63208817261735" lon="11.50006933040058"><ele>217.0</ele><time>2026-04-12T14:17:39.001Z</time></trkpt><trkpt lat="42.63190474906623" lon="11.500039120513522"><ele>217.0</ele><time>2026-04-12T14:17:40.001Z</time></trkpt><trkpt lat="42.631731765162094" lon="11.500000022862999"><ele>218.66666666666666</ele><time>2026-04-12T14:17:41.001Z</time></trkpt><trkpt lat="42.63156608630965" lon="11.499963684245087"><ele>220.33333333333331</ele><time>2026-04-12T14:17:42.001Z</time></trkpt><trkpt lat="42.63140285336362" lon="11.499931754759267"><ele>222.0</ele><time>2026-04-12T14:17:43.001Z</time></trkpt><trkpt lat="42.63124027317952" lon="11.499894365803202"><ele>224.0</ele><time>2026-04-12T14:17:44.001Z</time></trkpt><trkpt lat="42.631082811721605" lon="11.49986089604421"><ele>226.0</ele><time>2026-04-12T14:17:45.001Z</time></trkpt><trkpt lat="42.6309260977537" lon="11.499834519666564"><ele>228.0</ele><time>2026-04-12T14:17:46.001Z</time></trkpt><trkpt lat="42.63076383979739" lon="11.499803896101668"><ele>228.0</ele><time>2026-04-12T14:17:47.001Z</time></trkpt><trkpt lat="42.63060612784165" lon="11.499766928334195"><ele>228.0</ele><time>2026-04-12T14:17:48.001Z</time></trkpt><trkpt lat="42.630461633479236" lon="11.49973543613516"><ele>228.0</ele><time>2026-04-12T14:17:49.001Z</time></trkpt><trkpt lat="42.63031741357546" lon="11.499706703585359"><ele>226.5</ele><time>2026-04-12T14:17:50.001Z</time></trkpt><trkpt lat="42.630170915328364" lon="11.499676620950915"><ele>225.0</ele><time>2026-04-12T14:17:51.001Z</time></trkpt><trkpt lat="42.630031094021376" lon="11.499635970937335"><ele>223.5</ele><time>2026-04-12T14:17:52.001Z</time></trkpt><trkpt lat="42.62991405398944" lon="11.499553179634699"><ele>222.0</ele><time>2026-04-12T14:17:53.001Z</time></trkpt><trkpt lat="42.62979765614819" lon="11.49946535053283"><ele>222.0</ele><time>2026-04-12T14:17:54.001Z</time></trkpt><trkpt lat="42.629676917058035" lon="11.499381954502603"><ele>222.0</ele><time>2026-04-12T14:17:55.001Z</time></trkpt><trkpt lat="42.62957119793337" lon="11.499284859836559"><ele>222.0</ele><time>2026-04-12T14:17:56.001Z</time></trkpt><trkpt lat="42.62945835463287" lon="11.49921004318671"><ele>222.0</ele><time>2026-04-12T14:17:57.001Z</time></trkpt><trkpt lat="42.629334455756" lon="11.499150096775526"><ele>224.5</ele><time>2026-04-12T14:17:58.001Z</time></trkpt><trkpt lat="42.62919972721582" lon="11.49909572957582"><ele>227.0</ele><time>2026-04-12T14:17:59.001Z</time></trkpt><trkpt lat="42.62906038179103" lon="11.499059511722418"><ele>229.5</ele><time>2026-04-12T14:18:00.001Z</time></trkpt><trkpt lat="42.6289150741106" lon="11.49904406316471"><ele>232.0</ele><time>2026-04-12T14:18:01.001Z</time></trkpt><trkpt lat="42.62878440802711" lon="11.498997417233266"><ele>232.0</ele><time>2026-04-12T14:18:02.001Z</time></trkpt><trkpt lat="42.628663988498225" lon="11.498961478054964"><ele>232.0</ele><time>2026-04-12T14:18:03.001Z</time></trkpt><trkpt lat="42.62854319598212" lon="11.498929977981925"><ele>232.0</ele><time>2026-04-12T14:18:04.001Z</time></trkpt><trkpt lat="42.62843049492354" lon="11.498847725154965"><ele>232.0</ele><time>2026-04-12T14:18:05.001Z</time></trkpt><trkpt lat="42.6283198935099" lon="11.498741788441974"><ele>231.75</ele><time>2026-04-12T14:18:06.001Z</time></trkpt><trkpt lat="42.62821399622031" lon="11.498626726330885"><ele>231.5</ele><time>2026-04-12T14:18:07.001Z</time></trkpt><trkpt lat="42.628108379949765" lon="11.498507323114062"><ele>231.25</ele><time>2026-04-12T14:18:08.001Z</time></trkpt><trkpt lat="42.627999644601424" lon="11.498388583496332"><ele>231.0</ele><time>2026-04-12T14:18:09.001Z</time></trkpt><trkpt lat="42.62789051574366" lon="11.498269240877155"><ele>230.75</ele><time>2026-04-12T14:18:10.001Z</time></trkpt><trkpt lat="42.62778429801141" lon="11.498146154039532"><ele>230.5</ele><time>2026-04-12T14:18:11.001Z</time></trkpt><trkpt lat="42.62768006946217" lon="11.498035904179916"><ele>230.25</ele><time>2026-04-12T14:18:12.001Z</time></trkpt><trkpt lat="42.627576171542174" lon="11.49791565866961"><ele>230.0</ele><time>2026-04-12T14:18:13.001Z</time></trkpt><trkpt lat="42.62746899435619" lon="11.497797009403893"><ele>230.0</ele><time>2026-04-12T14:18:14.001Z</time></trkpt><trkpt lat="42.62736469382423" lon="11.497678266313335"><ele>230.0</ele><time>2026-04-12T14:18:15.001Z</time></trkpt><trkpt lat="42.62725902279451" lon="11.497559415746153"><ele>230.0</ele><time>2026-04-12T14:18:16.001Z</time></trkpt><trkpt lat="42.62715039483644" lon="11.497448974704499"><ele>230.0</ele><time>2026-04-12T14:18:17.001Z</time></trkpt><trkpt lat="42.627038389645755" lon="11.497332380847674"><ele>228.75</ele><time>2026-04-12T14:18:18.001Z</time></trkpt><trkpt lat="42.62693010898265" lon="11.497217283303188"><ele>227.5</ele><time>2026-04-12T14:18:19.001Z</time></trkpt><trkpt lat="42.62682221868938" lon="11.497101139631642"><ele>226.25</ele><time>2026-04-12T14:18:20.001Z</time></trkpt><trkpt lat="42.62672113627454" lon="11.496992446033273"><ele>225.0</ele><time>2026-04-12T14:18:21.001Z</time></trkpt><trkpt lat="42.62662956787643" lon="11.496892547004844"><ele>224.6</ele><time>2026-04-12T14:18:22.001Z</time></trkpt><trkpt lat="42.62654696110693" lon="11.496802154835741"><ele>224.2</ele><time>2026-04-12T14:18:23.001Z</time></trkpt><trkpt lat="42.62646867840171" lon="11.496705321384342"><ele>223.8</ele><time>2026-04-12T14:18:24.001Z</time></trkpt><trkpt lat="42.62641022341152" lon="11.49658195187557"><ele>223.4</ele><time>2026-04-12T14:18:25.001Z</time></trkpt><trkpt lat="42.626360750257774" lon="11.496439734619424"><ele>223.0</ele><time>2026-04-12T14:18:26.001Z</time></trkpt><trkpt lat="42.626321196018495" lon="11.496286863403647"><ele>222.5</ele><time>2026-04-12T14:18:27.001Z</time></trkpt><trkpt lat="42.626294967303295" lon="11.496119499494206"><ele>222.0</ele><time>2026-04-12T14:18:28.002Z</time></trkpt><trkpt lat="42.62628242342647" lon="11.495944648906567"><ele>221.5</ele><time>2026-04-12T14:18:29.002Z</time></trkpt><trkpt lat="42.626286579539986" lon="11.495758857132929"><ele>221.0</ele><time>2026-04-12T14:18:30.002Z</time></trkpt><trkpt lat="42.626297652386256" lon="11.495562442529591"><ele>219.75</ele><time>2026-04-12T14:18:31.002Z</time></trkpt><trkpt lat="42.62631885443599" lon="11.495364116525431"><ele>218.5</ele><time>2026-04-12T14:18:32.002Z</time></trkpt><trkpt lat="42.62635156131592" lon="11.495178545073196"><ele>217.25</ele><time>2026-04-12T14:18:33.002Z</time></trkpt><trkpt lat="42.62638865873626" lon="11.494995498062647"><ele>216.0</ele><time>2026-04-12T14:18:34.002Z</time></trkpt><trkpt lat="42.626426739297074" lon="11.494812503837013"><ele>216.0</ele><time>2026-04-12T14:18:34.999Z</time></trkpt><trkpt lat="42.6264624640853" lon="11.49463125550498"><ele>216.0</ele><time>2026-04-12T14:18:35.999Z</time></trkpt><trkpt lat="42.6265015352563" lon="11.494446116245465"><ele>216.0</ele><time>2026-04-12T14:18:36.999Z</time></trkpt><trkpt lat="42.6265395414662" lon="11.494265000056632"><ele>216.0</ele><time>2026-04-12T14:18:37.999Z</time></trkpt><trkpt lat="42.626574264515156" lon="11.494082906418905"><ele>216.25</ele><time>2026-04-12T14:18:38.999Z</time></trkpt><trkpt lat="42.62659205761308" lon="11.493901797603048"><ele>216.5</ele><time>2026-04-12T14:18:39.999Z</time></trkpt><trkpt lat="42.626591270775606" lon="11.493714005932716"><ele>216.75</ele><time>2026-04-12T14:18:40.999Z</time></trkpt><trkpt lat="42.626544976600584" lon="11.493533907591548"><ele>217.0</ele><time>2026-04-12T14:18:41.999Z</time></trkpt><trkpt lat="42.62646497831793" lon="11.493370391260846"><ele>218.5</ele><time>2026-04-12T14:18:42.999Z</time></trkpt><trkpt lat="42.62637470454163" lon="11.493217784134382"><ele>220.0</ele><time>2026-04-12T14:18:43.999Z</time></trkpt><trkpt lat="42.626294240421785" lon="11.493072763260379"><ele>221.5</ele><time>2026-04-12T14:18:44.999Z</time></trkpt><trkpt lat="42.62622555588958" lon="11.49293322903213"><ele>223.0</ele><time>2026-04-12T14:18:45.999Z</time></trkpt><trkpt lat="42.62615686424284" lon="11.492804414745054"><ele>222.5</ele><time>2026-04-12T14:18:46.999Z</time></trkpt><trkpt lat="42.626089675858275" lon="11.492665979381563"><ele>222.0</ele><time>2026-04-12T14:18:47.999Z</time></trkpt><trkpt lat="42.62601974097228" lon="11.49253288933918"><ele>221.5</ele><time>2026-04-12T14:18:48.999Z</time></trkpt><trkpt lat="42.625955399968376" lon="11.492402517383493"><ele>221.0</ele><time>2026-04-12T14:18:50Z</time></trkpt><trkpt lat="42.62588671636256" lon="11.492272676053988"><ele>221.0</ele><time>2026-04-12T14:18:51Z</time></trkpt><trkpt lat="42.62581413303771" lon="11.492137146553222"><ele>221.0</ele><time>2026-04-12T14:18:52Z</time></trkpt><trkpt lat="42.62574202116269" lon="11.492000453463545"><ele>221.0</ele><time>2026-04-12T14:18:53Z</time></trkpt><trkpt lat="42.62567089621986" lon="11.491866283432541"><ele>221.0</ele><time>2026-04-12T14:18:54Z</time></trkpt><trkpt lat="42.6256045084401" lon="11.491739733353533"><ele>221.8</ele><time>2026-04-12T14:18:55Z</time></trkpt><trkpt lat="42.625544028312525" lon="11.491624429781083"><ele>222.60000000000002</ele><time>2026-04-12T14:18:56Z</time></trkpt><trkpt lat="42.625491722743746" lon="11.491527253213594"><ele>223.4</ele><time>2026-04-12T14:18:57Z</time></trkpt><trkpt lat="42.625447899413686" lon="11.491444408910931"><ele>224.2</ele><time>2026-04-12T14:18:58Z</time></trkpt><trkpt lat="42.625383839357" lon="11.491313894433107"><ele>225.0</ele><time>2026-04-12T14:19:00Z</time></trkpt><trkpt lat="42.62534986609133" lon="11.491219092230567"><ele>226.2</ele><time>2026-04-12T14:19:02Z</time></trkpt><trkpt lat="42.62530859687033" lon="11.491141050999461"><ele>227.4</ele><time>2026-04-12T14:19:05Z</time></trkpt><trkpt lat="42.6251382498864" lon="11.491116656321127"><ele>228.60000000000002</ele><time>2026-04-12T14:19:07Z</time></trkpt><trkpt lat="42.62505161330337" lon="11.4911357452418"><ele>229.8</ele><time>2026-04-12T14:19:08Z</time></trkpt><trkpt lat="42.62494772311338" lon="11.491182748912527"><ele>231.0</ele><time>2026-04-12T14:19:09Z</time></trkpt><trkpt lat="42.624843001107266" lon="11.491279579808888"><ele>231.0</ele><time>2026-04-12T14:19:10Z</time></trkpt><trkpt lat="42.62475382791805" lon="11.491379709863605"><ele>231.0</ele><time>2026-04-12T14:19:11Z</time></trkpt><trkpt lat="42.624663003780626" lon="11.491479987362519"><ele>231.0</ele><time>2026-04-12T14:19:12Z</time></trkpt><trkpt lat="42.62457924879265" lon="11.49160665814439"><ele>231.0</ele><time>2026-04-12T14:19:13Z</time></trkpt><trkpt lat="42.62447021340054" lon="11.49169797024821"><ele>233.75</ele><time>2026-04-12T14:19:14Z</time></trkpt><trkpt lat="42.624357900460524" lon="11.491792972911151"><ele>236.5</ele><time>2026-04-12T14:19:15Z</time></trkpt><trkpt lat="42.624235250343546" lon="11.491886801438415"><ele>239.25</ele><time>2026-04-12T14:19:16Z</time></trkpt><trkpt lat="42.62409483756952" lon="11.49195166771219"><ele>242.0</ele><time>2026-04-12T14:19:17Z</time></trkpt><trkpt lat="42.623951708423434" lon="11.492044062365753"><ele>243.66666666666669</ele><time>2026-04-12T14:19:18Z</time></trkpt><trkpt lat="42.623803346573816" lon="11.49217204066214"><ele>245.33333333333331</ele><time>2026-04-12T14:19:19Z</time></trkpt><trkpt lat="42.623663225023954" lon="11.492265277828508"><ele>247.0</ele><time>2026-04-12T14:19:20Z</time></trkpt><trkpt lat="42.62351860461117" lon="11.492363560222643"><ele>247.0</ele><time>2026-04-12T14:19:21Z</time></trkpt><trkpt lat="42.6233710916891" lon="11.492456509451769"><ele>247.0</ele><time>2026-04-12T14:19:22Z</time></trkpt><trkpt lat="42.62320357391747" lon="11.492526012690183"><ele>247.0</ele><time>2026-04-12T14:19:23Z</time></trkpt><trkpt lat="42.62304489680262" lon="11.492626907891367"><ele>247.0</ele><time>2026-04-12T14:19:24Z</time></trkpt><trkpt lat="42.62290230627971" lon="11.49271724749816"><ele>247.0</ele><time>2026-04-12T14:19:25Z</time></trkpt><trkpt lat="42.622776633741296" lon="11.492792865004086"><ele>247.0</ele><time>2026-04-12T14:19:26Z</time></trkpt><trkpt lat="42.62265817442984" lon="11.492852835917702"><ele>247.0</ele><time>2026-04-12T14:19:27Z</time></trkpt><trkpt lat="42.62252788006521" lon="11.492894931742752"><ele>253.0</ele><time>2026-04-12T14:19:28Z</time></trkpt><trkpt lat="42.622387630138235" lon="11.492906649123693"><ele>259.0</ele><time>2026-04-12T14:19:29Z</time></trkpt><trkpt lat="42.62223582082273" lon="11.492895091315686"><ele>265.0</ele><time>2026-04-12T14:19:30.001Z</time></trkpt><trkpt lat="42.622076761071945" lon="11.492879458595882"><ele>267.66666666666663</ele><time>2026-04-12T14:19:31.001Z</time></trkpt><trkpt lat="42.62191075233545" lon="11.492880866105962"><ele>270.3333333333333</ele><time>2026-04-12T14:19:32.001Z</time></trkpt><trkpt lat="42.62174164263917" lon="11.492868557413647"><ele>273.0</ele><time>2026-04-12T14:19:33.001Z</time></trkpt><trkpt lat="42.62157264894098" lon="11.492829915187682"><ele>273.0</ele><time>2026-04-12T14:19:34.001Z</time></trkpt><trkpt lat="42.62141206900686" lon="11.492813370025653"><ele>273.0</ele><time>2026-04-12T14:19:35.001Z</time></trkpt><trkpt lat="42.6212556743802" lon="11.492796244408611"><ele>273.0</ele><time>2026-04-12T14:19:36.001Z</time></trkpt><trkpt lat="42.62111881969808" lon="11.492778709735981"><ele>272.75</ele><time>2026-04-12T14:19:37.001Z</time></trkpt><trkpt lat="42.620991494420494" lon="11.492744025986074"><ele>272.5</ele><time>2026-04-12T14:19:38.001Z</time></trkpt><trkpt lat="42.620861991911866" lon="11.492688414727574"><ele>272.25</ele><time>2026-04-12T14:19:39.001Z</time></trkpt><trkpt lat="42.620734910574974" lon="11.492604838011012"><ele>272.0</ele><time>2026-04-12T14:19:40.001Z</time></trkpt><trkpt lat="42.62061749434013" lon="11.492493497126432"><ele>272.0</ele><time>2026-04-12T14:19:41.001Z</time></trkpt><trkpt lat="42.62050795197951" lon="11.492378209621533"><ele>272.0</ele><time>2026-04-12T14:19:42.001Z</time></trkpt><trkpt lat="42.6204220628342" lon="11.492245239976127"><ele>272.0</ele><time>2026-04-12T14:19:43.001Z</time></trkpt><trkpt lat="42.620357119001035" lon="11.492122331814846"><ele>272.0</ele><time>2026-04-12T14:19:44.001Z</time></trkpt><trkpt lat="42.62030691181361" lon="11.492013175927026"><ele>272.6</ele><time>2026-04-12T14:19:45.001Z</time></trkpt><trkpt lat="42.62027954193345" lon="11.491922021725406"><ele>273.2</ele><time>2026-04-12T14:19:46.001Z</time></trkpt><trkpt lat="42.6202208355941" lon="11.491792933379825"><ele>273.8</ele><time>2026-04-12T14:19:48.001Z</time></trkpt><trkpt lat="42.62009470375553" lon="11.491800492506675"><ele>274.4</ele><time>2026-04-12T14:19:50.001Z</time></trkpt><trkpt lat="42.620034959313514" lon="11.491846759452653"><ele>275.0</ele><time>2026-04-12T14:19:51.001Z</time></trkpt><trkpt lat="42.619964164930735" lon="11.491874440400192"><ele>275.0</ele><time>2026-04-12T14:19:52.001Z</time></trkpt><trkpt lat="42.61989577190371" lon="11.49194626912421"><ele>275.0</ele><time>2026-04-12T14:19:53.001Z</time></trkpt><trkpt lat="42.61980559719721" lon="11.492004519341714"><ele>275.0</ele><time>2026-04-12T14:19:54.001Z</time></trkpt><trkpt lat="42.619709931892714" lon="11.492051090372172"><ele>275.0</ele><time>2026-04-12T14:19:55.001Z</time></trkpt><trkpt lat="42.619630625252036" lon="11.49214047399932"><ele>275.0</ele><time>2026-04-12T14:19:56.001Z</time></trkpt><trkpt lat="42.61954163706609" lon="11.49222805688626"><ele>275.25</ele><time>2026-04-12T14:19:57.001Z</time></trkpt><trkpt lat="42.61944880242853" lon="11.492349194934048"><ele>275.5</ele><time>2026-04-12T14:19:58.001Z</time></trkpt><trkpt lat="42.6193572683558" lon="11.492498118810305"><ele>275.75</ele><time>2026-04-12T14:19:59.001Z</time></trkpt><trkpt lat="42.61925070119519" lon="11.492645361056093"><ele>276.0</ele><time>2026-04-12T14:20:00.001Z</time></trkpt><trkpt lat="42.61915165951509" lon="11.492803898490864"><ele>276.0</ele><time>2026-04-12T14:20:01.001Z</time></trkpt><trkpt lat="42.619058370169185" lon="11.492951852922364"><ele>276.0</ele><time>2026-04-12T14:20:02.001Z</time></trkpt><trkpt lat="42.61898565097758" lon="11.493103834690611"><ele>276.0</ele><time>2026-04-12T14:20:03.001Z</time></trkpt><trkpt lat="42.61890550478943" lon="11.493242842509911"><ele>276.0</ele><time>2026-04-12T14:20:04.001Z</time></trkpt><trkpt lat="42.61883511379701" lon="11.493405728409265"><ele>276.0</ele><time>2026-04-12T14:20:05.001Z</time></trkpt><trkpt lat="42.61878494959512" lon="11.493596596198348"><ele>276.0</ele><time>2026-04-12T14:20:06.001Z</time></trkpt><trkpt lat="42.61874217398116" lon="11.493772024033058"><ele>276.0</ele><time>2026-04-12T14:20:07.001Z</time></trkpt><trkpt lat="42.618704511678736" lon="11.493917451627873"><ele>276.0</ele><time>2026-04-12T14:20:08.001Z</time></trkpt><trkpt lat="42.61865294678411" lon="11.494050244888331"><ele>275.75</ele><time>2026-04-12T14:20:09.001Z</time></trkpt><trkpt lat="42.618566620206735" lon="11.494140725178417"><ele>275.5</ele><time>2026-04-12T14:20:10.001Z</time></trkpt><trkpt lat="42.61846353974855" lon="11.49418190041537"><ele>275.25</ele><time>2026-04-12T14:20:11.001Z</time></trkpt><trkpt lat="42.618342427593554" lon="11.494191941277732"><ele>275.0</ele><time>2026-04-12T14:20:12.001Z</time></trkpt><trkpt lat="42.61822003156277" lon="11.494165651361367"><ele>275.0</ele><time>2026-04-12T14:20:13.001Z</time></trkpt><trkpt lat="42.6181035430406" lon="11.494109771778975"><ele>275.0</ele><time>2026-04-12T14:20:14.001Z</time></trkpt><trkpt lat="42.618014031008194" lon="11.49401143694052"><ele>275.0</ele><time>2026-04-12T14:20:15.001Z</time></trkpt><trkpt lat="42.61792862462087" lon="11.493910256567544"><ele>275.0</ele><time>2026-04-12T14:20:16.001Z</time></trkpt><trkpt lat="42.61782252165179" lon="11.493856936761635"><ele>274.75</ele><time>2026-04-12T14:20:17.001Z</time></trkpt><trkpt lat="42.61769987793226" lon="11.493854922994243"><ele>274.5</ele><time>2026-04-12T14:20:18.001Z</time></trkpt><trkpt lat="42.61758925951776" lon="11.493914301891259"><ele>274.25</ele><time>2026-04-12T14:20:19.001Z</time></trkpt><trkpt lat="42.61748224673513" lon="11.49402714331801"><ele>274.0</ele><time>2026-04-12T14:20:20.002Z</time></trkpt><trkpt lat="42.61739059938424" lon="11.494176952135305"><ele>274.0</ele><time>2026-04-12T14:20:21.002Z</time></trkpt><trkpt lat="42.6173167063421" lon="11.494331128941544"><ele>274.0</ele><time>2026-04-12T14:20:22.002Z</time></trkpt><trkpt lat="42.61726071401231" lon="11.49448372687866"><ele>274.0</ele><time>2026-04-12T14:20:23.002Z</time></trkpt><trkpt lat="42.617229702696186" lon="11.494635013710946"><ele>274.0</ele><time>2026-04-12T14:20:24.002Z</time></trkpt><trkpt lat="42.617210131047344" lon="11.49477838494361"><ele>271.8</ele><time>2026-04-12T14:20:25.002Z</time></trkpt><trkpt lat="42.61716269642252" lon="11.494902447776472"><ele>269.59999999999997</ele><time>2026-04-12T14:20:26.002Z</time></trkpt><trkpt lat="42.617084467193216" lon="11.494982899652168"><ele>267.4</ele><time>2026-04-12T14:20:27.002Z</time></trkpt><trkpt lat="42.617002269723315" lon="11.495037973220281"><ele>265.2</ele><time>2026-04-12T14:20:28.002Z</time></trkpt><trkpt lat="42.616904768419715" lon="11.495031081696416"><ele>263.0</ele><time>2026-04-12T14:20:29.002Z</time></trkpt><trkpt lat="42.61681314235346" lon="11.494985767256901"><ele>263.0</ele><time>2026-04-12T14:20:30.002Z</time></trkpt><trkpt lat="42.616707855260714" lon="11.494895500555101"><ele>263.0</ele><time>2026-04-12T14:20:31.002Z</time></trkpt><trkpt lat="42.61658837808825" lon="11.494788210636798"><ele>263.0</ele><time>2026-04-12T14:20:32.002Z</time></trkpt><trkpt lat="42.61646643654876" lon="11.494675637596538"><ele>263.0</ele><time>2026-04-12T14:20:33.002Z</time></trkpt><trkpt lat="42.61635394412261" lon="11.494582100601134"><ele>263.25</ele><time>2026-04-12T14:20:34.002Z</time></trkpt><trkpt lat="42.61624748820062" lon="11.494491317531361"><ele>263.5</ele><time>2026-04-12T14:20:35.002Z</time></trkpt><trkpt lat="42.61612443541726" lon="11.494431339732685"><ele>263.75</ele><time>2026-04-12T14:20:36.002Z</time></trkpt><trkpt lat="42.61598785963544" lon="11.49444297936369"><ele>264.0</ele><time>2026-04-12T14:20:37.002Z</time></trkpt><trkpt lat="42.615847718168034" lon="11.494524680060843"><ele>264.6666666666667</ele><time>2026-04-12T14:20:38.002Z</time></trkpt><trkpt lat="42.615700827634996" lon="11.494616979709837"><ele>265.33333333333337</ele><time>2026-04-12T14:20:39.002Z</time></trkpt><trkpt lat="42.615550791575465" lon="11.49468515733923"><ele>266.0</ele><time>2026-04-12T14:20:40.002Z</time></trkpt><trkpt lat="42.61542585192314" lon="11.494742516913412"><ele>266.0</ele><time>2026-04-12T14:20:41Z</time></trkpt><trkpt lat="42.61532781288062" lon="11.49483293205285"><ele>266.0</ele><time>2026-04-12T14:20:42Z</time></trkpt><trkpt lat="42.61525095775008" lon="11.49497581169745"><ele>266.0</ele><time>2026-04-12T14:20:43Z</time></trkpt><trkpt lat="42.61521563136821" lon="11.495155039386532"><ele>266.0</ele><time>2026-04-12T14:20:44Z</time></trkpt><trkpt lat="42.61522785943652" lon="11.495356231371401"><ele>266.6666666666667</ele><time>2026-04-12T14:20:45Z</time></trkpt><trkpt lat="42.61528772597729" lon="11.495542213719874"><ele>267.3333333333333</ele><time>2026-04-12T14:20:46Z</time></trkpt><trkpt lat="42.61536069809478" lon="11.495736951103794"><ele>268.0</ele><time>2026-04-12T14:20:47Z</time></trkpt><trkpt lat="42.6153664468486" lon="11.495939113035641"><ele>268.0</ele><time>2026-04-12T14:20:48Z</time></trkpt><trkpt lat="42.61531430646421" lon="11.496132609008216"><ele>268.0</ele><time>2026-04-12T14:20:49Z</time></trkpt><trkpt lat="42.61525650684731" lon="11.496341803544828"><ele>268.0</ele><time>2026-04-12T14:20:50Z</time></trkpt><trkpt lat="42.61519141120842" lon="11.496566657062461"><ele>270.3333333333333</ele><time>2026-04-12T14:20:51Z</time></trkpt><trkpt lat="42.61513051199561" lon="11.496777015381703"><ele>272.6666666666667</ele><time>2026-04-12T14:20:52Z</time></trkpt><trkpt lat="42.61507094557537" lon="11.496982770005479"><ele>275.0</ele><time>2026-04-12T14:20:53Z</time></trkpt><trkpt lat="42.61501382360598" lon="11.497180080857865"><ele>276.5</ele><time>2026-04-12T14:20:54Z</time></trkpt><trkpt lat="42.61497195944163" lon="11.497372550468175"><ele>278.0</ele><time>2026-04-12T14:20:55Z</time></trkpt><trkpt lat="42.61493229668454" lon="11.497540056100865"><ele>279.5</ele><time>2026-04-12T14:20:56Z</time></trkpt><trkpt lat="42.61494151453297" lon="11.497708653597924"><ele>281.0</ele><time>2026-04-12T14:20:57Z</time></trkpt><trkpt lat="42.61499992759495" lon="11.49788167019589"><ele>281.5</ele><time>2026-04-12T14:20:58Z</time></trkpt><trkpt lat="42.61509254782085" lon="11.498041807882771"><ele>282.0</ele><time>2026-04-12T14:20:59Z</time></trkpt><trkpt lat="42.61518285751758" lon="11.498201528161907"><ele>282.5</ele><time>2026-04-12T14:21:00Z</time></trkpt><trkpt lat="42.61524363802335" lon="11.498346818140378"><ele>283.0</ele><time>2026-04-12T14:21:01Z</time></trkpt><trkpt lat="42.61527586719635" lon="11.4984818542149"><ele>283.0</ele><time>2026-04-12T14:21:02Z</time></trkpt><trkpt lat="42.61525654770856" lon="11.498625675151281"><ele>283.0</ele><time>2026-04-12T14:21:03Z</time></trkpt><trkpt lat="42.615202103667876" lon="11.498770837645385"><ele>283.0</ele><time>2026-04-12T14:21:04Z</time></trkpt><trkpt lat="42.61509692497516" lon="11.498846052455479"><ele>283.0</ele><time>2026-04-12T14:21:05Z</time></trkpt><trkpt lat="42.614980169032755" lon="11.498912479858943"><ele>284.75</ele><time>2026-04-12T14:21:06Z</time></trkpt><trkpt lat="42.61486017138366" lon="11.499001333694371"><ele>286.5</ele><time>2026-04-12T14:21:07Z</time></trkpt><trkpt lat="42.614745040764035" lon="11.499110735864786"><ele>288.25</ele><time>2026-04-12T14:21:08Z</time></trkpt><trkpt lat="42.61466259652056" lon="11.49929268706903"><ele>290.0</ele><time>2026-04-12T14:21:09Z</time></trkpt><trkpt lat="42.614608013367835" lon="11.49950426764577"><ele>291.33333333333337</ele><time>2026-04-12T14:21:10Z</time></trkpt><trkpt lat="42.61453969138384" lon="11.499694601030077"><ele>292.6666666666667</ele><time>2026-04-12T14:21:11Z</time></trkpt><trkpt lat="42.61445392030881" lon="11.499858723164586"><ele>294.0</ele><time>2026-04-12T14:21:12Z</time></trkpt><trkpt lat="42.614336154997105" lon="11.499984300222904"><ele>294.0</ele><time>2026-04-12T14:21:13Z</time></trkpt><trkpt lat="42.61419206936351" lon="11.50010431508307"><ele>294.0</ele><time>2026-04-12T14:21:14Z</time></trkpt><trkpt lat="42.61404557814893" lon="11.500235379335257"><ele>294.0</ele><time>2026-04-12T14:21:15Z</time></trkpt><trkpt lat="42.61389855205126" lon="11.500350340353554"><ele>296.6666666666667</ele><time>2026-04-12T14:21:16Z</time></trkpt><trkpt lat="42.61376733101393" lon="11.500462994166986"><ele>299.33333333333337</ele><time>2026-04-12T14:21:17Z</time></trkpt><trkpt lat="42.6136381317306" lon="11.50057772749566"><ele>302.0</ele><time>2026-04-12T14:21:18Z</time></trkpt><trkpt lat="42.61350286903489" lon="11.500692847130171"><ele>302.0</ele><time>2026-04-12T14:21:19Z</time></trkpt><trkpt lat="42.613362990135315" lon="11.500808068027643"><ele>302.0</ele><time>2026-04-12T14:21:20Z</time></trkpt><trkpt lat="42.6132119744246" lon="11.500923916631391"><ele>302.0</ele><time>2026-04-12T14:21:21Z</time></trkpt><trkpt lat="42.61306063373733" lon="11.501051066094947"><ele>302.0</ele><time>2026-04-12T14:21:22Z</time></trkpt><trkpt lat="42.61290954407576" lon="11.50118437143407"><ele>302.0</ele><time>2026-04-12T14:21:23Z</time></trkpt><trkpt lat="42.61276639980266" lon="11.501277911833764"><ele>302.0</ele><time>2026-04-12T14:21:24Z</time></trkpt><trkpt lat="42.61264593661515" lon="11.501369304878867"><ele>302.0</ele><time>2026-04-12T14:21:25.001Z</time></trkpt><trkpt lat="42.612530417843644" lon="11.501406492809368"><ele>302.0</ele><time>2026-04-12T14:21:26.001Z</time></trkpt><trkpt lat="42.612401156148636" lon="11.501360198162644"><ele>302.0</ele><time>2026-04-12T14:21:27.001Z</time></trkpt><trkpt lat="42.6122843711184" lon="11.501218869475775"><ele>302.0</ele><time>2026-04-12T14:21:28.001Z</time></trkpt><trkpt lat="42.61220079667133" lon="11.501035000735554"><ele>302.0</ele><time>2026-04-12T14:21:29.001Z</time></trkpt><trkpt lat="42.61209999335031" lon="11.500858635214819"><ele>302.0</ele><time>2026-04-12T14:21:30.001Z</time></trkpt><trkpt lat="42.61199802471015" lon="11.50069136702943"><ele>302.0</ele><time>2026-04-12T14:21:31.001Z</time></trkpt><trkpt lat="42.61185312069834" lon="11.500552530590062"><ele>302.6666666666667</ele><time>2026-04-12T14:21:32.001Z</time></trkpt><trkpt lat="42.611676581875805" lon="11.50044186527553"><ele>303.3333333333333</ele><time>2026-04-12T14:21:33.001Z</time></trkpt><trkpt lat="42.61148924415887" lon="11.500338374567622"><ele>304.0</ele><time>2026-04-12T14:21:34.001Z</time></trkpt><trkpt lat="42.611309045536366" lon="11.500234858908719"><ele>304.0</ele><time>2026-04-12T14:21:35.001Z</time></trkpt><trkpt lat="42.6111659116871" lon="11.500109833061545"><ele>304.0</ele><time>2026-04-12T14:21:36.001Z</time></trkpt><trkpt lat="42.61104225137382" lon="11.500046508457315"><ele>304.0</ele><time>2026-04-12T14:21:37.001Z</time></trkpt><trkpt lat="42.61092770544368" lon="11.499982931140922"><ele>304.0</ele><time>2026-04-12T14:21:38.001Z</time></trkpt><trkpt lat="42.61080954006789" lon="11.499978019502539"><ele>307.25</ele><time>2026-04-12T14:21:39.001Z</time></trkpt><trkpt lat="42.61067309820298" lon="11.500051901617164"><ele>310.5</ele><time>2026-04-12T14:21:40.001Z</time></trkpt><trkpt lat="42.61055820534394" lon="11.500187865651627"><ele>313.75</ele><time>2026-04-12T14:21:41.001Z</time></trkpt><trkpt lat="42.61043848352476" lon="11.50026798175641"><ele>317.0</ele><time>2026-04-12T14:21:42.001Z</time></trkpt><trkpt lat="42.610326156672905" lon="11.500312402510197"><ele>317.0</ele><time>2026-04-12T14:21:43.001Z</time></trkpt><trkpt lat="42.610203674752285" lon="11.500277303592997"><ele>317.0</ele><time>2026-04-12T14:21:44.001Z</time></trkpt><trkpt lat="42.610072782644764" lon="11.500208433815184"><ele>317.0</ele><time>2026-04-12T14:21:45.001Z</time></trkpt><trkpt lat="42.6099545414147" lon="11.5001786066234"><ele>317.0</ele><time>2026-04-12T14:21:46.001Z</time></trkpt><trkpt lat="42.60984226056477" lon="11.500183706953814"><ele>317.0</ele><time>2026-04-12T14:21:47.001Z</time></trkpt><trkpt lat="42.60971434865918" lon="11.500260620283838"><ele>317.0</ele><time>2026-04-12T14:21:48.001Z</time></trkpt><trkpt lat="42.60958415852147" lon="11.500355631025572"><ele>317.0</ele><time>2026-04-12T14:21:49.001Z</time></trkpt><trkpt lat="42.60944982511368" lon="11.500471663638441"><ele>317.0</ele><time>2026-04-12T14:21:50.001Z</time></trkpt><trkpt lat="42.609335193947125" lon="11.500618899744062"><ele>320.33333333333337</ele><time>2026-04-12T14:21:51.001Z</time></trkpt><trkpt lat="42.60924474655219" lon="11.500820798469755"><ele>323.6666666666667</ele><time>2026-04-12T14:21:52.001Z</time></trkpt><trkpt lat="42.60918239619275" lon="11.501054072517908"><ele>327.0</ele><time>2026-04-12T14:21:53.001Z</time></trkpt><trkpt lat="42.609107333950696" lon="11.501274895365968"><ele>329.6666666666667</ele><time>2026-04-12T14:21:54.001Z</time></trkpt><trkpt lat="42.60904806559066" lon="11.501486639848084"><ele>332.33333333333337</ele><time>2026-04-12T14:21:55.001Z</time></trkpt><trkpt lat="42.608993573866535" lon="11.501681319124582"><ele>335.0</ele><time>2026-04-12T14:21:56.001Z</time></trkpt><trkpt lat="42.60893981220992" lon="11.501873390134659"><ele>335.0</ele><time>2026-04-12T14:21:57.001Z</time></trkpt><trkpt lat="42.60888515955711" lon="11.502072179789984"><ele>335.0</ele><time>2026-04-12T14:21:58.001Z</time></trkpt><trkpt lat="42.60884908043576" lon="11.502277270452218"><ele>335.0</ele><time>2026-04-12T14:21:59.001Z</time></trkpt><trkpt lat="42.60879224190346" lon="11.502474730869402"><ele>333.75</ele><time>2026-04-12T14:22:00.001Z</time></trkpt><trkpt lat="42.60875311325693" lon="11.502666676926923"><ele>332.5</ele><time>2026-04-12T14:22:01.001Z</time></trkpt><trkpt lat="42.608679925169696" lon="11.502841915160676"><ele>331.25</ele><time>2026-04-12T14:22:02.001Z</time></trkpt><trkpt lat="42.60858215127587" lon="11.502996494234399"><ele>330.0</ele><time>2026-04-12T14:22:03.001Z</time></trkpt><trkpt lat="42.608512827905514" lon="11.50316641949757"><ele>330.0</ele><time>2026-04-12T14:22:04.001Z</time></trkpt><trkpt lat="42.608448225268994" lon="11.503317635649086"><ele>330.0</ele><time>2026-04-12T14:22:05.001Z</time></trkpt><trkpt lat="42.60842804720437" lon="11.503494806624092"><ele>330.0</ele><time>2026-04-12T14:22:06.001Z</time></trkpt><trkpt lat="42.60845676322932" lon="11.50368837600234"><ele>330.0</ele><time>2026-04-12T14:22:07.001Z</time></trkpt><trkpt lat="42.60852879678578" lon="11.503864772311672"><ele>330.0</ele><time>2026-04-12T14:22:08.001Z</time></trkpt><trkpt lat="42.60864229666807" lon="11.504027364988293"><ele>330.0</ele><time>2026-04-12T14:22:09.001Z</time></trkpt><trkpt lat="42.60876617450025" lon="11.50418966316552"><ele>330.0</ele><time>2026-04-12T14:22:10.001Z</time></trkpt><trkpt lat="42.608882919087264" lon="11.504359410572517"><ele>334.25</ele><time>2026-04-12T14:22:11.001Z</time></trkpt><trkpt lat="42.608992336852175" lon="11.504524726344629"><ele>338.5</ele><time>2026-04-12T14:22:12.001Z</time></trkpt><trkpt lat="42.60907509903414" lon="11.504660585380705"><ele>342.75</ele><time>2026-04-12T14:22:13.002Z</time></trkpt><trkpt lat="42.60911792847411" lon="11.504800540439069"><ele>347.0</ele><time>2026-04-12T14:22:14.002Z</time></trkpt><trkpt lat="42.60914635964115" lon="11.504936822266266"><ele>347.0</ele><time>2026-04-12T14:22:15.002Z</time></trkpt><trkpt lat="42.609152916453326" lon="11.505064255969469"><ele>347.0</ele><time>2026-04-12T14:22:16.002Z</time></trkpt><trkpt lat="42.60908248309467" lon="11.505161371406562"><ele>347.0</ele><time>2026-04-12T14:22:17.002Z</time></trkpt><trkpt lat="42.609027826917846" lon="11.505253982159775"><ele>347.0</ele><time>2026-04-12T14:22:18.002Z</time></trkpt><trkpt lat="42.60892541050236" lon="11.505259304967772"><ele>347.0</ele><time>2026-04-12T14:22:19.002Z</time></trkpt><trkpt lat="42.608835774366334" lon="11.505267933153771"><ele>347.0</ele><time>2026-04-12T14:22:20.002Z</time></trkpt><trkpt lat="42.60874157701982" lon="11.505304733864596"><ele>347.0</ele><time>2026-04-12T14:22:21.002Z</time></trkpt><trkpt lat="42.60864717910056" lon="11.505347463407448"><ele>347.0</ele><time>2026-04-12T14:22:22.002Z</time></trkpt><trkpt lat="42.60858576598461" lon="11.505459666517183"><ele>347.0</ele><time>2026-04-12T14:22:23.002Z</time></trkpt><trkpt lat="42.60857324688459" lon="11.50560603996084"><ele>347.0</ele><time>2026-04-12T14:22:24.002Z</time></trkpt><trkpt lat="42.6086077449539" lon="11.505762952208086"><ele>348.40000000000003</ele><time>2026-04-12T14:22:25.002Z</time></trkpt><trkpt lat="42.608669909704886" lon="11.50590693662795"><ele>349.8</ele><time>2026-04-12T14:22:26.002Z</time></trkpt><trkpt lat="42.608696187989835" lon="11.506027392403489"><ele>351.2</ele><time>2026-04-12T14:22:27.002Z</time></trkpt><trkpt lat="42.60870253686026" lon="11.506136705369759"><ele>352.6</ele><time>2026-04-12T14:22:28.002Z</time></trkpt><trkpt lat="42.60867984858424" lon="11.506247179444452"><ele>354.0</ele><time>2026-04-12T14:22:29.002Z</time></trkpt><trkpt lat="42.608590495933115" lon="11.506324107941648"><ele>355.5</ele><time>2026-04-12T14:22:30.002Z</time></trkpt><trkpt lat="42.60851142839216" lon="11.506373414173146"><ele>357.0</ele><time>2026-04-12T14:22:31.002Z</time></trkpt><trkpt lat="42.60841245243658" lon="11.506408318481057"><ele>358.5</ele><time>2026-04-12T14:22:32.002Z</time></trkpt><trkpt lat="42.60828700597467" lon="11.50637676718561"><ele>360.0</ele><time>2026-04-12T14:22:33.002Z</time></trkpt><trkpt lat="42.60815008720637" lon="11.50636611081923"><ele>360.0</ele><time>2026-04-12T14:22:34.002Z</time></trkpt><trkpt lat="42.60800908870373" lon="11.50638116569601"><ele>360.0</ele><time>2026-04-12T14:22:35.002Z</time></trkpt><trkpt lat="42.60787172542876" lon="11.506401109626536"><ele>360.0</ele><time>2026-04-12T14:22:36.002Z</time></trkpt><trkpt lat="42.60774830716216" lon="11.506461824559526"><ele>360.0</ele><time>2026-04-12T14:22:37.002Z</time></trkpt><trkpt lat="42.607654265616006" lon="11.506564539780555"><ele>359.0</ele><time>2026-04-12T14:22:38.002Z</time></trkpt><trkpt lat="42.60758717522385" lon="11.5067135188905"><ele>358.0</ele><time>2026-04-12T14:22:39.002Z</time></trkpt><trkpt lat="42.60755723581291" lon="11.506905242410317"><ele>357.0</ele><time>2026-04-12T14:22:40.002Z</time></trkpt><trkpt lat="42.6075714767399" lon="11.507109973772192"><ele>356.0</ele><time>2026-04-12T14:22:41.002Z</time></trkpt><trkpt lat="42.60762962146199" lon="11.507303504112995"><ele>356.0</ele><time>2026-04-12T14:22:42.002Z</time></trkpt><trkpt lat="42.607726784792796" lon="11.507482316435453"><ele>356.0</ele><time>2026-04-12T14:22:43.002Z</time></trkpt><trkpt lat="42.6078437597235" lon="11.507633797070914"><ele>356.0</ele><time>2026-04-12T14:22:44.002Z</time></trkpt><trkpt lat="42.60792255710063" lon="11.507797798233135"><ele>356.8</ele><time>2026-04-12T14:22:45.002Z</time></trkpt><trkpt lat="42.607966085611324" lon="11.507918935517294"><ele>357.6</ele><time>2026-04-12T14:22:46.002Z</time></trkpt><trkpt lat="42.60797656830771" lon="11.508051128406276"><ele>358.4</ele><time>2026-04-12T14:22:47Z</time></trkpt><trkpt lat="42.6079376896266" lon="11.508171493268115"><ele>359.2</ele><time>2026-04-12T14:22:48Z</time></trkpt><trkpt lat="42.60785870992238" lon="11.508241033342811"><ele>360.0</ele><time>2026-04-12T14:22:49Z</time></trkpt><trkpt lat="42.6078037671387" lon="11.508350342609754"><ele>360.0</ele><time>2026-04-12T14:22:50Z</time></trkpt><trkpt lat="42.60775119429254" lon="11.508441734662497"><ele>360.0</ele><time>2026-04-12T14:22:51Z</time></trkpt><trkpt lat="42.60772956236923" lon="11.508565424181782"><ele>360.0</ele><time>2026-04-12T14:22:52Z</time></trkpt><trkpt lat="42.607741665349224" lon="11.508690256044424"><ele>360.0</ele><time>2026-04-12T14:22:53Z</time></trkpt><trkpt lat="42.607766604971665" lon="11.508818509715672"><ele>360.0</ele><time>2026-04-12T14:22:54Z</time></trkpt><trkpt lat="42.60781172896023" lon="11.508945388922138"><ele>363.0</ele><time>2026-04-12T14:22:55Z</time></trkpt><trkpt lat="42.607867171076954" lon="11.509058511131025"><ele>366.0</ele><time>2026-04-12T14:22:56Z</time></trkpt><trkpt lat="42.60793695263538" lon="11.509158115517183"><ele>369.0</ele><time>2026-04-12T14:22:57Z</time></trkpt><trkpt lat="42.60800582109248" lon="11.5092279568765"><ele>372.0</ele><time>2026-04-12T14:22:58Z</time></trkpt><trkpt lat="42.60804400226202" lon="11.509309592936836"><ele>375.0</ele><time>2026-04-12T14:22:59Z</time></trkpt><trkpt lat="42.60809001769572" lon="11.509453483945709"><ele>375.0</ele><time>2026-04-12T14:23:01Z</time></trkpt><trkpt lat="42.60807674713051" lon="11.50954839704772"><ele>375.0</ele><time>2026-04-12T14:23:02Z</time></trkpt><trkpt lat="42.60805801269471" lon="11.509643223595466"><ele>375.0</ele><time>2026-04-12T14:23:03Z</time></trkpt><trkpt lat="42.60798734653545" lon="11.509688314011441"><ele>375.0</ele><time>2026-04-12T14:23:04Z</time></trkpt><trkpt lat="42.60790318674051" lon="11.509689042207748"><ele>375.0</ele><time>2026-04-12T14:23:05Z</time></trkpt><trkpt lat="42.60781409109583" lon="11.50967082839615"><ele>375.0</ele><time>2026-04-12T14:23:06Z</time></trkpt><trkpt lat="42.607712032310054" lon="11.509633788452602"><ele>373.75</ele><time>2026-04-12T14:23:07Z</time></trkpt><trkpt lat="42.60759299836812" lon="11.509598166947285"><ele>372.5</ele><time>2026-04-12T14:23:08Z</time></trkpt><trkpt lat="42.6074896153617" lon="11.509561901077728"><ele>371.25</ele><time>2026-04-12T14:23:09Z</time></trkpt><trkpt lat="42.60737963960176" lon="11.509528764855771"><ele>370.0</ele><time>2026-04-12T14:23:10Z</time></trkpt><trkpt lat="42.60727248118275" lon="11.509495292825104"><ele>370.0</ele><time>2026-04-12T14:23:11Z</time></trkpt><trkpt lat="42.60717650270143" lon="11.509463380209322"><ele>370.0</ele><time>2026-04-12T14:23:12Z</time></trkpt><trkpt lat="42.60707387529382" lon="11.509425079780002"><ele>370.0</ele><time>2026-04-12T14:23:13Z</time></trkpt><trkpt lat="42.60696603076204" lon="11.509401927715109"><ele>370.0</ele><time>2026-04-12T14:23:14Z</time></trkpt><trkpt lat="42.60687905173056" lon="11.509390204577855"><ele>370.0</ele><time>2026-04-12T14:23:15Z</time></trkpt><trkpt lat="42.60680208419304" lon="11.509397621340174"><ele>370.4</ele><time>2026-04-12T14:23:16Z</time></trkpt><trkpt lat="42.6067209847499" lon="11.509412906779342"><ele>370.8</ele><time>2026-04-12T14:23:17Z</time></trkpt><trkpt lat="42.60665006676052" lon="11.509477844629886"><ele>371.20000000000005</ele><time>2026-04-12T14:23:18Z</time></trkpt><trkpt lat="42.60660540107144" lon="11.509592933296718"><ele>371.6</ele><time>2026-04-12T14:23:19Z</time></trkpt><trkpt lat="42.606581968202875" lon="11.509715525454283"><ele>372.0</ele><time>2026-04-12T14:23:20Z</time></trkpt><trkpt lat="42.606581139131535" lon="11.509850922881753"><ele>373.20000000000005</ele><time>2026-04-12T14:23:21Z</time></trkpt><trkpt lat="42.60664455298814" lon="11.509971412149431"><ele>374.4</ele><time>2026-04-12T14:23:22Z</time></trkpt><trkpt lat="42.606712159331785" lon="11.510083087861014"><ele>375.6</ele><time>2026-04-12T14:23:23Z</time></trkpt><trkpt lat="42.60680178532404" lon="11.510186128985087"><ele>376.79999999999995</ele><time>2026-04-12T14:23:24Z</time></trkpt><trkpt lat="42.606879273686104" lon="11.51029863630597"><ele>378.0</ele><time>2026-04-12T14:23:25Z</time></trkpt><trkpt lat="42.60695943831113" lon="11.510415429772426"><ele>380.3333333333333</ele><time>2026-04-12T14:23:26Z</time></trkpt><trkpt lat="42.60703219454499" lon="11.510511708565737"><ele>382.66666666666663</ele><time>2026-04-12T14:23:27Z</time></trkpt><trkpt lat="42.607099487527165" lon="11.510591737648271"><ele>385.0</ele><time>2026-04-12T14:23:28Z</time></trkpt><trkpt lat="42.607158884410765" lon="11.510664576266745"><ele>387.3333333333333</ele><time>2026-04-12T14:23:29Z</time></trkpt><trkpt lat="42.6072071337848" lon="11.510737267426094"><ele>389.66666666666663</ele><time>2026-04-12T14:23:30Z</time></trkpt><trkpt lat="42.607253205712915" lon="11.510824695216488"><ele>392.0</ele><time>2026-04-12T14:23:31.001Z</time></trkpt><trkpt lat="42.60727409997957" lon="11.510931804309227"><ele>392.0</ele><time>2026-04-12T14:23:32.001Z</time></trkpt><trkpt lat="42.6072334061799" lon="11.511034874007647"><ele>392.0</ele><time>2026-04-12T14:23:33.001Z</time></trkpt><trkpt lat="42.607181652499285" lon="11.511118487933919"><ele>392.0</ele><time>2026-04-12T14:23:34.001Z</time></trkpt><trkpt lat="42.6070995885901" lon="11.511175123462055"><ele>392.0</ele><time>2026-04-12T14:23:35.001Z</time></trkpt><trkpt lat="42.60699054804051" lon="11.511190749086255"><ele>392.0</ele><time>2026-04-12T14:23:36.001Z</time></trkpt><trkpt lat="42.606881847458304" lon="11.511221260620593"><ele>390.5</ele><time>2026-04-12T14:23:37.001Z</time></trkpt><trkpt lat="42.60675977496306" lon="11.511229985244757"><ele>389.0</ele><time>2026-04-12T14:23:38.001Z</time></trkpt><trkpt lat="42.60662473910414" lon="11.511247131635773"><ele>387.5</ele><time>2026-04-12T14:23:39.001Z</time></trkpt><trkpt lat="42.60648154224903" lon="11.511271730397889"><ele>386.0</ele><time>2026-04-12T14:23:40.001Z</time></trkpt><trkpt lat="42.60634999437935" lon="11.511293780721724"><ele>388.4</ele><time>2026-04-12T14:23:41.001Z</time></trkpt><trkpt lat="42.60623481205695" lon="11.511307180178656"><ele>390.8</ele><time>2026-04-12T14:23:42.001Z</time></trkpt><trkpt lat="42.60613174128758" lon="11.511308756473362"><ele>393.2</ele><time>2026-04-12T14:23:43.001Z</time></trkpt><trkpt lat="42.606031913585056" lon="11.511321591167357"><ele>395.59999999999997</ele><time>2026-04-12T14:23:44.001Z</time></trkpt><trkpt lat="42.60593388120777" lon="11.511361372810097"><ele>398.0</ele><time>2026-04-12T14:23:45.001Z</time></trkpt><trkpt lat="42.60585053827161" lon="11.51144147020613"><ele>398.0</ele><time>2026-04-12T14:23:46.001Z</time></trkpt><trkpt lat="42.60578448608109" lon="11.5115574026973"><ele>398.0</ele><time>2026-04-12T14:23:47.001Z</time></trkpt><trkpt lat="42.605748342616224" lon="11.511709582168828"><ele>398.0</ele><time>2026-04-12T14:23:48.001Z</time></trkpt><trkpt lat="42.605743711293925" lon="11.511886566354523"><ele>398.0</ele><time>2026-04-12T14:23:49.001Z</time></trkpt><trkpt lat="42.6057461142364" lon="11.512045560603582"><ele>398.79999999999995</ele><time>2026-04-12T14:23:50.001Z</time></trkpt><trkpt lat="42.605736198377826" lon="11.512192832791746"><ele>399.6</ele><time>2026-04-12T14:23:51.001Z</time></trkpt><trkpt lat="42.605730013564575" lon="11.512340410573088"><ele>400.4</ele><time>2026-04-12T14:23:52.001Z</time></trkpt><trkpt lat="42.605754076196334" lon="11.51249663590189"><ele>401.20000000000005</ele><time>2026-04-12T14:23:53.001Z</time></trkpt><trkpt lat="42.6058039696811" lon="11.51262850839233"><ele>402.0</ele><time>2026-04-12T14:23:54.001Z</time></trkpt><trkpt lat="42.60583527233741" lon="11.51277008857718"><ele>402.0</ele><time>2026-04-12T14:23:55.001Z</time></trkpt><trkpt lat="42.60587471783085" lon="11.512899167300999"><ele>402.0</ele><time>2026-04-12T14:23:56.001Z</time></trkpt><trkpt lat="42.60591573670107" lon="11.513033676143834"><ele>402.0</ele><time>2026-04-12T14:23:57.001Z</time></trkpt><trkpt lat="42.60596582736944" lon="11.513152833927318"><ele>402.0</ele><time>2026-04-12T14:23:58.001Z</time></trkpt><trkpt lat="42.60599882927834" lon="11.513280008200713"><ele>402.0</ele><time>2026-04-12T14:23:59.001Z</time></trkpt><trkpt lat="42.60599696754126" lon="11.513416701871398"><ele>401.40000000000003</ele><time>2026-04-12T14:24:00.001Z</time></trkpt><trkpt lat="42.605961363103155" lon="11.513536444682794"><ele>400.8</ele><time>2026-04-12T14:24:01.001Z</time></trkpt><trkpt lat="42.605901328899385" lon="11.513630665322498"><ele>400.2</ele><time>2026-04-12T14:24:02.001Z</time></trkpt><trkpt lat="42.6058193569631" lon="11.513707409170681"><ele>399.6</ele><time>2026-04-12T14:24:03.001Z</time></trkpt><trkpt lat="42.6057206824033" lon="11.513720025228137"><ele>399.0</ele><time>2026-04-12T14:24:04.001Z</time></trkpt><trkpt lat="42.60562233453816" lon="11.513691080739148"><ele>399.0</ele><time>2026-04-12T14:24:05.001Z</time></trkpt><trkpt lat="42.60552081459029" lon="11.513668186443066"><ele>399.0</ele><time>2026-04-12T14:24:06.001Z</time></trkpt><trkpt lat="42.605420358566356" lon="11.513602024430629"><ele>399.0</ele><time>2026-04-12T14:24:07.001Z</time></trkpt><trkpt lat="42.605320465315195" lon="11.513553832080058"><ele>399.0</ele><time>2026-04-12T14:24:08.001Z</time></trkpt><trkpt lat="42.60522569075197" lon="11.513516817980882"><ele>399.0</ele><time>2026-04-12T14:24:09.001Z</time></trkpt><trkpt lat="42.60512855084656" lon="11.513501775397975"><ele>398.79999999999995</ele><time>2026-04-12T14:24:10.001Z</time></trkpt><trkpt lat="42.605029133363786" lon="11.513528437150526"><ele>398.59999999999997</ele><time>2026-04-12T14:24:11.001Z</time></trkpt><trkpt lat="42.60493771198116" lon="11.513612006923273"><ele>398.4</ele><time>2026-04-12T14:24:12.001Z</time></trkpt><trkpt lat="42.6048799759586" lon="11.513753646927432"><ele>398.2</ele><time>2026-04-12T14:24:13.001Z</time></trkpt><trkpt lat="42.604848433619225" lon="11.513905731465963"><ele>398.0</ele><time>2026-04-12T14:24:14.001Z</time></trkpt><trkpt lat="42.604822718327945" lon="11.51405034247415"><ele>399.8333333333333</ele><time>2026-04-12T14:24:15.001Z</time></trkpt><trkpt lat="42.60478210089093" lon="11.514170946686273"><ele>401.66666666666663</ele><time>2026-04-12T14:24:16.002Z</time></trkpt><trkpt lat="42.604741561163856" lon="11.514278944111402"><ele>403.5</ele><time>2026-04-12T14:24:17.002Z</time></trkpt><trkpt lat="42.60468965490836" lon="11.514353870041717"><ele>405.33333333333337</ele><time>2026-04-12T14:24:18.002Z</time></trkpt><trkpt lat="42.604621156272174" lon="11.514408814285321"><ele>407.1666666666667</ele><time>2026-04-12T14:24:19.002Z</time></trkpt><trkpt lat="42.60453867174235" lon="11.514418306174555"><ele>409.0</ele><time>2026-04-12T14:24:20.002Z</time></trkpt><trkpt lat="42.60444983587386" lon="11.514368586625489"><ele>409.0</ele><time>2026-04-12T14:24:21.002Z</time></trkpt><trkpt lat="42.60437449281915" lon="11.514313362401541"><ele>409.0</ele><time>2026-04-12T14:24:22.002Z</time></trkpt><trkpt lat="42.604282942176596" lon="11.514253572955061"><ele>409.0</ele><time>2026-04-12T14:24:23.002Z</time></trkpt><trkpt lat="42.60419577331806" lon="11.514176638060706"><ele>409.0</ele><time>2026-04-12T14:24:24.002Z</time></trkpt><trkpt lat="42.60409783214554" lon="11.514124231474382"><ele>409.0</ele><time>2026-04-12T14:24:25.002Z</time></trkpt><trkpt lat="42.603987845958635" lon="11.514070354778461"><ele>409.0</ele><time>2026-04-12T14:24:26.002Z</time></trkpt><trkpt lat="42.603848981854355" lon="11.514060313762846"><ele>409.0</ele><time>2026-04-12T14:24:27.002Z</time></trkpt><trkpt lat="42.60371899900975" lon="11.514076805882846"><ele>409.0</ele><time>2026-04-12T14:24:28.002Z</time></trkpt><trkpt lat="42.603592024069265" lon="11.514125078101015"><ele>409.0</ele><time>2026-04-12T14:24:29.002Z</time></trkpt><trkpt lat="42.60346939961506" lon="11.514171305009294"><ele>409.5</ele><time>2026-04-12T14:24:30.002Z</time></trkpt><trkpt lat="42.60334766848048" lon="11.51420127542203"><ele>410.0</ele><time>2026-04-12T14:24:31.002Z</time></trkpt><trkpt lat="42.60324233141248" lon="11.514289605797483"><ele>410.5</ele><time>2026-04-12T14:24:32.002Z</time></trkpt><trkpt lat="42.603169772407576" lon="11.514426965426138"><ele>411.0</ele><time>2026-04-12T14:24:33.002Z</time></trkpt><trkpt lat="42.60311701019544" lon="11.51457539745573"><ele>412.8</ele><time>2026-04-12T14:24:34.002Z</time></trkpt><trkpt lat="42.60310563701126" lon="11.514730203084905"><ele>414.6</ele><time>2026-04-12T14:24:35.002Z</time></trkpt><trkpt lat="42.60312229938293" lon="11.514869964940862"><ele>416.4</ele><time>2026-04-12T14:24:36.002Z</time></trkpt><trkpt lat="42.60310675346664" lon="11.515006612436428"><ele>418.2</ele><time>2026-04-12T14:24:37.002Z</time></trkpt><trkpt lat="42.60309118646441" lon="11.515119311835353"><ele>420.0</ele><time>2026-04-12T14:24:38.002Z</time></trkpt><trkpt lat="42.60304384240088" lon="11.515204687482935"><ele>420.0</ele><time>2026-04-12T14:24:39.002Z</time></trkpt><trkpt lat="42.602971999981975" lon="11.515271279994845"><ele>420.0</ele><time>2026-04-12T14:24:40.002Z</time></trkpt><trkpt lat="42.602875571320766" lon="11.515319614832764"><ele>420.0</ele><time>2026-04-12T14:24:41.002Z</time></trkpt><trkpt lat="42.602779871335194" lon="11.515368887848686"><ele>420.0</ele><time>2026-04-12T14:24:42.002Z</time></trkpt><trkpt lat="42.60270448558648" lon="11.515446659145915"><ele>420.0</ele><time>2026-04-12T14:24:43.002Z</time></trkpt><trkpt lat="42.60263109877025" lon="11.515522642911874"><ele>419.25</ele><time>2026-04-12T14:24:44.002Z</time></trkpt><trkpt lat="42.60253714366467" lon="11.515613866580109"><ele>418.5</ele><time>2026-04-12T14:24:45.002Z</time></trkpt><trkpt lat="42.602445966007146" lon="11.515728111335909"><ele>417.75</ele><time>2026-04-12T14:24:46.002Z</time></trkpt><trkpt lat="42.60236681554551" lon="11.515863880874265"><ele>417.0</ele><time>2026-04-12T14:24:47.002Z</time></trkpt><trkpt lat="42.60227567504741" lon="11.515975413243414"><ele>417.0</ele><time>2026-04-12T14:24:48.002Z</time></trkpt><trkpt lat="42.60220409228925" lon="11.51611953625042"><ele>417.0</ele><time>2026-04-12T14:24:49.002Z</time></trkpt><trkpt lat="42.60215960841552" lon="11.51629409278644"><ele>417.0</ele><time>2026-04-12T14:24:50.002Z</time></trkpt><trkpt lat="42.602114468335294" lon="11.516455203189706"><ele>417.0</ele><time>2026-04-12T14:24:51.002Z</time></trkpt><trkpt lat="42.60208932066278" lon="11.516599983514043"><ele>416.5</ele><time>2026-04-12T14:24:52.002Z</time></trkpt><trkpt lat="42.60205914384875" lon="11.516707647667932"><ele>416.0</ele><time>2026-04-12T14:24:53Z</time></trkpt><trkpt lat="42.60201891752966" lon="11.516793339869883"><ele>415.5</ele><time>2026-04-12T14:24:54Z</time></trkpt><trkpt lat="42.60195384563678" lon="11.516837579823855"><ele>415.0</ele><time>2026-04-12T14:24:55Z</time></trkpt><trkpt lat="42.60188118557972" lon="11.516872536105929"><ele>414.5</ele><time>2026-04-12T14:24:56Z</time></trkpt><trkpt lat="42.60179216315743" lon="11.516852407969058"><ele>414.0</ele><time>2026-04-12T14:24:57Z</time></trkpt><trkpt lat="42.60169139177378" lon="11.516844483165169"><ele>414.0</ele><time>2026-04-12T14:24:58Z</time></trkpt><trkpt lat="42.60157601807271" lon="11.516796933871703"><ele>414.0</ele><time>2026-04-12T14:24:59Z</time></trkpt><trkpt lat="42.60143737051201" lon="11.516755162331423"><ele>414.0</ele><time>2026-04-12T14:25:00Z</time></trkpt><trkpt lat="42.60128114541457" lon="11.51668866566463"><ele>414.0</ele><time>2026-04-12T14:25:01Z</time></trkpt><trkpt lat="42.6011090149165" lon="11.516628954172548"><ele>415.33333333333337</ele><time>2026-04-12T14:25:02Z</time></trkpt><trkpt lat="42.600916192174374" lon="11.516565963314363"><ele>416.6666666666667</ele><time>2026-04-12T14:25:03Z</time></trkpt><trkpt lat="42.60074458949437" lon="11.516510070826865"><ele>418.0</ele><time>2026-04-12T14:25:04Z</time></trkpt><trkpt lat="42.600611678797186" lon="11.516453181419614"><ele>418.0</ele><time>2026-04-12T14:25:05Z</time></trkpt><trkpt lat="42.60051135337114" lon="11.516377543370313"><ele>418.0</ele><time>2026-04-12T14:25:06Z</time></trkpt><trkpt lat="42.6004524208056" lon="11.516248520854692"><ele>418.0</ele><time>2026-04-12T14:25:07Z</time></trkpt><trkpt lat="42.600428481991614" lon="11.51604283243014"><ele>418.0</ele><time>2026-04-12T14:25:08Z</time></trkpt><trkpt lat="42.600420420395814" lon="11.515847880347131"><ele>417.25</ele><time>2026-04-12T14:25:09Z</time></trkpt><trkpt lat="42.60040568755086" lon="11.515663115223639"><ele>416.5</ele><time>2026-04-12T14:25:10Z</time></trkpt><trkpt lat="42.60037177316628" lon="11.515480234133978"><ele>415.75</ele><time>2026-04-12T14:25:11Z</time></trkpt><trkpt lat="42.60033195392212" lon="11.51532747623011"><ele>415.0</ele><time>2026-04-12T14:25:12Z</time></trkpt><trkpt lat="42.60026350365244" lon="11.515202975002987"><ele>415.0</ele><time>2026-04-12T14:25:13Z</time></trkpt><trkpt lat="42.60016320366879" lon="11.515124946110012"><ele>415.0</ele><time>2026-04-12T14:25:14Z</time></trkpt><trkpt lat="42.600024935906255" lon="11.515091360615287"><ele>415.0</ele><time>2026-04-12T14:25:15Z</time></trkpt><trkpt lat="42.59988649195171" lon="11.515116329439183"><ele>415.0</ele><time>2026-04-12T14:25:16Z</time></trkpt><trkpt lat="42.599746477279574" lon="11.515215548777832"><ele>415.0</ele><time>2026-04-12T14:25:17Z</time></trkpt><trkpt lat="42.59958100258609" lon="11.515300717741837"><ele>415.0</ele><time>2026-04-12T14:25:18Z</time></trkpt><trkpt lat="42.59943490210102" lon="11.515382834805825"><ele>415.0</ele><time>2026-04-12T14:25:19Z</time></trkpt><trkpt lat="42.59928843274375" lon="11.515466467294592"><ele>415.6666666666667</ele><time>2026-04-12T14:25:20Z</time></trkpt><trkpt lat="42.59913238752344" lon="11.515555608074479"><ele>416.33333333333337</ele><time>2026-04-12T14:25:21Z</time></trkpt><trkpt lat="42.598967111315105" lon="11.515651202938098"><ele>417.0</ele><time>2026-04-12T14:25:22Z</time></trkpt><trkpt lat="42.59881111251524" lon="11.515740716943995"><ele>417.0</ele><time>2026-04-12T14:25:23Z</time></trkpt><trkpt lat="42.59866814638549" lon="11.515822261813607"><ele>417.0</ele><time>2026-04-12T14:25:24Z</time></trkpt><trkpt lat="42.59854848245327" lon="11.515892405698748"><ele>417.0</ele><time>2026-04-12T14:25:25Z</time></trkpt><trkpt lat="42.59845035906158" lon="11.51595509689982"><ele>417.0</ele><time>2026-04-12T14:25:26Z</time></trkpt><trkpt lat="42.598373891068334" lon="11.51606404492974"><ele>414.0</ele><time>2026-04-12T14:25:27Z</time></trkpt><trkpt lat="42.59831116252664" lon="11.516201928570919"><ele>411.0</ele><time>2026-04-12T14:25:28Z</time></trkpt><trkpt lat="42.59828239134955" lon="11.516388641587255"><ele>408.0</ele><time>2026-04-12T14:25:29Z</time></trkpt><trkpt lat="42.59829133350002" lon="11.516608710761204"><ele>405.0</ele><time>2026-04-12T14:25:30Z</time></trkpt><trkpt lat="42.59830455368664" lon="11.51683249643839"><ele>405.0</ele><time>2026-04-12T14:25:31Z</time></trkpt><trkpt lat="42.59831341665467" lon="11.51702927831175"><ele>405.0</ele><time>2026-04-12T14:25:32.001Z</time></trkpt><trkpt lat="42.59831754715167" lon="11.517193560697503"><ele>405.0</ele><time>2026-04-12T14:25:33.001Z</time></trkpt><trkpt lat="42.59829801815847" lon="11.517325879119511"><ele>405.0</ele><time>2026-04-12T14:25:34.001Z</time></trkpt><trkpt lat="42.59825832334122" lon="11.517438893854084"><ele>405.25</ele><time>2026-04-12T14:25:35.001Z</time></trkpt><trkpt lat="42.59819207936921" lon="11.517526475456268"><ele>405.5</ele><time>2026-04-12T14:25:36.001Z</time></trkpt><trkpt lat="42.598078768988394" lon="11.51754573407188"><ele>405.75</ele><time>2026-04-12T14:25:37.001Z</time></trkpt><trkpt lat="42.59795442000085" lon="11.517588353144276"><ele>406.0</ele><time>2026-04-12T14:25:38.001Z</time></trkpt><trkpt lat="42.59782464807325" lon="11.517619985300604"><ele>403.0</ele><time>2026-04-12T14:25:39.001Z</time></trkpt><trkpt lat="42.5976807126582" lon="11.517664474867873"><ele>400.0</ele><time>2026-04-12T14:25:40.001Z</time></trkpt><trkpt lat="42.597549192301074" lon="11.517697240813689"><ele>397.0</ele><time>2026-04-12T14:25:41.001Z</time></trkpt><trkpt lat="42.59741411458553" lon="11.517741299695585"><ele>394.0</ele><time>2026-04-12T14:25:42.001Z</time></trkpt><trkpt lat="42.597278265445546" lon="11.517790195882519"><ele>394.0</ele><time>2026-04-12T14:25:43.001Z</time></trkpt><trkpt lat="42.597147499720435" lon="11.517851703987121"><ele>394.0</ele><time>2026-04-12T14:25:44.001Z</time></trkpt><trkpt lat="42.59702342278191" lon="11.517916111432406"><ele>394.0</ele><time>2026-04-12T14:25:45.001Z</time></trkpt><trkpt lat="42.59691002287189" lon="11.517980275569014"><ele>394.0</ele><time>2026-04-12T14:25:46.001Z</time></trkpt><trkpt lat="42.596817497739394" lon="11.518057173553647"><ele>393.4</ele><time>2026-04-12T14:25:47.001Z</time></trkpt><trkpt lat="42.59675810717733" lon="11.518170540696492"><ele>392.79999999999995</ele><time>2026-04-12T14:25:48.001Z</time></trkpt><trkpt lat="42.59670818256042" lon="11.518297754607037"><ele>392.20000000000005</ele><time>2026-04-12T14:25:49.001Z</time></trkpt><trkpt lat="42.59673992815067" lon="11.51845312665072"><ele>391.6</ele><time>2026-04-12T14:25:50.001Z</time></trkpt><trkpt lat="42.59677755059551" lon="11.518590621850514"><ele>391.0</ele><time>2026-04-12T14:25:51.001Z</time></trkpt><trkpt lat="42.59687523245929" lon="11.518677704159636"><ele>391.0</ele><time>2026-04-12T14:25:52.001Z</time></trkpt><trkpt lat="42.596981891932266" lon="11.518731450389902"><ele>391.0</ele><time>2026-04-12T14:25:53.001Z</time></trkpt><trkpt lat="42.59710265672423" lon="11.51873863715233"><ele>391.0</ele><time>2026-04-12T14:25:54.001Z</time></trkpt><trkpt lat="42.597224367501695" lon="11.518738813638107"><ele>391.0</ele><time>2026-04-12T14:25:55.001Z</time></trkpt><trkpt lat="42.597327426847684" lon="11.518775087021888"><ele>391.8</ele><time>2026-04-12T14:25:56.001Z</time></trkpt><trkpt lat="42.59740729404798" lon="11.518859458345558"><ele>392.6</ele><time>2026-04-12T14:25:57.001Z</time></trkpt><trkpt lat="42.597443160965085" lon="11.518963040797749"><ele>393.4</ele><time>2026-04-12T14:25:58.001Z</time></trkpt><trkpt lat="42.59744553434634" lon="11.519074636088778"><ele>394.2</ele><time>2026-04-12T14:25:59.001Z</time></trkpt><trkpt lat="42.59740611716051" lon="11.519179166088135"><ele>395.0</ele><time>2026-04-12T14:26:00.001Z</time></trkpt><trkpt lat="42.59733657033035" lon="11.519272247584667"><ele>395.0</ele><time>2026-04-12T14:26:01.001Z</time></trkpt><trkpt lat="42.59725452810335" lon="11.51938747613609"><ele>395.0</ele><time>2026-04-12T14:26:02.001Z</time></trkpt><trkpt lat="42.597179008934624" lon="11.519528050440195"><ele>395.0</ele><time>2026-04-12T14:26:03.001Z</time></trkpt><trkpt lat="42.59712912991054" lon="11.519698315067195"><ele>395.0</ele><time>2026-04-12T14:26:04.001Z</time></trkpt><trkpt lat="42.597056117777726" lon="11.519829116696851"><ele>393.75</ele><time>2026-04-12T14:26:05.001Z</time></trkpt><trkpt lat="42.59697549791147" lon="11.519917943213839"><ele>392.5</ele><time>2026-04-12T14:26:06.001Z</time></trkpt><trkpt lat="42.596867662166474" lon="11.51996430665489"><ele>391.25</ele><time>2026-04-12T14:26:07.001Z</time></trkpt><trkpt lat="42.59674191918742" lon="11.519946874749381"><ele>390.0</ele><time>2026-04-12T14:26:08.001Z</time></trkpt><trkpt lat="42.59660037009405" lon="11.519916352379584"><ele>390.0</ele><time>2026-04-12T14:26:09.001Z</time></trkpt><trkpt lat="42.59644608346677" lon="11.519881198478206"><ele>390.0</ele><time>2026-04-12T14:26:10.001Z</time></trkpt><trkpt lat="42.59628658149837" lon="11.51985306784285"><ele>390.0</ele><time>2026-04-12T14:26:11.001Z</time></trkpt><trkpt lat="42.5961405277143" lon="11.519858023859726"><ele>389.0</ele><time>2026-04-12T14:26:12.001Z</time></trkpt><trkpt lat="42.59601186775484" lon="11.519861106549161"><ele>388.0</ele><time>2026-04-12T14:26:13.001Z</time></trkpt><trkpt lat="42.59589000247594" lon="11.519903295023925"><ele>387.0</ele><time>2026-04-12T14:26:14.001Z</time></trkpt><trkpt lat="42.59579044442045" lon="11.519994579865788"><ele>386.0</ele><time>2026-04-12T14:26:15.001Z</time></trkpt><trkpt lat="42.59569946558459" lon="11.520096476318944"><ele>386.0</ele><time>2026-04-12T14:26:16.001Z</time></trkpt><trkpt lat="42.595589701514335" lon="11.520095235730567"><ele>386.0</ele><time>2026-04-12T14:26:17.001Z</time></trkpt><trkpt lat="42.59549583571797" lon="11.520070585940434"><ele>386.0</ele><time>2026-04-12T14:26:18.002Z</time></trkpt><trkpt lat="42.59542770403823" lon="11.519967376551877"><ele>386.0</ele><time>2026-04-12T14:26:19.002Z</time></trkpt><trkpt lat="42.595354608908735" lon="11.519829894457045"><ele>386.0</ele><time>2026-04-12T14:26:20.002Z</time></trkpt><trkpt lat="42.595273466040815" lon="11.519677707099385"><ele>385.75</ele><time>2026-04-12T14:26:21.002Z</time></trkpt><trkpt lat="42.59517219054659" lon="11.519588547928716"><ele>385.5</ele><time>2026-04-12T14:26:22.002Z</time></trkpt><trkpt lat="42.59504942057417" lon="11.519574447461931"><ele>385.25</ele><time>2026-04-12T14:26:23.002Z</time></trkpt><trkpt lat="42.594922455687225" lon="11.519637549261331"><ele>385.0</ele><time>2026-04-12T14:26:24.002Z</time></trkpt><trkpt lat="42.59480812245293" lon="11.519697095606185"><ele>385.0</ele><time>2026-04-12T14:26:25.002Z</time></trkpt><trkpt lat="42.594697079256235" lon="11.519710844686543"><ele>385.0</ele><time>2026-04-12T14:26:26.002Z</time></trkpt><trkpt lat="42.59460269691164" lon="11.519655349979175"><ele>385.0</ele><time>2026-04-12T14:26:27.002Z</time></trkpt><trkpt lat="42.594529163247" lon="11.519550968362024"><ele>385.0</ele><time>2026-04-12T14:26:28.002Z</time></trkpt><trkpt lat="42.59444957626814" lon="11.519457511122452"><ele>385.0</ele><time>2026-04-12T14:26:29.002Z</time></trkpt><trkpt lat="42.59437543341423" lon="11.519367145101961"><ele>384.4</ele><time>2026-04-12T14:26:30.002Z</time></trkpt><trkpt lat="42.59428678651317" lon="11.519329279884662"><ele>383.8</ele><time>2026-04-12T14:26:31.002Z</time></trkpt><trkpt lat="42.59418512437797" lon="11.51934579942415"><ele>383.20000000000005</ele><time>2026-04-12T14:26:32.002Z</time></trkpt><trkpt lat="42.59407254404597" lon="11.519400783407033"><ele>382.6</ele><time>2026-04-12T14:26:33.002Z</time></trkpt><trkpt lat="42.593966778402574" lon="11.519508551776728"><ele>382.0</ele><time>2026-04-12T14:26:34.002Z</time></trkpt><trkpt lat="42.593868669049456" lon="11.519652264790567"><ele>382.0</ele><time>2026-04-12T14:26:35.002Z</time></trkpt><trkpt lat="42.59378945114167" lon="11.519798873045659"><ele>382.0</ele><time>2026-04-12T14:26:36.002Z</time></trkpt><trkpt lat="42.593735225664126" lon="11.5199491151388"><ele>382.0</ele><time>2026-04-12T14:26:37.002Z</time></trkpt><trkpt lat="42.59370102672302" lon="11.520099139832988"><ele>382.0</ele><time>2026-04-12T14:26:38.002Z</time></trkpt><trkpt lat="42.59365647785294" lon="11.520223613347826"><ele>380.40000000000003</ele><time>2026-04-12T14:26:39.002Z</time></trkpt><trkpt lat="42.593606512131394" lon="11.52032700515613"><ele>378.8</ele><time>2026-04-12T14:26:40.002Z</time></trkpt><trkpt lat="42.59354039256373" lon="11.520412169372682"><ele>377.2</ele><time>2026-04-12T14:26:41.002Z</time></trkpt><trkpt lat="42.593471475707005" lon="11.520495556325963"><ele>375.6</ele><time>2026-04-12T14:26:42.002Z</time></trkpt><trkpt lat="42.593367534369136" lon="11.520506898456404"><ele>374.0</ele><time>2026-04-12T14:26:43.002Z</time></trkpt><trkpt lat="42.59326346764727" lon="11.520503259823169"><ele>374.0</ele><time>2026-04-12T14:26:44.002Z</time></trkpt><trkpt lat="42.593147440156045" lon="11.520503259820567"><ele>374.0</ele><time>2026-04-12T14:26:45.002Z</time></trkpt><trkpt lat="42.59302187532451" lon="11.520506279108794"><ele>374.0</ele><time>2026-04-12T14:26:46.002Z</time></trkpt><trkpt lat="42.59289152841079" lon="11.520483868812738"><ele>374.0</ele><time>2026-04-12T14:26:47.002Z</time></trkpt><trkpt lat="42.59275662592664" lon="11.520462879803159"><ele>373.25</ele><time>2026-04-12T14:26:48.002Z</time></trkpt><trkpt lat="42.59262371232953" lon="11.520450533879043"><ele>372.5</ele><time>2026-04-12T14:26:49.002Z</time></trkpt><trkpt lat="42.59249243723518" lon="11.520427212265309"><ele>371.75</ele><time>2026-04-12T14:26:50.002Z</time></trkpt><trkpt lat="42.59236660601074" lon="11.520411047155807"><ele>371.0</ele><time>2026-04-12T14:26:51.002Z</time></trkpt><trkpt lat="42.592243516739536" lon="11.520392569570236"><ele>371.0</ele><time>2026-04-12T14:26:52.002Z</time></trkpt><trkpt lat="42.592126700718815" lon="11.520376874815296"><ele>371.0</ele><time>2026-04-12T14:26:53.002Z</time></trkpt><trkpt lat="42.59201053224275" lon="11.520367459270627"><ele>371.0</ele><time>2026-04-12T14:26:54.002Z</time></trkpt><trkpt lat="42.59189421404016" lon="11.52033481823573"><ele>371.0</ele><time>2026-04-12T14:26:55.002Z</time></trkpt><trkpt lat="42.5917740846819" lon="11.520337201978077"><ele>372.0</ele><time>2026-04-12T14:26:56.002Z</time></trkpt><trkpt lat="42.59166138199714" lon="11.520320917226389"><ele>373.0</ele><time>2026-04-12T14:26:57.002Z</time></trkpt><trkpt lat="42.59155239392526" lon="11.520311550122216"><ele>374.0</ele><time>2026-04-12T14:26:58.002Z</time></trkpt><trkpt lat="42.591446071657266" lon="11.520304015428184"><ele>375.0</ele><time>2026-04-12T14:26:59Z</time></trkpt><trkpt lat="42.591340715014475" lon="11.520300548963409"><ele>376.0</ele><time>2026-04-12T14:27:00Z</time></trkpt><trkpt lat="42.59123821949839" lon="11.520238698070786"><ele>376.8</ele><time>2026-04-12T14:27:01Z</time></trkpt><trkpt lat="42.59112999212693" lon="11.520222637172582"><ele>377.6</ele><time>2026-04-12T14:27:02Z</time></trkpt><trkpt lat="42.591019886965206" lon="11.520212475625586"><ele>378.4</ele><time>2026-04-12T14:27:03Z</time></trkpt><trkpt lat="42.59090419549023" lon="11.520184196199814"><ele>379.2</ele><time>2026-04-12T14:27:04Z</time></trkpt><trkpt lat="42.59079225291251" lon="11.52018131349856"><ele>380.0</ele><time>2026-04-12T14:27:05Z</time></trkpt><trkpt lat="42.59069577049346" lon="11.520173201608182"><ele>380.0</ele><time>2026-04-12T14:27:06Z</time></trkpt><trkpt lat="42.59061959406122" lon="11.520161903056074"><ele>380.0</ele><time>2026-04-12T14:27:07Z</time></trkpt><trkpt lat="42.590539908111964" lon="11.520145392815047"><ele>380.0</ele><time>2026-04-12T14:27:08Z</time></trkpt><trkpt lat="42.59044275650866" lon="11.520144551744899"><ele>380.0</ele><time>2026-04-12T14:27:09Z</time></trkpt><trkpt lat="42.590317060110706" lon="11.520064588170627"><ele>380.0</ele><time>2026-04-12T14:27:10Z</time></trkpt><trkpt lat="42.59019576031025" lon="11.519951573000288"><ele>382.5</ele><time>2026-04-12T14:27:11Z</time></trkpt><trkpt lat="42.590070426899175" lon="11.519875079351674"><ele>385.0</ele><time>2026-04-12T14:27:12Z</time></trkpt><trkpt lat="42.58994747916486" lon="11.519793800449031"><ele>387.5</ele><time>2026-04-12T14:27:13Z</time></trkpt><trkpt lat="42.5898139577582" lon="11.519707423835232"><ele>390.0</ele><time>2026-04-12T14:27:14Z</time></trkpt><trkpt lat="42.58967338917779" lon="11.519626283211851"><ele>389.66666666666663</ele><time>2026-04-12T14:27:15Z</time></trkpt><trkpt lat="42.58953003823074" lon="11.519557461254056"><ele>389.3333333333333</ele><time>2026-04-12T14:27:16Z</time></trkpt><trkpt lat="42.589383353081644" lon="11.519506700170826"><ele>389.0</ele><time>2026-04-12T14:27:17Z</time></trkpt><trkpt lat="42.589239166490614" lon="11.519458540212657"><ele>389.0</ele><time>2026-04-12T14:27:18Z</time></trkpt><trkpt lat="42.58911231574247" lon="11.519435205087317"><ele>389.0</ele><time>2026-04-12T14:27:19Z</time></trkpt><trkpt lat="42.58899772621944" lon="11.519407445562928"><ele>389.0</ele><time>2026-04-12T14:27:20Z</time></trkpt><trkpt lat="42.588887253373265" lon="11.519376909247782"><ele>389.0</ele><time>2026-04-12T14:27:21Z</time></trkpt><trkpt lat="42.588776840784746" lon="11.519345949105448"><ele>389.6</ele><time>2026-04-12T14:27:22Z</time></trkpt><trkpt lat="42.588661802882136" lon="11.519311737190332"><ele>390.2</ele><time>2026-04-12T14:27:23Z</time></trkpt><trkpt lat="42.58855119394181" lon="11.519271115739292"><ele>390.8</ele><time>2026-04-12T14:27:24Z</time></trkpt><trkpt lat="42.58845957011088" lon="11.51920938910763"><ele>391.40000000000003</ele><time>2026-04-12T14:27:25Z</time></trkpt><trkpt lat="42.58838586676546" lon="11.519134708140257"><ele>392.0</ele><time>2026-04-12T14:27:26Z</time></trkpt><trkpt lat="42.588310152178664" lon="11.519092883346675"><ele>392.0</ele><time>2026-04-12T14:27:27Z</time></trkpt><trkpt lat="42.58823498451891" lon="11.519130849136507"><ele>392.0</ele><time>2026-04-12T14:27:28Z</time></trkpt><trkpt lat="42.58815394407511" lon="11.519226377339745"><ele>392.0</ele><time>2026-04-12T14:27:29Z</time></trkpt><trkpt lat="42.588078906590454" lon="11.519375647689227"><ele>392.0</ele><time>2026-04-12T14:27:30Z</time></trkpt><trkpt lat="42.58797704041078" lon="11.519521502713255"><ele>392.75</ele><time>2026-04-12T14:27:31Z</time></trkpt><trkpt lat="42.58784519340675" lon="11.51960454501326"><ele>393.5</ele><time>2026-04-12T14:27:32Z</time></trkpt><trkpt lat="42.58773210190026" lon="11.519670706414125"><ele>394.25</ele><time>2026-04-12T14:27:33.001Z</time></trkpt><trkpt lat="42.58763172634023" lon="11.519739454116921"><ele>395.0</ele><time>2026-04-12T14:27:34.001Z</time></trkpt><trkpt lat="42.58753423099033" lon="11.51977832357868"><ele>395.0</ele><time>2026-04-12T14:27:35.001Z</time></trkpt><trkpt lat="42.58743417318765" lon="11.519809767163558"><ele>395.0</ele><time>2026-04-12T14:27:36.001Z</time></trkpt><trkpt lat="42.587324585017" lon="11.519818089141753"><ele>395.0</ele><time>2026-04-12T14:27:37.001Z</time></trkpt><trkpt lat="42.58720815247019" lon="11.519808025007766"><ele>395.0</ele><time>2026-04-12T14:27:38.001Z</time></trkpt><trkpt lat="42.58708531915023" lon="11.519787450863715"><ele>394.5</ele><time>2026-04-12T14:27:39.001Z</time></trkpt><trkpt lat="42.58696198310185" lon="11.51976754886869"><ele>394.0</ele><time>2026-04-12T14:27:40.001Z</time></trkpt><trkpt lat="42.5868439286308" lon="11.519758051700544"><ele>393.5</ele><time>2026-04-12T14:27:41.001Z</time></trkpt><trkpt lat="42.586721590120405" lon="11.519749447449488"><ele>393.0</ele><time>2026-04-12T14:27:42.001Z</time></trkpt><trkpt lat="42.58659795771066" lon="11.519735426106767"><ele>393.0</ele><time>2026-04-12T14:27:43.001Z</time></trkpt><trkpt lat="42.58647281876007" lon="11.519710097951846"><ele>393.0</ele><time>2026-04-12T14:27:44.001Z</time></trkpt><trkpt lat="42.58634669151745" lon="11.519699767636611"><ele>393.0</ele><time>2026-04-12T14:27:45.001Z</time></trkpt><trkpt lat="42.586217014341784" lon="11.519688834909136"><ele>393.0</ele><time>2026-04-12T14:27:46.001Z</time></trkpt><trkpt lat="42.58609367358502" lon="11.51966637942069"><ele>393.5</ele><time>2026-04-12T14:27:47.001Z</time></trkpt><trkpt lat="42.58596845003084" lon="11.519657070796038"><ele>394.0</ele><time>2026-04-12T14:27:48.001Z</time></trkpt><trkpt lat="42.58584210142422" lon="11.519643321204867"><ele>394.5</ele><time>2026-04-12T14:27:49.001Z</time></trkpt><trkpt lat="42.58570944826365" lon="11.519626055217653"><ele>395.0</ele><time>2026-04-12T14:27:50.001Z</time></trkpt><trkpt lat="42.58556255649377" lon="11.519605752572787"><ele>395.0</ele><time>2026-04-12T14:27:51.001Z</time></trkpt><trkpt lat="42.5854089921373" lon="11.519582441770924"><ele>395.0</ele><time>2026-04-12T14:27:52.001Z</time></trkpt><trkpt lat="42.58526266640998" lon="11.519569465824524"><ele>395.0</ele><time>2026-04-12T14:27:53.001Z</time></trkpt><trkpt lat="42.58513040117348" lon="11.519534135619544"><ele>395.0</ele><time>2026-04-12T14:27:54.001Z</time></trkpt><trkpt lat="42.58501134087461" lon="11.519518987295907"><ele>394.5</ele><time>2026-04-12T14:27:55.001Z</time></trkpt><trkpt lat="42.584893765527305" lon="11.51950842571713"><ele>394.0</ele><time>2026-04-12T14:27:56.001Z</time></trkpt><trkpt lat="42.58476669051299" lon="11.519518269373375"><ele>393.5</ele><time>2026-04-12T14:27:57.001Z</time></trkpt><trkpt lat="42.5846472338615" lon="11.519586797338128"><ele>393.0</ele><time>2026-04-12T14:27:58.001Z</time></trkpt><trkpt lat="42.58455455529586" lon="11.519709795123637"><ele>391.75</ele><time>2026-04-12T14:27:59.001Z</time></trkpt><trkpt lat="42.58449209237937" lon="11.519893261429342"><ele>390.5</ele><time>2026-04-12T14:28:00.001Z</time></trkpt><trkpt lat="42.58446318389862" lon="11.520095983558043"><ele>389.25</ele><time>2026-04-12T14:28:01.001Z</time></trkpt><trkpt lat="42.58448299434252" lon="11.520292722650892"><ele>388.0</ele><time>2026-04-12T14:28:02.001Z</time></trkpt><trkpt lat="42.58455396712024" lon="11.52047128100914"><ele>388.0</ele><time>2026-04-12T14:28:03.001Z</time></trkpt><trkpt lat="42.58465733598031" lon="11.52062484283683"><ele>388.0</ele><time>2026-04-12T14:28:04.001Z</time></trkpt><trkpt lat="42.584796633761286" lon="11.520761519215535"><ele>388.0</ele><time>2026-04-12T14:28:05.001Z</time></trkpt><trkpt lat="42.58491208882524" lon="11.520888145313801"><ele>388.0</ele><time>2026-04-12T14:28:06.001Z</time></trkpt><trkpt lat="42.58500405700545" lon="11.521014295757793"><ele>388.0</ele><time>2026-04-12T14:28:07.001Z</time></trkpt><trkpt lat="42.5850710010294" lon="11.521138108900574"><ele>388.0</ele><time>2026-04-12T14:28:08.001Z</time></trkpt><trkpt lat="42.58514405157332" lon="11.521242009057252"><ele>388.0</ele><time>2026-04-12T14:28:09.001Z</time></trkpt><trkpt lat="42.58521960231785" lon="11.521334564805327"><ele>386.59999999999997</ele><time>2026-04-12T14:28:10.001Z</time></trkpt><trkpt lat="42.58527021141638" lon="11.521460431039"><ele>385.2</ele><time>2026-04-12T14:28:11.001Z</time></trkpt><trkpt lat="42.58528435522075" lon="11.521606459429444"><ele>383.8</ele><time>2026-04-12T14:28:12.001Z</time></trkpt><trkpt lat="42.585294188155785" lon="11.521748820340962"><ele>382.4</ele><time>2026-04-12T14:28:13.001Z</time></trkpt><trkpt lat="42.585286118744456" lon="11.521898194217895"><ele>381.0</ele><time>2026-04-12T14:28:14.001Z</time></trkpt><trkpt lat="42.58527390534741" lon="11.5220425150143"><ele>381.5</ele><time>2026-04-12T14:28:15.001Z</time></trkpt><trkpt lat="42.58527136971925" lon="11.522187680634865"><ele>382.0</ele><time>2026-04-12T14:28:16.001Z</time></trkpt><trkpt lat="42.58525530239377" lon="11.52234213313269"><ele>382.5</ele><time>2026-04-12T14:28:17.001Z</time></trkpt><trkpt lat="42.58523596223201" lon="11.522501032300182"><ele>383.0</ele><time>2026-04-12T14:28:18.001Z</time></trkpt><trkpt lat="42.585202087625014" lon="11.522667353548401"><ele>383.0</ele><time>2026-04-12T14:28:19.002Z</time></trkpt><trkpt lat="42.58515227873208" lon="11.52284367264588"><ele>383.0</ele><time>2026-04-12T14:28:20.002Z</time></trkpt><trkpt lat="42.58508864670157" lon="11.523008788101276"><ele>383.0</ele><time>2026-04-12T14:28:21.002Z</time></trkpt><trkpt lat="42.585007358736966" lon="11.523177631767728"><ele>383.0</ele><time>2026-04-12T14:28:22.002Z</time></trkpt><trkpt lat="42.584908743693084" lon="11.523343834955455"><ele>382.6666666666667</ele><time>2026-04-12T14:28:23.002Z</time></trkpt><trkpt lat="42.584828080285924" lon="11.52354847078899"><ele>382.3333333333333</ele><time>2026-04-12T14:28:24.002Z</time></trkpt><trkpt lat="42.58473719636808" lon="11.523740005420779"><ele>382.0</ele><time>2026-04-12T14:28:25.002Z</time></trkpt><trkpt lat="42.58463721775445" lon="11.523907581548846"><ele>381.0</ele><time>2026-04-12T14:28:26.002Z</time></trkpt><trkpt lat="42.584553761483996" lon="11.524087298644996"><ele>380.0</ele><time>2026-04-12T14:28:27.002Z</time></trkpt><trkpt lat="42.5844778719159" lon="11.524252568305444"><ele>379.0</ele><time>2026-04-12T14:28:28.002Z</time></trkpt><trkpt lat="42.584400982162265" lon="11.524414162161447"><ele>378.0</ele><time>2026-04-12T14:28:29.002Z</time></trkpt><trkpt lat="42.584318653955116" lon="11.524567136648304"><ele>373.6666666666667</ele><time>2026-04-12T14:28:30.002Z</time></trkpt><trkpt lat="42.58420660678684" lon="11.524701415217285"><ele>369.33333333333337</ele><time>2026-04-12T14:28:31.002Z</time></trkpt><trkpt lat="42.58408725662289" lon="11.52483340490018"><ele>365.0</ele><time>2026-04-12T14:28:32.002Z</time></trkpt><trkpt lat="42.58396059913798" lon="11.524971895716131"><ele>365.0</ele><time>2026-04-12T14:28:33.002Z</time></trkpt><trkpt lat="42.583836853618486" lon="11.525128502964526"><ele>365.0</ele><time>2026-04-12T14:28:34.002Z</time></trkpt><trkpt lat="42.58369057899439" lon="11.52525413459711"><ele>365.0</ele><time>2026-04-12T14:28:35.002Z</time></trkpt><trkpt lat="42.58355733027079" lon="11.525393813139194"><ele>364.33333333333337</ele><time>2026-04-12T14:28:36.002Z</time></trkpt><trkpt lat="42.58343040917132" lon="11.525530497474568"><ele>363.6666666666667</ele><time>2026-04-12T14:28:37.002Z</time></trkpt><trkpt lat="42.58330576986777" lon="11.525656613484818"><ele>363.0</ele><time>2026-04-12T14:28:38.002Z</time></trkpt><trkpt lat="42.58317317920048" lon="11.525751208923685"><ele>363.0</ele><time>2026-04-12T14:28:39.002Z</time></trkpt><trkpt lat="42.583032823849265" lon="11.525810003128568"><ele>363.0</ele><time>2026-04-12T14:28:40.002Z</time></trkpt><trkpt lat="42.582883871815206" lon="11.525813022302007"><ele>363.0</ele><time>2026-04-12T14:28:41.002Z</time></trkpt><trkpt lat="42.58272919092417" lon="11.525821430352222"><ele>362.0</ele><time>2026-04-12T14:28:42.002Z</time></trkpt><trkpt lat="42.582574828499176" lon="11.525806560471544"><ele>361.0</ele><time>2026-04-12T14:28:43.002Z</time></trkpt><trkpt lat="42.582425160080426" lon="11.525799673002396"><ele>360.0</ele><time>2026-04-12T14:28:44.002Z</time></trkpt><trkpt lat="42.58228234724693" lon="11.525805996876462"><ele>359.0</ele><time>2026-04-12T14:28:45.002Z</time></trkpt><trkpt lat="42.58214723473652" lon="11.525861508192795"><ele>359.0</ele><time>2026-04-12T14:28:46.002Z</time></trkpt><trkpt lat="42.58202164803133" lon="11.5259766793318"><ele>359.0</ele><time>2026-04-12T14:28:47.002Z</time></trkpt><trkpt lat="42.581898812339354" lon="11.526135325381594"><ele>359.0</ele><time>2026-04-12T14:28:48.002Z</time></trkpt><trkpt lat="42.58178013638631" lon="11.526288985481818"><ele>354.33333333333337</ele><time>2026-04-12T14:28:49.002Z</time></trkpt><trkpt lat="42.58165104214804" lon="11.526442469319525"><ele>349.6666666666667</ele><time>2026-04-12T14:28:50.002Z</time></trkpt><trkpt lat="42.581524544021256" lon="11.526589399364664"><ele>345.0</ele><time>2026-04-12T14:28:51.002Z</time></trkpt><trkpt lat="42.581399360761445" lon="11.526748147292672"><ele>345.0</ele><time>2026-04-12T14:28:52.002Z</time></trkpt><trkpt lat="42.58125987333752" lon="11.526896840052848"><ele>345.0</ele><time>2026-04-12T14:28:53.002Z</time></trkpt><trkpt lat="42.58112125190262" lon="11.527043111006577"><ele>345.0</ele><time>2026-04-12T14:28:54.002Z</time></trkpt><trkpt lat="42.58098686726124" lon="11.527179575688733"><ele>345.3333333333333</ele><time>2026-04-12T14:28:55.002Z</time></trkpt><trkpt lat="42.580851996527926" lon="11.527317444034093"><ele>345.66666666666663</ele><time>2026-04-12T14:28:56.002Z</time></trkpt><trkpt lat="42.58071309420635" lon="11.527431448220637"><ele>346.0</ele><time>2026-04-12T14:28:57.002Z</time></trkpt><trkpt lat="42.580583200069604" lon="11.527563341297496"><ele>346.0</ele><time>2026-04-12T14:28:58.002Z</time></trkpt><trkpt lat="42.5804655262753" lon="11.527680247430235"><ele>346.0</ele><time>2026-04-12T14:28:59.002Z</time></trkpt><trkpt lat="42.58035842716596" lon="11.527779245283966"><ele>346.0</ele><time>2026-04-12T14:29:00.002Z</time></trkpt><trkpt lat="42.58025116444101" lon="11.527848277156505"><ele>346.0</ele><time>2026-04-12T14:29:01.002Z</time></trkpt><trkpt lat="42.580137411446096" lon="11.527889249918777"><ele>346.75</ele><time>2026-04-12T14:29:02.002Z</time></trkpt><trkpt lat="42.58001571047765" lon="11.52790283867097"><ele>347.5</ele><time>2026-04-12T14:29:03.002Z</time></trkpt><trkpt lat="42.57988697910125" lon="11.527865190598938"><ele>348.25</ele><time>2026-04-12T14:29:04.003Z</time></trkpt><trkpt lat="42.579753433511414" lon="11.527830015395521"><ele>349.0</ele><time>2026-04-12T14:29:05Z</time></trkpt><trkpt lat="42.57962371476304" lon="11.527784014341586"><ele>344.5</ele><time>2026-04-12T14:29:06Z</time></trkpt><trkpt lat="42.57949408194827" lon="11.527738602776555"><ele>340.0</ele><time>2026-04-12T14:29:07Z</time></trkpt><trkpt lat="42.579375112218614" lon="11.527699781150325"><ele>335.5</ele><time>2026-04-12T14:29:08Z</time></trkpt><trkpt lat="42.57924969964418" lon="11.52767043491286"><ele>331.0</ele><time>2026-04-12T14:29:09Z</time></trkpt><trkpt lat="42.57911048930257" lon="11.527677382257718"><ele>331.0</ele><time>2026-04-12T14:29:10Z</time></trkpt><trkpt lat="42.578965533683274" lon="11.527719084505708"><ele>331.0</ele><time>2026-04-12T14:29:11Z</time></trkpt><trkpt lat="42.578792535843625" lon="11.527805236156357"><ele>331.0</ele><time>2026-04-12T14:29:12Z</time></trkpt><trkpt lat="42.57862106958484" lon="11.527830505328378"><ele>329.25</ele><time>2026-04-12T14:29:13Z</time></trkpt><trkpt lat="42.57847055449305" lon="11.527811744582994"><ele>327.5</ele><time>2026-04-12T14:29:14Z</time></trkpt><trkpt lat="42.57832680052323" lon="11.527748336304558"><ele>325.75</ele><time>2026-04-12T14:29:15Z</time></trkpt><trkpt lat="42.578189805402715" lon="11.52769956980598"><ele>324.0</ele><time>2026-04-12T14:29:16Z</time></trkpt><trkpt lat="42.57806049992284" lon="11.527654882510944"><ele>324.0</ele><time>2026-04-12T14:29:17Z</time></trkpt><trkpt lat="42.57791699865633" lon="11.527666205148515"><ele>324.0</ele><time>2026-04-12T14:29:18Z</time></trkpt><trkpt lat="42.577763053059684" lon="11.527751081967205"><ele>324.0</ele><time>2026-04-12T14:29:19Z</time></trkpt><trkpt lat="42.57762596762825" lon="11.527907209707623"><ele>327.6666666666667</ele><time>2026-04-12T14:29:20Z</time></trkpt><trkpt lat="42.577489292205854" lon="11.528055217834872"><ele>331.33333333333337</ele><time>2026-04-12T14:29:21Z</time></trkpt><trkpt lat="42.5773556989083" lon="11.5281333432736"><ele>335.0</ele><time>2026-04-12T14:29:22Z</time></trkpt><trkpt lat="42.577198077776664" lon="11.528146674952641"><ele>335.0</ele><time>2026-04-12T14:29:23Z</time></trkpt><trkpt lat="42.57703032888598" lon="11.52810060210057"><ele>335.0</ele><time>2026-04-12T14:29:24Z</time></trkpt><trkpt lat="42.57684811851924" lon="11.528017922379302"><ele>335.0</ele><time>2026-04-12T14:29:25Z</time></trkpt><trkpt lat="42.576667179730876" lon="11.527945436882375"><ele>327.33333333333337</ele><time>2026-04-12T14:29:26Z</time></trkpt><trkpt lat="42.57649334449443" lon="11.527873890591442"><ele>319.6666666666667</ele><time>2026-04-12T14:29:27Z</time></trkpt><trkpt lat="42.57631651411692" lon="11.527826897319578"><ele>312.0</ele><time>2026-04-12T14:29:28Z</time></trkpt><trkpt lat="42.57612833797734" lon="11.527809806880894"><ele>310.6666666666667</ele><time>2026-04-12T14:29:29Z</time></trkpt><trkpt lat="42.5759362299317" lon="11.527834995813159"><ele>309.33333333333337</ele><time>2026-04-12T14:29:30Z</time></trkpt><trkpt lat="42.575754883395824" lon="11.527868097846918"><ele>308.0</ele><time>2026-04-12T14:29:31Z</time></trkpt><trkpt lat="42.57558018068643" lon="11.527865192567761"><ele>308.0</ele><time>2026-04-12T14:29:32Z</time></trkpt><trkpt lat="42.575417121084186" lon="11.527879863460974"><ele>308.0</ele><time>2026-04-12T14:29:33Z</time></trkpt><trkpt lat="42.57525918636293" lon="11.527892617532858"><ele>308.0</ele><time>2026-04-12T14:29:34Z</time></trkpt><trkpt lat="42.57511558375812" lon="11.527928961711652"><ele>309.75</ele><time>2026-04-12T14:29:35Z</time></trkpt><trkpt lat="42.574976914899" lon="11.527948097166142"><ele>311.5</ele><time>2026-04-12T14:29:36Z</time></trkpt><trkpt lat="42.57484606723755" lon="11.528005031767595"><ele>313.25</ele><time>2026-04-12T14:29:37Z</time></trkpt><trkpt lat="42.574713796152196" lon="11.528092611664038"><ele>315.0</ele><time>2026-04-12T14:29:38.001Z</time></trkpt><trkpt lat="42.57460256068097" lon="11.528254131124177"><ele>311.6666666666667</ele><time>2026-04-12T14:29:39.001Z</time></trkpt><trkpt lat="42.57449828124399" lon="11.528422003216201"><ele>308.33333333333337</ele><time>2026-04-12T14:29:40.001Z</time></trkpt><trkpt lat="42.5744003286403" lon="11.528592469495859"><ele>305.0</ele><time>2026-04-12T14:29:41.001Z</time></trkpt><trkpt lat="42.57430753985525" lon="11.528747296294275"><ele>305.0</ele><time>2026-04-12T14:29:42.001Z</time></trkpt><trkpt lat="42.57421612253525" lon="11.52890438122878"><ele>305.0</ele><time>2026-04-12T14:29:43.001Z</time></trkpt><trkpt lat="42.574155610607264" lon="11.529087100690623"><ele>305.0</ele><time>2026-04-12T14:29:44.001Z</time></trkpt><trkpt lat="42.57409708257312" lon="11.529267406856937"><ele>305.0</ele><time>2026-04-12T14:29:45.001Z</time></trkpt><trkpt lat="42.57402764908906" lon="11.529462581678578"><ele>306.0</ele><time>2026-04-12T14:29:46.001Z</time></trkpt><trkpt lat="42.57397364611323" lon="11.52969219918745"><ele>307.0</ele><time>2026-04-12T14:29:47.001Z</time></trkpt><trkpt lat="42.57392875654017" lon="11.529934121358524"><ele>308.0</ele><time>2026-04-12T14:29:48.001Z</time></trkpt><trkpt lat="42.573883502362285" lon="11.530189184255052"><ele>308.0</ele><time>2026-04-12T14:29:49.001Z</time></trkpt><trkpt lat="42.573837672393125" lon="11.530449833878462"><ele>308.0</ele><time>2026-04-12T14:29:50.001Z</time></trkpt><trkpt lat="42.573789568592794" lon="11.53072341494748"><ele>308.0</ele><time>2026-04-12T14:29:51.001Z</time></trkpt><trkpt lat="42.573743396983794" lon="11.53098404829093"><ele>308.0</ele><time>2026-04-12T14:29:52.001Z</time></trkpt><trkpt lat="42.57370235438975" lon="11.531206021855118"><ele>308.0</ele><time>2026-04-12T14:29:53.001Z</time></trkpt><trkpt lat="42.573660795488614" lon="11.531410397465727"><ele>308.0</ele><time>2026-04-12T14:29:54.001Z</time></trkpt><trkpt lat="42.573616935540365" lon="11.531597526794608"><ele>307.5</ele><time>2026-04-12T14:29:55.001Z</time></trkpt><trkpt lat="42.57356540520569" lon="11.531767374833324"><ele>307.0</ele><time>2026-04-12T14:29:56.001Z</time></trkpt><trkpt lat="42.57348518640039" lon="11.531917859362292"><ele>306.5</ele><time>2026-04-12T14:29:57.001Z</time></trkpt><trkpt lat="42.57336791846242" lon="11.532040005501345"><ele>306.0</ele><time>2026-04-12T14:29:58.001Z</time></trkpt><trkpt lat="42.57322110270871" lon="11.532104357288812"><ele>305.6666666666667</ele><time>2026-04-12T14:29:59.001Z</time></trkpt><trkpt lat="42.57304801887822" lon="11.532145109037645"><ele>305.33333333333337</ele><time>2026-04-12T14:30:00.001Z</time></trkpt><trkpt lat="42.57286708503033" lon="11.532201826269583"><ele>305.0</ele><time>2026-04-12T14:30:01.001Z</time></trkpt><trkpt lat="42.57268020403876" lon="11.532227393480461"><ele>305.0</ele><time>2026-04-12T14:30:02.001Z</time></trkpt><trkpt lat="42.57248484469695" lon="11.53226720902628"><ele>305.0</ele><time>2026-04-12T14:30:03.001Z</time></trkpt><trkpt lat="42.5722862241861" lon="11.532304378660498"><ele>305.0</ele><time>2026-04-12T14:30:04.001Z</time></trkpt><trkpt lat="42.57210162413384" lon="11.532339680161002"><ele>304.0</ele><time>2026-04-12T14:30:05.001Z</time></trkpt><trkpt lat="42.57193270987385" lon="11.53237040764032"><ele>303.0</ele><time>2026-04-12T14:30:06.001Z</time></trkpt><trkpt lat="42.57177009306516" lon="11.532400732522333"><ele>302.0</ele><time>2026-04-12T14:30:07.001Z</time></trkpt><trkpt lat="42.57161353992588" lon="11.532438237606199"><ele>302.0</ele><time>2026-04-12T14:30:08.001Z</time></trkpt><trkpt lat="42.5714626158213" lon="11.532495187357965"><ele>302.0</ele><time>2026-04-12T14:30:09.001Z</time></trkpt><trkpt lat="42.5713068215943" lon="11.532602508635138"><ele>302.0</ele><time>2026-04-12T14:30:10.001Z</time></trkpt><trkpt lat="42.5711476992661" lon="11.53272234670243"><ele>300.33333333333337</ele><time>2026-04-12T14:30:11.001Z</time></trkpt><trkpt lat="42.57100448844329" lon="11.532878228913832"><ele>298.6666666666667</ele><time>2026-04-12T14:30:12.001Z</time></trkpt><trkpt lat="42.57085622301913" lon="11.53300573832821"><ele>297.0</ele><time>2026-04-12T14:30:13.001Z</time></trkpt><trkpt lat="42.57072908985808" lon="11.533127620744644"><ele>297.0</ele><time>2026-04-12T14:30:14.001Z</time></trkpt><trkpt lat="42.570624982126866" lon="11.5332695057042"><ele>297.0</ele><time>2026-04-12T14:30:15.001Z</time></trkpt><trkpt lat="42.570554142025046" lon="11.533446468062655"><ele>297.0</ele><time>2026-04-12T14:30:16.001Z</time></trkpt><trkpt lat="42.570513227421436" lon="11.533640172917666"><ele>297.0</ele><time>2026-04-12T14:30:17.001Z</time></trkpt><trkpt lat="42.57051998559516" lon="11.533850117112259"><ele>296.5</ele><time>2026-04-12T14:30:18.001Z</time></trkpt><trkpt lat="42.570552840256624" lon="11.534063629278625"><ele>296.0</ele><time>2026-04-12T14:30:19.001Z</time></trkpt><trkpt lat="42.570606736956286" lon="11.534244423238102"><ele>295.5</ele><time>2026-04-12T14:30:20.001Z</time></trkpt><trkpt lat="42.570672258362386" lon="11.534399019365582"><ele>295.0</ele><time>2026-04-12T14:30:21.001Z</time></trkpt><trkpt lat="42.57074116459145" lon="11.534524524620688"><ele>294.25</ele><time>2026-04-12T14:30:22.001Z</time></trkpt><trkpt lat="42.57081906730242" lon="11.534630796656575"><ele>293.5</ele><time>2026-04-12T14:30:23.001Z</time></trkpt><trkpt lat="42.57090771932907" lon="11.534722418846293"><ele>292.75</ele><time>2026-04-12T14:30:24.002Z</time></trkpt><trkpt lat="42.57100584450448" lon="11.534800043168437"><ele>292.0</ele><time>2026-04-12T14:30:25.002Z</time></trkpt><trkpt lat="42.57110993509791" lon="11.534872948253046"><ele>293.6</ele><time>2026-04-12T14:30:26.002Z</time></trkpt><trkpt lat="42.571211979935896" lon="11.534948712585964"><ele>295.2</ele><time>2026-04-12T14:30:27.002Z</time></trkpt><trkpt lat="42.57131527885388" lon="11.535022418947666"><ele>296.8</ele><time>2026-04-12T14:30:28.002Z</time></trkpt><trkpt lat="42.57140051715492" lon="11.535094413297164"><ele>298.4</ele><time>2026-04-12T14:30:29.002Z</time></trkpt><trkpt lat="42.57146354201315" lon="11.535164836461155"><ele>300.0</ele><time>2026-04-12T14:30:30.002Z</time></trkpt><trkpt lat="42.57151081568666" lon="11.535244526731116"><ele>300.0</ele><time>2026-04-12T14:30:31.002Z</time></trkpt><trkpt lat="42.57153470892157" lon="11.535338521844476"><ele>300.0</ele><time>2026-04-12T14:30:32.002Z</time></trkpt><trkpt lat="42.57153169156623" lon="11.535442855842454"><ele>300.0</ele><time>2026-04-12T14:30:33.002Z</time></trkpt><trkpt lat="42.57149854732837" lon="11.535557758823352"><ele>300.0</ele><time>2026-04-12T14:30:34.002Z</time></trkpt><trkpt lat="42.5714439525974" lon="11.535656694102288"><ele>300.0</ele><time>2026-04-12T14:30:35.002Z</time></trkpt><trkpt lat="42.57137755783852" lon="11.535720835242971"><ele>300.0</ele><time>2026-04-12T14:30:36.002Z</time></trkpt><trkpt lat="42.57129718796834" lon="11.535752474787012"><ele>298.5</ele><time>2026-04-12T14:30:37.002Z</time></trkpt><trkpt lat="42.571192780550625" lon="11.535742565214068"><ele>297.0</ele><time>2026-04-12T14:30:38.002Z</time></trkpt><trkpt lat="42.57108531137548" lon="11.535680383849057"><ele>295.5</ele><time>2026-04-12T14:30:39.002Z</time></trkpt><trkpt lat="42.57099698091256" lon="11.53555230108252"><ele>294.0</ele><time>2026-04-12T14:30:40.002Z</time></trkpt><trkpt lat="42.57088900401424" lon="11.535462036299801"><ele>293.5</ele><time>2026-04-12T14:30:41.002Z</time></trkpt><trkpt lat="42.57078787593946" lon="11.535354909721514"><ele>293.0</ele><time>2026-04-12T14:30:42.002Z</time></trkpt><trkpt lat="42.57067880094749" lon="11.535250455495913"><ele>292.5</ele><time>2026-04-12T14:30:43.002Z</time></trkpt><trkpt lat="42.570569310740716" lon="11.535137147835608"><ele>292.0</ele><time>2026-04-12T14:30:44.002Z</time></trkpt><trkpt lat="42.570459785661654" lon="11.535029381520234"><ele>290.0</ele><time>2026-04-12T14:30:45.002Z</time></trkpt><trkpt lat="42.57035402492773" lon="11.534921353201447"><ele>288.0</ele><time>2026-04-12T14:30:46.002Z</time></trkpt><trkpt lat="42.570241453914136" lon="11.534807533454495"><ele>286.0</ele><time>2026-04-12T14:30:47.002Z</time></trkpt><trkpt lat="42.57012168959461" lon="11.534686517933883"><ele>284.0</ele><time>2026-04-12T14:30:48.002Z</time></trkpt><trkpt lat="42.57000213223367" lon="11.534572629430656"><ele>284.25</ele><time>2026-04-12T14:30:49.002Z</time></trkpt><trkpt lat="42.56990549432686" lon="11.534441107953473"><ele>284.5</ele><time>2026-04-12T14:30:50.002Z</time></trkpt><trkpt lat="42.569797293355876" lon="11.534319069359604"><ele>284.75</ele><time>2026-04-12T14:30:51.002Z</time></trkpt><trkpt lat="42.56971603511305" lon="11.53415130432714"><ele>285.0</ele><time>2026-04-12T14:30:52.002Z</time></trkpt><trkpt lat="42.56964805472984" lon="11.533968023721606"><ele>285.0</ele><time>2026-04-12T14:30:53.002Z</time></trkpt><trkpt lat="42.56958850366246" lon="11.53377248039211"><ele>285.0</ele><time>2026-04-12T14:30:54.002Z</time></trkpt><trkpt lat="42.56953010638115" lon="11.533570090842593"><ele>285.0</ele><time>2026-04-12T14:30:55.002Z</time></trkpt><trkpt lat="42.569459071330996" lon="11.533362486131509"><ele>280.6666666666667</ele><time>2026-04-12T14:30:56.002Z</time></trkpt><trkpt lat="42.569383442106535" lon="11.5331612861466"><ele>276.33333333333337</ele><time>2026-04-12T14:30:57.002Z</time></trkpt><trkpt lat="42.56931356967251" lon="11.532963770964198"><ele>272.0</ele><time>2026-04-12T14:30:58.002Z</time></trkpt><trkpt lat="42.56925271415209" lon="11.532775013040265"><ele>272.0</ele><time>2026-04-12T14:30:59.002Z</time></trkpt><trkpt lat="42.56919819084418" lon="11.532597523942048"><ele>272.0</ele><time>2026-04-12T14:31:00.002Z</time></trkpt><trkpt lat="42.569126517214684" lon="11.532431108219734"><ele>272.0</ele><time>2026-04-12T14:31:01.002Z</time></trkpt><trkpt lat="42.569036442969164" lon="11.53228818748911"><ele>272.0</ele><time>2026-04-12T14:31:02.002Z</time></trkpt><trkpt lat="42.568911949361166" lon="11.532160581851503"><ele>272.0</ele><time>2026-04-12T14:31:03.002Z</time></trkpt><trkpt lat="42.56876059639867" lon="11.532072970334024"><ele>272.0</ele><time>2026-04-12T14:31:04.002Z</time></trkpt><trkpt lat="42.56857916748124" lon="11.532031113091833"><ele>272.0</ele><time>2026-04-12T14:31:05.002Z</time></trkpt><trkpt lat="42.56838628207021" lon="11.532013899065136"><ele>271.6666666666667</ele><time>2026-04-12T14:31:06.002Z</time></trkpt><trkpt lat="42.56821152171034" lon="11.531961841724574"><ele>271.3333333333333</ele><time>2026-04-12T14:31:07.002Z</time></trkpt><trkpt lat="42.56804640796443" lon="11.531926010289792"><ele>271.0</ele><time>2026-04-12T14:31:08.002Z</time></trkpt><trkpt lat="42.567884304357634" lon="11.531890832096877"><ele>269.0</ele><time>2026-04-12T14:31:09.002Z</time></trkpt><trkpt lat="42.56771743509798" lon="11.531854619657635"><ele>267.0</ele><time>2026-04-12T14:31:10.003Z</time></trkpt><trkpt lat="42.56754668813489" lon="11.531817565757603"><ele>265.0</ele><time>2026-04-12T14:31:11Z</time></trkpt><trkpt lat="42.56736741708812" lon="11.53179681813135"><ele>265.0</ele><time>2026-04-12T14:31:12Z</time></trkpt><trkpt lat="42.567194867654955" lon="11.531750733896315"><ele>265.0</ele><time>2026-04-12T14:31:13Z</time></trkpt><trkpt lat="42.56702648693956" lon="11.531721515746051"><ele>265.0</ele><time>2026-04-12T14:31:14Z</time></trkpt><trkpt lat="42.56686174016328" lon="11.531687501644571"><ele>263.0</ele><time>2026-04-12T14:31:15Z</time></trkpt><trkpt lat="42.5667110517889" lon="11.531645754122701"><ele>261.0</ele><time>2026-04-12T14:31:16Z</time></trkpt><trkpt lat="42.56655739003788" lon="11.53161380062511"><ele>259.0</ele><time>2026-04-12T14:31:17Z</time></trkpt><trkpt lat="42.56640189297905" lon="11.531578833664776"><ele>259.0</ele><time>2026-04-12T14:31:18Z</time></trkpt><trkpt lat="42.56625310212362" lon="11.53153214868029"><ele>259.0</ele><time>2026-04-12T14:31:19Z</time></trkpt><trkpt lat="42.5661174277703" lon="11.53144245945162"><ele>259.0</ele><time>2026-04-12T14:31:20Z</time></trkpt><trkpt lat="42.566002684171224" lon="11.531331289821168"><ele>259.0</ele><time>2026-04-12T14:31:21Z</time></trkpt><trkpt lat="42.565901243756606" lon="11.5311872465538"><ele>257.3333333333333</ele><time>2026-04-12T14:31:22Z</time></trkpt><trkpt lat="42.565813149643894" lon="11.531008024896032"><ele>255.66666666666669</ele><time>2026-04-12T14:31:23Z</time></trkpt><trkpt lat="42.56573195620526" lon="11.530807275719685"><ele>254.0</ele><time>2026-04-12T14:31:24Z</time></trkpt><trkpt lat="42.56564350506393" lon="11.530590183041516"><ele>254.0</ele><time>2026-04-12T14:31:25Z</time></trkpt><trkpt lat="42.56554984032027" lon="11.53037217727809"><ele>254.0</ele><time>2026-04-12T14:31:26Z</time></trkpt><trkpt lat="42.56545262549465" lon="11.530155609902653"><ele>254.0</ele><time>2026-04-12T14:31:27Z</time></trkpt><trkpt lat="42.56535459356718" lon="11.529929364211114"><ele>251.33333333333334</ele><time>2026-04-12T14:31:28Z</time></trkpt><trkpt lat="42.565256478907486" lon="11.529698850058422"><ele>248.66666666666669</ele><time>2026-04-12T14:31:29Z</time></trkpt><trkpt lat="42.56516274428978" lon="11.529470438428513"><ele>246.0</ele><time>2026-04-12T14:31:30Z</time></trkpt><trkpt lat="42.56507634564088" lon="11.529260951451004"><ele>246.0</ele><time>2026-04-12T14:31:31Z</time></trkpt><trkpt lat="42.564989296112046" lon="11.529056619531035"><ele>246.0</ele><time>2026-04-12T14:31:32Z</time></trkpt><trkpt lat="42.56490017185522" lon="11.52885219170091"><ele>246.0</ele><time>2026-04-12T14:31:33Z</time></trkpt><trkpt lat="42.5648091031722" lon="11.528645857247113"><ele>245.66666666666669</ele><time>2026-04-12T14:31:34Z</time></trkpt><trkpt lat="42.56471502084777" lon="11.528426402144884"><ele>245.33333333333334</ele><time>2026-04-12T14:31:35Z</time></trkpt><trkpt lat="42.564615560422" lon="11.528189705520242"><ele>245.0</ele><time>2026-04-12T14:31:36Z</time></trkpt><trkpt lat="42.564510788799986" lon="11.52795621852327"><ele>243.0</ele><time>2026-04-12T14:31:37Z</time></trkpt><trkpt lat="42.56440468909615" lon="11.527715695494063"><ele>241.0</ele><time>2026-04-12T14:31:38Z</time></trkpt><trkpt lat="42.5643128578922" lon="11.527484183721151"><ele>239.0</ele><time>2026-04-12T14:31:39Z</time></trkpt><trkpt lat="42.56422553558181" lon="11.527258845507781"><ele>239.0</ele><time>2026-04-12T14:31:40Z</time></trkpt><trkpt lat="42.564137987443004" lon="11.527054889259336"><ele>239.0</ele><time>2026-04-12T14:31:41Z</time></trkpt><trkpt lat="42.564048015691384" lon="11.526854645455924"><ele>239.0</ele><time>2026-04-12T14:31:42Z</time></trkpt><trkpt lat="42.56395790091711" lon="11.52666350596215"><ele>239.0</ele><time>2026-04-12T14:31:43Z</time></trkpt><trkpt lat="42.56385177562768" lon="11.526507858265212"><ele>239.0</ele><time>2026-04-12T14:31:44Z</time></trkpt><trkpt lat="42.56371597552227" lon="11.526369325504513"><ele>239.0</ele><time>2026-04-12T14:31:45.001Z</time></trkpt><trkpt lat="42.56356104980503" lon="11.526242526132723"><ele>241.66666666666669</ele><time>2026-04-12T14:31:46.001Z</time></trkpt><trkpt lat="42.563394049769606" lon="11.526144599848807"><ele>244.33333333333331</ele><time>2026-04-12T14:31:47.001Z</time></trkpt><trkpt lat="42.563213176855605" lon="11.526088725173786"><ele>247.0</ele><time>2026-04-12T14:31:48.001Z</time></trkpt><trkpt lat="42.563039568434625" lon="11.52605270654725"><ele>247.0</ele><time>2026-04-12T14:31:49.001Z</time></trkpt><trkpt lat="42.56287557037968" lon="11.52603025152413"><ele>247.0</ele><time>2026-04-12T14:31:50.001Z</time></trkpt><trkpt lat="42.56273175130684" lon="11.525988696094759"><ele>247.0</ele><time>2026-04-12T14:31:51.001Z</time></trkpt><trkpt lat="42.56258262021742" lon="11.525950802605907"><ele>247.33333333333331</ele><time>2026-04-12T14:31:52.001Z</time></trkpt><trkpt lat="42.562426113341985" lon="11.525900998585774"><ele>247.66666666666669</ele><time>2026-04-12T14:31:53.001Z</time></trkpt><trkpt lat="42.56226660324692" lon="11.525853219683652"><ele>248.0</ele><time>2026-04-12T14:31:54.001Z</time></trkpt><trkpt lat="42.56209652045838" lon="11.525807088297213"><ele>247.66666666666669</ele><time>2026-04-12T14:31:55.001Z</time></trkpt><trkpt lat="42.56192420088331" lon="11.525756123021186"><ele>247.33333333333331</ele><time>2026-04-12T14:31:56.001Z</time></trkpt><trkpt lat="42.561763560522664" lon="11.525668006326832"><ele>247.0</ele><time>2026-04-12T14:31:57.001Z</time></trkpt><trkpt lat="42.561595327349856" lon="11.525576437873369"><ele>247.0</ele><time>2026-04-12T14:31:58.001Z</time></trkpt><trkpt lat="42.561418068405516" lon="11.525481941621646"><ele>247.0</ele><time>2026-04-12T14:31:59.001Z</time></trkpt><trkpt lat="42.56125521434665" lon="11.525353344458695"><ele>247.0</ele><time>2026-04-12T14:32:00.001Z</time></trkpt><trkpt lat="42.56109364209626" lon="11.525206306456703"><ele>246.33333333333331</ele><time>2026-04-12T14:32:01.001Z</time></trkpt><trkpt lat="42.56094015122661" lon="11.525053791870075"><ele>245.66666666666669</ele><time>2026-04-12T14:32:02.001Z</time></trkpt><trkpt lat="42.56079958472252" lon="11.52489351167795"><ele>245.0</ele><time>2026-04-12T14:32:03.001Z</time></trkpt><trkpt lat="42.56065762082427" lon="11.524734641468681"><ele>245.0</ele><time>2026-04-12T14:32:04.001Z</time></trkpt><trkpt lat="42.56052125766072" lon="11.524592820519612"><ele>245.0</ele><time>2026-04-12T14:32:05.001Z</time></trkpt><trkpt lat="42.56038237036974" lon="11.524462407785963"><ele>245.0</ele><time>2026-04-12T14:32:06.001Z</time></trkpt><trkpt lat="42.56023254657702" lon="11.524341496107663"><ele>244.33333333333334</ele><time>2026-04-12T14:32:07.001Z</time></trkpt><trkpt lat="42.560072804398" lon="11.524232789083598"><ele>243.66666666666669</ele><time>2026-04-12T14:32:08.001Z</time></trkpt><trkpt lat="42.55990339431091" lon="11.524128567659922"><ele>243.0</ele><time>2026-04-12T14:32:09.001Z</time></trkpt><trkpt lat="42.55972729549544" lon="11.52402677658996"><ele>243.0</ele><time>2026-04-12T14:32:10.001Z</time></trkpt><trkpt lat="42.5595522862897" lon="11.523922166973911"><ele>243.0</ele><time>2026-04-12T14:32:11.001Z</time></trkpt><trkpt lat="42.559380426873226" lon="11.523818975296551"><ele>243.0</ele><time>2026-04-12T14:32:12.001Z</time></trkpt><trkpt lat="42.55920428633651" lon="11.523711895485599"><ele>241.33333333333331</ele><time>2026-04-12T14:32:13.001Z</time></trkpt><trkpt lat="42.55902298458489" lon="11.523604043288886"><ele>239.66666666666666</ele><time>2026-04-12T14:32:14.001Z</time></trkpt><trkpt lat="42.55884146462973" lon="11.523492648674717"><ele>238.0</ele><time>2026-04-12T14:32:15.001Z</time></trkpt><trkpt lat="42.558660737839816" lon="11.523388025826264"><ele>236.66666666666666</ele><time>2026-04-12T14:32:16.001Z</time></trkpt><trkpt lat="42.55847797462617" lon="11.523275037352136"><ele>235.33333333333331</ele><time>2026-04-12T14:32:17.001Z</time></trkpt><trkpt lat="42.55830101324103" lon="11.523168264427644"><ele>234.0</ele><time>2026-04-12T14:32:18.001Z</time></trkpt><trkpt lat="42.558135910646065" lon="11.523070949418988"><ele>234.0</ele><time>2026-04-12T14:32:19.001Z</time></trkpt><trkpt lat="42.5579813656333" lon="11.522980026151707"><ele>234.0</ele><time>2026-04-12T14:32:20.001Z</time></trkpt><trkpt lat="42.55783062960879" lon="11.52288864487642"><ele>234.0</ele><time>2026-04-12T14:32:21.001Z</time></trkpt><trkpt lat="42.55767495700728" lon="11.522797096714685"><ele>233.66666666666669</ele><time>2026-04-12T14:32:22.001Z</time></trkpt><trkpt lat="42.55751410918992" lon="11.52269926605211"><ele>233.33333333333334</ele><time>2026-04-12T14:32:23.001Z</time></trkpt><trkpt lat="42.55734838661499" lon="11.522604704158082"><ele>233.0</ele><time>2026-04-12T14:32:24.001Z</time></trkpt><trkpt lat="42.557176791621735" lon="11.522530391588374"><ele>233.66666666666669</ele><time>2026-04-12T14:32:25.001Z</time></trkpt><trkpt lat="42.556985668277726" lon="11.522474427938937"><ele>234.33333333333331</ele><time>2026-04-12T14:32:26.001Z</time></trkpt><trkpt lat="42.55679735261667" lon="11.522446523561747"><ele>235.0</ele><time>2026-04-12T14:32:27.001Z</time></trkpt><trkpt lat="42.556600641205144" lon="11.522418073132824"><ele>235.0</ele><time>2026-04-12T14:32:28.001Z</time></trkpt><trkpt lat="42.55641352641242" lon="11.52239148261785"><ele>235.0</ele><time>2026-04-12T14:32:29.001Z</time></trkpt><trkpt lat="42.55623087061867" lon="11.522364643489604"><ele>235.0</ele><time>2026-04-12T14:32:30.001Z</time></trkpt><trkpt lat="42.556041558386426" lon="11.522337251240033"><ele>234.33333333333331</ele><time>2026-04-12T14:32:31.001Z</time></trkpt><trkpt lat="42.55585290826573" lon="11.522307194682925"><ele>233.66666666666669</ele><time>2026-04-12T14:32:32.002Z</time></trkpt><trkpt lat="42.555666421165895" lon="11.522275290367306"><ele>233.0</ele><time>2026-04-12T14:32:33.002Z</time></trkpt><trkpt lat="42.555487113866796" lon="11.522245958105664"><ele>232.33333333333334</ele><time>2026-04-12T14:32:34.002Z</time></trkpt><trkpt lat="42.55530475127901" lon="11.522215139049706"><ele>231.66666666666669</ele><time>2026-04-12T14:32:35.002Z</time></trkpt><trkpt lat="42.55511851187762" lon="11.52218867418589"><ele>231.0</ele><time>2026-04-12T14:32:36.002Z</time></trkpt><trkpt lat="42.554931144757624" lon="11.522158793410902"><ele>231.0</ele><time>2026-04-12T14:32:37.002Z</time></trkpt><trkpt lat="42.55474634265499" lon="11.522126618462698"><ele>231.0</ele><time>2026-04-12T14:32:38.002Z</time></trkpt><trkpt lat="42.554560388438645" lon="11.522098802277169"><ele>231.0</ele><time>2026-04-12T14:32:39.002Z</time></trkpt><trkpt lat="42.554377704731294" lon="11.52207129037181"><ele>230.33333333333331</ele><time>2026-04-12T14:32:40.002Z</time></trkpt><trkpt lat="42.554198066430764" lon="11.52202112440185"><ele>229.66666666666666</ele><time>2026-04-12T14:32:41.002Z</time></trkpt><trkpt lat="42.55401547792792" lon="11.522011951337515"><ele>229.0</ele><time>2026-04-12T14:32:42.002Z</time></trkpt><trkpt lat="42.55383604168089" lon="11.521982200086766"><ele>228.66666666666666</ele><time>2026-04-12T14:32:43.002Z</time></trkpt><trkpt lat="42.55365879452672" lon="11.521953597888297"><ele>228.33333333333331</ele><time>2026-04-12T14:32:44.002Z</time></trkpt><trkpt lat="42.553479258204845" lon="11.521923246593467"><ele>228.0</ele><time>2026-04-12T14:32:45.002Z</time></trkpt><trkpt lat="42.55330011093906" lon="11.521893825127199"><ele>228.0</ele><time>2026-04-12T14:32:46.002Z</time></trkpt><trkpt lat="42.553117690287245" lon="11.521863689067153"><ele>228.0</ele><time>2026-04-12T14:32:47.002Z</time></trkpt><trkpt lat="42.552930444025435" lon="11.521831997126199"><ele>228.0</ele><time>2026-04-12T14:32:48.002Z</time></trkpt><trkpt lat="42.552747182691704" lon="11.521799626308372"><ele>228.33333333333331</ele><time>2026-04-12T14:32:49.002Z</time></trkpt><trkpt lat="42.552560928749685" lon="11.521767382189632"><ele>228.66666666666666</ele><time>2026-04-12T14:32:50.002Z</time></trkpt><trkpt lat="42.55237121917583" lon="11.521736056522782"><ele>229.0</ele><time>2026-04-12T14:32:51.002Z</time></trkpt><trkpt lat="42.55218528516091" lon="11.52170660895057"><ele>229.0</ele><time>2026-04-12T14:32:52.002Z</time></trkpt><trkpt lat="42.552000996094684" lon="11.521678475384958"><ele>229.0</ele><time>2026-04-12T14:32:53.002Z</time></trkpt><trkpt lat="42.5518228077609" lon="11.521649226839422"><ele>229.0</ele><time>2026-04-12T14:32:54.002Z</time></trkpt><trkpt lat="42.55165524741474" lon="11.521616415446685"><ele>229.0</ele><time>2026-04-12T14:32:55.002Z</time></trkpt><trkpt lat="42.551508027523" lon="11.52159931940894"><ele>229.0</ele><time>2026-04-12T14:32:56.002Z</time></trkpt><trkpt lat="42.5513625213868" lon="11.521625590095516"><ele>229.0</ele><time>2026-04-12T14:32:57.002Z</time></trkpt><trkpt lat="42.55121857327394" lon="11.52170518722535"><ele>229.0</ele><time>2026-04-12T14:32:58.002Z</time></trkpt><trkpt lat="42.551078671913196" lon="11.5218197713178"><ele>229.0</ele><time>2026-04-12T14:32:59.002Z</time></trkpt><trkpt lat="42.55095789354092" lon="11.521969026218898"><ele>229.0</ele><time>2026-04-12T14:33:00.002Z</time></trkpt><trkpt lat="42.55085330057125" lon="11.522172810508753"><ele>228.33333333333331</ele><time>2026-04-12T14:33:01.002Z</time></trkpt><trkpt lat="42.55076082690569" lon="11.522405677350188"><ele>227.66666666666669</ele><time>2026-04-12T14:33:02.002Z</time></trkpt><trkpt lat="42.550658611551654" lon="11.522632891604918"><ele>227.0</ele><time>2026-04-12T14:33:03.002Z</time></trkpt><trkpt lat="42.55056721234225" lon="11.522856781119259"><ele>227.33333333333334</ele><time>2026-04-12T14:33:04.002Z</time></trkpt><trkpt lat="42.55047334556012" lon="11.523086715147038"><ele>227.66666666666669</ele><time>2026-04-12T14:33:05.002Z</time></trkpt><trkpt lat="42.55037742457694" lon="11.523318856704739"><ele>228.0</ele><time>2026-04-12T14:33:06.002Z</time></trkpt><trkpt lat="42.55028439459873" lon="11.523543718893064"><ele>226.33333333333331</ele><time>2026-04-12T14:33:07.002Z</time></trkpt><trkpt lat="42.55019549923708" lon="11.52375841706054"><ele>224.66666666666666</ele><time>2026-04-12T14:33:08.002Z</time></trkpt><trkpt lat="42.55011214254844" lon="11.523960241474732"><ele>223.0</ele><time>2026-04-12T14:33:09.002Z</time></trkpt><trkpt lat="42.55003378382226" lon="11.524153829790144"><ele>223.0</ele><time>2026-04-12T14:33:10.002Z</time></trkpt><trkpt lat="42.549960635958264" lon="11.524333617356854"><ele>223.0</ele><time>2026-04-12T14:33:11.002Z</time></trkpt><trkpt lat="42.54988501207132" lon="11.52451032359147"><ele>223.0</ele><time>2026-04-12T14:33:12.002Z</time></trkpt><trkpt lat="42.54980424025281" lon="11.52467713311297"><ele>223.0</ele><time>2026-04-12T14:33:13.002Z</time></trkpt><trkpt lat="42.54971539969004" lon="11.524815535421181"><ele>222.5</ele><time>2026-04-12T14:33:14.002Z</time></trkpt><trkpt lat="42.549606546712155" lon="11.524924097159888"><ele>222.0</ele><time>2026-04-12T14:33:15.002Z</time></trkpt><trkpt lat="42.549493367587566" lon="11.525009449904557"><ele>221.5</ele><time>2026-04-12T14:33:16.002Z</time></trkpt><trkpt lat="42.54937512557744" lon="11.525067906193776"><ele>221.0</ele><time>2026-04-12T14:33:17Z</time></trkpt><trkpt lat="42.54924768386591" lon="11.525105206910526"><ele>221.0</ele><time>2026-04-12T14:33:18Z</time></trkpt><trkpt lat="42.549099240798604" lon="11.525120854151025"><ele>221.0</ele><time>2026-04-12T14:33:19Z</time></trkpt><trkpt lat="42.548942846976026" lon="11.525138641402451"><ele>221.0</ele><time>2026-04-12T14:33:20Z</time></trkpt><trkpt lat="42.54876847308668" lon="11.525157707072111"><ele>220.33333333333334</ele><time>2026-04-12T14:33:21Z</time></trkpt><trkpt lat="42.5485792074481" lon="11.525179179582166"><ele>219.66666666666669</ele><time>2026-04-12T14:33:22Z</time></trkpt><trkpt lat="42.54838259916843" lon="11.52522056462737"><ele>219.0</ele><time>2026-04-12T14:33:23Z</time></trkpt><trkpt lat="42.54817929424693" lon="11.525245413297442"><ele>219.0</ele><time>2026-04-12T14:33:24Z</time></trkpt><trkpt lat="42.54796768800968" lon="11.525250573502618"><ele>219.0</ele><time>2026-04-12T14:33:25Z</time></trkpt><trkpt lat="42.547751461333554" lon="11.5252729463494"><ele>219.0</ele><time>2026-04-12T14:33:26Z</time></trkpt><trkpt lat="42.547539531071976" lon="11.525322956434358"><ele>220.66666666666669</ele><time>2026-04-12T14:33:27Z</time></trkpt><trkpt lat="42.54733464370734" lon="11.525347568093556"><ele>222.33333333333334</ele><time>2026-04-12T14:33:28Z</time></trkpt><trkpt lat="42.547130036528294" lon="11.525372921156082"><ele>224.0</ele><time>2026-04-12T14:33:29Z</time></trkpt><trkpt lat="42.546936055886825" lon="11.525392170604984"><ele>227.33333333333334</ele><time>2026-04-12T14:33:30Z</time></trkpt><trkpt lat="42.54675480516393" lon="11.525407977940207"><ele>230.66666666666669</ele><time>2026-04-12T14:33:31Z</time></trkpt><trkpt lat="42.546594047835" lon="11.525419229670476"><ele>234.0</ele><time>2026-04-12T14:33:32Z</time></trkpt><trkpt lat="42.54643746210757" lon="11.525435328078954"><ele>234.0</ele><time>2026-04-12T14:33:33Z</time></trkpt><trkpt lat="42.54628106088221" lon="11.52545061567402"><ele>234.0</ele><time>2026-04-12T14:33:34Z</time></trkpt><trkpt lat="42.54611703926931" lon="11.525468797090506"><ele>234.0</ele><time>2026-04-12T14:33:35Z</time></trkpt><trkpt lat="42.545956614672576" lon="11.525521859807215"><ele>235.66666666666669</ele><time>2026-04-12T14:33:36Z</time></trkpt><trkpt lat="42.54579272408517" lon="11.52561350530668"><ele>237.33333333333334</ele><time>2026-04-12T14:33:37Z</time></trkpt><trkpt lat="42.54563110943588" lon="11.525729700601007"><ele>239.0</ele><time>2026-04-12T14:33:38Z</time></trkpt><trkpt lat="42.54546352738323" lon="11.525871273500892"><ele>239.0</ele><time>2026-04-12T14:33:39Z</time></trkpt><trkpt lat="42.54528097046823" lon="11.525986796411255"><ele>239.0</ele><time>2026-04-12T14:33:40Z</time></trkpt><trkpt lat="42.54510814859011" lon="11.526119752996292"><ele>239.0</ele><time>2026-04-12T14:33:41Z</time></trkpt><trkpt lat="42.54494766791508" lon="11.526268121059365"><ele>239.33333333333334</ele><time>2026-04-12T14:33:42Z</time></trkpt><trkpt lat="42.54477539695023" lon="11.526370073982521"><ele>239.66666666666669</ele><time>2026-04-12T14:33:43Z</time></trkpt><trkpt lat="42.544613662368874" lon="11.526476023855807"><ele>240.0</ele><time>2026-04-12T14:33:44Z</time></trkpt><trkpt lat="42.5444396486059" lon="11.52655707390056"><ele>241.66666666666669</ele><time>2026-04-12T14:33:45Z</time></trkpt><trkpt lat="42.54426726530721" lon="11.526612932065937"><ele>243.33333333333334</ele><time>2026-04-12T14:33:46Z</time></trkpt><trkpt lat="42.54409573296018" lon="11.526671809057774"><ele>245.0</ele><time>2026-04-12T14:33:47Z</time></trkpt><trkpt lat="42.54391551968444" lon="11.52669340557237"><ele>245.0</ele><time>2026-04-12T14:33:48Z</time></trkpt><trkpt lat="42.54373654113148" lon="11.52672559753643"><ele>245.0</ele><time>2026-04-12T14:33:49Z</time></trkpt><trkpt lat="42.54355714305556" lon="11.52676483445358"><ele>245.0</ele><time>2026-04-12T14:33:50Z</time></trkpt><trkpt lat="42.54337319260323" lon="11.526803422703582"><ele>246.0</ele><time>2026-04-12T14:33:51Z</time></trkpt><trkpt lat="42.54318911568181" lon="11.526844909544032"><ele>247.0</ele><time>2026-04-12T14:33:52Z</time></trkpt><trkpt lat="42.54299451034872" lon="11.526876488420267"><ele>248.0</ele><time>2026-04-12T14:33:53Z</time></trkpt><trkpt lat="42.54281165774633" lon="11.526916025289408"><ele>249.0</ele><time>2026-04-12T14:33:54Z</time></trkpt><trkpt lat="42.54262523802698" lon="11.526953795509066"><ele>250.0</ele><time>2026-04-12T14:33:55Z</time></trkpt><trkpt lat="42.54243799887859" lon="11.526989607929226"><ele>251.0</ele><time>2026-04-12T14:33:56Z</time></trkpt><trkpt lat="42.542250234235404" lon="11.527045862385364"><ele>250.0</ele><time>2026-04-12T14:33:57Z</time></trkpt><trkpt lat="42.54205440115338" lon="11.52710810699992"><ele>249.0</ele><time>2026-04-12T14:33:58Z</time></trkpt><trkpt lat="42.54187273843886" lon="11.527174302685369"><ele>248.0</ele><time>2026-04-12T14:33:59Z</time></trkpt><trkpt lat="42.54169705864815" lon="11.527247187020873"><ele>248.0</ele><time>2026-04-12T14:34:00Z</time></trkpt><trkpt lat="42.54152121604659" lon="11.5273215671124"><ele>248.0</ele><time>2026-04-12T14:34:01Z</time></trkpt><trkpt lat="42.5413621637553" lon="11.527389323178802"><ele>248.0</ele><time>2026-04-12T14:34:02Z</time></trkpt><trkpt lat="42.54120966552573" lon="11.527454287223737"><ele>247.0</ele><time>2026-04-12T14:34:03.001Z</time></trkpt><trkpt lat="42.54105203559424" lon="11.527521437367259"><ele>246.0</ele><time>2026-04-12T14:34:04.001Z</time></trkpt><trkpt lat="42.54089697481144" lon="11.527588829419695"><ele>245.0</ele><time>2026-04-12T14:34:05.001Z</time></trkpt><trkpt lat="42.54075674188448" lon="11.527669288421636"><ele>245.0</ele><time>2026-04-12T14:34:06.001Z</time></trkpt><trkpt lat="42.54062339236481" lon="11.527699890479116"><ele>245.0</ele><time>2026-04-12T14:34:07.001Z</time></trkpt><trkpt lat="42.54048901717109" lon="11.52773083718101"><ele>245.0</ele><time>2026-04-12T14:34:08.001Z</time></trkpt><trkpt lat="42.54035114026045" lon="11.52774874318565"><ele>245.0</ele><time>2026-04-12T14:34:09.001Z</time></trkpt><trkpt lat="42.54020307713131" lon="11.527696101289735"><ele>244.0</ele><time>2026-04-12T14:34:10.001Z</time></trkpt><trkpt lat="42.540059157764176" lon="11.527605009316781"><ele>243.0</ele><time>2026-04-12T14:34:11.001Z</time></trkpt><trkpt lat="42.539923045029184" lon="11.527468891649209"><ele>242.0</ele><time>2026-04-12T14:34:12.001Z</time></trkpt><trkpt lat="42.539797149275934" lon="11.527298176810554"><ele>242.0</ele><time>2026-04-12T14:34:13.001Z</time></trkpt><trkpt lat="42.53967186011434" lon="11.527122849227771"><ele>242.0</ele><time>2026-04-12T14:34:14.001Z</time></trkpt><trkpt lat="42.5395312588453" lon="11.526958068193233"><ele>242.0</ele><time>2026-04-12T14:34:15.001Z</time></trkpt><trkpt lat="42.53938926482743" lon="11.52679435112945"><ele>242.0</ele><time>2026-04-12T14:34:16.001Z</time></trkpt><trkpt lat="42.53925014352852" lon="11.526618181158774"><ele>242.0</ele><time>2026-04-12T14:34:17.001Z</time></trkpt><trkpt lat="42.53911602128649" lon="11.52644388678725"><ele>242.0</ele><time>2026-04-12T14:34:18.001Z</time></trkpt><trkpt lat="42.53897931003674" lon="11.526278960298319"><ele>241.0</ele><time>2026-04-12T14:34:19.001Z</time></trkpt><trkpt lat="42.53883609974589" lon="11.526104990301388"><ele>240.0</ele><time>2026-04-12T14:34:20.001Z</time></trkpt><trkpt lat="42.53869301347684" lon="11.525926499210323"><ele>239.0</ele><time>2026-04-12T14:34:21.001Z</time></trkpt><trkpt lat="42.53854431474643" lon="11.525732254648641"><ele>239.0</ele><time>2026-04-12T14:34:22.001Z</time></trkpt><trkpt lat="42.53838895460112" lon="11.525542275771254"><ele>239.0</ele><time>2026-04-12T14:34:23.001Z</time></trkpt><trkpt lat="42.53822528138957" lon="11.525345224273478"><ele>239.0</ele><time>2026-04-12T14:34:24.001Z</time></trkpt><trkpt lat="42.53807329762694" lon="11.525163240757548"><ele>238.33333333333334</ele><time>2026-04-12T14:34:25.001Z</time></trkpt><trkpt lat="42.53793550936533" lon="11.524988157284985"><ele>237.66666666666669</ele><time>2026-04-12T14:34:26.001Z</time></trkpt><trkpt lat="42.537805024069854" lon="11.524818892680155"><ele>237.0</ele><time>2026-04-12T14:34:27.001Z</time></trkpt><trkpt lat="42.537670242427865" lon="11.524648064656422"><ele>238.0</ele><time>2026-04-12T14:34:28.001Z</time></trkpt><trkpt lat="42.53752893690021" lon="11.524476241939455"><ele>239.0</ele><time>2026-04-12T14:34:29.001Z</time></trkpt><trkpt lat="42.53738547546119" lon="11.524299140716039"><ele>240.0</ele><time>2026-04-12T14:34:30.001Z</time></trkpt><trkpt lat="42.53724093710058" lon="11.524116259023764"><ele>240.0</ele><time>2026-04-12T14:34:31.001Z</time></trkpt><trkpt lat="42.5370955448628" lon="11.52393271428569"><ele>240.0</ele><time>2026-04-12T14:34:32.001Z</time></trkpt><trkpt lat="42.53694875419912" lon="11.523749687683297"><ele>240.0</ele><time>2026-04-12T14:34:33.001Z</time></trkpt><trkpt lat="42.53680379959517" lon="11.523572365489523"><ele>242.0</ele><time>2026-04-12T14:34:34.001Z</time></trkpt><trkpt lat="42.536654976225314" lon="11.523401629641665"><ele>244.0</ele><time>2026-04-12T14:34:35.001Z</time></trkpt><trkpt lat="42.53647904233888" lon="11.523214247701468"><ele>246.0</ele><time>2026-04-12T14:34:36.001Z</time></trkpt><trkpt lat="42.53627954853641" lon="11.523074937934128"><ele>247.0</ele><time>2026-04-12T14:34:37.001Z</time></trkpt><trkpt lat="42.536098782122" lon="11.522986813283964"><ele>248.0</ele><time>2026-04-12T14:34:38.001Z</time></trkpt><trkpt lat="42.53591540304471" lon="11.522944533959206"><ele>249.0</ele><time>2026-04-12T14:34:39.001Z</time></trkpt><trkpt lat="42.53571876501951" lon="11.522886607003676"><ele>249.0</ele><time>2026-04-12T14:34:40.001Z</time></trkpt><trkpt lat="42.535514570755126" lon="11.52284773215824"><ele>249.0</ele><time>2026-04-12T14:34:41.001Z</time></trkpt><trkpt lat="42.535333278537244" lon="11.522782239556454"><ele>249.0</ele><time>2026-04-12T14:34:42.001Z</time></trkpt><trkpt lat="42.5351568580291" lon="11.52273928973042"><ele>250.0</ele><time>2026-04-12T14:34:43.001Z</time></trkpt><trkpt lat="42.534979477508045" lon="11.522695867577454"><ele>251.0</ele><time>2026-04-12T14:34:44.001Z</time></trkpt><trkpt lat="42.534802652345824" lon="11.522651999990371"><ele>252.0</ele><time>2026-04-12T14:34:45.001Z</time></trkpt><trkpt lat="42.53462068899108" lon="11.522606458128987"><ele>253.33333333333331</ele><time>2026-04-12T14:34:46.001Z</time></trkpt><trkpt lat="42.53444160686668" lon="11.522559786773348"><ele>254.66666666666666</ele><time>2026-04-12T14:34:47.002Z</time></trkpt><trkpt lat="42.5342521454655" lon="11.52250420392753"><ele>256.0</ele><time>2026-04-12T14:34:48.002Z</time></trkpt><trkpt lat="42.53407262917865" lon="11.522456404244455"><ele>256.0</ele><time>2026-04-12T14:34:49.002Z</time></trkpt><trkpt lat="42.533890385979404" lon="11.522345962573315"><ele>256.0</ele><time>2026-04-12T14:34:50.002Z</time></trkpt><trkpt lat="42.533698558732624" lon="11.522250615398985"><ele>256.0</ele><time>2026-04-12T14:34:51.002Z</time></trkpt><trkpt lat="42.5334982387769" lon="11.522149968264129"><ele>258.66666666666663</ele><time>2026-04-12T14:34:52.002Z</time></trkpt><trkpt lat="42.53329855857692" lon="11.522048735983164"><ele>261.3333333333333</ele><time>2026-04-12T14:34:53.002Z</time></trkpt><trkpt lat="42.53309888737175" lon="11.52194648274511"><ele>264.0</ele><time>2026-04-12T14:34:54.002Z</time></trkpt><trkpt lat="42.53289416284761" lon="11.521841641645006"><ele>265.5</ele><time>2026-04-12T14:34:55.002Z</time></trkpt><trkpt lat="42.53268530140606" lon="11.52173504987124"><ele>267.0</ele><time>2026-04-12T14:34:56.002Z</time></trkpt><trkpt lat="42.5324602835242" lon="11.521622250832753"><ele>267.0</ele><time>2026-04-12T14:34:57.002Z</time></trkpt><trkpt lat="42.53223548089117" lon="11.5215095597722"><ele>267.0</ele><time>2026-04-12T14:34:58.002Z</time></trkpt><trkpt lat="42.53203255296224" lon="11.521407834261847"><ele>268.6666666666667</ele><time>2026-04-12T14:34:59.002Z</time></trkpt><trkpt lat="42.5318411121348" lon="11.521311867114335"><ele>270.33333333333337</ele><time>2026-04-12T14:35:00.002Z</time></trkpt><trkpt lat="42.531640460415176" lon="11.521211282657363"><ele>272.0</ele><time>2026-04-12T14:35:01.002Z</time></trkpt><trkpt lat="42.531446258451425" lon="11.52111383957862"><ele>272.0</ele><time>2026-04-12T14:35:02.002Z</time></trkpt><trkpt lat="42.53126083013536" lon="11.521020345143372"><ele>272.0</ele><time>2026-04-12T14:35:03.002Z</time></trkpt><trkpt lat="42.531072970518096" lon="11.520925624823047"><ele>272.0</ele><time>2026-04-12T14:35:04.002Z</time></trkpt><trkpt lat="42.53088451413828" lon="11.520830603644248"><ele>271.6666666666667</ele><time>2026-04-12T14:35:05.002Z</time></trkpt><trkpt lat="42.53068665325147" lon="11.520730840605223"><ele>271.3333333333333</ele><time>2026-04-12T14:35:06.002Z</time></trkpt><trkpt lat="42.53048881171713" lon="11.520655005230584"><ele>271.0</ele><time>2026-04-12T14:35:07.002Z</time></trkpt><trkpt lat="42.530283851527635" lon="11.520548112123215"><ele>271.66666666666663</ele><time>2026-04-12T14:35:08.002Z</time></trkpt><trkpt lat="42.53008755687731" lon="11.52045153154696"><ele>272.3333333333333</ele><time>2026-04-12T14:35:09.002Z</time></trkpt><trkpt lat="42.52991200599053" lon="11.520338264354832"><ele>273.0</ele><time>2026-04-12T14:35:10.002Z</time></trkpt><trkpt lat="42.52974765129743" lon="11.520236227407034"><ele>273.0</ele><time>2026-04-12T14:35:11.002Z</time></trkpt><trkpt lat="42.52959739466884" lon="11.52011417320171"><ele>273.0</ele><time>2026-04-12T14:35:12.002Z</time></trkpt><trkpt lat="42.52945646702891" lon="11.51997920328327"><ele>273.0</ele><time>2026-04-12T14:35:13.002Z</time></trkpt><trkpt lat="42.52932544459186" lon="11.51981880876732"><ele>271.6666666666667</ele><time>2026-04-12T14:35:14.002Z</time></trkpt><trkpt lat="42.52919105691174" lon="11.519625937478214"><ele>270.33333333333337</ele><time>2026-04-12T14:35:15.002Z</time></trkpt><trkpt lat="42.52905115226858" lon="11.519409843326539"><ele>269.0</ele><time>2026-04-12T14:35:16.002Z</time></trkpt><trkpt lat="42.52890141909959" lon="11.519203743174893"><ele>267.6666666666667</ele><time>2026-04-12T14:35:17.002Z</time></trkpt><trkpt lat="42.52875929378504" lon="11.518976649042537"><ele>266.3333333333333</ele><time>2026-04-12T14:35:18.002Z</time></trkpt><trkpt lat="42.52861081849337" lon="11.518757346248787"><ele>265.0</ele><time>2026-04-12T14:35:19.002Z</time></trkpt><trkpt lat="42.52847426365387" lon="11.518527500550746"><ele>259.66666666666663</ele><time>2026-04-12T14:35:20.002Z</time></trkpt><trkpt lat="42.52832958117882" lon="11.518318586845037"><ele>254.33333333333331</ele><time>2026-04-12T14:35:21.002Z</time></trkpt><trkpt lat="42.52817237500266" lon="11.51813087511145"><ele>249.0</ele><time>2026-04-12T14:35:22.002Z</time></trkpt><trkpt lat="42.52803850353976" lon="11.517921585460266"><ele>250.33333333333331</ele><time>2026-04-12T14:35:23Z</time></trkpt><trkpt lat="42.52789547416955" lon="11.517728580963427"><ele>251.66666666666666</ele><time>2026-04-12T14:35:24Z</time></trkpt><trkpt lat="42.52775524741589" lon="11.517541408663385"><ele>253.0</ele><time>2026-04-12T14:35:25Z</time></trkpt><trkpt lat="42.52760760855663" lon="11.51737504783484"><ele>250.33333333333331</ele><time>2026-04-12T14:35:26Z</time></trkpt><trkpt lat="42.52746708726586" lon="11.517189086338512"><ele>247.66666666666669</ele><time>2026-04-12T14:35:27Z</time></trkpt><trkpt lat="42.527343758961564" lon="11.516991683321834"><ele>245.0</ele><time>2026-04-12T14:35:28Z</time></trkpt><trkpt lat="42.527213508509185" lon="11.516817503770683"><ele>245.0</ele><time>2026-04-12T14:35:29Z</time></trkpt><trkpt lat="42.527091456758455" lon="11.51665590157215"><ele>245.0</ele><time>2026-04-12T14:35:30Z</time></trkpt><trkpt lat="42.52697124801886" lon="11.516493722198053"><ele>245.0</ele><time>2026-04-12T14:35:31Z</time></trkpt><trkpt lat="42.526851163213905" lon="11.516345318346094"><ele>241.0</ele><time>2026-04-12T14:35:32Z</time></trkpt><trkpt lat="42.526740661400034" lon="11.516179908726068"><ele>237.0</ele><time>2026-04-12T14:35:33Z</time></trkpt><trkpt lat="42.526649060336176" lon="11.515981060215209"><ele>233.0</ele><time>2026-04-12T14:35:34Z</time></trkpt><trkpt lat="42.52657711084235" lon="11.515772433141438"><ele>233.0</ele><time>2026-04-12T14:35:35Z</time></trkpt><trkpt lat="42.5265326176796" lon="11.515543799142876"><ele>233.0</ele><time>2026-04-12T14:35:36Z</time></trkpt><trkpt lat="42.52651417806924" lon="11.515305305729068"><ele>233.0</ele><time>2026-04-12T14:35:37Z</time></trkpt><trkpt lat="42.5264947262532" lon="11.515049977834618"><ele>232.33333333333334</ele><time>2026-04-12T14:35:38Z</time></trkpt><trkpt lat="42.52646130692212" lon="11.514818891060171"><ele>231.66666666666669</ele><time>2026-04-12T14:35:39Z</time></trkpt><trkpt lat="42.526430287621245" lon="11.51459104910961"><ele>231.0</ele><time>2026-04-12T14:35:40Z</time></trkpt><trkpt lat="42.52635839022606" lon="11.514356177269812"><ele>230.33333333333331</ele><time>2026-04-12T14:35:41Z</time></trkpt><trkpt lat="42.52625808490377" lon="11.514140476695893"><ele>229.66666666666666</ele><time>2026-04-12T14:35:42Z</time></trkpt><trkpt lat="42.52618382387884" lon="11.51395935074903"><ele>229.0</ele><time>2026-04-12T14:35:43Z</time></trkpt><trkpt lat="42.52608813605742" lon="11.513799150162136"><ele>232.33333333333331</ele><time>2026-04-12T14:35:44Z</time></trkpt><trkpt lat="42.52596192312004" lon="11.513659600198935"><ele>235.66666666666669</ele><time>2026-04-12T14:35:45Z</time></trkpt><trkpt lat="42.52580759190695" lon="11.513565240415565"><ele>239.0</ele><time>2026-04-12T14:35:46Z</time></trkpt><trkpt lat="42.525633996690296" lon="11.513499596775914"><ele>239.0</ele><time>2026-04-12T14:35:47Z</time></trkpt><trkpt lat="42.525461617718534" lon="11.513454554863706"><ele>239.0</ele><time>2026-04-12T14:35:48Z</time></trkpt><trkpt lat="42.525281877763284" lon="11.513418800520407"><ele>239.0</ele><time>2026-04-12T14:35:49Z</time></trkpt><trkpt lat="42.52510066137689" lon="11.51338380888503"><ele>240.0</ele><time>2026-04-12T14:35:50Z</time></trkpt><trkpt lat="42.5249106894631" lon="11.513343865723094"><ele>241.0</ele><time>2026-04-12T14:35:51Z</time></trkpt><trkpt lat="42.524711705681774" lon="11.5133125673675"><ele>242.0</ele><time>2026-04-12T14:35:52Z</time></trkpt><trkpt lat="42.524515077349484" lon="11.513275621843771"><ele>242.0</ele><time>2026-04-12T14:35:53Z</time></trkpt><trkpt lat="42.52433047312285" lon="11.513238554101628"><ele>242.0</ele><time>2026-04-12T14:35:54Z</time></trkpt><trkpt lat="42.52415369508574" lon="11.513199701181987"><ele>242.0</ele><time>2026-04-12T14:35:55Z</time></trkpt><trkpt lat="42.523973191168814" lon="11.513159549584435"><ele>242.0</ele><time>2026-04-12T14:35:56Z</time></trkpt><trkpt lat="42.52378757580039" lon="11.513108587799056"><ele>242.0</ele><time>2026-04-12T14:35:57Z</time></trkpt><trkpt lat="42.523591034277125" lon="11.513031036287739"><ele>242.0</ele><time>2026-04-12T14:35:58Z</time></trkpt><trkpt lat="42.523392167043085" lon="11.512909531575083"><ele>238.33333333333334</ele><time>2026-04-12T14:35:59Z</time></trkpt><trkpt lat="42.52319402548413" lon="11.512791620961497"><ele>234.66666666666669</ele><time>2026-04-12T14:36:00Z</time></trkpt><trkpt lat="42.5230027222238" lon="11.512691815534758"><ele>231.0</ele><time>2026-04-12T14:36:01Z</time></trkpt><trkpt lat="42.522816774516905" lon="11.512597292774764"><ele>228.33333333333331</ele><time>2026-04-12T14:36:02Z</time></trkpt><trkpt lat="42.52264041018211" lon="11.51250023831542"><ele>225.66666666666666</ele><time>2026-04-12T14:36:03Z</time></trkpt><trkpt lat="42.522468551651535" lon="11.512401493686747"><ele>223.0</ele><time>2026-04-12T14:36:04Z</time></trkpt><trkpt lat="42.52230144695675" lon="11.512304981996609"><ele>223.0</ele><time>2026-04-12T14:36:05Z</time></trkpt><trkpt lat="42.522134766711794" lon="11.512216112508733"><ele>223.0</ele><time>2026-04-12T14:36:06.001Z</time></trkpt><trkpt lat="42.52196146508448" lon="11.512132498382632"><ele>223.0</ele><time>2026-04-12T14:36:07.001Z</time></trkpt><trkpt lat="42.52179880738183" lon="11.512045957072173"><ele>219.33333333333331</ele><time>2026-04-12T14:36:08.001Z</time></trkpt><trkpt lat="42.521626726754846" lon="11.511953100763431"><ele>215.66666666666669</ele><time>2026-04-12T14:36:09.001Z</time></trkpt><trkpt lat="42.52145340569474" lon="11.51186357523129"><ele>212.0</ele><time>2026-04-12T14:36:10.001Z</time></trkpt><trkpt lat="42.52128132635247" lon="11.511773598301977"><ele>212.0</ele><time>2026-04-12T14:36:11.001Z</time></trkpt><trkpt lat="42.521104805147274" lon="11.511676720929628"><ele>212.0</ele><time>2026-04-12T14:36:12.001Z</time></trkpt><trkpt lat="42.52092344679691" lon="11.511579865380483"><ele>212.0</ele><time>2026-04-12T14:36:13.001Z</time></trkpt><trkpt lat="42.52072963086774" lon="11.511483486412365"><ele>212.0</ele><time>2026-04-12T14:36:14.001Z</time></trkpt><trkpt lat="42.52054267044833" lon="11.511393037652448"><ele>212.0</ele><time>2026-04-12T14:36:15.001Z</time></trkpt><trkpt lat="42.52035471660153" lon="11.511291981629581"><ele>212.0</ele><time>2026-04-12T14:36:16.001Z</time></trkpt><trkpt lat="42.520180874342856" lon="11.511190192993379"><ele>210.33333333333334</ele><time>2026-04-12T14:36:17.001Z</time></trkpt><trkpt lat="42.51999278363414" lon="11.511089009922275"><ele>208.66666666666669</ele><time>2026-04-12T14:36:18.001Z</time></trkpt><trkpt lat="42.51980726584011" lon="11.510995855485374"><ele>207.0</ele><time>2026-04-12T14:36:19.001Z</time></trkpt><trkpt lat="42.519621471536965" lon="11.510900891411174"><ele>203.33333333333331</ele><time>2026-04-12T14:36:20.001Z</time></trkpt><trkpt lat="42.519429867938676" lon="11.510803431229784"><ele>199.66666666666666</ele><time>2026-04-12T14:36:21.001Z</time></trkpt><trkpt lat="42.51923633296431" lon="11.510704025337176"><ele>196.0</ele><time>2026-04-12T14:36:22.001Z</time></trkpt><trkpt lat="42.519048620031484" lon="11.510603484238498"><ele>196.0</ele><time>2026-04-12T14:36:23.001Z</time></trkpt><trkpt lat="42.51886168169889" lon="11.51050187464784"><ele>196.0</ele><time>2026-04-12T14:36:24.001Z</time></trkpt><trkpt lat="42.51866403695643" lon="11.51039956812973"><ele>196.0</ele><time>2026-04-12T14:36:25.001Z</time></trkpt><trkpt lat="42.518473611124655" lon="11.510298434876974"><ele>194.0</ele><time>2026-04-12T14:36:26.001Z</time></trkpt><trkpt lat="42.518289187208" lon="11.51020349986807"><ele>192.0</ele><time>2026-04-12T14:36:27.001Z</time></trkpt><trkpt lat="42.51810829053871" lon="11.510110474139717"><ele>190.0</ele><time>2026-04-12T14:36:28.001Z</time></trkpt><trkpt lat="42.51793187637888" lon="11.510017882765975"><ele>187.66666666666669</ele><time>2026-04-12T14:36:29.001Z</time></trkpt><trkpt lat="42.51775853802354" lon="11.509923879313499"><ele>185.33333333333334</ele><time>2026-04-12T14:36:30.001Z</time></trkpt><trkpt lat="42.51757381748584" lon="11.509824991529403"><ele>183.0</ele><time>2026-04-12T14:36:31.001Z</time></trkpt><trkpt lat="42.517388163418154" lon="11.509726430338832"><ele>183.0</ele><time>2026-04-12T14:36:32.001Z</time></trkpt><trkpt lat="42.517188601771544" lon="11.509620236493468"><ele>183.0</ele><time>2026-04-12T14:36:33.001Z</time></trkpt><trkpt lat="42.517000273229655" lon="11.509522061022885"><ele>183.0</ele><time>2026-04-12T14:36:34.001Z</time></trkpt><trkpt lat="42.51681496755671" lon="11.509430883578624"><ele>178.0</ele><time>2026-04-12T14:36:35.001Z</time></trkpt><trkpt lat="42.516634536695825" lon="11.50935031782254"><ele>173.0</ele><time>2026-04-12T14:36:36.001Z</time></trkpt><trkpt lat="42.516456685934095" lon="11.509277840183756"><ele>168.0</ele><time>2026-04-12T14:36:37.001Z</time></trkpt><trkpt lat="42.51627839300985" lon="11.509209313843716"><ele>166.33333333333334</ele><time>2026-04-12T14:36:38.001Z</time></trkpt><trkpt lat="42.516112660709226" lon="11.509143959053123"><ele>164.66666666666669</ele><time>2026-04-12T14:36:39.001Z</time></trkpt><trkpt lat="42.51594274267219" lon="11.509091266555782"><ele>163.0</ele><time>2026-04-12T14:36:40.001Z</time></trkpt><trkpt lat="42.51577330792165" lon="11.509087331244771"><ele>163.0</ele><time>2026-04-12T14:36:41.001Z</time></trkpt><trkpt lat="42.51561416832392" lon="11.509138998969494"><ele>163.0</ele><time>2026-04-12T14:36:42.001Z</time></trkpt><trkpt lat="42.51545900698947" lon="11.509232432862238"><ele>163.0</ele><time>2026-04-12T14:36:43.001Z</time></trkpt><trkpt lat="42.51531803365979" lon="11.509337688554579"><ele>163.33333333333334</ele><time>2026-04-12T14:36:44.001Z</time></trkpt><trkpt lat="42.51517895461928" lon="11.50945369710807"><ele>163.66666666666666</ele><time>2026-04-12T14:36:45.001Z</time></trkpt><trkpt lat="42.515027278102274" lon="11.509579509754625"><ele>164.0</ele><time>2026-04-12T14:36:46.001Z</time></trkpt><trkpt lat="42.51487923026506" lon="11.509709796876036"><ele>164.66666666666666</ele><time>2026-04-12T14:36:47.002Z</time></trkpt><trkpt lat="42.51472356033193" lon="11.509843586466332"><ele>165.33333333333334</ele><time>2026-04-12T14:36:48.002Z</time></trkpt><trkpt lat="42.514564879972774" lon="11.509973973909744"><ele>166.0</ele><time>2026-04-12T14:36:49.002Z</time></trkpt><trkpt lat="42.51440347661332" lon="11.510112159161277"><ele>164.0</ele><time>2026-04-12T14:36:50.002Z</time></trkpt><trkpt lat="42.51423658531712" lon="11.510256415911176"><ele>162.0</ele><time>2026-04-12T14:36:51.002Z</time></trkpt><trkpt lat="42.514063174332584" lon="11.510401246499686"><ele>160.0</ele><time>2026-04-12T14:36:52.002Z</time></trkpt><trkpt lat="42.51388700077458" lon="11.510543971217418"><ele>158.33333333333334</ele><time>2026-04-12T14:36:53.002Z</time></trkpt><trkpt lat="42.513713965522136" lon="11.510689402548374"><ele>156.66666666666666</ele><time>2026-04-12T14:36:54.002Z</time></trkpt><trkpt lat="42.51354573518514" lon="11.510830126349475"><ele>155.0</ele><time>2026-04-12T14:36:55.002Z</time></trkpt><trkpt lat="42.51337450449992" lon="11.510968891992135"><ele>155.0</ele><time>2026-04-12T14:36:56.002Z</time></trkpt><trkpt lat="42.5132065395458" lon="11.511110040414883"><ele>155.0</ele><time>2026-04-12T14:36:57.002Z</time></trkpt><trkpt lat="42.51302822339786" lon="11.51125766458867"><ele>155.0</ele><time>2026-04-12T14:36:58.002Z</time></trkpt><trkpt lat="42.512847377695095" lon="11.511397284701749"><ele>156.0</ele><time>2026-04-12T14:36:59.002Z</time></trkpt><trkpt lat="42.51265258701673" lon="11.511524954542349"><ele>157.0</ele><time>2026-04-12T14:37:00.002Z</time></trkpt><trkpt lat="42.51245002945924" lon="11.511619698835077"><ele>158.0</ele><time>2026-04-12T14:37:01.002Z</time></trkpt><trkpt lat="42.512232692435205" lon="11.511696678528521"><ele>160.66666666666666</ele><time>2026-04-12T14:37:02.002Z</time></trkpt><trkpt lat="42.512016932026505" lon="11.5117510428911"><ele>163.33333333333334</ele><time>2026-04-12T14:37:03.002Z</time></trkpt><trkpt lat="42.51180931601111" lon="11.511794336323572"><ele>166.0</ele><time>2026-04-12T14:37:04.002Z</time></trkpt><trkpt lat="42.51161611718143" lon="11.511830025436346"><ele>166.0</ele><time>2026-04-12T14:37:05.002Z</time></trkpt><trkpt lat="42.51142485074852" lon="11.51187723641501"><ele>166.0</ele><time>2026-04-12T14:37:06.002Z</time></trkpt><trkpt lat="42.51124242104336" lon="11.511933359340437"><ele>166.0</ele><time>2026-04-12T14:37:07.002Z</time></trkpt><trkpt lat="42.51105850399807" lon="11.511984313487709"><ele>169.33333333333334</ele><time>2026-04-12T14:37:08.002Z</time></trkpt><trkpt lat="42.510868849851086" lon="11.512038332287538"><ele>172.66666666666666</ele><time>2026-04-12T14:37:09.002Z</time></trkpt><trkpt lat="42.510693606602224" lon="11.512103630144152"><ele>176.0</ele><time>2026-04-12T14:37:10.002Z</time></trkpt><trkpt lat="42.51053526477386" lon="11.512187394563536"><ele>177.66666666666666</ele><time>2026-04-12T14:37:11.002Z</time></trkpt><trkpt lat="42.51040633051005" lon="11.512286891255872"><ele>179.33333333333334</ele><time>2026-04-12T14:37:12.002Z</time></trkpt><trkpt lat="42.51028999240162" lon="11.512428263030994"><ele>181.0</ele><time>2026-04-12T14:37:13.002Z</time></trkpt><trkpt lat="42.510190272477566" lon="11.512615140795612"><ele>181.0</ele><time>2026-04-12T14:37:14.002Z</time></trkpt><trkpt lat="42.510099241774235" lon="11.512816687896741"><ele>181.0</ele><time>2026-04-12T14:37:15.002Z</time></trkpt><trkpt lat="42.51000048155099" lon="11.513021901360647"><ele>181.0</ele><time>2026-04-12T14:37:16.002Z</time></trkpt><trkpt lat="42.50989221379635" lon="11.513230314127018"><ele>181.0</ele><time>2026-04-12T14:37:17.002Z</time></trkpt><trkpt lat="42.50977030431999" lon="11.513443988970245"><ele>181.0</ele><time>2026-04-12T14:37:18.002Z</time></trkpt><trkpt lat="42.50964711146931" lon="11.513665152498291"><ele>181.0</ele><time>2026-04-12T14:37:19.002Z</time></trkpt><trkpt lat="42.509535491965444" lon="11.513892147082979"><ele>180.66666666666669</ele><time>2026-04-12T14:37:20.002Z</time></trkpt><trkpt lat="42.50940975850593" lon="11.514133225379569"><ele>180.33333333333334</ele><time>2026-04-12T14:37:21.002Z</time></trkpt><trkpt lat="42.509286176040604" lon="11.514374271889332"><ele>180.0</ele><time>2026-04-12T14:37:22.002Z</time></trkpt><trkpt lat="42.5091610944305" lon="11.514619245973302"><ele>180.0</ele><time>2026-04-12T14:37:23.002Z</time></trkpt><trkpt lat="42.509035282001754" lon="11.514861520753012"><ele>180.0</ele><time>2026-04-12T14:37:24.002Z</time></trkpt><trkpt lat="42.50890906132065" lon="11.515105313317692"><ele>180.0</ele><time>2026-04-12T14:37:25.002Z</time></trkpt><trkpt lat="42.50878002249464" lon="11.515353505263594"><ele>177.66666666666666</ele><time>2026-04-12T14:37:26.002Z</time></trkpt><trkpt lat="42.50865086886978" lon="11.515597369024627"><ele>175.33333333333331</ele><time>2026-04-12T14:37:27.002Z</time></trkpt><trkpt lat="42.508518521696566" lon="11.515847734357003"><ele>173.0</ele><time>2026-04-12T14:37:28.002Z</time></trkpt><trkpt lat="42.508390737855485" lon="11.516098576034986"><ele>174.0</ele><time>2026-04-12T14:37:29Z</time></trkpt><trkpt lat="42.50825717509634" lon="11.516360312040772"><ele>175.0</ele><time>2026-04-12T14:37:30Z</time></trkpt><trkpt lat="42.50812241322545" lon="11.516609131517878"><ele>175.0</ele><time>2026-04-12T14:37:31Z</time></trkpt><trkpt lat="42.50799245609399" lon="11.51686694723686"><ele>175.0</ele><time>2026-04-12T14:37:32Z</time></trkpt><trkpt lat="42.50785276011609" lon="11.517120878764025"><ele>173.33333333333334</ele><time>2026-04-12T14:37:33Z</time></trkpt><trkpt lat="42.507727455506426" lon="11.517360580989363"><ele>171.66666666666666</ele><time>2026-04-12T14:37:34Z</time></trkpt><trkpt lat="42.5076129797369" lon="11.517591772424762"><ele>170.0</ele><time>2026-04-12T14:37:35Z</time></trkpt><trkpt lat="42.507499265692246" lon="11.517813790820615"><ele>170.33333333333331</ele><time>2026-04-12T14:37:36Z</time></trkpt><trkpt lat="42.50737892235279" lon="11.518029136257583"><ele>170.66666666666666</ele><time>2026-04-12T14:37:37Z</time></trkpt><trkpt lat="42.50726458861746" lon="11.51825026566402"><ele>171.0</ele><time>2026-04-12T14:37:38Z</time></trkpt><trkpt lat="42.5071533877701" lon="11.518475617372056"><ele>170.66666666666666</ele><time>2026-04-12T14:37:39Z</time></trkpt><trkpt lat="42.507035112396395" lon="11.51870223311671"><ele>170.33333333333331</ele><time>2026-04-12T14:37:40Z</time></trkpt><trkpt lat="42.50691341760596" lon="11.518919611987464"><ele>170.0</ele><time>2026-04-12T14:37:41Z</time></trkpt><trkpt lat="42.50677907276676" lon="11.519135867045483"><ele>170.0</ele><time>2026-04-12T14:37:42Z</time></trkpt><trkpt lat="42.50663987534972" lon="11.519338013166436"><ele>170.0</ele><time>2026-04-12T14:37:43Z</time></trkpt><trkpt lat="42.50649447866797" lon="11.519527958820557"><ele>170.0</ele><time>2026-04-12T14:37:44Z</time></trkpt><trkpt lat="42.50634084232651" lon="11.519703468886433"><ele>170.33333333333331</ele><time>2026-04-12T14:37:45Z</time></trkpt><trkpt lat="42.50618986293559" lon="11.519878800803102"><ele>170.66666666666666</ele><time>2026-04-12T14:37:46Z</time></trkpt><trkpt lat="42.506045792601896" lon="11.520065164397213"><ele>171.0</ele><time>2026-04-12T14:37:47Z</time></trkpt><trkpt lat="42.50590595677561" lon="11.5202504846921"><ele>172.33333333333334</ele><time>2026-04-12T14:37:48Z</time></trkpt><trkpt lat="42.50576142001227" lon="11.52043634222044"><ele>173.66666666666669</ele><time>2026-04-12T14:37:49Z</time></trkpt><trkpt lat="42.50561401775128" lon="11.520615728867485"><ele>175.0</ele><time>2026-04-12T14:37:50Z</time></trkpt><trkpt lat="42.505467160568465" lon="11.520800163493375"><ele>174.0</ele><time>2026-04-12T14:37:51Z</time></trkpt><trkpt lat="42.50531782460368" lon="11.520986033390386"><ele>173.0</ele><time>2026-04-12T14:37:52Z</time></trkpt><trkpt lat="42.50516780847058" lon="11.521170724693153"><ele>172.0</ele><time>2026-04-12T14:37:53Z</time></trkpt><trkpt lat="42.505021767911074" lon="11.52136289853941"><ele>172.0</ele><time>2026-04-12T14:37:54Z</time></trkpt><trkpt lat="42.50487291285011" lon="11.521548852352021"><ele>172.0</ele><time>2026-04-12T14:37:55Z</time></trkpt><trkpt lat="42.504716715251725" lon="11.521739774434266"><ele>172.0</ele><time>2026-04-12T14:37:56.001Z</time></trkpt><trkpt lat="42.504570005403416" lon="11.52192945169365"><ele>170.66666666666669</ele><time>2026-04-12T14:37:57.001Z</time></trkpt><trkpt lat="42.504418222158414" lon="11.522122413340178"><ele>169.33333333333334</ele><time>2026-04-12T14:37:58.001Z</time></trkpt><trkpt lat="42.504264850538085" lon="11.52231600684162"><ele>168.0</ele><time>2026-04-12T14:37:59.001Z</time></trkpt><trkpt lat="42.5041133922775" lon="11.522511180365692"><ele>168.0</ele><time>2026-04-12T14:38:00.001Z</time></trkpt><trkpt lat="42.50396261896845" lon="11.52270820550837"><ele>168.0</ele><time>2026-04-12T14:38:01.001Z</time></trkpt><trkpt lat="42.503812237406464" lon="11.52290989078608"><ele>168.0</ele><time>2026-04-12T14:38:02.001Z</time></trkpt><trkpt lat="42.503654369442756" lon="11.523111769581678"><ele>166.66666666666666</ele><time>2026-04-12T14:38:03.001Z</time></trkpt><trkpt lat="42.503501407356126" lon="11.523308538169324"><ele>165.33333333333331</ele><time>2026-04-12T14:38:04.001Z</time></trkpt><trkpt lat="42.503349764680856" lon="11.523500634051786"><ele>164.0</ele><time>2026-04-12T14:38:05.001Z</time></trkpt><trkpt lat="42.50319583348741" lon="11.52368684427757"><ele>164.0</ele><time>2026-04-12T14:38:06.001Z</time></trkpt><trkpt lat="42.50304571119814" lon="11.523877528667455"><ele>164.0</ele><time>2026-04-12T14:38:07.001Z</time></trkpt><trkpt lat="42.5029007558468" lon="11.524070245763406"><ele>164.0</ele><time>2026-04-12T14:38:08.001Z</time></trkpt><trkpt lat="42.5027525310122" lon="11.524254998625652"><ele>165.33333333333331</ele><time>2026-04-12T14:38:09.001Z</time></trkpt><trkpt lat="42.502606614254546" lon="11.524431835427382"><ele>166.66666666666666</ele><time>2026-04-12T14:38:10.001Z</time></trkpt><trkpt lat="42.50246055521891" lon="11.524611842388193"><ele>168.0</ele><time>2026-04-12T14:38:11.001Z</time></trkpt><trkpt lat="42.50231836486181" lon="11.524793234098485"><ele>168.0</ele><time>2026-04-12T14:38:12.001Z</time></trkpt><trkpt lat="42.502176824663216" lon="11.524970064823865"><ele>168.0</ele><time>2026-04-12T14:38:13.001Z</time></trkpt><trkpt lat="42.50203506184419" lon="11.52514395692504"><ele>168.0</ele><time>2026-04-12T14:38:14.001Z</time></trkpt><trkpt lat="42.50190137049014" lon="11.525320601965872"><ele>166.66666666666666</ele><time>2026-04-12T14:38:15.001Z</time></trkpt><trkpt lat="42.50177073920128" lon="11.525504595508222"><ele>165.33333333333331</ele><time>2026-04-12T14:38:16.001Z</time></trkpt><trkpt lat="42.50164896279492" lon="11.525709967230645"><ele>164.0</ele><time>2026-04-12T14:38:17.001Z</time></trkpt><trkpt lat="42.50153638090894" lon="11.52592593246872"><ele>164.0</ele><time>2026-04-12T14:38:18.001Z</time></trkpt><trkpt lat="42.50142932155472" lon="11.526146456470931"><ele>164.0</ele><time>2026-04-12T14:38:19.001Z</time></trkpt><trkpt lat="42.50132538262308" lon="11.526360730281938"><ele>164.0</ele><time>2026-04-12T14:38:20.001Z</time></trkpt><trkpt lat="42.50122719515639" lon="11.526554637929024"><ele>163.33333333333331</ele><time>2026-04-12T14:38:21.001Z</time></trkpt><trkpt lat="42.50114509478158" lon="11.526745813459593"><ele>162.66666666666666</ele><time>2026-04-12T14:38:22.001Z</time></trkpt><trkpt lat="42.50109053420863" lon="11.526946342929485"><ele>162.0</ele><time>2026-04-12T14:38:23.001Z</time></trkpt><trkpt lat="42.50106226075436" lon="11.527166779969274"><ele>161.33333333333334</ele><time>2026-04-12T14:38:24.001Z</time></trkpt><trkpt lat="42.50105072477438" lon="11.527405453849333"><ele>160.66666666666669</ele><time>2026-04-12T14:38:25.001Z</time></trkpt><trkpt lat="42.50103939559609" lon="11.527658981436328"><ele>160.0</ele><time>2026-04-12T14:38:26.001Z</time></trkpt><trkpt lat="42.50103071809985" lon="11.5279301506163"><ele>158.66666666666669</ele><time>2026-04-12T14:38:27.001Z</time></trkpt><trkpt lat="42.50102141919912" lon="11.528195371000065"><ele>157.33333333333334</ele><time>2026-04-12T14:38:28.001Z</time></trkpt><trkpt lat="42.501006578045526" lon="11.528446369223543"><ele>156.0</ele><time>2026-04-12T14:38:29.001Z</time></trkpt><trkpt lat="42.50099533133804" lon="11.528695888732772"><ele>156.0</ele><time>2026-04-12T14:38:30.001Z</time></trkpt><trkpt lat="42.50097803489756" lon="11.528921181150782"><ele>156.0</ele><time>2026-04-12T14:38:31.001Z</time></trkpt><trkpt lat="42.50093122517447" lon="11.529133507477741"><ele>156.0</ele><time>2026-04-12T14:38:32.001Z</time></trkpt><trkpt lat="42.50084988828217" lon="11.52934383475716"><ele>156.0</ele><time>2026-04-12T14:38:33.001Z</time></trkpt><trkpt lat="42.500759829645595" lon="11.529549317129089"><ele>156.0</ele><time>2026-04-12T14:38:34.001Z</time></trkpt><trkpt lat="42.500667470279105" lon="11.529760600111521"><ele>156.0</ele><time>2026-04-12T14:38:35.001Z</time></trkpt><trkpt lat="42.50057162213495" lon="11.529980363139984"><ele>155.66666666666666</ele><time>2026-04-12T14:38:36.001Z</time></trkpt><trkpt lat="42.500477350477816" lon="11.53019923142754"><ele>155.33333333333331</ele><time>2026-04-12T14:38:37.001Z</time></trkpt><trkpt lat="42.50038218555324" lon="11.530428472821841"><ele>155.0</ele><time>2026-04-12T14:38:38.001Z</time></trkpt><trkpt lat="42.50029017760562" lon="11.53066089495167"><ele>155.0</ele><time>2026-04-12T14:38:39.001Z</time></trkpt><trkpt lat="42.500201588596106" lon="11.530903002526955"><ele>155.0</ele><time>2026-04-12T14:38:40.001Z</time></trkpt><trkpt lat="42.50010048974338" lon="11.531148681646307"><ele>155.0</ele><time>2026-04-12T14:38:41.001Z</time></trkpt><trkpt lat="42.49999631974656" lon="11.531396414531311"><ele>155.66666666666666</ele><time>2026-04-12T14:38:42.001Z</time></trkpt><trkpt lat="42.49988912364914" lon="11.531632109167576"><ele>156.33333333333334</ele><time>2026-04-12T14:38:43.002Z</time></trkpt><trkpt lat="42.49977516542464" lon="11.531861751537289"><ele>157.0</ele><time>2026-04-12T14:38:44.002Z</time></trkpt><trkpt lat="42.49966223139608" lon="11.532079447323174"><ele>156.33333333333334</ele><time>2026-04-12T14:38:45.002Z</time></trkpt><trkpt lat="42.499546003786946" lon="11.532300029874454"><ele>155.66666666666666</ele><time>2026-04-12T14:38:46.002Z</time></trkpt><trkpt lat="42.499429285844165" lon="11.532516334328786"><ele>155.0</ele><time>2026-04-12T14:38:47.002Z</time></trkpt><trkpt lat="42.49930096980124" lon="11.532727987934507"><ele>155.33333333333331</ele><time>2026-04-12T14:38:48.002Z</time></trkpt><trkpt lat="42.49917566163977" lon="11.532944637948676"><ele>155.66666666666666</ele><time>2026-04-12T14:38:49.002Z</time></trkpt><trkpt lat="42.499060910904895" lon="11.533157658886564"><ele>156.0</ele><time>2026-04-12T14:38:50.002Z</time></trkpt><trkpt lat="42.49894193255116" lon="11.533377948322258"><ele>156.0</ele><time>2026-04-12T14:38:51.002Z</time></trkpt><trkpt lat="42.49883678629039" lon="11.533595941837197"><ele>156.0</ele><time>2026-04-12T14:38:52.002Z</time></trkpt><trkpt lat="42.498720477617056" lon="11.533825166483384"><ele>156.0</ele><time>2026-04-12T14:38:53.002Z</time></trkpt><trkpt lat="42.49862131754893" lon="11.534053047775624"><ele>156.0</ele><time>2026-04-12T14:38:54.002Z</time></trkpt><trkpt lat="42.498525271232545" lon="11.534284640396205"><ele>156.0</ele><time>2026-04-12T14:38:55.002Z</time></trkpt><trkpt lat="42.49842665097958" lon="11.534522225603155"><ele>156.0</ele><time>2026-04-12T14:38:56.002Z</time></trkpt><trkpt lat="42.49832980348435" lon="11.534752463956"><ele>156.0</ele><time>2026-04-12T14:38:57.002Z</time></trkpt><trkpt lat="42.4982293582456" lon="11.53498104363596"><ele>156.0</ele><time>2026-04-12T14:38:58.002Z</time></trkpt><trkpt lat="42.49812881416756" lon="11.535208679343244"><ele>156.0</ele><time>2026-04-12T14:38:59.002Z</time></trkpt><trkpt lat="42.49802994117393" lon="11.535444782529115"><ele>157.33333333333334</ele><time>2026-04-12T14:39:00.002Z</time></trkpt><trkpt lat="42.49793347776712" lon="11.535692832052796"><ele>158.66666666666669</ele><time>2026-04-12T14:39:01.002Z</time></trkpt><trkpt lat="42.4978397151709" lon="11.535939025208418"><ele>160.0</ele><time>2026-04-12T14:39:02.002Z</time></trkpt><trkpt lat="42.497749349069856" lon="11.536191125659625"><ele>155.33333333333334</ele><time>2026-04-12T14:39:03.002Z</time></trkpt><trkpt lat="42.49765805814964" lon="11.536449762697742"><ele>150.66666666666666</ele><time>2026-04-12T14:39:04.002Z</time></trkpt><trkpt lat="42.49757383605965" lon="11.536716985803823"><ele>146.0</ele><time>2026-04-12T14:39:05.002Z</time></trkpt><trkpt lat="42.497498825491434" lon="11.536996248078312"><ele>147.33333333333331</ele><time>2026-04-12T14:39:06.002Z</time></trkpt><trkpt lat="42.49743073218168" lon="11.537269001623468"><ele>148.66666666666666</ele><time>2026-04-12T14:39:07.002Z</time></trkpt><trkpt lat="42.497357197839314" lon="11.537530396302602"><ele>150.0</ele><time>2026-04-12T14:39:08.002Z</time></trkpt><trkpt lat="42.49727505942994" lon="11.537786173524005"><ele>151.0</ele><time>2026-04-12T14:39:09.002Z</time></trkpt><trkpt lat="42.49718706938208" lon="11.538028399255703"><ele>152.0</ele><time>2026-04-12T14:39:10.002Z</time></trkpt><trkpt lat="42.49709162733511" lon="11.53827433994857"><ele>153.0</ele><time>2026-04-12T14:39:11.002Z</time></trkpt><trkpt lat="42.497007377911615" lon="11.538512122103683"><ele>149.66666666666666</ele><time>2026-04-12T14:39:12.002Z</time></trkpt><trkpt lat="42.496922236644224" lon="11.538752224183229"><ele>146.33333333333331</ele><time>2026-04-12T14:39:13.002Z</time></trkpt><trkpt lat="42.496839968080494" lon="11.538993608789088"><ele>143.0</ele><time>2026-04-12T14:39:14.002Z</time></trkpt><trkpt lat="42.49676033896165" lon="11.53922258216262"><ele>143.0</ele><time>2026-04-12T14:39:15.002Z</time></trkpt><trkpt lat="42.496679686161436" lon="11.53945587951462"><ele>143.0</ele><time>2026-04-12T14:39:16.002Z</time></trkpt><trkpt lat="42.49660226589583" lon="11.539664041586958"><ele>143.0</ele><time>2026-04-12T14:39:17.002Z</time></trkpt><trkpt lat="42.496517573959494" lon="11.539871587725466"><ele>143.33333333333331</ele><time>2026-04-12T14:39:18.002Z</time></trkpt><trkpt lat="42.496406427947264" lon="11.540071509294515"><ele>143.66666666666666</ele><time>2026-04-12T14:39:19.002Z</time></trkpt><trkpt lat="42.496268635842114" lon="11.540243978013327"><ele>144.0</ele><time>2026-04-12T14:39:20.002Z</time></trkpt><trkpt lat="42.496104940935425" lon="11.540395439818578"><ele>146.0</ele><time>2026-04-12T14:39:21.002Z</time></trkpt><trkpt lat="42.49594000955093" lon="11.540544769742938"><ele>148.0</ele><time>2026-04-12T14:39:22.002Z</time></trkpt><trkpt lat="42.49577021404877" lon="11.540710626198964"><ele>150.0</ele><time>2026-04-12T14:39:23.002Z</time></trkpt><trkpt lat="42.49560245773002" lon="11.540881062221647"><ele>150.0</ele><time>2026-04-12T14:39:24.002Z</time></trkpt><trkpt lat="42.495429587456215" lon="11.541054875472975"><ele>150.0</ele><time>2026-04-12T14:39:25.002Z</time></trkpt><trkpt lat="42.49524903071526" lon="11.54122989196406"><ele>150.0</ele><time>2026-04-12T14:39:26.002Z</time></trkpt><trkpt lat="42.49507398198475" lon="11.54140560361803"><ele>149.33333333333334</ele><time>2026-04-12T14:39:27.003Z</time></trkpt><trkpt lat="42.49490255790626" lon="11.541579471940658"><ele>148.66666666666669</ele><time>2026-04-12T14:39:28.003Z</time></trkpt><trkpt lat="42.49473271086797" lon="11.541756684316345"><ele>148.0</ele><time>2026-04-12T14:39:29.003Z</time></trkpt><trkpt lat="42.49457086258316" lon="11.5419482774963"><ele>145.66666666666669</ele><time>2026-04-12T14:39:30.003Z</time></trkpt><trkpt lat="42.494416174379374" lon="11.542155299649355"><ele>143.33333333333334</ele><time>2026-04-12T14:39:31.003Z</time></trkpt><trkpt lat="42.49426347399068" lon="11.542378712489905"><ele>141.0</ele><time>2026-04-12T14:39:32.003Z</time></trkpt><trkpt lat="42.494107324068786" lon="11.542615600139"><ele>141.0</ele><time>2026-04-12T14:39:33.003Z</time></trkpt><trkpt lat="42.49395743938809" lon="11.542857548380928"><ele>141.0</ele><time>2026-04-12T14:39:34.003Z</time></trkpt><trkpt lat="42.4938069076249" lon="11.543087409380256"><ele>139.66666666666666</ele><time>2026-04-12T14:39:35.001Z</time></trkpt><trkpt lat="42.49367295347022" lon="11.54328799130075"><ele>138.33333333333331</ele><time>2026-04-12T14:39:36.001Z</time></trkpt><trkpt lat="42.493548826320314" lon="11.543472968961428"><ele>137.0</ele><time>2026-04-12T14:39:37.001Z</time></trkpt><trkpt lat="42.49343338585661" lon="11.543645227287536"><ele>139.0</ele><time>2026-04-12T14:39:38.001Z</time></trkpt><trkpt lat="42.49332656607874" lon="11.543807668979108"><ele>141.0</ele><time>2026-04-12T14:39:39.001Z</time></trkpt><trkpt lat="42.49321848246841" lon="11.543963011084239"><ele>143.0</ele><time>2026-04-12T14:39:40.001Z</time></trkpt><trkpt lat="42.493095892937" lon="11.54411140381174"><ele>143.0</ele><time>2026-04-12T14:39:41.001Z</time></trkpt><trkpt lat="42.492938852271514" lon="11.544230650527247"><ele>143.0</ele><time>2026-04-12T14:39:42.001Z</time></trkpt><trkpt lat="42.49275598742253" lon="11.544286888676867"><ele>143.0</ele><time>2026-04-12T14:39:43.001Z</time></trkpt><trkpt lat="42.49257347260889" lon="11.544324422440203"><ele>141.66666666666666</ele><time>2026-04-12T14:39:44.001Z</time></trkpt><trkpt lat="42.49239093600118" lon="11.544377002331546"><ele>140.33333333333334</ele><time>2026-04-12T14:39:45.001Z</time></trkpt><trkpt lat="42.49222460627943" lon="11.54443221392989"><ele>139.0</ele><time>2026-04-12T14:39:46.001Z</time></trkpt><trkpt lat="42.492065954743836" lon="11.54448153316703"><ele>140.0</ele><time>2026-04-12T14:39:47.001Z</time></trkpt><trkpt lat="42.491912895199256" lon="11.544520903107705"><ele>141.0</ele><time>2026-04-12T14:39:48.001Z</time></trkpt><trkpt lat="42.49176402784907" lon="11.544567522121564"><ele>142.0</ele><time>2026-04-12T14:39:49.001Z</time></trkpt><trkpt lat="42.491628899450944" lon="11.544648544088107"><ele>142.0</ele><time>2026-04-12T14:39:50.001Z</time></trkpt><trkpt lat="42.4915006892077" lon="11.544780928237236"><ele>142.0</ele><time>2026-04-12T14:39:51.001Z</time></trkpt><trkpt lat="42.49138118221104" lon="11.544944821399026"><ele>142.0</ele><time>2026-04-12T14:39:52.001Z</time></trkpt><trkpt lat="42.49125828330669" lon="11.545125198462912"><ele>140.0</ele><time>2026-04-12T14:39:53.001Z</time></trkpt><trkpt lat="42.491133326241844" lon="11.545312843493896"><ele>138.0</ele><time>2026-04-12T14:39:54.001Z</time></trkpt><trkpt lat="42.490997478642484" lon="11.545496418696368"><ele>136.0</ele><time>2026-04-12T14:39:55.001Z</time></trkpt><trkpt lat="42.49084345897342" lon="11.545681285524928"><ele>136.0</ele><time>2026-04-12T14:39:56.001Z</time></trkpt><trkpt lat="42.49069248430924" lon="11.545868388262708"><ele>136.0</ele><time>2026-04-12T14:39:57.001Z</time></trkpt><trkpt lat="42.49053268914296" lon="11.546072844543678"><ele>136.0</ele><time>2026-04-12T14:39:58.001Z</time></trkpt><trkpt lat="42.49037157421178" lon="11.546280181755542"><ele>135.0</ele><time>2026-04-12T14:39:59.001Z</time></trkpt><trkpt lat="42.49020668850423" lon="11.54649634884439"><ele>134.0</ele><time>2026-04-12T14:40:00.001Z</time></trkpt><trkpt lat="42.49003620174266" lon="11.54672066252733"><ele>134.0</ele><time>2026-04-12T14:40:01.001Z</time></trkpt><trkpt lat="42.489861177275486" lon="11.546947973121547"><ele>134.0</ele><time>2026-04-12T14:40:02.001Z</time></trkpt><trkpt lat="42.48968517508802" lon="11.547177472900817"><ele>133.0</ele><time>2026-04-12T14:40:03.001Z</time></trkpt><trkpt lat="42.48950489328718" lon="11.547414520374147"><ele>132.0</ele><time>2026-04-12T14:40:04.001Z</time></trkpt><trkpt lat="42.48933249186911" lon="11.547640825568715"><ele>132.0</ele><time>2026-04-12T14:40:05.001Z</time></trkpt><trkpt lat="42.489153741428765" lon="11.54787302042477"><ele>132.0</ele><time>2026-04-12T14:40:06.001Z</time></trkpt><trkpt lat="42.488975761218626" lon="11.548091504058506"><ele>131.5</ele><time>2026-04-12T14:40:07.001Z</time></trkpt><trkpt lat="42.488799544179116" lon="11.548315793020624"><ele>131.0</ele><time>2026-04-12T14:40:08.001Z</time></trkpt><trkpt lat="42.48862866936394" lon="11.548544486745646"><ele>132.5</ele><time>2026-04-12T14:40:09.001Z</time></trkpt><trkpt lat="42.48845719965826" lon="11.548769773508763"><ele>134.0</ele><time>2026-04-12T14:40:10.001Z</time></trkpt><trkpt lat="42.48828482642875" lon="11.548989165022334"><ele>134.0</ele><time>2026-04-12T14:40:11.001Z</time></trkpt><trkpt lat="42.488114454454795" lon="11.54920970683199"><ele>134.0</ele><time>2026-04-12T14:40:12.001Z</time></trkpt><trkpt lat="42.48795201343476" lon="11.549405138542408"><ele>132.33333333333331</ele><time>2026-04-12T14:40:13.001Z</time></trkpt><trkpt lat="42.48778852376254" lon="11.549623762840412"><ele>130.66666666666666</ele><time>2026-04-12T14:40:14.001Z</time></trkpt><trkpt lat="42.487631555516046" lon="11.549816452280622"><ele>129.0</ele><time>2026-04-12T14:40:15.001Z</time></trkpt><trkpt lat="42.4874674206767" lon="11.55001621884592"><ele>129.0</ele><time>2026-04-12T14:40:16.001Z</time></trkpt><trkpt lat="42.48729331124018" lon="11.5502145973728"><ele>129.0</ele><time>2026-04-12T14:40:17.001Z</time></trkpt><trkpt lat="42.48711808905443" lon="11.550403191339841"><ele>130.5</ele><time>2026-04-12T14:40:18.001Z</time></trkpt><trkpt lat="42.486921170088394" lon="11.550588435449582"><ele>132.0</ele><time>2026-04-12T14:40:19.001Z</time></trkpt><trkpt lat="42.4867221159137" lon="11.55076664058089"><ele>132.0</ele><time>2026-04-12T14:40:20.001Z</time></trkpt><trkpt lat="42.48652945271901" lon="11.550945331112995"><ele>132.0</ele><time>2026-04-12T14:40:21.001Z</time></trkpt><trkpt lat="42.48635070154924" lon="11.551123109842715"><ele>133.0</ele><time>2026-04-12T14:40:22.001Z</time></trkpt><trkpt lat="42.48617506856314" lon="11.551302738071652"><ele>134.0</ele><time>2026-04-12T14:40:23.001Z</time></trkpt><trkpt lat="42.48600661091228" lon="11.551472808489137"><ele>135.0</ele><time>2026-04-12T14:40:24.001Z</time></trkpt><trkpt lat="42.48584587279971" lon="11.551634608473918"><ele>135.0</ele><time>2026-04-12T14:40:25.001Z</time></trkpt><trkpt lat="42.48570353675233" lon="11.551781006991327"><ele>135.0</ele><time>2026-04-12T14:40:26.001Z</time></trkpt><trkpt lat="42.48557695938086" lon="11.551926420702515"><ele>135.0</ele><time>2026-04-12T14:40:27.001Z</time></trkpt><trkpt lat="42.48547539555079" lon="11.552084691243104"><ele>134.0</ele><time>2026-04-12T14:40:28.001Z</time></trkpt><trkpt lat="42.48538332272473" lon="11.552265861661926"><ele>133.0</ele><time>2026-04-12T14:40:29.001Z</time></trkpt><trkpt lat="42.48530589691941" lon="11.552472168301195"><ele>132.0</ele><time>2026-04-12T14:40:30.001Z</time></trkpt><trkpt lat="42.485245744628465" lon="11.552699817848769"><ele>134.33333333333334</ele><time>2026-04-12T14:40:31.001Z</time></trkpt><trkpt lat="42.48519177272185" lon="11.552952127616134"><ele>136.66666666666669</ele><time>2026-04-12T14:40:32.001Z</time></trkpt><trkpt lat="42.48514106284218" lon="11.553199073110996"><ele>139.0</ele><time>2026-04-12T14:40:33.001Z</time></trkpt><trkpt lat="42.48509341634989" lon="11.55344729469248"><ele>139.0</ele><time>2026-04-12T14:40:34.001Z</time></trkpt><trkpt lat="42.48503355607226" lon="11.553701456563504"><ele>139.0</ele><time>2026-04-12T14:40:35.001Z</time></trkpt><trkpt lat="42.484971568880766" lon="11.55394380133578"><ele>139.0</ele><time>2026-04-12T14:40:36.001Z</time></trkpt><trkpt lat="42.48489935009371" lon="11.55418374540196"><ele>141.0</ele><time>2026-04-12T14:40:37.001Z</time></trkpt><trkpt lat="42.48480976738588" lon="11.554424497769109"><ele>143.0</ele><time>2026-04-12T14:40:38.001Z</time></trkpt><trkpt lat="42.484699057627864" lon="11.554653221798294"><ele>145.0</ele><time>2026-04-12T14:40:39.001Z</time></trkpt><trkpt lat="42.48457861764893" lon="11.55486312837368"><ele>145.0</ele><time>2026-04-12T14:40:40.002Z</time></trkpt><trkpt lat="42.484451947641084" lon="11.555053470172204"><ele>145.0</ele><time>2026-04-12T14:40:41.002Z</time></trkpt><trkpt lat="42.48430959483946" lon="11.555224266263668"><ele>145.0</ele><time>2026-04-12T14:40:42.002Z</time></trkpt><trkpt lat="42.484156738833896" lon="11.555384751748313"><ele>144.66666666666669</ele><time>2026-04-12T14:40:43.002Z</time></trkpt><trkpt lat="42.48398172835272" lon="11.555538704279968"><ele>144.33333333333334</ele><time>2026-04-12T14:40:44.002Z</time></trkpt><trkpt lat="42.48380230658188" lon="11.5556843609947"><ele>144.0</ele><time>2026-04-12T14:40:45.002Z</time></trkpt><trkpt lat="42.483609033376396" lon="11.555832725271072"><ele>142.5</ele><time>2026-04-12T14:40:46.002Z</time></trkpt><trkpt lat="42.48341132847207" lon="11.55598635912677"><ele>141.0</ele><time>2026-04-12T14:40:47.002Z</time></trkpt><trkpt lat="42.48320320978742" lon="11.556141295471992"><ele>138.66666666666666</ele><time>2026-04-12T14:40:48.002Z</time></trkpt><trkpt lat="42.48302889100409" lon="11.556295108491891"><ele>136.33333333333331</ele><time>2026-04-12T14:40:49.002Z</time></trkpt><trkpt lat="42.48284853534932" lon="11.556442672173425"><ele>134.0</ele><time>2026-04-12T14:40:50.002Z</time></trkpt><trkpt lat="42.482666657257724" lon="11.556588071826848"><ele>134.0</ele><time>2026-04-12T14:40:51.002Z</time></trkpt><trkpt lat="42.48247845769694" lon="11.55673320989659"><ele>134.0</ele><time>2026-04-12T14:40:52.002Z</time></trkpt><trkpt lat="42.48229679887526" lon="11.556880945143712"><ele>134.0</ele><time>2026-04-12T14:40:53.002Z</time></trkpt><trkpt lat="42.48210535944832" lon="11.557044140498784"><ele>132.5</ele><time>2026-04-12T14:40:54.002Z</time></trkpt><trkpt lat="42.48191002444434" lon="11.557218726619096"><ele>131.0</ele><time>2026-04-12T14:40:55.002Z</time></trkpt><trkpt lat="42.48170883866616" lon="11.557379898335489"><ele>131.0</ele><time>2026-04-12T14:40:56.002Z</time></trkpt><trkpt lat="42.481519480081545" lon="11.557526511621603"><ele>131.0</ele><time>2026-04-12T14:40:57.002Z</time></trkpt><trkpt lat="42.4813409215117" lon="11.557672198153355"><ele>131.0</ele><time>2026-04-12T14:40:58.002Z</time></trkpt><trkpt lat="42.4811720719245" lon="11.557815195332918"><ele>130.66666666666666</ele><time>2026-04-12T14:40:59.002Z</time></trkpt><trkpt lat="42.48098955615027" lon="11.557959748176742"><ele>130.33333333333334</ele><time>2026-04-12T14:41:00.002Z</time></trkpt><trkpt lat="42.48080731273951" lon="11.558105616009941"><ele>130.0</ele><time>2026-04-12T14:41:01.002Z</time></trkpt><trkpt lat="42.48062729982688" lon="11.558249101306272"><ele>130.0</ele><time>2026-04-12T14:41:02.002Z</time></trkpt><trkpt lat="42.48045346615023" lon="11.558387367105077"><ele>130.0</ele><time>2026-04-12T14:41:03.002Z</time></trkpt><trkpt lat="42.48027512894997" lon="11.558534069743915"><ele>130.0</ele><time>2026-04-12T14:41:04.002Z</time></trkpt><trkpt lat="42.480104338275744" lon="11.558668266632809"><ele>128.33333333333334</ele><time>2026-04-12T14:41:05.002Z</time></trkpt><trkpt lat="42.4799306737582" lon="11.558807743606248"><ele>126.66666666666666</ele><time>2026-04-12T14:41:06.002Z</time></trkpt><trkpt lat="42.479766720095284" lon="11.558953702882105"><ele>125.0</ele><time>2026-04-12T14:41:07.002Z</time></trkpt><trkpt lat="42.47959808973452" lon="11.559084427455792"><ele>123.66666666666666</ele><time>2026-04-12T14:41:08.002Z</time></trkpt><trkpt lat="42.47942495074873" lon="11.559227624583615"><ele>122.33333333333334</ele><time>2026-04-12T14:41:09.002Z</time></trkpt><trkpt lat="42.479249127002014" lon="11.559371842679667"><ele>121.0</ele><time>2026-04-12T14:41:10.002Z</time></trkpt><trkpt lat="42.479092340893274" lon="11.559505814425687"><ele>121.33333333333334</ele><time>2026-04-12T14:41:11.002Z</time></trkpt><trkpt lat="42.47893877206153" lon="11.559637914411272"><ele>121.66666666666666</ele><time>2026-04-12T14:41:12.002Z</time></trkpt><trkpt lat="42.478795804700766" lon="11.55975539646708"><ele>122.0</ele><time>2026-04-12T14:41:13.002Z</time></trkpt><trkpt lat="42.47865274534603" lon="11.55986625531312"><ele>120.33333333333333</ele><time>2026-04-12T14:41:14.002Z</time></trkpt><trkpt lat="42.47849677363009" lon="11.55997200826249"><ele>118.66666666666666</ele><time>2026-04-12T14:41:15.002Z</time></trkpt><trkpt lat="42.47833498637219" lon="11.560053344829624"><ele>117.0</ele><time>2026-04-12T14:41:16.002Z</time></trkpt><trkpt lat="42.47816531113652" lon="11.560124462652633"><ele>117.0</ele><time>2026-04-12T14:41:17.002Z</time></trkpt><trkpt lat="42.477975334035676" lon="11.560182736022911"><ele>117.0</ele><time>2026-04-12T14:41:18.002Z</time></trkpt><trkpt lat="42.47779466480876" lon="11.560234971660215"><ele>117.0</ele><time>2026-04-12T14:41:19.002Z</time></trkpt><trkpt lat="42.47760238774524" lon="11.560288193247084"><ele>116.33333333333334</ele><time>2026-04-12T14:41:20.002Z</time></trkpt><trkpt lat="42.47740994268765" lon="11.560323337788388"><ele>115.66666666666667</ele><time>2026-04-12T14:41:21.002Z</time></trkpt><trkpt lat="42.47720871880266" lon="11.560335060305992"><ele>115.0</ele><time>2026-04-12T14:41:22.002Z</time></trkpt><trkpt lat="42.477000464292516" lon="11.560306407220631"><ele>114.33333333333334</ele><time>2026-04-12T14:41:23.002Z</time></trkpt><trkpt lat="42.476797541318334" lon="11.560266948669662"><ele>113.66666666666666</ele><time>2026-04-12T14:41:24.002Z</time></trkpt><trkpt lat="42.47660859943395" lon="11.560232483004347"><ele>113.0</ele><time>2026-04-12T14:41:25.002Z</time></trkpt><trkpt lat="42.47640821561007" lon="11.560193124233722"><ele>113.0</ele><time>2026-04-12T14:41:26.002Z</time></trkpt><trkpt lat="42.47620495396804" lon="11.560151849217927"><ele>113.0</ele><time>2026-04-12T14:41:27.002Z</time></trkpt><trkpt lat="42.47600383549684" lon="11.560110929337899"><ele>113.0</ele><time>2026-04-12T14:41:28.002Z</time></trkpt><trkpt lat="42.475806421078076" lon="11.560072737065044"><ele>113.0</ele><time>2026-04-12T14:41:29.003Z</time></trkpt><trkpt lat="42.4756134199404" lon="11.560032679170861"><ele>113.0</ele><time>2026-04-12T14:41:30.003Z</time></trkpt><trkpt lat="42.475432009950005" lon="11.559991613287286"><ele>113.0</ele><time>2026-04-12T14:41:31.003Z</time></trkpt><trkpt lat="42.47525898290552" lon="11.559951788009494"><ele>113.0</ele><time>2026-04-12T14:41:32.003Z</time></trkpt><trkpt lat="42.475086732158736" lon="11.55992727183577"><ele>113.0</ele><time>2026-04-12T14:41:33.003Z</time></trkpt><trkpt lat="42.47490339396008" lon="11.559912729241784"><ele>113.0</ele><time>2026-04-12T14:41:34.003Z</time></trkpt><trkpt lat="42.47471264836881" lon="11.559918778520828"><ele>112.33333333333333</ele><time>2026-04-12T14:41:35.003Z</time></trkpt><trkpt lat="42.47450824420241" lon="11.559957355172147"><ele>111.66666666666666</ele><time>2026-04-12T14:41:36.003Z</time></trkpt><trkpt lat="42.47429297722991" lon="11.560014548367269"><ele>111.0</ele><time>2026-04-12T14:41:37.003Z</time></trkpt><trkpt lat="42.474077116035716" lon="11.560080401909316"><ele>111.0</ele><time>2026-04-12T14:41:38.003Z</time></trkpt><trkpt lat="42.47386144563821" lon="11.560137965061802"><ele>111.0</ele><time>2026-04-12T14:41:39.003Z</time></trkpt><trkpt lat="42.47366064869623" lon="11.56018425503465"><ele>111.0</ele><time>2026-04-12T14:41:40.003Z</time></trkpt><trkpt lat="42.47346473232787" lon="11.560220441500546"><ele>109.66666666666666</ele><time>2026-04-12T14:41:41.001Z</time></trkpt><trkpt lat="42.47326289594291" lon="11.560267713383661"><ele>108.33333333333333</ele><time>2026-04-12T14:41:42.001Z</time></trkpt><trkpt lat="42.47306975569855" lon="11.56031581081066"><ele>107.0</ele><time>2026-04-12T14:41:43.001Z</time></trkpt><trkpt lat="42.47288534158372" lon="11.560359572676502"><ele>106.0</ele><time>2026-04-12T14:41:44.001Z</time></trkpt><trkpt lat="42.472716457052016" lon="11.560412131100408"><ele>105.0</ele><time>2026-04-12T14:41:45.001Z</time></trkpt><trkpt lat="42.47256333050834" lon="11.560497493976124"><ele>104.0</ele><time>2026-04-12T14:41:46.001Z</time></trkpt><trkpt lat="42.47241542573474" lon="11.560626554576823"><ele>104.0</ele><time>2026-04-12T14:41:47.001Z</time></trkpt><trkpt lat="42.472278195711844" lon="11.560788086305593"><ele>104.0</ele><time>2026-04-12T14:41:48.001Z</time></trkpt><trkpt lat="42.47212869222283" lon="11.560972405963911"><ele>104.0</ele><time>2026-04-12T14:41:49.001Z</time></trkpt><trkpt lat="42.47195775110059" lon="11.561139225401273"><ele>102.66666666666666</ele><time>2026-04-12T14:41:50.001Z</time></trkpt><trkpt lat="42.471805138343456" lon="11.561306073362273"><ele>101.33333333333334</ele><time>2026-04-12T14:41:51.001Z</time></trkpt><trkpt lat="42.471657923450756" lon="11.561495171445129"><ele>100.0</ele><time>2026-04-12T14:41:52.001Z</time></trkpt><trkpt lat="42.471491402608365" lon="11.561678583494729"><ele>100.0</ele><time>2026-04-12T14:41:53.001Z</time></trkpt><trkpt lat="42.471330192606715" lon="11.561859223683419"><ele>100.0</ele><time>2026-04-12T14:41:54.001Z</time></trkpt><trkpt lat="42.47115011733215" lon="11.562029294648438"><ele>100.0</ele><time>2026-04-12T14:41:55.001Z</time></trkpt><trkpt lat="42.47099064412242" lon="11.562221131284028"><ele>100.0</ele><time>2026-04-12T14:41:56.001Z</time></trkpt><trkpt lat="42.470828635861366" lon="11.562392959058734"><ele>100.0</ele><time>2026-04-12T14:41:57.001Z</time></trkpt><trkpt lat="42.47067603600621" lon="11.562564869000088"><ele>100.0</ele><time>2026-04-12T14:41:58.001Z</time></trkpt><trkpt lat="42.470528913130266" lon="11.562731844144292"><ele>99.0</ele><time>2026-04-12T14:41:59.001Z</time></trkpt><trkpt lat="42.47039215880123" lon="11.562892025247999"><ele>98.0</ele><time>2026-04-12T14:42:00.001Z</time></trkpt><trkpt lat="42.470267697927945" lon="11.56306044121468"><ele>97.0</ele><time>2026-04-12T14:42:01.001Z</time></trkpt><trkpt lat="42.47016112436252" lon="11.563251919911691"><ele>97.0</ele><time>2026-04-12T14:42:02.001Z</time></trkpt><trkpt lat="42.47006612302513" lon="11.563480437935121"><ele>97.0</ele><time>2026-04-12T14:42:03.001Z</time></trkpt><trkpt lat="42.46998489874454" lon="11.563727073262298"><ele>97.0</ele><time>2026-04-12T14:42:04.001Z</time></trkpt><trkpt lat="42.46990790444649" lon="11.5639867206596"><ele>98.66666666666667</ele><time>2026-04-12T14:42:05.001Z</time></trkpt><trkpt lat="42.46980827351267" lon="11.564241372974909"><ele>100.33333333333334</ele><time>2026-04-12T14:42:06.001Z</time></trkpt><trkpt lat="42.469732008605746" lon="11.56451727821501"><ele>102.0</ele><time>2026-04-12T14:42:07.001Z</time></trkpt><trkpt lat="42.46963775789161" lon="11.56478610128688"><ele>100.0</ele><time>2026-04-12T14:42:08.001Z</time></trkpt><trkpt lat="42.46954428810273" lon="11.5650584794855"><ele>98.0</ele><time>2026-04-12T14:42:09.001Z</time></trkpt><trkpt lat="42.46945588020045" lon="11.565323718261743"><ele>96.0</ele><time>2026-04-12T14:42:10.001Z</time></trkpt><trkpt lat="42.46937054214116" lon="11.56557787928171"><ele>96.0</ele><time>2026-04-12T14:42:11.001Z</time></trkpt><trkpt lat="42.4692902059228" lon="11.565820646857793"><ele>96.0</ele><time>2026-04-12T14:42:12.001Z</time></trkpt><trkpt lat="42.46921031287315" lon="11.566049883112834"><ele>96.0</ele><time>2026-04-12T14:42:13.001Z</time></trkpt><trkpt lat="42.46913542807322" lon="11.56626951876474"><ele>98.33333333333334</ele><time>2026-04-12T14:42:14.001Z</time></trkpt><trkpt lat="42.46906606831154" lon="11.56648135319256"><ele>100.66666666666667</ele><time>2026-04-12T14:42:15.001Z</time></trkpt><trkpt lat="42.468993679889174" lon="11.566703354797383"><ele>103.0</ele><time>2026-04-12T14:42:16.001Z</time></trkpt><trkpt lat="42.468921976346145" lon="11.566915536790455"><ele>104.66666666666667</ele><time>2026-04-12T14:42:17.001Z</time></trkpt><trkpt lat="42.46884972550036" lon="11.56712815896589"><ele>106.33333333333334</ele><time>2026-04-12T14:42:18.001Z</time></trkpt><trkpt lat="42.46877946985578" lon="11.567338124224381"><ele>108.0</ele><time>2026-04-12T14:42:19.001Z</time></trkpt><trkpt lat="42.46870470971252" lon="11.567557350170063"><ele>108.0</ele><time>2026-04-12T14:42:20.001Z</time></trkpt><trkpt lat="42.4686328202585" lon="11.567758784352652"><ele>108.0</ele><time>2026-04-12T14:42:21.001Z</time></trkpt><trkpt lat="42.468572553245686" lon="11.567932182341165"><ele>108.0</ele><time>2026-04-12T14:42:22.001Z</time></trkpt><trkpt lat="42.46852437623585" lon="11.568097688515913"><ele>108.0</ele><time>2026-04-12T14:42:23.001Z</time></trkpt><trkpt lat="42.46848763802897" lon="11.568259092552713"><ele>111.5</ele><time>2026-04-12T14:42:24.001Z</time></trkpt><trkpt lat="42.468478019175265" lon="11.568435588592763"><ele>115.0</ele><time>2026-04-12T14:42:25.001Z</time></trkpt><trkpt lat="42.4686744300055" lon="11.568947198381212"><ele>115.66666666666667</ele><time>2026-04-12T14:42:28.001Z</time></trkpt><trkpt lat="42.4688199710196" lon="11.569107908289824"><ele>116.33333333333334</ele><time>2026-04-12T14:42:29.001Z</time></trkpt><trkpt lat="42.46895908476116" lon="11.569276379641869"><ele>117.0</ele><time>2026-04-12T14:42:30.001Z</time></trkpt><trkpt lat="42.46911078863553" lon="11.569457923796318"><ele>117.0</ele><time>2026-04-12T14:42:31.001Z</time></trkpt><trkpt lat="42.46924574290008" lon="11.569632911985304"><ele>117.0</ele><time>2026-04-12T14:42:32.001Z</time></trkpt><trkpt lat="42.46939177418327" lon="11.569819518936796"><ele>117.0</ele><time>2026-04-12T14:42:33.001Z</time></trkpt><trkpt lat="42.469545016253775" lon="11.570020756693237"><ele>118.33333333333334</ele><time>2026-04-12T14:42:34.001Z</time></trkpt><trkpt lat="42.46970559750336" lon="11.570226735609646"><ele>119.66666666666667</ele><time>2026-04-12T14:42:35.001Z</time></trkpt><trkpt lat="42.469868372678484" lon="11.570434894891761"><ele>121.0</ele><time>2026-04-12T14:42:36.001Z</time></trkpt><trkpt lat="42.47003218281405" lon="11.570629734028488"><ele>121.0</ele><time>2026-04-12T14:42:37.001Z</time></trkpt><trkpt lat="42.47019404282363" lon="11.570834552741475"><ele>121.0</ele><time>2026-04-12T14:42:38.001Z</time></trkpt><trkpt lat="42.47035684617352" lon="11.571045216624666"><ele>121.0</ele><time>2026-04-12T14:42:39.001Z</time></trkpt><trkpt lat="42.47051306762708" lon="11.571250580649801"><ele>122.66666666666667</ele><time>2026-04-12T14:42:40.001Z</time></trkpt><trkpt lat="42.47067363801855" lon="11.571450462982309"><ele>124.33333333333334</ele><time>2026-04-12T14:42:41.001Z</time></trkpt><trkpt lat="42.470818208528065" lon="11.571631318151514"><ele>126.0</ele><time>2026-04-12T14:42:42.001Z</time></trkpt><trkpt lat="42.47095719752851" lon="11.57180608989671"><ele>126.0</ele><time>2026-04-12T14:42:43.001Z</time></trkpt><trkpt lat="42.47109963364873" lon="11.571982141130578"><ele>126.0</ele><time>2026-04-12T14:42:44.001Z</time></trkpt><trkpt lat="42.47123616683458" lon="11.572169031765798"><ele>126.0</ele><time>2026-04-12T14:42:45.001Z</time></trkpt><trkpt lat="42.47135895105342" lon="11.572338924549292"><ele>126.25</ele><time>2026-04-12T14:42:46.001Z</time></trkpt><trkpt lat="42.47147189430519" lon="11.572475866171997"><ele>126.5</ele><time>2026-04-12T14:42:47.001Z</time></trkpt><trkpt lat="42.47155545491975" lon="11.572623714910863"><ele>126.75</ele><time>2026-04-12T14:42:48.001Z</time></trkpt><trkpt lat="42.47162310431362" lon="11.57276311267946"><ele>127.0</ele><time>2026-04-12T14:42:49.001Z</time></trkpt><trkpt lat="42.47165527751814" lon="11.572905570425029"><ele>127.0</ele><time>2026-04-12T14:42:50.001Z</time></trkpt><trkpt lat="42.47166672188729" lon="11.573051159182864"><ele>127.0</ele><time>2026-04-12T14:42:51.001Z</time></trkpt><trkpt lat="42.47163950344583" lon="11.573256301357123"><ele>127.0</ele><time>2026-04-12T14:42:52.001Z</time></trkpt><trkpt lat="42.4715728079838" lon="11.573471893210602"><ele>127.0</ele><time>2026-04-12T14:42:53.001Z</time></trkpt><trkpt lat="42.471505173687774" lon="11.573699342232443"><ele>124.66666666666667</ele><time>2026-04-12T14:42:54.001Z</time></trkpt><trkpt lat="42.47146891843269" lon="11.573940508762245"><ele>122.33333333333334</ele><time>2026-04-12T14:42:55.001Z</time></trkpt><trkpt lat="42.471480073993376" lon="11.574157883446691"><ele>120.0</ele><time>2026-04-12T14:42:56.001Z</time></trkpt><trkpt lat="42.47144041797534" lon="11.574396010684282"><ele>118.66666666666666</ele><time>2026-04-12T14:42:57.001Z</time></trkpt><trkpt lat="42.471395519752456" lon="11.57466311895586"><ele>117.33333333333333</ele><time>2026-04-12T14:42:58.001Z</time></trkpt><trkpt lat="42.4713659163529" lon="11.574936170874086"><ele>116.0</ele><time>2026-04-12T14:42:59.001Z</time></trkpt><trkpt lat="42.47131808671866" lon="11.575222196167635"><ele>114.33333333333333</ele><time>2026-04-12T14:43:00.001Z</time></trkpt><trkpt lat="42.47125415036723" lon="11.57550148626838"><ele>112.66666666666666</ele><time>2026-04-12T14:43:01.001Z</time></trkpt><trkpt lat="42.47120457431477" lon="11.575796841233307"><ele>111.0</ele><time>2026-04-12T14:43:02.002Z</time></trkpt><trkpt lat="42.47115406776398" lon="11.57609774043243"><ele>110.0</ele><time>2026-04-12T14:43:03.002Z</time></trkpt><trkpt lat="42.47111874456145" lon="11.576389122869827"><ele>109.0</ele><time>2026-04-12T14:43:04.002Z</time></trkpt><trkpt lat="42.47107235432145" lon="11.576660738018242"><ele>108.0</ele><time>2026-04-12T14:43:05.002Z</time></trkpt><trkpt lat="42.47101879212782" lon="11.576911337721429"><ele>108.0</ele><time>2026-04-12T14:43:06.002Z</time></trkpt><trkpt lat="42.47097656053187" lon="11.577160977215422"><ele>108.0</ele><time>2026-04-12T14:43:07.002Z</time></trkpt><trkpt lat="42.47093168036851" lon="11.577391006282854"><ele>108.0</ele><time>2026-04-12T14:43:08.002Z</time></trkpt><trkpt lat="42.47087127408918" lon="11.577598629625834"><ele>108.0</ele><time>2026-04-12T14:43:09.002Z</time></trkpt><trkpt lat="42.47079656183098" lon="11.57776614641928"><ele>108.0</ele><time>2026-04-12T14:43:10.002Z</time></trkpt><trkpt lat="42.470651205987735" lon="11.577939468962144"><ele>108.0</ele><time>2026-04-12T14:43:11.002Z</time></trkpt><trkpt lat="42.47047473420448" lon="11.578120509691093"><ele>108.0</ele><time>2026-04-12T14:43:12.002Z</time></trkpt><trkpt lat="42.47025961107083" lon="11.578326600311078"><ele>108.0</ele><time>2026-04-12T14:43:13.002Z</time></trkpt><trkpt lat="42.47001458136131" lon="11.57850302185123"><ele>108.0</ele><time>2026-04-12T14:43:14.002Z</time></trkpt><trkpt lat="42.46983704783183" lon="11.578667857882154"><ele>108.0</ele><time>2026-04-12T14:43:15.002Z</time></trkpt><trkpt lat="42.46980067599839" lon="11.57880493148136"><ele>108.0</ele><time>2026-04-12T14:43:16.002Z</time></trkpt><trkpt lat="42.46961635134801" lon="11.578989580721819"><ele>107.0</ele><time>2026-04-12T14:43:17.002Z</time></trkpt><trkpt lat="42.469431304112476" lon="11.579175232915722"><ele>106.0</ele><time>2026-04-12T14:43:18.002Z</time></trkpt><trkpt lat="42.469250098666656" lon="11.57935960375839"><ele>107.5</ele><time>2026-04-12T14:43:19.002Z</time></trkpt><trkpt lat="42.469070312480085" lon="11.579538710300556"><ele>109.0</ele><time>2026-04-12T14:43:20.002Z</time></trkpt><trkpt lat="42.46888356432116" lon="11.579712329567453"><ele>110.66666666666667</ele><time>2026-04-12T14:43:21.002Z</time></trkpt><trkpt lat="42.46869502122983" lon="11.579844488133105"><ele>112.33333333333334</ele><time>2026-04-12T14:43:22.002Z</time></trkpt><trkpt lat="42.468493218269586" lon="11.57994044228723"><ele>114.0</ele><time>2026-04-12T14:43:23.002Z</time></trkpt><trkpt lat="42.46828441605771" lon="11.580013170463461"><ele>114.0</ele><time>2026-04-12T14:43:24.002Z</time></trkpt><trkpt lat="42.468071789474585" lon="11.580084072340846"><ele>114.0</ele><time>2026-04-12T14:43:25.002Z</time></trkpt><trkpt lat="42.4678574136109" lon="11.580155559107524"><ele>114.0</ele><time>2026-04-12T14:43:26.002Z</time></trkpt><trkpt lat="42.467648839568426" lon="11.580227427588595"><ele>115.33333333333334</ele><time>2026-04-12T14:43:27.002Z</time></trkpt><trkpt lat="42.467447530955496" lon="11.580296835854448"><ele>116.66666666666667</ele><time>2026-04-12T14:43:28.002Z</time></trkpt><trkpt lat="42.467263062326545" lon="11.58037598647779"><ele>118.0</ele><time>2026-04-12T14:43:29.002Z</time></trkpt><trkpt lat="42.467088555867704" lon="11.58043430119342"><ele>121.33333333333334</ele><time>2026-04-12T14:43:30.002Z</time></trkpt><trkpt lat="42.46693393176618" lon="11.580508368332167"><ele>124.66666666666666</ele><time>2026-04-12T14:43:31.002Z</time></trkpt><trkpt lat="42.466776932702956" lon="11.58061573768581"><ele>128.0</ele><time>2026-04-12T14:43:32.002Z</time></trkpt><trkpt lat="42.46663783035251" lon="11.580765480333168"><ele>128.0</ele><time>2026-04-12T14:43:33.002Z</time></trkpt><trkpt lat="42.46653007781843" lon="11.580965436589416"><ele>128.0</ele><time>2026-04-12T14:43:34.002Z</time></trkpt><trkpt lat="42.4664328536428" lon="11.581198999755355"><ele>128.0</ele><time>2026-04-12T14:43:35.002Z</time></trkpt><trkpt lat="42.46633495914984" lon="11.581446815687666"><ele>128.33333333333331</ele><time>2026-04-12T14:43:36.002Z</time></trkpt><trkpt lat="42.466231016648436" lon="11.581679018445525"><ele>128.66666666666666</ele><time>2026-04-12T14:43:37.002Z</time></trkpt><trkpt lat="42.46612144140083" lon="11.581917680225919"><ele>129.0</ele><time>2026-04-12T14:43:38.002Z</time></trkpt><trkpt lat="42.46601075209693" lon="11.582164633382819"><ele>128.33333333333334</ele><time>2026-04-12T14:43:39.002Z</time></trkpt><trkpt lat="42.46589818712189" lon="11.582425180117982"><ele>127.66666666666667</ele><time>2026-04-12T14:43:40.002Z</time></trkpt><trkpt lat="42.4657802942187" lon="11.582677977943822"><ele>127.0</ele><time>2026-04-12T14:43:41.002Z</time></trkpt><trkpt lat="42.46565963671375" lon="11.582930313344924"><ele>126.33333333333334</ele><time>2026-04-12T14:43:42.002Z</time></trkpt><trkpt lat="42.4655405187935" lon="11.583180295995597"><ele>125.66666666666666</ele><time>2026-04-12T14:43:43.002Z</time></trkpt><trkpt lat="42.465418624101765" lon="11.583435718506884"><ele>125.0</ele><time>2026-04-12T14:43:44.002Z</time></trkpt><trkpt lat="42.46529083994871" lon="11.583701714921148"><ele>124.0</ele><time>2026-04-12T14:43:45.002Z</time></trkpt><trkpt lat="42.465161404445226" lon="11.58396490035579"><ele>123.0</ele><time>2026-04-12T14:43:46.002Z</time></trkpt><trkpt lat="42.46503132596524" lon="11.584233239327196"><ele>123.0</ele><time>2026-04-12T14:43:47Z</time></trkpt><trkpt lat="42.46491524646896" lon="11.584509675044483"><ele>123.0</ele><time>2026-04-12T14:43:48Z</time></trkpt><trkpt lat="42.46480118913956" lon="11.58477487115414"><ele>122.33333333333334</ele><time>2026-04-12T14:43:49Z</time></trkpt><trkpt lat="42.464693886624076" lon="11.585007243548509"><ele>121.66666666666667</ele><time>2026-04-12T14:43:50Z</time></trkpt><trkpt lat="42.46459270729521" lon="11.585234441836874"><ele>121.0</ele><time>2026-04-12T14:43:51Z</time></trkpt><trkpt lat="42.464491524515296" lon="11.5854404228779"><ele>121.0</ele><time>2026-04-12T14:43:52Z</time></trkpt><trkpt lat="42.464363324073894" lon="11.585620785289482"><ele>121.0</ele><time>2026-04-12T14:43:53Z</time></trkpt><trkpt lat="42.464198106078676" lon="11.58575333638784"><ele>121.0</ele><time>2026-04-12T14:43:54Z</time></trkpt><trkpt lat="42.463994791323245" lon="11.585834818401816"><ele>121.0</ele><time>2026-04-12T14:43:55Z</time></trkpt><trkpt lat="42.46378196571486" lon="11.585883020900525"><ele>121.0</ele><time>2026-04-12T14:43:56Z</time></trkpt><trkpt lat="42.46357851830572" lon="11.58593598201239"><ele>121.0</ele><time>2026-04-12T14:43:57Z</time></trkpt><trkpt lat="42.46337577098885" lon="11.58599623278836"><ele>120.66666666666667</ele><time>2026-04-12T14:43:58Z</time></trkpt><trkpt lat="42.46317401533438" lon="11.586063136343187"><ele>120.33333333333334</ele><time>2026-04-12T14:43:59Z</time></trkpt><trkpt lat="42.46298564923058" lon="11.586121268337374"><ele>120.0</ele><time>2026-04-12T14:44:00Z</time></trkpt><trkpt lat="42.46280408704624" lon="11.58619332283873"><ele>119.33333333333334</ele><time>2026-04-12T14:44:01Z</time></trkpt><trkpt lat="42.46262879793888" lon="11.586308466896622"><ele>118.66666666666667</ele><time>2026-04-12T14:44:02Z</time></trkpt><trkpt lat="42.462454158094054" lon="11.586475746279339"><ele>118.0</ele><time>2026-04-12T14:44:03Z</time></trkpt><trkpt lat="42.46228626087609" lon="11.58665825084413"><ele>116.0</ele><time>2026-04-12T14:44:04Z</time></trkpt><trkpt lat="42.46209993412533" lon="11.586852471330207"><ele>114.0</ele><time>2026-04-12T14:44:05Z</time></trkpt><trkpt lat="42.46190669607216" lon="11.587033588975773"><ele>110.5</ele><time>2026-04-12T14:44:06Z</time></trkpt><trkpt lat="42.46170188901493" lon="11.587219198639431"><ele>107.0</ele><time>2026-04-12T14:44:07Z</time></trkpt><trkpt lat="42.46149311261287" lon="11.587403450355245"><ele>107.0</ele><time>2026-04-12T14:44:08Z</time></trkpt><trkpt lat="42.461282574498576" lon="11.587600355941952"><ele>107.0</ele><time>2026-04-12T14:44:09Z</time></trkpt><trkpt lat="42.46108365443636" lon="11.587795984796752"><ele>109.5</ele><time>2026-04-12T14:44:10Z</time></trkpt><trkpt lat="42.46088398397566" lon="11.587986589214779"><ele>112.0</ele><time>2026-04-12T14:44:11Z</time></trkpt><trkpt lat="42.46068913644335" lon="11.588168063470702"><ele>112.0</ele><time>2026-04-12T14:44:12Z</time></trkpt><trkpt lat="42.460502357720436" lon="11.58834354407051"><ele>112.0</ele><time>2026-04-12T14:44:13Z</time></trkpt><trkpt lat="42.460318309715106" lon="11.588517605702618"><ele>112.33333333333334</ele><time>2026-04-12T14:44:14Z</time></trkpt><trkpt lat="42.46013890711779" lon="11.588686259092418"><ele>112.66666666666666</ele><time>2026-04-12T14:44:15Z</time></trkpt><trkpt lat="42.45996395646518" lon="11.588850511873733"><ele>113.0</ele><time>2026-04-12T14:44:16Z</time></trkpt><trkpt lat="42.459796424013085" lon="11.589006134091777"><ele>113.0</ele><time>2026-04-12T14:44:17Z</time></trkpt><trkpt lat="42.45962838169051" lon="11.589158936228765"><ele>113.0</ele><time>2026-04-12T14:44:18Z</time></trkpt><trkpt lat="42.459456419681885" lon="11.589315624020227"><ele>113.0</ele><time>2026-04-12T14:44:19Z</time></trkpt><trkpt lat="42.45927961345935" lon="11.58947975601095"><ele>115.0</ele><time>2026-04-12T14:44:20Z</time></trkpt><trkpt lat="42.459096010960906" lon="11.589651168009892"><ele>117.0</ele><time>2026-04-12T14:44:21Z</time></trkpt><trkpt lat="42.458906600151025" lon="11.589831815909559"><ele>116.0</ele><time>2026-04-12T14:44:22Z</time></trkpt><trkpt lat="42.45871456481361" lon="11.590011960979174"><ele>115.0</ele><time>2026-04-12T14:44:23Z</time></trkpt><trkpt lat="42.45852563732165" lon="11.59018806482213"><ele>117.0</ele><time>2026-04-12T14:44:24Z</time></trkpt><trkpt lat="42.458336693495895" lon="11.590364937836235"><ele>119.0</ele><time>2026-04-12T14:44:25Z</time></trkpt><trkpt lat="42.45815038557812" lon="11.590538568009348"><ele>119.0</ele><time>2026-04-12T14:44:26Z</time></trkpt><trkpt lat="42.45796383308375" lon="11.590715312129257"><ele>119.0</ele><time>2026-04-12T14:44:27Z</time></trkpt><trkpt lat="42.4577856666778" lon="11.590886435239742"><ele>119.0</ele><time>2026-04-12T14:44:28Z</time></trkpt><trkpt lat="42.45760379616292" lon="11.591059487439301"><ele>118.0</ele><time>2026-04-12T14:44:29Z</time></trkpt><trkpt lat="42.45742444247312" lon="11.591226381526226"><ele>117.0</ele><time>2026-04-12T14:44:30.001Z</time></trkpt><trkpt lat="42.45724648293489" lon="11.591395402091374"><ele>116.0</ele><time>2026-04-12T14:44:31.001Z</time></trkpt><trkpt lat="42.45706294467553" lon="11.591576821026276"><ele>115.66666666666666</ele><time>2026-04-12T14:44:32.001Z</time></trkpt><trkpt lat="42.456884469619396" lon="11.591740702837695"><ele>115.33333333333334</ele><time>2026-04-12T14:44:33.001Z</time></trkpt><trkpt lat="42.45669541452246" lon="11.591915330745781"><ele>115.0</ele><time>2026-04-12T14:44:34.001Z</time></trkpt><trkpt lat="42.456506326611695" lon="11.59208297119521"><ele>115.5</ele><time>2026-04-12T14:44:35.001Z</time></trkpt><trkpt lat="42.4563015445133" lon="11.592230727148605"><ele>116.0</ele><time>2026-04-12T14:44:36.001Z</time></trkpt><trkpt lat="42.456086147413956" lon="11.592354982965405"><ele>116.0</ele><time>2026-04-12T14:44:37.001Z</time></trkpt><trkpt lat="42.455859343588564" lon="11.592486337418261"><ele>116.0</ele><time>2026-04-12T14:44:38.001Z</time></trkpt><trkpt lat="42.45563952450885" lon="11.59262647485227"><ele>117.0</ele><time>2026-04-12T14:44:39.001Z</time></trkpt><trkpt lat="42.45541521992757" lon="11.59277672628178"><ele>118.0</ele><time>2026-04-12T14:44:40.001Z</time></trkpt><trkpt lat="42.45519788656306" lon="11.592925474742607"><ele>118.0</ele><time>2026-04-12T14:44:41.001Z</time></trkpt><trkpt lat="42.45498224408738" lon="11.593065800046563"><ele>118.0</ele><time>2026-04-12T14:44:42.001Z</time></trkpt><trkpt lat="42.4547650593751" lon="11.593199427229797"><ele>116.0</ele><time>2026-04-12T14:44:43.001Z</time></trkpt><trkpt lat="42.45454778370186" lon="11.593332870256823"><ele>114.0</ele><time>2026-04-12T14:44:44.001Z</time></trkpt><trkpt lat="42.45433469884999" lon="11.59346968178764"><ele>114.0</ele><time>2026-04-12T14:44:45.001Z</time></trkpt><trkpt lat="42.45412321187604" lon="11.593610755566038"><ele>114.0</ele><time>2026-04-12T14:44:46.001Z</time></trkpt><trkpt lat="42.453915200654365" lon="11.593751648034784"><ele>113.5</ele><time>2026-04-12T14:44:47.001Z</time></trkpt><trkpt lat="42.45369979399894" lon="11.59388462530373"><ele>113.0</ele><time>2026-04-12T14:44:48.001Z</time></trkpt><trkpt lat="42.453485145173474" lon="11.594016836820254"><ele>113.0</ele><time>2026-04-12T14:44:49.001Z</time></trkpt><trkpt lat="42.45327916189934" lon="11.594152609620123"><ele>113.0</ele><time>2026-04-12T14:44:50.001Z</time></trkpt><trkpt lat="42.45307287631098" lon="11.59427691539483"><ele>112.33333333333333</ele><time>2026-04-12T14:44:51.001Z</time></trkpt><trkpt lat="42.4528792946014" lon="11.594395273459204"><ele>111.66666666666666</ele><time>2026-04-12T14:44:52.001Z</time></trkpt><trkpt lat="42.452685079179275" lon="11.594534326874587"><ele>111.0</ele><time>2026-04-12T14:44:53.001Z</time></trkpt><trkpt lat="42.45247919972358" lon="11.594676408158977"><ele>111.0</ele><time>2026-04-12T14:44:54.001Z</time></trkpt><trkpt lat="42.452272530296256" lon="11.59480738510309"><ele>111.0</ele><time>2026-04-12T14:44:55.001Z</time></trkpt><trkpt lat="42.45206279531392" lon="11.594936065397661"><ele>110.33333333333334</ele><time>2026-04-12T14:44:56.001Z</time></trkpt><trkpt lat="42.451857022493314" lon="11.59503874188027"><ele>109.66666666666667</ele><time>2026-04-12T14:44:57.001Z</time></trkpt><trkpt lat="42.451678285944894" lon="11.59517787213249"><ele>109.0</ele><time>2026-04-12T14:44:58.001Z</time></trkpt><trkpt lat="42.451497409128415" lon="11.595293888354947"><ele>109.0</ele><time>2026-04-12T14:44:59.001Z</time></trkpt><trkpt lat="42.45131672174127" lon="11.595437673486906"><ele>109.0</ele><time>2026-04-12T14:45:00.001Z</time></trkpt><trkpt lat="42.45115100017791" lon="11.59562477458545"><ele>109.0</ele><time>2026-04-12T14:45:01.001Z</time></trkpt><trkpt lat="42.4509904382956" lon="11.595841760891686"><ele>109.0</ele><time>2026-04-12T14:45:02.001Z</time></trkpt><trkpt lat="42.45080542219066" lon="11.59605599376434"><ele>109.0</ele><time>2026-04-12T14:45:03.001Z</time></trkpt><trkpt lat="42.45063529172258" lon="11.596276368427333"><ele>109.0</ele><time>2026-04-12T14:45:04.001Z</time></trkpt><trkpt lat="42.450465389660216" lon="11.596496447237554"><ele>109.0</ele><time>2026-04-12T14:45:05.001Z</time></trkpt><trkpt lat="42.45030357557314" lon="11.596704738074164"><ele>109.0</ele><time>2026-04-12T14:45:06.001Z</time></trkpt><trkpt lat="42.450151908022896" lon="11.596899283301902"><ele>109.0</ele><time>2026-04-12T14:45:07.001Z</time></trkpt><trkpt lat="42.45000848631558" lon="11.597083251435167"><ele>109.0</ele><time>2026-04-12T14:45:08.001Z</time></trkpt><trkpt lat="42.44987158555934" lon="11.597259265387814"><ele>109.66666666666667</ele><time>2026-04-12T14:45:09.001Z</time></trkpt><trkpt lat="42.44974730156702" lon="11.597447069585135"><ele>110.33333333333334</ele><time>2026-04-12T14:45:10.001Z</time></trkpt><trkpt lat="42.44960941751051" lon="11.5976206233446"><ele>111.0</ele><time>2026-04-12T14:45:11.001Z</time></trkpt><trkpt lat="42.44947013520433" lon="11.597801070338196"><ele>109.0</ele><time>2026-04-12T14:45:12.001Z</time></trkpt><trkpt lat="42.44933041531294" lon="11.597984225206412"><ele>107.0</ele><time>2026-04-12T14:45:13.001Z</time></trkpt><trkpt lat="42.449177213211726" lon="11.598154702244901"><ele>105.0</ele><time>2026-04-12T14:45:14.001Z</time></trkpt><trkpt lat="42.44904087485642" lon="11.59833139075011"><ele>105.0</ele><time>2026-04-12T14:45:15.001Z</time></trkpt><trkpt lat="42.44891130398159" lon="11.59850016375155"><ele>105.0</ele><time>2026-04-12T14:45:16.001Z</time></trkpt><trkpt lat="42.4487942684462" lon="11.598652608741267"><ele>105.0</ele><time>2026-04-12T14:45:17.001Z</time></trkpt><trkpt lat="42.44867670172398" lon="11.598807435358966"><ele>104.33333333333334</ele><time>2026-04-12T14:45:18.001Z</time></trkpt><trkpt lat="42.44857714939585" lon="11.598966151101155"><ele>103.66666666666667</ele><time>2026-04-12T14:45:19.001Z</time></trkpt><trkpt lat="42.448475331350366" lon="11.599112108716856"><ele>103.0</ele><time>2026-04-12T14:45:20.001Z</time></trkpt><trkpt lat="42.4483824091935" lon="11.599271507128181"><ele>103.0</ele><time>2026-04-12T14:45:21.001Z</time></trkpt><trkpt lat="42.44830985748511" lon="11.599448339146692"><ele>103.0</ele><time>2026-04-12T14:45:22.001Z</time></trkpt><trkpt lat="42.44826777197827" lon="11.599665437757817"><ele>103.0</ele><time>2026-04-12T14:45:23.001Z</time></trkpt><trkpt lat="42.44824852875626" lon="11.599909077472937"><ele>103.0</ele><time>2026-04-12T14:45:24.002Z</time></trkpt><trkpt lat="42.44823718448079" lon="11.600181082352105"><ele>103.0</ele><time>2026-04-12T14:45:25.002Z</time></trkpt><trkpt lat="42.44819777809743" lon="11.600462983636646"><ele>103.0</ele><time>2026-04-12T14:45:26.002Z</time></trkpt><trkpt lat="42.44817220726579" lon="11.600755910042608"><ele>101.5</ele><time>2026-04-12T14:45:27.002Z</time></trkpt><trkpt lat="42.44814598668745" lon="11.601056279436106"><ele>100.0</ele><time>2026-04-12T14:45:28.002Z</time></trkpt><trkpt lat="42.448119262177094" lon="11.601368928534624"><ele>99.33333333333334</ele><time>2026-04-12T14:45:29.002Z</time></trkpt><trkpt lat="42.44809217080653" lon="11.601685029892487"><ele>98.66666666666666</ele><time>2026-04-12T14:45:30.002Z</time></trkpt><trkpt lat="42.44806552367043" lon="11.601966438066146"><ele>98.0</ele><time>2026-04-12T14:45:31.002Z</time></trkpt><trkpt lat="42.44803322110386" lon="11.602213348615168"><ele>97.0</ele><time>2026-04-12T14:45:32.002Z</time></trkpt><trkpt lat="42.447961028837156" lon="11.602438913688209"><ele>96.0</ele><time>2026-04-12T14:45:33.002Z</time></trkpt><trkpt lat="42.44784335126719" lon="11.602659767139192"><ele>95.0</ele><time>2026-04-12T14:45:34.002Z</time></trkpt><trkpt lat="42.4476878027423" lon="11.602888585013885"><ele>94.0</ele><time>2026-04-12T14:45:35.002Z</time></trkpt><trkpt lat="42.44752913536677" lon="11.60311897702925"><ele>93.0</ele><time>2026-04-12T14:45:36.002Z</time></trkpt><trkpt lat="42.447379619975294" lon="11.603336077546476"><ele>93.0</ele><time>2026-04-12T14:45:37.002Z</time></trkpt><trkpt lat="42.44723704566637" lon="11.603542578218887"><ele>93.0</ele><time>2026-04-12T14:45:38.002Z</time></trkpt><trkpt lat="42.447096870461536" lon="11.603745604176376"><ele>93.0</ele><time>2026-04-12T14:45:39.002Z</time></trkpt><trkpt lat="42.44695655051745" lon="11.603948839766208"><ele>94.0</ele><time>2026-04-12T14:45:40.002Z</time></trkpt><trkpt lat="42.446816270918355" lon="11.604152016944344"><ele>95.0</ele><time>2026-04-12T14:45:41.002Z</time></trkpt><trkpt lat="42.44668320853532" lon="11.60434380266849"><ele>96.0</ele><time>2026-04-12T14:45:42.002Z</time></trkpt><trkpt lat="42.44655958474073" lon="11.604517384565284"><ele>95.33333333333333</ele><time>2026-04-12T14:45:43.002Z</time></trkpt><trkpt lat="42.44642477144672" lon="11.604681324935349"><ele>94.66666666666666</ele><time>2026-04-12T14:45:44.002Z</time></trkpt><trkpt lat="42.44626339693893" lon="11.604814142028838"><ele>94.0</ele><time>2026-04-12T14:45:45.002Z</time></trkpt><trkpt lat="42.4460819725962" lon="11.604932876970933"><ele>94.0</ele><time>2026-04-12T14:45:46.002Z</time></trkpt><trkpt lat="42.44589300826572" lon="11.605057483509453"><ele>94.0</ele><time>2026-04-12T14:45:47.002Z</time></trkpt><trkpt lat="42.44571440750976" lon="11.605194625874026"><ele>94.0</ele><time>2026-04-12T14:45:48.002Z</time></trkpt><trkpt lat="42.44554130010532" lon="11.605309125362865"><ele>93.33333333333333</ele><time>2026-04-12T14:45:49.002Z</time></trkpt><trkpt lat="42.445365597962" lon="11.605425130170016"><ele>92.66666666666667</ele><time>2026-04-12T14:45:50.002Z</time></trkpt><trkpt lat="42.44518525348609" lon="11.605548271110369"><ele>92.0</ele><time>2026-04-12T14:45:51.002Z</time></trkpt><trkpt lat="42.44499775412597" lon="11.605677442821259"><ele>92.0</ele><time>2026-04-12T14:45:52.002Z</time></trkpt><trkpt lat="42.44480274725132" lon="11.605803842571177"><ele>92.0</ele><time>2026-04-12T14:45:53Z</time></trkpt><trkpt lat="42.44459820158608" lon="11.605937447803583"><ele>92.0</ele><time>2026-04-12T14:45:54Z</time></trkpt><trkpt lat="42.444392443447825" lon="11.606077805917193"><ele>90.0</ele><time>2026-04-12T14:45:55Z</time></trkpt><trkpt lat="42.4441914790158" lon="11.606220734435645"><ele>88.0</ele><time>2026-04-12T14:45:56Z</time></trkpt><trkpt lat="42.44397409284262" lon="11.60634467402076"><ele>86.5</ele><time>2026-04-12T14:45:57Z</time></trkpt><trkpt lat="42.44375908002173" lon="11.60648936371672"><ele>85.0</ele><time>2026-04-12T14:45:58Z</time></trkpt><trkpt lat="42.443543165240094" lon="11.606634972665104"><ele>85.0</ele><time>2026-04-12T14:45:59Z</time></trkpt><trkpt lat="42.443333826935294" lon="11.606776163935137"><ele>85.0</ele><time>2026-04-12T14:46:00Z</time></trkpt><trkpt lat="42.44313970614539" lon="11.60692996542478"><ele>85.5</ele><time>2026-04-12T14:46:01Z</time></trkpt><trkpt lat="42.44293666607324" lon="11.607065531980536"><ele>86.0</ele><time>2026-04-12T14:46:02Z</time></trkpt><trkpt lat="42.44273112378931" lon="11.607201314717921"><ele>86.0</ele><time>2026-04-12T14:46:03Z</time></trkpt><trkpt lat="42.442524515314034" lon="11.607342044601513"><ele>86.0</ele><time>2026-04-12T14:46:04Z</time></trkpt><trkpt lat="42.4423196415969" lon="11.607493726039353"><ele>85.5</ele><time>2026-04-12T14:46:05Z</time></trkpt><trkpt lat="42.4421180080107" lon="11.60765649318864"><ele>85.0</ele><time>2026-04-12T14:46:06Z</time></trkpt><trkpt lat="42.44191568478085" lon="11.607845540335402"><ele>85.0</ele><time>2026-04-12T14:46:07Z</time></trkpt><trkpt lat="42.44171005525783" lon="11.60804603291954"><ele>85.0</ele><time>2026-04-12T14:46:08Z</time></trkpt><trkpt lat="42.44149634620528" lon="11.608246125259354"><ele>85.5</ele><time>2026-04-12T14:46:09Z</time></trkpt><trkpt lat="42.441284989461295" lon="11.608443486689032"><ele>86.0</ele><time>2026-04-12T14:46:10Z</time></trkpt><trkpt lat="42.44109208752711" lon="11.608623808653231"><ele>86.33333333333334</ele><time>2026-04-12T14:46:11Z</time></trkpt><trkpt lat="42.440908016214706" lon="11.608797529908891"><ele>86.66666666666667</ele><time>2026-04-12T14:46:12Z</time></trkpt><trkpt lat="42.44072803987571" lon="11.608972048501688"><ele>87.0</ele><time>2026-04-12T14:46:13Z</time></trkpt><trkpt lat="42.44053554066056" lon="11.609128416970014"><ele>87.5</ele><time>2026-04-12T14:46:14Z</time></trkpt><trkpt lat="42.44034653401432" lon="11.609308312290809"><ele>88.0</ele><time>2026-04-12T14:46:15Z</time></trkpt><trkpt lat="42.44015581584289" lon="11.609489736322635"><ele>89.5</ele><time>2026-04-12T14:46:16Z</time></trkpt><trkpt lat="42.4399677603882" lon="11.609665446722511"><ele>91.0</ele><time>2026-04-12T14:46:17Z</time></trkpt><trkpt lat="42.43977786541165" lon="11.60984342646531"><ele>88.5</ele><time>2026-04-12T14:46:18Z</time></trkpt><trkpt lat="42.439586849021794" lon="11.61002286242323"><ele>86.0</ele><time>2026-04-12T14:46:19Z</time></trkpt><trkpt lat="42.43939355799804" lon="11.610204433507944"><ele>87.5</ele><time>2026-04-12T14:46:20Z</time></trkpt><trkpt lat="42.43920880040288" lon="11.61040421027174"><ele>89.0</ele><time>2026-04-12T14:46:21Z</time></trkpt><trkpt lat="42.439012998820864" lon="11.61058950254718"><ele>89.0</ele><time>2026-04-12T14:46:22Z</time></trkpt><trkpt lat="42.4388253001319" lon="11.61076909712902"><ele>89.0</ele><time>2026-04-12T14:46:23Z</time></trkpt><trkpt lat="42.43865288483536" lon="11.61092539274084"><ele>89.0</ele><time>2026-04-12T14:46:24Z</time></trkpt><trkpt lat="42.43847731751757" lon="11.611076375866439"><ele>89.66666666666667</ele><time>2026-04-12T14:46:25Z</time></trkpt><trkpt lat="42.43829695811219" lon="11.61121899341268"><ele>90.33333333333333</ele><time>2026-04-12T14:46:26Z</time></trkpt><trkpt lat="42.43812002071014" lon="11.611356475855489"><ele>91.0</ele><time>2026-04-12T14:46:27Z</time></trkpt><trkpt lat="42.43794320408859" lon="11.611493251446811"><ele>91.0</ele><time>2026-04-12T14:46:28Z</time></trkpt><trkpt lat="42.437765774909806" lon="11.611631861046323"><ele>91.0</ele><time>2026-04-12T14:46:29Z</time></trkpt><trkpt lat="42.43757448096535" lon="11.611780928902986"><ele>91.0</ele><time>2026-04-12T14:46:30Z</time></trkpt><trkpt lat="42.43738453441773" lon="11.611929109504143"><ele>91.0</ele><time>2026-04-12T14:46:31Z</time></trkpt><trkpt lat="42.43718925805584" lon="11.612081270890691"><ele>91.0</ele><time>2026-04-12T14:46:32Z</time></trkpt><trkpt lat="42.436997738791966" lon="11.612232003687634"><ele>91.0</ele><time>2026-04-12T14:46:33Z</time></trkpt><trkpt lat="42.43680889649622" lon="11.612384831173447"><ele>89.5</ele><time>2026-04-12T14:46:34Z</time></trkpt><trkpt lat="42.43661624895489" lon="11.61253632638087"><ele>88.0</ele><time>2026-04-12T14:46:35Z</time></trkpt><trkpt lat="42.43641959715374" lon="11.612692293260176"><ele>87.5</ele><time>2026-04-12T14:46:36Z</time></trkpt><trkpt lat="42.436220581395" lon="11.612856605499239"><ele>87.0</ele><time>2026-04-12T14:46:37Z</time></trkpt><trkpt lat="42.43602584701328" lon="11.613035357361513"><ele>87.0</ele><time>2026-04-12T14:46:38Z</time></trkpt><trkpt lat="42.43582804408149" lon="11.613236343953208"><ele>87.0</ele><time>2026-04-12T14:46:39Z</time></trkpt><trkpt lat="42.43562568092394" lon="11.613444290090564"><ele>86.0</ele><time>2026-04-12T14:46:40.001Z</time></trkpt><trkpt lat="42.43542116937997" lon="11.613646971507919"><ele>85.0</ele><time>2026-04-12T14:46:41.001Z</time></trkpt><trkpt lat="42.43522026209695" lon="11.613845623953548"><ele>84.5</ele><time>2026-04-12T14:46:42.001Z</time></trkpt><trkpt lat="42.43502293313961" lon="11.614037994887715"><ele>84.0</ele><time>2026-04-12T14:46:43.001Z</time></trkpt><trkpt lat="42.43483012094992" lon="11.614221006160582"><ele>84.0</ele><time>2026-04-12T14:46:44.001Z</time></trkpt><trkpt lat="42.43464127291829" lon="11.614394431305039"><ele>84.0</ele><time>2026-04-12T14:46:45.001Z</time></trkpt><trkpt lat="42.434465475440206" lon="11.614560984641258"><ele>84.0</ele><time>2026-04-12T14:46:46.001Z</time></trkpt><trkpt lat="42.43429469054475" lon="11.614722301743303"><ele>83.66666666666667</ele><time>2026-04-12T14:46:47.001Z</time></trkpt><trkpt lat="42.434126013544315" lon="11.614889322742194"><ele>83.33333333333334</ele><time>2026-04-12T14:46:48.001Z</time></trkpt><trkpt lat="42.43394628984163" lon="11.615062408193893"><ele>83.0</ele><time>2026-04-12T14:46:49.001Z</time></trkpt><trkpt lat="42.43377386786765" lon="11.6152252301679"><ele>81.33333333333334</ele><time>2026-04-12T14:46:50.001Z</time></trkpt><trkpt lat="42.43361112450398" lon="11.615381235127789"><ele>79.66666666666667</ele><time>2026-04-12T14:46:51.001Z</time></trkpt><trkpt lat="42.433453302053096" lon="11.615530882396554"><ele>78.0</ele><time>2026-04-12T14:46:52.001Z</time></trkpt><trkpt lat="42.43330271083612" lon="11.615675039331373"><ele>78.0</ele><time>2026-04-12T14:46:53.001Z</time></trkpt><trkpt lat="42.4331648071339" lon="11.615809254893044"><ele>78.0</ele><time>2026-04-12T14:46:54.001Z</time></trkpt><trkpt lat="42.433042704820274" lon="11.615929193580442"><ele>78.0</ele><time>2026-04-12T14:46:55.001Z</time></trkpt><trkpt lat="42.43292723382536" lon="11.616040828218734"><ele>78.25</ele><time>2026-04-12T14:46:56.001Z</time></trkpt><trkpt lat="42.43281402256555" lon="11.616150797561449"><ele>78.5</ele><time>2026-04-12T14:46:57.001Z</time></trkpt><trkpt lat="42.432714741479074" lon="11.616265635315713"><ele>78.75</ele><time>2026-04-12T14:46:58.001Z</time></trkpt><trkpt lat="42.43263564786565" lon="11.616392222392244"><ele>79.0</ele><time>2026-04-12T14:46:59.001Z</time></trkpt><trkpt lat="42.43259121102353" lon="11.616516652382192"><ele>78.60000000000001</ele><time>2026-04-12T14:47:00.001Z</time></trkpt><trkpt lat="42.43255413353829" lon="11.616611702730502"><ele>78.2</ele><time>2026-04-12T14:47:01.001Z</time></trkpt><trkpt lat="42.43244993026247" lon="11.616686643129048"><ele>77.80000000000001</ele><time>2026-04-12T14:47:03.001Z</time></trkpt><trkpt lat="42.43237601370345" lon="11.616690745686352"><ele>77.4</ele><time>2026-04-12T14:47:04.001Z</time></trkpt><trkpt lat="42.43228667974385" lon="11.616656833112193"><ele>77.0</ele><time>2026-04-12T14:47:05.001Z</time></trkpt><trkpt lat="42.432178606534784" lon="11.616573602743664"><ele>77.0</ele><time>2026-04-12T14:47:06.001Z</time></trkpt><trkpt lat="42.4320727672094" lon="11.616472181738898"><ele>77.0</ele><time>2026-04-12T14:47:07.001Z</time></trkpt><trkpt lat="42.43195705910949" lon="11.616367557582981"><ele>77.0</ele><time>2026-04-12T14:47:08.001Z</time></trkpt><trkpt lat="42.431821677178256" lon="11.616248491912796"><ele>77.0</ele><time>2026-04-12T14:47:09.001Z</time></trkpt><trkpt lat="42.43167985225124" lon="11.616131806223665"><ele>77.0</ele><time>2026-04-12T14:47:10.001Z</time></trkpt><trkpt lat="42.431527003403986" lon="11.61600446167627"><ele>77.0</ele><time>2026-04-12T14:47:11.001Z</time></trkpt><trkpt lat="42.431354189779185" lon="11.615868999335257"><ele>77.0</ele><time>2026-04-12T14:47:12.001Z</time></trkpt><trkpt lat="42.43120124787055" lon="11.615738227746206"><ele>76.33333333333334</ele><time>2026-04-12T14:47:13.001Z</time></trkpt><trkpt lat="42.43104451920236" lon="11.615597514142456"><ele>75.66666666666667</ele><time>2026-04-12T14:47:14.001Z</time></trkpt><trkpt lat="42.43088009066091" lon="11.615451248024929"><ele>75.0</ele><time>2026-04-12T14:47:15.001Z</time></trkpt><trkpt lat="42.43072379798403" lon="11.615320506551116"><ele>76.0</ele><time>2026-04-12T14:47:16.001Z</time></trkpt><trkpt lat="42.43057683011132" lon="11.615196581424026"><ele>77.0</ele><time>2026-04-12T14:47:17.001Z</time></trkpt><trkpt lat="42.430432404965565" lon="11.615097699786807"><ele>78.0</ele><time>2026-04-12T14:47:18.001Z</time></trkpt><trkpt lat="42.430265991793156" lon="11.61504556728784"><ele>78.0</ele><time>2026-04-12T14:47:19.001Z</time></trkpt><trkpt lat="42.430079906943035" lon="11.6150695321351"><ele>78.0</ele><time>2026-04-12T14:47:20.001Z</time></trkpt><trkpt lat="42.429889783832905" lon="11.61516415101574"><ele>78.0</ele><time>2026-04-12T14:47:21.001Z</time></trkpt><trkpt lat="42.42969655853334" lon="11.615273310498226"><ele>79.0</ele><time>2026-04-12T14:47:22.001Z</time></trkpt><trkpt lat="42.42949650256616" lon="11.615372992840545"><ele>80.0</ele><time>2026-04-12T14:47:23.001Z</time></trkpt><trkpt lat="42.4292929099849" lon="11.615460469164447"><ele>81.0</ele><time>2026-04-12T14:47:24.001Z</time></trkpt><trkpt lat="42.42908455938581" lon="11.615539334106883"><ele>81.0</ele><time>2026-04-12T14:47:25.001Z</time></trkpt><trkpt lat="42.42888196085958" lon="11.615617853959963"><ele>81.0</ele><time>2026-04-12T14:47:26.001Z</time></trkpt><trkpt lat="42.42868181798211" lon="11.615698088930872"><ele>81.0</ele><time>2026-04-12T14:47:27.001Z</time></trkpt><trkpt lat="42.42848543087426" lon="11.615776010612745"><ele>81.66666666666667</ele><time>2026-04-12T14:47:28.001Z</time></trkpt><trkpt lat="42.42828194670532" lon="11.615823980718247"><ele>82.33333333333334</ele><time>2026-04-12T14:47:29.002Z</time></trkpt><trkpt lat="42.428074865147266" lon="11.615865233671775"><ele>83.0</ele><time>2026-04-12T14:47:30.002Z</time></trkpt><trkpt lat="42.427857720133595" lon="11.615904650702275"><ele>83.0</ele><time>2026-04-12T14:47:31.002Z</time></trkpt><trkpt lat="42.427633984349036" lon="11.615961836448523"><ele>83.0</ele><time>2026-04-12T14:47:32.002Z</time></trkpt><trkpt lat="42.42740260699775" lon="11.615999876143837"><ele>83.0</ele><time>2026-04-12T14:47:33.002Z</time></trkpt><trkpt lat="42.42717138534261" lon="11.616035024841931"><ele>83.0</ele><time>2026-04-12T14:47:34.002Z</time></trkpt><trkpt lat="42.42693607322042" lon="11.616069914314748"><ele>83.0</ele><time>2026-04-12T14:47:35.002Z</time></trkpt><trkpt lat="42.42670304053991" lon="11.616103829065489"><ele>83.0</ele><time>2026-04-12T14:47:36.002Z</time></trkpt><trkpt lat="42.426466487498644" lon="11.616142335817505"><ele>81.0</ele><time>2026-04-12T14:47:37.002Z</time></trkpt><trkpt lat="42.426228910804525" lon="11.616183695062649"><ele>79.0</ele><time>2026-04-12T14:47:38.002Z</time></trkpt><trkpt lat="42.42599156178228" lon="11.616228933385662"><ele>79.0</ele><time>2026-04-12T14:47:39.002Z</time></trkpt><trkpt lat="42.425754099865976" lon="11.616274795116977"><ele>79.0</ele><time>2026-04-12T14:47:40.002Z</time></trkpt><trkpt lat="42.42552020698047" lon="11.616319144669243"><ele>78.0</ele><time>2026-04-12T14:47:41.002Z</time></trkpt><trkpt lat="42.42529697901347" lon="11.616334180370929"><ele>77.0</ele><time>2026-04-12T14:47:42.002Z</time></trkpt><trkpt lat="42.42507098735464" lon="11.616382809126552"><ele>77.0</ele><time>2026-04-12T14:47:43.002Z</time></trkpt><trkpt lat="42.42483233880279" lon="11.616357988578054"><ele>77.0</ele><time>2026-04-12T14:47:44.002Z</time></trkpt><trkpt lat="42.42458910136686" lon="11.616322709361238"><ele>78.0</ele><time>2026-04-12T14:47:45.002Z</time></trkpt><trkpt lat="42.42433578060723" lon="11.616291284228248"><ele>79.0</ele><time>2026-04-12T14:47:46.002Z</time></trkpt><trkpt lat="42.424091935431704" lon="11.6162272894389"><ele>79.0</ele><time>2026-04-12T14:47:47.002Z</time></trkpt><trkpt lat="42.42386403648862" lon="11.616183657560148"><ele>79.0</ele><time>2026-04-12T14:47:48.002Z</time></trkpt><trkpt lat="42.42365017027445" lon="11.616148072402451"><ele>79.0</ele><time>2026-04-12T14:47:49.002Z</time></trkpt><trkpt lat="42.42344063357533" lon="11.616113071243332"><ele>77.66666666666666</ele><time>2026-04-12T14:47:50.002Z</time></trkpt><trkpt lat="42.42323451563371" lon="11.616078949183107"><ele>76.33333333333333</ele><time>2026-04-12T14:47:51.002Z</time></trkpt><trkpt lat="42.4230281104864" lon="11.616025631603879"><ele>75.0</ele><time>2026-04-12T14:47:52.002Z</time></trkpt><trkpt lat="42.422817485151306" lon="11.615984393853259"><ele>74.0</ele><time>2026-04-12T14:47:53.002Z</time></trkpt><trkpt lat="42.42260203885016" lon="11.615924333951229"><ele>73.0</ele><time>2026-04-12T14:47:54.002Z</time></trkpt><trkpt lat="42.42238530963201" lon="11.61583586576839"><ele>72.0</ele><time>2026-04-12T14:47:55.002Z</time></trkpt><trkpt lat="42.422166582284255" lon="11.615735083805289"><ele>73.5</ele><time>2026-04-12T14:47:56.002Z</time></trkpt><trkpt lat="42.421934744532976" lon="11.615649759131584"><ele>75.0</ele><time>2026-04-12T14:47:57.002Z</time></trkpt><trkpt lat="42.42170957209345" lon="11.615533353663192"><ele>75.0</ele><time>2026-04-12T14:47:58.002Z</time></trkpt><trkpt lat="42.4214845450864" lon="11.615423053870153"><ele>75.0</ele><time>2026-04-12T14:47:58.999Z</time></trkpt><trkpt lat="42.42126632354931" lon="11.615322116331866"><ele>74.33333333333333</ele><time>2026-04-12T14:47:59.999Z</time></trkpt><trkpt lat="42.42104439564051" lon="11.615225239095166"><ele>73.66666666666666</ele><time>2026-04-12T14:48:00.999Z</time></trkpt><trkpt lat="42.42084719794068" lon="11.615112181553844"><ele>73.0</ele><time>2026-04-12T14:48:01.999Z</time></trkpt><trkpt lat="42.42064370385738" lon="11.61500613442408"><ele>71.66666666666666</ele><time>2026-04-12T14:48:02.999Z</time></trkpt><trkpt lat="42.42044228878845" lon="11.614899057801543"><ele>70.33333333333333</ele><time>2026-04-12T14:48:03.999Z</time></trkpt><trkpt lat="42.42023695402505" lon="11.614802316458476"><ele>69.0</ele><time>2026-04-12T14:48:04.999Z</time></trkpt><trkpt lat="42.4200383928987" lon="11.614686599114428"><ele>69.0</ele><time>2026-04-12T14:48:05.999Z</time></trkpt><trkpt lat="42.419844684048215" lon="11.614552034751945"><ele>69.0</ele><time>2026-04-12T14:48:06.999Z</time></trkpt><trkpt lat="42.41964579261554" lon="11.614432801548865"><ele>69.0</ele><time>2026-04-12T14:48:07.999Z</time></trkpt><trkpt lat="42.41943958136588" lon="11.61432863037084"><ele>68.0</ele><time>2026-04-12T14:48:08.999Z</time></trkpt><trkpt lat="42.419237456775036" lon="11.614201700066488"><ele>67.0</ele><time>2026-04-12T14:48:09.999Z</time></trkpt><trkpt lat="42.41902906031035" lon="11.614075821448617"><ele>66.5</ele><time>2026-04-12T14:48:10.999Z</time></trkpt><trkpt lat="42.41881454537368" lon="11.61395021160527"><ele>66.0</ele><time>2026-04-12T14:48:11.999Z</time></trkpt><trkpt lat="42.41859377474542" lon="11.613822965543022"><ele>66.0</ele><time>2026-04-12T14:48:12.999Z</time></trkpt><trkpt lat="42.41836730275867" lon="11.613686432806668"><ele>66.0</ele><time>2026-04-12T14:48:13.999Z</time></trkpt><trkpt lat="42.41812976261138" lon="11.613541919340019"><ele>66.0</ele><time>2026-04-12T14:48:15Z</time></trkpt><trkpt lat="42.41789174536165" lon="11.613395325544255"><ele>66.0</ele><time>2026-04-12T14:48:16Z</time></trkpt><trkpt lat="42.41765206111208" lon="11.613243472170186"><ele>66.0</ele><time>2026-04-12T14:48:17Z</time></trkpt><trkpt lat="42.417408096976665" lon="11.613107426843714"><ele>66.0</ele><time>2026-04-12T14:48:18Z</time></trkpt><trkpt lat="42.417154047324885" lon="11.612999750093056"><ele>64.5</ele><time>2026-04-12T14:48:19Z</time></trkpt><trkpt lat="42.416885484537005" lon="11.61294693786143"><ele>63.0</ele><time>2026-04-12T14:48:20Z</time></trkpt><trkpt lat="42.416616297855256" lon="11.612925106789039"><ele>63.0</ele><time>2026-04-12T14:48:21Z</time></trkpt><trkpt lat="42.416351157925995" lon="11.612914281078746"><ele>63.0</ele><time>2026-04-12T14:48:22Z</time></trkpt><trkpt lat="42.416085776958646" lon="11.612861070085227"><ele>63.0</ele><time>2026-04-12T14:48:23Z</time></trkpt><trkpt lat="42.415830047536716" lon="11.612830633797202"><ele>63.0</ele><time>2026-04-12T14:48:24Z</time></trkpt><trkpt lat="42.415579249131355" lon="11.61281810400736"><ele>63.0</ele><time>2026-04-12T14:48:25Z</time></trkpt><trkpt lat="42.41534198771103" lon="11.61278487071134"><ele>63.0</ele><time>2026-04-12T14:48:26Z</time></trkpt><trkpt lat="42.415121358776744" lon="11.612756218390144"><ele>63.0</ele><time>2026-04-12T14:48:27Z</time></trkpt><trkpt lat="42.414906202178784" lon="11.612735196323253"><ele>63.0</ele><time>2026-04-12T14:48:28Z</time></trkpt><trkpt lat="42.41468753462793" lon="11.612711865783224"><ele>63.0</ele><time>2026-04-12T14:48:29Z</time></trkpt><trkpt lat="42.41447357039017" lon="11.612686174038247"><ele>63.33333333333333</ele><time>2026-04-12T14:48:30Z</time></trkpt><trkpt lat="42.414259328470415" lon="11.612659600943068"><ele>63.666666666666664</ele><time>2026-04-12T14:48:31Z</time></trkpt><trkpt lat="42.41404715244696" lon="11.612630161037192"><ele>64.0</ele><time>2026-04-12T14:48:32Z</time></trkpt><trkpt lat="42.413832432467046" lon="11.612605266432055"><ele>65.0</ele><time>2026-04-12T14:48:33Z</time></trkpt><trkpt lat="42.41361753597611" lon="11.612581959721787"><ele>66.0</ele><time>2026-04-12T14:48:34Z</time></trkpt><trkpt lat="42.413398651072576" lon="11.61255658538486"><ele>67.0</ele><time>2026-04-12T14:48:35Z</time></trkpt><trkpt lat="42.4131790917843" lon="11.612527909511758"><ele>67.66666666666666</ele><time>2026-04-12T14:48:36Z</time></trkpt><trkpt lat="42.412960668476764" lon="11.612492974274241"><ele>68.33333333333333</ele><time>2026-04-12T14:48:37Z</time></trkpt><trkpt lat="42.41274067120395" lon="11.612423638500038"><ele>69.0</ele><time>2026-04-12T14:48:38Z</time></trkpt><trkpt lat="42.412526159233494" lon="11.612315985194494"><ele>69.0</ele><time>2026-04-12T14:48:39Z</time></trkpt><trkpt lat="42.41233063353412" lon="11.612214352241736"><ele>69.0</ele><time>2026-04-12T14:48:40Z</time></trkpt><trkpt lat="42.41214128801658" lon="11.612142737452164"><ele>69.0</ele><time>2026-04-12T14:48:41Z</time></trkpt><trkpt lat="42.41194968174608" lon="11.612096086656924"><ele>69.66666666666667</ele><time>2026-04-12T14:48:42Z</time></trkpt><trkpt lat="42.41173617417531" lon="11.61208148390029"><ele>70.33333333333334</ele><time>2026-04-12T14:48:43Z</time></trkpt><trkpt lat="42.411525328851994" lon="11.612098047750587"><ele>71.0</ele><time>2026-04-12T14:48:44Z</time></trkpt><trkpt lat="42.41130503706696" lon="11.612129473302915"><ele>72.5</ele><time>2026-04-12T14:48:45Z</time></trkpt><trkpt lat="42.41108172787473" lon="11.612151081464633"><ele>74.0</ele><time>2026-04-12T14:48:46Z</time></trkpt><trkpt lat="42.410854931036916" lon="11.612167371111415"><ele>74.0</ele><time>2026-04-12T14:48:47Z</time></trkpt><trkpt lat="42.41062099828015" lon="11.612181552171965"><ele>74.0</ele><time>2026-04-12T14:48:48.001Z</time></trkpt><trkpt lat="42.41038201576281" lon="11.612195677229195"><ele>73.5</ele><time>2026-04-12T14:48:49.001Z</time></trkpt><trkpt lat="42.41014490932103" lon="11.612208835346484"><ele>73.0</ele><time>2026-04-12T14:48:50.001Z</time></trkpt><trkpt lat="42.40989415950664" lon="11.61222513729941"><ele>73.0</ele><time>2026-04-12T14:48:51.001Z</time></trkpt><trkpt lat="42.40965445942959" lon="11.612239007523863"><ele>73.0</ele><time>2026-04-12T14:48:52.001Z</time></trkpt><trkpt lat="42.40941783559383" lon="11.612256639727415"><ele>73.0</ele><time>2026-04-12T14:48:53.001Z</time></trkpt><trkpt lat="42.409181877187955" lon="11.61227096621089"><ele>73.0</ele><time>2026-04-12T14:48:54.001Z</time></trkpt><trkpt lat="42.40894468894182" lon="11.612290456164267"><ele>73.0</ele><time>2026-04-12T14:48:55.001Z</time></trkpt><trkpt lat="42.40871076475568" lon="11.612311490362062"><ele>73.0</ele><time>2026-04-12T14:48:56.001Z</time></trkpt><trkpt lat="42.408480980098346" lon="11.612326267858458"><ele>73.0</ele><time>2026-04-12T14:48:57.001Z</time></trkpt><trkpt lat="42.40825338609263" lon="11.612339169055613"><ele>73.0</ele><time>2026-04-12T14:48:58.001Z</time></trkpt><trkpt lat="42.408023901959915" lon="11.612354756278696"><ele>73.0</ele><time>2026-04-12T14:48:59.001Z</time></trkpt><trkpt lat="42.40779993872502" lon="11.612368713626093"><ele>73.0</ele><time>2026-04-12T14:49:00.001Z</time></trkpt><trkpt lat="42.407578152323175" lon="11.612384784539291"><ele>73.0</ele><time>2026-04-12T14:49:01.001Z</time></trkpt><trkpt lat="42.407353870133264" lon="11.61240203602146"><ele>72.0</ele><time>2026-04-12T14:49:02.001Z</time></trkpt><trkpt lat="42.40712764707529" lon="11.612416156677641"><ele>71.0</ele><time>2026-04-12T14:49:03.001Z</time></trkpt><trkpt lat="42.406904667061546" lon="11.612445762688067"><ele>71.0</ele><time>2026-04-12T14:49:04.001Z</time></trkpt><trkpt lat="42.406678555406586" lon="11.612521063847117"><ele>71.0</ele><time>2026-04-12T14:49:05.001Z</time></trkpt><trkpt lat="42.40646087924245" lon="11.612636089215336"><ele>70.5</ele><time>2026-04-12T14:49:06.001Z</time></trkpt><trkpt lat="42.406254852903864" lon="11.61274537141758"><ele>70.0</ele><time>2026-04-12T14:49:07.001Z</time></trkpt><trkpt lat="42.406039123329926" lon="11.612871536145274"><ele>70.0</ele><time>2026-04-12T14:49:08.001Z</time></trkpt><trkpt lat="42.405829239203584" lon="11.61298019655501"><ele>70.0</ele><time>2026-04-12T14:49:09.001Z</time></trkpt><trkpt lat="42.40562041623733" lon="11.613087087068815"><ele>70.0</ele><time>2026-04-12T14:49:10.001Z</time></trkpt><trkpt lat="42.40540915161862" lon="11.61319799228579"><ele>70.0</ele><time>2026-04-12T14:49:11.001Z</time></trkpt><trkpt lat="42.40519793042785" lon="11.61330766245313"><ele>70.0</ele><time>2026-04-12T14:49:12.001Z</time></trkpt><trkpt lat="42.40498846566974" lon="11.61341303753761"><ele>70.0</ele><time>2026-04-12T14:49:13.001Z</time></trkpt><trkpt lat="42.40478113844878" lon="11.613519923407061"><ele>70.0</ele><time>2026-04-12T14:49:14.001Z</time></trkpt><trkpt lat="42.404575133626246" lon="11.613629658036091"><ele>70.0</ele><time>2026-04-12T14:49:15.001Z</time></trkpt><trkpt lat="42.40436887475316" lon="11.613739250170145"><ele>71.0</ele><time>2026-04-12T14:49:16.001Z</time></trkpt><trkpt lat="42.40415653798291" lon="11.613850854716329"><ele>72.0</ele><time>2026-04-12T14:49:17.001Z</time></trkpt><trkpt lat="42.40394595556922" lon="11.613959410939943"><ele>71.5</ele><time>2026-04-12T14:49:18.001Z</time></trkpt><trkpt lat="42.403727665416966" lon="11.614070141119319"><ele>71.0</ele><time>2026-04-12T14:49:19.001Z</time></trkpt><trkpt lat="42.403509302528" lon="11.614182960262784"><ele>71.0</ele><time>2026-04-12T14:49:20.001Z</time></trkpt><trkpt lat="42.40328199994343" lon="11.614302686155456"><ele>71.0</ele><time>2026-04-12T14:49:21.001Z</time></trkpt><trkpt lat="42.403060776741874" lon="11.614421399423208"><ele>70.5</ele><time>2026-04-12T14:49:22.001Z</time></trkpt><trkpt lat="42.4028387460647" lon="11.614539426933018"><ele>70.0</ele><time>2026-04-12T14:49:23.001Z</time></trkpt><trkpt lat="42.40262144742545" lon="11.614652035463786"><ele>70.0</ele><time>2026-04-12T14:49:24.001Z</time></trkpt><trkpt lat="42.40240050927395" lon="11.614761834493937"><ele>70.0</ele><time>2026-04-12T14:49:25.001Z</time></trkpt><trkpt lat="42.40218452154322" lon="11.61487128357775"><ele>69.5</ele><time>2026-04-12T14:49:26.001Z</time></trkpt><trkpt lat="42.401971812139536" lon="11.614977881184293"><ele>69.0</ele><time>2026-04-12T14:49:27.001Z</time></trkpt><trkpt lat="42.40175343021115" lon="11.615089462648916"><ele>69.0</ele><time>2026-04-12T14:49:28.001Z</time></trkpt><trkpt lat="42.40153853846168" lon="11.615202601030715"><ele>69.0</ele><time>2026-04-12T14:49:29.001Z</time></trkpt><trkpt lat="42.401320696455706" lon="11.615319674714666"><ele>66.0</ele><time>2026-04-12T14:49:30.001Z</time></trkpt><trkpt lat="42.40110120641062" lon="11.61543318954908"><ele>63.0</ele><time>2026-04-12T14:49:31.001Z</time></trkpt><trkpt lat="42.40088120292673" lon="11.615546111443381"><ele>63.0</ele><time>2026-04-12T14:49:32.001Z</time></trkpt><trkpt lat="42.40065694784009" lon="11.615662886627257"><ele>63.0</ele><time>2026-04-12T14:49:33.002Z</time></trkpt><trkpt lat="42.40042975605561" lon="11.6157819723885"><ele>62.5</ele><time>2026-04-12T14:49:34.002Z</time></trkpt><trkpt lat="42.4002076830416" lon="11.615894241730738"><ele>62.0</ele><time>2026-04-12T14:49:35.002Z</time></trkpt><trkpt lat="42.400004630813406" lon="11.616000037929503"><ele>62.0</ele><time>2026-04-12T14:49:36.002Z</time></trkpt><trkpt lat="42.39981340133709" lon="11.61610024691434"><ele>62.0</ele><time>2026-04-12T14:49:37.002Z</time></trkpt><trkpt lat="42.3996281857873" lon="11.616200281611814"><ele>62.0</ele><time>2026-04-12T14:49:38.002Z</time></trkpt><trkpt lat="42.39944044182269" lon="11.616274934962977"><ele>63.66666666666667</ele><time>2026-04-12T14:49:39.002Z</time></trkpt><trkpt lat="42.3992553755325" lon="11.616355146023054"><ele>65.33333333333333</ele><time>2026-04-12T14:49:40.002Z</time></trkpt><trkpt lat="42.399058955136475" lon="11.616379584183345"><ele>67.0</ele><time>2026-04-12T14:49:41.002Z</time></trkpt><trkpt lat="42.39884854349446" lon="11.616331090233373"><ele>66.33333333333333</ele><time>2026-04-12T14:49:42.002Z</time></trkpt><trkpt lat="42.398632074314676" lon="11.616275394802269"><ele>65.66666666666667</ele><time>2026-04-12T14:49:43.002Z</time></trkpt><trkpt lat="42.398408661593024" lon="11.616219084116995"><ele>65.0</ele><time>2026-04-12T14:49:44.002Z</time></trkpt><trkpt lat="42.398181685021946" lon="11.616150488603285"><ele>65.0</ele><time>2026-04-12T14:49:45.002Z</time></trkpt><trkpt lat="42.397945790902405" lon="11.616088796385604"><ele>65.0</ele><time>2026-04-12T14:49:46.002Z</time></trkpt><trkpt lat="42.397712337276964" lon="11.61602761337068"><ele>65.0</ele><time>2026-04-12T14:49:47.002Z</time></trkpt><trkpt lat="42.39747641110061" lon="11.6159610881072"><ele>65.0</ele><time>2026-04-12T14:49:48.002Z</time></trkpt><trkpt lat="42.39724031578368" lon="11.615894802359573"><ele>66.0</ele><time>2026-04-12T14:49:49.002Z</time></trkpt><trkpt lat="42.39699734195368" lon="11.615831869302804"><ele>67.0</ele><time>2026-04-12T14:49:50.002Z</time></trkpt><trkpt lat="42.3967546694174" lon="11.615767841580347"><ele>67.0</ele><time>2026-04-12T14:49:51.002Z</time></trkpt><trkpt lat="42.39651398148211" lon="11.615698654317905"><ele>67.0</ele><time>2026-04-12T14:49:52.002Z</time></trkpt><trkpt lat="42.39627240473699" lon="11.615629052166259"><ele>65.5</ele><time>2026-04-12T14:49:53.002Z</time></trkpt><trkpt lat="42.39603133816599" lon="11.615563981223412"><ele>64.0</ele><time>2026-04-12T14:49:54.002Z</time></trkpt><trkpt lat="42.395792188915216" lon="11.6155032259833"><ele>64.0</ele><time>2026-04-12T14:49:55.002Z</time></trkpt><trkpt lat="42.39555363267119" lon="11.615443737051256"><ele>64.0</ele><time>2026-04-12T14:49:56.002Z</time></trkpt><trkpt lat="42.39531896206302" lon="11.615381437744979"><ele>63.5</ele><time>2026-04-12T14:49:57.002Z</time></trkpt><trkpt lat="42.395087805750215" lon="11.615314962366211"><ele>63.0</ele><time>2026-04-12T14:49:58.002Z</time></trkpt><trkpt lat="42.3948599520371" lon="11.615248938624768"><ele>62.5</ele><time>2026-04-12T14:49:59.002Z</time></trkpt><trkpt lat="42.39463304843481" lon="11.615189742376533"><ele>62.0</ele><time>2026-04-12T14:50:00.002Z</time></trkpt><trkpt lat="42.39439941792679" lon="11.615129720748849"><ele>62.0</ele><time>2026-04-12T14:50:01.002Z</time></trkpt><trkpt lat="42.394169244354735" lon="11.615070112530542"><ele>62.0</ele><time>2026-04-12T14:50:02.002Z</time></trkpt><trkpt lat="42.39393489396806" lon="11.615010567289842"><ele>62.0</ele><time>2026-04-12T14:50:03.002Z</time></trkpt><trkpt lat="42.39370265374233" lon="11.61494353938077"><ele>62.0</ele><time>2026-04-12T14:50:04.002Z</time></trkpt><trkpt lat="42.393472804963245" lon="11.614879327120317"><ele>62.0</ele><time>2026-04-12T14:50:05Z</time></trkpt><trkpt lat="42.393244458060934" lon="11.614821018541562"><ele>62.0</ele><time>2026-04-12T14:50:06Z</time></trkpt><trkpt lat="42.393013138648314" lon="11.614761130296564"><ele>62.0</ele><time>2026-04-12T14:50:07Z</time></trkpt><trkpt lat="42.3927804138719" lon="11.614698796090961"><ele>62.0</ele><time>2026-04-12T14:50:08Z</time></trkpt><trkpt lat="42.39254310694907" lon="11.6146321165052"><ele>62.0</ele><time>2026-04-12T14:50:09Z</time></trkpt><trkpt lat="42.39230170122843" lon="11.61456458237033"><ele>62.0</ele><time>2026-04-12T14:50:10Z</time></trkpt><trkpt lat="42.3920575903639" lon="11.614500729399019"><ele>59.5</ele><time>2026-04-12T14:50:11Z</time></trkpt><trkpt lat="42.391804038064706" lon="11.614435490413397"><ele>57.0</ele><time>2026-04-12T14:50:12Z</time></trkpt><trkpt lat="42.39155445594557" lon="11.614365100325783"><ele>58.0</ele><time>2026-04-12T14:50:13Z</time></trkpt><trkpt lat="42.39129855626083" lon="11.614295868587888"><ele>59.0</ele><time>2026-04-12T14:50:14Z</time></trkpt><trkpt lat="42.39104446643458" lon="11.614227137834032"><ele>59.0</ele><time>2026-04-12T14:50:15Z</time></trkpt><trkpt lat="42.390790273701825" lon="11.614162558773419"><ele>59.0</ele><time>2026-04-12T14:50:16Z</time></trkpt><trkpt lat="42.39055067151484" lon="11.614102169720939"><ele>57.5</ele><time>2026-04-12T14:50:17Z</time></trkpt><trkpt lat="42.39032742806692" lon="11.6140447534127"><ele>56.0</ele><time>2026-04-12T14:50:18Z</time></trkpt><trkpt lat="42.390104288619696" lon="11.613985312993266"><ele>56.0</ele><time>2026-04-12T14:50:19Z</time></trkpt><trkpt lat="42.389875671457446" lon="11.613922893182064"><ele>56.0</ele><time>2026-04-12T14:50:20Z</time></trkpt><trkpt lat="42.38964682266508" lon="11.613858115716896"><ele>56.5</ele><time>2026-04-12T14:50:21Z</time></trkpt><trkpt lat="42.38941844695882" lon="11.613788997494307"><ele>57.0</ele><time>2026-04-12T14:50:22Z</time></trkpt><trkpt lat="42.38919425403032" lon="11.613730034148261"><ele>57.0</ele><time>2026-04-12T14:50:23Z</time></trkpt><trkpt lat="42.388972764074026" lon="11.613689183524253"><ele>57.0</ele><time>2026-04-12T14:50:24Z</time></trkpt><trkpt lat="42.38874377197245" lon="11.613674703929695"><ele>57.5</ele><time>2026-04-12T14:50:25Z</time></trkpt><trkpt lat="42.38850955690556" lon="11.613666767437346"><ele>58.0</ele><time>2026-04-12T14:50:26Z</time></trkpt><trkpt lat="42.388276412654456" lon="11.613662054592366"><ele>57.5</ele><time>2026-04-12T14:50:27Z</time></trkpt><trkpt lat="42.38803582708938" lon="11.613655184753625"><ele>57.0</ele><time>2026-04-12T14:50:28Z</time></trkpt><trkpt lat="42.38778816565339" lon="11.61364546864872"><ele>57.0</ele><time>2026-04-12T14:50:29Z</time></trkpt><trkpt lat="42.38754192183297" lon="11.61363240854031"><ele>57.0</ele><time>2026-04-12T14:50:30Z</time></trkpt><trkpt lat="42.387292718371974" lon="11.613619719922102"><ele>56.0</ele><time>2026-04-12T14:50:31Z</time></trkpt><trkpt lat="42.38703756745184" lon="11.613600277621721"><ele>55.0</ele><time>2026-04-12T14:50:32Z</time></trkpt><trkpt lat="42.386796411913046" lon="11.613584997630028"><ele>55.0</ele><time>2026-04-12T14:50:33Z</time></trkpt><trkpt lat="42.3865528183573" lon="11.61356968385114"><ele>55.0</ele><time>2026-04-12T14:50:34Z</time></trkpt><trkpt lat="42.38631209591663" lon="11.613556769811796"><ele>55.0</ele><time>2026-04-12T14:50:35Z</time></trkpt><trkpt lat="42.386072333026135" lon="11.613545165570285"><ele>55.0</ele><time>2026-04-12T14:50:36Z</time></trkpt><trkpt lat="42.385834899664864" lon="11.613534030223997"><ele>55.0</ele><time>2026-04-12T14:50:37Z</time></trkpt><trkpt lat="42.38559884444423" lon="11.613520658517032"><ele>55.0</ele><time>2026-04-12T14:50:38Z</time></trkpt><trkpt lat="42.385368976917256" lon="11.613508814293713"><ele>55.0</ele><time>2026-04-12T14:50:39Z</time></trkpt><trkpt lat="42.38514217362624" lon="11.613502648434173"><ele>55.0</ele><time>2026-04-12T14:50:40Z</time></trkpt><trkpt lat="42.38491807328838" lon="11.61349595127547"><ele>55.0</ele><time>2026-04-12T14:50:41Z</time></trkpt><trkpt lat="42.38469697930784" lon="11.613486661527043"><ele>55.0</ele><time>2026-04-12T14:50:42.001Z</time></trkpt><trkpt lat="42.38447615288638" lon="11.61347967975533"><ele>55.0</ele><time>2026-04-12T14:50:43.001Z</time></trkpt><trkpt lat="42.38426008936694" lon="11.613465514825796"><ele>54.666666666666664</ele><time>2026-04-12T14:50:44.001Z</time></trkpt><trkpt lat="42.38404264168032" lon="11.613455300934604"><ele>54.33333333333333</ele><time>2026-04-12T14:50:45.001Z</time></trkpt><trkpt lat="42.38382345357734" lon="11.613448247318544"><ele>54.0</ele><time>2026-04-12T14:50:46.001Z</time></trkpt><trkpt lat="42.383599521521994" lon="11.613441682863847"><ele>53.5</ele><time>2026-04-12T14:50:47.001Z</time></trkpt><trkpt lat="42.3833735277767" lon="11.613431837108292"><ele>53.0</ele><time>2026-04-12T14:50:48.001Z</time></trkpt><trkpt lat="42.38314784938109" lon="11.613420643953106"><ele>53.0</ele><time>2026-04-12T14:50:49.001Z</time></trkpt><trkpt lat="42.3829141829884" lon="11.613411079099306"><ele>53.0</ele><time>2026-04-12T14:50:50.001Z</time></trkpt><trkpt lat="42.382681290122825" lon="11.613406173239559"><ele>53.0</ele><time>2026-04-12T14:50:51.001Z</time></trkpt><trkpt lat="42.38243649701117" lon="11.613396249494718"><ele>53.0</ele><time>2026-04-12T14:50:52.001Z</time></trkpt><trkpt lat="42.3821922759768" lon="11.613383784114653"><ele>52.0</ele><time>2026-04-12T14:50:53.001Z</time></trkpt><trkpt lat="42.381948604619424" lon="11.613372776295906"><ele>51.0</ele><time>2026-04-12T14:50:54.001Z</time></trkpt><trkpt lat="42.38172437972552" lon="11.613362418827386"><ele>51.0</ele><time>2026-04-12T14:50:55.001Z</time></trkpt><trkpt lat="42.38150117654876" lon="11.61334625497704"><ele>51.0</ele><time>2026-04-12T14:50:56.001Z</time></trkpt><trkpt lat="42.38128034607053" lon="11.613327436454021"><ele>51.0</ele><time>2026-04-12T14:50:57.001Z</time></trkpt><trkpt lat="42.381050034738024" lon="11.613319369096487"><ele>50.33333333333333</ele><time>2026-04-12T14:50:58.001Z</time></trkpt><trkpt lat="42.380820452616405" lon="11.613307859583825"><ele>49.666666666666664</ele><time>2026-04-12T14:50:59.001Z</time></trkpt><trkpt lat="42.38060580774953" lon="11.61329431090516"><ele>49.0</ele><time>2026-04-12T14:51:00.001Z</time></trkpt><trkpt lat="42.380415571235275" lon="11.613272416957626"><ele>49.0</ele><time>2026-04-12T14:51:01.001Z</time></trkpt><trkpt lat="42.38022929004298" lon="11.613234875837176"><ele>49.0</ele><time>2026-04-12T14:51:02.001Z</time></trkpt><trkpt lat="42.38004417416805" lon="11.613145917835952"><ele>49.0</ele><time>2026-04-12T14:51:03.001Z</time></trkpt><trkpt lat="42.379864850523866" lon="11.613003488680532"><ele>49.0</ele><time>2026-04-12T14:51:04.001Z</time></trkpt><trkpt lat="42.3796940988424" lon="11.61284386118654"><ele>49.0</ele><time>2026-04-12T14:51:05.001Z</time></trkpt><trkpt lat="42.379520278346256" lon="11.61267779035484"><ele>49.0</ele><time>2026-04-12T14:51:06.001Z</time></trkpt><trkpt lat="42.37933993805424" lon="11.612508263267332"><ele>49.0</ele><time>2026-04-12T14:51:07.001Z</time></trkpt><trkpt lat="42.37915315151073" lon="11.6123481001363"><ele>49.0</ele><time>2026-04-12T14:51:08.001Z</time></trkpt><trkpt lat="42.37896718003434" lon="11.61219008460813"><ele>49.0</ele><time>2026-04-12T14:51:09.001Z</time></trkpt><trkpt lat="42.37879170738476" lon="11.612033916226167"><ele>49.666666666666664</ele><time>2026-04-12T14:51:10.001Z</time></trkpt><trkpt lat="42.37862112818573" lon="11.611879755546525"><ele>50.33333333333333</ele><time>2026-04-12T14:51:11.001Z</time></trkpt><trkpt lat="42.37844846606511" lon="11.611726432022714"><ele>51.0</ele><time>2026-04-12T14:51:12.001Z</time></trkpt><trkpt lat="42.37827709398542" lon="11.611574050020538"><ele>51.0</ele><time>2026-04-12T14:51:13.001Z</time></trkpt><trkpt lat="42.378093574452876" lon="11.611412865074103"><ele>51.0</ele><time>2026-04-12T14:51:14.001Z</time></trkpt><trkpt lat="42.37791789892849" lon="11.611237515755906"><ele>51.0</ele><time>2026-04-12T14:51:15.001Z</time></trkpt><trkpt lat="42.37774105858644" lon="11.611051113748417"><ele>50.0</ele><time>2026-04-12T14:51:16.001Z</time></trkpt><trkpt lat="42.37755344183912" lon="11.610876311651024"><ele>49.0</ele><time>2026-04-12T14:51:17.001Z</time></trkpt><trkpt lat="42.37738629024237" lon="11.610697914727426"><ele>48.0</ele><time>2026-04-12T14:51:18.001Z</time></trkpt><trkpt lat="42.37722570671278" lon="11.610533734769392"><ele>47.333333333333336</ele><time>2026-04-12T14:51:19.001Z</time></trkpt><trkpt lat="42.377077223878" lon="11.610378305318909"><ele>46.66666666666667</ele><time>2026-04-12T14:51:20.001Z</time></trkpt><trkpt lat="42.37692737514757" lon="11.610245760418003"><ele>46.0</ele><time>2026-04-12T14:51:21.001Z</time></trkpt><trkpt lat="42.376764253643515" lon="11.610130868193357"><ele>46.0</ele><time>2026-04-12T14:51:22.001Z</time></trkpt><trkpt lat="42.376589039806404" lon="11.610031414637232"><ele>46.0</ele><time>2026-04-12T14:51:23.001Z</time></trkpt><trkpt lat="42.37639886368399" lon="11.609945644115767"><ele>46.0</ele><time>2026-04-12T14:51:24.001Z</time></trkpt><trkpt lat="42.37619996838948" lon="11.609874998158054"><ele>45.333333333333336</ele><time>2026-04-12T14:51:25.001Z</time></trkpt><trkpt lat="42.375996264523344" lon="11.609819097538205"><ele>44.666666666666664</ele><time>2026-04-12T14:51:26.001Z</time></trkpt><trkpt lat="42.37578957254834" lon="11.609769149067152"><ele>44.0</ele><time>2026-04-12T14:51:27.001Z</time></trkpt><trkpt lat="42.375588437193784" lon="11.60972656869942"><ele>44.0</ele><time>2026-04-12T14:51:28.002Z</time></trkpt><trkpt lat="42.37539060184525" lon="11.60969960552931"><ele>44.0</ele><time>2026-04-12T14:51:29.002Z</time></trkpt><trkpt lat="42.37519614944292" lon="11.609704472364841"><ele>44.0</ele><time>2026-04-12T14:51:30.002Z</time></trkpt><trkpt lat="42.37500982131724" lon="11.609717027523887"><ele>44.0</ele><time>2026-04-12T14:51:31.002Z</time></trkpt><trkpt lat="42.37483419326716" lon="11.609713117717193"><ele>44.0</ele><time>2026-04-12T14:51:32.002Z</time></trkpt><trkpt lat="42.37467413407124" lon="11.609722777894596"><ele>44.0</ele><time>2026-04-12T14:51:33.002Z</time></trkpt><trkpt lat="42.37452793584723" lon="11.609731700054859"><ele>44.0</ele><time>2026-04-12T14:51:34.002Z</time></trkpt><trkpt lat="42.37438924849979" lon="11.609761109251174"><ele>44.0</ele><time>2026-04-12T14:51:35.002Z</time></trkpt><trkpt lat="42.37427475846585" lon="11.609746631071996"><ele>44.0</ele><time>2026-04-12T14:51:36.002Z</time></trkpt><trkpt lat="42.374159740501" lon="11.609719487899255"><ele>44.0</ele><time>2026-04-12T14:51:37.002Z</time></trkpt><trkpt lat="42.374055830984034" lon="11.609641831481278"><ele>44.0</ele><time>2026-04-12T14:51:38.002Z</time></trkpt><trkpt lat="42.37395642614052" lon="11.609538627193475"><ele>44.0</ele><time>2026-04-12T14:51:39.002Z</time></trkpt><trkpt lat="42.37385374866951" lon="11.60941305228587"><ele>44.0</ele><time>2026-04-12T14:51:40.002Z</time></trkpt><trkpt lat="42.37374733677119" lon="11.609273900247667"><ele>44.0</ele><time>2026-04-12T14:51:41.002Z</time></trkpt><trkpt lat="42.37363070297699" lon="11.609133609901274"><ele>43.33333333333333</ele><time>2026-04-12T14:51:42.002Z</time></trkpt><trkpt lat="42.373507898913054" lon="11.608995436961258"><ele>42.666666666666664</ele><time>2026-04-12T14:51:43.002Z</time></trkpt><trkpt lat="42.3733718207813" lon="11.608841884824624"><ele>42.0</ele><time>2026-04-12T14:51:44.002Z</time></trkpt><trkpt lat="42.37323105112059" lon="11.608674456616997"><ele>41.666666666666664</ele><time>2026-04-12T14:51:45.002Z</time></trkpt><trkpt lat="42.37308751252472" lon="11.608507471633951"><ele>41.33333333333333</ele><time>2026-04-12T14:51:46.002Z</time></trkpt><trkpt lat="42.37294356872125" lon="11.608335136764056"><ele>41.0</ele><time>2026-04-12T14:51:47.002Z</time></trkpt><trkpt lat="42.372798714595625" lon="11.60816457641345"><ele>41.0</ele><time>2026-04-12T14:51:48.002Z</time></trkpt><trkpt lat="42.372660733810214" lon="11.60800338507403"><ele>41.0</ele><time>2026-04-12T14:51:49.002Z</time></trkpt><trkpt lat="42.37251259714939" lon="11.607831085091357"><ele>41.0</ele><time>2026-04-12T14:51:50.002Z</time></trkpt><trkpt lat="42.372353320824686" lon="11.607636951840778"><ele>40.0</ele><time>2026-04-12T14:51:51.002Z</time></trkpt><trkpt lat="42.372197723757466" lon="11.607450974811464"><ele>39.0</ele><time>2026-04-12T14:51:52.002Z</time></trkpt><trkpt lat="42.372040843358995" lon="11.607263726091249"><ele>38.0</ele><time>2026-04-12T14:51:53.002Z</time></trkpt><trkpt lat="42.371878950666776" lon="11.60707652187623"><ele>38.33333333333333</ele><time>2026-04-12T14:51:54.002Z</time></trkpt><trkpt lat="42.37171402048471" lon="11.606883370724187"><ele>38.666666666666664</ele><time>2026-04-12T14:51:55.002Z</time></trkpt><trkpt lat="42.37154389665275" lon="11.606681062594273"><ele>39.0</ele><time>2026-04-12T14:51:56.002Z</time></trkpt><trkpt lat="42.37137538431977" lon="11.606479121993402"><ele>39.0</ele><time>2026-04-12T14:51:57.002Z</time></trkpt><trkpt lat="42.371200481422406" lon="11.606269896617405"><ele>39.0</ele><time>2026-04-12T14:51:58.002Z</time></trkpt><trkpt lat="42.371026141951276" lon="11.606063905350704"><ele>39.0</ele><time>2026-04-12T14:51:59.002Z</time></trkpt><trkpt lat="42.37084261605305" lon="11.605853701706728"><ele>39.0</ele><time>2026-04-12T14:52:00.002Z</time></trkpt><trkpt lat="42.37065766060018" lon="11.605635874860223"><ele>39.5</ele><time>2026-04-12T14:52:01.002Z</time></trkpt><trkpt lat="42.370478999777184" lon="11.605419824978672"><ele>40.0</ele><time>2026-04-12T14:52:02.002Z</time></trkpt><trkpt lat="42.37030682936347" lon="11.605214253107638"><ele>39.0</ele><time>2026-04-12T14:52:03.002Z</time></trkpt><trkpt lat="42.37012957173928" lon="11.605003418992174"><ele>38.0</ele><time>2026-04-12T14:52:04.002Z</time></trkpt><trkpt lat="42.36994776648208" lon="11.604786640681994"><ele>38.0</ele><time>2026-04-12T14:52:05.002Z</time></trkpt><trkpt lat="42.36976299569002" lon="11.604571100937475"><ele>38.0</ele><time>2026-04-12T14:52:06.002Z</time></trkpt><trkpt lat="42.36957865646245" lon="11.604354207622476"><ele>37.5</ele><time>2026-04-12T14:52:07.002Z</time></trkpt><trkpt lat="42.36939439932432" lon="11.604137921944458"><ele>37.0</ele><time>2026-04-12T14:52:08.002Z</time></trkpt><trkpt lat="42.36921245873659" lon="11.60392372410672"><ele>37.0</ele><time>2026-04-12T14:52:09.002Z</time></trkpt><trkpt lat="42.36902512553472" lon="11.603705197455147"><ele>37.0</ele><time>2026-04-12T14:52:10.002Z</time></trkpt><trkpt lat="42.3688398563435" lon="11.603488376972422"><ele>36.0</ele><time>2026-04-12T14:52:11Z</time></trkpt><trkpt lat="42.368652663501" lon="11.603268196828406"><ele>35.0</ele><time>2026-04-12T14:52:12Z</time></trkpt><trkpt lat="42.368466562347194" lon="11.603046526859853"><ele>34.5</ele><time>2026-04-12T14:52:13Z</time></trkpt><trkpt lat="42.36828270376622" lon="11.602822326489559"><ele>34.0</ele><time>2026-04-12T14:52:14Z</time></trkpt><trkpt lat="42.36809370877832" lon="11.60260357212756"><ele>34.5</ele><time>2026-04-12T14:52:15Z</time></trkpt><trkpt lat="42.367905250992514" lon="11.602385620701517"><ele>35.0</ele><time>2026-04-12T14:52:16Z</time></trkpt><trkpt lat="42.36771847592368" lon="11.602166874413173"><ele>35.5</ele><time>2026-04-12T14:52:17Z</time></trkpt><trkpt lat="42.367533629356465" lon="11.601947118048939"><ele>36.0</ele><time>2026-04-12T14:52:18Z</time></trkpt><trkpt lat="42.36735077427295" lon="11.601730982883568"><ele>37.0</ele><time>2026-04-12T14:52:19Z</time></trkpt><trkpt lat="42.3671684528308" lon="11.601511641454405"><ele>38.0</ele><time>2026-04-12T14:52:20Z</time></trkpt><trkpt lat="42.36700140345799" lon="11.601272379818457"><ele>38.5</ele><time>2026-04-12T14:52:21Z</time></trkpt><trkpt lat="42.36682612382003" lon="11.60105297874535"><ele>39.0</ele><time>2026-04-12T14:52:22Z</time></trkpt><trkpt lat="42.366624166706345" lon="11.600875165831205"><ele>39.0</ele><time>2026-04-12T14:52:23Z</time></trkpt><trkpt lat="42.366446003691436" lon="11.600663857715809"><ele>39.0</ele><time>2026-04-12T14:52:24Z</time></trkpt><trkpt lat="42.36626988815677" lon="11.600450134169966"><ele>37.0</ele><time>2026-04-12T14:52:25Z</time></trkpt><trkpt lat="42.366094146895755" lon="11.600237680914162"><ele>35.0</ele><time>2026-04-12T14:52:26Z</time></trkpt><trkpt lat="42.36591889668915" lon="11.600029362587106"><ele>35.0</ele><time>2026-04-12T14:52:27Z</time></trkpt><trkpt lat="42.365741851282536" lon="11.599821123352013"><ele>35.0</ele><time>2026-04-12T14:52:28Z</time></trkpt><trkpt lat="42.36556602850311" lon="11.599616896461683"><ele>36.0</ele><time>2026-04-12T14:52:29Z</time></trkpt><trkpt lat="42.36539193642518" lon="11.599412971604153"><ele>37.0</ele><time>2026-04-12T14:52:30Z</time></trkpt><trkpt lat="42.36521871156442" lon="11.59920452708918"><ele>37.0</ele><time>2026-04-12T14:52:31Z</time></trkpt><trkpt lat="42.36504521328552" lon="11.598996465761271"><ele>37.0</ele><time>2026-04-12T14:52:32Z</time></trkpt><trkpt lat="42.364873740052396" lon="11.59879299250501"><ele>36.5</ele><time>2026-04-12T14:52:33Z</time></trkpt><trkpt lat="42.36469941512077" lon="11.598585933034526"><ele>36.0</ele><time>2026-04-12T14:52:34Z</time></trkpt><trkpt lat="42.364528396414535" lon="11.5983777696002"><ele>36.0</ele><time>2026-04-12T14:52:35Z</time></trkpt><trkpt lat="42.36435375085109" lon="11.598169160518346"><ele>36.0</ele><time>2026-04-12T14:52:36Z</time></trkpt><trkpt lat="42.36417402534274" lon="11.59795942507844"><ele>35.5</ele><time>2026-04-12T14:52:37Z</time></trkpt><trkpt lat="42.363992241579304" lon="11.597755197741058"><ele>35.0</ele><time>2026-04-12T14:52:38Z</time></trkpt><trkpt lat="42.36380582304962" lon="11.597542124777164"><ele>35.0</ele><time>2026-04-12T14:52:39Z</time></trkpt><trkpt lat="42.363628722062096" lon="11.597333282838608"><ele>35.0</ele><time>2026-04-12T14:52:40Z</time></trkpt><trkpt lat="42.36344851907604" lon="11.59711664043994"><ele>34.5</ele><time>2026-04-12T14:52:41Z</time></trkpt><trkpt lat="42.363269245979495" lon="11.596897267606614"><ele>34.0</ele><time>2026-04-12T14:52:42Z</time></trkpt><trkpt lat="42.363087932393604" lon="11.59667720381092"><ele>34.0</ele><time>2026-04-12T14:52:43Z</time></trkpt><trkpt lat="42.36290344797888" lon="11.596462323318386"><ele>34.0</ele><time>2026-04-12T14:52:44Z</time></trkpt><trkpt lat="42.36271805960887" lon="11.596244855226947"><ele>33.0</ele><time>2026-04-12T14:52:45.001Z</time></trkpt><trkpt lat="42.36253860787942" lon="11.596030567447322"><ele>32.0</ele><time>2026-04-12T14:52:46.001Z</time></trkpt><trkpt lat="42.36235771963994" lon="11.595819155656425"><ele>32.5</ele><time>2026-04-12T14:52:47.001Z</time></trkpt><trkpt lat="42.36218261768539" lon="11.595611504106971"><ele>33.0</ele><time>2026-04-12T14:52:48.001Z</time></trkpt><trkpt lat="42.3620124119029" lon="11.595404267305737"><ele>32.333333333333336</ele><time>2026-04-12T14:52:49.001Z</time></trkpt><trkpt lat="42.36185794663004" lon="11.595217382035308"><ele>31.666666666666668</ele><time>2026-04-12T14:52:50.001Z</time></trkpt><trkpt lat="42.36171041780725" lon="11.595036999041726"><ele>31.0</ele><time>2026-04-12T14:52:51.001Z</time></trkpt><trkpt lat="42.3615638968066" lon="11.594853450449813"><ele>31.0</ele><time>2026-04-12T14:52:52.001Z</time></trkpt><trkpt lat="42.361416400115196" lon="11.594675563346978"><ele>31.0</ele><time>2026-04-12T14:52:53.001Z</time></trkpt><trkpt lat="42.36126352524023" lon="11.594494483246395"><ele>31.0</ele><time>2026-04-12T14:52:54.001Z</time></trkpt><trkpt lat="42.36110583154327" lon="11.594312430958132"><ele>30.666666666666668</ele><time>2026-04-12T14:52:55.001Z</time></trkpt><trkpt lat="42.36094583351762" lon="11.594132363762787"><ele>30.333333333333336</ele><time>2026-04-12T14:52:56.001Z</time></trkpt><trkpt lat="42.36077779669581" lon="11.593956691703458"><ele>30.0</ele><time>2026-04-12T14:52:57.001Z</time></trkpt><trkpt lat="42.360591403009614" lon="11.593789661958308"><ele>29.5</ele><time>2026-04-12T14:52:58.001Z</time></trkpt><trkpt lat="42.360387356489056" lon="11.593645035516218"><ele>29.0</ele><time>2026-04-12T14:52:59.001Z</time></trkpt><trkpt lat="42.360172162988704" lon="11.593523213747465"><ele>29.0</ele><time>2026-04-12T14:53:00.001Z</time></trkpt><trkpt lat="42.35995233026678" lon="11.593426001323156"><ele>29.0</ele><time>2026-04-12T14:53:01.001Z</time></trkpt><trkpt lat="42.3597576043948" lon="11.59331700636722"><ele>29.0</ele><time>2026-04-12T14:53:02.001Z</time></trkpt><trkpt lat="42.35956104551073" lon="11.593254165870436"><ele>28.333333333333332</ele><time>2026-04-12T14:53:03.001Z</time></trkpt><trkpt lat="42.35937120683552" lon="11.593174816945936"><ele>27.666666666666664</ele><time>2026-04-12T14:53:04.001Z</time></trkpt><trkpt lat="42.35917867704505" lon="11.593088922117637"><ele>27.0</ele><time>2026-04-12T14:53:05.001Z</time></trkpt><trkpt lat="42.358976341935964" lon="11.593054186807633"><ele>27.333333333333336</ele><time>2026-04-12T14:53:06.001Z</time></trkpt><trkpt lat="42.35878003063829" lon="11.59297817710626"><ele>27.666666666666668</ele><time>2026-04-12T14:53:07.001Z</time></trkpt><trkpt lat="42.3585931902815" lon="11.592929346914671"><ele>28.0</ele><time>2026-04-12T14:53:08.001Z</time></trkpt><trkpt lat="42.35840879720755" lon="11.592888240225138"><ele>28.0</ele><time>2026-04-12T14:53:09.001Z</time></trkpt><trkpt lat="42.358240222909544" lon="11.592893859782158"><ele>28.0</ele><time>2026-04-12T14:53:10.001Z</time></trkpt><trkpt lat="42.35809451812503" lon="11.592876486414792"><ele>28.0</ele><time>2026-04-12T14:53:11.001Z</time></trkpt><trkpt lat="42.35796696000614" lon="11.592859892134747"><ele>28.0</ele><time>2026-04-12T14:53:12.001Z</time></trkpt><trkpt lat="42.35785317333223" lon="11.59285319705865"><ele>27.75</ele><time>2026-04-12T14:53:13.001Z</time></trkpt><trkpt lat="42.35775889557419" lon="11.592851156483325"><ele>27.5</ele><time>2026-04-12T14:53:14.001Z</time></trkpt><trkpt lat="42.35767502254555" lon="11.592801180468191"><ele>27.25</ele><time>2026-04-12T14:53:15.001Z</time></trkpt><trkpt lat="42.35757535112464" lon="11.59295248361656"><ele>27.0</ele><time>2026-04-12T14:53:16.001Z</time></trkpt><trkpt lat="42.357469571569546" lon="11.59302451889096"><ele>27.75</ele><time>2026-04-12T14:53:17.001Z</time></trkpt><trkpt lat="42.35733309679091" lon="11.593088198157291"><ele>28.5</ele><time>2026-04-12T14:53:18.001Z</time></trkpt><trkpt lat="42.357195711939866" lon="11.593137398411692"><ele>29.25</ele><time>2026-04-12T14:53:19.001Z</time></trkpt><trkpt lat="42.357040078438395" lon="11.593175432389534"><ele>30.0</ele><time>2026-04-12T14:53:20.001Z</time></trkpt><trkpt lat="42.35688014446945" lon="11.593256127899656"><ele>26.333333333333332</ele><time>2026-04-12T14:53:21.001Z</time></trkpt><trkpt lat="42.35671142253139" lon="11.593307067164652"><ele>22.666666666666664</ele><time>2026-04-12T14:53:22.001Z</time></trkpt><trkpt lat="42.35655310660258" lon="11.593370089613517"><ele>19.0</ele><time>2026-04-12T14:53:23.001Z</time></trkpt><trkpt lat="42.356404209029286" lon="11.593428338398434"><ele>16.5</ele><time>2026-04-12T14:53:24.001Z</time></trkpt><trkpt lat="42.35626371982052" lon="11.593509738153195"><ele>14.0</ele><time>2026-04-12T14:53:25.001Z</time></trkpt><trkpt lat="42.35613170216789" lon="11.593569208982524"><ele>11.5</ele><time>2026-04-12T14:53:26.001Z</time></trkpt><trkpt lat="42.35599978658804" lon="11.593641978469686"><ele>9.0</ele><time>2026-04-12T14:53:27.001Z</time></trkpt><trkpt lat="42.355879211457555" lon="11.593723432759386"><ele>8.75</ele><time>2026-04-12T14:53:28.001Z</time></trkpt><trkpt lat="42.35576108284118" lon="11.593810937445564"><ele>8.5</ele><time>2026-04-12T14:53:29.001Z</time></trkpt><trkpt lat="42.35565059206658" lon="11.59392314589025"><ele>8.25</ele><time>2026-04-12T14:53:30.001Z</time></trkpt><trkpt lat="42.355553772695686" lon="11.594050785003162"><ele>8.0</ele><time>2026-04-12T14:53:31.002Z</time></trkpt><trkpt lat="42.35546462708401" lon="11.594181848958646"><ele>8.0</ele><time>2026-04-12T14:53:32.002Z</time></trkpt><trkpt lat="42.35537991100899" lon="11.5943225168132"><ele>8.0</ele><time>2026-04-12T14:53:33.002Z</time></trkpt><trkpt lat="42.355304988740095" lon="11.5944814197433"><ele>8.0</ele><time>2026-04-12T14:53:34.002Z</time></trkpt><trkpt lat="42.35521788903708" lon="11.594636308661004"><ele>8.0</ele><time>2026-04-12T14:53:35.002Z</time></trkpt><trkpt lat="42.35513755529555" lon="11.594818960483869"><ele>8.0</ele><time>2026-04-12T14:53:36.002Z</time></trkpt><trkpt lat="42.35505049025461" lon="11.595017700638449"><ele>8.0</ele><time>2026-04-12T14:53:37.002Z</time></trkpt><trkpt lat="42.354955790778725" lon="11.595236514868333"><ele>8.0</ele><time>2026-04-12T14:53:38.002Z</time></trkpt><trkpt lat="42.354857860610615" lon="11.595462793988284"><ele>8.0</ele><time>2026-04-12T14:53:39.002Z</time></trkpt><trkpt lat="42.3547540775871" lon="11.595702596826222"><ele>8.0</ele><time>2026-04-12T14:53:40.002Z</time></trkpt><trkpt lat="42.354645807834906" lon="11.59594922093173"><ele>8.0</ele><time>2026-04-12T14:53:41.002Z</time></trkpt><trkpt lat="42.35453954197926" lon="11.596190093950462"><ele>7.666666666666666</ele><time>2026-04-12T14:53:42.002Z</time></trkpt><trkpt lat="42.35443428226327" lon="11.596428686343524"><ele>7.333333333333334</ele><time>2026-04-12T14:53:43.002Z</time></trkpt><trkpt lat="42.35433971732786" lon="11.59664325441638"><ele>7.0</ele><time>2026-04-12T14:53:44.002Z</time></trkpt><trkpt lat="42.35425983538525" lon="11.596826224660804"><ele>6.75</ele><time>2026-04-12T14:53:45.002Z</time></trkpt><trkpt lat="42.35419506984598" lon="11.597010394556792"><ele>6.5</ele><time>2026-04-12T14:53:46.002Z</time></trkpt><trkpt lat="42.35412100940057" lon="11.597186916091283"><ele>6.25</ele><time>2026-04-12T14:53:47.002Z</time></trkpt><trkpt lat="42.354042144316175" lon="11.597327312206863"><ele>6.0</ele><time>2026-04-12T14:53:48.002Z</time></trkpt><trkpt lat="42.35398997608017" lon="11.597450987602667"><ele>6.0</ele><time>2026-04-12T14:53:49.002Z</time></trkpt><trkpt lat="42.353949765530245" lon="11.597562303125075"><ele>6.0</ele><time>2026-04-12T14:53:50.002Z</time></trkpt><trkpt lat="42.353925343140325" lon="11.597642323499752"><ele>6.0</ele><time>2026-04-12T14:53:51.002Z</time></trkpt><trkpt lat="42.3538944028779" lon="11.597769095419768"><ele>6.0</ele><time>2026-04-12T14:53:53.002Z</time></trkpt><trkpt lat="42.35387858710694" lon="11.597861419986701"><ele>6.0</ele><time>2026-04-12T14:53:54.002Z</time></trkpt><trkpt lat="42.35385945484211" lon="11.597981102854598"><ele>6.0</ele><time>2026-04-12T14:53:55.002Z</time></trkpt><trkpt lat="42.35387050602386" lon="11.59813838777427"><ele>6.0</ele><time>2026-04-12T14:53:56.002Z</time></trkpt><trkpt lat="42.35386895713324" lon="11.598321723954617"><ele>6.0</ele><time>2026-04-12T14:53:57.002Z</time></trkpt><trkpt lat="42.35388570620216" lon="11.598518635322229"><ele>6.0</ele><time>2026-04-12T14:53:58.002Z</time></trkpt><trkpt lat="42.35390255000931" lon="11.598746963520982"><ele>6.666666666666666</ele><time>2026-04-12T14:53:59.002Z</time></trkpt><trkpt lat="42.35391373834467" lon="11.598970054689403"><ele>7.333333333333333</ele><time>2026-04-12T14:54:00.002Z</time></trkpt><trkpt lat="42.35392464912114" lon="11.599184383354576"><ele>8.0</ele><time>2026-04-12T14:54:01.002Z</time></trkpt><trkpt lat="42.353931291186356" lon="11.599408824377457"><ele>8.0</ele><time>2026-04-12T14:54:02.002Z</time></trkpt><trkpt lat="42.35394521401016" lon="11.599643759656846"><ele>8.0</ele><time>2026-04-12T14:54:03.002Z</time></trkpt><trkpt lat="42.353962832727305" lon="11.599881600112715"><ele>8.0</ele><time>2026-04-12T14:54:04.002Z</time></trkpt><trkpt lat="42.35395163449516" lon="11.60013287985881"><ele>8.0</ele><time>2026-04-12T14:54:05.002Z</time></trkpt><trkpt lat="42.35394265572548" lon="11.600381327484081"><ele>8.0</ele><time>2026-04-12T14:54:06.002Z</time></trkpt><trkpt lat="42.353912415171635" lon="11.600622535486814"><ele>8.0</ele><time>2026-04-12T14:54:07.002Z</time></trkpt><trkpt lat="42.353857903448265" lon="11.600880707689802"><ele>8.0</ele><time>2026-04-12T14:54:08.002Z</time></trkpt><trkpt lat="42.35380863840766" lon="11.601135295897057"><ele>8.0</ele><time>2026-04-12T14:54:09.002Z</time></trkpt><trkpt lat="42.35374892851652" lon="11.601380071823346"><ele>8.0</ele><time>2026-04-12T14:54:10.002Z</time></trkpt><trkpt lat="42.353693657315645" lon="11.601614696366056"><ele>8.0</ele><time>2026-04-12T14:54:11.002Z</time></trkpt><trkpt lat="42.353631910619264" lon="11.601842028961386"><ele>8.0</ele><time>2026-04-12T14:54:12.002Z</time></trkpt><trkpt lat="42.353566776831244" lon="11.602064670646804"><ele>8.0</ele><time>2026-04-12T14:54:13.002Z</time></trkpt><trkpt lat="42.35349991440036" lon="11.602286326397833"><ele>9.333333333333332</ele><time>2026-04-12T14:54:14.002Z</time></trkpt><trkpt lat="42.35342530363404" lon="11.602505921355307"><ele>10.666666666666666</ele><time>2026-04-12T14:54:15.002Z</time></trkpt><trkpt lat="42.353345910289505" lon="11.602728345492508"><ele>12.0</ele><time>2026-04-12T14:54:16.002Z</time></trkpt><trkpt lat="42.353269354024526" lon="11.602941938000017"><ele>16.0</ele><time>2026-04-12T14:54:16.999Z</time></trkpt><trkpt lat="42.353189279957554" lon="11.60315077958483"><ele>20.0</ele><time>2026-04-12T14:54:17.999Z</time></trkpt><trkpt lat="42.353114557623705" lon="11.603327231982215"><ele>24.0</ele><time>2026-04-12T14:54:18.999Z</time></trkpt><trkpt lat="42.35304786358679" lon="11.603490468361162"><ele>24.25</ele><time>2026-04-12T14:54:19.999Z</time></trkpt><trkpt lat="42.352994278735196" lon="11.60363711824392"><ele>24.5</ele><time>2026-04-12T14:54:20.999Z</time></trkpt><trkpt lat="42.35295107132915" lon="11.603783559135485"><ele>24.75</ele><time>2026-04-12T14:54:21.999Z</time></trkpt><trkpt lat="42.35292293729315" lon="11.603941977773028"><ele>25.0</ele><time>2026-04-12T14:54:22.999Z</time></trkpt><trkpt lat="42.35292395310919" lon="11.604115108531426"><ele>25.0</ele><time>2026-04-12T14:54:23.999Z</time></trkpt><trkpt lat="42.35294830323015" lon="11.604291429872587"><ele>25.0</ele><time>2026-04-12T14:54:24.999Z</time></trkpt><trkpt lat="42.352957568585246" lon="11.604472110103329"><ele>25.0</ele><time>2026-04-12T14:54:25.999Z</time></trkpt><trkpt lat="42.35296600217475" lon="11.604650025527196"><ele>25.0</ele><time>2026-04-12T14:54:26.999Z</time></trkpt><trkpt lat="42.352964640305366" lon="11.604803702097708"><ele>27.25</ele><time>2026-04-12T14:54:28Z</time></trkpt><trkpt lat="42.352955753998394" lon="11.60494820104878"><ele>29.5</ele><time>2026-04-12T14:54:29Z</time></trkpt><trkpt lat="42.35294713151356" lon="11.605093725652571"><ele>31.75</ele><time>2026-04-12T14:54:30Z</time></trkpt><trkpt lat="42.35293555076466" lon="11.605257604836812"><ele>34.0</ele><time>2026-04-12T14:54:31Z</time></trkpt><trkpt lat="42.352938582925624" lon="11.605425167016342"><ele>34.6</ele><time>2026-04-12T14:54:32Z</time></trkpt><trkpt lat="42.35292197871626" lon="11.605579321301326"><ele>35.2</ele><time>2026-04-12T14:54:33Z</time></trkpt><trkpt lat="42.35290545865284" lon="11.605717606234178"><ele>35.800000000000004</ele><time>2026-04-12T14:54:34Z</time></trkpt><trkpt lat="42.35289089082188" lon="11.605835775826307"><ele>36.4</ele><time>2026-04-12T14:54:35Z</time></trkpt><trkpt lat="42.352874532811974" lon="11.605925106075725"><ele>37.0</ele><time>2026-04-12T14:54:36Z</time></trkpt><trkpt lat="42.35283567222218" lon="11.606032163888655"><ele>37.0</ele><time>2026-04-12T14:54:38Z</time></trkpt><trkpt lat="42.35284310785668" lon="11.606164821965445"><ele>37.0</ele><time>2026-04-12T14:54:40Z</time></trkpt><trkpt lat="42.352886718551126" lon="11.606261970869781"><ele>37.0</ele><time>2026-04-12T14:54:41Z</time></trkpt><trkpt lat="42.3529192581254" lon="11.606391669394617"><ele>37.0</ele><time>2026-04-12T14:54:42Z</time></trkpt><trkpt lat="42.35291580928212" lon="11.606542001938303"><ele>37.0</ele><time>2026-04-12T14:54:43Z</time></trkpt><trkpt lat="42.35290650949384" lon="11.606708831436803"><ele>37.0</ele><time>2026-04-12T14:54:44Z</time></trkpt><trkpt lat="42.35288149731173" lon="11.606862384925398"><ele>37.0</ele><time>2026-04-12T14:54:45Z</time></trkpt><trkpt lat="42.3528467117632" lon="11.606997006644423"><ele>37.0</ele><time>2026-04-12T14:54:46Z</time></trkpt><trkpt lat="42.35279625868525" lon="11.607116822650514"><ele>37.0</ele><time>2026-04-12T14:54:47Z</time></trkpt><trkpt lat="42.35275175634988" lon="11.60723486469141"><ele>37.0</ele><time>2026-04-12T14:54:48Z</time></trkpt><trkpt lat="42.35270403154648" lon="11.607330327475381"><ele>37.66666666666667</ele><time>2026-04-12T14:54:49Z</time></trkpt><trkpt lat="42.35266062237443" lon="11.607421371458184"><ele>38.333333333333336</ele><time>2026-04-12T14:54:50Z</time></trkpt><trkpt lat="42.35261096707703" lon="11.607514637587624"><ele>39.0</ele><time>2026-04-12T14:54:51Z</time></trkpt><trkpt lat="42.35255942207356" lon="11.607589899465776"><ele>39.666666666666664</ele><time>2026-04-12T14:54:52Z</time></trkpt><trkpt lat="42.35248670720029" lon="11.607649281952634"><ele>40.33333333333333</ele><time>2026-04-12T14:54:53Z</time></trkpt><trkpt lat="42.35240885803626" lon="11.60771806040015"><ele>41.0</ele><time>2026-04-12T14:54:54Z</time></trkpt><trkpt lat="42.35233318359523" lon="11.60778475690512"><ele>41.0</ele><time>2026-04-12T14:54:55Z</time></trkpt><trkpt lat="42.352250455215014" lon="11.607850661530938"><ele>41.0</ele><time>2026-04-12T14:54:56Z</time></trkpt><trkpt lat="42.35216779345751" lon="11.607907359858961"><ele>41.0</ele><time>2026-04-12T14:54:57Z</time></trkpt><trkpt lat="42.35207130048901" lon="11.607953759075409"><ele>41.0</ele><time>2026-04-12T14:54:58Z</time></trkpt><trkpt lat="42.35198484585328" lon="11.607989720207945"><ele>41.0</ele><time>2026-04-12T14:54:59Z</time></trkpt><trkpt lat="42.35190600154655" lon="11.608014603665756"><ele>40.99999999999999</ele><time>2026-04-12T14:55:00Z</time></trkpt><trkpt lat="42.35182565392202" lon="11.608030508887293"><ele>41.0</ele><time>2026-04-12T14:55:01Z</time></trkpt><trkpt lat="42.351753933668206" lon="11.60804520717607"><ele>41.0</ele><time>2026-04-12T14:55:02.001Z</time></trkpt><trkpt lat="42.351682460922135" lon="11.608059912414593"><ele>41.0</ele><time>2026-04-12T14:55:03.001Z</time></trkpt><trkpt lat="42.35161477338012" lon="11.608047964417736"><ele>41.0</ele><time>2026-04-12T14:55:04.001Z</time></trkpt><trkpt lat="42.35154811661505" lon="11.608025326792188"><ele>40.99999999999999</ele><time>2026-04-12T14:55:05.001Z</time></trkpt><trkpt lat="42.35147718010375" lon="11.60800373219905"><ele>41.0</ele><time>2026-04-12T14:55:06.001Z</time></trkpt><trkpt lat="42.351404937079714" lon="11.607983710941786"><ele>41.0</ele><time>2026-04-12T14:55:07.001Z</time></trkpt><trkpt lat="42.3513402017453" lon="11.607967646296306"><ele>41.0</ele><time>2026-04-12T14:55:08.001Z</time></trkpt><trkpt lat="42.35125122768357" lon="11.607945360712458"><ele>41.0</ele><time>2026-04-12T14:55:10.001Z</time></trkpt><trkpt lat="42.351194708671855" lon="11.607899061738523"><ele>41.0</ele><time>2026-04-12T14:55:13.001Z</time></trkpt><trkpt lat="42.35111899465178" lon="11.608061067385096"><ele>41.0</ele><time>2026-04-12T14:55:14.001Z</time></trkpt><trkpt lat="42.35107448611913" lon="11.608153003074657"><ele>41.0</ele><time>2026-04-12T14:55:15.001Z</time></trkpt><trkpt lat="42.35102880629285" lon="11.608255716988259"><ele>41.0</ele><time>2026-04-12T14:55:16.001Z</time></trkpt><trkpt lat="42.35097477337111" lon="11.608370097336389"><ele>41.0</ele><time>2026-04-12T14:55:17.001Z</time></trkpt><trkpt lat="42.350920404711964" lon="11.60847761580868"><ele>41.0</ele><time>2026-04-12T14:55:18.001Z</time></trkpt><trkpt lat="42.350857883524924" lon="11.608586023357189"><ele>41.0</ele><time>2026-04-12T14:55:19.001Z</time></trkpt><trkpt lat="42.35079159446033" lon="11.608707222865478"><ele>41.0</ele><time>2026-04-12T14:55:20.001Z</time></trkpt><trkpt lat="42.35071296905989" lon="11.608828126752808"><ele>40.75</ele><time>2026-04-12T14:55:21.001Z</time></trkpt><trkpt lat="42.35061476232119" lon="11.60895075993392"><ele>40.5</ele><time>2026-04-12T14:55:22.001Z</time></trkpt><trkpt lat="42.350502221673345" lon="11.609079965663913"><ele>40.25</ele><time>2026-04-12T14:55:23.001Z</time></trkpt><trkpt lat="42.35039181067218" lon="11.609217986134569"><ele>40.0</ele><time>2026-04-12T14:55:24.001Z</time></trkpt><trkpt lat="42.35029796459422" lon="11.609342421994556"><ele>39.6</ele><time>2026-04-12T14:55:25.001Z</time></trkpt><trkpt lat="42.3502083624003" lon="11.609463310029795"><ele>39.2</ele><time>2026-04-12T14:55:26.001Z</time></trkpt><trkpt lat="42.35012667989316" lon="11.609568043466652"><ele>38.8</ele><time>2026-04-12T14:55:27.001Z</time></trkpt><trkpt lat="42.35004927375943" lon="11.609666922809014"><ele>38.4</ele><time>2026-04-12T14:55:28.001Z</time></trkpt><trkpt lat="42.34996964409581" lon="11.60975294163644"><ele>38.0</ele><time>2026-04-12T14:55:29.001Z</time></trkpt><trkpt lat="42.34990102867667" lon="11.609846346091167"><ele>37.8</ele><time>2026-04-12T14:55:30.001Z</time></trkpt><trkpt lat="42.349831051182235" lon="11.609943251591952"><ele>37.599999999999994</ele><time>2026-04-12T14:55:31.001Z</time></trkpt><trkpt lat="42.34975723862164" lon="11.610035362542988"><ele>37.400000000000006</ele><time>2026-04-12T14:55:32.001Z</time></trkpt><trkpt lat="42.349668919863745" lon="11.610140123898915"><ele>37.2</ele><time>2026-04-12T14:55:33.001Z</time></trkpt><trkpt lat="42.34959925426578" lon="11.610236490091994"><ele>37.0</ele><time>2026-04-12T14:55:34.001Z</time></trkpt><trkpt lat="42.3495642962034" lon="11.610350437673633"><ele>37.0</ele><time>2026-04-12T14:55:35.001Z</time></trkpt><trkpt lat="42.349455336728134" lon="11.610376260242633"><ele>37.0</ele><time>2026-04-12T14:55:36.001Z</time></trkpt><trkpt lat="42.34937004362471" lon="11.610384002441796"><ele>37.0</ele><time>2026-04-12T14:55:37.001Z</time></trkpt><trkpt lat="42.3492787767629" lon="11.610357886304937"><ele>37.0</ele><time>2026-04-12T14:55:38.001Z</time></trkpt><trkpt lat="42.34919566239109" lon="11.610307095616015"><ele>37.0</ele><time>2026-04-12T14:55:39.001Z</time></trkpt><trkpt lat="42.34912008421662" lon="11.610238725635748"><ele>36.75</ele><time>2026-04-12T14:55:40.001Z</time></trkpt><trkpt lat="42.349064961497945" lon="11.610127500002864"><ele>36.5</ele><time>2026-04-12T14:55:41.001Z</time></trkpt><trkpt lat="42.34899434218443" lon="11.610039694275407"><ele>36.25</ele><time>2026-04-12T14:55:42.001Z</time></trkpt><trkpt lat="42.348989824586816" lon="11.609820341719121"><ele>36.0</ele><time>2026-04-12T14:55:43.001Z</time></trkpt><trkpt lat="42.34894094269822" lon="11.609633756812917"><ele>36.333333333333336</ele><time>2026-04-12T14:55:44.002Z</time></trkpt><trkpt lat="42.3488827887655" lon="11.609421517494306"><ele>36.66666666666667</ele><time>2026-04-12T14:55:45.002Z</time></trkpt><trkpt lat="42.348825422818436" lon="11.609198073353554"><ele>37.0</ele><time>2026-04-12T14:55:46.002Z</time></trkpt><trkpt lat="42.34877217021546" lon="11.608971237145086"><ele>36.0</ele><time>2026-04-12T14:55:47.002Z</time></trkpt><trkpt lat="42.348725093291456" lon="11.608748481196484"><ele>35.0</ele><time>2026-04-12T14:55:48.002Z</time></trkpt><trkpt lat="42.34867115734085" lon="11.608515030976882"><ele>34.0</ele><time>2026-04-12T14:55:49.002Z</time></trkpt><trkpt lat="42.34861302527591" lon="11.608285594522723"><ele>33.66666666666667</ele><time>2026-04-12T14:55:50.002Z</time></trkpt><trkpt lat="42.34855627376809" lon="11.608056717617478"><ele>33.333333333333336</ele><time>2026-04-12T14:55:51.002Z</time></trkpt><trkpt lat="42.348492947314995" lon="11.607831003632024"><ele>33.0</ele><time>2026-04-12T14:55:52.002Z</time></trkpt><trkpt lat="42.34842961651185" lon="11.607616542462917"><ele>32.75</ele><time>2026-04-12T14:55:53.002Z</time></trkpt><trkpt lat="42.34837115702053" lon="11.607414811644421"><ele>32.5</ele><time>2026-04-12T14:55:54.002Z</time></trkpt><trkpt lat="42.348319991073154" lon="11.607230011802562"><ele>32.25</ele><time>2026-04-12T14:55:55.002Z</time></trkpt><trkpt lat="42.348271137436605" lon="11.60705712814153"><ele>32.0</ele><time>2026-04-12T14:55:56.002Z</time></trkpt><trkpt lat="42.34822321944251" lon="11.606897477414753"><ele>32.0</ele><time>2026-04-12T14:55:57.002Z</time></trkpt><trkpt lat="42.34817488327183" lon="11.60674198335266"><ele>32.0</ele><time>2026-04-12T14:55:58.002Z</time></trkpt><trkpt lat="42.348127020531834" lon="11.606587089248967"><ele>32.0</ele><time>2026-04-12T14:55:59.002Z</time></trkpt><trkpt lat="42.34807522785844" lon="11.606423969532118"><ele>32.0</ele><time>2026-04-12T14:56:00.002Z</time></trkpt><trkpt lat="42.348017017762" lon="11.606255499678932"><ele>32.0</ele><time>2026-04-12T14:56:01.002Z</time></trkpt><trkpt lat="42.34795257297274" lon="11.606076890438366"><ele>32.0</ele><time>2026-04-12T14:56:02.002Z</time></trkpt><trkpt lat="42.347883906795204" lon="11.605885445603981"><ele>32.0</ele><time>2026-04-12T14:56:03.002Z</time></trkpt><trkpt lat="42.34781757342744" lon="11.605694446465018"><ele>32.0</ele><time>2026-04-12T14:56:04.002Z</time></trkpt><trkpt lat="42.34774454532976" lon="11.60549271829006"><ele>32.0</ele><time>2026-04-12T14:56:05.002Z</time></trkpt><trkpt lat="42.34766412192615" lon="11.605283185603662"><ele>32.0</ele><time>2026-04-12T14:56:06.002Z</time></trkpt><trkpt lat="42.34758549508115" lon="11.605073518637774"><ele>32.666666666666664</ele><time>2026-04-12T14:56:07.002Z</time></trkpt><trkpt lat="42.347509894221794" lon="11.604860000121938"><ele>33.333333333333336</ele><time>2026-04-12T14:56:08.002Z</time></trkpt><trkpt lat="42.34743802273137" lon="11.604652700421427"><ele>34.0</ele><time>2026-04-12T14:56:09.002Z</time></trkpt><trkpt lat="42.34736677766365" lon="11.604436483250815"><ele>34.0</ele><time>2026-04-12T14:56:10.002Z</time></trkpt><trkpt lat="42.34729226120141" lon="11.604222058013207"><ele>34.0</ele><time>2026-04-12T14:56:11.002Z</time></trkpt><trkpt lat="42.3472162300358" lon="11.604009272114979"><ele>34.0</ele><time>2026-04-12T14:56:12.002Z</time></trkpt><trkpt lat="42.34715204964529" lon="11.603826498464898"><ele>34.0</ele><time>2026-04-12T14:56:13.002Z</time></trkpt><trkpt lat="42.34710289221802" lon="11.603669302071115"><ele>34.0</ele><time>2026-04-12T14:56:14.002Z</time></trkpt><trkpt lat="42.347069350261" lon="11.603532771362966"><ele>34.0</ele><time>2026-04-12T14:56:15.002Z</time></trkpt><trkpt lat="42.34704300889539" lon="11.603395905219113"><ele>34.0</ele><time>2026-04-12T14:56:16.002Z</time></trkpt><trkpt lat="42.34703238317555" lon="11.603296116383875"><ele>34.0</ele><time>2026-04-12T14:56:17.002Z</time></trkpt><trkpt lat="42.34713292727945" lon="11.603108074569958"><ele>34.0</ele><time>2026-04-12T14:56:19.002Z</time></trkpt><trkpt lat="42.34715483397485" lon="11.603008665483213"><ele>34.0</ele><time>2026-04-12T14:56:20.002Z</time></trkpt><trkpt lat="42.347278135026535" lon="11.602985213491127"><ele>34.0</ele><time>2026-04-12T14:56:21.002Z</time></trkpt><trkpt lat="42.34737210160679" lon="11.602957594610306"><ele>34.0</ele><time>2026-04-12T14:56:22.002Z</time></trkpt><trkpt lat="42.34746592437955" lon="11.602959196190755"><ele>34.0</ele><time>2026-04-12T14:56:23Z</time></trkpt><trkpt lat="42.34755994727725" lon="11.603000014436237"><ele>33.6</ele><time>2026-04-12T14:56:24Z</time></trkpt><trkpt lat="42.34765096210016" lon="11.603060260881767"><ele>33.2</ele><time>2026-04-12T14:56:25Z</time></trkpt><trkpt lat="42.34773161626265" lon="11.603146233135046"><ele>32.800000000000004</ele><time>2026-04-12T14:56:26Z</time></trkpt><trkpt lat="42.34779395012903" lon="11.603259050161174"><ele>32.4</ele><time>2026-04-12T14:56:27Z</time></trkpt><trkpt lat="42.34783692200581" lon="11.603388016289562"><ele>32.0</ele><time>2026-04-12T14:56:28Z</time></trkpt><trkpt lat="42.34786148542683" lon="11.603533686710167"><ele>32.4</ele><time>2026-04-12T14:56:29Z</time></trkpt><trkpt lat="42.347851623445855" lon="11.603685475267193"><ele>32.800000000000004</ele><time>2026-04-12T14:56:30Z</time></trkpt><trkpt lat="42.34782146103667" lon="11.603817125238276"><ele>33.2</ele><time>2026-04-12T14:56:31Z</time></trkpt><trkpt lat="42.34777142211962" lon="11.603941347503538"><ele>33.6</ele><time>2026-04-12T14:56:32Z</time></trkpt><trkpt lat="42.34771692373854" lon="11.60409230714058"><ele>34.0</ele><time>2026-04-12T14:56:33Z</time></trkpt><trkpt lat="42.34766339787832" lon="11.604258091626132"><ele>34.0</ele><time>2026-04-12T14:56:34Z</time></trkpt><trkpt lat="42.347606523135724" lon="11.604435704066573"><ele>34.0</ele><time>2026-04-12T14:56:35Z</time></trkpt><trkpt lat="42.347553668284704" lon="11.604618261715494"><ele>34.0</ele><time>2026-04-12T14:56:36Z</time></trkpt><trkpt lat="42.34749809572552" lon="11.60481481424811"><ele>34.0</ele><time>2026-04-12T14:56:37Z</time></trkpt><trkpt lat="42.34743423407301" lon="11.605028877848033"><ele>34.0</ele><time>2026-04-12T14:56:38Z</time></trkpt><trkpt lat="42.347370212229016" lon="11.605269817357865"><ele>34.0</ele><time>2026-04-12T14:56:39Z</time></trkpt><trkpt lat="42.347309157482755" lon="11.605523987287762"><ele>34.0</ele><time>2026-04-12T14:56:40Z</time></trkpt><trkpt lat="42.347245015539855" lon="11.605788030460378"><ele>33.333333333333336</ele><time>2026-04-12T14:56:41Z</time></trkpt><trkpt lat="42.34718496764086" lon="11.606053977430024"><ele>32.666666666666664</ele><time>2026-04-12T14:56:42Z</time></trkpt><trkpt lat="42.34712499860338" lon="11.606329457932814"><ele>32.0</ele><time>2026-04-12T14:56:43Z</time></trkpt><trkpt lat="42.34706469661859" lon="11.606612393718875"><ele>32.0</ele><time>2026-04-12T14:56:44Z</time></trkpt><trkpt lat="42.34700205682421" lon="11.606898469148149"><ele>32.0</ele><time>2026-04-12T14:56:45Z</time></trkpt><trkpt lat="42.346942441097156" lon="11.607167025047415"><ele>32.0</ele><time>2026-04-12T14:56:46Z</time></trkpt><trkpt lat="42.3468805943515" lon="11.607439165730995"><ele>32.0</ele><time>2026-04-12T14:56:47Z</time></trkpt><trkpt lat="42.346818104148774" lon="11.607714078670211"><ele>32.0</ele><time>2026-04-12T14:56:48Z</time></trkpt><trkpt lat="42.34675530329766" lon="11.60799168533029"><ele>32.0</ele><time>2026-04-12T14:56:49Z</time></trkpt><trkpt lat="42.346695333445275" lon="11.6082684297846"><ele>32.0</ele><time>2026-04-12T14:56:50Z</time></trkpt><trkpt lat="42.34663498258588" lon="11.608558909293"><ele>32.0</ele><time>2026-04-12T14:56:51Z</time></trkpt><trkpt lat="42.34657389260155" lon="11.608848725959085"><ele>32.0</ele><time>2026-04-12T14:56:52Z</time></trkpt><trkpt lat="42.34650815498493" lon="11.609140376320752"><ele>32.666666666666664</ele><time>2026-04-12T14:56:53Z</time></trkpt><trkpt lat="42.34644179453957" lon="11.609434226487636"><ele>33.333333333333336</ele><time>2026-04-12T14:56:54Z</time></trkpt><trkpt lat="42.34637825530261" lon="11.609719081993683"><ele>34.0</ele><time>2026-04-12T14:56:55Z</time></trkpt><trkpt lat="42.34631253790804" lon="11.61001524866152"><ele>35.0</ele><time>2026-04-12T14:56:56Z</time></trkpt><trkpt lat="42.34624628779699" lon="11.610318182413787"><ele>36.0</ele><time>2026-04-12T14:56:57Z</time></trkpt><trkpt lat="42.346181524627376" lon="11.610614733931973"><ele>36.5</ele><time>2026-04-12T14:56:58Z</time></trkpt><trkpt lat="42.34611559570301" lon="11.610911637774649"><ele>37.0</ele><time>2026-04-12T14:56:59Z</time></trkpt><trkpt lat="42.34604568713434" lon="11.611214514523612"><ele>36.0</ele><time>2026-04-12T14:57:00Z</time></trkpt><trkpt lat="42.34597568194608" lon="11.611514865510852"><ele>35.0</ele><time>2026-04-12T14:57:01Z</time></trkpt><trkpt lat="42.34590725356088" lon="11.611825901886386"><ele>35.0</ele><time>2026-04-12T14:57:02Z</time></trkpt><trkpt lat="42.34583894733165" lon="11.612126199255018"><ele>35.0</ele><time>2026-04-12T14:57:03Z</time></trkpt><trkpt lat="42.345767757666685" lon="11.61239994040444"><ele>35.0</ele><time>2026-04-12T14:57:04.001Z</time></trkpt><trkpt lat="42.345690299412084" lon="11.61267098341961"><ele>34.666666666666664</ele><time>2026-04-12T14:57:05.001Z</time></trkpt><trkpt lat="42.345610666968234" lon="11.612929163071994"><ele>34.333333333333336</ele><time>2026-04-12T14:57:06.001Z</time></trkpt><trkpt lat="42.34552070079228" lon="11.613176900899413"><ele>34.0</ele><time>2026-04-12T14:57:07.001Z</time></trkpt><trkpt lat="42.345420989551215" lon="11.613412299817943"><ele>35.0</ele><time>2026-04-12T14:57:08.001Z</time></trkpt><trkpt lat="42.34531446435215" lon="11.61364025954738"><ele>36.0</ele><time>2026-04-12T14:57:09.001Z</time></trkpt><trkpt lat="42.34520187659122" lon="11.61385559089498"><ele>37.0</ele><time>2026-04-12T14:57:10.001Z</time></trkpt><trkpt lat="42.34508516268507" lon="11.614068019778873"><ele>37.0</ele><time>2026-04-12T14:57:11.001Z</time></trkpt><trkpt lat="42.344961874959886" lon="11.614267977976107"><ele>37.0</ele><time>2026-04-12T14:57:12.001Z</time></trkpt><trkpt lat="42.34483769485933" lon="11.614465043243321"><ele>37.0</ele><time>2026-04-12T14:57:13.001Z</time></trkpt><trkpt lat="42.34470077771203" lon="11.614659151015935"><ele>37.66666666666667</ele><time>2026-04-12T14:57:14.001Z</time></trkpt><trkpt lat="42.344555481769945" lon="11.614836101238238"><ele>38.333333333333336</ele><time>2026-04-12T14:57:15.001Z</time></trkpt><trkpt lat="42.34440300221386" lon="11.61499730287706"><ele>39.0</ele><time>2026-04-12T14:57:16.001Z</time></trkpt><trkpt lat="42.34424205670747" lon="11.615157500855094"><ele>39.0</ele><time>2026-04-12T14:57:17.001Z</time></trkpt><trkpt lat="42.34408027863437" lon="11.615311241948536"><ele>39.0</ele><time>2026-04-12T14:57:18.001Z</time></trkpt><trkpt lat="42.34392009499565" lon="11.615443995193786"><ele>39.0</ele><time>2026-04-12T14:57:19.001Z</time></trkpt><trkpt lat="42.34375933036958" lon="11.615565677078704"><ele>39.0</ele><time>2026-04-12T14:57:20.001Z</time></trkpt><trkpt lat="42.34358618602346" lon="11.615688851534776"><ele>39.0</ele><time>2026-04-12T14:57:21.001Z</time></trkpt><trkpt lat="42.34341368012936" lon="11.615809961324375"><ele>39.0</ele><time>2026-04-12T14:57:22.001Z</time></trkpt><trkpt lat="42.34322781360248" lon="11.615935087151037"><ele>39.333333333333336</ele><time>2026-04-12T14:57:23.001Z</time></trkpt><trkpt lat="42.343043916291464" lon="11.616066359918548"><ele>39.66666666666667</ele><time>2026-04-12T14:57:24.001Z</time></trkpt><trkpt lat="42.34286015654204" lon="11.616201658683384"><ele>40.0</ele><time>2026-04-12T14:57:25.001Z</time></trkpt><trkpt lat="42.34267277419186" lon="11.61633794445449"><ele>40.0</ele><time>2026-04-12T14:57:26.001Z</time></trkpt><trkpt lat="42.3424768073408" lon="11.616475177745986"><ele>40.0</ele><time>2026-04-12T14:57:27.001Z</time></trkpt><trkpt lat="42.34228443228612" lon="11.616614840665878"><ele>40.0</ele><time>2026-04-12T14:57:28.001Z</time></trkpt><trkpt lat="42.342088302985815" lon="11.616756974244652"><ele>40.0</ele><time>2026-04-12T14:57:29.001Z</time></trkpt><trkpt lat="42.34189122655374" lon="11.616896127787738"><ele>40.0</ele><time>2026-04-12T14:57:30.001Z</time></trkpt><trkpt lat="42.34169274594682" lon="11.61703675344936"><ele>40.0</ele><time>2026-04-12T14:57:31.001Z</time></trkpt><trkpt lat="42.34149006552078" lon="11.61718278186303"><ele>39.5</ele><time>2026-04-12T14:57:32.001Z</time></trkpt><trkpt lat="42.34129117687433" lon="11.617327928641505"><ele>39.0</ele><time>2026-04-12T14:57:33.001Z</time></trkpt><trkpt lat="42.34108855086047" lon="11.617474331514831"><ele>39.0</ele><time>2026-04-12T14:57:34.001Z</time></trkpt><trkpt lat="42.34088212453735" lon="11.617621700629572"><ele>39.0</ele><time>2026-04-12T14:57:35.001Z</time></trkpt><trkpt lat="42.34067767186858" lon="11.617769030855444"><ele>39.0</ele><time>2026-04-12T14:57:36.001Z</time></trkpt><trkpt lat="42.34047613657918" lon="11.61791696883964"><ele>39.0</ele><time>2026-04-12T14:57:37.001Z</time></trkpt><trkpt lat="42.340275824272425" lon="11.618063540633289"><ele>39.0</ele><time>2026-04-12T14:57:38.001Z</time></trkpt><trkpt lat="42.340072249198805" lon="11.618208067941701"><ele>39.0</ele><time>2026-04-12T14:57:39.001Z</time></trkpt><trkpt lat="42.33987171569266" lon="11.618354135457166"><ele>38.5</ele><time>2026-04-12T14:57:40.001Z</time></trkpt><trkpt lat="42.33967111518444" lon="11.618505426748264"><ele>38.0</ele><time>2026-04-12T14:57:41.001Z</time></trkpt><trkpt lat="42.33948371014915" lon="11.61866847530898"><ele>38.0</ele><time>2026-04-12T14:57:42.001Z</time></trkpt><trkpt lat="42.33929736919308" lon="11.618838973065378"><ele>38.0</ele><time>2026-04-12T14:57:43.001Z</time></trkpt><trkpt lat="42.33911627153539" lon="11.619015983267765"><ele>38.0</ele><time>2026-04-12T14:57:44.001Z</time></trkpt><trkpt lat="42.33893130010083" lon="11.619199267036292"><ele>38.0</ele><time>2026-04-12T14:57:45.002Z</time></trkpt><trkpt lat="42.3387550153281" lon="11.619382336548737"><ele>38.0</ele><time>2026-04-12T14:57:46.002Z</time></trkpt><trkpt lat="42.33858157468316" lon="11.619567217406127"><ele>38.0</ele><time>2026-04-12T14:57:47.002Z</time></trkpt><trkpt lat="42.33840778552929" lon="11.619755571160335"><ele>38.0</ele><time>2026-04-12T14:57:48.002Z</time></trkpt><trkpt lat="42.33824119668498" lon="11.619940015692313"><ele>38.0</ele><time>2026-04-12T14:57:49.002Z</time></trkpt><trkpt lat="42.33807332214352" lon="11.620134770435149"><ele>38.0</ele><time>2026-04-12T14:57:50.002Z</time></trkpt><trkpt lat="42.33791460833301" lon="11.62033241197271"><ele>36.666666666666664</ele><time>2026-04-12T14:57:51.002Z</time></trkpt><trkpt lat="42.337754536105756" lon="11.620533887866927"><ele>35.333333333333336</ele><time>2026-04-12T14:57:52.002Z</time></trkpt><trkpt lat="42.33759615186509" lon="11.620724275702196"><ele>34.0</ele><time>2026-04-12T14:57:53.002Z</time></trkpt><trkpt lat="42.337431978472125" lon="11.620921968906583"><ele>34.0</ele><time>2026-04-12T14:57:54.002Z</time></trkpt><trkpt lat="42.33726333676551" lon="11.621124768344453"><ele>34.0</ele><time>2026-04-12T14:57:55.002Z</time></trkpt><trkpt lat="42.3371012536461" lon="11.621326494262016"><ele>34.0</ele><time>2026-04-12T14:57:56.002Z</time></trkpt><trkpt lat="42.33693540531824" lon="11.62153091432524"><ele>32.333333333333336</ele><time>2026-04-12T14:57:57.002Z</time></trkpt><trkpt lat="42.33676694172531" lon="11.621731412236294"><ele>30.666666666666664</ele><time>2026-04-12T14:57:58.002Z</time></trkpt><trkpt lat="42.3365982605632" lon="11.621931580412463"><ele>29.0</ele><time>2026-04-12T14:57:59.002Z</time></trkpt><trkpt lat="42.33643331207063" lon="11.622133011056947"><ele>27.0</ele><time>2026-04-12T14:58:00.002Z</time></trkpt><trkpt lat="42.33626582023663" lon="11.622337083859207"><ele>25.0</ele><time>2026-04-12T14:58:01.002Z</time></trkpt><trkpt lat="42.3361012573666" lon="11.62253875098093"><ele>23.0</ele><time>2026-04-12T14:58:02.002Z</time></trkpt><trkpt lat="42.33593048522052" lon="11.622740176963251"><ele>23.333333333333336</ele><time>2026-04-12T14:58:03.002Z</time></trkpt><trkpt lat="42.335761515469386" lon="11.622940124785456"><ele>23.666666666666668</ele><time>2026-04-12T14:58:04.002Z</time></trkpt><trkpt lat="42.33559341249566" lon="11.623142352740023"><ele>24.0</ele><time>2026-04-12T14:58:05.002Z</time></trkpt><trkpt lat="42.33542696882506" lon="11.623347440760973"><ele>24.0</ele><time>2026-04-12T14:58:06.002Z</time></trkpt><trkpt lat="42.335262708641054" lon="11.62355688401998"><ele>24.0</ele><time>2026-04-12T14:58:07.002Z</time></trkpt><trkpt lat="42.335089368339645" lon="11.623767934270987"><ele>26.0</ele><time>2026-04-12T14:58:08.002Z</time></trkpt><trkpt lat="42.334917901172275" lon="11.623976559698342"><ele>28.0</ele><time>2026-04-12T14:58:09.002Z</time></trkpt><trkpt lat="42.33474407818286" lon="11.624184136077803"><ele>27.0</ele><time>2026-04-12T14:58:10.002Z</time></trkpt><trkpt lat="42.33456907946706" lon="11.62439091228645"><ele>26.0</ele><time>2026-04-12T14:58:11.002Z</time></trkpt><trkpt lat="42.33439082766802" lon="11.624602513038877"><ele>28.5</ele><time>2026-04-12T14:58:12.002Z</time></trkpt><trkpt lat="42.33421199988753" lon="11.624816576313425"><ele>31.0</ele><time>2026-04-12T14:58:13.002Z</time></trkpt><trkpt lat="42.33403064391819" lon="11.625042764789763"><ele>31.0</ele><time>2026-04-12T14:58:14.002Z</time></trkpt><trkpt lat="42.3338465519534" lon="11.625269833863564"><ele>31.0</ele><time>2026-04-12T14:58:15.002Z</time></trkpt><trkpt lat="42.33365448517748" lon="11.625501372310781"><ele>32.0</ele><time>2026-04-12T14:58:16.002Z</time></trkpt><trkpt lat="42.3334658218608" lon="11.625729907183437"><ele>33.0</ele><time>2026-04-12T14:58:17.002Z</time></trkpt><trkpt lat="42.3332720413937" lon="11.625963588973535"><ele>33.0</ele><time>2026-04-12T14:58:18.002Z</time></trkpt><trkpt lat="42.333076919734296" lon="11.62619984217086"><ele>33.0</ele><time>2026-04-12T14:58:19.002Z</time></trkpt><trkpt lat="42.332882113477375" lon="11.626436389512948"><ele>33.5</ele><time>2026-04-12T14:58:20.002Z</time></trkpt><trkpt lat="42.33269038708521" lon="11.626670049511633"><ele>34.0</ele><time>2026-04-12T14:58:21.002Z</time></trkpt><trkpt lat="42.33250004247385" lon="11.626901687689147"><ele>34.0</ele><time>2026-04-12T14:58:22.002Z</time></trkpt><trkpt lat="42.33231639054121" lon="11.627127477934994"><ele>34.0</ele><time>2026-04-12T14:58:23.002Z</time></trkpt><trkpt lat="42.332139160296954" lon="11.627345496697993"><ele>34.0</ele><time>2026-04-12T14:58:24.002Z</time></trkpt><trkpt lat="42.33196063304115" lon="11.627560527461432"><ele>34.0</ele><time>2026-04-12T14:58:25.002Z</time></trkpt><trkpt lat="42.331783583311875" lon="11.627775831839964"><ele>33.5</ele><time>2026-04-12T14:58:26.003Z</time></trkpt><trkpt lat="42.33161213268128" lon="11.627983169957528"><ele>33.0</ele><time>2026-04-12T14:58:27.003Z</time></trkpt><trkpt lat="42.3314418784813" lon="11.62818863689845"><ele>33.333333333333336</ele><time>2026-04-12T14:58:28.003Z</time></trkpt><trkpt lat="42.33127057018059" lon="11.628392720906563"><ele>33.66666666666667</ele><time>2026-04-12T14:58:29Z</time></trkpt><trkpt lat="42.33110546871957" lon="11.62859012114456"><ele>34.0</ele><time>2026-04-12T14:58:30Z</time></trkpt><trkpt lat="42.33093514090663" lon="11.628792293910308"><ele>34.0</ele><time>2026-04-12T14:58:31Z</time></trkpt><trkpt lat="42.330766136940376" lon="11.628995473281462"><ele>34.0</ele><time>2026-04-12T14:58:32Z</time></trkpt><trkpt lat="42.330596854734" lon="11.629194503348666"><ele>34.0</ele><time>2026-04-12T14:58:33Z</time></trkpt><trkpt lat="42.33043268635701" lon="11.62939117077252"><ele>34.0</ele><time>2026-04-12T14:58:34Z</time></trkpt><trkpt lat="42.330273939475674" lon="11.629585192707882"><ele>34.0</ele><time>2026-04-12T14:58:35Z</time></trkpt><trkpt lat="42.330117377369106" lon="11.629778536103288"><ele>34.333333333333336</ele><time>2026-04-12T14:58:36Z</time></trkpt><trkpt lat="42.32995896426784" lon="11.629970928120846"><ele>34.666666666666664</ele><time>2026-04-12T14:58:37Z</time></trkpt><trkpt lat="42.32980831728574" lon="11.630157193286669"><ele>35.0</ele><time>2026-04-12T14:58:38Z</time></trkpt><trkpt lat="42.329652184738826" lon="11.630348028594769"><ele>34.33333333333333</ele><time>2026-04-12T14:58:39Z</time></trkpt><trkpt lat="42.3294966964966" lon="11.630534284530702"><ele>33.666666666666664</ele><time>2026-04-12T14:58:40Z</time></trkpt><trkpt lat="42.32933556086953" lon="11.630717096193825"><ele>33.0</ele><time>2026-04-12T14:58:41Z</time></trkpt><trkpt lat="42.32916992976605" lon="11.63089163182981"><ele>33.0</ele><time>2026-04-12T14:58:42Z</time></trkpt><trkpt lat="42.32901119358127" lon="11.631064905652341"><ele>33.0</ele><time>2026-04-12T14:58:43Z</time></trkpt><trkpt lat="42.328833548593586" lon="11.63124717045484"><ele>33.0</ele><time>2026-04-12T14:58:44Z</time></trkpt><trkpt lat="42.328654395288794" lon="11.63143527999457"><ele>33.0</ele><time>2026-04-12T14:58:45Z</time></trkpt><trkpt lat="42.328471761296925" lon="11.631622845912625"><ele>33.0</ele><time>2026-04-12T14:58:46Z</time></trkpt><trkpt lat="42.32827757096652" lon="11.631812699123396"><ele>32.5</ele><time>2026-04-12T14:58:47Z</time></trkpt><trkpt lat="42.32807179200399" lon="11.63200325733193"><ele>32.0</ele><time>2026-04-12T14:58:48Z</time></trkpt><trkpt lat="42.32785548672523" lon="11.632199123178491"><ele>33.0</ele><time>2026-04-12T14:58:49Z</time></trkpt><trkpt lat="42.327646765930695" lon="11.632399153727086"><ele>34.0</ele><time>2026-04-12T14:58:50Z</time></trkpt><trkpt lat="42.327429100684824" lon="11.632609309125048"><ele>33.5</ele><time>2026-04-12T14:58:51Z</time></trkpt><trkpt lat="42.32721378299632" lon="11.632816900640083"><ele>33.0</ele><time>2026-04-12T14:58:52Z</time></trkpt><trkpt lat="42.326987716134084" lon="11.633016246495263"><ele>33.0</ele><time>2026-04-12T14:58:53Z</time></trkpt><trkpt lat="42.326753382838994" lon="11.633206090622089"><ele>33.0</ele><time>2026-04-12T14:58:54Z</time></trkpt><trkpt lat="42.32652827199076" lon="11.633402333379436"><ele>33.0</ele><time>2026-04-12T14:58:55Z</time></trkpt><trkpt lat="42.32633133181973" lon="11.633637410153886"><ele>33.0</ele><time>2026-04-12T14:58:56Z</time></trkpt><trkpt lat="42.3261577392732" lon="11.633896678982188"><ele>34.0</ele><time>2026-04-12T14:58:57Z</time></trkpt><trkpt lat="42.32600930743325" lon="11.634158721328868"><ele>35.0</ele><time>2026-04-12T14:58:58Z</time></trkpt><trkpt lat="42.32587619367826" lon="11.6344288700303"><ele>34.5</ele><time>2026-04-12T14:58:59Z</time></trkpt><trkpt lat="42.3257568213803" lon="11.634712271658707"><ele>34.0</ele><time>2026-04-12T14:59:00Z</time></trkpt><trkpt lat="42.32565722803011" lon="11.635005768403387"><ele>33.5</ele><time>2026-04-12T14:59:01Z</time></trkpt><trkpt lat="42.32556637373375" lon="11.635306269224097"><ele>33.0</ele><time>2026-04-12T14:59:02Z</time></trkpt><trkpt lat="42.32549080852512" lon="11.635615871634672"><ele>33.0</ele><time>2026-04-12T14:59:03Z</time></trkpt><trkpt lat="42.32543706541454" lon="11.63593383809069"><ele>33.0</ele><time>2026-04-12T14:59:04.001Z</time></trkpt><trkpt lat="42.32538655745507" lon="11.636259464180986"><ele>31.5</ele><time>2026-04-12T14:59:05.001Z</time></trkpt><trkpt lat="42.325329516128924" lon="11.636590935517386"><ele>30.0</ele><time>2026-04-12T14:59:06.001Z</time></trkpt><trkpt lat="42.3252640995119" lon="11.636918305871369"><ele>29.0</ele><time>2026-04-12T14:59:07.001Z</time></trkpt><trkpt lat="42.32519878684401" lon="11.637245659878717"><ele>28.0</ele><time>2026-04-12T14:59:08.001Z</time></trkpt><trkpt lat="42.325131779978584" lon="11.637568882523572"><ele>28.0</ele><time>2026-04-12T14:59:09.001Z</time></trkpt><trkpt lat="42.325067065543855" lon="11.637885834892478"><ele>28.0</ele><time>2026-04-12T14:59:10.001Z</time></trkpt><trkpt lat="42.324980774025775" lon="11.638188577914468"><ele>28.0</ele><time>2026-04-12T14:59:11.001Z</time></trkpt><trkpt lat="42.32487959148581" lon="11.638471047518381"><ele>28.0</ele><time>2026-04-12T14:59:12.001Z</time></trkpt><trkpt lat="42.324767593172844" lon="11.638745612887663"><ele>28.5</ele><time>2026-04-12T14:59:13.001Z</time></trkpt><trkpt lat="42.324643217734355" lon="11.639008359155278"><ele>29.0</ele><time>2026-04-12T14:59:14.001Z</time></trkpt><trkpt lat="42.32450824844283" lon="11.639254623402758"><ele>25.5</ele><time>2026-04-12T14:59:15.001Z</time></trkpt><trkpt lat="42.3243540198922" lon="11.639490743829079"><ele>22.0</ele><time>2026-04-12T14:59:16.001Z</time></trkpt><trkpt lat="42.324183078612315" lon="11.63971300600257"><ele>22.0</ele><time>2026-04-12T14:59:17.001Z</time></trkpt><trkpt lat="42.32400191092106" lon="11.63992359360186"><ele>22.0</ele><time>2026-04-12T14:59:18.001Z</time></trkpt><trkpt lat="42.32381841683902" lon="11.640143233620659"><ele>19.5</ele><time>2026-04-12T14:59:19.001Z</time></trkpt><trkpt lat="42.32364398896381" lon="11.640362636337873"><ele>17.0</ele><time>2026-04-12T14:59:20.001Z</time></trkpt><trkpt lat="42.323471120931686" lon="11.64058659294611"><ele>17.0</ele><time>2026-04-12T14:59:21.001Z</time></trkpt><trkpt lat="42.32329238820427" lon="11.640819801990665"><ele>17.0</ele><time>2026-04-12T14:59:22.001Z</time></trkpt><trkpt lat="42.323120341085264" lon="11.641035556322903"><ele>17.5</ele><time>2026-04-12T14:59:23.001Z</time></trkpt><trkpt lat="42.3229458564723" lon="11.64125581601799"><ele>18.0</ele><time>2026-04-12T14:59:24.001Z</time></trkpt><trkpt lat="42.32276970218141" lon="11.641476852299869"><ele>18.0</ele><time>2026-04-12T14:59:25.001Z</time></trkpt><trkpt lat="42.32259223882667" lon="11.641695294069233"><ele>18.0</ele><time>2026-04-12T14:59:26.001Z</time></trkpt><trkpt lat="42.32241436591523" lon="11.641912420228339"><ele>18.0</ele><time>2026-04-12T14:59:27.001Z</time></trkpt><trkpt lat="42.322238259169495" lon="11.642126914306344"><ele>18.0</ele><time>2026-04-12T14:59:28.001Z</time></trkpt><trkpt lat="42.32206223168617" lon="11.642351354400146"><ele>17.0</ele><time>2026-04-12T14:59:29.001Z</time></trkpt><trkpt lat="42.32189264858972" lon="11.642598510195588"><ele>16.0</ele><time>2026-04-12T14:59:30.001Z</time></trkpt><trkpt lat="42.321739718307064" lon="11.64286841611078"><ele>16.0</ele><time>2026-04-12T14:59:31.001Z</time></trkpt><trkpt lat="42.32159965073532" lon="11.64315593002695"><ele>16.0</ele><time>2026-04-12T14:59:32.001Z</time></trkpt><trkpt lat="42.321470688489036" lon="11.643453357588873"><ele>14.5</ele><time>2026-04-12T14:59:33.001Z</time></trkpt><trkpt lat="42.321369129945985" lon="11.64374306920071"><ele>13.0</ele><time>2026-04-12T14:59:34.001Z</time></trkpt><trkpt lat="42.32129156451149" lon="11.644027975957638"><ele>13.0</ele><time>2026-04-12T14:59:35.001Z</time></trkpt><trkpt lat="42.3212293556183" lon="11.644300901596612"><ele>13.0</ele><time>2026-04-12T14:59:36.001Z</time></trkpt><trkpt lat="42.32117462845599" lon="11.64456560911897"><ele>13.0</ele><time>2026-04-12T14:59:37.001Z</time></trkpt><trkpt lat="42.32112464060582" lon="11.644839234171325"><ele>13.0</ele><time>2026-04-12T14:59:38.001Z</time></trkpt><trkpt lat="42.321075866175995" lon="11.645119101048138"><ele>13.0</ele><time>2026-04-12T14:59:39.001Z</time></trkpt><trkpt lat="42.32102552723891" lon="11.645403386763757"><ele>13.0</ele><time>2026-04-12T14:59:40.001Z</time></trkpt><trkpt lat="42.32097116892233" lon="11.645686207684436"><ele>13.666666666666666</ele><time>2026-04-12T14:59:41.001Z</time></trkpt><trkpt lat="42.3209182026067" lon="11.645971630830825"><ele>14.333333333333332</ele><time>2026-04-12T14:59:42.001Z</time></trkpt><trkpt lat="42.32086321582527" lon="11.64626569801953"><ele>15.0</ele><time>2026-04-12T14:59:43.001Z</time></trkpt><trkpt lat="42.32081107071697" lon="11.646557617883948"><ele>16.0</ele><time>2026-04-12T14:59:44.001Z</time></trkpt><trkpt lat="42.320751392499474" lon="11.646854456857474"><ele>17.0</ele><time>2026-04-12T14:59:45.002Z</time></trkpt><trkpt lat="42.320679268040664" lon="11.647155541582178"><ele>17.5</ele><time>2026-04-12T14:59:46.002Z</time></trkpt><trkpt lat="42.32060489305638" lon="11.647439171498789"><ele>18.0</ele><time>2026-04-12T14:59:47.002Z</time></trkpt><trkpt lat="42.320512865896134" lon="11.647728949675638"><ele>16.5</ele><time>2026-04-12T14:59:48.002Z</time></trkpt><trkpt lat="42.320410132954066" lon="11.648021238883716"><ele>15.0</ele><time>2026-04-12T14:59:49.002Z</time></trkpt><trkpt lat="42.320298951200755" lon="11.648313389586074"><ele>15.0</ele><time>2026-04-12T14:59:50.002Z</time></trkpt><trkpt lat="42.32018119781758" lon="11.648602605224953"><ele>15.0</ele><time>2026-04-12T14:59:51.002Z</time></trkpt><trkpt lat="42.320056692783176" lon="11.648890412805445"><ele>14.5</ele><time>2026-04-12T14:59:52.002Z</time></trkpt><trkpt lat="42.319919678637866" lon="11.649179896082424"><ele>14.0</ele><time>2026-04-12T14:59:53.002Z</time></trkpt><trkpt lat="42.31976800164223" lon="11.649448940342536"><ele>13.5</ele><time>2026-04-12T14:59:54.002Z</time></trkpt><trkpt lat="42.31960997473282" lon="11.649717007328526"><ele>13.0</ele><time>2026-04-12T14:59:55.002Z</time></trkpt><trkpt lat="42.31944228520383" lon="11.64998761489976"><ele>13.0</ele><time>2026-04-12T14:59:56.002Z</time></trkpt><trkpt lat="42.319271356263314" lon="11.650240271618383"><ele>13.0</ele><time>2026-04-12T14:59:57.002Z</time></trkpt><trkpt lat="42.319097277258884" lon="11.650494011800186"><ele>12.0</ele><time>2026-04-12T14:59:58.002Z</time></trkpt><trkpt lat="42.31892701627489" lon="11.650738012635687"><ele>11.0</ele><time>2026-04-12T14:59:59.002Z</time></trkpt><trkpt lat="42.318762836643835" lon="11.650982536412265"><ele>13.0</ele><time>2026-04-12T15:00:00.002Z</time></trkpt><trkpt lat="42.31860218252774" lon="11.651224222416625"><ele>15.0</ele><time>2026-04-12T15:00:01.002Z</time></trkpt><trkpt lat="42.31844654135787" lon="11.65146057545342"><ele>15.0</ele><time>2026-04-12T15:00:02.002Z</time></trkpt><trkpt lat="42.31829206843673" lon="11.65168682514892"><ele>15.0</ele><time>2026-04-12T15:00:03.002Z</time></trkpt><trkpt lat="42.31813438392046" lon="11.651893283326013"><ele>15.0</ele><time>2026-04-12T15:00:04.002Z</time></trkpt><trkpt lat="42.317970547913234" lon="11.652079267640127"><ele>14.666666666666668</ele><time>2026-04-12T15:00:05.002Z</time></trkpt><trkpt lat="42.317803649016554" lon="11.652257102734444"><ele>14.333333333333334</ele><time>2026-04-12T15:00:06.002Z</time></trkpt><trkpt lat="42.31762531040421" lon="11.652425081579459"><ele>14.0</ele><time>2026-04-12T15:00:07.002Z</time></trkpt><trkpt lat="42.3174376476736" lon="11.652579129901154"><ele>14.0</ele><time>2026-04-12T15:00:08.002Z</time></trkpt><trkpt lat="42.317243208288204" lon="11.652722456330018"><ele>14.0</ele><time>2026-04-12T15:00:09.002Z</time></trkpt><trkpt lat="42.3170442264361" lon="11.652860371880537"><ele>14.0</ele><time>2026-04-12T15:00:10.002Z</time></trkpt><trkpt lat="42.316842233375176" lon="11.652989862262373"><ele>15.0</ele><time>2026-04-12T15:00:11.002Z</time></trkpt><trkpt lat="42.31662731062662" lon="11.653115049348528"><ele>16.0</ele><time>2026-04-12T15:00:12.002Z</time></trkpt><trkpt lat="42.31640910497849" lon="11.653232714661977"><ele>15.5</ele><time>2026-04-12T15:00:13.002Z</time></trkpt><trkpt lat="42.316178437184476" lon="11.653335127554078"><ele>15.0</ele><time>2026-04-12T15:00:14.002Z</time></trkpt><trkpt lat="42.31594357611115" lon="11.653418738625222"><ele>15.0</ele><time>2026-04-12T15:00:15.002Z</time></trkpt><trkpt lat="42.31571409869287" lon="11.653482923406074"><ele>15.0</ele><time>2026-04-12T15:00:16.002Z</time></trkpt><trkpt lat="42.315495078142895" lon="11.65353629854779"><ele>14.666666666666668</ele><time>2026-04-12T15:00:17.002Z</time></trkpt><trkpt lat="42.31527792655559" lon="11.653575625894401"><ele>14.333333333333334</ele><time>2026-04-12T15:00:18.002Z</time></trkpt><trkpt lat="42.315056620863835" lon="11.653598780733931"><ele>14.0</ele><time>2026-04-12T15:00:19.002Z</time></trkpt><trkpt lat="42.31483173942567" lon="11.653608259638323"><ele>14.0</ele><time>2026-04-12T15:00:20.002Z</time></trkpt><trkpt lat="42.31460591601973" lon="11.653620741649698"><ele>14.0</ele><time>2026-04-12T15:00:21.002Z</time></trkpt><trkpt lat="42.31438393427484" lon="11.653636571259199"><ele>14.0</ele><time>2026-04-12T15:00:22.002Z</time></trkpt><trkpt lat="42.31415310520064" lon="11.653652767094856"><ele>14.666666666666668</ele><time>2026-04-12T15:00:23.002Z</time></trkpt><trkpt lat="42.31393003418073" lon="11.65367056527982"><ele>15.333333333333332</ele><time>2026-04-12T15:00:24.002Z</time></trkpt><trkpt lat="42.313714386401955" lon="11.653689713017556"><ele>16.0</ele><time>2026-04-12T15:00:25.002Z</time></trkpt><trkpt lat="42.31349224128191" lon="11.65370844951032"><ele>16.0</ele><time>2026-04-12T15:00:26.003Z</time></trkpt><trkpt lat="42.31326869275761" lon="11.653721518879607"><ele>16.0</ele><time>2026-04-12T15:00:27.003Z</time></trkpt><trkpt lat="42.31304462025308" lon="11.653732524022757"><ele>16.0</ele><time>2026-04-12T15:00:28.003Z</time></trkpt><trkpt lat="42.312819443717835" lon="11.65374421080351"><ele>17.666666666666664</ele><time>2026-04-12T15:00:29.003Z</time></trkpt><trkpt lat="42.31259727474784" lon="11.653757307322985"><ele>19.333333333333332</ele><time>2026-04-12T15:00:30.003Z</time></trkpt><trkpt lat="42.312374326788465" lon="11.653771247057803"><ele>21.0</ele><time>2026-04-12T15:00:31.003Z</time></trkpt><trkpt lat="42.31214995836938" lon="11.653786816661455"><ele>24.5</ele><time>2026-04-12T15:00:32.003Z</time></trkpt><trkpt lat="42.31192768764574" lon="11.653802557909081"><ele>28.0</ele><time>2026-04-12T15:00:33.003Z</time></trkpt><trkpt lat="42.31170045047485" lon="11.653822983774317"><ele>28.0</ele><time>2026-04-12T15:00:34.003Z</time></trkpt><trkpt lat="42.31147999493962" lon="11.653852880748119"><ele>28.0</ele><time>2026-04-12T15:00:35Z</time></trkpt><trkpt lat="42.311257426936905" lon="11.653908101974153"><ele>28.0</ele><time>2026-04-12T15:00:36Z</time></trkpt><trkpt lat="42.311034734678515" lon="11.653982427236683"><ele>29.5</ele><time>2026-04-12T15:00:37Z</time></trkpt><trkpt lat="42.31081664215996" lon="11.654059538822066"><ele>31.0</ele><time>2026-04-12T15:00:38Z</time></trkpt><trkpt lat="42.310596631921655" lon="11.65415497722082"><ele>30.5</ele><time>2026-04-12T15:00:39Z</time></trkpt><trkpt lat="42.31037813317541" lon="11.654274496660966"><ele>30.0</ele><time>2026-04-12T15:00:40Z</time></trkpt><trkpt lat="42.31016424316038" lon="11.654407206161947"><ele>29.333333333333336</ele><time>2026-04-12T15:00:41Z</time></trkpt><trkpt lat="42.309963668040574" lon="11.654556054163649"><ele>28.666666666666668</ele><time>2026-04-12T15:00:42Z</time></trkpt><trkpt lat="42.30978524039581" lon="11.654693134631769"><ele>28.0</ele><time>2026-04-12T15:00:43Z</time></trkpt><trkpt lat="42.30962796341212" lon="11.65480503598498"><ele>27.75</ele><time>2026-04-12T15:00:44Z</time></trkpt><trkpt lat="42.3094931778728" lon="11.654907078627993"><ele>27.5</ele><time>2026-04-12T15:00:45Z</time></trkpt><trkpt lat="42.309378022895764" lon="11.655007368299165"><ele>27.25</ele><time>2026-04-12T15:00:46Z</time></trkpt><trkpt lat="42.30928836968361" lon="11.655093132721623"><ele>27.0</ele><time>2026-04-12T15:00:47Z</time></trkpt><trkpt lat="42.30921613689532" lon="11.655144991155021"><ele>27.0</ele><time>2026-04-12T15:00:48Z</time></trkpt><trkpt lat="42.30908601336907" lon="11.655124098018616"><ele>27.000000000000004</ele><time>2026-04-12T15:00:50Z</time></trkpt><trkpt lat="42.309031533792286" lon="11.655063200488959"><ele>27.000000000000004</ele><time>2026-04-12T15:00:51Z</time></trkpt><trkpt lat="42.30899576925409" lon="11.654977126011277"><ele>27.0</ele><time>2026-04-12T15:00:52Z</time></trkpt><trkpt lat="42.308993270963846" lon="11.654823695479703"><ele>27.0</ele><time>2026-04-12T15:00:54Z</time></trkpt><trkpt lat="42.309056305575375" lon="11.654696575270053"><ele>27.0</ele><time>2026-04-12T15:00:56Z</time></trkpt><trkpt lat="42.309114255258535" lon="11.654633438745094"><ele>27.0</ele><time>2026-04-12T15:00:57Z</time></trkpt><trkpt lat="42.30918698479956" lon="11.654565828791544"><ele>27.0</ele><time>2026-04-12T15:00:58Z</time></trkpt><trkpt lat="42.30926673590276" lon="11.654488758885304"><ele>27.0</ele><time>2026-04-12T15:00:59Z</time></trkpt><trkpt lat="42.30933556862364" lon="11.654428733597511"><ele>27.0</ele><time>2026-04-12T15:01:00Z</time></trkpt><trkpt lat="42.30939878163739" lon="11.65436950519175"><ele>27.0</ele><time>2026-04-12T15:01:01Z</time></trkpt><trkpt lat="42.30946752697842" lon="11.654305886686009"><ele>27.666666666666668</ele><time>2026-04-12T15:01:02Z</time></trkpt><trkpt lat="42.30953581154091" lon="11.654243275173963"><ele>28.333333333333336</ele><time>2026-04-12T15:01:03Z</time></trkpt><trkpt lat="42.30959212064403" lon="11.654194394841246"><ele>29.0</ele><time>2026-04-12T15:01:04Z</time></trkpt><trkpt lat="42.30967204437346" lon="11.654137327337352"><ele>29.666666666666668</ele><time>2026-04-12T15:01:06Z</time></trkpt><trkpt lat="42.30970267856447" lon="11.65405270520217"><ele>30.333333333333336</ele><time>2026-04-12T15:02:08.002Z</time></trkpt><trkpt lat="42.309670380236156" lon="11.65390153401168"><ele>31.0</ele><time>2026-04-12T15:02:10.002Z</time></trkpt><trkpt lat="42.30961630724033" lon="11.653837570494263"><ele>31.0</ele><time>2026-04-12T15:02:11.002Z</time></trkpt><trkpt lat="42.30954816426902" lon="11.653779651455219"><ele>31.0</ele><time>2026-04-12T15:02:12.002Z</time></trkpt><trkpt lat="42.309476395742024" lon="11.653694597995964"><ele>31.0</ele><time>2026-04-12T15:02:13.002Z</time></trkpt><trkpt lat="42.30939635341895" lon="11.653630868836904"><ele>31.0</ele><time>2026-04-12T15:02:14.002Z</time></trkpt><trkpt lat="42.30930737769647" lon="11.653576113083972"><ele>31.0</ele><time>2026-04-12T15:02:15.002Z</time></trkpt><trkpt lat="42.30920753266721" lon="11.653544838460752"><ele>31.0</ele><time>2026-04-12T15:02:16.002Z</time></trkpt><trkpt lat="42.30911053624468" lon="11.653500661938441"><ele>31.0</ele><time>2026-04-12T15:02:17.002Z</time></trkpt><trkpt lat="42.3089981827607" lon="11.653457048108882"><ele>31.0</ele><time>2026-04-12T15:02:18.002Z</time></trkpt><trkpt lat="42.308878226223854" lon="11.653405529313774"><ele>31.0</ele><time>2026-04-12T15:02:19.002Z</time></trkpt><trkpt lat="42.30875313670678" lon="11.653348700004624"><ele>31.0</ele><time>2026-04-12T15:02:20.002Z</time></trkpt><trkpt lat="42.30862126191309" lon="11.653292984369324"><ele>31.0</ele><time>2026-04-12T15:02:21.002Z</time></trkpt><trkpt lat="42.30848666846743" lon="11.653239284768052"><ele>31.0</ele><time>2026-04-12T15:02:22.002Z</time></trkpt><trkpt lat="42.30836483605463" lon="11.653180355086374"><ele>31.0</ele><time>2026-04-12T15:02:23.002Z</time></trkpt><trkpt lat="42.30824545439476" lon="11.653135923629451"><ele>31.0</ele><time>2026-04-12T15:02:24.002Z</time></trkpt><trkpt lat="42.30813293650938" lon="11.653083934831043"><ele>31.0</ele><time>2026-04-12T15:02:25.002Z</time></trkpt><trkpt lat="42.308027202919654" lon="11.653022945088003"><ele>31.0</ele><time>2026-04-12T15:02:26.002Z</time></trkpt><trkpt lat="42.30792027116584" lon="11.652996029819247"><ele>31.0</ele><time>2026-04-12T15:02:27.002Z</time></trkpt><trkpt lat="42.30782814594726" lon="11.652942575565474"><ele>31.0</ele><time>2026-04-12T15:02:28.002Z</time></trkpt><trkpt lat="42.307739670110216" lon="11.652892265655982"><ele>30.666666666666668</ele><time>2026-04-12T15:02:29.003Z</time></trkpt><trkpt lat="42.30766388962614" lon="11.652857494671107"><ele>30.333333333333336</ele><time>2026-04-12T15:02:30.003Z</time></trkpt><trkpt lat="42.30757305807716" lon="11.652820268726634"><ele>30.0</ele><time>2026-04-12T15:02:32.003Z</time></trkpt><trkpt lat="42.30747698592963" lon="11.652811091110237"><ele>29.666666666666664</ele><time>2026-04-12T15:03:03.001Z</time></trkpt><trkpt lat="42.30739674371769" lon="11.65277529991828"><ele>29.333333333333332</ele><time>2026-04-12T15:03:05.001Z</time></trkpt><trkpt lat="42.307325388494036" lon="11.65273927192338"><ele>29.0</ele><time>2026-04-12T15:03:07.001Z</time></trkpt><trkpt lat="42.307250766683005" lon="11.652707221244887"><ele>28.4</ele><time>2026-04-12T15:03:09.001Z</time></trkpt><trkpt lat="42.30714754884381" lon="11.652666680325058"><ele>27.799999999999997</ele><time>2026-04-12T15:03:11.001Z</time></trkpt><trkpt lat="42.30702862838862" lon="11.652615649041497"><ele>27.200000000000003</ele><time>2026-04-12T15:03:13.001Z</time></trkpt><trkpt lat="42.30695738609999" lon="11.652587353695539"><ele>26.6</ele><time>2026-04-12T15:03:14.001Z</time></trkpt><trkpt lat="42.306878256808645" lon="11.652552596299847"><ele>26.0</ele><time>2026-04-12T15:03:15.001Z</time></trkpt><trkpt lat="42.30679212404961" lon="11.652512606574577"><ele>26.0</ele><time>2026-04-12T15:03:16.001Z</time></trkpt><trkpt lat="42.3066998733215" lon="11.652474372240393"><ele>26.0</ele><time>2026-04-12T15:03:17.001Z</time></trkpt><trkpt lat="42.30660717051872" lon="11.652440351725915"><ele>26.0</ele><time>2026-04-12T15:03:18.001Z</time></trkpt><trkpt lat="42.30651449722384" lon="11.652402794421102"><ele>26.0</ele><time>2026-04-12T15:03:19.001Z</time></trkpt><trkpt lat="42.306413188288126" lon="11.652361529944704"><ele>26.0</ele><time>2026-04-12T15:03:20.001Z</time></trkpt><trkpt lat="42.306303051769866" lon="11.652313477834177"><ele>25.5</ele><time>2026-04-12T15:03:21.001Z</time></trkpt><trkpt lat="42.30618512847497" lon="11.652261320159278"><ele>25.0</ele><time>2026-04-12T15:03:22.001Z</time></trkpt><trkpt lat="42.30605819170255" lon="11.652204354674376"><ele>24.5</ele><time>2026-04-12T15:03:23.001Z</time></trkpt><trkpt lat="42.305931577662136" lon="11.652148528011448"><ele>24.0</ele><time>2026-04-12T15:03:24.001Z</time></trkpt><trkpt lat="42.30580634670374" lon="11.652097761913993"><ele>24.0</ele><time>2026-04-12T15:03:25.001Z</time></trkpt><trkpt lat="42.30567016264222" lon="11.652045261693916"><ele>24.0</ele><time>2026-04-12T15:03:26.001Z</time></trkpt><trkpt lat="42.30552260883231" lon="11.651989123499977"><ele>24.0</ele><time>2026-04-12T15:03:27.001Z</time></trkpt><trkpt lat="42.30536790153544" lon="11.65192222034397"><ele>23.0</ele><time>2026-04-12T15:03:28.001Z</time></trkpt><trkpt lat="42.305206710939025" lon="11.651855394215396"><ele>22.0</ele><time>2026-04-12T15:03:29.001Z</time></trkpt><trkpt lat="42.30503892957211" lon="11.651783833363078"><ele>21.0</ele><time>2026-04-12T15:03:30.001Z</time></trkpt><trkpt lat="42.30486908923656" lon="11.651711926276255"><ele>20.666666666666668</ele><time>2026-04-12T15:03:31.001Z</time></trkpt><trkpt lat="42.30469018156355" lon="11.651635466050156"><ele>20.333333333333336</ele><time>2026-04-12T15:03:32.001Z</time></trkpt><trkpt lat="42.304508179558056" lon="11.651555486834607"><ele>20.0</ele><time>2026-04-12T15:03:33.001Z</time></trkpt><trkpt lat="42.30431527463198" lon="11.651469443096707"><ele>20.0</ele><time>2026-04-12T15:03:34.001Z</time></trkpt><trkpt lat="42.30412951065889" lon="11.651388949194905"><ele>20.0</ele><time>2026-04-12T15:03:35.001Z</time></trkpt><trkpt lat="42.3039377731464" lon="11.65130736343792"><ele>20.0</ele><time>2026-04-12T15:03:36.001Z</time></trkpt><trkpt lat="42.303732878306576" lon="11.651222123800162"><ele>20.0</ele><time>2026-04-12T15:03:37.001Z</time></trkpt><trkpt lat="42.303523453593044" lon="11.651132854641949"><ele>20.0</ele><time>2026-04-12T15:03:38.001Z</time></trkpt><trkpt lat="42.30330937645161" lon="11.651040507382614"><ele>20.0</ele><time>2026-04-12T15:03:39.001Z</time></trkpt><trkpt lat="42.30311442425464" lon="11.650935443438257"><ele>20.0</ele><time>2026-04-12T15:03:40.001Z</time></trkpt><trkpt lat="42.30291711642835" lon="11.650849747695652"><ele>20.0</ele><time>2026-04-12T15:03:41.001Z</time></trkpt><trkpt lat="42.302719111629976" lon="11.650789676695656"><ele>20.0</ele><time>2026-04-12T15:03:42.001Z</time></trkpt><trkpt lat="42.30252378696498" lon="11.650706606626692"><ele>20.0</ele><time>2026-04-12T15:03:43.001Z</time></trkpt><trkpt lat="42.30233498209193" lon="11.650628822163526"><ele>20.0</ele><time>2026-04-12T15:03:44.001Z</time></trkpt><trkpt lat="42.30216404542066" lon="11.65053504201652"><ele>20.0</ele><time>2026-04-12T15:03:45.001Z</time></trkpt><trkpt lat="42.30199638380934" lon="11.650463526051636"><ele>19.666666666666668</ele><time>2026-04-12T15:03:46.001Z</time></trkpt><trkpt lat="42.30183546168187" lon="11.650394884726415"><ele>19.333333333333332</ele><time>2026-04-12T15:03:47.001Z</time></trkpt><trkpt lat="42.30166984376227" lon="11.65032430862661"><ele>19.0</ele><time>2026-04-12T15:03:48.001Z</time></trkpt><trkpt lat="42.30149681695514" lon="11.650264855062735"><ele>18.333333333333332</ele><time>2026-04-12T15:03:49.001Z</time></trkpt><trkpt lat="42.30132066097199" lon="11.65019041884005"><ele>17.666666666666668</ele><time>2026-04-12T15:03:50.001Z</time></trkpt><trkpt lat="42.30114246598151" lon="11.65011909880914"><ele>17.0</ele><time>2026-04-12T15:03:51.001Z</time></trkpt><trkpt lat="42.30096778016742" lon="11.650021571758776"><ele>17.0</ele><time>2026-04-12T15:03:52.002Z</time></trkpt><trkpt lat="42.30078747767191" lon="11.649979433145266"><ele>17.0</ele><time>2026-04-12T15:03:53.002Z</time></trkpt><trkpt lat="42.300621241576835" lon="11.649943439735994"><ele>17.0</ele><time>2026-04-12T15:03:54.002Z</time></trkpt><trkpt lat="42.30046327161029" lon="11.649940579612634"><ele>16.666666666666668</ele><time>2026-04-12T15:03:55.002Z</time></trkpt><trkpt lat="42.30029538828351" lon="11.649976259087794"><ele>16.333333333333332</ele><time>2026-04-12T15:03:56.002Z</time></trkpt><trkpt lat="42.300127448052066" lon="11.650043980057276"><ele>16.0</ele><time>2026-04-12T15:03:57.002Z</time></trkpt><trkpt lat="42.29995699109976" lon="11.6501426801447"><ele>16.0</ele><time>2026-04-12T15:03:58.002Z</time></trkpt><trkpt lat="42.299786432129814" lon="11.650216579359721"><ele>16.0</ele><time>2026-04-12T15:03:59.002Z</time></trkpt><trkpt lat="42.29963488757532" lon="11.650256748708033"><ele>16.0</ele><time>2026-04-12T15:04:00.002Z</time></trkpt><trkpt lat="42.29948741783881" lon="11.65024798965137"><ele>16.333333333333332</ele><time>2026-04-12T15:04:01.002Z</time></trkpt><trkpt lat="42.29933860677511" lon="11.650200791438232"><ele>16.666666666666668</ele><time>2026-04-12T15:04:02.002Z</time></trkpt><trkpt lat="42.29920248561668" lon="11.650102995531235"><ele>17.0</ele><time>2026-04-12T15:04:03.002Z</time></trkpt><trkpt lat="42.299068371508625" lon="11.649966909565714"><ele>17.0</ele><time>2026-04-12T15:04:04.002Z</time></trkpt><trkpt lat="42.29892581740507" lon="11.649827075000898"><ele>17.0</ele><time>2026-04-12T15:04:05.002Z</time></trkpt><trkpt lat="42.298796360345364" lon="11.649662962753895"><ele>17.0</ele><time>2026-04-12T15:04:06.002Z</time></trkpt><trkpt lat="42.29865703411485" lon="11.649506845660548"><ele>16.666666666666668</ele><time>2026-04-12T15:04:07.002Z</time></trkpt><trkpt lat="42.29851670330238" lon="11.649346880901701"><ele>16.333333333333332</ele><time>2026-04-12T15:04:08.002Z</time></trkpt><trkpt lat="42.29837808095739" lon="11.649189294722888"><ele>16.0</ele><time>2026-04-12T15:04:09.002Z</time></trkpt><trkpt lat="42.29823844480064" lon="11.649028832316912"><ele>16.0</ele><time>2026-04-12T15:04:10.002Z</time></trkpt><trkpt lat="42.29810020769369" lon="11.648862131296754"><ele>16.0</ele><time>2026-04-12T15:04:11.002Z</time></trkpt><trkpt lat="42.297965712231246" lon="11.648699814357695"><ele>16.0</ele><time>2026-04-12T15:04:12.002Z</time></trkpt><trkpt lat="42.297829191769715" lon="11.648546278338818"><ele>15.0</ele><time>2026-04-12T15:04:13.002Z</time></trkpt><trkpt lat="42.297692444549035" lon="11.648405921520975"><ele>14.0</ele><time>2026-04-12T15:04:14.002Z</time></trkpt><trkpt lat="42.297543479653676" lon="11.648302222119302"><ele>13.0</ele><time>2026-04-12T15:04:15.002Z</time></trkpt><trkpt lat="42.297381717311715" lon="11.648250347511812"><ele>12.666666666666666</ele><time>2026-04-12T15:04:16.002Z</time></trkpt><trkpt lat="42.29720850077673" lon="11.648257536133356"><ele>12.333333333333332</ele><time>2026-04-12T15:04:17.002Z</time></trkpt><trkpt lat="42.29703491120689" lon="11.648276384896274"><ele>12.0</ele><time>2026-04-12T15:04:18.002Z</time></trkpt><trkpt lat="42.29687561322963" lon="11.648348993522264"><ele>12.0</ele><time>2026-04-12T15:04:19.002Z</time></trkpt><trkpt lat="42.29673333070758" lon="11.648457331962678"><ele>12.0</ele><time>2026-04-12T15:04:20.002Z</time></trkpt><trkpt lat="42.296606673213574" lon="11.648591084409397"><ele>12.0</ele><time>2026-04-12T15:04:21.002Z</time></trkpt><trkpt lat="42.296492550973426" lon="11.648751333173053"><ele>11.666666666666666</ele><time>2026-04-12T15:04:22.002Z</time></trkpt><trkpt lat="42.2963936430604" lon="11.648929533928778"><ele>11.333333333333332</ele><time>2026-04-12T15:04:23.002Z</time></trkpt><trkpt lat="42.29627666922971" lon="11.649084002850227"><ele>11.0</ele><time>2026-04-12T15:04:24.002Z</time></trkpt><trkpt lat="42.29618609804321" lon="11.649226985176659"><ele>11.0</ele><time>2026-04-12T15:04:25.002Z</time></trkpt><trkpt lat="42.29609695880121" lon="11.649367706798245"><ele>11.0</ele><time>2026-04-12T15:04:26.002Z</time></trkpt><trkpt lat="42.296013064180016" lon="11.649500148834996"><ele>11.0</ele><time>2026-04-12T15:04:27.002Z</time></trkpt><trkpt lat="42.295933888662674" lon="11.64962620222687"><ele>11.0</ele><time>2026-04-12T15:04:28.002Z</time></trkpt><trkpt lat="42.295859158235885" lon="11.64974521883307"><ele>11.0</ele><time>2026-04-12T15:04:29.002Z</time></trkpt><trkpt lat="42.29578703810787" lon="11.649860080655662"><ele>11.0</ele><time>2026-04-12T15:04:30.002Z</time></trkpt><trkpt lat="42.295723615472255" lon="11.649991951806728"><ele>11.0</ele><time>2026-04-12T15:04:31.002Z</time></trkpt><trkpt lat="42.29564650689414" lon="11.650108269984269"><ele>11.0</ele><time>2026-04-12T15:04:32.002Z</time></trkpt><trkpt lat="42.29557261097881" lon="11.650227622974455"><ele>11.8</ele><time>2026-04-12T15:04:33.002Z</time></trkpt><trkpt lat="42.295503005255114" lon="11.650340774555"><ele>12.600000000000001</ele><time>2026-04-12T15:04:34.002Z</time></trkpt><trkpt lat="42.2954319556126" lon="11.65045067110687"><ele>13.4</ele><time>2026-04-12T15:04:35.003Z</time></trkpt><trkpt lat="42.2953677204119" lon="11.650557388878607"><ele>14.2</ele><time>2026-04-12T15:04:36.003Z</time></trkpt><trkpt lat="42.29530080750532" lon="11.650671661926888"><ele>15.0</ele><time>2026-04-12T15:04:37.003Z</time></trkpt><trkpt lat="42.29522105965417" lon="11.650798946702789"><ele>15.0</ele><time>2026-04-12T15:04:38.003Z</time></trkpt><trkpt lat="42.29513555041676" lon="11.650923268021783"><ele>15.0</ele><time>2026-04-12T15:04:39.003Z</time></trkpt><trkpt lat="42.295046913162814" lon="11.651069400659818"><ele>15.0</ele><time>2026-04-12T15:04:40.003Z</time></trkpt><trkpt lat="42.294947322599185" lon="11.65123243578357"><ele>15.0</ele><time>2026-04-12T15:04:41.003Z</time></trkpt><trkpt lat="42.29483020244901" lon="11.651409985298631"><ele>13.666666666666666</ele><time>2026-04-12T15:04:42.003Z</time></trkpt><trkpt lat="42.29470794283517" lon="11.651599944114322"><ele>12.333333333333332</ele><time>2026-04-12T15:04:43.003Z</time></trkpt><trkpt lat="42.29457127764439" lon="11.651801919653773"><ele>11.0</ele><time>2026-04-12T15:04:44.003Z</time></trkpt><trkpt lat="42.29442900628175" lon="11.652021709317781"><ele>9.0</ele><time>2026-04-12T15:04:45.003Z</time></trkpt><trkpt lat="42.29428631564734" lon="11.652259664316647"><ele>7.0</ele><time>2026-04-12T15:04:46Z</time></trkpt><trkpt lat="42.2941209779583" lon="11.652503695782105"><ele>7.0</ele><time>2026-04-12T15:04:47Z</time></trkpt><trkpt lat="42.29395078746343" lon="11.652771939712476"><ele>7.0</ele><time>2026-04-12T15:04:48Z</time></trkpt><trkpt lat="42.2937784927891" lon="11.65304701170432"><ele>9.5</ele><time>2026-04-12T15:04:49Z</time></trkpt><trkpt lat="42.293601899309614" lon="11.65332676689918"><ele>12.0</ele><time>2026-04-12T15:04:50Z</time></trkpt><trkpt lat="42.29343115525818" lon="11.653598608385341"><ele>12.5</ele><time>2026-04-12T15:04:51Z</time></trkpt><trkpt lat="42.293250996033684" lon="11.653885769223228"><ele>13.0</ele><time>2026-04-12T15:04:52Z</time></trkpt><trkpt lat="42.293067096336884" lon="11.654178944678373"><ele>14.0</ele><time>2026-04-12T15:04:53Z</time></trkpt><trkpt lat="42.29287941486627" lon="11.654476200676383"><ele>15.0</ele><time>2026-04-12T15:04:54Z</time></trkpt><trkpt lat="42.29270609281252" lon="11.654766996312054"><ele>15.0</ele><time>2026-04-12T15:04:55Z</time></trkpt><trkpt lat="42.29254511012514" lon="11.655028277663046"><ele>15.0</ele><time>2026-04-12T15:04:56Z</time></trkpt><trkpt lat="42.29238172620873" lon="11.655260380167498"><ele>14.0</ele><time>2026-04-12T15:04:57Z</time></trkpt><trkpt lat="42.29222978572666" lon="11.655500268107536"><ele>13.0</ele><time>2026-04-12T15:04:58Z</time></trkpt><trkpt lat="42.29207828097398" lon="11.655739467784349"><ele>13.0</ele><time>2026-04-12T15:04:59Z</time></trkpt><trkpt lat="42.2919261685624" lon="11.655979759490249"><ele>13.0</ele><time>2026-04-12T15:05:00Z</time></trkpt><trkpt lat="42.291777915267325" lon="11.656213983679587"><ele>14.0</ele><time>2026-04-12T15:05:01Z</time></trkpt><trkpt lat="42.29164400138417" lon="11.656459058740655"><ele>15.0</ele><time>2026-04-12T15:05:02Z</time></trkpt><trkpt lat="42.29148355183526" lon="11.656679668032252"><ele>15.0</ele><time>2026-04-12T15:05:03Z</time></trkpt><trkpt lat="42.29133644145868" lon="11.656912824211602"><ele>15.0</ele><time>2026-04-12T15:05:04Z</time></trkpt><trkpt lat="42.29118511076568" lon="11.657152669433227"><ele>15.0</ele><time>2026-04-12T15:05:05Z</time></trkpt><trkpt lat="42.29102743475832" lon="11.657402571436009"><ele>15.0</ele><time>2026-04-12T15:05:06Z</time></trkpt><trkpt lat="42.29087022199164" lon="11.6576517391932"><ele>14.5</ele><time>2026-04-12T15:05:07Z</time></trkpt><trkpt lat="42.29071780314784" lon="11.6578919561514"><ele>14.0</ele><time>2026-04-12T15:05:08Z</time></trkpt><trkpt lat="42.290571199260796" lon="11.658121844200835"><ele>13.0</ele><time>2026-04-12T15:05:09Z</time></trkpt><trkpt lat="42.29042247673771" lon="11.658355623459702"><ele>12.0</ele><time>2026-04-12T15:05:10Z</time></trkpt><trkpt lat="42.29028855732522" lon="11.658601087821047"><ele>12.666666666666668</ele><time>2026-04-12T15:05:11Z</time></trkpt><trkpt lat="42.29014317607376" lon="11.658825885924708"><ele>13.333333333333334</ele><time>2026-04-12T15:05:12Z</time></trkpt><trkpt lat="42.289993134743945" lon="11.659057891147244"><ele>14.0</ele><time>2026-04-12T15:05:13Z</time></trkpt><trkpt lat="42.289846218244165" lon="11.659287595758457"><ele>15.0</ele><time>2026-04-12T15:05:14Z</time></trkpt><trkpt lat="42.28969498465066" lon="11.659528820473277"><ele>16.0</ele><time>2026-04-12T15:05:15Z</time></trkpt><trkpt lat="42.28954657549525" lon="11.659767316175175"><ele>16.0</ele><time>2026-04-12T15:05:16Z</time></trkpt><trkpt lat="42.289394465447074" lon="11.660007141755464"><ele>16.0</ele><time>2026-04-12T15:05:17Z</time></trkpt><trkpt lat="42.2892394719758" lon="11.660241738219796"><ele>15.5</ele><time>2026-04-12T15:05:18Z</time></trkpt><trkpt lat="42.28908389951062" lon="11.660484467434351"><ele>15.0</ele><time>2026-04-12T15:05:19Z</time></trkpt><trkpt lat="42.2889325797702" lon="11.660728965607218"><ele>14.5</ele><time>2026-04-12T15:05:20Z</time></trkpt><trkpt lat="42.288772486616594" lon="11.660955232594073"><ele>14.0</ele><time>2026-04-12T15:05:21Z</time></trkpt><trkpt lat="42.288626332698605" lon="11.661189628016391"><ele>13.0</ele><time>2026-04-12T15:05:22Z</time></trkpt><trkpt lat="42.28848265137965" lon="11.661418861315841"><ele>12.0</ele><time>2026-04-12T15:05:23Z</time></trkpt><trkpt lat="42.28833995896091" lon="11.661643483627754"><ele>11.0</ele><time>2026-04-12T15:05:24Z</time></trkpt><trkpt lat="42.288195993027905" lon="11.661870940450184"><ele>10.0</ele><time>2026-04-12T15:05:25.001Z</time></trkpt><trkpt lat="42.28806330877937" lon="11.662112673275045"><ele>9.0</ele><time>2026-04-12T15:05:26.001Z</time></trkpt><trkpt lat="42.28791737926048" lon="11.662336625329262"><ele>8.0</ele><time>2026-04-12T15:05:27.001Z</time></trkpt><trkpt lat="42.28777139228412" lon="11.662576576984277"><ele>8.666666666666666</ele><time>2026-04-12T15:05:28.001Z</time></trkpt><trkpt lat="42.28763708355488" lon="11.662785910126585"><ele>9.333333333333334</ele><time>2026-04-12T15:05:29.001Z</time></trkpt><trkpt lat="42.287490082914616" lon="11.662986084750372"><ele>10.0</ele><time>2026-04-12T15:05:30.001Z</time></trkpt><trkpt lat="42.2873498276531" lon="11.663209623748022"><ele>9.666666666666668</ele><time>2026-04-12T15:05:31.001Z</time></trkpt><trkpt lat="42.28722063735512" lon="11.663450426229499"><ele>9.333333333333334</ele><time>2026-04-12T15:05:32.001Z</time></trkpt><trkpt lat="42.28707666077479" lon="11.66367200508077"><ele>9.0</ele><time>2026-04-12T15:05:33.001Z</time></trkpt><trkpt lat="42.286932204093276" lon="11.663899539921585"><ele>10.0</ele><time>2026-04-12T15:05:34.001Z</time></trkpt><trkpt lat="42.28678914648997" lon="11.664123612021738"><ele>11.0</ele><time>2026-04-12T15:05:35.001Z</time></trkpt><trkpt lat="42.286644580797564" lon="11.664349639404337"><ele>12.0</ele><time>2026-04-12T15:05:36.001Z</time></trkpt><trkpt lat="42.286503285932014" lon="11.664574556837714"><ele>13.0</ele><time>2026-04-12T15:05:37.001Z</time></trkpt><trkpt lat="42.286360762775736" lon="11.6648065726959"><ele>14.0</ele><time>2026-04-12T15:05:38.001Z</time></trkpt><trkpt lat="42.286221268067976" lon="11.66502752401711"><ele>15.0</ele><time>2026-04-12T15:05:39.001Z</time></trkpt><trkpt lat="42.28608126566635" lon="11.66524397923292"><ele>15.333333333333332</ele><time>2026-04-12T15:05:40.001Z</time></trkpt><trkpt lat="42.285942344231586" lon="11.66546796847767"><ele>15.666666666666666</ele><time>2026-04-12T15:05:41.001Z</time></trkpt><trkpt lat="42.285805578127295" lon="11.665683557943469"><ele>16.0</ele><time>2026-04-12T15:05:42.001Z</time></trkpt><trkpt lat="42.285663410462966" lon="11.6659075370579"><ele>16.666666666666664</ele><time>2026-04-12T15:05:43.001Z</time></trkpt><trkpt lat="42.28552115930599" lon="11.666135309985096"><ele>17.333333333333332</ele><time>2026-04-12T15:05:44.001Z</time></trkpt><trkpt lat="42.28538061637789" lon="11.666364570315748"><ele>18.0</ele><time>2026-04-12T15:05:45.001Z</time></trkpt><trkpt lat="42.28523953888908" lon="11.666587097107852"><ele>18.0</ele><time>2026-04-12T15:05:46.001Z</time></trkpt><trkpt lat="42.2850910157843" lon="11.666814228951578"><ele>18.0</ele><time>2026-04-12T15:05:47.001Z</time></trkpt><trkpt lat="42.28494747839277" lon="11.667039571817142"><ele>18.0</ele><time>2026-04-12T15:05:48.001Z</time></trkpt><trkpt lat="42.28480353127328" lon="11.667273505880985"><ele>16.0</ele><time>2026-04-12T15:05:49.001Z</time></trkpt><trkpt lat="42.28465747830223" lon="11.66750314691529"><ele>14.0</ele><time>2026-04-12T15:05:50.001Z</time></trkpt><trkpt lat="42.28450725187235" lon="11.66773703186773"><ele>13.666666666666668</ele><time>2026-04-12T15:05:51.001Z</time></trkpt><trkpt lat="42.284366760887146" lon="11.667963695441287"><ele>13.333333333333332</ele><time>2026-04-12T15:05:52.001Z</time></trkpt><trkpt lat="42.284237035639116" lon="11.668171763533367"><ele>13.0</ele><time>2026-04-12T15:05:53.001Z</time></trkpt><trkpt lat="42.28411728075639" lon="11.668364053330528"><ele>13.0</ele><time>2026-04-12T15:05:54.001Z</time></trkpt><trkpt lat="42.28400363221369" lon="11.668545209991132"><ele>13.0</ele><time>2026-04-12T15:05:55.001Z</time></trkpt><trkpt lat="42.28389473705256" lon="11.668715799377356"><ele>13.0</ele><time>2026-04-12T15:05:56.001Z</time></trkpt><trkpt lat="42.28379175560279" lon="11.668875478155885"><ele>13.0</ele><time>2026-04-12T15:05:57.001Z</time></trkpt><trkpt lat="42.283692941716076" lon="11.669027902234092"><ele>13.0</ele><time>2026-04-12T15:05:58.001Z</time></trkpt><trkpt lat="42.28360252797851" lon="11.669168796553453"><ele>13.0</ele><time>2026-04-12T15:05:59.001Z</time></trkpt><trkpt lat="42.28351408488494" lon="11.66931292979923"><ele>13.0</ele><time>2026-04-12T15:06:00.001Z</time></trkpt><trkpt lat="42.28342157035799" lon="11.669450966565178"><ele>12.75</ele><time>2026-04-12T15:06:01.001Z</time></trkpt><trkpt lat="42.283329716973626" lon="11.669592234724302"><ele>12.5</ele><time>2026-04-12T15:06:02.001Z</time></trkpt><trkpt lat="42.28323978017565" lon="11.66973007596227"><ele>12.25</ele><time>2026-04-12T15:06:03.001Z</time></trkpt><trkpt lat="42.283158665229195" lon="11.669861567772443"><ele>12.0</ele><time>2026-04-12T15:06:04.002Z</time></trkpt><trkpt lat="42.28308212400745" lon="11.669984830088005"><ele>12.0</ele><time>2026-04-12T15:06:05.002Z</time></trkpt><trkpt lat="42.28300767644284" lon="11.670098551371224"><ele>12.0</ele><time>2026-04-12T15:06:06.002Z</time></trkpt><trkpt lat="42.2829369821193" lon="11.670210132937475"><ele>12.0</ele><time>2026-04-12T15:06:07.002Z</time></trkpt><trkpt lat="42.282866318667786" lon="11.670328445276908"><ele>12.0</ele><time>2026-04-12T15:06:08.002Z</time></trkpt><trkpt lat="42.28279209799574" lon="11.670446676767002"><ele>12.0</ele><time>2026-04-12T15:06:09.002Z</time></trkpt><trkpt lat="42.282722819590546" lon="11.670554826645068"><ele>12.6</ele><time>2026-04-12T15:06:10.002Z</time></trkpt><trkpt lat="42.28266465397965" lon="11.670655827927277"><ele>13.2</ele><time>2026-04-12T15:06:11.002Z</time></trkpt><trkpt lat="42.2826032429506" lon="11.670758328674236"><ele>13.8</ele><time>2026-04-12T15:06:12.002Z</time></trkpt><trkpt lat="42.28253341024882" lon="11.670860060883296"><ele>14.4</ele><time>2026-04-12T15:06:13.002Z</time></trkpt><trkpt lat="42.282461616311615" lon="11.670965409575661"><ele>15.0</ele><time>2026-04-12T15:06:14.002Z</time></trkpt><trkpt lat="42.28238861584089" lon="11.671075482175679"><ele>14.75</ele><time>2026-04-12T15:06:15.002Z</time></trkpt><trkpt lat="42.282316948131076" lon="11.671188139158371"><ele>14.5</ele><time>2026-04-12T15:06:16.002Z</time></trkpt><trkpt lat="42.28224414805787" lon="11.671303845713993"><ele>14.25</ele><time>2026-04-12T15:06:17.002Z</time></trkpt><trkpt lat="42.282167092163476" lon="11.67141786372991"><ele>14.0</ele><time>2026-04-12T15:06:18.002Z</time></trkpt><trkpt lat="42.28209086637722" lon="11.671534774543861"><ele>14.0</ele><time>2026-04-12T15:06:19.002Z</time></trkpt><trkpt lat="42.282022164964786" lon="11.671655392704311"><ele>14.0</ele><time>2026-04-12T15:06:20.002Z</time></trkpt><trkpt lat="42.28194923728925" lon="11.671773631504108"><ele>14.0</ele><time>2026-04-12T15:06:21.002Z</time></trkpt><trkpt lat="42.28187105118611" lon="11.671896758688124"><ele>14.0</ele><time>2026-04-12T15:06:22.002Z</time></trkpt><trkpt lat="42.28179337467305" lon="11.672013540099904"><ele>14.0</ele><time>2026-04-12T15:06:23.002Z</time></trkpt><trkpt lat="42.2817223253612" lon="11.67212883716223"><ele>13.999999999999998</ele><time>2026-04-12T15:06:24.002Z</time></trkpt><trkpt lat="42.28165254727092" lon="11.672242657946514"><ele>13.999999999999998</ele><time>2026-04-12T15:06:25.002Z</time></trkpt><trkpt lat="42.28158135882294" lon="11.672358458612102"><ele>14.0</ele><time>2026-04-12T15:06:26.002Z</time></trkpt><trkpt lat="42.281505757236026" lon="11.672475954253478"><ele>14.0</ele><time>2026-04-12T15:06:27.002Z</time></trkpt><trkpt lat="42.28142934791378" lon="11.672599958485941"><ele>13.75</ele><time>2026-04-12T15:06:28.002Z</time></trkpt><trkpt lat="42.28134890775806" lon="11.672729810122792"><ele>13.5</ele><time>2026-04-12T15:06:29.002Z</time></trkpt><trkpt lat="42.28126974131441" lon="11.672849221736158"><ele>13.25</ele><time>2026-04-12T15:06:30.002Z</time></trkpt><trkpt lat="42.28120095191404" lon="11.672968727941061"><ele>13.0</ele><time>2026-04-12T15:06:31.002Z</time></trkpt><trkpt lat="42.28112581727231" lon="11.67308509647406"><ele>13.0</ele><time>2026-04-12T15:06:32.002Z</time></trkpt><trkpt lat="42.281053428260165" lon="11.673196554753478"><ele>13.0</ele><time>2026-04-12T15:06:33.002Z</time></trkpt><trkpt lat="42.28098256595678" lon="11.67330325711179"><ele>13.0</ele><time>2026-04-12T15:06:34.002Z</time></trkpt><trkpt lat="42.28091335433332" lon="11.67340913239878"><ele>13.0</ele><time>2026-04-12T15:06:35.002Z</time></trkpt><trkpt lat="42.28084463730753" lon="11.673521968733523"><ele>13.0</ele><time>2026-04-12T15:06:36.002Z</time></trkpt><trkpt lat="42.280774027395466" lon="11.673631033722204"><ele>13.0</ele><time>2026-04-12T15:06:37.002Z</time></trkpt><trkpt lat="42.28070295776517" lon="11.673742466691744"><ele>13.0</ele><time>2026-04-12T15:06:38.002Z</time></trkpt><trkpt lat="42.28063300677327" lon="11.673859059252141"><ele>13.0</ele><time>2026-04-12T15:06:39.002Z</time></trkpt><trkpt lat="42.28055833820083" lon="11.673969367771104"><ele>13.0</ele><time>2026-04-12T15:06:40.002Z</time></trkpt><trkpt lat="42.28048983928442" lon="11.674080589363486"><ele>13.0</ele><time>2026-04-12T15:06:41.002Z</time></trkpt><trkpt lat="42.28042089341683" lon="11.674191424533142"><ele>13.4</ele><time>2026-04-12T15:06:42.002Z</time></trkpt><trkpt lat="42.28035729459879" lon="11.674295863750967"><ele>13.8</ele><time>2026-04-12T15:06:43.002Z</time></trkpt><trkpt lat="42.280295877443386" lon="11.674393849762556"><ele>14.2</ele><time>2026-04-12T15:06:44.002Z</time></trkpt><trkpt lat="42.280234417074105" lon="11.674491203884296"><ele>14.6</ele><time>2026-04-12T15:06:45.002Z</time></trkpt><trkpt lat="42.280171432135816" lon="11.674591519406988"><ele>15.0</ele><time>2026-04-12T15:06:46.003Z</time></trkpt><trkpt lat="42.28010559068029" lon="11.674693164801619"><ele>15.2</ele><time>2026-04-12T15:06:47.003Z</time></trkpt><trkpt lat="42.2800397681324" lon="11.674793395151793"><ele>15.4</ele><time>2026-04-12T15:06:48.003Z</time></trkpt><trkpt lat="42.27997888015901" lon="11.674892528958257"><ele>15.600000000000001</ele><time>2026-04-12T15:06:49.003Z</time></trkpt><trkpt lat="42.27991216334426" lon="11.675002770118908"><ele>15.8</ele><time>2026-04-12T15:06:50.003Z</time></trkpt><trkpt lat="42.27984214298566" lon="11.675111265684778"><ele>16.0</ele><time>2026-04-12T15:06:51.003Z</time></trkpt><trkpt lat="42.27977218146431" lon="11.67522138931036"><ele>16.0</ele><time>2026-04-12T15:06:52Z</time></trkpt><trkpt lat="42.27969510311078" lon="11.675339519542216"><ele>16.0</ele><time>2026-04-12T15:06:53Z</time></trkpt><trkpt lat="42.27961120905636" lon="11.675466646482702"><ele>16.0</ele><time>2026-04-12T15:06:54Z</time></trkpt><trkpt lat="42.27951868181463" lon="11.675605156751514"><ele>16.0</ele><time>2026-04-12T15:06:55Z</time></trkpt><trkpt lat="42.279422156301635" lon="11.675758900321712"><ele>16.0</ele><time>2026-04-12T15:06:55.999Z</time></trkpt><trkpt lat="42.279324020642285" lon="11.675906323823572"><ele>16.0</ele><time>2026-04-12T15:06:57Z</time></trkpt><trkpt lat="42.279227660212385" lon="11.676066962720945"><ele>16.0</ele><time>2026-04-12T15:06:58Z</time></trkpt><trkpt lat="42.27912869428384" lon="11.676228571066991"><ele>16.333333333333332</ele><time>2026-04-12T15:06:59Z</time></trkpt><trkpt lat="42.27902185905611" lon="11.676397573176938"><ele>16.666666666666668</ele><time>2026-04-12T15:07:00Z</time></trkpt><trkpt lat="42.27891891152415" lon="11.676561796621971"><ele>17.0</ele><time>2026-04-12T15:07:01Z</time></trkpt><trkpt lat="42.278812290917635" lon="11.676730914776396"><ele>17.0</ele><time>2026-04-12T15:07:02Z</time></trkpt><trkpt lat="42.27869172205521" lon="11.676913496363783"><ele>17.0</ele><time>2026-04-12T15:07:03Z</time></trkpt><trkpt lat="42.27857134806001" lon="11.677102197738417"><ele>17.0</ele><time>2026-04-12T15:07:04Z</time></trkpt><trkpt lat="42.27844739970709" lon="11.677303744606945"><ele>17.0</ele><time>2026-04-12T15:07:05Z</time></trkpt><trkpt lat="42.27832348860993" lon="11.6775101000433"><ele>17.0</ele><time>2026-04-12T15:07:06Z</time></trkpt><trkpt lat="42.27818924726351" lon="11.677704042604713"><ele>17.0</ele><time>2026-04-12T15:07:07Z</time></trkpt><trkpt lat="42.2780855348398" lon="11.677901100062202"><ele>16.666666666666668</ele><time>2026-04-12T15:07:08Z</time></trkpt><trkpt lat="42.27797209268014" lon="11.678079050680736"><ele>16.333333333333332</ele><time>2026-04-12T15:07:09Z</time></trkpt><trkpt lat="42.27785046911096" lon="11.678267102250796"><ele>16.0</ele><time>2026-04-12T15:07:10Z</time></trkpt><trkpt lat="42.27771822624555" lon="11.67846685709251"><ele>16.0</ele><time>2026-04-12T15:07:11Z</time></trkpt><trkpt lat="42.27758244768202" lon="11.678675392575924"><ele>16.0</ele><time>2026-04-12T15:07:12Z</time></trkpt><trkpt lat="42.27744608706419" lon="11.678899218699527"><ele>16.0</ele><time>2026-04-12T15:07:13Z</time></trkpt><trkpt lat="42.2772937140167" lon="11.679106563159523"><ele>15.666666666666666</ele><time>2026-04-12T15:07:14Z</time></trkpt><trkpt lat="42.27715163906226" lon="11.679331221769994"><ele>15.333333333333332</ele><time>2026-04-12T15:07:15Z</time></trkpt><trkpt lat="42.27701335575348" lon="11.67954988477208"><ele>15.0</ele><time>2026-04-12T15:07:16Z</time></trkpt><trkpt lat="42.27687581738397" lon="11.67976736982697"><ele>16.0</ele><time>2026-04-12T15:07:17Z</time></trkpt><trkpt lat="42.27675056705972" lon="11.679998377858187"><ele>17.0</ele><time>2026-04-12T15:07:18Z</time></trkpt><trkpt lat="42.276615084166515" lon="11.68020791815855"><ele>18.0</ele><time>2026-04-12T15:07:19Z</time></trkpt><trkpt lat="42.2764745453081" lon="11.680418261534847"><ele>17.666666666666668</ele><time>2026-04-12T15:07:20Z</time></trkpt><trkpt lat="42.27633637059478" lon="11.68063529631005"><ele>17.333333333333336</ele><time>2026-04-12T15:07:21Z</time></trkpt><trkpt lat="42.2762021383087" lon="11.680854387568003"><ele>17.0</ele><time>2026-04-12T15:07:22Z</time></trkpt><trkpt lat="42.27605811153138" lon="11.681085062095894"><ele>16.5</ele><time>2026-04-12T15:07:23Z</time></trkpt><trkpt lat="42.27591066721511" lon="11.681311096314284"><ele>16.0</ele><time>2026-04-12T15:07:24Z</time></trkpt><trkpt lat="42.275761720187475" lon="11.681546358432438"><ele>16.0</ele><time>2026-04-12T15:07:25Z</time></trkpt><trkpt lat="42.27561067542618" lon="11.681780547846683"><ele>16.0</ele><time>2026-04-12T15:07:26Z</time></trkpt><trkpt lat="42.27546045156053" lon="11.682015063602849"><ele>17.5</ele><time>2026-04-12T15:07:27Z</time></trkpt><trkpt lat="42.27531030071984" lon="11.682254075763565"><ele>19.0</ele><time>2026-04-12T15:07:28Z</time></trkpt><trkpt lat="42.27516172352372" lon="11.682493617479988"><ele>19.0</ele><time>2026-04-12T15:07:29Z</time></trkpt><trkpt lat="42.275021764118186" lon="11.682723370320227"><ele>19.0</ele><time>2026-04-12T15:07:30Z</time></trkpt><trkpt lat="42.274865141257564" lon="11.682936925669749"><ele>19.0</ele><time>2026-04-12T15:07:31Z</time></trkpt><trkpt lat="42.2747232432834" lon="11.683161394594544"><ele>19.0</ele><time>2026-04-12T15:07:32Z</time></trkpt><trkpt lat="42.27457852610265" lon="11.683391816811849"><ele>19.0</ele><time>2026-04-12T15:07:33Z</time></trkpt><trkpt lat="42.27444530676567" lon="11.683631272155711"><ele>19.0</ele><time>2026-04-12T15:07:34.001Z</time></trkpt><trkpt lat="42.27430449019706" lon="11.683856721911749"><ele>19.0</ele><time>2026-04-12T15:07:35.001Z</time></trkpt><trkpt lat="42.27415908260482" lon="11.68408289129566"><ele>19.0</ele><time>2026-04-12T15:07:36.001Z</time></trkpt><trkpt lat="42.27401091425788" lon="11.684311561246444"><ele>19.0</ele><time>2026-04-12T15:07:37.001Z</time></trkpt><trkpt lat="42.27386257153237" lon="11.68454755332517"><ele>18.5</ele><time>2026-04-12T15:07:38.001Z</time></trkpt><trkpt lat="42.273714686925715" lon="11.68478507008227"><ele>18.0</ele><time>2026-04-12T15:07:39.001Z</time></trkpt><trkpt lat="42.2735740564185" lon="11.685015704266334"><ele>18.0</ele><time>2026-04-12T15:07:40.001Z</time></trkpt><trkpt lat="42.273431225548066" lon="11.685241760833295"><ele>18.0</ele><time>2026-04-12T15:07:41.001Z</time></trkpt><trkpt lat="42.27329230209147" lon="11.685460474295521"><ele>18.0</ele><time>2026-04-12T15:07:42.001Z</time></trkpt><trkpt lat="42.27315740742554" lon="11.685671967453311"><ele>17.333333333333332</ele><time>2026-04-12T15:07:43.001Z</time></trkpt><trkpt lat="42.27301743093869" lon="11.685856455291626"><ele>16.666666666666664</ele><time>2026-04-12T15:07:44.001Z</time></trkpt><trkpt lat="42.27289820238345" lon="11.686041745172414"><ele>16.0</ele><time>2026-04-12T15:07:45.001Z</time></trkpt><trkpt lat="42.272784406763364" lon="11.686218591876072"><ele>15.5</ele><time>2026-04-12T15:07:46.001Z</time></trkpt><trkpt lat="42.27268236027722" lon="11.686378387460865"><ele>15.0</ele><time>2026-04-12T15:07:47.001Z</time></trkpt><trkpt lat="42.272585032916794" lon="11.686531492072307"><ele>14.5</ele><time>2026-04-12T15:07:48.001Z</time></trkpt><trkpt lat="42.27249925199175" lon="11.686666433110718"><ele>14.0</ele><time>2026-04-12T15:07:49.001Z</time></trkpt><trkpt lat="42.27241884720434" lon="11.686792906129806"><ele>14.0</ele><time>2026-04-12T15:07:50.001Z</time></trkpt><trkpt lat="42.27234042377295" lon="11.686915917453344"><ele>13.999999999999998</ele><time>2026-04-12T15:07:51.001Z</time></trkpt><trkpt lat="42.27226470834614" lon="11.687035547672323"><ele>13.999999999999998</ele><time>2026-04-12T15:07:52.001Z</time></trkpt><trkpt lat="42.272195672493176" lon="11.687145280059996"><ele>14.0</ele><time>2026-04-12T15:07:53.001Z</time></trkpt><trkpt lat="42.272128441364075" lon="11.687251880089548"><ele>14.0</ele><time>2026-04-12T15:07:54.001Z</time></trkpt><trkpt lat="42.27205780410027" lon="11.687363880772708"><ele>14.0</ele><time>2026-04-12T15:07:55.001Z</time></trkpt><trkpt lat="42.27198049464421" lon="11.687486460738542"><ele>14.0</ele><time>2026-04-12T15:07:56.001Z</time></trkpt><trkpt lat="42.27190074141574" lon="11.68761291548463"><ele>14.0</ele><time>2026-04-12T15:07:57.001Z</time></trkpt><trkpt lat="42.271828467836364" lon="11.687727283066781"><ele>14.0</ele><time>2026-04-12T15:07:58.001Z</time></trkpt><trkpt lat="42.27176986794608" lon="11.687852043357317"><ele>14.0</ele><time>2026-04-12T15:07:59.001Z</time></trkpt><trkpt lat="42.271689129533286" lon="11.687946838685017"><ele>13.999999999999998</ele><time>2026-04-12T15:08:00.001Z</time></trkpt><trkpt lat="42.271613190171706" lon="11.688066496479063"><ele>13.999999999999998</ele><time>2026-04-12T15:08:01.001Z</time></trkpt><trkpt lat="42.27155111232557" lon="11.688189680389318"><ele>14.0</ele><time>2026-04-12T15:08:02.001Z</time></trkpt><trkpt lat="42.27147742602544" lon="11.688298129903634"><ele>14.0</ele><time>2026-04-12T15:08:03.001Z</time></trkpt><trkpt lat="42.27140767658287" lon="11.688412160474313"><ele>14.6</ele><time>2026-04-12T15:08:04.001Z</time></trkpt><trkpt lat="42.27133804419465" lon="11.688523124770796"><ele>15.2</ele><time>2026-04-12T15:08:05.001Z</time></trkpt><trkpt lat="42.27126993203433" lon="11.688629744632292"><ele>15.799999999999999</ele><time>2026-04-12T15:08:06.001Z</time></trkpt><trkpt lat="42.271201872559615" lon="11.688738249760759"><ele>16.4</ele><time>2026-04-12T15:08:07.001Z</time></trkpt><trkpt lat="42.27113439582311" lon="11.688850898760712"><ele>17.0</ele><time>2026-04-12T15:08:08.001Z</time></trkpt><trkpt lat="42.271064693555765" lon="11.68896179305634"><ele>17.2</ele><time>2026-04-12T15:08:09.001Z</time></trkpt><trkpt lat="42.270994161356285" lon="11.68906690609949"><ele>17.4</ele><time>2026-04-12T15:08:10.001Z</time></trkpt><trkpt lat="42.270925084368095" lon="11.68917335526748"><ele>17.6</ele><time>2026-04-12T15:08:11.001Z</time></trkpt><trkpt lat="42.27085702778555" lon="11.689278196460444"><ele>17.8</ele><time>2026-04-12T15:08:12.002Z</time></trkpt><trkpt lat="42.27078839551176" lon="11.68938218573648"><ele>18.0</ele><time>2026-04-12T15:08:13.002Z</time></trkpt><trkpt lat="42.270721829773045" lon="11.689489763440918"><ele>18.25</ele><time>2026-04-12T15:08:14.002Z</time></trkpt><trkpt lat="42.27065334421558" lon="11.689603344166445"><ele>18.5</ele><time>2026-04-12T15:08:15.002Z</time></trkpt><trkpt lat="42.27058011570525" lon="11.6897199733946"><ele>18.75</ele><time>2026-04-12T15:08:16.002Z</time></trkpt><trkpt lat="42.27050372262131" lon="11.689840418898747"><ele>19.0</ele><time>2026-04-12T15:08:17.002Z</time></trkpt><trkpt lat="42.270431453555325" lon="11.689957328769795"><ele>18.5</ele><time>2026-04-12T15:08:18.002Z</time></trkpt><trkpt lat="42.27035899856443" lon="11.690074158726677"><ele>18.0</ele><time>2026-04-12T15:08:19.002Z</time></trkpt><trkpt lat="42.27028345942339" lon="11.69019365272284"><ele>17.5</ele><time>2026-04-12T15:08:20.002Z</time></trkpt><trkpt lat="42.27020363149457" lon="11.690317085311914"><ele>17.0</ele><time>2026-04-12T15:08:21.002Z</time></trkpt><trkpt lat="42.270125600633136" lon="11.690440746118341"><ele>16.75</ele><time>2026-04-12T15:08:22.002Z</time></trkpt><trkpt lat="42.27005204992944" lon="11.690556220848624"><ele>16.5</ele><time>2026-04-12T15:08:23.002Z</time></trkpt><trkpt lat="42.26997648904628" lon="11.690672908384908"><ele>16.25</ele><time>2026-04-12T15:08:24.002Z</time></trkpt><trkpt lat="42.2698954325698" lon="11.69080060459469"><ele>16.0</ele><time>2026-04-12T15:08:25.002Z</time></trkpt><trkpt lat="42.26981024160888" lon="11.690937276122522"><ele>16.25</ele><time>2026-04-12T15:08:26.002Z</time></trkpt><trkpt lat="42.269724370848245" lon="11.691074704827882"><ele>16.5</ele><time>2026-04-12T15:08:27.002Z</time></trkpt><trkpt lat="42.26963660092023" lon="11.691214637946276"><ele>16.75</ele><time>2026-04-12T15:08:28.002Z</time></trkpt><trkpt lat="42.269542070196444" lon="11.691359243381482"><ele>17.0</ele><time>2026-04-12T15:08:29.002Z</time></trkpt><trkpt lat="42.26944480136082" lon="11.69151210142041"><ele>17.333333333333336</ele><time>2026-04-12T15:08:30.002Z</time></trkpt><trkpt lat="42.26934063263362" lon="11.69167047666196"><ele>17.666666666666668</ele><time>2026-04-12T15:08:31.002Z</time></trkpt><trkpt lat="42.26923081402608" lon="11.691838709026417"><ele>18.0</ele><time>2026-04-12T15:08:32.002Z</time></trkpt><trkpt lat="42.26912065161279" lon="11.692008811074976"><ele>18.333333333333332</ele><time>2026-04-12T15:08:33.002Z</time></trkpt><trkpt lat="42.26901051861557" lon="11.692185054124286"><ele>18.666666666666664</ele><time>2026-04-12T15:08:34.002Z</time></trkpt><trkpt lat="42.26889839834318" lon="11.692369913904594"><ele>19.0</ele><time>2026-04-12T15:08:35.002Z</time></trkpt><trkpt lat="42.268788651437816" lon="11.692556279002813"><ele>19.666666666666664</ele><time>2026-04-12T15:08:36.002Z</time></trkpt><trkpt lat="42.2686740130822" lon="11.692740726948257"><ele>20.333333333333332</ele><time>2026-04-12T15:08:37.002Z</time></trkpt><trkpt lat="42.26856173122937" lon="11.692919956991918"><ele>21.0</ele><time>2026-04-12T15:08:38.002Z</time></trkpt><trkpt lat="42.2684542396034" lon="11.693087987994645"><ele>21.0</ele><time>2026-04-12T15:08:39.002Z</time></trkpt><trkpt lat="42.26835473420776" lon="11.693244062849072"><ele>21.0</ele><time>2026-04-12T15:08:40.002Z</time></trkpt><trkpt lat="42.26825908964969" lon="11.693389836700147"><ele>21.0</ele><time>2026-04-12T15:08:41.002Z</time></trkpt><trkpt lat="42.26816402985992" lon="11.6935356720648"><ele>21.0</ele><time>2026-04-12T15:08:42.002Z</time></trkpt><trkpt lat="42.26806933385344" lon="11.693680057601828"><ele>20.75</ele><time>2026-04-12T15:08:43.002Z</time></trkpt><trkpt lat="42.26797442372487" lon="11.693830145407087"><ele>20.5</ele><time>2026-04-12T15:08:44.002Z</time></trkpt><trkpt lat="42.26787917680979" lon="11.693985013837517"><ele>20.25</ele><time>2026-04-12T15:08:45.002Z</time></trkpt><trkpt lat="42.26778267078414" lon="11.694140997898344"><ele>20.0</ele><time>2026-04-12T15:08:46.002Z</time></trkpt><trkpt lat="42.26768302206684" lon="11.694291632186715"><ele>20.0</ele><time>2026-04-12T15:08:47.002Z</time></trkpt><trkpt lat="42.26758562195832" lon="11.6944335068758"><ele>20.0</ele><time>2026-04-12T15:08:48.002Z</time></trkpt><trkpt lat="42.267489704687485" lon="11.694574898373192"><ele>20.0</ele><time>2026-04-12T15:08:49.002Z</time></trkpt><trkpt lat="42.26739860701845" lon="11.69472512701133"><ele>20.0</ele><time>2026-04-12T15:08:50.002Z</time></trkpt><trkpt lat="42.26730183767208" lon="11.694880923511155"><ele>20.25</ele><time>2026-04-12T15:08:51.003Z</time></trkpt><trkpt lat="42.26721161102205" lon="11.695028388147767"><ele>20.5</ele><time>2026-04-12T15:08:52.003Z</time></trkpt><trkpt lat="42.26711842102974" lon="11.695178625888255"><ele>20.75</ele><time>2026-04-12T15:08:53.003Z</time></trkpt><trkpt lat="42.26702830751824" lon="11.695324067400728"><ele>21.0</ele><time>2026-04-12T15:08:54.003Z</time></trkpt><trkpt lat="42.26693876786241" lon="11.69546142069462"><ele>21.0</ele><time>2026-04-12T15:08:55.003Z</time></trkpt><trkpt lat="42.26684727849492" lon="11.69560036586484"><ele>21.0</ele><time>2026-04-12T15:08:56.003Z</time></trkpt><trkpt lat="42.26675706736924" lon="11.695742170923797"><ele>21.0</ele><time>2026-04-12T15:08:57.003Z</time></trkpt><trkpt lat="42.26665772093322" lon="11.695863912363855"><ele>21.0</ele><time>2026-04-12T15:08:58Z</time></trkpt><trkpt lat="42.26657688408809" lon="11.695991300193912"><ele>21.200000000000003</ele><time>2026-04-12T15:08:59Z</time></trkpt><trkpt lat="42.266501956315764" lon="11.69610955368876"><ele>21.400000000000002</ele><time>2026-04-12T15:09:00Z</time></trkpt><trkpt lat="42.26643041642295" lon="11.696222428536297"><ele>21.6</ele><time>2026-04-12T15:09:01Z</time></trkpt><trkpt lat="42.26635863543701" lon="11.696335684948604"><ele>21.8</ele><time>2026-04-12T15:09:02Z</time></trkpt><trkpt lat="42.26628588617266" lon="11.696450467993834"><ele>22.0</ele><time>2026-04-12T15:09:03Z</time></trkpt><trkpt lat="42.26621237416135" lon="11.696566454483328"><ele>22.75</ele><time>2026-04-12T15:09:04Z</time></trkpt><trkpt lat="42.26613771760116" lon="11.69668424684384"><ele>23.5</ele><time>2026-04-12T15:09:05Z</time></trkpt><trkpt lat="42.266062328630085" lon="11.696803194789807"><ele>24.25</ele><time>2026-04-12T15:09:06Z</time></trkpt><trkpt lat="42.26599762274164" lon="11.696938339196228"><ele>25.0</ele><time>2026-04-12T15:09:07Z</time></trkpt><trkpt lat="42.26591744769892" lon="11.697059771385327"><ele>25.5</ele><time>2026-04-12T15:09:08Z</time></trkpt><trkpt lat="42.265835461150054" lon="11.697186427925269"><ele>26.0</ele><time>2026-04-12T15:09:09Z</time></trkpt><trkpt lat="42.26575538150574" lon="11.697319282652938"><ele>26.5</ele><time>2026-04-12T15:09:10Z</time></trkpt><trkpt lat="42.26565924684016" lon="11.697439173100237"><ele>27.0</ele><time>2026-04-12T15:09:11Z</time></trkpt><trkpt lat="42.26557320025404" lon="11.697574936501656"><ele>26.0</ele><time>2026-04-12T15:09:12Z</time></trkpt><trkpt lat="42.26549539788537" lon="11.697728816267535"><ele>25.0</ele><time>2026-04-12T15:09:13Z</time></trkpt><trkpt lat="42.26540491386035" lon="11.697871989769267"><ele>24.0</ele><time>2026-04-12T15:09:14Z</time></trkpt><trkpt lat="42.265309547443046" lon="11.698022733751262"><ele>23.0</ele><time>2026-04-12T15:09:15Z</time></trkpt><trkpt lat="42.265210909140634" lon="11.69817704365352"><ele>23.0</ele><time>2026-04-12T15:09:16Z</time></trkpt><trkpt lat="42.26510596546872" lon="11.69833749177809"><ele>23.0</ele><time>2026-04-12T15:09:17Z</time></trkpt><trkpt lat="42.26500076665161" lon="11.698504791043904"><ele>23.0</ele><time>2026-04-12T15:09:18Z</time></trkpt><trkpt lat="42.26489174334435" lon="11.698677641700568"><ele>23.333333333333336</ele><time>2026-04-12T15:09:19Z</time></trkpt><trkpt lat="42.264780134544225" lon="11.698859642915409"><ele>23.666666666666668</ele><time>2026-04-12T15:09:20Z</time></trkpt><trkpt lat="42.26466174272458" lon="11.699046267530106"><ele>24.0</ele><time>2026-04-12T15:09:21Z</time></trkpt><trkpt lat="42.26453736178658" lon="11.69924177255741"><ele>25.0</ele><time>2026-04-12T15:09:22Z</time></trkpt><trkpt lat="42.26441394531053" lon="11.699430642876203"><ele>26.0</ele><time>2026-04-12T15:09:23Z</time></trkpt><trkpt lat="42.26428426466675" lon="11.699628577658086"><ele>27.0</ele><time>2026-04-12T15:09:24Z</time></trkpt><trkpt lat="42.26415911546128" lon="11.699829006465365"><ele>27.0</ele><time>2026-04-12T15:09:25Z</time></trkpt><trkpt lat="42.264025653295974" lon="11.700020688362969"><ele>27.0</ele><time>2026-04-12T15:09:26Z</time></trkpt><trkpt lat="42.26389492974353" lon="11.700228182181764"><ele>27.0</ele><time>2026-04-12T15:09:27Z</time></trkpt><trkpt lat="42.26375565385226" lon="11.700449076882975"><ele>26.0</ele><time>2026-04-12T15:09:28Z</time></trkpt><trkpt lat="42.26361061862598" lon="11.700673778710682"><ele>25.0</ele><time>2026-04-12T15:09:29Z</time></trkpt><trkpt lat="42.26346420933097" lon="11.700900609379284"><ele>24.0</ele><time>2026-04-12T15:09:30Z</time></trkpt><trkpt lat="42.263328760987804" lon="11.701144399683665"><ele>23.333333333333332</ele><time>2026-04-12T15:09:31Z</time></trkpt><trkpt lat="42.26318265733777" lon="11.701371167738781"><ele>22.666666666666664</ele><time>2026-04-12T15:09:32Z</time></trkpt><trkpt lat="42.26303266419942" lon="11.701588201318206"><ele>22.0</ele><time>2026-04-12T15:09:33Z</time></trkpt><trkpt lat="42.262887703186415" lon="11.701815724190372"><ele>21.666666666666664</ele><time>2026-04-12T15:09:34Z</time></trkpt><trkpt lat="42.26274172658446" lon="11.702044768714313"><ele>21.333333333333332</ele><time>2026-04-12T15:09:35Z</time></trkpt><trkpt lat="42.26260913671487" lon="11.7022850801836"><ele>21.0</ele><time>2026-04-12T15:09:36Z</time></trkpt><trkpt lat="42.26245948555934" lon="11.702512414629494"><ele>21.0</ele><time>2026-04-12T15:09:37Z</time></trkpt><trkpt lat="42.26231402498067" lon="11.702742773536139"><ele>21.0</ele><time>2026-04-12T15:09:38.001Z</time></trkpt><trkpt lat="42.262169148460195" lon="11.702972570570045"><ele>21.0</ele><time>2026-04-12T15:09:39.001Z</time></trkpt><trkpt lat="42.262017070945916" lon="11.703181426182757"><ele>21.333333333333332</ele><time>2026-04-12T15:09:40.001Z</time></trkpt><trkpt lat="42.26189718956549" lon="11.703400367877375"><ele>21.666666666666664</ele><time>2026-04-12T15:09:41.001Z</time></trkpt><trkpt lat="42.26177278509234" lon="11.703590116544712"><ele>22.0</ele><time>2026-04-12T15:09:42.001Z</time></trkpt><trkpt lat="42.261650078043644" lon="11.703787570375203"><ele>22.0</ele><time>2026-04-12T15:09:43.001Z</time></trkpt><trkpt lat="42.26151663335587" lon="11.703970826852467"><ele>22.0</ele><time>2026-04-12T15:09:44.001Z</time></trkpt><trkpt lat="42.26139020137795" lon="11.704160766201772"><ele>22.0</ele><time>2026-04-12T15:09:45.001Z</time></trkpt><trkpt lat="42.261261023150134" lon="11.704342365643022"><ele>20.666666666666664</ele><time>2026-04-12T15:09:46.001Z</time></trkpt><trkpt lat="42.26111720866462" lon="11.704515729807197"><ele>19.333333333333332</ele><time>2026-04-12T15:09:47.001Z</time></trkpt><trkpt lat="42.26096370827733" lon="11.704680220363954"><ele>18.0</ele><time>2026-04-12T15:09:48.001Z</time></trkpt><trkpt lat="42.26079509976036" lon="11.704843178598273"><ele>18.0</ele><time>2026-04-12T15:09:49.001Z</time></trkpt><trkpt lat="42.26063143225012" lon="11.705016712959534"><ele>18.0</ele><time>2026-04-12T15:09:50.001Z</time></trkpt><trkpt lat="42.26045306693427" lon="11.705166117377683"><ele>18.0</ele><time>2026-04-12T15:09:51.001Z</time></trkpt><trkpt lat="42.26025685381791" lon="11.705275204498921"><ele>17.666666666666668</ele><time>2026-04-12T15:09:52.001Z</time></trkpt><trkpt lat="42.26006292387124" lon="11.705391482153383"><ele>17.333333333333336</ele><time>2026-04-12T15:09:53.001Z</time></trkpt><trkpt lat="42.25987296804742" lon="11.705483927983591"><ele>17.0</ele><time>2026-04-12T15:09:54.001Z</time></trkpt><trkpt lat="42.25968535773772" lon="11.705556593195833"><ele>15.333333333333334</ele><time>2026-04-12T15:09:55.001Z</time></trkpt><trkpt lat="42.259501786240534" lon="11.70563532729022"><ele>13.666666666666668</ele><time>2026-04-12T15:09:56.001Z</time></trkpt><trkpt lat="42.25930093663734" lon="11.705678311231564"><ele>12.0</ele><time>2026-04-12T15:09:57.001Z</time></trkpt><trkpt lat="42.25909828961224" lon="11.70568564046208"><ele>12.333333333333332</ele><time>2026-04-12T15:09:58.001Z</time></trkpt><trkpt lat="42.2588928563971" lon="11.705702071568924"><ele>12.666666666666666</ele><time>2026-04-12T15:09:59.001Z</time></trkpt><trkpt lat="42.258684667595865" lon="11.705712748166222"><ele>13.0</ele><time>2026-04-12T15:10:00.001Z</time></trkpt><trkpt lat="42.258469493603116" lon="11.705739389586158"><ele>13.0</ele><time>2026-04-12T15:10:01.001Z</time></trkpt><trkpt lat="42.25825090369598" lon="11.705743366404404"><ele>13.0</ele><time>2026-04-12T15:10:02.001Z</time></trkpt><trkpt lat="42.25802999449001" lon="11.705744638647317"><ele>13.0</ele><time>2026-04-12T15:10:03.001Z</time></trkpt><trkpt lat="42.25780582395568" lon="11.705750795592248"><ele>13.0</ele><time>2026-04-12T15:10:04.001Z</time></trkpt><trkpt lat="42.25758156251276" lon="11.70575959711426"><ele>13.0</ele><time>2026-04-12T15:10:05.001Z</time></trkpt><trkpt lat="42.25735108131724" lon="11.705771267776559"><ele>13.5</ele><time>2026-04-12T15:10:06.001Z</time></trkpt><trkpt lat="42.25712464978433" lon="11.70578406075903"><ele>14.0</ele><time>2026-04-12T15:10:07.001Z</time></trkpt><trkpt lat="42.25689730613755" lon="11.705792361764425"><ele>14.0</ele><time>2026-04-12T15:10:08.001Z</time></trkpt><trkpt lat="42.2566767065468" lon="11.7058030291891"><ele>14.0</ele><time>2026-04-12T15:10:09.001Z</time></trkpt><trkpt lat="42.25646184647717" lon="11.705811260487527"><ele>14.0</ele><time>2026-04-12T15:10:10.001Z</time></trkpt><trkpt lat="42.25624659831439" lon="11.705817472633049"><ele>14.0</ele><time>2026-04-12T15:10:11.001Z</time></trkpt><trkpt lat="42.25603888741418" lon="11.705823492070243"><ele>14.0</ele><time>2026-04-12T15:10:12.001Z</time></trkpt><trkpt lat="42.255832922470326" lon="11.705830802692065"><ele>14.0</ele><time>2026-04-12T15:10:13.001Z</time></trkpt><trkpt lat="42.2556291200785" lon="11.705836363946545"><ele>13.666666666666668</ele><time>2026-04-12T15:10:14.002Z</time></trkpt><trkpt lat="42.25542721788457" lon="11.70584146633889"><ele>13.333333333333332</ele><time>2026-04-12T15:10:15.002Z</time></trkpt><trkpt lat="42.25522077566752" lon="11.705845230194804"><ele>13.0</ele><time>2026-04-12T15:10:16.002Z</time></trkpt><trkpt lat="42.25501254163671" lon="11.7058496409666"><ele>13.0</ele><time>2026-04-12T15:10:17.002Z</time></trkpt><trkpt lat="42.25480296602778" lon="11.705858476769727"><ele>13.0</ele><time>2026-04-12T15:10:18.002Z</time></trkpt><trkpt lat="42.25459036392371" lon="11.705866766836163"><ele>13.0</ele><time>2026-04-12T15:10:19.002Z</time></trkpt><trkpt lat="42.25437726845815" lon="11.705874703749254"><ele>12.333333333333332</ele><time>2026-04-12T15:10:20.002Z</time></trkpt><trkpt lat="42.254156457403155" lon="11.705886094655455"><ele>11.666666666666666</ele><time>2026-04-12T15:10:21.002Z</time></trkpt><trkpt lat="42.25393086329746" lon="11.705898242249347"><ele>11.0</ele><time>2026-04-12T15:10:22.002Z</time></trkpt><trkpt lat="42.253710864147145" lon="11.705910650335891"><ele>10.333333333333332</ele><time>2026-04-12T15:10:23.002Z</time></trkpt><trkpt lat="42.253493922451774" lon="11.705896764530168"><ele>9.666666666666666</ele><time>2026-04-12T15:10:24.002Z</time></trkpt><trkpt lat="42.25329052149022" lon="11.705904569400753"><ele>9.0</ele><time>2026-04-12T15:10:25.002Z</time></trkpt><trkpt lat="42.25309387282281" lon="11.70591211517742"><ele>9.0</ele><time>2026-04-12T15:10:26.002Z</time></trkpt><trkpt lat="42.252905704303274" lon="11.705919335557784"><ele>9.0</ele><time>2026-04-12T15:10:27.002Z</time></trkpt><trkpt lat="42.252720503061525" lon="11.705926442169034"><ele>9.0</ele><time>2026-04-12T15:10:28.002Z</time></trkpt><trkpt lat="42.25254206756276" lon="11.70593328916235"><ele>9.0</ele><time>2026-04-12T15:10:29.002Z</time></trkpt><trkpt lat="42.252370821139635" lon="11.705939860294615"><ele>9.0</ele><time>2026-04-12T15:10:30.002Z</time></trkpt><trkpt lat="42.25220470599112" lon="11.705981899700035"><ele>9.0</ele><time>2026-04-12T15:10:31.002Z</time></trkpt><trkpt lat="42.25205523413397" lon="11.705981897320786"><ele>8.6</ele><time>2026-04-12T15:10:32.002Z</time></trkpt><trkpt lat="42.25192354569509" lon="11.705985098655516"><ele>8.2</ele><time>2026-04-12T15:10:33.002Z</time></trkpt><trkpt lat="42.25181318357355" lon="11.705986831621793"><ele>7.799999999999999</ele><time>2026-04-12T15:10:34.002Z</time></trkpt><trkpt lat="42.251719784089836" lon="11.70598558804899"><ele>7.3999999999999995</ele><time>2026-04-12T15:10:35.002Z</time></trkpt><trkpt lat="42.25163068066068" lon="11.705960484755245"><ele>7.0</ele><time>2026-04-12T15:10:36.002Z</time></trkpt><trkpt lat="42.25155246730289" lon="11.705900753203476"><ele>7.000000000000001</ele><time>2026-04-12T15:10:37.002Z</time></trkpt><trkpt lat="42.25148191898239" lon="11.705838562476192"><ele>7.0</ele><time>2026-04-12T15:10:38.002Z</time></trkpt><trkpt lat="42.25140686688732" lon="11.705804730004072"><ele>7.0</ele><time>2026-04-12T15:10:39.002Z</time></trkpt><trkpt lat="42.251289684369326" lon="11.705839418013342"><ele>7.0</ele><time>2026-04-12T15:10:41.002Z</time></trkpt><trkpt lat="42.25124128460857" lon="11.705907097544504"><ele>7.000000000000001</ele><time>2026-04-12T15:10:42.002Z</time></trkpt><trkpt lat="42.251222549827645" lon="11.705999955795594"><ele>7.0</ele><time>2026-04-12T15:10:43.002Z</time></trkpt><trkpt lat="42.25124230227185" lon="11.706100003718875"><ele>6.25</ele><time>2026-04-12T15:10:44.002Z</time></trkpt><trkpt lat="42.25129088848852" lon="11.706207036732177"><ele>5.5</ele><time>2026-04-12T15:10:45.002Z</time></trkpt><trkpt lat="42.25136196393845" lon="11.70631558462379"><ele>4.75</ele><time>2026-04-12T15:10:46.002Z</time></trkpt><trkpt lat="42.25143768144525" lon="11.706438617409288"><ele>4.0</ele><time>2026-04-12T15:10:47.002Z</time></trkpt><trkpt lat="42.25150034294224" lon="11.706594893405194"><ele>4.0</ele><time>2026-04-12T15:10:48.002Z</time></trkpt><trkpt lat="42.25154204785403" lon="11.706790979265563"><ele>4.0</ele><time>2026-04-12T15:10:49.002Z</time></trkpt><trkpt lat="42.251577086581605" lon="11.707009407709815"><ele>4.0</ele><time>2026-04-12T15:10:50.002Z</time></trkpt><trkpt lat="42.251625284528956" lon="11.707234567067594"><ele>4.0</ele><time>2026-04-12T15:10:51.002Z</time></trkpt><trkpt lat="42.25167545910477" lon="11.70744049393301"><ele>4.0</ele><time>2026-04-12T15:10:52.003Z</time></trkpt><trkpt lat="42.25172656643244" lon="11.707658061431577"><ele>4.0</ele><time>2026-04-12T15:10:53.003Z</time></trkpt><trkpt lat="42.25178477576247" lon="11.707894700922656"><ele>4.0</ele><time>2026-04-12T15:10:54.003Z</time></trkpt><trkpt lat="42.251846835852504" lon="11.708147705503157"><ele>4.0</ele><time>2026-04-12T15:10:55.003Z</time></trkpt><trkpt lat="42.25191058141432" lon="11.708403523002163"><ele>4.0</ele><time>2026-04-12T15:10:56.003Z</time></trkpt><trkpt lat="42.25197561209102" lon="11.708638791177739"><ele>4.0</ele><time>2026-04-12T15:10:57.003Z</time></trkpt><trkpt lat="42.252054907471106" lon="11.708878390768259"><ele>4.0</ele><time>2026-04-12T15:10:58.003Z</time></trkpt><trkpt lat="42.25214345508515" lon="11.70912254499046"><ele>4.0</ele><time>2026-04-12T15:10:59.003Z</time></trkpt><trkpt lat="42.25222566166017" lon="11.709360334066364"><ele>5.0</ele><time>2026-04-12T15:11:00.003Z</time></trkpt><trkpt lat="42.252295781278775" lon="11.709581236500387"><ele>6.0</ele><time>2026-04-12T15:11:01.003Z</time></trkpt><trkpt lat="42.25236056425726" lon="11.709792878963636"><ele>7.0</ele><time>2026-04-12T15:11:02.003Z</time></trkpt><trkpt lat="42.252429085038145" lon="11.710011897114555"><ele>6.333333333333334</ele><time>2026-04-12T15:11:03.003Z</time></trkpt><trkpt lat="42.252503969223966" lon="11.710241795242252"><ele>5.666666666666667</ele><time>2026-04-12T15:11:04Z</time></trkpt><trkpt lat="42.252576615280034" lon="11.71047461424681"><ele>5.0</ele><time>2026-04-12T15:11:05Z</time></trkpt><trkpt lat="42.252650261604856" lon="11.710701473982226"><ele>5.0</ele><time>2026-04-12T15:11:06Z</time></trkpt><trkpt lat="42.252714144610074" lon="11.71090130382603"><ele>5.0</ele><time>2026-04-12T15:11:07Z</time></trkpt><trkpt lat="42.25277345230727" lon="11.711078303546044"><ele>5.0</ele><time>2026-04-12T15:11:08Z</time></trkpt><trkpt lat="42.252832064165545" lon="11.711250874264806"><ele>5.0</ele><time>2026-04-12T15:11:09Z</time></trkpt><trkpt lat="42.25288685866832" lon="11.71142912964474"><ele>4.666666666666667</ele><time>2026-04-12T15:11:10Z</time></trkpt><trkpt lat="42.25294554557385" lon="11.711618538235562"><ele>4.333333333333333</ele><time>2026-04-12T15:11:11Z</time></trkpt><trkpt lat="42.253003786396846" lon="11.711824131542306"><ele>4.0</ele><time>2026-04-12T15:11:12Z</time></trkpt><trkpt lat="42.25307069544205" lon="11.71203229259577"><ele>5.333333333333333</ele><time>2026-04-12T15:11:13Z</time></trkpt><trkpt lat="42.2531435184676" lon="11.712241038451936"><ele>6.666666666666666</ele><time>2026-04-12T15:11:14Z</time></trkpt><trkpt lat="42.25321770438491" lon="11.712438416664659"><ele>8.0</ele><time>2026-04-12T15:11:15Z</time></trkpt><trkpt lat="42.25329472124218" lon="11.71263596457426"><ele>7.5</ele><time>2026-04-12T15:11:16Z</time></trkpt><trkpt lat="42.25335498957812" lon="11.712824647267116"><ele>7.0</ele><time>2026-04-12T15:11:17Z</time></trkpt><trkpt lat="42.253390860534616" lon="11.713004059559243"><ele>6.5</ele><time>2026-04-12T15:11:18Z</time></trkpt><trkpt lat="42.25341122861856" lon="11.713179179650348"><ele>6.0</ele><time>2026-04-12T15:11:19Z</time></trkpt><trkpt lat="42.25343666041074" lon="11.713344813136631"><ele>6.0</ele><time>2026-04-12T15:11:20Z</time></trkpt><trkpt lat="42.25346205567949" lon="11.71351130603772"><ele>6.0</ele><time>2026-04-12T15:11:21Z</time></trkpt><trkpt lat="42.25346779925117" lon="11.713698136467114"><ele>6.0</ele><time>2026-04-12T15:11:22Z</time></trkpt><trkpt lat="42.253453362449726" lon="11.71390131908469"><ele>6.0</ele><time>2026-04-12T15:11:23Z</time></trkpt><trkpt lat="42.25343583585055" lon="11.714120129311786"><ele>6.25</ele><time>2026-04-12T15:11:24Z</time></trkpt><trkpt lat="42.253422212720125" lon="11.714330421891889"><ele>6.5</ele><time>2026-04-12T15:11:25Z</time></trkpt><trkpt lat="42.253398459999396" lon="11.714516653080702"><ele>6.75</ele><time>2026-04-12T15:11:26Z</time></trkpt><trkpt lat="42.25334756252929" lon="11.714693602474277"><ele>7.0</ele><time>2026-04-12T15:11:27Z</time></trkpt><trkpt lat="42.253286563382254" lon="11.714875450953647"><ele>7.25</ele><time>2026-04-12T15:11:28Z</time></trkpt><trkpt lat="42.253241730572576" lon="11.71506867691339"><ele>7.5</ele><time>2026-04-12T15:11:29Z</time></trkpt><trkpt lat="42.253237650239" lon="11.715262332464306"><ele>7.75</ele><time>2026-04-12T15:11:30Z</time></trkpt><trkpt lat="42.253264538868336" lon="11.71546989254688"><ele>8.0</ele><time>2026-04-12T15:11:31Z</time></trkpt><trkpt lat="42.25332037302269" lon="11.715676708575382"><ele>8.0</ele><time>2026-04-12T15:11:32Z</time></trkpt><trkpt lat="42.253395780873326" lon="11.715890171491804"><ele>8.0</ele><time>2026-04-12T15:11:33Z</time></trkpt><trkpt lat="42.25349486970311" lon="11.716108257370504"><ele>8.0</ele><time>2026-04-12T15:11:34Z</time></trkpt><trkpt lat="42.25358691073349" lon="11.716333995333716"><ele>7.333333333333333</ele><time>2026-04-12T15:11:35Z</time></trkpt><trkpt lat="42.25366898081288" lon="11.71656227929691"><ele>6.666666666666666</ele><time>2026-04-12T15:11:36Z</time></trkpt><trkpt lat="42.25374006439414" lon="11.716768436025479"><ele>6.0</ele><time>2026-04-12T15:11:37Z</time></trkpt><trkpt lat="42.25380688593188" lon="11.716953986582078"><ele>6.0</ele><time>2026-04-12T15:11:38Z</time></trkpt><trkpt lat="42.25384685263303" lon="11.717128777893105"><ele>6.0</ele><time>2026-04-12T15:11:39Z</time></trkpt><trkpt lat="42.253876386867326" lon="11.717306316694808"><ele>6.0</ele><time>2026-04-12T15:11:40Z</time></trkpt><trkpt lat="42.25387614986301" lon="11.717504971581718"><ele>6.0</ele><time>2026-04-12T15:11:41.001Z</time></trkpt><trkpt lat="42.25386732651287" lon="11.717742864635776"><ele>6.333333333333334</ele><time>2026-04-12T15:11:42.001Z</time></trkpt><trkpt lat="42.253857703635155" lon="11.717999337351715"><ele>6.666666666666667</ele><time>2026-04-12T15:11:43.001Z</time></trkpt><trkpt lat="42.25384734201024" lon="11.718239288318058"><ele>7.0</ele><time>2026-04-12T15:11:44.001Z</time></trkpt><trkpt lat="42.25381673507376" lon="11.718483461097952"><ele>7.333333333333334</ele><time>2026-04-12T15:11:45.001Z</time></trkpt><trkpt lat="42.25381630108568" lon="11.718724447915074"><ele>7.666666666666666</ele><time>2026-04-12T15:11:46.001Z</time></trkpt><trkpt lat="42.25379818332722" lon="11.718979557493913"><ele>8.0</ele><time>2026-04-12T15:11:47.001Z</time></trkpt><trkpt lat="42.25378114518316" lon="11.71922767208231"><ele>8.0</ele><time>2026-04-12T15:11:48.001Z</time></trkpt><trkpt lat="42.25376638580824" lon="11.719475516296137"><ele>8.0</ele><time>2026-04-12T15:11:49.001Z</time></trkpt><trkpt lat="42.25373402713855" lon="11.719735614429773"><ele>8.0</ele><time>2026-04-12T15:11:50.001Z</time></trkpt><trkpt lat="42.253716060892586" lon="11.720003366191696"><ele>7.666666666666666</ele><time>2026-04-12T15:11:51.001Z</time></trkpt><trkpt lat="42.253714595099176" lon="11.720259273482618"><ele>7.333333333333334</ele><time>2026-04-12T15:11:52.001Z</time></trkpt><trkpt lat="42.25369510202121" lon="11.720507748387497"><ele>7.0</ele><time>2026-04-12T15:11:53.001Z</time></trkpt><trkpt lat="42.2536782571706" lon="11.720735655629303"><ele>7.0</ele><time>2026-04-12T15:11:54.001Z</time></trkpt><trkpt lat="42.253667502674624" lon="11.720946173988985"><ele>7.0</ele><time>2026-04-12T15:11:55.001Z</time></trkpt><trkpt lat="42.25366740557989" lon="11.721148033176986"><ele>7.0</ele><time>2026-04-12T15:11:56.001Z</time></trkpt><trkpt lat="42.2536888737578" lon="11.721354133339005"><ele>6.333333333333334</ele><time>2026-04-12T15:11:57.001Z</time></trkpt><trkpt lat="42.253735486387335" lon="11.72156500812348"><ele>5.666666666666667</ele><time>2026-04-12T15:11:58.001Z</time></trkpt><trkpt lat="42.25381123477796" lon="11.721766742544439"><ele>5.0</ele><time>2026-04-12T15:11:59.001Z</time></trkpt><trkpt lat="42.253898032254504" lon="11.721940726316449"><ele>4.75</ele><time>2026-04-12T15:12:00.001Z</time></trkpt><trkpt lat="42.25394682782045" lon="11.722108973770354"><ele>4.5</ele><time>2026-04-12T15:12:01.001Z</time></trkpt><trkpt lat="42.25398779438622" lon="11.722267361204514"><ele>4.25</ele><time>2026-04-12T15:12:02.001Z</time></trkpt><trkpt lat="42.253997749433886" lon="11.722426914779874"><ele>4.0</ele><time>2026-04-12T15:12:03.001Z</time></trkpt><trkpt lat="42.25399124673452" lon="11.722604587438179"><ele>4.666666666666666</ele><time>2026-04-12T15:12:04.001Z</time></trkpt><trkpt lat="42.25397575101987" lon="11.722801918213579"><ele>5.333333333333333</ele><time>2026-04-12T15:12:05.001Z</time></trkpt><trkpt lat="42.25397028069444" lon="11.72301238966048"><ele>6.0</ele><time>2026-04-12T15:12:06.001Z</time></trkpt><trkpt lat="42.25394944939506" lon="11.723226205997168"><ele>6.0</ele><time>2026-04-12T15:12:07.001Z</time></trkpt><trkpt lat="42.25392934339735" lon="11.723454158201518"><ele>6.0</ele><time>2026-04-12T15:12:08.001Z</time></trkpt><trkpt lat="42.253908924790395" lon="11.72368470861766"><ele>6.0</ele><time>2026-04-12T15:12:09.001Z</time></trkpt><trkpt lat="42.25389046888548" lon="11.723928095200373"><ele>6.0</ele><time>2026-04-12T15:12:10.001Z</time></trkpt><trkpt lat="42.25386907133211" lon="11.724178678390208"><ele>6.0</ele><time>2026-04-12T15:12:11.001Z</time></trkpt><trkpt lat="42.25384977480757" lon="11.724440347619058"><ele>6.0</ele><time>2026-04-12T15:12:12.001Z</time></trkpt><trkpt lat="42.2538293801815" lon="11.724697904521113"><ele>6.333333333333334</ele><time>2026-04-12T15:12:13.001Z</time></trkpt><trkpt lat="42.25380864853967" lon="11.724965026821"><ele>6.666666666666667</ele><time>2026-04-12T15:12:14.001Z</time></trkpt><trkpt lat="42.25378502757295" lon="11.725219322348089"><ele>7.0</ele><time>2026-04-12T15:12:15.001Z</time></trkpt><trkpt lat="42.253768425171565" lon="11.725455208680552"><ele>7.0</ele><time>2026-04-12T15:12:16.001Z</time></trkpt><trkpt lat="42.253737567841235" lon="11.725674036089924"><ele>7.0</ele><time>2026-04-12T15:12:17.002Z</time></trkpt><trkpt lat="42.25371966619128" lon="11.725895539554568"><ele>7.0</ele><time>2026-04-12T15:12:18.002Z</time></trkpt><trkpt lat="42.25370080581629" lon="11.726128905676863"><ele>7.333333333333334</ele><time>2026-04-12T15:12:19.002Z</time></trkpt><trkpt lat="42.25368097095221" lon="11.726374329392906"><ele>7.666666666666666</ele><time>2026-04-12T15:12:20.002Z</time></trkpt><trkpt lat="42.25367204138814" lon="11.726629717888521"><ele>8.0</ele><time>2026-04-12T15:12:21.002Z</time></trkpt><trkpt lat="42.2536499730538" lon="11.72687204111061"><ele>8.333333333333332</ele><time>2026-04-12T15:12:22.002Z</time></trkpt><trkpt lat="42.253635072461826" lon="11.727115813402474"><ele>8.666666666666666</ele><time>2026-04-12T15:12:23.002Z</time></trkpt><trkpt lat="42.25361403014715" lon="11.72736669990504"><ele>9.0</ele><time>2026-04-12T15:12:24.002Z</time></trkpt><trkpt lat="42.253596403859554" lon="11.727625241896634"><ele>8.666666666666666</ele><time>2026-04-12T15:12:25.002Z</time></trkpt><trkpt lat="42.25356016679435" lon="11.72786312449568"><ele>8.333333333333332</ele><time>2026-04-12T15:12:26.002Z</time></trkpt><trkpt lat="42.25353963485834" lon="11.728113346652677"><ele>8.0</ele><time>2026-04-12T15:12:27.002Z</time></trkpt><trkpt lat="42.253517969860795" lon="11.728377377403548"><ele>8.666666666666666</ele><time>2026-04-12T15:12:28.002Z</time></trkpt><trkpt lat="42.25350983719784" lon="11.728642812455275"><ele>9.333333333333334</ele><time>2026-04-12T15:12:29.002Z</time></trkpt><trkpt lat="42.25348385940579" lon="11.728897318543696"><ele>10.0</ele><time>2026-04-12T15:12:30.002Z</time></trkpt><trkpt lat="42.253465536307466" lon="11.729129311519047"><ele>10.0</ele><time>2026-04-12T15:12:31.002Z</time></trkpt><trkpt lat="42.25344780556976" lon="11.729346744524308"><ele>10.0</ele><time>2026-04-12T15:12:32.002Z</time></trkpt><trkpt lat="42.25343563295551" lon="11.729554083944793"><ele>10.0</ele><time>2026-04-12T15:12:33.002Z</time></trkpt><trkpt lat="42.25341925996906" lon="11.729748901422782"><ele>10.0</ele><time>2026-04-12T15:12:34.002Z</time></trkpt><trkpt lat="42.25340488960932" lon="11.729932962998696"><ele>10.0</ele><time>2026-04-12T15:12:35.002Z</time></trkpt><trkpt lat="42.25340054326976" lon="11.730111934463373"><ele>10.0</ele><time>2026-04-12T15:12:36.002Z</time></trkpt><trkpt lat="42.25341762752597" lon="11.730294455701683"><ele>10.0</ele><time>2026-04-12T15:12:37.002Z</time></trkpt><trkpt lat="42.25346733892857" lon="11.73049075019622"><ele>10.333333333333334</ele><time>2026-04-12T15:12:38.002Z</time></trkpt><trkpt lat="42.25354232949483" lon="11.730692563737577"><ele>10.666666666666666</ele><time>2026-04-12T15:12:39.002Z</time></trkpt><trkpt lat="42.25362379569294" lon="11.730916146143425"><ele>11.0</ele><time>2026-04-12T15:12:40.002Z</time></trkpt><trkpt lat="42.2537158928835" lon="11.731177509606246"><ele>11.666666666666666</ele><time>2026-04-12T15:12:41.002Z</time></trkpt><trkpt lat="42.253807096470425" lon="11.731374257810069"><ele>12.333333333333332</ele><time>2026-04-12T15:12:42.002Z</time></trkpt><trkpt lat="42.25389290797584" lon="11.731598465822149"><ele>13.0</ele><time>2026-04-12T15:12:43.002Z</time></trkpt><trkpt lat="42.253980129566074" lon="11.73183276514053"><ele>12.0</ele><time>2026-04-12T15:12:44.002Z</time></trkpt><trkpt lat="42.254070034214585" lon="11.732075142118118"><ele>11.0</ele><time>2026-04-12T15:12:45.002Z</time></trkpt><trkpt lat="42.25415914248087" lon="11.732317797679718"><ele>10.0</ele><time>2026-04-12T15:12:46.002Z</time></trkpt><trkpt lat="42.254250303435654" lon="11.732570059902505"><ele>10.333333333333334</ele><time>2026-04-12T15:12:47.002Z</time></trkpt><trkpt lat="42.25434100811956" lon="11.732826085203985"><ele>10.666666666666666</ele><time>2026-04-12T15:12:48.002Z</time></trkpt><trkpt lat="42.254431858691056" lon="11.73307635846553"><ele>11.0</ele><time>2026-04-12T15:12:49.002Z</time></trkpt><trkpt lat="42.25451991955855" lon="11.73333626904433"><ele>10.333333333333332</ele><time>2026-04-12T15:12:50.002Z</time></trkpt><trkpt lat="42.25458079208325" lon="11.733612766095519"><ele>9.666666666666666</ele><time>2026-04-12T15:12:51.002Z</time></trkpt><trkpt lat="42.254652500296295" lon="11.733880957416623"><ele>9.0</ele><time>2026-04-12T15:12:52.002Z</time></trkpt><trkpt lat="42.254737077924695" lon="11.734156019270062"><ele>9.0</ele><time>2026-04-12T15:12:53.003Z</time></trkpt><trkpt lat="42.254802199193136" lon="11.734420952198265"><ele>9.0</ele><time>2026-04-12T15:12:54.003Z</time></trkpt><trkpt lat="42.25487804763173" lon="11.734690959487843"><ele>9.0</ele><time>2026-04-12T15:12:55.003Z</time></trkpt><trkpt lat="42.25495235597496" lon="11.73496888879592"><ele>9.333333333333334</ele><time>2026-04-12T15:12:56.003Z</time></trkpt><trkpt lat="42.25501949442392" lon="11.735233662792016"><ele>9.666666666666668</ele><time>2026-04-12T15:12:57.003Z</time></trkpt><trkpt lat="42.25508467513951" lon="11.735488399547648"><ele>10.0</ele><time>2026-04-12T15:12:58.003Z</time></trkpt><trkpt lat="42.2551400219212" lon="11.73572300020034"><ele>10.0</ele><time>2026-04-12T15:12:59.003Z</time></trkpt><trkpt lat="42.25517320233533" lon="11.73598806734346"><ele>10.0</ele><time>2026-04-12T15:13:00.003Z</time></trkpt><trkpt lat="42.25521562337997" lon="11.736268126327266"><ele>10.0</ele><time>2026-04-12T15:13:01.003Z</time></trkpt><trkpt lat="42.25527382442172" lon="11.736559762904092"><ele>10.0</ele><time>2026-04-12T15:13:02.003Z</time></trkpt><trkpt lat="42.255316756925126" lon="11.736856422719532"><ele>10.0</ele><time>2026-04-12T15:13:03.003Z</time></trkpt><trkpt lat="42.25536153278193" lon="11.737167240870367"><ele>10.0</ele><time>2026-04-12T15:13:04.003Z</time></trkpt><trkpt lat="42.255403874394155" lon="11.737467058009983"><ele>10.0</ele><time>2026-04-12T15:13:05.003Z</time></trkpt><trkpt lat="42.25544312606489" lon="11.737746833680474"><ele>10.0</ele><time>2026-04-12T15:13:06.003Z</time></trkpt><trkpt lat="42.25548212601145" lon="11.738002193762696"><ele>9.666666666666668</ele><time>2026-04-12T15:13:07.003Z</time></trkpt><trkpt lat="42.25551924837396" lon="11.738234947393808"><ele>9.333333333333334</ele><time>2026-04-12T15:13:08.003Z</time></trkpt><trkpt lat="42.255556107686154" lon="11.738452574492731"><ele>9.0</ele><time>2026-04-12T15:13:09.003Z</time></trkpt><trkpt lat="42.25558749884457" lon="11.738676379935221"><ele>9.333333333333334</ele><time>2026-04-12T15:13:09.999Z</time></trkpt><trkpt lat="42.25563765172468" lon="11.738909725159955"><ele>9.666666666666668</ele><time>2026-04-12T15:13:10.999Z</time></trkpt><trkpt lat="42.25572760287811" lon="11.739135068120529"><ele>10.0</ele><time>2026-04-12T15:13:11.999Z</time></trkpt><trkpt lat="42.25584624682928" lon="11.739362873855251"><ele>10.333333333333334</ele><time>2026-04-12T15:13:12.999Z</time></trkpt><trkpt lat="42.25597357933179" lon="11.739587828045972"><ele>10.666666666666666</ele><time>2026-04-12T15:13:13.999Z</time></trkpt><trkpt lat="42.25610555971699" lon="11.739813540493431"><ele>11.0</ele><time>2026-04-12T15:13:14.999Z</time></trkpt><trkpt lat="42.25624114869133" lon="11.740042599765035"><ele>11.0</ele><time>2026-04-12T15:13:15.999Z</time></trkpt><trkpt lat="42.25636595722389" lon="11.740255475557348"><ele>11.0</ele><time>2026-04-12T15:13:16.999Z</time></trkpt><trkpt lat="42.25647414697628" lon="11.740456546576926"><ele>11.0</ele><time>2026-04-12T15:13:17.999Z</time></trkpt><trkpt lat="42.25658035250866" lon="11.74066510096658"><ele>11.333333333333332</ele><time>2026-04-12T15:13:18.999Z</time></trkpt><trkpt lat="42.25668337658775" lon="11.740863695739892"><ele>11.666666666666666</ele><time>2026-04-12T15:13:19.999Z</time></trkpt><trkpt lat="42.256777912183864" lon="11.741039283888924"><ele>12.0</ele><time>2026-04-12T15:13:20.999Z</time></trkpt><trkpt lat="42.25685464673182" lon="11.741175323549687"><ele>12.0</ele><time>2026-04-12T15:13:21.999Z</time></trkpt><trkpt lat="42.256929244830374" lon="11.741298788576513"><ele>12.0</ele><time>2026-04-12T15:13:22.999Z</time></trkpt><trkpt lat="42.25702298712414" lon="11.741390017693634"><ele>12.0</ele><time>2026-04-12T15:13:23.999Z</time></trkpt><trkpt lat="42.25713620281823" lon="11.741431295062107"><ele>12.0</ele><time>2026-04-12T15:13:24.999Z</time></trkpt><trkpt lat="42.25724388110203" lon="11.741430323159575"><ele>12.333333333333334</ele><time>2026-04-12T15:13:25.999Z</time></trkpt><trkpt lat="42.257332280634515" lon="11.741425129111068"><ele>12.666666666666668</ele><time>2026-04-12T15:13:26.999Z</time></trkpt><trkpt lat="42.25739703888072" lon="11.741475772614686"><ele>13.0</ele><time>2026-04-12T15:13:28Z</time></trkpt><trkpt lat="42.25745240080839" lon="11.741522796106715"><ele>13.333333333333334</ele><time>2026-04-12T15:13:29Z</time></trkpt><trkpt lat="42.25748473368121" lon="11.74165188968768"><ele>13.666666666666668</ele><time>2026-04-12T15:13:31Z</time></trkpt><trkpt lat="42.25747341919438" lon="11.741780532569356"><ele>14.0</ele><time>2026-04-12T15:13:33Z</time></trkpt><trkpt lat="42.25743876466772" lon="11.741874898024626"><ele>13.6</ele><time>2026-04-12T15:13:34Z</time></trkpt><trkpt lat="42.2573845920308" lon="11.741965412953219"><ele>13.2</ele><time>2026-04-12T15:13:35Z</time></trkpt><trkpt lat="42.25731265134519" lon="11.742078284808455"><ele>12.799999999999999</ele><time>2026-04-12T15:13:36Z</time></trkpt><trkpt lat="42.25723262207562" lon="11.74221214620119"><ele>12.399999999999999</ele><time>2026-04-12T15:13:37Z</time></trkpt><trkpt lat="42.257156704180225" lon="11.742340935356106"><ele>12.0</ele><time>2026-04-12T15:13:38Z</time></trkpt><trkpt lat="42.25707194621958" lon="11.742475050642653"><ele>12.0</ele><time>2026-04-12T15:13:39Z</time></trkpt><trkpt lat="42.25697144383904" lon="11.74262253778724"><ele>12.0</ele><time>2026-04-12T15:13:40Z</time></trkpt><trkpt lat="42.25685427147494" lon="11.742782319967228"><ele>12.0</ele><time>2026-04-12T15:13:41Z</time></trkpt><trkpt lat="42.256729704059474" lon="11.742950385785687"><ele>12.0</ele><time>2026-04-12T15:13:42Z</time></trkpt><trkpt lat="42.25661798839336" lon="11.743112756791106"><ele>12.0</ele><time>2026-04-12T15:13:43Z</time></trkpt><trkpt lat="42.256494733100254" lon="11.743287459739278"><ele>12.0</ele><time>2026-04-12T15:13:44Z</time></trkpt><trkpt lat="42.25635598109338" lon="11.74345944326651"><ele>15.666666666666668</ele><time>2026-04-12T15:13:45Z</time></trkpt><trkpt lat="42.25620966511764" lon="11.743618764518368"><ele>19.333333333333336</ele><time>2026-04-12T15:13:46Z</time></trkpt><trkpt lat="42.25604867094731" lon="11.74373951024091"><ele>23.0</ele><time>2026-04-12T15:13:47Z</time></trkpt><trkpt lat="42.255920176227626" lon="11.743864416375734"><ele>23.0</ele><time>2026-04-12T15:13:48Z</time></trkpt><trkpt lat="42.25580039578601" lon="11.743933814242205"><ele>23.0</ele><time>2026-04-12T15:13:49Z</time></trkpt><trkpt lat="42.25568174861921" lon="11.743974714354783"><ele>23.0</ele><time>2026-04-12T15:13:50Z</time></trkpt><trkpt lat="42.25555153441755" lon="11.743983734733028"><ele>23.0</ele><time>2026-04-12T15:13:51Z</time></trkpt><trkpt lat="42.25541786637191" lon="11.743955610992728"><ele>23.75</ele><time>2026-04-12T15:13:52Z</time></trkpt><trkpt lat="42.25528681864127" lon="11.74388207813623"><ele>24.5</ele><time>2026-04-12T15:13:53Z</time></trkpt><trkpt lat="42.2551581618106" lon="11.743781532416365"><ele>25.25</ele><time>2026-04-12T15:13:54.001Z</time></trkpt><trkpt lat="42.25502781340149" lon="11.74365936453993"><ele>26.0</ele><time>2026-04-12T15:13:55.001Z</time></trkpt><trkpt lat="42.25489677917222" lon="11.74352455180243"><ele>31.0</ele><time>2026-04-12T15:13:56.001Z</time></trkpt><trkpt lat="42.25477173188066" lon="11.743383207007868"><ele>36.0</ele><time>2026-04-12T15:13:57.001Z</time></trkpt><trkpt lat="42.2546457944605" lon="11.743240942262913"><ele>41.0</ele><time>2026-04-12T15:13:58.001Z</time></trkpt><trkpt lat="42.25451547819552" lon="11.743102423376968"><ele>41.0</ele><time>2026-04-12T15:13:59.001Z</time></trkpt><trkpt lat="42.254386932794" lon="11.742966220375708"><ele>41.0</ele><time>2026-04-12T15:14:00.001Z</time></trkpt><trkpt lat="42.25426269246353" lon="11.742811997604054"><ele>41.0</ele><time>2026-04-12T15:14:01.001Z</time></trkpt><trkpt lat="42.25413963752468" lon="11.742684315574435"><ele>40.75</ele><time>2026-04-12T15:14:02.001Z</time></trkpt><trkpt lat="42.25403123126616" lon="11.742560861180996"><ele>40.5</ele><time>2026-04-12T15:14:03.001Z</time></trkpt><trkpt lat="42.25393306704707" lon="11.742457469278825"><ele>40.25</ele><time>2026-04-12T15:14:04.001Z</time></trkpt><trkpt lat="42.2538369533232" lon="11.742375721818533"><ele>40.0</ele><time>2026-04-12T15:14:05.001Z</time></trkpt><trkpt lat="42.25373330172862" lon="11.742321243198285"><ele>40.0</ele><time>2026-04-12T15:14:06.001Z</time></trkpt><trkpt lat="42.253605390538354" lon="11.742297824543245"><ele>40.0</ele><time>2026-04-12T15:14:07.001Z</time></trkpt><trkpt lat="42.25347444026687" lon="11.742320090566484"><ele>40.0</ele><time>2026-04-12T15:14:08.001Z</time></trkpt><trkpt lat="42.25334612442401" lon="11.74238881691548"><ele>40.0</ele><time>2026-04-12T15:14:09.001Z</time></trkpt><trkpt lat="42.25323664104087" lon="11.742492954260387"><ele>40.0</ele><time>2026-04-12T15:14:10.001Z</time></trkpt><trkpt lat="42.253139106338594" lon="11.742638842510695"><ele>40.0</ele><time>2026-04-12T15:14:11.001Z</time></trkpt><trkpt lat="42.2530599261175" lon="11.74280652244602"><ele>40.0</ele><time>2026-04-12T15:14:12.001Z</time></trkpt><trkpt lat="42.25298976426438" lon="11.742994870515513"><ele>40.0</ele><time>2026-04-12T15:14:13.001Z</time></trkpt><trkpt lat="42.252912619877776" lon="11.743171137793166"><ele>39.25</ele><time>2026-04-12T15:14:14.001Z</time></trkpt><trkpt lat="42.25284063119046" lon="11.74332537486395"><ele>38.5</ele><time>2026-04-12T15:14:15.001Z</time></trkpt><trkpt lat="42.25276931402462" lon="11.743459822437675"><ele>37.75</ele><time>2026-04-12T15:14:16.001Z</time></trkpt><trkpt lat="42.25270971686097" lon="11.74358428938073"><ele>37.0</ele><time>2026-04-12T15:14:17.001Z</time></trkpt><trkpt lat="42.25264816551407" lon="11.743720197820107"><ele>37.0</ele><time>2026-04-12T15:14:18.001Z</time></trkpt><trkpt lat="42.25258307362786" lon="11.743857900529257"><ele>37.0</ele><time>2026-04-12T15:14:19.001Z</time></trkpt><trkpt lat="42.25251565309549" lon="11.743998757851067"><ele>37.0</ele><time>2026-04-12T15:14:20.001Z</time></trkpt><trkpt lat="42.25244586725332" lon="11.744147848445104"><ele>37.0</ele><time>2026-04-12T15:14:21.001Z</time></trkpt><trkpt lat="42.25237849216513" lon="11.744298375251436"><ele>38.5</ele><time>2026-04-12T15:14:22.001Z</time></trkpt><trkpt lat="42.252312624721256" lon="11.744444591549946"><ele>40.0</ele><time>2026-04-12T15:14:23.001Z</time></trkpt><trkpt lat="42.2522431827013" lon="11.744586843727598"><ele>41.5</ele><time>2026-04-12T15:14:24.001Z</time></trkpt><trkpt lat="42.2521727137389" lon="11.74472892400642"><ele>43.0</ele><time>2026-04-12T15:14:25.001Z</time></trkpt><trkpt lat="42.2521005200395" lon="11.744875525334482"><ele>43.0</ele><time>2026-04-12T15:14:26.002Z</time></trkpt><trkpt lat="42.25202900439601" lon="11.745018983579397"><ele>43.0</ele><time>2026-04-12T15:14:27.002Z</time></trkpt><trkpt lat="42.2519571097125" lon="11.745167025617146"><ele>43.0</ele><time>2026-04-12T15:14:28.002Z</time></trkpt><trkpt lat="42.251884759357345" lon="11.74532102999093"><ele>43.0</ele><time>2026-04-12T15:14:29.002Z</time></trkpt><trkpt lat="42.2518158336893" lon="11.745486653834586"><ele>44.333333333333336</ele><time>2026-04-12T15:14:30.002Z</time></trkpt><trkpt lat="42.2517590127757" lon="11.745669958100505"><ele>45.666666666666664</ele><time>2026-04-12T15:14:31.002Z</time></trkpt><trkpt lat="42.25172996046732" lon="11.74588218570366"><ele>47.0</ele><time>2026-04-12T15:14:32.002Z</time></trkpt><trkpt lat="42.251730550918616" lon="11.74611462938454"><ele>48.33333333333333</ele><time>2026-04-12T15:14:33.002Z</time></trkpt><trkpt lat="42.25175471041342" lon="11.746332879826703"><ele>49.666666666666664</ele><time>2026-04-12T15:14:34.002Z</time></trkpt><trkpt lat="42.251798653646055" lon="11.746521041661373"><ele>51.0</ele><time>2026-04-12T15:14:35.002Z</time></trkpt><trkpt lat="42.251858558261766" lon="11.746708512267809"><ele>51.0</ele><time>2026-04-12T15:14:36.002Z</time></trkpt><trkpt lat="42.25193511071663" lon="11.746896006738426"><ele>51.0</ele><time>2026-04-12T15:14:37.002Z</time></trkpt><trkpt lat="42.25203268905619" lon="11.747082075263467"><ele>51.0</ele><time>2026-04-12T15:14:38.002Z</time></trkpt><trkpt lat="42.25214233670929" lon="11.747261044812486"><ele>51.0</ele><time>2026-04-12T15:14:39.002Z</time></trkpt><trkpt lat="42.25224005819847" lon="11.747434440355324"><ele>51.0</ele><time>2026-04-12T15:14:40.002Z</time></trkpt><trkpt lat="42.25232338875229" lon="11.747600303723077"><ele>51.0</ele><time>2026-04-12T15:14:41.002Z</time></trkpt><trkpt lat="42.25239183180901" lon="11.747758262930768"><ele>51.0</ele><time>2026-04-12T15:14:42.002Z</time></trkpt><trkpt lat="42.252443868826546" lon="11.747921823583939"><ele>53.25</ele><time>2026-04-12T15:14:43.002Z</time></trkpt><trkpt lat="42.25247797646419" lon="11.74809780449249"><ele>55.5</ele><time>2026-04-12T15:14:44.002Z</time></trkpt><trkpt lat="42.25249197237399" lon="11.748280865521755"><ele>57.75</ele><time>2026-04-12T15:14:45.002Z</time></trkpt><trkpt lat="42.252466933864405" lon="11.748461608866329"><ele>60.0</ele><time>2026-04-12T15:14:46.002Z</time></trkpt><trkpt lat="42.25242443812805" lon="11.748639577506593"><ele>60.25</ele><time>2026-04-12T15:14:47.002Z</time></trkpt><trkpt lat="42.25236931023985" lon="11.748833458580025"><ele>60.5</ele><time>2026-04-12T15:14:48.002Z</time></trkpt><trkpt lat="42.25230114915976" lon="11.749019994649618"><ele>60.75</ele><time>2026-04-12T15:14:49.002Z</time></trkpt><trkpt lat="42.252251822416476" lon="11.749190384974606"><ele>61.0</ele><time>2026-04-12T15:14:50.002Z</time></trkpt><trkpt lat="42.25218643894291" lon="11.74934430200928"><ele>61.0</ele><time>2026-04-12T15:14:51.002Z</time></trkpt><trkpt lat="42.25209676076173" lon="11.749484813510428"><ele>61.0</ele><time>2026-04-12T15:14:52.002Z</time></trkpt><trkpt lat="42.251989420133654" lon="11.749596155333812"><ele>61.0</ele><time>2026-04-12T15:14:53.002Z</time></trkpt><trkpt lat="42.25186483038858" lon="11.749696123536667"><ele>61.0</ele><time>2026-04-12T15:14:54.002Z</time></trkpt><trkpt lat="42.251723708028074" lon="11.749781995911595"><ele>61.0</ele><time>2026-04-12T15:14:55.002Z</time></trkpt><trkpt lat="42.25157147404137" lon="11.749889159956888"><ele>61.0</ele><time>2026-04-12T15:14:56.002Z</time></trkpt><trkpt lat="42.25140830120904" lon="11.749968808277227"><ele>61.0</ele><time>2026-04-12T15:14:57.002Z</time></trkpt><trkpt lat="42.25124164928034" lon="11.750073980659035"><ele>61.33333333333333</ele><time>2026-04-12T15:14:58.002Z</time></trkpt><trkpt lat="42.25108727912737" lon="11.750181340948496"><ele>61.66666666666667</ele><time>2026-04-12T15:14:59.003Z</time></trkpt><trkpt lat="42.25094725812485" lon="11.750289427675597"><ele>62.0</ele><time>2026-04-12T15:15:00.003Z</time></trkpt><trkpt lat="42.25081296861246" lon="11.750408687648761"><ele>62.0</ele><time>2026-04-12T15:15:01.003Z</time></trkpt><trkpt lat="42.25067353729469" lon="11.750541264300475"><ele>62.0</ele><time>2026-04-12T15:15:02.003Z</time></trkpt><trkpt lat="42.25052940333761" lon="11.750678023679646"><ele>62.0</ele><time>2026-04-12T15:15:03.003Z</time></trkpt><trkpt lat="42.250385209789876" lon="11.750806285595242"><ele>62.0</ele><time>2026-04-12T15:15:04.003Z</time></trkpt><trkpt lat="42.25024357212638" lon="11.750939051642925"><ele>62.0</ele><time>2026-04-12T15:15:05.003Z</time></trkpt><trkpt lat="42.25011814816007" lon="11.751079609871088"><ele>62.0</ele><time>2026-04-12T15:15:06.003Z</time></trkpt><trkpt lat="42.25000804932796" lon="11.75123676271555"><ele>62.0</ele><time>2026-04-12T15:15:07.003Z</time></trkpt><trkpt lat="42.249902451147555" lon="11.751425002696934"><ele>62.0</ele><time>2026-04-12T15:15:08.003Z</time></trkpt><trkpt lat="42.24979297946879" lon="11.751594402577203"><ele>62.0</ele><time>2026-04-12T15:15:09.003Z</time></trkpt><trkpt lat="42.24971627208457" lon="11.751771875764035"><ele>62.25</ele><time>2026-04-12T15:15:10.003Z</time></trkpt><trkpt lat="42.249634522265595" lon="11.751905153857813"><ele>62.5</ele><time>2026-04-12T15:15:11.003Z</time></trkpt><trkpt lat="42.24953452084421" lon="11.751991819907465"><ele>62.75</ele><time>2026-04-12T15:15:12.003Z</time></trkpt><trkpt lat="42.24945263326513" lon="11.752100526501636"><ele>63.0</ele><time>2026-04-12T15:15:13.003Z</time></trkpt><trkpt lat="42.24936838917379" lon="11.752169682522029"><ele>63.0</ele><time>2026-04-12T15:15:14.003Z</time></trkpt><trkpt lat="42.24928417648543" lon="11.752216924876503"><ele>63.0</ele><time>2026-04-12T15:15:15.003Z</time></trkpt><trkpt lat="42.24921110019576" lon="11.752225362010996"><ele>63.0</ele><time>2026-04-12T15:15:15.999Z</time></trkpt><trkpt lat="42.24913828042216" lon="11.752219479022845"><ele>63.0</ele><time>2026-04-12T15:15:16.999Z</time></trkpt><trkpt lat="42.24906788040138" lon="11.75220737163879"><ele>63.0</ele><time>2026-04-12T15:15:17.999Z</time></trkpt><trkpt lat="42.24894603016637" lon="11.752244208400876"><ele>63.0</ele><time>2026-04-12T15:15:19.999Z</time></trkpt><trkpt lat="42.24892733127301" lon="11.75233410798868"><ele>63.0</ele><time>2026-04-12T15:15:20.999Z</time></trkpt><trkpt lat="42.24892961571896" lon="11.752430559542288"><ele>63.0</ele><time>2026-04-12T15:15:21.999Z</time></trkpt><trkpt lat="42.24896702586021" lon="11.752522098462968"><ele>63.0</ele><time>2026-04-12T15:15:22.999Z</time></trkpt><trkpt lat="42.24902502382767" lon="11.752592315512892"><ele>63.0</ele><time>2026-04-12T15:15:23.999Z</time></trkpt><trkpt lat="42.24910409934092" lon="11.752637350256707"><ele>63.0</ele><time>2026-04-12T15:15:24.999Z</time></trkpt><trkpt lat="42.249173169798624" lon="11.752673826426205"><ele>63.0</ele><time>2026-04-12T15:15:25.999Z</time></trkpt><trkpt lat="42.249162336673436" lon="11.75283238500325"><ele>63.2</ele><time>2026-04-12T15:15:26.999Z</time></trkpt><trkpt lat="42.24913841974954" lon="11.752939626480279"><ele>63.4</ele><time>2026-04-12T15:15:27.999Z</time></trkpt><trkpt lat="42.24908614145807" lon="11.753041708286307"><ele>63.60000000000001</ele><time>2026-04-12T15:15:28.999Z</time></trkpt><trkpt lat="42.248987514471544" lon="11.753086853069988"><ele>63.800000000000004</ele><time>2026-04-12T15:15:29.999Z</time></trkpt><trkpt lat="42.248887398989716" lon="11.753174360816582"><ele>64.0</ele><time>2026-04-12T15:15:30.999Z</time></trkpt><trkpt lat="42.24878161626015" lon="11.753269481433064"><ele>64.0</ele><time>2026-04-12T15:15:31.999Z</time></trkpt><trkpt lat="42.2486808446044" lon="11.753355463627088"><ele>64.0</ele><time>2026-04-12T15:15:32.999Z</time></trkpt><trkpt lat="42.248604956989595" lon="11.753441067704571"><ele>64.0</ele><time>2026-04-12T15:15:34Z</time></trkpt><trkpt lat="42.248543815827496" lon="11.753535569175957"><ele>64.0</ele><time>2026-04-12T15:15:35Z</time></trkpt><trkpt lat="42.24850694691255" lon="11.753652535275522"><ele>64.0</ele><time>2026-04-12T15:15:36Z</time></trkpt><trkpt lat="42.248508411513974" lon="11.753795774181993"><ele>65.0</ele><time>2026-04-12T15:15:37Z</time></trkpt><trkpt lat="42.248549958372905" lon="11.753930113424762"><ele>66.0</ele><time>2026-04-12T15:15:38Z</time></trkpt><trkpt lat="42.248628291971634" lon="11.7540360748317"><ele>67.0</ele><time>2026-04-12T15:15:39Z</time></trkpt><trkpt lat="42.2487385441154" lon="11.754106742222199"><ele>68.0</ele><time>2026-04-12T15:15:40Z</time></trkpt><trkpt lat="42.24885433355294" lon="11.754127360716732"><ele>69.4</ele><time>2026-04-12T15:15:41Z</time></trkpt><trkpt lat="42.248974543676646" lon="11.754114691664686"><ele>70.8</ele><time>2026-04-12T15:15:42Z</time></trkpt><trkpt lat="42.249093789695124" lon="11.75409396604266"><ele>72.2</ele><time>2026-04-12T15:15:43Z</time></trkpt><trkpt lat="42.249198150928486" lon="11.754085425581092"><ele>73.6</ele><time>2026-04-12T15:15:44Z</time></trkpt><trkpt lat="42.24929124505209" lon="11.754088726131197"><ele>75.0</ele><time>2026-04-12T15:15:45Z</time></trkpt><trkpt lat="42.24938417822712" lon="11.754096383442057"><ele>75.0</ele><time>2026-04-12T15:15:46Z</time></trkpt><trkpt lat="42.249489974070634" lon="11.75410968471878"><ele>75.0</ele><time>2026-04-12T15:15:47Z</time></trkpt><trkpt lat="42.24960087360673" lon="11.754127719634786"><ele>75.0</ele><time>2026-04-12T15:15:48Z</time></trkpt><trkpt lat="42.24971667584976" lon="11.754144107459435"><ele>75.0</ele><time>2026-04-12T15:15:49Z</time></trkpt><trkpt lat="42.249827775162146" lon="11.754166617894986"><ele>75.0</ele><time>2026-04-12T15:15:50Z</time></trkpt><trkpt lat="42.249934880308324" lon="11.754189279898107"><ele>76.2</ele><time>2026-04-12T15:15:51Z</time></trkpt><trkpt lat="42.250026164274665" lon="11.754193509541453"><ele>77.4</ele><time>2026-04-12T15:15:52Z</time></trkpt><trkpt lat="42.2501103542129" lon="11.754184800161722"><ele>78.6</ele><time>2026-04-12T15:15:53Z</time></trkpt><trkpt lat="42.25020340433383" lon="11.75414504578406"><ele>79.8</ele><time>2026-04-12T15:15:54Z</time></trkpt><trkpt lat="42.25029925679682" lon="11.754075848838744"><ele>81.0</ele><time>2026-04-12T15:15:55Z</time></trkpt><trkpt lat="42.25039580858033" lon="11.753984616407886"><ele>81.0</ele><time>2026-04-12T15:15:56Z</time></trkpt><trkpt lat="42.25046872123877" lon="11.7538935345983"><ele>81.0</ele><time>2026-04-12T15:15:57Z</time></trkpt><trkpt lat="42.25051905338694" lon="11.75382409651303"><ele>81.0</ele><time>2026-04-12T15:15:58Z</time></trkpt><trkpt lat="42.250584141263886" lon="11.753709247743181"><ele>81.0</ele><time>2026-04-12T15:16:00Z</time></trkpt><trkpt lat="42.250638605881655" lon="11.753624362714607"><ele>81.0</ele><time>2026-04-12T15:16:02.001Z</time></trkpt><trkpt lat="42.250692710347096" lon="11.753570581594444"><ele>81.0</ele><time>2026-04-12T15:16:04.001Z</time></trkpt><trkpt lat="42.2508034620792" lon="11.753486190515313"><ele>81.6</ele><time>2026-04-12T15:16:06.001Z</time></trkpt><trkpt lat="42.250867558092466" lon="11.753417436429565"><ele>82.19999999999999</ele><time>2026-04-12T15:16:07.001Z</time></trkpt><trkpt lat="42.25093452727146" lon="11.753346168860297"><ele>82.80000000000001</ele><time>2026-04-12T15:16:08.001Z</time></trkpt><trkpt lat="42.25101233739083" lon="11.753270420910479"><ele>83.4</ele><time>2026-04-12T15:16:10.001Z</time></trkpt><trkpt lat="42.25110482623691" lon="11.75315767153152"><ele>84.0</ele><time>2026-04-12T15:16:55.002Z</time></trkpt><trkpt lat="42.25118669519084" lon="11.75311137881024"><ele>84.0</ele><time>2026-04-12T15:16:56.002Z</time></trkpt><trkpt lat="42.251270665661885" lon="11.753049800320301"><ele>84.0</ele><time>2026-04-12T15:16:57.002Z</time></trkpt><trkpt lat="42.2513588321405" lon="11.752990640674936"><ele>84.0</ele><time>2026-04-12T15:16:58.002Z</time></trkpt><trkpt lat="42.251455111810934" lon="11.752919239786221"><ele>84.0</ele><time>2026-04-12T15:16:59.002Z</time></trkpt><trkpt lat="42.251567612768476" lon="11.752871863983431"><ele>84.0</ele><time>2026-04-12T15:17:00.002Z</time></trkpt><trkpt lat="42.25170074510469" lon="11.752836462859827"><ele>87.5</ele><time>2026-04-12T15:17:01.002Z</time></trkpt><trkpt lat="42.251856585608245" lon="11.752826621550291"><ele>91.0</ele><time>2026-04-12T15:17:02.002Z</time></trkpt><trkpt lat="42.25201317807473" lon="11.752841623032332"><ele>94.5</ele><time>2026-04-12T15:17:03.002Z</time></trkpt><trkpt lat="42.25213381531679" lon="11.752856275939223"><ele>98.0</ele><time>2026-04-12T15:17:04.002Z</time></trkpt><trkpt lat="42.25221759013718" lon="11.752861202999867"><ele>97.99999999999999</ele><time>2026-04-12T15:17:05.002Z</time></trkpt><trkpt lat="42.25231212060359" lon="11.752890758492567"><ele>98.0</ele><time>2026-04-12T15:17:07.003Z</time></trkpt><trkpt lat="42.25228964489435" lon="11.753022845589676"><ele>98.0</ele><time>2026-04-12T15:17:09.003Z</time></trkpt><trkpt lat="42.252232795839525" lon="11.753070593755409"><ele>98.0</ele><time>2026-04-12T15:17:10.003Z</time></trkpt><trkpt lat="42.25216691676066" lon="11.753093582606102"><ele>97.99999999999999</ele><time>2026-04-12T15:17:11.003Z</time></trkpt><trkpt lat="42.25209303477995" lon="11.753103443070426"><ele>98.0</ele><time>2026-04-12T15:17:12.003Z</time></trkpt><trkpt lat="42.252023830453275" lon="11.753117210418548"><ele>98.0</ele><time>2026-04-12T15:17:13.003Z</time></trkpt><trkpt lat="42.25195673403305" lon="11.753137072212686"><ele>98.0</ele><time>2026-04-12T15:17:14.003Z</time></trkpt><trkpt lat="42.25184945033932" lon="11.753177525596524"><ele>98.0</ele><time>2026-04-12T15:17:16.003Z</time></trkpt><trkpt lat="42.25171671258399" lon="11.753236199167594"><ele>98.0</ele><time>2026-04-12T15:17:18.003Z</time></trkpt><trkpt lat="42.25163155063946" lon="11.753276591113087"><ele>98.0</ele><time>2026-04-12T15:17:19.003Z</time></trkpt><trkpt lat="42.25154640438606" lon="11.75333650711763"><ele>96.75</ele><time>2026-04-12T15:17:20.003Z</time></trkpt><trkpt lat="42.25144938322739" lon="11.753408851378326"><ele>95.5</ele><time>2026-04-12T15:17:21.003Z</time></trkpt><trkpt lat="42.25135965090733" lon="11.753486617533023"><ele>94.25</ele><time>2026-04-12T15:17:21.999Z</time></trkpt><trkpt lat="42.25125774171542" lon="11.753572603349724"><ele>93.0</ele><time>2026-04-12T15:17:22.999Z</time></trkpt><trkpt lat="42.25115628831389" lon="11.753672874426375"><ele>93.0</ele><time>2026-04-12T15:17:24Z</time></trkpt><trkpt lat="42.25105836284817" lon="11.753806031664558"><ele>93.0</ele><time>2026-04-12T15:17:25Z</time></trkpt><trkpt lat="42.2509831328923" lon="11.753966925408937"><ele>93.0</ele><time>2026-04-12T15:17:26Z</time></trkpt><trkpt lat="42.250948257221516" lon="11.75415963606115"><ele>93.0</ele><time>2026-04-12T15:17:27Z</time></trkpt><trkpt lat="42.25093907126882" lon="11.754369127624331"><ele>95.33333333333334</ele><time>2026-04-12T15:17:28Z</time></trkpt><trkpt lat="42.250937999116495" lon="11.754592230920764"><ele>97.66666666666667</ele><time>2026-04-12T15:17:29Z</time></trkpt><trkpt lat="42.25092293566407" lon="11.754801158944208"><ele>100.0</ele><time>2026-04-12T15:17:30Z</time></trkpt><trkpt lat="42.250904586068614" lon="11.755019370853011"><ele>102.0</ele><time>2026-04-12T15:17:31Z</time></trkpt><trkpt lat="42.25087569972095" lon="11.755209182809208"><ele>104.0</ele><time>2026-04-12T15:17:32Z</time></trkpt><trkpt lat="42.250811928597535" lon="11.755367033528843"><ele>106.0</ele><time>2026-04-12T15:17:33Z</time></trkpt><trkpt lat="42.25073870624067" lon="11.75551211764582"><ele>108.0</ele><time>2026-04-12T15:17:34Z</time></trkpt><trkpt lat="42.25068385967438" lon="11.755646087949678"><ele>107.5</ele><time>2026-04-12T15:17:35Z</time></trkpt><trkpt lat="42.25061676347539" lon="11.755768561693875"><ele>107.0</ele><time>2026-04-12T15:17:36Z</time></trkpt><trkpt lat="42.25055638093707" lon="11.755915509146641"><ele>106.5</ele><time>2026-04-12T15:17:37Z</time></trkpt><trkpt lat="42.250478096334895" lon="11.756052926558791"><ele>106.0</ele><time>2026-04-12T15:17:38Z</time></trkpt><trkpt lat="42.25038817565" lon="11.756183263556045"><ele>107.0</ele><time>2026-04-12T15:17:39Z</time></trkpt><trkpt lat="42.25031833525751" lon="11.756309846125394"><ele>108.0</ele><time>2026-04-12T15:17:40Z</time></trkpt><trkpt lat="42.25027247523807" lon="11.75643395161254"><ele>109.0</ele><time>2026-04-12T15:17:41Z</time></trkpt><trkpt lat="42.25021401148276" lon="11.756529733066003"><ele>110.0</ele><time>2026-04-12T15:17:42Z</time></trkpt><trkpt lat="42.25015389839333" lon="11.756605177621083"><ele>111.0</ele><time>2026-04-12T15:17:43Z</time></trkpt><trkpt lat="42.25009436139312" lon="11.756669354066577"><ele>111.0</ele><time>2026-04-12T15:17:44Z</time></trkpt><trkpt lat="42.2500340740082" lon="11.75671523254001"><ele>111.0</ele><time>2026-04-12T15:17:45Z</time></trkpt><trkpt lat="42.24997732768021" lon="11.756764257389785"><ele>111.0</ele><time>2026-04-12T15:17:46Z</time></trkpt><trkpt lat="42.24998527811906" lon="11.756926702215939"><ele>111.0</ele><time>2026-04-12T15:17:48Z</time></trkpt><trkpt lat="42.250027694308216" lon="11.75698999419714"><ele>111.0</ele><time>2026-04-12T15:17:49Z</time></trkpt><trkpt lat="42.25010215590926" lon="11.757064573826408"><ele>111.0</ele><time>2026-04-12T15:17:51Z</time></trkpt><trkpt lat="42.25016703148469" lon="11.757183979124232"><ele>111.66666666666667</ele><time>2026-04-12T15:17:53Z</time></trkpt><trkpt lat="42.25020700877959" lon="11.757263553025819"><ele>112.33333333333334</ele><time>2026-04-12T15:17:54Z</time></trkpt><trkpt lat="42.25024524842834" lon="11.757360704037424"><ele>113.0</ele><time>2026-04-12T15:17:55Z</time></trkpt><trkpt lat="42.25028725912751" lon="11.757466444006656"><ele>113.66666666666667</ele><time>2026-04-12T15:17:56.001Z</time></trkpt><trkpt lat="42.250330294886524" lon="11.757570275103692"><ele>114.33333333333334</ele><time>2026-04-12T15:17:57.001Z</time></trkpt><trkpt lat="42.250378058306744" lon="11.757662375114657"><ele>115.0</ele><time>2026-04-12T15:17:58.001Z</time></trkpt><trkpt lat="42.25042303716186" lon="11.75775942002197"><ele>115.6</ele><time>2026-04-12T15:17:59.001Z</time></trkpt><trkpt lat="42.250471849569024" lon="11.757857830668497"><ele>116.2</ele><time>2026-04-12T15:18:00.001Z</time></trkpt><trkpt lat="42.25050519980368" lon="11.757969888353301"><ele>116.80000000000001</ele><time>2026-04-12T15:18:01.001Z</time></trkpt><trkpt lat="42.25055119547652" lon="11.758078047411939"><ele>117.4</ele><time>2026-04-12T15:18:02.001Z</time></trkpt><trkpt lat="42.25061251058432" lon="11.758177406525204"><ele>118.0</ele><time>2026-04-12T15:18:03.001Z</time></trkpt><trkpt lat="42.25065762244803" lon="11.758293753383303"><ele>118.2</ele><time>2026-04-12T15:18:04.001Z</time></trkpt><trkpt lat="42.25070262652731" lon="11.758403146206826"><ele>118.4</ele><time>2026-04-12T15:18:05.001Z</time></trkpt><trkpt lat="42.25075013392111" lon="11.75851841654882"><ele>118.60000000000001</ele><time>2026-04-12T15:18:06.001Z</time></trkpt><trkpt lat="42.25078719516377" lon="11.758642759397695"><ele>118.80000000000001</ele><time>2026-04-12T15:18:07.001Z</time></trkpt><trkpt lat="42.250831847624355" lon="11.758756571878099"><ele>119.0</ele><time>2026-04-12T15:18:08.001Z</time></trkpt><trkpt lat="42.25087781340887" lon="11.758873108723149"><ele>119.2</ele><time>2026-04-12T15:18:09.001Z</time></trkpt><trkpt lat="42.250925651013624" lon="11.758990787929276"><ele>119.4</ele><time>2026-04-12T15:18:10.001Z</time></trkpt><trkpt lat="42.25095176940826" lon="11.759113563934296"><ele>119.6</ele><time>2026-04-12T15:18:11.001Z</time></trkpt><trkpt lat="42.25097585303666" lon="11.759243483489524"><ele>119.8</ele><time>2026-04-12T15:18:12.001Z</time></trkpt><trkpt lat="42.25099563672002" lon="11.75937611826703"><ele>120.0</ele><time>2026-04-12T15:18:13.001Z</time></trkpt><trkpt lat="42.251019969668675" lon="11.759515860786275"><ele>121.0</ele><time>2026-04-12T15:18:14.001Z</time></trkpt><trkpt lat="42.25103970004093" lon="11.759656654483637"><ele>122.0</ele><time>2026-04-12T15:18:15.001Z</time></trkpt><trkpt lat="42.25105975280776" lon="11.759793094656025"><ele>123.0</ele><time>2026-04-12T15:18:16.001Z</time></trkpt><trkpt lat="42.251064859436994" lon="11.7599021320266"><ele>124.0</ele><time>2026-04-12T15:18:17.001Z</time></trkpt><trkpt lat="42.2510710695722" lon="11.759996867438216"><ele>125.0</ele><time>2026-04-12T15:18:18.001Z</time></trkpt><trkpt lat="42.2510691140482" lon="11.760147457423106"><ele>125.2</ele><time>2026-04-12T15:18:20.001Z</time></trkpt><trkpt lat="42.25108881472113" lon="11.760319602118098"><ele>125.4</ele><time>2026-04-12T15:18:22.001Z</time></trkpt><trkpt lat="42.25110821728337" lon="11.760438251367999"><ele>125.6</ele><time>2026-04-12T15:18:23.001Z</time></trkpt><trkpt lat="42.25111723254615" lon="11.760557795993112"><ele>125.8</ele><time>2026-04-12T15:18:24.001Z</time></trkpt><trkpt lat="42.25112311749739" lon="11.760693857320472"><ele>126.0</ele><time>2026-04-12T15:18:25.001Z</time></trkpt><trkpt lat="42.251135437038485" lon="11.76083616509199"><ele>126.0</ele><time>2026-04-12T15:18:26.001Z</time></trkpt><trkpt lat="42.251143438151104" lon="11.761006701651661"><ele>126.0</ele><time>2026-04-12T15:18:27.001Z</time></trkpt><trkpt lat="42.25115288857034" lon="11.761184370983628"><ele>126.0</ele><time>2026-04-12T15:18:28.002Z</time></trkpt><trkpt lat="42.251145357217496" lon="11.761371021918523"><ele>126.0</ele><time>2026-04-12T15:18:29.002Z</time></trkpt><trkpt lat="42.251154295675576" lon="11.761561524832622"><ele>127.0</ele><time>2026-04-12T15:18:30.002Z</time></trkpt><trkpt lat="42.25116969843659" lon="11.761765050794349"><ele>128.0</ele><time>2026-04-12T15:18:31.002Z</time></trkpt><trkpt lat="42.25116912182712" lon="11.761955940042432"><ele>129.0</ele><time>2026-04-12T15:18:32.002Z</time></trkpt><trkpt lat="42.25117282655092" lon="11.762147503529484"><ele>130.0</ele><time>2026-04-12T15:18:33.002Z</time></trkpt><trkpt lat="42.251186893653525" lon="11.762341147624284"><ele>132.75</ele><time>2026-04-12T15:18:34.002Z</time></trkpt><trkpt lat="42.25119864277711" lon="11.762527270493223"><ele>135.5</ele><time>2026-04-12T15:18:35.002Z</time></trkpt><trkpt lat="42.2512129199283" lon="11.762703399167048"><ele>138.25</ele><time>2026-04-12T15:18:36.002Z</time></trkpt><trkpt lat="42.25120690128174" lon="11.762882078416379"><ele>141.0</ele><time>2026-04-12T15:18:37.002Z</time></trkpt><trkpt lat="42.251215706596255" lon="11.763052647871161"><ele>141.0</ele><time>2026-04-12T15:18:38.002Z</time></trkpt><trkpt lat="42.25122262551438" lon="11.763219835218898"><ele>141.0</ele><time>2026-04-12T15:18:39.002Z</time></trkpt><trkpt lat="42.251226688351" lon="11.76338896389362"><ele>141.0</ele><time>2026-04-12T15:18:40.002Z</time></trkpt><trkpt lat="42.251229585328495" lon="11.763541849806055"><ele>141.0</ele><time>2026-04-12T15:18:41.002Z</time></trkpt><trkpt lat="42.251223451108565" lon="11.76367890181464"><ele>141.2</ele><time>2026-04-12T15:18:42.002Z</time></trkpt><trkpt lat="42.25119771020713" lon="11.763818217422672"><ele>141.39999999999998</ele><time>2026-04-12T15:18:43.002Z</time></trkpt><trkpt lat="42.2511608376628" lon="11.763944968342274"><ele>141.6</ele><time>2026-04-12T15:18:44.002Z</time></trkpt><trkpt lat="42.25111462935206" lon="11.764061360937681"><ele>141.79999999999998</ele><time>2026-04-12T15:18:45.002Z</time></trkpt><trkpt lat="42.25106699702686" lon="11.764188328582435"><ele>142.0</ele><time>2026-04-12T15:18:46.002Z</time></trkpt><trkpt lat="42.25101053002445" lon="11.76432298226039"><ele>143.0</ele><time>2026-04-12T15:18:47.002Z</time></trkpt><trkpt lat="42.25095541637316" lon="11.764470996124633"><ele>144.0</ele><time>2026-04-12T15:18:48.002Z</time></trkpt><trkpt lat="42.25088937002565" lon="11.764632964485019"><ele>145.0</ele><time>2026-04-12T15:18:49.002Z</time></trkpt><trkpt lat="42.25082307598564" lon="11.76479808411327"><ele>146.0</ele><time>2026-04-12T15:18:50.002Z</time></trkpt><trkpt lat="42.250752708560135" lon="11.764968336006763"><ele>146.0</ele><time>2026-04-12T15:18:51.002Z</time></trkpt><trkpt lat="42.25068175048305" lon="11.765147087205296"><ele>146.0</ele><time>2026-04-12T15:18:52.002Z</time></trkpt><trkpt lat="42.25060753975738" lon="11.765329279409894"><ele>146.0</ele><time>2026-04-12T15:18:53.002Z</time></trkpt><trkpt lat="42.25053250880402" lon="11.765511573914218"><ele>145.66666666666666</ele><time>2026-04-12T15:18:54.002Z</time></trkpt><trkpt lat="42.250453951543015" lon="11.765696987973266"><ele>145.33333333333334</ele><time>2026-04-12T15:18:55.002Z</time></trkpt><trkpt lat="42.25037373561547" lon="11.765886868971856"><ele>145.0</ele><time>2026-04-12T15:18:56.002Z</time></trkpt><trkpt lat="42.25029924590464" lon="11.766074302913404"><ele>145.0</ele><time>2026-04-12T15:18:57.002Z</time></trkpt><trkpt lat="42.25022401006776" lon="11.76626059801963"><ele>145.0</ele><time>2026-04-12T15:18:58.002Z</time></trkpt><trkpt lat="42.250146959605885" lon="11.766437346768665"><ele>145.0</ele><time>2026-04-12T15:18:59.002Z</time></trkpt><trkpt lat="42.25008291550548" lon="11.76661775762978"><ele>145.0</ele><time>2026-04-12T15:19:00.002Z</time></trkpt><trkpt lat="42.25002049022098" lon="11.76680477761073"><ele>145.0</ele><time>2026-04-12T15:19:01.003Z</time></trkpt><trkpt lat="42.249967819350395" lon="11.766998901140928"><ele>145.0</ele><time>2026-04-12T15:19:02.003Z</time></trkpt><trkpt lat="42.24990880258809" lon="11.767199938513278"><ele>145.66666666666669</ele><time>2026-04-12T15:19:03.003Z</time></trkpt><trkpt lat="42.24984067586646" lon="11.767404502597415"><ele>146.33333333333334</ele><time>2026-04-12T15:19:04.003Z</time></trkpt><trkpt lat="42.24976868593211" lon="11.767605708508977"><ele>147.0</ele><time>2026-04-12T15:19:05.003Z</time></trkpt><trkpt lat="42.24970281797469" lon="11.767815586220571"><ele>145.0</ele><time>2026-04-12T15:19:06.003Z</time></trkpt><trkpt lat="42.24963455521525" lon="11.768028575706348"><ele>143.0</ele><time>2026-04-12T15:19:07.003Z</time></trkpt><trkpt lat="42.24957918128318" lon="11.768250012362577"><ele>141.0</ele><time>2026-04-12T15:19:08.003Z</time></trkpt><trkpt lat="42.24951342700742" lon="11.768471444525908"><ele>141.66666666666666</ele><time>2026-04-12T15:19:09.003Z</time></trkpt><trkpt lat="42.249432777095265" lon="11.768675015450842"><ele>142.33333333333331</ele><time>2026-04-12T15:19:10.003Z</time></trkpt><trkpt lat="42.249366704805716" lon="11.768883947531657"><ele>143.0</ele><time>2026-04-12T15:19:11.003Z</time></trkpt><trkpt lat="42.24929600290856" lon="11.76909981472834"><ele>143.0</ele><time>2026-04-12T15:19:12.003Z</time></trkpt><trkpt lat="42.24922753984152" lon="11.769306954028034"><ele>143.0</ele><time>2026-04-12T15:19:13.003Z</time></trkpt><trkpt lat="42.249158909900466" lon="11.769509055937919"><ele>143.0</ele><time>2026-04-12T15:19:14.003Z</time></trkpt><trkpt lat="42.24902785781536" lon="11.769660800041352"><ele>141.33333333333331</ele><time>2026-04-12T15:19:15.003Z</time></trkpt><trkpt lat="42.248913400438994" lon="11.769823119333168"><ele>139.66666666666666</ele><time>2026-04-12T15:19:16.003Z</time></trkpt><trkpt lat="42.248802470180145" lon="11.769966633069679"><ele>138.0</ele><time>2026-04-12T15:19:17.003Z</time></trkpt><trkpt lat="42.248707418717515" lon="11.770117353120327"><ele>138.66666666666666</ele><time>2026-04-12T15:19:18.003Z</time></trkpt><trkpt lat="42.248645408827514" lon="11.770300120728631"><ele>139.33333333333331</ele><time>2026-04-12T15:19:19.003Z</time></trkpt><trkpt lat="42.24861628471397" lon="11.770515595433114"><ele>140.0</ele><time>2026-04-12T15:19:20.003Z</time></trkpt><trkpt lat="42.24862694692236" lon="11.770731279376578"><ele>140.0</ele><time>2026-04-12T15:19:21.003Z</time></trkpt><trkpt lat="42.24866089442533" lon="11.7709383400887"><ele>140.0</ele><time>2026-04-12T15:19:22.003Z</time></trkpt><trkpt lat="42.24864470480114" lon="11.771138772244477"><ele>140.0</ele><time>2026-04-12T15:19:23.003Z</time></trkpt><trkpt lat="42.248596890449846" lon="11.771335096917355"><ele>140.33333333333331</ele><time>2026-04-12T15:19:24.003Z</time></trkpt><trkpt lat="42.24853777478896" lon="11.771532896549287"><ele>140.66666666666666</ele><time>2026-04-12T15:19:25.003Z</time></trkpt><trkpt lat="42.24847642335701" lon="11.771738542157468"><ele>141.0</ele><time>2026-04-12T15:19:26.003Z</time></trkpt><trkpt lat="42.248423073456166" lon="11.771951903456266"><ele>142.0</ele><time>2026-04-12T15:19:27.003Z</time></trkpt><trkpt lat="42.24836055008871" lon="11.772162283479583"><ele>143.0</ele><time>2026-04-12T15:19:28Z</time></trkpt><trkpt lat="42.24830524131643" lon="11.772374245344945"><ele>144.0</ele><time>2026-04-12T15:19:29Z</time></trkpt><trkpt lat="42.248249679212165" lon="11.772589590002653"><ele>145.33333333333334</ele><time>2026-04-12T15:19:30Z</time></trkpt><trkpt lat="42.2481999803649" lon="11.77280608894438"><ele>146.66666666666669</ele><time>2026-04-12T15:19:31Z</time></trkpt><trkpt lat="42.24815610895214" lon="11.773030225724925"><ele>148.0</ele><time>2026-04-12T15:19:32Z</time></trkpt><trkpt lat="42.248108032478136" lon="11.773243204985173"><ele>144.66666666666669</ele><time>2026-04-12T15:19:33Z</time></trkpt><trkpt lat="42.248063698431984" lon="11.773464852646933"><ele>141.33333333333334</ele><time>2026-04-12T15:19:34Z</time></trkpt><trkpt lat="42.24801319390299" lon="11.773688061604735"><ele>138.0</ele><time>2026-04-12T15:19:35Z</time></trkpt><trkpt lat="42.24796682680276" lon="11.773914513065218"><ele>138.0</ele><time>2026-04-12T15:19:36Z</time></trkpt><trkpt lat="42.24792117184276" lon="11.77412907857529"><ele>138.0</ele><time>2026-04-12T15:19:37Z</time></trkpt><trkpt lat="42.247874349436955" lon="11.774347261892121"><ele>138.0</ele><time>2026-04-12T15:19:38Z</time></trkpt><trkpt lat="42.24782438582089" lon="11.774553741612037"><ele>138.33333333333334</ele><time>2026-04-12T15:19:39Z</time></trkpt><trkpt lat="42.247767801132724" lon="11.774762190106598"><ele>138.66666666666669</ele><time>2026-04-12T15:19:40Z</time></trkpt><trkpt lat="42.2477097864505" lon="11.774966118450486"><ele>139.0</ele><time>2026-04-12T15:19:41Z</time></trkpt><trkpt lat="42.24764315534309" lon="11.775172952059606"><ele>139.0</ele><time>2026-04-12T15:19:42Z</time></trkpt><trkpt lat="42.247575275571315" lon="11.775383218928981"><ele>139.0</ele><time>2026-04-12T15:19:43Z</time></trkpt><trkpt lat="42.247507393017294" lon="11.775589764413843"><ele>139.0</ele><time>2026-04-12T15:19:44Z</time></trkpt><trkpt lat="42.24744129174422" lon="11.775799116983112"><ele>139.0</ele><time>2026-04-12T15:19:45Z</time></trkpt><trkpt lat="42.24738025965216" lon="11.77600554852385"><ele>139.0</ele><time>2026-04-12T15:19:46Z</time></trkpt><trkpt lat="42.24732139605613" lon="11.776208879793632"><ele>139.0</ele><time>2026-04-12T15:19:47Z</time></trkpt><trkpt lat="42.24726137843828" lon="11.776414922534062"><ele>138.66666666666669</ele><time>2026-04-12T15:19:48Z</time></trkpt><trkpt lat="42.247195105118145" lon="11.776620279381618"><ele>138.33333333333334</ele><time>2026-04-12T15:19:49Z</time></trkpt><trkpt lat="42.247119932156714" lon="11.776837338660128"><ele>138.0</ele><time>2026-04-12T15:19:50Z</time></trkpt><trkpt lat="42.247036312014046" lon="11.777032931918002"><ele>138.0</ele><time>2026-04-12T15:19:51Z</time></trkpt><trkpt lat="42.246940336481856" lon="11.777224741917001"><ele>138.0</ele><time>2026-04-12T15:19:52Z</time></trkpt><trkpt lat="42.246825003274544" lon="11.777410489986622"><ele>138.0</ele><time>2026-04-12T15:19:53Z</time></trkpt><trkpt lat="42.246676640862404" lon="11.777543547233659"><ele>138.0</ele><time>2026-04-12T15:19:54Z</time></trkpt><trkpt lat="42.24652581556559" lon="11.777669259665398"><ele>138.0</ele><time>2026-04-12T15:19:55Z</time></trkpt><trkpt lat="42.24638255914425" lon="11.777794246486254"><ele>138.0</ele><time>2026-04-12T15:19:56Z</time></trkpt><trkpt lat="42.246230838913355" lon="11.777887926490541"><ele>138.33333333333334</ele><time>2026-04-12T15:19:57Z</time></trkpt><trkpt lat="42.246087022720815" lon="11.777996926581563"><ele>138.66666666666669</ele><time>2026-04-12T15:19:58Z</time></trkpt><trkpt lat="42.24594427807219" lon="11.778101538913615"><ele>139.0</ele><time>2026-04-12T15:19:59.001Z</time></trkpt><trkpt lat="42.24580409440603" lon="11.778210435885114"><ele>139.0</ele><time>2026-04-12T15:20:00.001Z</time></trkpt><trkpt lat="42.24566523183699" lon="11.778324275295516"><ele>139.0</ele><time>2026-04-12T15:20:01.001Z</time></trkpt><trkpt lat="42.245527365721436" lon="11.778435125912923"><ele>139.0</ele><time>2026-04-12T15:20:02.001Z</time></trkpt><trkpt lat="42.2453959985939" lon="11.778548186529088"><ele>138.33333333333334</ele><time>2026-04-12T15:20:03.001Z</time></trkpt><trkpt lat="42.245263084635596" lon="11.778654839785727"><ele>137.66666666666666</ele><time>2026-04-12T15:20:04.001Z</time></trkpt><trkpt lat="42.245123431657" lon="11.778767528172622"><ele>137.0</ele><time>2026-04-12T15:20:05.001Z</time></trkpt><trkpt lat="42.24498066901136" lon="11.77886880420341"><ele>137.0</ele><time>2026-04-12T15:20:06.001Z</time></trkpt><trkpt lat="42.24483779615629" lon="11.779006810567363"><ele>137.0</ele><time>2026-04-12T15:20:07.001Z</time></trkpt><trkpt lat="42.2446873396061" lon="11.779132574759029"><ele>137.0</ele><time>2026-04-12T15:20:08.001Z</time></trkpt><trkpt lat="42.24454041577773" lon="11.77924888542649"><ele>137.0</ele><time>2026-04-12T15:20:09.001Z</time></trkpt><trkpt lat="42.244401566678356" lon="11.779372853520854"><ele>137.0</ele><time>2026-04-12T15:20:10.001Z</time></trkpt><trkpt lat="42.24427525424681" lon="11.779482631556847"><ele>137.0</ele><time>2026-04-12T15:20:11.001Z</time></trkpt><trkpt lat="42.244153224750676" lon="11.77958619956498"><ele>137.0</ele><time>2026-04-12T15:20:12.001Z</time></trkpt><trkpt lat="42.24403195067032" lon="11.77968753251167"><ele>137.0</ele><time>2026-04-12T15:20:13.001Z</time></trkpt><trkpt lat="42.24391168053323" lon="11.779781278241446"><ele>137.0</ele><time>2026-04-12T15:20:14.001Z</time></trkpt><trkpt lat="42.24379434578393" lon="11.779880040348695"><ele>137.0</ele><time>2026-04-12T15:20:15.001Z</time></trkpt><trkpt lat="42.24368209129833" lon="11.779983648924107"><ele>136.5</ele><time>2026-04-12T15:20:16.001Z</time></trkpt><trkpt lat="42.24357821292657" lon="11.780076560078726"><ele>136.0</ele><time>2026-04-12T15:20:17.001Z</time></trkpt><trkpt lat="42.24348006932022" lon="11.780170711377211"><ele>135.5</ele><time>2026-04-12T15:20:18.001Z</time></trkpt><trkpt lat="42.24338909546239" lon="11.780280969725826"><ele>135.0</ele><time>2026-04-12T15:20:19.001Z</time></trkpt><trkpt lat="42.24328566904332" lon="11.780397364754409"><ele>135.0</ele><time>2026-04-12T15:20:20.001Z</time></trkpt><trkpt lat="42.243190482654015" lon="11.780533758324388"><ele>135.0</ele><time>2026-04-12T15:20:21.001Z</time></trkpt><trkpt lat="42.24310701995143" lon="11.780696384740796"><ele>135.0</ele><time>2026-04-12T15:20:22.001Z</time></trkpt><trkpt lat="42.24301847450377" lon="11.780859261821464"><ele>135.0</ele><time>2026-04-12T15:20:23.001Z</time></trkpt><trkpt lat="42.242926973863725" lon="11.781026388865506"><ele>133.66666666666666</ele><time>2026-04-12T15:20:24.001Z</time></trkpt><trkpt lat="42.24283293326745" lon="11.781203858810777"><ele>132.33333333333331</ele><time>2026-04-12T15:20:25.001Z</time></trkpt><trkpt lat="42.24273306867784" lon="11.781385326870874"><ele>131.0</ele><time>2026-04-12T15:20:26.001Z</time></trkpt><trkpt lat="42.24262517192225" lon="11.781578722030611"><ele>131.0</ele><time>2026-04-12T15:20:27.001Z</time></trkpt><trkpt lat="42.24252259056479" lon="11.78177704450017"><ele>131.0</ele><time>2026-04-12T15:20:28.001Z</time></trkpt><trkpt lat="42.242419860935456" lon="11.781973512223644"><ele>131.0</ele><time>2026-04-12T15:20:29.001Z</time></trkpt><trkpt lat="42.24231237840912" lon="11.782160468025397"><ele>129.66666666666666</ele><time>2026-04-12T15:20:30.002Z</time></trkpt><trkpt lat="42.242179899855" lon="11.782326046987738"><ele>128.33333333333334</ele><time>2026-04-12T15:20:31.002Z</time></trkpt><trkpt lat="42.24203722918781" lon="11.782480750685822"><ele>127.0</ele><time>2026-04-12T15:20:32.002Z</time></trkpt><trkpt lat="42.241893067896974" lon="11.782652989755254"><ele>129.66666666666669</ele><time>2026-04-12T15:20:33.002Z</time></trkpt><trkpt lat="42.241742016902315" lon="11.782812251138811"><ele>132.33333333333334</ele><time>2026-04-12T15:20:34.002Z</time></trkpt><trkpt lat="42.241599855554696" lon="11.782997754511626"><ele>135.0</ele><time>2026-04-12T15:20:35.002Z</time></trkpt><trkpt lat="42.24147103838658" lon="11.78320345226682"><ele>133.33333333333334</ele><time>2026-04-12T15:20:36.002Z</time></trkpt><trkpt lat="42.24135385423009" lon="11.783421737553951"><ele>131.66666666666669</ele><time>2026-04-12T15:20:37.002Z</time></trkpt><trkpt lat="42.24123676376258" lon="11.783638056850814"><ele>130.0</ele><time>2026-04-12T15:20:38.002Z</time></trkpt><trkpt lat="42.24111375060895" lon="11.7838526457932"><ele>130.0</ele><time>2026-04-12T15:20:39.002Z</time></trkpt><trkpt lat="42.24099248718556" lon="11.784073312939165"><ele>130.0</ele><time>2026-04-12T15:20:40.002Z</time></trkpt><trkpt lat="42.24086677276158" lon="11.784295787502288"><ele>130.0</ele><time>2026-04-12T15:20:41.002Z</time></trkpt><trkpt lat="42.24073774962596" lon="11.78451960356124"><ele>129.0</ele><time>2026-04-12T15:20:42.002Z</time></trkpt><trkpt lat="42.24060817925951" lon="11.784740052126542"><ele>128.0</ele><time>2026-04-12T15:20:43.002Z</time></trkpt><trkpt lat="42.24048099121951" lon="11.784959687643234"><ele>127.0</ele><time>2026-04-12T15:20:44.002Z</time></trkpt><trkpt lat="42.24035618987227" lon="11.78517742607066"><ele>128.0</ele><time>2026-04-12T15:20:45.002Z</time></trkpt><trkpt lat="42.240230719485965" lon="11.785402979003662"><ele>129.0</ele><time>2026-04-12T15:20:46.002Z</time></trkpt><trkpt lat="42.24010437829384" lon="11.785624759249792"><ele>130.0</ele><time>2026-04-12T15:20:47.002Z</time></trkpt><trkpt lat="42.23997938393094" lon="11.7858389101323"><ele>131.0</ele><time>2026-04-12T15:20:48.002Z</time></trkpt><trkpt lat="42.239853134392696" lon="11.786052888874652"><ele>132.0</ele><time>2026-04-12T15:20:49.002Z</time></trkpt><trkpt lat="42.239727377835564" lon="11.786269371799893"><ele>133.0</ele><time>2026-04-12T15:20:50.002Z</time></trkpt><trkpt lat="42.239599676271354" lon="11.786494439593337"><ele>131.33333333333334</ele><time>2026-04-12T15:20:51.002Z</time></trkpt><trkpt lat="42.23947396751146" lon="11.78672100961954"><ele>129.66666666666666</ele><time>2026-04-12T15:20:52.002Z</time></trkpt><trkpt lat="42.23934802900953" lon="11.786941535741583"><ele>128.0</ele><time>2026-04-12T15:20:53.002Z</time></trkpt><trkpt lat="42.239220723852206" lon="11.78715779802016"><ele>128.0</ele><time>2026-04-12T15:20:54.002Z</time></trkpt><trkpt lat="42.23909179646483" lon="11.787374360451844"><ele>128.0</ele><time>2026-04-12T15:20:55.002Z</time></trkpt><trkpt lat="42.238967834124516" lon="11.787587220306849"><ele>128.0</ele><time>2026-04-12T15:20:56.002Z</time></trkpt><trkpt lat="42.2388460156871" lon="11.787797980006943"><ele>127.0</ele><time>2026-04-12T15:20:57.002Z</time></trkpt><trkpt lat="42.238724846544336" lon="11.788009787761533"><ele>126.0</ele><time>2026-04-12T15:20:58.002Z</time></trkpt><trkpt lat="42.238605324527825" lon="11.788220493492952"><ele>125.0</ele><time>2026-04-12T15:20:59.002Z</time></trkpt><trkpt lat="42.23848587826233" lon="11.788428091266878"><ele>125.0</ele><time>2026-04-12T15:21:00.002Z</time></trkpt><trkpt lat="42.23836836460248" lon="11.788635636416288"><ele>125.0</ele><time>2026-04-12T15:21:01.002Z</time></trkpt><trkpt lat="42.238246614293175" lon="11.788842722706422"><ele>125.0</ele><time>2026-04-12T15:21:02.002Z</time></trkpt><trkpt lat="42.23811964324944" lon="11.789049065872238"><ele>125.0</ele><time>2026-04-12T15:21:03.003Z</time></trkpt><trkpt lat="42.23799525465193" lon="11.789265032401753"><ele>125.0</ele><time>2026-04-12T15:21:04.003Z</time></trkpt><trkpt lat="42.2378671334303" lon="11.789483432477493"><ele>125.0</ele><time>2026-04-12T15:21:05.003Z</time></trkpt><trkpt lat="42.23773702958412" lon="11.789706564605586"><ele>125.33333333333333</ele><time>2026-04-12T15:21:06.003Z</time></trkpt><trkpt lat="42.237607494386964" lon="11.789930046816405"><ele>125.66666666666666</ele><time>2026-04-12T15:21:07.003Z</time></trkpt><trkpt lat="42.23747442793662" lon="11.790144507963136"><ele>126.0</ele><time>2026-04-12T15:21:08.003Z</time></trkpt><trkpt lat="42.23734689242855" lon="11.790377508113535"><ele>125.33333333333334</ele><time>2026-04-12T15:21:09.003Z</time></trkpt><trkpt lat="42.23721408150217" lon="11.790602825736514"><ele>124.66666666666667</ele><time>2026-04-12T15:21:10.003Z</time></trkpt><trkpt lat="42.23708350942792" lon="11.790824231843311"><ele>124.0</ele><time>2026-04-12T15:21:11.003Z</time></trkpt><trkpt lat="42.23695664844118" lon="11.791052320356012"><ele>126.0</ele><time>2026-04-12T15:21:12.003Z</time></trkpt><trkpt lat="42.236827612122795" lon="11.791278320545342"><ele>128.0</ele><time>2026-04-12T15:21:13.003Z</time></trkpt><trkpt lat="42.23670292352941" lon="11.791497969385365"><ele>130.0</ele><time>2026-04-12T15:21:14.003Z</time></trkpt><trkpt lat="42.23656990712539" lon="11.79171870169235"><ele>128.33333333333334</ele><time>2026-04-12T15:21:15.003Z</time></trkpt><trkpt lat="42.236442269012436" lon="11.791944223109398"><ele>126.66666666666666</ele><time>2026-04-12T15:21:16.003Z</time></trkpt><trkpt lat="42.236313872897824" lon="11.792168496140004"><ele>125.0</ele><time>2026-04-12T15:21:17.003Z</time></trkpt><trkpt lat="42.23618299008207" lon="11.792396427950221"><ele>125.0</ele><time>2026-04-12T15:21:18.003Z</time></trkpt><trkpt lat="42.23605069469697" lon="11.79262008810856"><ele>125.0</ele><time>2026-04-12T15:21:19.003Z</time></trkpt><trkpt lat="42.23592430886303" lon="11.792844604172297"><ele>125.0</ele><time>2026-04-12T15:21:20.003Z</time></trkpt><trkpt lat="42.235797655507696" lon="11.793065869036322"><ele>125.33333333333333</ele><time>2026-04-12T15:21:21.003Z</time></trkpt><trkpt lat="42.23567616166466" lon="11.793271480738278"><ele>125.66666666666666</ele><time>2026-04-12T15:21:22.003Z</time></trkpt><trkpt lat="42.23556271975541" lon="11.79346717661796"><ele>126.0</ele><time>2026-04-12T15:21:23.003Z</time></trkpt><trkpt lat="42.23545760688381" lon="11.793641691302094"><ele>127.25</ele><time>2026-04-12T15:21:24.003Z</time></trkpt><trkpt lat="42.235360233796044" lon="11.793807090755342"><ele>128.5</ele><time>2026-04-12T15:21:25.003Z</time></trkpt><trkpt lat="42.23526954439305" lon="11.793965471573689"><ele>129.75</ele><time>2026-04-12T15:21:26.003Z</time></trkpt><trkpt lat="42.23519052981428" lon="11.794114583807783"><ele>131.0</ele><time>2026-04-12T15:21:27.003Z</time></trkpt><trkpt lat="42.23511523859766" lon="11.794254770333186"><ele>132.5</ele><time>2026-04-12T15:21:28.003Z</time></trkpt><trkpt lat="42.23504117855885" lon="11.794384347235301"><ele>134.0</ele><time>2026-04-12T15:21:29.003Z</time></trkpt><trkpt lat="42.23496003901025" lon="11.794503530627791"><ele>135.5</ele><time>2026-04-12T15:21:30.003Z</time></trkpt><trkpt lat="42.23488820468446" lon="11.794624688562083"><ele>137.0</ele><time>2026-04-12T15:21:31.003Z</time></trkpt><trkpt lat="42.234831956651824" lon="11.794729104812468"><ele>136.33333333333331</ele><time>2026-04-12T15:21:32.003Z</time></trkpt><trkpt lat="42.23478613408527" lon="11.794807535373836"><ele>135.66666666666666</ele><time>2026-04-12T15:21:33.003Z</time></trkpt><trkpt lat="42.23471969314264" lon="11.794901608546889"><ele>135.0</ele><time>2026-04-12T15:21:35Z</time></trkpt><trkpt lat="42.23467527995442" lon="11.794980862234798"><ele>134.33333333333334</ele><time>2026-04-12T15:21:56Z</time></trkpt><trkpt lat="42.234663664974924" lon="11.795133398979651"><ele>133.66666666666669</ele><time>2026-04-12T15:21:58Z</time></trkpt><trkpt lat="42.234687680463416" lon="11.795220908095876"><ele>133.0</ele><time>2026-04-12T15:21:59Z</time></trkpt><trkpt lat="42.23470756671878" lon="11.795305581817235"><ele>133.0</ele><time>2026-04-12T15:22:00Z</time></trkpt><trkpt lat="42.23473651557793" lon="11.795432159923397"><ele>133.0</ele><time>2026-04-12T15:22:01Z</time></trkpt><trkpt lat="42.234782877098446" lon="11.795583838559507"><ele>133.0</ele><time>2026-04-12T15:22:02Z</time></trkpt><trkpt lat="42.23484548639845" lon="11.795729387656293"><ele>133.0</ele><time>2026-04-12T15:22:03Z</time></trkpt><trkpt lat="42.234939397990004" lon="11.79586231249944"><ele>135.0</ele><time>2026-04-12T15:22:04.001Z</time></trkpt><trkpt lat="42.23506813213123" lon="11.79597352808487"><ele>137.0</ele><time>2026-04-12T15:22:05.001Z</time></trkpt><trkpt lat="42.2352190341266" lon="11.796046541261534"><ele>139.0</ele><time>2026-04-12T15:22:06.001Z</time></trkpt><trkpt lat="42.23537041905718" lon="11.796084937822569"><ele>139.0</ele><time>2026-04-12T15:22:07.001Z</time></trkpt><trkpt lat="42.23552221325729" lon="11.796128577360136"><ele>139.0</ele><time>2026-04-12T15:22:08.001Z</time></trkpt><trkpt lat="42.235680344951106" lon="11.796196202247966"><ele>139.0</ele><time>2026-04-12T15:22:09.001Z</time></trkpt><trkpt lat="42.23584118113049" lon="11.796282969315621"><ele>140.33333333333334</ele><time>2026-04-12T15:22:10.001Z</time></trkpt><trkpt lat="42.236008746602096" lon="11.796377740914453"><ele>141.66666666666666</ele><time>2026-04-12T15:22:11.001Z</time></trkpt><trkpt lat="42.236181374271744" lon="11.796480279897198"><ele>143.0</ele><time>2026-04-12T15:22:12.001Z</time></trkpt><trkpt lat="42.23634710390702" lon="11.796585687322745"><ele>143.33333333333331</ele><time>2026-04-12T15:22:13.001Z</time></trkpt><trkpt lat="42.23651666799732" lon="11.796686836318521"><ele>143.66666666666666</ele><time>2026-04-12T15:22:14.001Z</time></trkpt><trkpt lat="42.23666880982306" lon="11.796775327188163"><ele>144.0</ele><time>2026-04-12T15:22:15.001Z</time></trkpt><trkpt lat="42.23680604079555" lon="11.796862027759671"><ele>144.0</ele><time>2026-04-12T15:22:16.001Z</time></trkpt><trkpt lat="42.236937517837006" lon="11.796942227830575"><ele>144.0</ele><time>2026-04-12T15:22:17.001Z</time></trkpt><trkpt lat="42.23706222928136" lon="11.797021917936014"><ele>144.0</ele><time>2026-04-12T15:22:18.001Z</time></trkpt><trkpt lat="42.23717866847499" lon="11.79710216552549"><ele>144.0</ele><time>2026-04-12T15:22:19.001Z</time></trkpt><trkpt lat="42.2373051155145" lon="11.79717877801117"><ele>146.5</ele><time>2026-04-12T15:22:20.001Z</time></trkpt><trkpt lat="42.237436640527626" lon="11.797257107141213"><ele>149.0</ele><time>2026-04-12T15:22:21.001Z</time></trkpt><trkpt lat="42.23756779706167" lon="11.797337552469495"><ele>151.5</ele><time>2026-04-12T15:22:22.001Z</time></trkpt><trkpt lat="42.23768306029741" lon="11.797423426176815"><ele>154.0</ele><time>2026-04-12T15:22:23.001Z</time></trkpt><trkpt lat="42.23777658867234" lon="11.797524104259633"><ele>154.0</ele><time>2026-04-12T15:22:24.001Z</time></trkpt><trkpt lat="42.23784175770168" lon="11.797651933572569"><ele>154.0</ele><time>2026-04-12T15:22:25.001Z</time></trkpt><trkpt lat="42.2378832637611" lon="11.797797288393493"><ele>154.0</ele><time>2026-04-12T15:22:26.001Z</time></trkpt><trkpt lat="42.237868294324905" lon="11.797960660858426"><ele>154.0</ele><time>2026-04-12T15:22:27.001Z</time></trkpt><trkpt lat="42.237882255737915" lon="11.798129831197949"><ele>154.5</ele><time>2026-04-12T15:22:28.001Z</time></trkpt><trkpt lat="42.23785104898962" lon="11.798306522252574"><ele>155.0</ele><time>2026-04-12T15:22:29.001Z</time></trkpt><trkpt lat="42.23780136615618" lon="11.798486937086999"><ele>155.5</ele><time>2026-04-12T15:22:30.001Z</time></trkpt><trkpt lat="42.23771649743746" lon="11.79864484330398"><ele>156.0</ele><time>2026-04-12T15:22:31.001Z</time></trkpt><trkpt lat="42.2376285127464" lon="11.798796853529776"><ele>156.0</ele><time>2026-04-12T15:22:32.001Z</time></trkpt><trkpt lat="42.23754718133186" lon="11.798941401595826"><ele>156.0</ele><time>2026-04-12T15:22:33.001Z</time></trkpt><trkpt lat="42.237477667038725" lon="11.799065910810786"><ele>156.0</ele><time>2026-04-12T15:22:34.001Z</time></trkpt><trkpt lat="42.23741934612937" lon="11.79919828319763"><ele>156.0</ele><time>2026-04-12T15:22:35.001Z</time></trkpt><trkpt lat="42.23737695430959" lon="11.799342261537857"><ele>157.5</ele><time>2026-04-12T15:22:36.001Z</time></trkpt><trkpt lat="42.23735992595472" lon="11.799497886161376"><ele>159.0</ele><time>2026-04-12T15:22:37.002Z</time></trkpt><trkpt lat="42.237378933439324" lon="11.799662207415862"><ele>160.5</ele><time>2026-04-12T15:22:38.002Z</time></trkpt><trkpt lat="42.237426894449044" lon="11.79983003872307"><ele>162.0</ele><time>2026-04-12T15:22:39.002Z</time></trkpt><trkpt lat="42.23748521897259" lon="11.799987547326863"><ele>162.0</ele><time>2026-04-12T15:22:40.002Z</time></trkpt><trkpt lat="42.237537336484266" lon="11.80014506155898"><ele>162.0</ele><time>2026-04-12T15:22:41.002Z</time></trkpt><trkpt lat="42.23758664603453" lon="11.800302971423598"><ele>162.0</ele><time>2026-04-12T15:22:42.002Z</time></trkpt><trkpt lat="42.23764337032397" lon="11.800466555703306"><ele>162.0</ele><time>2026-04-12T15:22:43.002Z</time></trkpt><trkpt lat="42.23770463169672" lon="11.800643224646969"><ele>162.66666666666666</ele><time>2026-04-12T15:22:44.002Z</time></trkpt><trkpt lat="42.237770713664254" lon="11.800828907669453"><ele>163.33333333333331</ele><time>2026-04-12T15:22:45.002Z</time></trkpt><trkpt lat="42.23784097952851" lon="11.801028647737168"><ele>164.0</ele><time>2026-04-12T15:22:46.002Z</time></trkpt><trkpt lat="42.23791606241277" lon="11.80124051556436"><ele>164.66666666666666</ele><time>2026-04-12T15:22:47.002Z</time></trkpt><trkpt lat="42.23798280726298" lon="11.80144187411879"><ele>165.33333333333334</ele><time>2026-04-12T15:22:48.002Z</time></trkpt><trkpt lat="42.238050639974496" lon="11.801647656263208"><ele>166.0</ele><time>2026-04-12T15:22:49.002Z</time></trkpt><trkpt lat="42.23811474315024" lon="11.801852802963639"><ele>166.33333333333334</ele><time>2026-04-12T15:22:50.002Z</time></trkpt><trkpt lat="42.23816662235688" lon="11.802050564887304"><ele>166.66666666666666</ele><time>2026-04-12T15:22:51.002Z</time></trkpt><trkpt lat="42.23820931396286" lon="11.80224192151591"><ele>167.0</ele><time>2026-04-12T15:22:52.002Z</time></trkpt><trkpt lat="42.23830934767538" lon="11.802466832863661"><ele>166.0</ele><time>2026-04-12T15:22:53.002Z</time></trkpt><trkpt lat="42.23837741610896" lon="11.80267014133867"><ele>165.0</ele><time>2026-04-12T15:22:54.002Z</time></trkpt><trkpt lat="42.238450107612515" lon="11.802873671058475"><ele>164.0</ele><time>2026-04-12T15:22:55.002Z</time></trkpt><trkpt lat="42.238531526710105" lon="11.803070199474737"><ele>164.0</ele><time>2026-04-12T15:22:56.002Z</time></trkpt><trkpt lat="42.238615835104646" lon="11.803255774001475"><ele>164.0</ele><time>2026-04-12T15:22:57.002Z</time></trkpt><trkpt lat="42.23869860266511" lon="11.803445957446112"><ele>164.0</ele><time>2026-04-12T15:22:58.002Z</time></trkpt><trkpt lat="42.23878860170253" lon="11.803641227365771"><ele>163.33333333333331</ele><time>2026-04-12T15:22:59.002Z</time></trkpt><trkpt lat="42.23887877296867" lon="11.803834889262864"><ele>162.66666666666666</ele><time>2026-04-12T15:23:00.002Z</time></trkpt><trkpt lat="42.23896860434965" lon="11.80403393464477"><ele>162.0</ele><time>2026-04-12T15:23:01.002Z</time></trkpt><trkpt lat="42.23906168734837" lon="11.804236633868621"><ele>162.0</ele><time>2026-04-12T15:23:02.002Z</time></trkpt><trkpt lat="42.23915705566097" lon="11.80443332464089"><ele>162.0</ele><time>2026-04-12T15:23:03.002Z</time></trkpt><trkpt lat="42.23923929000924" lon="11.804620620990992"><ele>162.0</ele><time>2026-04-12T15:23:04.002Z</time></trkpt><trkpt lat="42.239323629530475" lon="11.804794786085225"><ele>162.0</ele><time>2026-04-12T15:23:05.002Z</time></trkpt><trkpt lat="42.23942289994824" lon="11.804963342375173"><ele>162.0</ele><time>2026-04-12T15:23:06.002Z</time></trkpt><trkpt lat="42.239550352470005" lon="11.805111345127347"><ele>162.0</ele><time>2026-04-12T15:23:07.002Z</time></trkpt><trkpt lat="42.23971407403591" lon="11.805211348795053"><ele>163.66666666666666</ele><time>2026-04-12T15:23:08.002Z</time></trkpt><trkpt lat="42.239875051394634" lon="11.80528121690447"><ele>165.33333333333331</ele><time>2026-04-12T15:23:09.002Z</time></trkpt><trkpt lat="42.240043624897524" lon="11.805332518202896"><ele>167.0</ele><time>2026-04-12T15:23:10.003Z</time></trkpt><trkpt lat="42.24020720953872" lon="11.805391291674852"><ele>167.0</ele><time>2026-04-12T15:23:11.003Z</time></trkpt><trkpt lat="42.24036027438475" lon="11.805482266275645"><ele>167.0</ele><time>2026-04-12T15:23:12.003Z</time></trkpt><trkpt lat="42.240512234407035" lon="11.805581985010711"><ele>167.0</ele><time>2026-04-12T15:23:13.003Z</time></trkpt><trkpt lat="42.24066403854291" lon="11.805687733694253"><ele>168.66666666666666</ele><time>2026-04-12T15:23:14.003Z</time></trkpt><trkpt lat="42.24081746936739" lon="11.805789378912579"><ele>170.33333333333334</ele><time>2026-04-12T15:23:15.003Z</time></trkpt><trkpt lat="42.240974681235144" lon="11.805895433778751"><ele>172.0</ele><time>2026-04-12T15:23:16.003Z</time></trkpt><trkpt lat="42.241142542921494" lon="11.806010418179024"><ele>172.0</ele><time>2026-04-12T15:23:17.003Z</time></trkpt><trkpt lat="42.241322672202415" lon="11.806130421221695"><ele>172.0</ele><time>2026-04-12T15:23:18.003Z</time></trkpt><trkpt lat="42.241501775351935" lon="11.806250607437068"><ele>172.0</ele><time>2026-04-12T15:23:19.003Z</time></trkpt><trkpt lat="42.241674767649954" lon="11.806370982501337"><ele>173.0</ele><time>2026-04-12T15:23:20.003Z</time></trkpt><trkpt lat="42.241851002984475" lon="11.806490210728965"><ele>174.0</ele><time>2026-04-12T15:23:21.003Z</time></trkpt><trkpt lat="42.2420245298828" lon="11.806610161712404"><ele>175.0</ele><time>2026-04-12T15:23:22.003Z</time></trkpt><trkpt lat="42.24219513619578" lon="11.806731691096086"><ele>176.33333333333334</ele><time>2026-04-12T15:23:23.003Z</time></trkpt><trkpt lat="42.24236788545452" lon="11.806851933869256"><ele>177.66666666666666</ele><time>2026-04-12T15:23:24.003Z</time></trkpt><trkpt lat="42.24253990853871" lon="11.80697095281443"><ele>179.0</ele><time>2026-04-12T15:23:25.003Z</time></trkpt><trkpt lat="42.24271167478236" lon="11.807089639270892"><ele>179.0</ele><time>2026-04-12T15:23:26.003Z</time></trkpt><trkpt lat="42.242882592313094" lon="11.807214833562815"><ele>179.0</ele><time>2026-04-12T15:23:27.003Z</time></trkpt><trkpt lat="42.243054034809376" lon="11.807340643501167"><ele>179.0</ele><time>2026-04-12T15:23:28.003Z</time></trkpt><trkpt lat="42.24323260503548" lon="11.807466283308289"><ele>179.66666666666666</ele><time>2026-04-12T15:23:29.003Z</time></trkpt><trkpt lat="42.24341613471952" lon="11.807588268308157"><ele>180.33333333333334</ele><time>2026-04-12T15:23:30.003Z</time></trkpt><trkpt lat="42.24359671109308" lon="11.80771279791196"><ele>181.0</ele><time>2026-04-12T15:23:31.003Z</time></trkpt><trkpt lat="42.24377258591796" lon="11.807838279289665"><ele>181.0</ele><time>2026-04-12T15:23:32.003Z</time></trkpt><trkpt lat="42.24394240060782" lon="11.80795903328818"><ele>181.0</ele><time>2026-04-12T15:23:33.003Z</time></trkpt><trkpt lat="42.244112233567435" lon="11.80808119191629"><ele>181.0</ele><time>2026-04-12T15:23:34.003Z</time></trkpt><trkpt lat="42.24428228854429" lon="11.808203610510875"><ele>182.0</ele><time>2026-04-12T15:23:35.003Z</time></trkpt><trkpt lat="42.24445407636802" lon="11.808322735605012"><ele>183.0</ele><time>2026-04-12T15:23:36.003Z</time></trkpt><trkpt lat="42.24462650610419" lon="11.808441124093433"><ele>184.0</ele><time>2026-04-12T15:23:37.003Z</time></trkpt><trkpt lat="42.24480438396455" lon="11.808555120124161"><ele>184.66666666666669</ele><time>2026-04-12T15:23:38.003Z</time></trkpt><trkpt lat="42.24498910355438" lon="11.808662552067972"><ele>185.33333333333334</ele><time>2026-04-12T15:23:39.003Z</time></trkpt><trkpt lat="42.24517670433641" lon="11.808758422541544"><ele>186.0</ele><time>2026-04-12T15:23:40Z</time></trkpt><trkpt lat="42.24536091228968" lon="11.808840745643765"><ele>186.0</ele><time>2026-04-12T15:23:41Z</time></trkpt><trkpt lat="42.245540643133204" lon="11.808917013786273"><ele>186.0</ele><time>2026-04-12T15:23:42Z</time></trkpt><trkpt lat="42.245716222768486" lon="11.808994092681587"><ele>186.0</ele><time>2026-04-12T15:23:43Z</time></trkpt><trkpt lat="42.245888315555504" lon="11.809072040357046"><ele>184.33333333333334</ele><time>2026-04-12T15:23:44Z</time></trkpt><trkpt lat="42.24606491007011" lon="11.809150213166864"><ele>182.66666666666669</ele><time>2026-04-12T15:23:45Z</time></trkpt><trkpt lat="42.246247297271964" lon="11.80922487838164"><ele>181.0</ele><time>2026-04-12T15:23:46Z</time></trkpt><trkpt lat="42.246435949334625" lon="11.809299617622266"><ele>180.66666666666669</ele><time>2026-04-12T15:23:47Z</time></trkpt><trkpt lat="42.246625966912404" lon="11.809375625448352"><ele>180.33333333333334</ele><time>2026-04-12T15:23:48Z</time></trkpt><trkpt lat="42.24681522492689" lon="11.80945964856238"><ele>180.0</ele><time>2026-04-12T15:23:49Z</time></trkpt><trkpt lat="42.2470005911557" lon="11.809540426742206"><ele>180.0</ele><time>2026-04-12T15:23:50Z</time></trkpt><trkpt lat="42.247187176624394" lon="11.809617017999763"><ele>180.0</ele><time>2026-04-12T15:23:51Z</time></trkpt><trkpt lat="42.247370891143454" lon="11.809693598513999"><ele>180.0</ele><time>2026-04-12T15:23:52Z</time></trkpt><trkpt lat="42.24755576680972" lon="11.809772194456778"><ele>177.66666666666666</ele><time>2026-04-12T15:23:53Z</time></trkpt><trkpt lat="42.247737150854896" lon="11.809849312832899"><ele>175.33333333333331</ele><time>2026-04-12T15:23:54Z</time></trkpt><trkpt lat="42.24792132253013" lon="11.809929739223097"><ele>173.0</ele><time>2026-04-12T15:23:55Z</time></trkpt><trkpt lat="42.2481108228824" lon="11.810015777901622"><ele>171.66666666666666</ele><time>2026-04-12T15:23:56Z</time></trkpt><trkpt lat="42.248303868366136" lon="11.810102165780258"><ele>170.33333333333334</ele><time>2026-04-12T15:23:57Z</time></trkpt><trkpt lat="42.24850194746818" lon="11.810190223197942"><ele>169.0</ele><time>2026-04-12T15:23:58Z</time></trkpt><trkpt lat="42.24869677196312" lon="11.810273865475713"><ele>169.0</ele><time>2026-04-12T15:23:59Z</time></trkpt><trkpt lat="42.24889640327905" lon="11.810357439755457"><ele>169.0</ele><time>2026-04-12T15:24:00Z</time></trkpt><trkpt lat="42.24909379900828" lon="11.810441908761678"><ele>169.0</ele><time>2026-04-12T15:24:01Z</time></trkpt><trkpt lat="42.24928967526942" lon="11.810528031106287"><ele>167.66666666666669</ele><time>2026-04-12T15:24:02Z</time></trkpt><trkpt lat="42.24948180345065" lon="11.810614883372418"><ele>166.33333333333334</ele><time>2026-04-12T15:24:03Z</time></trkpt><trkpt lat="42.24967522886348" lon="11.810706392173534"><ele>165.0</ele><time>2026-04-12T15:24:04Z</time></trkpt><trkpt lat="42.24986704970484" lon="11.810799158017597"><ele>165.0</ele><time>2026-04-12T15:24:05Z</time></trkpt><trkpt lat="42.25005635931502" lon="11.81089654800183"><ele>165.0</ele><time>2026-04-12T15:24:06Z</time></trkpt><trkpt lat="42.25024525905146" lon="11.811000602870138"><ele>165.0</ele><time>2026-04-12T15:24:07Z</time></trkpt><trkpt lat="42.250430702275764" lon="11.811116650447163"><ele>165.33333333333334</ele><time>2026-04-12T15:24:08Z</time></trkpt><trkpt lat="42.250613524984175" lon="11.811249331525541"><ele>165.66666666666669</ele><time>2026-04-12T15:24:09Z</time></trkpt><trkpt lat="42.25080089019369" lon="11.811395224002244"><ele>166.0</ele><time>2026-04-12T15:24:10Z</time></trkpt><trkpt lat="42.250982897852296" lon="11.811540249877451"><ele>166.33333333333334</ele><time>2026-04-12T15:24:11.001Z</time></trkpt><trkpt lat="42.25116749414136" lon="11.81168861604357"><ele>166.66666666666666</ele><time>2026-04-12T15:24:12.001Z</time></trkpt><trkpt lat="42.2513516825946" lon="11.811840804139129"><ele>167.0</ele><time>2026-04-12T15:24:13.001Z</time></trkpt><trkpt lat="42.25153194407702" lon="11.811987698443646"><ele>165.33333333333331</ele><time>2026-04-12T15:24:14.001Z</time></trkpt><trkpt lat="42.25171674582904" lon="11.812132365041622"><ele>163.66666666666666</ele><time>2026-04-12T15:24:15.001Z</time></trkpt><trkpt lat="42.25189323454953" lon="11.812277872547726"><ele>162.0</ele><time>2026-04-12T15:24:16.001Z</time></trkpt><trkpt lat="42.252066299804525" lon="11.8124274241406"><ele>162.0</ele><time>2026-04-12T15:24:17.001Z</time></trkpt><trkpt lat="42.25222883547979" lon="11.812581847756547"><ele>162.0</ele><time>2026-04-12T15:24:18.001Z</time></trkpt><trkpt lat="42.2523831353104" lon="11.812752196706672"><ele>162.0</ele><time>2026-04-12T15:24:19.001Z</time></trkpt><trkpt lat="42.252529596279324" lon="11.812933237171766"><ele>161.0</ele><time>2026-04-12T15:24:20.001Z</time></trkpt><trkpt lat="42.252678425261635" lon="11.813129547119644"><ele>160.0</ele><time>2026-04-12T15:24:21.001Z</time></trkpt><trkpt lat="42.25282591848782" lon="11.813320410803627"><ele>159.0</ele><time>2026-04-12T15:24:22.001Z</time></trkpt><trkpt lat="42.25297468341505" lon="11.813511511753532"><ele>158.0</ele><time>2026-04-12T15:24:23.001Z</time></trkpt><trkpt lat="42.25312270563932" lon="11.813700941039277"><ele>157.0</ele><time>2026-04-12T15:24:24.001Z</time></trkpt><trkpt lat="42.25327236793466" lon="11.813890861237404"><ele>156.0</ele><time>2026-04-12T15:24:25.001Z</time></trkpt><trkpt lat="42.253422400183446" lon="11.81408009908819"><ele>156.0</ele><time>2026-04-12T15:24:26.001Z</time></trkpt><trkpt lat="42.25356690378753" lon="11.814271462036146"><ele>156.0</ele><time>2026-04-12T15:24:27.001Z</time></trkpt><trkpt lat="42.25371073372548" lon="11.81446004649248"><ele>156.0</ele><time>2026-04-12T15:24:28.001Z</time></trkpt><trkpt lat="42.25385386238413" lon="11.814641299191418"><ele>155.66666666666666</ele><time>2026-04-12T15:24:29.001Z</time></trkpt><trkpt lat="42.253995144658866" lon="11.814824592212876"><ele>155.33333333333331</ele><time>2026-04-12T15:24:30.001Z</time></trkpt><trkpt lat="42.254137826238086" lon="11.815011048601963"><ele>155.0</ele><time>2026-04-12T15:24:31.001Z</time></trkpt><trkpt lat="42.25428219715493" lon="11.815198852099314"><ele>155.0</ele><time>2026-04-12T15:24:32.001Z</time></trkpt><trkpt lat="42.254428680534076" lon="11.815383976685862"><ele>155.0</ele><time>2026-04-12T15:24:33.001Z</time></trkpt><trkpt lat="42.25457972462707" lon="11.815577046710738"><ele>155.0</ele><time>2026-04-12T15:24:34.001Z</time></trkpt><trkpt lat="42.25473136928466" lon="11.815769929945587"><ele>155.5</ele><time>2026-04-12T15:24:35.001Z</time></trkpt><trkpt lat="42.25489189815763" lon="11.815973654865994"><ele>156.0</ele><time>2026-04-12T15:24:36.001Z</time></trkpt><trkpt lat="42.25506151450801" lon="11.816187919571146"><ele>156.0</ele><time>2026-04-12T15:24:37.001Z</time></trkpt><trkpt lat="42.25523050368307" lon="11.816400481064983"><ele>156.0</ele><time>2026-04-12T15:24:38.001Z</time></trkpt><trkpt lat="42.25541255558383" lon="11.816612879677567"><ele>156.0</ele><time>2026-04-12T15:24:39.001Z</time></trkpt><trkpt lat="42.25559649638223" lon="11.816814473104252"><ele>156.0</ele><time>2026-04-12T15:24:40.001Z</time></trkpt><trkpt lat="42.255780110470276" lon="11.817017876937635"><ele>158.5</ele><time>2026-04-12T15:24:41.001Z</time></trkpt><trkpt lat="42.25595529893018" lon="11.81723069978728"><ele>161.0</ele><time>2026-04-12T15:24:42.002Z</time></trkpt><trkpt lat="42.25613095311992" lon="11.817453372604742"><ele>162.0</ele><time>2026-04-12T15:24:43.002Z</time></trkpt><trkpt lat="42.25630567133744" lon="11.817680661791178"><ele>163.0</ele><time>2026-04-12T15:24:44.002Z</time></trkpt><trkpt lat="42.25647586286769" lon="11.817898231076517"><ele>165.5</ele><time>2026-04-12T15:24:45.002Z</time></trkpt><trkpt lat="42.256646097414766" lon="11.818111149535632"><ele>168.0</ele><time>2026-04-12T15:24:46.002Z</time></trkpt><trkpt lat="42.256809091944945" lon="11.81831524446327"><ele>168.33333333333334</ele><time>2026-04-12T15:24:47.002Z</time></trkpt><trkpt lat="42.25698482821485" lon="11.818494443733014"><ele>168.66666666666669</ele><time>2026-04-12T15:24:48.002Z</time></trkpt><trkpt lat="42.257178258953154" lon="11.818640608538601"><ele>169.0</ele><time>2026-04-12T15:24:49.002Z</time></trkpt><trkpt lat="42.25737667798822" lon="11.81876647600055"><ele>171.0</ele><time>2026-04-12T15:24:50.002Z</time></trkpt><trkpt lat="42.257572717333716" lon="11.818904689239465"><ele>173.0</ele><time>2026-04-12T15:24:51.002Z</time></trkpt><trkpt lat="42.25776966507651" lon="11.819054700417754"><ele>175.0</ele><time>2026-04-12T15:24:52.002Z</time></trkpt><trkpt lat="42.25794777341012" lon="11.819244079454547"><ele>177.0</ele><time>2026-04-12T15:24:53.002Z</time></trkpt><trkpt lat="42.25812950673145" lon="11.819418736950245"><ele>179.0</ele><time>2026-04-12T15:24:54.002Z</time></trkpt><trkpt lat="42.25829528914283" lon="11.819624152876196"><ele>181.0</ele><time>2026-04-12T15:24:55.002Z</time></trkpt><trkpt lat="42.25846187947349" lon="11.819836451340507"><ele>181.0</ele><time>2026-04-12T15:24:56.002Z</time></trkpt><trkpt lat="42.25862508345322" lon="11.820036804669122"><ele>181.0</ele><time>2026-04-12T15:24:57.002Z</time></trkpt><trkpt lat="42.25878629320492" lon="11.820240195223004"><ele>181.0</ele><time>2026-04-12T15:24:58.002Z</time></trkpt><trkpt lat="42.25894053002658" lon="11.820435438365124"><ele>183.66666666666669</ele><time>2026-04-12T15:24:59.002Z</time></trkpt><trkpt lat="42.25909065026634" lon="11.820621476907961"><ele>186.33333333333334</ele><time>2026-04-12T15:25:00.002Z</time></trkpt><trkpt lat="42.25923668706523" lon="11.820797730105157"><ele>189.0</ele><time>2026-04-12T15:25:01.002Z</time></trkpt><trkpt lat="42.259370714997445" lon="11.820959125685736"><ele>191.33333333333331</ele><time>2026-04-12T15:25:02.002Z</time></trkpt><trkpt lat="42.259492207749275" lon="11.821104092590224"><ele>193.66666666666666</ele><time>2026-04-12T15:25:03.002Z</time></trkpt><trkpt lat="42.259613327944614" lon="11.821244576029594"><ele>196.0</ele><time>2026-04-12T15:25:04.002Z</time></trkpt><trkpt lat="42.25974320719839" lon="11.821390411337736"><ele>197.75</ele><time>2026-04-12T15:25:05.002Z</time></trkpt><trkpt lat="42.259856755661524" lon="11.821521548757305"><ele>199.5</ele><time>2026-04-12T15:25:06.002Z</time></trkpt><trkpt lat="42.25994926681006" lon="11.821638792171703"><ele>201.25</ele><time>2026-04-12T15:25:07.002Z</time></trkpt><trkpt lat="42.26000773390946" lon="11.821762844248727"><ele>203.0</ele><time>2026-04-12T15:25:08.002Z</time></trkpt><trkpt lat="42.260063434836056" lon="11.821868733712686"><ele>203.5</ele><time>2026-04-12T15:25:09.002Z</time></trkpt><trkpt lat="42.26006657886756" lon="11.82200420864956"><ele>204.0</ele><time>2026-04-12T15:25:10.002Z</time></trkpt><trkpt lat="42.26001478618701" lon="11.82214892486846"><ele>204.5</ele><time>2026-04-12T15:25:11.002Z</time></trkpt><trkpt lat="42.25998367278393" lon="11.822308713714296"><ele>205.0</ele><time>2026-04-12T15:25:12.002Z</time></trkpt><trkpt lat="42.259941182789966" lon="11.822458385178491"><ele>205.0</ele><time>2026-04-12T15:25:13.002Z</time></trkpt><trkpt lat="42.25990079769056" lon="11.822608674086641"><ele>205.0</ele><time>2026-04-12T15:25:14.002Z</time></trkpt><trkpt lat="42.25986309621086" lon="11.822753753507264"><ele>205.0</ele><time>2026-04-12T15:25:15.003Z</time></trkpt><trkpt lat="42.25982900699589" lon="11.822894794319026"><ele>205.0</ele><time>2026-04-12T15:25:16.003Z</time></trkpt><trkpt lat="42.25979576295741" lon="11.82303335392233"><ele>206.75</ele><time>2026-04-12T15:25:17.003Z</time></trkpt><trkpt lat="42.259762897348125" lon="11.823173292955838"><ele>208.5</ele><time>2026-04-12T15:25:18.003Z</time></trkpt><trkpt lat="42.25972627409258" lon="11.823317531893524"><ele>210.25</ele><time>2026-04-12T15:25:19.003Z</time></trkpt><trkpt lat="42.259687955716416" lon="11.823467617885647"><ele>212.0</ele><time>2026-04-12T15:25:20.003Z</time></trkpt><trkpt lat="42.25964654883224" lon="11.823625571229774"><ele>213.0</ele><time>2026-04-12T15:25:21.003Z</time></trkpt><trkpt lat="42.25961663996961" lon="11.823797231768209"><ele>214.0</ele><time>2026-04-12T15:25:22.003Z</time></trkpt><trkpt lat="42.25959363992203" lon="11.82397758817851"><ele>215.0</ele><time>2026-04-12T15:25:23.003Z</time></trkpt><trkpt lat="42.25960084725523" lon="11.824183822466953"><ele>216.0</ele><time>2026-04-12T15:25:24.003Z</time></trkpt><trkpt lat="42.259642648816964" lon="11.824380356675535"><ele>216.25</ele><time>2026-04-12T15:25:25.003Z</time></trkpt><trkpt lat="42.25969725068664" lon="11.824551834333038"><ele>216.5</ele><time>2026-04-12T15:25:26.003Z</time></trkpt><trkpt lat="42.259748918721996" lon="11.824721948247175"><ele>216.75</ele><time>2026-04-12T15:25:27.003Z</time></trkpt><trkpt lat="42.25980317269902" lon="11.824897797630932"><ele>217.0</ele><time>2026-04-12T15:25:28.003Z</time></trkpt><trkpt lat="42.25985997862004" lon="11.825061438404118"><ele>217.75</ele><time>2026-04-12T15:25:29.003Z</time></trkpt><trkpt lat="42.259917519193515" lon="11.825224394854041"><ele>218.5</ele><time>2026-04-12T15:25:30.003Z</time></trkpt><trkpt lat="42.25997804046212" lon="11.825391207764321"><ele>219.25</ele><time>2026-04-12T15:25:31.003Z</time></trkpt><trkpt lat="42.26004575310208" lon="11.825557156449097"><ele>220.0</ele><time>2026-04-12T15:25:32.003Z</time></trkpt><trkpt lat="42.26011714337251" lon="11.825719371007578"><ele>220.0</ele><time>2026-04-12T15:25:33.003Z</time></trkpt><trkpt lat="42.260192458085506" lon="11.825880495108002"><ele>220.0</ele><time>2026-04-12T15:25:34.003Z</time></trkpt><trkpt lat="42.260258379046896" lon="11.82605234123652"><ele>220.0</ele><time>2026-04-12T15:25:35.003Z</time></trkpt><trkpt lat="42.26030212151267" lon="11.826244173039015"><ele>220.0</ele><time>2026-04-12T15:25:36.003Z</time></trkpt><trkpt lat="42.260331849399975" lon="11.826461933277093"><ele>220.33333333333331</ele><time>2026-04-12T15:25:37.003Z</time></trkpt><trkpt lat="42.26034687964275" lon="11.82668524904486"><ele>220.66666666666669</ele><time>2026-04-12T15:25:38.003Z</time></trkpt><trkpt lat="42.26034926867877" lon="11.826899509246472"><ele>221.0</ele><time>2026-04-12T15:25:39.003Z</time></trkpt><trkpt lat="42.2603449529634" lon="11.827100524358569"><ele>220.0</ele><time>2026-04-12T15:25:40.003Z</time></trkpt><trkpt lat="42.2603370739229" lon="11.827304762614144"><ele>219.0</ele><time>2026-04-12T15:25:41.003Z</time></trkpt><trkpt lat="42.26032909213882" lon="11.827519133870682"><ele>218.0</ele><time>2026-04-12T15:25:42.003Z</time></trkpt><trkpt lat="42.26032035782949" lon="11.827740940146478"><ele>217.33333333333334</ele><time>2026-04-12T15:25:43.003Z</time></trkpt><trkpt lat="42.26030866297483" lon="11.82796165172517"><ele>216.66666666666669</ele><time>2026-04-12T15:25:44.003Z</time></trkpt><trkpt lat="42.260297039209355" lon="11.828172977761783"><ele>216.0</ele><time>2026-04-12T15:25:45.003Z</time></trkpt><trkpt lat="42.260279061275845" lon="11.828378533736181"><ele>216.0</ele><time>2026-04-12T15:25:46.001Z</time></trkpt><trkpt lat="42.2602656862664" lon="11.828592031455528"><ele>216.0</ele><time>2026-04-12T15:25:47.001Z</time></trkpt><trkpt lat="42.26025433649683" lon="11.82880921033933"><ele>216.0</ele><time>2026-04-12T15:25:48.001Z</time></trkpt><trkpt lat="42.260245051275234" lon="11.829033747770927"><ele>216.0</ele><time>2026-04-12T15:25:49.001Z</time></trkpt><trkpt lat="42.260232810174784" lon="11.829262246899274"><ele>216.0</ele><time>2026-04-12T15:25:50.001Z</time></trkpt><trkpt lat="42.26021935593579" lon="11.829481945467473"><ele>216.0</ele><time>2026-04-12T15:25:51.001Z</time></trkpt><trkpt lat="42.26020736799389" lon="11.829687080907965"><ele>216.0</ele><time>2026-04-12T15:25:52Z</time></trkpt><trkpt lat="42.26019619796179" lon="11.829877084390079"><ele>216.0</ele><time>2026-04-12T15:25:53Z</time></trkpt><trkpt lat="42.26017636166655" lon="11.830071664441562"><ele>216.0</ele><time>2026-04-12T15:25:54Z</time></trkpt><trkpt lat="42.2601453548259" lon="11.830260984948614"><ele>216.0</ele><time>2026-04-12T15:25:55Z</time></trkpt><trkpt lat="42.26010677085382" lon="11.830448355582263"><ele>216.25</ele><time>2026-04-12T15:25:56Z</time></trkpt><trkpt lat="42.26006633242299" lon="11.830635873200253"><ele>216.5</ele><time>2026-04-12T15:25:57Z</time></trkpt><trkpt lat="42.2600298924913" lon="11.83083233339684"><ele>216.75</ele><time>2026-04-12T15:25:58Z</time></trkpt><trkpt lat="42.2599921900018" lon="11.83102786487384"><ele>217.0</ele><time>2026-04-12T15:25:59Z</time></trkpt><trkpt lat="42.25995035196789" lon="11.831230021750306"><ele>217.0</ele><time>2026-04-12T15:26:00Z</time></trkpt><trkpt lat="42.25990723792675" lon="11.83143164426484"><ele>217.0</ele><time>2026-04-12T15:26:01Z</time></trkpt><trkpt lat="42.25986581109959" lon="11.831634118912776"><ele>217.0</ele><time>2026-04-12T15:26:02Z</time></trkpt><trkpt lat="42.25982594359113" lon="11.831841818838253"><ele>216.66666666666666</ele><time>2026-04-12T15:26:03Z</time></trkpt><trkpt lat="42.259788873116236" lon="11.83206589072678"><ele>216.33333333333331</ele><time>2026-04-12T15:26:04Z</time></trkpt><trkpt lat="42.259748673540535" lon="11.832298952347921"><ele>216.0</ele><time>2026-04-12T15:26:05Z</time></trkpt><trkpt lat="42.25971631529656" lon="11.832548705487113"><ele>215.0</ele><time>2026-04-12T15:26:06Z</time></trkpt><trkpt lat="42.25968741623369" lon="11.832806574442316"><ele>214.0</ele><time>2026-04-12T15:26:07Z</time></trkpt><trkpt lat="42.25967414489055" lon="11.8330904958482"><ele>213.0</ele><time>2026-04-12T15:26:08Z</time></trkpt><trkpt lat="42.25965261328669" lon="11.833348705505655"><ele>211.66666666666669</ele><time>2026-04-12T15:26:09Z</time></trkpt><trkpt lat="42.25963370740653" lon="11.83361206166409"><ele>210.33333333333334</ele><time>2026-04-12T15:26:10Z</time></trkpt><trkpt lat="42.25960868269516" lon="11.833872713240165"><ele>209.0</ele><time>2026-04-12T15:26:11Z</time></trkpt><trkpt lat="42.25961175682127" lon="11.83414325204958"><ele>208.0</ele><time>2026-04-12T15:26:12Z</time></trkpt><trkpt lat="42.259616887059686" lon="11.834431234990426"><ele>207.0</ele><time>2026-04-12T15:26:13Z</time></trkpt><trkpt lat="42.25963745903558" lon="11.834699873083325"><ele>206.0</ele><time>2026-04-12T15:26:14.001Z</time></trkpt><trkpt lat="42.25964461070751" lon="11.834947257963263"><ele>205.0</ele><time>2026-04-12T15:26:15.001Z</time></trkpt><trkpt lat="42.25965964703405" lon="11.835215572616749"><ele>204.0</ele><time>2026-04-12T15:26:16.001Z</time></trkpt><trkpt lat="42.25966994976466" lon="11.835485972911364"><ele>203.0</ele><time>2026-04-12T15:26:17.001Z</time></trkpt><trkpt lat="42.25969735147168" lon="11.835755951809025"><ele>202.0</ele><time>2026-04-12T15:26:18.001Z</time></trkpt><trkpt lat="42.25975319491097" lon="11.836028089007444"><ele>201.0</ele><time>2026-04-12T15:26:19.001Z</time></trkpt><trkpt lat="42.25979345350261" lon="11.83628572464303"><ele>200.0</ele><time>2026-04-12T15:26:20.001Z</time></trkpt><trkpt lat="42.259838377086474" lon="11.836555473371067"><ele>198.66666666666669</ele><time>2026-04-12T15:26:21.001Z</time></trkpt><trkpt lat="42.259886344997824" lon="11.836823377747928"><ele>197.33333333333331</ele><time>2026-04-12T15:26:22.001Z</time></trkpt><trkpt lat="42.25995297830572" lon="11.837090438974005"><ele>196.0</ele><time>2026-04-12T15:26:23.001Z</time></trkpt><trkpt lat="42.26005165690942" lon="11.837335974510165"><ele>196.0</ele><time>2026-04-12T15:26:24.001Z</time></trkpt><trkpt lat="42.2601744370706" lon="11.837564855600487"><ele>196.0</ele><time>2026-04-12T15:26:25.001Z</time></trkpt><trkpt lat="42.260307864308125" lon="11.83780161892118"><ele>196.0</ele><time>2026-04-12T15:26:26.001Z</time></trkpt><trkpt lat="42.260416452199884" lon="11.838050324073372"><ele>195.33333333333331</ele><time>2026-04-12T15:26:27.001Z</time></trkpt><trkpt lat="42.260521284440074" lon="11.838285914689708"><ele>194.66666666666669</ele><time>2026-04-12T15:26:28.001Z</time></trkpt><trkpt lat="42.26061700338708" lon="11.838522776447236"><ele>194.0</ele><time>2026-04-12T15:26:29.001Z</time></trkpt><trkpt lat="42.260705862641885" lon="11.838761565665989"><ele>192.0</ele><time>2026-04-12T15:26:30.001Z</time></trkpt><trkpt lat="42.260786731720046" lon="11.839002764186715"><ele>190.0</ele><time>2026-04-12T15:26:31.001Z</time></trkpt><trkpt lat="42.260853397512705" lon="11.839254898273815"><ele>188.0</ele><time>2026-04-12T15:26:32.001Z</time></trkpt><trkpt lat="42.26091377857117" lon="11.839511033487252"><ele>187.33333333333331</ele><time>2026-04-12T15:26:33.001Z</time></trkpt><trkpt lat="42.26098053232943" lon="11.839762646961542"><ele>186.66666666666666</ele><time>2026-04-12T15:26:34.001Z</time></trkpt><trkpt lat="42.2610231494997" lon="11.840010370396923"><ele>186.0</ele><time>2026-04-12T15:26:35.001Z</time></trkpt><trkpt lat="42.261079049391306" lon="11.840258369531535"><ele>185.66666666666666</ele><time>2026-04-12T15:26:36.001Z</time></trkpt><trkpt lat="42.261135197700554" lon="11.840513261870768"><ele>185.33333333333331</ele><time>2026-04-12T15:26:37.001Z</time></trkpt><trkpt lat="42.261192193732334" lon="11.840766409683619"><ele>185.0</ele><time>2026-04-12T15:26:38.001Z</time></trkpt><trkpt lat="42.261230050142025" lon="11.841031918717453"><ele>183.33333333333331</ele><time>2026-04-12T15:26:39.001Z</time></trkpt><trkpt lat="42.26127104800337" lon="11.841293895118643"><ele>181.66666666666666</ele><time>2026-04-12T15:26:40.001Z</time></trkpt><trkpt lat="42.26130874242915" lon="11.841558607225569"><ele>180.0</ele><time>2026-04-12T15:26:41.001Z</time></trkpt><trkpt lat="42.26135993725164" lon="11.841811668090871"><ele>179.0</ele><time>2026-04-12T15:26:42.001Z</time></trkpt><trkpt lat="42.26138607188724" lon="11.84206559182017"><ele>178.0</ele><time>2026-04-12T15:26:43.001Z</time></trkpt><trkpt lat="42.261424294343016" lon="11.842312002143842"><ele>177.0</ele><time>2026-04-12T15:26:44.001Z</time></trkpt><trkpt lat="42.261456404984955" lon="11.842566978757374"><ele>175.0</ele><time>2026-04-12T15:26:45.001Z</time></trkpt><trkpt lat="42.26149792712733" lon="11.84282074908816"><ele>173.0</ele><time>2026-04-12T15:26:46.001Z</time></trkpt><trkpt lat="42.26153461040561" lon="11.843070652283085"><ele>171.0</ele><time>2026-04-12T15:26:47.001Z</time></trkpt><trkpt lat="42.261572305407256" lon="11.84332093687107"><ele>169.33333333333334</ele><time>2026-04-12T15:26:48.001Z</time></trkpt><trkpt lat="42.26160820177056" lon="11.843567791957348"><ele>167.66666666666669</ele><time>2026-04-12T15:26:49.001Z</time></trkpt><trkpt lat="42.2616494708769" lon="11.843805226515816"><ele>166.0</ele><time>2026-04-12T15:26:50.001Z</time></trkpt><trkpt lat="42.26169531594801" lon="11.844051543385984"><ele>166.0</ele><time>2026-04-12T15:26:51.001Z</time></trkpt><trkpt lat="42.261718325493064" lon="11.844296005826225"><ele>166.0</ele><time>2026-04-12T15:26:52.001Z</time></trkpt><trkpt lat="42.2617397310803" lon="11.84455243507874"><ele>166.0</ele><time>2026-04-12T15:26:53.001Z</time></trkpt><trkpt lat="42.261727923182264" lon="11.844808347859365"><ele>164.33333333333334</ele><time>2026-04-12T15:26:54.001Z</time></trkpt><trkpt lat="42.26170365708314" lon="11.845057776738944"><ele>162.66666666666666</ele><time>2026-04-12T15:26:55.001Z</time></trkpt><trkpt lat="42.2616770677218" lon="11.845311687634487"><ele>161.0</ele><time>2026-04-12T15:26:56.001Z</time></trkpt><trkpt lat="42.26164019020925" lon="11.845566950830818"><ele>159.66666666666666</ele><time>2026-04-12T15:26:57.002Z</time></trkpt><trkpt lat="42.26162168635807" lon="11.845831329452265"><ele>158.33333333333334</ele><time>2026-04-12T15:26:58.002Z</time></trkpt><trkpt lat="42.26162647106588" lon="11.84609441680828"><ele>157.0</ele><time>2026-04-12T15:26:59.002Z</time></trkpt><trkpt lat="42.26164775450914" lon="11.84636118989786"><ele>156.0</ele><time>2026-04-12T15:27:00.002Z</time></trkpt><trkpt lat="42.26167065915732" lon="11.84662721134117"><ele>155.0</ele><time>2026-04-12T15:27:01.002Z</time></trkpt><trkpt lat="42.26167834208668" lon="11.846886474048883"><ele>154.0</ele><time>2026-04-12T15:27:02.002Z</time></trkpt><trkpt lat="42.261686243087524" lon="11.84714693647469"><ele>153.33333333333334</ele><time>2026-04-12T15:27:03.002Z</time></trkpt><trkpt lat="42.261691199831645" lon="11.847409839776393"><ele>152.66666666666666</ele><time>2026-04-12T15:27:04.002Z</time></trkpt><trkpt lat="42.261700341162026" lon="11.847669684590198"><ele>152.0</ele><time>2026-04-12T15:27:05.002Z</time></trkpt><trkpt lat="42.261717350218305" lon="11.847927512659366"><ele>152.0</ele><time>2026-04-12T15:27:06.002Z</time></trkpt><trkpt lat="42.26175801434166" lon="11.84818319131412"><ele>152.0</ele><time>2026-04-12T15:27:07.002Z</time></trkpt><trkpt lat="42.26181620287596" lon="11.848432284921984"><ele>152.0</ele><time>2026-04-12T15:27:08.002Z</time></trkpt><trkpt lat="42.261877742313544" lon="11.84867582857284"><ele>152.33333333333331</ele><time>2026-04-12T15:27:09.002Z</time></trkpt><trkpt lat="42.26194681874498" lon="11.848919812121842"><ele>152.66666666666666</ele><time>2026-04-12T15:27:10.002Z</time></trkpt><trkpt lat="42.26201778780399" lon="11.849161012375072"><ele>153.0</ele><time>2026-04-12T15:27:11.002Z</time></trkpt><trkpt lat="42.262092398467665" lon="11.849403903435915"><ele>153.0</ele><time>2026-04-12T15:27:12.002Z</time></trkpt><trkpt lat="42.26217246301918" lon="11.849637058882031"><ele>153.0</ele><time>2026-04-12T15:27:13.002Z</time></trkpt><trkpt lat="42.26225703656526" lon="11.849860989008182"><ele>153.0</ele><time>2026-04-12T15:27:14.002Z</time></trkpt><trkpt lat="42.26233820585916" lon="11.850077881423504"><ele>150.33333333333334</ele><time>2026-04-12T15:27:15.002Z</time></trkpt><trkpt lat="42.26240472762154" lon="11.850293744999892"><ele>147.66666666666669</ele><time>2026-04-12T15:27:16.002Z</time></trkpt><trkpt lat="42.262457599370585" lon="11.850509673849073"><ele>145.0</ele><time>2026-04-12T15:27:17.002Z</time></trkpt><trkpt lat="42.26248480104265" lon="11.850736871776046"><ele>145.0</ele><time>2026-04-12T15:27:18.002Z</time></trkpt><trkpt lat="42.262528575642335" lon="11.850957562457861"><ele>145.0</ele><time>2026-04-12T15:27:19.002Z</time></trkpt><trkpt lat="42.262550273103436" lon="11.851188416859264"><ele>145.0</ele><time>2026-04-12T15:27:20.002Z</time></trkpt><trkpt lat="42.26257434480248" lon="11.851423964407843"><ele>143.66666666666669</ele><time>2026-04-12T15:27:21.002Z</time></trkpt><trkpt lat="42.262588556911496" lon="11.851659878937088"><ele>142.33333333333334</ele><time>2026-04-12T15:27:22.002Z</time></trkpt><trkpt lat="42.26260576300194" lon="11.851883083727168"><ele>141.0</ele><time>2026-04-12T15:27:23.002Z</time></trkpt><trkpt lat="42.26262796853056" lon="11.85209667339212"><ele>141.0</ele><time>2026-04-12T15:27:24.002Z</time></trkpt><trkpt lat="42.26264751895755" lon="11.852300081888961"><ele>141.0</ele><time>2026-04-12T15:27:25.002Z</time></trkpt><trkpt lat="42.26265537429021" lon="11.852510782372635"><ele>141.0</ele><time>2026-04-12T15:27:26.002Z</time></trkpt><trkpt lat="42.26260070714327" lon="11.852720966080106"><ele>142.0</ele><time>2026-04-12T15:27:27.002Z</time></trkpt><trkpt lat="42.2625255563817" lon="11.852928749830228"><ele>143.0</ele><time>2026-04-12T15:27:28.002Z</time></trkpt><trkpt lat="42.26244169141105" lon="11.853147491583686"><ele>144.0</ele><time>2026-04-12T15:27:29.002Z</time></trkpt><trkpt lat="42.262354081027844" lon="11.853341323028683"><ele>144.33333333333334</ele><time>2026-04-12T15:27:30.002Z</time></trkpt><trkpt lat="42.26228595795902" lon="11.853550851762513"><ele>144.66666666666669</ele><time>2026-04-12T15:27:31.002Z</time></trkpt><trkpt lat="42.26223361577028" lon="11.853754210432296"><ele>145.0</ele><time>2026-04-12T15:27:32.002Z</time></trkpt><trkpt lat="42.26220032698107" lon="11.853962453215269"><ele>145.0</ele><time>2026-04-12T15:27:33.002Z</time></trkpt><trkpt lat="42.26219828558903" lon="11.854178954185958"><ele>145.0</ele><time>2026-04-12T15:27:34.002Z</time></trkpt><trkpt lat="42.26221888797368" lon="11.85438907726259"><ele>145.0</ele><time>2026-04-12T15:27:35.002Z</time></trkpt><trkpt lat="42.262234883890976" lon="11.85460155868273"><ele>145.33333333333334</ele><time>2026-04-12T15:27:36.002Z</time></trkpt><trkpt lat="42.262250053311234" lon="11.854810138233578"><ele>145.66666666666666</ele><time>2026-04-12T15:27:37.003Z</time></trkpt><trkpt lat="42.262263087913524" lon="11.855032229001402"><ele>146.0</ele><time>2026-04-12T15:27:38.003Z</time></trkpt><trkpt lat="42.26227872639062" lon="11.855257506168693"><ele>147.33333333333331</ele><time>2026-04-12T15:27:39.003Z</time></trkpt><trkpt lat="42.26229546843012" lon="11.855472114128588"><ele>148.66666666666666</ele><time>2026-04-12T15:27:40.003Z</time></trkpt><trkpt lat="42.26231429951395" lon="11.855696376552853"><ele>150.0</ele><time>2026-04-12T15:27:41.003Z</time></trkpt><trkpt lat="42.2623295229916" lon="11.855923578048415"><ele>151.0</ele><time>2026-04-12T15:27:42.003Z</time></trkpt><trkpt lat="42.26234604966532" lon="11.856161568149133"><ele>152.0</ele><time>2026-04-12T15:27:43.003Z</time></trkpt><trkpt lat="42.262363090931494" lon="11.856387075569579"><ele>153.0</ele><time>2026-04-12T15:27:44.003Z</time></trkpt><trkpt lat="42.26238048672848" lon="11.856609573618561"><ele>152.0</ele><time>2026-04-12T15:27:45.003Z</time></trkpt><trkpt lat="42.2623999085903" lon="11.8568255591397"><ele>151.0</ele><time>2026-04-12T15:27:46.003Z</time></trkpt><trkpt lat="42.26243669024502" lon="11.857051201398262"><ele>150.0</ele><time>2026-04-12T15:27:47.003Z</time></trkpt><trkpt lat="42.26247923926673" lon="11.857287642005296"><ele>150.0</ele><time>2026-04-12T15:27:48.003Z</time></trkpt><trkpt lat="42.262530157674156" lon="11.857518011396424"><ele>150.0</ele><time>2026-04-12T15:27:49.003Z</time></trkpt><trkpt lat="42.26258406186127" lon="11.857756134308794"><ele>150.0</ele><time>2026-04-12T15:27:50.003Z</time></trkpt><trkpt lat="42.26263744977974" lon="11.85799558229552"><ele>149.33333333333334</ele><time>2026-04-12T15:27:51.003Z</time></trkpt><trkpt lat="42.26268630853478" lon="11.858244849106178"><ele>148.66666666666669</ele><time>2026-04-12T15:27:52.001Z</time></trkpt><trkpt lat="42.26273708036935" lon="11.858489054191871"><ele>148.0</ele><time>2026-04-12T15:27:53.001Z</time></trkpt><trkpt lat="42.26278520536985" lon="11.85874188216264"><ele>147.66666666666669</ele><time>2026-04-12T15:27:54.001Z</time></trkpt><trkpt lat="42.262830204617345" lon="11.85899302665186"><ele>147.33333333333334</ele><time>2026-04-12T15:27:55.001Z</time></trkpt><trkpt lat="42.26287301321994" lon="11.859241666567954"><ele>147.0</ele><time>2026-04-12T15:27:56.001Z</time></trkpt><trkpt lat="42.262910963874695" lon="11.859484035795495"><ele>148.0</ele><time>2026-04-12T15:27:57.001Z</time></trkpt><trkpt lat="42.26294547257326" lon="11.8597210528767"><ele>149.0</ele><time>2026-04-12T15:27:58.001Z</time></trkpt><trkpt lat="42.26297682623239" lon="11.859953509523296"><ele>150.0</ele><time>2026-04-12T15:27:59.001Z</time></trkpt><trkpt lat="42.26300802199306" lon="11.860193105861939"><ele>150.0</ele><time>2026-04-12T15:28:00.001Z</time></trkpt><trkpt lat="42.2630395801703" lon="11.8604283573229"><ele>150.0</ele><time>2026-04-12T15:28:01Z</time></trkpt><trkpt lat="42.26307017715102" lon="11.86066176336706"><ele>150.0</ele><time>2026-04-12T15:28:02Z</time></trkpt><trkpt lat="42.26309782559994" lon="11.860878965670926"><ele>151.66666666666666</ele><time>2026-04-12T15:28:03Z</time></trkpt><trkpt lat="42.26312743514202" lon="11.861092687143758"><ele>153.33333333333331</ele><time>2026-04-12T15:28:04Z</time></trkpt><trkpt lat="42.263157323730866" lon="11.861308767326332"><ele>155.0</ele><time>2026-04-12T15:28:05Z</time></trkpt><trkpt lat="42.26318381227735" lon="11.861529361686584"><ele>155.0</ele><time>2026-04-12T15:28:06Z</time></trkpt><trkpt lat="42.26320801672728" lon="11.861742310469024"><ele>155.0</ele><time>2026-04-12T15:28:07Z</time></trkpt><trkpt lat="42.26322738512326" lon="11.861967889985493"><ele>155.0</ele><time>2026-04-12T15:28:08Z</time></trkpt><trkpt lat="42.26324964875157" lon="11.862192372262152"><ele>155.33333333333331</ele><time>2026-04-12T15:28:09Z</time></trkpt><trkpt lat="42.263274939927975" lon="11.862429700731736"><ele>155.66666666666666</ele><time>2026-04-12T15:28:10Z</time></trkpt><trkpt lat="42.26330098138346" lon="11.862663893020438"><ele>156.0</ele><time>2026-04-12T15:28:11Z</time></trkpt><trkpt lat="42.26332604259878" lon="11.86290383328158"><ele>156.33333333333334</ele><time>2026-04-12T15:28:12Z</time></trkpt><trkpt lat="42.26334845203881" lon="11.863144640055527"><ele>156.66666666666669</ele><time>2026-04-12T15:28:13Z</time></trkpt><trkpt lat="42.263367957518085" lon="11.863385038788973"><ele>157.0</ele><time>2026-04-12T15:28:14.001Z</time></trkpt><trkpt lat="42.26338578968797" lon="11.86361949763302"><ele>157.0</ele><time>2026-04-12T15:28:15.001Z</time></trkpt><trkpt lat="42.26340024113101" lon="11.86384613155355"><ele>157.0</ele><time>2026-04-12T15:28:16.001Z</time></trkpt><trkpt lat="42.263415454274686" lon="11.864076284270292"><ele>157.0</ele><time>2026-04-12T15:28:17.001Z</time></trkpt><trkpt lat="42.26343784321779" lon="11.864304027435386"><ele>157.0</ele><time>2026-04-12T15:28:18.001Z</time></trkpt><trkpt lat="42.26346761600517" lon="11.864533847680228"><ele>157.0</ele><time>2026-04-12T15:28:19.001Z</time></trkpt><trkpt lat="42.26349945463356" lon="11.864767332039076"><ele>157.0</ele><time>2026-04-12T15:28:20.001Z</time></trkpt><trkpt lat="42.26352867688996" lon="11.865014399257895"><ele>156.0</ele><time>2026-04-12T15:28:21.001Z</time></trkpt><trkpt lat="42.263556504797755" lon="11.865261820634805"><ele>155.0</ele><time>2026-04-12T15:28:22.001Z</time></trkpt><trkpt lat="42.263581481910535" lon="11.865512903487138"><ele>154.0</ele><time>2026-04-12T15:28:23.001Z</time></trkpt><trkpt lat="42.26359759695135" lon="11.865759392388286"><ele>153.33333333333334</ele><time>2026-04-12T15:28:24.001Z</time></trkpt><trkpt lat="42.26360014922032" lon="11.866011326918098"><ele>152.66666666666666</ele><time>2026-04-12T15:28:25.001Z</time></trkpt><trkpt lat="42.26358576187289" lon="11.866269930532294"><ele>152.0</ele><time>2026-04-12T15:28:26.001Z</time></trkpt><trkpt lat="42.26356240670509" lon="11.866519317668393"><ele>152.0</ele><time>2026-04-12T15:28:27.001Z</time></trkpt><trkpt lat="42.26353402946993" lon="11.866764105036333"><ele>152.0</ele><time>2026-04-12T15:28:28.001Z</time></trkpt><trkpt lat="42.26349862010454" lon="11.867009019503945"><ele>152.0</ele><time>2026-04-12T15:28:29.001Z</time></trkpt><trkpt lat="42.263465900615" lon="11.86724432919767"><ele>153.0</ele><time>2026-04-12T15:28:30.001Z</time></trkpt><trkpt lat="42.26342997453051" lon="11.8674856638694"><ele>154.0</ele><time>2026-04-12T15:28:31.001Z</time></trkpt><trkpt lat="42.263392055668064" lon="11.867728854563351"><ele>155.0</ele><time>2026-04-12T15:28:32.001Z</time></trkpt><trkpt lat="42.26335153028201" lon="11.867967524070684"><ele>156.66666666666666</ele><time>2026-04-12T15:28:33.001Z</time></trkpt><trkpt lat="42.26330979351396" lon="11.868207674346566"><ele>158.33333333333334</ele><time>2026-04-12T15:28:34.001Z</time></trkpt><trkpt lat="42.26326895799475" lon="11.86844356272698"><ele>160.0</ele><time>2026-04-12T15:28:35.001Z</time></trkpt><trkpt lat="42.26323264379162" lon="11.86867366023661"><ele>161.0</ele><time>2026-04-12T15:28:36.001Z</time></trkpt><trkpt lat="42.26319838737921" lon="11.868894787145429"><ele>162.0</ele><time>2026-04-12T15:28:37.001Z</time></trkpt><trkpt lat="42.26316831163466" lon="11.869120917169841"><ele>163.0</ele><time>2026-04-12T15:28:38.001Z</time></trkpt><trkpt lat="42.26315145785608" lon="11.869341897617598"><ele>163.0</ele><time>2026-04-12T15:28:39.001Z</time></trkpt><trkpt lat="42.263161990393606" lon="11.869568115348258"><ele>163.0</ele><time>2026-04-12T15:28:40.001Z</time></trkpt><trkpt lat="42.263193148996656" lon="11.86979902792262"><ele>163.0</ele><time>2026-04-12T15:28:41.001Z</time></trkpt><trkpt lat="42.26324161631577" lon="11.870022583026557"><ele>162.33333333333334</ele><time>2026-04-12T15:28:42.001Z</time></trkpt><trkpt lat="42.26331029474027" lon="11.870244701538262"><ele>161.66666666666666</ele><time>2026-04-12T15:28:43.001Z</time></trkpt><trkpt lat="42.26338913522729" lon="11.87045958371021"><ele>161.0</ele><time>2026-04-12T15:28:44.001Z</time></trkpt><trkpt lat="42.26347097142542" lon="11.870683426051619"><ele>161.0</ele><time>2026-04-12T15:28:45.001Z</time></trkpt><trkpt lat="42.26354979855323" lon="11.870920087030782"><ele>161.0</ele><time>2026-04-12T15:28:46.001Z</time></trkpt><trkpt lat="42.26362578396509" lon="11.87115033696249"><ele>161.0</ele><time>2026-04-12T15:28:47.001Z</time></trkpt><trkpt lat="42.2637040304987" lon="11.871382592436266"><ele>160.0</ele><time>2026-04-12T15:28:48.001Z</time></trkpt><trkpt lat="42.263782554694686" lon="11.87162043734899"><ele>159.0</ele><time>2026-04-12T15:28:49.001Z</time></trkpt><trkpt lat="42.26385862586087" lon="11.871846974400023"><ele>158.0</ele><time>2026-04-12T15:28:50.001Z</time></trkpt><trkpt lat="42.263935990664365" lon="11.87208063650365"><ele>158.33333333333331</ele><time>2026-04-12T15:28:51.001Z</time></trkpt><trkpt lat="42.26401386008167" lon="11.87231497608446"><ele>158.66666666666666</ele><time>2026-04-12T15:28:52.001Z</time></trkpt><trkpt lat="42.26408602695086" lon="11.872545281805058"><ele>159.0</ele><time>2026-04-12T15:28:53.001Z</time></trkpt><trkpt lat="42.26415820601315" lon="11.87276561201477"><ele>159.33333333333334</ele><time>2026-04-12T15:28:54.001Z</time></trkpt><trkpt lat="42.26423159663357" lon="11.872991684994652"><ele>159.66666666666669</ele><time>2026-04-12T15:28:55.001Z</time></trkpt><trkpt lat="42.26430823831554" lon="11.873219012531335"><ele>160.0</ele><time>2026-04-12T15:28:56.001Z</time></trkpt><trkpt lat="42.26438164730514" lon="11.873438158660216"><ele>160.33333333333334</ele><time>2026-04-12T15:28:57.001Z</time></trkpt><trkpt lat="42.26445837509657" lon="11.873668397922817"><ele>160.66666666666666</ele><time>2026-04-12T15:28:58.001Z</time></trkpt><trkpt lat="42.26453341444318" lon="11.873892198612937"><ele>161.0</ele><time>2026-04-12T15:28:59.001Z</time></trkpt><trkpt lat="42.26460457185653" lon="11.874114828672685"><ele>161.33333333333331</ele><time>2026-04-12T15:29:00.001Z</time></trkpt><trkpt lat="42.264676313434165" lon="11.874342370089323"><ele>161.66666666666666</ele><time>2026-04-12T15:29:01.001Z</time></trkpt><trkpt lat="42.26474985848913" lon="11.874569619034448"><ele>162.0</ele><time>2026-04-12T15:29:02.001Z</time></trkpt><trkpt lat="42.264823376401026" lon="11.874792916115585"><ele>162.66666666666666</ele><time>2026-04-12T15:29:03.001Z</time></trkpt><trkpt lat="42.264900000889085" lon="11.8750250019146"><ele>163.33333333333331</ele><time>2026-04-12T15:29:04.001Z</time></trkpt><trkpt lat="42.264972846077896" lon="11.875254402421948"><ele>164.0</ele><time>2026-04-12T15:29:05.002Z</time></trkpt><trkpt lat="42.26505004004772" lon="11.875488337692094"><ele>164.0</ele><time>2026-04-12T15:29:06.002Z</time></trkpt><trkpt lat="42.265135799832166" lon="11.875735394116473"><ele>164.0</ele><time>2026-04-12T15:29:07.002Z</time></trkpt><trkpt lat="42.26522152637411" lon="11.875988295562458"><ele>164.0</ele><time>2026-04-12T15:29:08.002Z</time></trkpt><trkpt lat="42.265303064580586" lon="11.876253728625148"><ele>164.33333333333331</ele><time>2026-04-12T15:29:09.002Z</time></trkpt><trkpt lat="42.265382136736875" lon="11.876525002850258"><ele>164.66666666666666</ele><time>2026-04-12T15:29:10.002Z</time></trkpt><trkpt lat="42.26545831623" lon="11.876768295457342"><ele>165.0</ele><time>2026-04-12T15:29:11.002Z</time></trkpt><trkpt lat="42.26553484408069" lon="11.87699909140372"><ele>165.0</ele><time>2026-04-12T15:29:12.002Z</time></trkpt><trkpt lat="42.265611476072934" lon="11.877233580546914"><ele>165.0</ele><time>2026-04-12T15:29:13.002Z</time></trkpt><trkpt lat="42.26568618062982" lon="11.877463527702707"><ele>165.0</ele><time>2026-04-12T15:29:14.002Z</time></trkpt><trkpt lat="42.265753577252006" lon="11.877682429074198"><ele>164.66666666666666</ele><time>2026-04-12T15:29:15.002Z</time></trkpt><trkpt lat="42.26582284412652" lon="11.877901974290275"><ele>164.33333333333331</ele><time>2026-04-12T15:29:16.002Z</time></trkpt><trkpt lat="42.265893753700354" lon="11.878120226836074"><ele>164.0</ele><time>2026-04-12T15:29:17.002Z</time></trkpt><trkpt lat="42.26596308049098" lon="11.878344473752149"><ele>163.66666666666666</ele><time>2026-04-12T15:29:18.002Z</time></trkpt><trkpt lat="42.266031929854385" lon="11.878566137499346"><ele>163.33333333333334</ele><time>2026-04-12T15:29:19.002Z</time></trkpt><trkpt lat="42.26609863992598" lon="11.878783798542992"><ele>163.0</ele><time>2026-04-12T15:29:20.002Z</time></trkpt><trkpt lat="42.2661663211106" lon="11.878999903209913"><ele>163.0</ele><time>2026-04-12T15:29:21.002Z</time></trkpt><trkpt lat="42.26623343866485" lon="11.87921351919456"><ele>163.0</ele><time>2026-04-12T15:29:22.002Z</time></trkpt><trkpt lat="42.266296409148424" lon="11.879423061359834"><ele>163.0</ele><time>2026-04-12T15:29:23.002Z</time></trkpt><trkpt lat="42.26634943334474" lon="11.879634334722025"><ele>163.0</ele><time>2026-04-12T15:29:24.002Z</time></trkpt><trkpt lat="42.26640013005583" lon="11.879867826155639"><ele>163.0</ele><time>2026-04-12T15:29:25.002Z</time></trkpt><trkpt lat="42.26644521583863" lon="11.880094458412444"><ele>163.0</ele><time>2026-04-12T15:29:26.002Z</time></trkpt><trkpt lat="42.26648480395771" lon="11.880329144983008"><ele>166.33333333333334</ele><time>2026-04-12T15:29:27.002Z</time></trkpt><trkpt lat="42.2665132836308" lon="11.880555451483687"><ele>169.66666666666666</ele><time>2026-04-12T15:29:28.002Z</time></trkpt><trkpt lat="42.266540494891665" lon="11.880785441055727"><ele>173.0</ele><time>2026-04-12T15:29:29.002Z</time></trkpt><trkpt lat="42.26656417177498" lon="11.881025747272298"><ele>173.0</ele><time>2026-04-12T15:29:30.002Z</time></trkpt><trkpt lat="42.26658238941291" lon="11.881259269031041"><ele>173.0</ele><time>2026-04-12T15:29:31.002Z</time></trkpt><trkpt lat="42.26660655484353" lon="11.881502820626944"><ele>173.0</ele><time>2026-04-12T15:29:32.002Z</time></trkpt><trkpt lat="42.266628643120406" lon="11.881736600436998"><ele>172.66666666666666</ele><time>2026-04-12T15:29:33.002Z</time></trkpt><trkpt lat="42.2666534361764" lon="11.881959986966857"><ele>172.33333333333334</ele><time>2026-04-12T15:29:34.002Z</time></trkpt><trkpt lat="42.26667143211554" lon="11.88217315366944"><ele>172.0</ele><time>2026-04-12T15:29:35.002Z</time></trkpt><trkpt lat="42.26668783313064" lon="11.882367960786647"><ele>172.0</ele><time>2026-04-12T15:29:36.002Z</time></trkpt><trkpt lat="42.26670478640407" lon="11.882559200394825"><ele>172.0</ele><time>2026-04-12T15:29:37.002Z</time></trkpt><trkpt lat="42.266724656558615" lon="11.88275274894417"><ele>172.0</ele><time>2026-04-12T15:29:38.002Z</time></trkpt><trkpt lat="42.26674192221211" lon="11.882952116892291"><ele>172.0</ele><time>2026-04-12T15:29:39.002Z</time></trkpt><trkpt lat="42.26675926927956" lon="11.883152995451654"><ele>172.33333333333334</ele><time>2026-04-12T15:29:40.002Z</time></trkpt><trkpt lat="42.26677866477646" lon="11.88335437031773"><ele>172.66666666666666</ele><time>2026-04-12T15:29:41.002Z</time></trkpt><trkpt lat="42.26679840726049" lon="11.883556996310203"><ele>173.0</ele><time>2026-04-12T15:29:42.002Z</time></trkpt><trkpt lat="42.26681583398019" lon="11.883759616841722"><ele>174.33333333333331</ele><time>2026-04-12T15:29:43.002Z</time></trkpt><trkpt lat="42.26683332548845" lon="11.883963089745532"><ele>175.66666666666666</ele><time>2026-04-12T15:29:44.002Z</time></trkpt><trkpt lat="42.26685345173914" lon="11.884166322514524"><ele>177.0</ele><time>2026-04-12T15:29:45.002Z</time></trkpt><trkpt lat="42.26687461044006" lon="11.884366874938483"><ele>178.0</ele><time>2026-04-12T15:29:46.002Z</time></trkpt><trkpt lat="42.2668920573498" lon="11.884564998720618"><ele>179.0</ele><time>2026-04-12T15:29:47.002Z</time></trkpt><trkpt lat="42.26691055269586" lon="11.884763452929558"><ele>180.0</ele><time>2026-04-12T15:29:48.002Z</time></trkpt><trkpt lat="42.26692911625093" lon="11.88496946357459"><ele>181.0</ele><time>2026-04-12T15:29:49.002Z</time></trkpt><trkpt lat="42.26694596869871" lon="11.88517417823819"><ele>181.25</ele><time>2026-04-12T15:29:50.003Z</time></trkpt><trkpt lat="42.26696326897747" lon="11.885376526389692"><ele>181.5</ele><time>2026-04-12T15:29:51.003Z</time></trkpt><trkpt lat="42.26697840574898" lon="11.885570641163374"><ele>181.75</ele><time>2026-04-12T15:29:52.003Z</time></trkpt><trkpt lat="42.26699831227514" lon="11.885748820028375"><ele>182.0</ele><time>2026-04-12T15:29:53.003Z</time></trkpt><trkpt lat="42.2670182582005" lon="11.885937646774702"><ele>182.5</ele><time>2026-04-12T15:29:54.003Z</time></trkpt><trkpt lat="42.26703772040404" lon="11.886134257820565"><ele>183.0</ele><time>2026-04-12T15:29:55.003Z</time></trkpt><trkpt lat="42.26705746232179" lon="11.88633370949661"><ele>183.5</ele><time>2026-04-12T15:29:56.003Z</time></trkpt><trkpt lat="42.26707185930351" lon="11.88652754436852"><ele>184.0</ele><time>2026-04-12T15:29:57.003Z</time></trkpt><trkpt lat="42.26708761952089" lon="11.886719883352452"><ele>183.5</ele><time>2026-04-12T15:29:58Z</time></trkpt><trkpt lat="42.26710665278486" lon="11.886911219677787"><ele>183.0</ele><time>2026-04-12T15:29:59Z</time></trkpt><trkpt lat="42.26712724357642" lon="11.887104286994607"><ele>182.5</ele><time>2026-04-12T15:30:00Z</time></trkpt><trkpt lat="42.26714662868204" lon="11.88729530036248"><ele>182.0</ele><time>2026-04-12T15:30:01Z</time></trkpt><trkpt lat="42.26716438280156" lon="11.88748579110021"><ele>182.25</ele><time>2026-04-12T15:30:02Z</time></trkpt><trkpt lat="42.267178857644595" lon="11.887671210152641"><ele>182.5</ele><time>2026-04-12T15:30:03Z</time></trkpt><trkpt lat="42.26719562463819" lon="11.887856106339317"><ele>182.75</ele><time>2026-04-12T15:30:04Z</time></trkpt><trkpt lat="42.26721279948354" lon="11.888030740718994"><ele>183.0</ele><time>2026-04-12T15:30:05Z</time></trkpt><trkpt lat="42.26722856693205" lon="11.88820192552045"><ele>183.0</ele><time>2026-04-12T15:30:06Z</time></trkpt><trkpt lat="42.26724062933175" lon="11.888361181609293"><ele>183.0</ele><time>2026-04-12T15:30:07Z</time></trkpt><trkpt lat="42.26725432100427" lon="11.888511356165672"><ele>183.0</ele><time>2026-04-12T15:30:08Z</time></trkpt><trkpt lat="42.26726940242262" lon="11.888651715552557"><ele>183.0</ele><time>2026-04-12T15:30:09Z</time></trkpt><trkpt lat="42.26727948841355" lon="11.888779458186937"><ele>183.0</ele><time>2026-04-12T15:30:10Z</time></trkpt><trkpt lat="42.267287626455655" lon="11.88890481218272"><ele>184.8</ele><time>2026-04-12T15:30:11Z</time></trkpt><trkpt lat="42.26729558492408" lon="11.889027308330627"><ele>186.60000000000002</ele><time>2026-04-12T15:30:12Z</time></trkpt><trkpt lat="42.26730717884068" lon="11.88915634034321"><ele>188.39999999999998</ele><time>2026-04-12T15:30:13Z</time></trkpt><trkpt lat="42.267318799054884" lon="11.889289533256267"><ele>190.2</ele><time>2026-04-12T15:30:14Z</time></trkpt><trkpt lat="42.267321622097136" lon="11.889429304568672"><ele>192.0</ele><time>2026-04-12T15:30:15Z</time></trkpt><trkpt lat="42.267326704535634" lon="11.889564044293055"><ele>192.6</ele><time>2026-04-12T15:30:16Z</time></trkpt><trkpt lat="42.267329467362714" lon="11.88969614029665"><ele>193.2</ele><time>2026-04-12T15:30:17Z</time></trkpt><trkpt lat="42.26733313827984" lon="11.8898312956466"><ele>193.8</ele><time>2026-04-12T15:30:18Z</time></trkpt><trkpt lat="42.267341659511736" lon="11.889967897800418"><ele>194.4</ele><time>2026-04-12T15:30:19Z</time></trkpt><trkpt lat="42.2673475356133" lon="11.890097045762825"><ele>195.0</ele><time>2026-04-12T15:30:20Z</time></trkpt><trkpt lat="42.26735233850756" lon="11.890219554012216"><ele>195.33333333333334</ele><time>2026-04-12T15:30:21Z</time></trkpt><trkpt lat="42.26735523719297" lon="11.890347183790222"><ele>195.66666666666669</ele><time>2026-04-12T15:30:22Z</time></trkpt><trkpt lat="42.26735958672138" lon="11.890460919862504"><ele>196.0</ele><time>2026-04-12T15:30:23Z</time></trkpt><trkpt lat="42.26737015700016" lon="11.890589319304631"><ele>196.33333333333334</ele><time>2026-04-12T15:30:25Z</time></trkpt><trkpt lat="42.26737413848539" lon="11.89069484713276"><ele>196.66666666666669</ele><time>2026-04-12T15:30:28Z</time></trkpt><trkpt lat="42.26737734284646" lon="11.890799381149012"><ele>197.0</ele><time>2026-04-12T15:30:30.001Z</time></trkpt><trkpt lat="42.26738143923054" lon="11.890917976346108"><ele>197.66666666666669</ele><time>2026-04-12T15:30:32.001Z</time></trkpt><trkpt lat="42.26738815552302" lon="11.891056327348357"><ele>198.33333333333334</ele><time>2026-04-12T15:30:34.001Z</time></trkpt><trkpt lat="42.26739574871357" lon="11.891149197924992"><ele>199.0</ele><time>2026-04-12T15:30:35.001Z</time></trkpt><trkpt lat="42.26738369954615" lon="11.891239326267474"><ele>199.66666666666669</ele><time>2026-04-12T15:30:36.001Z</time></trkpt><trkpt lat="42.26739797473649" lon="11.891323507501665"><ele>200.33333333333334</ele><time>2026-04-12T15:30:37.001Z</time></trkpt><trkpt lat="42.26740255595103" lon="11.89142054005386"><ele>201.0</ele><time>2026-04-12T15:30:38.001Z</time></trkpt><trkpt lat="42.26740680636068" lon="11.891521356064448"><ele>201.0</ele><time>2026-04-12T15:30:39.001Z</time></trkpt><trkpt lat="42.26741059080032" lon="11.891615752302252"><ele>201.0</ele><time>2026-04-12T15:30:40.001Z</time></trkpt><trkpt lat="42.267414612849684" lon="11.891708946198467"><ele>201.0</ele><time>2026-04-12T15:30:41.001Z</time></trkpt><trkpt lat="42.26741486841857" lon="11.891799030712331"><ele>201.0</ele><time>2026-04-12T15:30:42.001Z</time></trkpt><trkpt lat="42.2674193064922" lon="11.891889961834744"><ele>201.0</ele><time>2026-04-12T15:30:43.001Z</time></trkpt><trkpt lat="42.267421487003666" lon="11.891982246006064"><ele>201.0</ele><time>2026-04-12T15:30:44.001Z</time></trkpt><trkpt lat="42.267425869446065" lon="11.892073319779922"><ele>201.0</ele><time>2026-04-12T15:30:45.001Z</time></trkpt><trkpt lat="42.26743536177858" lon="11.892221930032184"><ele>202.0</ele><time>2026-04-12T15:30:47.001Z</time></trkpt><trkpt lat="42.2674276031052" lon="11.89234900939756"><ele>203.0</ele><time>2026-04-12T15:30:49.001Z</time></trkpt><trkpt lat="42.267432884617705" lon="11.892477135866285"><ele>204.0</ele><time>2026-04-12T15:30:51.001Z</time></trkpt><trkpt lat="42.26745235257026" lon="11.892620514620958"><ele>205.0</ele><time>2026-04-12T15:30:53.001Z</time></trkpt><trkpt lat="42.26745729121772" lon="11.89277286645956"><ele>206.0</ele><time>2026-04-12T15:30:55.001Z</time></trkpt><trkpt lat="42.26746129708313" lon="11.892908781976596"><ele>207.0</ele><time>2026-04-12T15:30:57.001Z</time></trkpt><trkpt lat="42.26746897325593" lon="11.893050962581182"><ele>208.0</ele><time>2026-04-12T15:30:59.001Z</time></trkpt><trkpt lat="42.26747460482881" lon="11.89320662898889"><ele>209.0</ele><time>2026-04-12T15:31:01.001Z</time></trkpt><trkpt lat="42.26748527510998" lon="11.893367240357163"><ele>210.0</ele><time>2026-04-12T15:31:03.001Z</time></trkpt><trkpt lat="42.267487146773966" lon="11.893452563923875"><ele>211.0</ele><time>2026-04-12T15:31:04.001Z</time></trkpt><trkpt lat="42.2674885391723" lon="11.893538469622301"><ele>211.42857142857144</ele><time>2026-04-12T15:31:05.001Z</time></trkpt><trkpt lat="42.267493769786185" lon="11.893627127602333"><ele>211.85714285714286</ele><time>2026-04-12T15:31:06.001Z</time></trkpt><trkpt lat="42.2674816266431" lon="11.89371775162133"><ele>212.28571428571428</ele><time>2026-04-12T15:31:07.001Z</time></trkpt><trkpt lat="42.267485018711994" lon="11.893814097743341"><ele>212.71428571428572</ele><time>2026-04-12T15:31:08.001Z</time></trkpt><trkpt lat="42.2674884795846" lon="11.893912398109006"><ele>213.14285714285714</ele><time>2026-04-12T15:31:09.001Z</time></trkpt><trkpt lat="42.26749220587823" lon="11.894018237268432"><ele>213.57142857142858</ele><time>2026-04-12T15:31:10.001Z</time></trkpt><trkpt lat="42.26749626314127" lon="11.89413347717152"><ele>214.0</ele><time>2026-04-12T15:31:11.001Z</time></trkpt><trkpt lat="42.26749995211132" lon="11.894249894097529"><ele>214.49999999999997</ele><time>2026-04-12T15:31:12.001Z</time></trkpt><trkpt lat="42.26750239706877" lon="11.894367129662184"><ele>215.0</ele><time>2026-04-12T15:31:13.001Z</time></trkpt><trkpt lat="42.267513097021705" lon="11.894486611563499"><ele>215.5</ele><time>2026-04-12T15:31:14.001Z</time></trkpt><trkpt lat="42.267509232841434" lon="11.894595055505441"><ele>216.0</ele><time>2026-04-12T15:31:15.001Z</time></trkpt><trkpt lat="42.26750196267606" lon="11.894710040513418"><ele>216.49999999999997</ele><time>2026-04-12T15:31:16.002Z</time></trkpt><trkpt lat="42.267507866436986" lon="11.894824352865616"><ele>217.0</ele><time>2026-04-12T15:31:17.002Z</time></trkpt><trkpt lat="42.26750142836764" lon="11.894940702958731"><ele>216.99999999999997</ele><time>2026-04-12T15:31:18.002Z</time></trkpt><trkpt lat="42.26749531579898" lon="11.895063446188555"><ele>217.0</ele><time>2026-04-12T15:31:19.002Z</time></trkpt><trkpt lat="42.26748572244707" lon="11.895171102655517"><ele>217.0</ele><time>2026-04-12T15:31:20.002Z</time></trkpt><trkpt lat="42.2674777510369" lon="11.895285116322606"><ele>217.0</ele><time>2026-04-12T15:31:21.002Z</time></trkpt><trkpt lat="42.26747300539884" lon="11.895393186436536"><ele>216.99999999999997</ele><time>2026-04-12T15:31:22.002Z</time></trkpt><trkpt lat="42.26746892997725" lon="11.895496210739887"><ele>217.0</ele><time>2026-04-12T15:31:23.002Z</time></trkpt><trkpt lat="42.26746624579741" lon="11.895597146759043"><ele>218.28571428571428</ele><time>2026-04-12T15:31:24.002Z</time></trkpt><trkpt lat="42.2674638925451" lon="11.895699872174188"><ele>219.57142857142856</ele><time>2026-04-12T15:31:25.002Z</time></trkpt><trkpt lat="42.2674710908762" lon="11.895804088218766"><ele>220.85714285714286</ele><time>2026-04-12T15:31:26.002Z</time></trkpt><trkpt lat="42.26747920391435" lon="11.895910559494318"><ele>222.14285714285714</ele><time>2026-04-12T15:31:27.002Z</time></trkpt><trkpt lat="42.2674863520746" lon="11.896008860108951"><ele>223.42857142857142</ele><time>2026-04-12T15:31:28.002Z</time></trkpt><trkpt lat="42.26749544798881" lon="11.896098855608058"><ele>224.71428571428572</ele><time>2026-04-12T15:31:29.002Z</time></trkpt><trkpt lat="42.26750866774412" lon="11.896186277895996"><ele>226.0</ele><time>2026-04-12T15:31:30.002Z</time></trkpt><trkpt lat="42.26752621118224" lon="11.896351949879955"><ele>226.49999999999997</ele><time>2026-04-12T15:31:32.002Z</time></trkpt><trkpt lat="42.267536818049315" lon="11.896436992116618"><ele>227.0</ele><time>2026-04-12T15:31:33.002Z</time></trkpt><trkpt lat="42.26755241173983" lon="11.896563918703809"><ele>227.5</ele><time>2026-04-12T15:31:35.002Z</time></trkpt><trkpt lat="42.26757349094205" lon="11.896703033003885"><ele>228.0</ele><time>2026-04-12T15:31:54.002Z</time></trkpt><trkpt lat="42.267596935450186" lon="11.896820641900137"><ele>228.49999999999997</ele><time>2026-04-12T15:31:56.002Z</time></trkpt><trkpt lat="42.267598828732744" lon="11.896940298677155"><ele>229.0</ele><time>2026-04-12T15:31:58.002Z</time></trkpt><trkpt lat="42.26761006418312" lon="11.897050429336465"><ele>230.0</ele><time>2026-04-12T15:32:00.002Z</time></trkpt><trkpt lat="42.26761033335907" lon="11.897188927719107"><ele>230.99999999999997</ele><time>2026-04-12T15:32:02.002Z</time></trkpt><trkpt lat="42.267617007156225" lon="11.897350358645363"><ele>231.99999999999997</ele><time>2026-04-12T15:32:04Z</time></trkpt><trkpt lat="42.26763258458922" lon="11.897438384780827"><ele>233.0</ele><time>2026-04-12T15:32:05Z</time></trkpt><trkpt lat="42.2676575764401" lon="11.89752544178225"><ele>234.0</ele><time>2026-04-12T15:32:06Z</time></trkpt><trkpt lat="42.26770024663027" lon="11.897652569236106"><ele>234.33333333333334</ele><time>2026-04-12T15:32:08Z</time></trkpt><trkpt lat="42.267746879929476" lon="11.89778252601195"><ele>234.66666666666669</ele><time>2026-04-12T15:32:10Z</time></trkpt><trkpt lat="42.26777951743777" lon="11.897866187616357"><ele>235.0</ele><time>2026-04-12T15:32:11Z</time></trkpt><trkpt lat="42.26781133676456" lon="11.897947862721956"><ele>235.33333333333334</ele><time>2026-04-12T15:32:12Z</time></trkpt><trkpt lat="42.267848434828046" lon="11.898032678286299"><ele>235.66666666666669</ele><time>2026-04-12T15:32:13Z</time></trkpt><trkpt lat="42.267886398522684" lon="11.898121478735394"><ele>236.0</ele><time>2026-04-12T15:32:14Z</time></trkpt><trkpt lat="42.26794420602668" lon="11.898215630054601"><ele>236.00000000000003</ele><time>2026-04-12T15:32:15Z</time></trkpt><trkpt lat="42.26797998693103" lon="11.898331104108484"><ele>236.0</ele><time>2026-04-12T15:32:16Z</time></trkpt><trkpt lat="42.26802468742473" lon="11.898426631820467"><ele>236.0</ele><time>2026-04-12T15:32:17Z</time></trkpt><trkpt lat="42.26806819925735" lon="11.898519175636554"><ele>236.0</ele><time>2026-04-12T15:32:18Z</time></trkpt><trkpt lat="42.26812284656795" lon="11.898597056148475"><ele>236.00000000000003</ele><time>2026-04-12T15:32:19Z</time></trkpt><trkpt lat="42.26816412444805" lon="11.898687809202391"><ele>236.0</ele><time>2026-04-12T15:32:20Z</time></trkpt><trkpt lat="42.268204406943575" lon="11.898779449774642"><ele>237.0</ele><time>2026-04-12T15:32:21Z</time></trkpt><trkpt lat="42.268242138401426" lon="11.898858292734696"><ele>237.0</ele><time>2026-04-12T15:32:22Z</time></trkpt><trkpt lat="42.26829582135846" lon="11.89896937401122"><ele>237.0</ele><time>2026-04-12T15:32:24Z</time></trkpt><trkpt lat="42.26826318387607" lon="11.899051121891764"><ele>237.0</ele><time>2026-04-12T15:32:26Z</time></trkpt><trkpt lat="42.26816655576569" lon="11.899096210203634"><ele>237.0</ele><time>2026-04-12T15:32:30Z</time></trkpt></trkseg></trk></gpx>